<?xml version="1.0" encoding="UTF-8"?>
<gpx
  version="1.0"
  creator="GPSBabel - http://www.gpsbabel.org"
  xmlns:xsi="http://www.w3.org/2001/XMLSchema-instance"
  xmlns="http://www.topografix.com/GPX/1/0"
  xsi:schemaLocation="http://www.topografix.com/GPX/1/0 http://www.topografix.com/GPX/1/0/gpx.xsd">
<time>2011-09-29T18:17:41Z</time>
<bounds minlat="32.561237335" minlon="35.120792389" maxlat="32.609001160" maxlon="35.149669647"/>
<trk>
  <name>Holux2011/09/29_08:05</name>
<trkseg>
<trkpt lat="32.608886719" lon="35.137870789">
  <ele>156.387939</ele>
  <time>2011-09-29T05:05:17Z</time>
  <speed>0.040000</speed>
</trkpt>
<trkpt lat="32.608970642" lon="35.137874603">
  <ele>157.915283</ele>
  <time>2011-09-29T05:05:17Z</time>
  <speed>0.420000</speed>
</trkpt>
<trkpt lat="32.608997345" lon="35.137825012">
  <ele>158.075439</ele>
  <time>2011-09-29T05:05:18Z</time>
  <speed>0.140000</speed>
</trkpt>
<trkpt lat="32.609001160" lon="35.137794495">
  <ele>158.735596</ele>
  <time>2011-09-29T05:05:18Z</time>
  <speed>0.020000</speed>
</trkpt>
<trkpt lat="32.608993530" lon="35.137836456">
  <ele>160.321533</ele>
  <time>2011-09-29T05:05:18Z</time>
  <speed>0.050000</speed>
</trkpt>
<trkpt lat="32.608989716" lon="35.137809753">
  <ele>156.927002</ele>
  <time>2011-09-29T05:05:19Z</time>
  <speed>0.030000</speed>
</trkpt>
<trkpt lat="32.608978271" lon="35.137817383">
  <ele>154.071533</ele>
  <time>2011-09-29T05:05:19Z</time>
  <speed>0.030000</speed>
</trkpt>
<trkpt lat="32.608966827" lon="35.137817383">
  <ele>151.325439</ele>
  <time>2011-09-29T05:05:19Z</time>
  <speed>0.010000</speed>
</trkpt>
<trkpt lat="32.608943939" lon="35.137840271">
  <ele>149.821533</ele>
  <time>2011-09-29T05:05:20Z</time>
</trkpt>
<trkpt lat="32.608970642" lon="35.137859344">
  <ele>148.044189</ele>
  <time>2011-09-29T05:05:22Z</time>
  <speed>0.720000</speed>
</trkpt>
<trkpt lat="32.608940125" lon="35.137859344">
  <ele>147.919189</ele>
  <time>2011-09-29T05:05:23Z</time>
  <speed>1.640000</speed>
</trkpt>
<trkpt lat="32.608909607" lon="35.137863159">
  <ele>147.325439</ele>
  <time>2011-09-29T05:05:26Z</time>
  <speed>1.500000</speed>
</trkpt>
<trkpt lat="32.608890533" lon="35.137840271">
  <ele>147.516846</ele>
  <time>2011-09-29T05:05:27Z</time>
  <speed>1.630000</speed>
</trkpt>
<trkpt lat="32.608863831" lon="35.137802124">
  <ele>147.157471</ele>
  <time>2011-09-29T05:05:30Z</time>
  <speed>1.600000</speed>
</trkpt>
<trkpt lat="32.608856201" lon="35.137760162">
  <ele>146.134033</ele>
  <time>2011-09-29T05:05:32Z</time>
  <speed>1.650000</speed>
</trkpt>
<trkpt lat="32.608852386" lon="35.137729645">
  <ele>144.923096</ele>
  <time>2011-09-29T05:05:34Z</time>
  <speed>1.330000</speed>
</trkpt>
<trkpt lat="32.608829498" lon="35.137699127">
  <ele>144.126221</ele>
  <time>2011-09-29T05:05:36Z</time>
  <speed>1.880000</speed>
</trkpt>
<trkpt lat="32.608798981" lon="35.137672424">
  <ele>144.259033</ele>
  <time>2011-09-29T05:05:37Z</time>
  <speed>1.850000</speed>
</trkpt>
<trkpt lat="32.608768463" lon="35.137657166">
  <ele>144.360596</ele>
  <time>2011-09-29T05:05:39Z</time>
  <speed>1.950000</speed>
</trkpt>
<trkpt lat="32.608730316" lon="35.137634277">
  <ele>144.520752</ele>
  <time>2011-09-29T05:05:41Z</time>
  <speed>2.290000</speed>
</trkpt>
<trkpt lat="32.608695984" lon="35.137603760">
  <ele>144.430908</ele>
  <time>2011-09-29T05:05:43Z</time>
  <speed>1.790000</speed>
</trkpt>
<trkpt lat="32.608673096" lon="35.137561798">
  <ele>144.563721</ele>
  <time>2011-09-29T05:05:45Z</time>
  <speed>1.880000</speed>
</trkpt>
<trkpt lat="32.608650208" lon="35.137523651">
  <ele>145.376221</ele>
  <time>2011-09-29T05:05:47Z</time>
  <speed>2.140000</speed>
</trkpt>
<trkpt lat="32.608615875" lon="35.137489319">
  <ele>145.762939</ele>
  <time>2011-09-29T05:05:49Z</time>
  <speed>2.760000</speed>
</trkpt>
<trkpt lat="32.608585358" lon="35.137454987">
  <ele>146.583252</ele>
  <time>2011-09-29T05:05:51Z</time>
  <speed>2.250000</speed>
</trkpt>
<trkpt lat="32.608554840" lon="35.137435913">
  <ele>146.665283</ele>
  <time>2011-09-29T05:05:53Z</time>
  <speed>1.330000</speed>
</trkpt>
<trkpt lat="32.608528137" lon="35.137416840">
  <ele>146.755127</ele>
  <time>2011-09-29T05:05:55Z</time>
  <speed>1.810000</speed>
</trkpt>
<trkpt lat="32.608509064" lon="35.137382507">
  <ele>147.141846</ele>
  <time>2011-09-29T05:05:57Z</time>
  <speed>1.820000</speed>
</trkpt>
<trkpt lat="32.608482361" lon="35.137340546">
  <ele>147.305908</ele>
  <time>2011-09-29T05:05:59Z</time>
  <speed>2.240000</speed>
</trkpt>
<trkpt lat="32.608448029" lon="35.137306213">
  <ele>147.391846</ele>
  <time>2011-09-29T05:06:01Z</time>
  <speed>1.750000</speed>
</trkpt>
<trkpt lat="32.608413696" lon="35.137279510">
  <ele>147.559814</ele>
  <time>2011-09-29T05:06:02Z</time>
  <speed>2.430000</speed>
</trkpt>
<trkpt lat="32.608371735" lon="35.137268066">
  <ele>147.716064</ele>
  <time>2011-09-29T05:06:03Z</time>
  <speed>3.150000</speed>
</trkpt>
<trkpt lat="32.608322144" lon="35.137275696">
  <ele>148.247314</ele>
  <time>2011-09-29T05:06:04Z</time>
  <speed>2.820000</speed>
</trkpt>
<trkpt lat="32.608299255" lon="35.137256622">
  <ele>147.786377</ele>
  <time>2011-09-29T05:06:05Z</time>
  <speed>2.020000</speed>
</trkpt>
<trkpt lat="32.608283997" lon="35.137229919">
  <ele>147.794189</ele>
  <time>2011-09-29T05:06:06Z</time>
  <speed>2.310000</speed>
</trkpt>
<trkpt lat="32.608234406" lon="35.137187958">
  <ele>147.274658</ele>
  <time>2011-09-29T05:06:08Z</time>
  <speed>3.060000</speed>
</trkpt>
<trkpt lat="32.608211517" lon="35.137165070">
  <ele>147.192627</ele>
  <time>2011-09-29T05:06:09Z</time>
  <speed>3.180000</speed>
</trkpt>
<trkpt lat="32.608184814" lon="35.137138367">
  <ele>147.180908</ele>
  <time>2011-09-29T05:06:10Z</time>
  <speed>3.370000</speed>
</trkpt>
<trkpt lat="32.608154297" lon="35.137111664">
  <ele>146.880127</ele>
  <time>2011-09-29T05:06:11Z</time>
  <speed>3.330000</speed>
</trkpt>
<trkpt lat="32.608097076" lon="35.137069702">
  <ele>145.395752</ele>
  <time>2011-09-29T05:06:12Z</time>
  <speed>3.240000</speed>
</trkpt>
<trkpt lat="32.608062744" lon="35.137039185">
  <ele>144.239502</ele>
  <time>2011-09-29T05:06:13Z</time>
  <speed>3.220000</speed>
</trkpt>
<trkpt lat="32.608039856" lon="35.137016296">
  <ele>144.423096</ele>
  <time>2011-09-29T05:06:14Z</time>
  <speed>2.880000</speed>
</trkpt>
<trkpt lat="32.608016968" lon="35.136997223">
  <ele>144.110596</ele>
  <time>2011-09-29T05:06:15Z</time>
  <speed>2.840000</speed>
</trkpt>
<trkpt lat="32.607994080" lon="35.136981964">
  <ele>144.005127</ele>
  <time>2011-09-29T05:06:16Z</time>
  <speed>2.620000</speed>
</trkpt>
<trkpt lat="32.607971191" lon="35.136959076">
  <ele>144.032471</ele>
  <time>2011-09-29T05:06:17Z</time>
  <speed>2.810000</speed>
</trkpt>
<trkpt lat="32.607948303" lon="35.136936188">
  <ele>143.798096</ele>
  <time>2011-09-29T05:06:18Z</time>
  <speed>3.090000</speed>
</trkpt>
<trkpt lat="32.607921600" lon="35.136913300">
  <ele>143.743408</ele>
  <time>2011-09-29T05:06:19Z</time>
  <speed>3.060000</speed>
</trkpt>
<trkpt lat="32.607891083" lon="35.136863708">
  <ele>144.747314</ele>
  <time>2011-09-29T05:06:20Z</time>
  <speed>3.130000</speed>
</trkpt>
<trkpt lat="32.607860565" lon="35.136833191">
  <ele>144.512939</ele>
  <time>2011-09-29T05:06:21Z</time>
  <speed>3.020000</speed>
</trkpt>
<trkpt lat="32.607814789" lon="35.136798859">
  <ele>144.798096</ele>
  <time>2011-09-29T05:06:23Z</time>
  <speed>3.150000</speed>
</trkpt>
<trkpt lat="32.607795715" lon="35.136772156">
  <ele>144.583252</ele>
  <time>2011-09-29T05:06:24Z</time>
  <speed>3.190000</speed>
</trkpt>
<trkpt lat="32.607765198" lon="35.136745453">
  <ele>144.680908</ele>
  <time>2011-09-29T05:06:25Z</time>
  <speed>3.030000</speed>
</trkpt>
<trkpt lat="32.607723236" lon="35.136707306">
  <ele>144.821533</ele>
  <time>2011-09-29T05:06:27Z</time>
  <speed>2.770000</speed>
</trkpt>
<trkpt lat="32.607696533" lon="35.136680603">
  <ele>145.680908</ele>
  <time>2011-09-29T05:06:28Z</time>
  <speed>2.720000</speed>
</trkpt>
<trkpt lat="32.607646942" lon="35.136623383">
  <ele>147.278564</ele>
  <time>2011-09-29T05:06:30Z</time>
  <speed>3.010000</speed>
</trkpt>
<trkpt lat="32.607620239" lon="35.136611938">
  <ele>147.489502</ele>
  <time>2011-09-29T05:06:31Z</time>
  <speed>3.080000</speed>
</trkpt>
<trkpt lat="32.607597351" lon="35.136585236">
  <ele>147.852783</ele>
  <time>2011-09-29T05:06:32Z</time>
  <speed>3.210000</speed>
</trkpt>
<trkpt lat="32.607570648" lon="35.136566162">
  <ele>148.669189</ele>
  <time>2011-09-29T05:06:33Z</time>
  <speed>3.090000</speed>
</trkpt>
<trkpt lat="32.607543945" lon="35.136539459">
  <ele>149.723877</ele>
  <time>2011-09-29T05:06:34Z</time>
  <speed>3.260000</speed>
</trkpt>
<trkpt lat="32.607521057" lon="35.136512756">
  <ele>150.157471</ele>
  <time>2011-09-29T05:06:35Z</time>
  <speed>2.880000</speed>
</trkpt>
<trkpt lat="32.607498169" lon="35.136493683">
  <ele>150.481689</ele>
  <time>2011-09-29T05:06:36Z</time>
  <speed>2.970000</speed>
</trkpt>
<trkpt lat="32.607471466" lon="35.136474609">
  <ele>150.669189</ele>
  <time>2011-09-29T05:06:37Z</time>
  <speed>2.830000</speed>
</trkpt>
<trkpt lat="32.607437134" lon="35.136440277">
  <ele>150.915283</ele>
  <time>2011-09-29T05:06:39Z</time>
  <speed>2.850000</speed>
</trkpt>
<trkpt lat="32.607410431" lon="35.136413574">
  <ele>151.864502</ele>
  <time>2011-09-29T05:06:40Z</time>
  <speed>2.710000</speed>
</trkpt>
<trkpt lat="32.607379913" lon="35.136375427">
  <ele>153.341064</ele>
  <time>2011-09-29T05:06:41Z</time>
  <speed>2.720000</speed>
</trkpt>
<trkpt lat="32.607341766" lon="35.136344910">
  <ele>154.302002</ele>
  <time>2011-09-29T05:06:43Z</time>
  <speed>2.110000</speed>
</trkpt>
<trkpt lat="32.607303619" lon="35.136322021">
  <ele>155.341064</ele>
  <time>2011-09-29T05:06:45Z</time>
  <speed>2.170000</speed>
</trkpt>
<trkpt lat="32.607273102" lon="35.136302948">
  <ele>156.653564</ele>
  <time>2011-09-29T05:06:46Z</time>
  <speed>2.340000</speed>
</trkpt>
<trkpt lat="32.607250214" lon="35.136276245">
  <ele>157.837158</ele>
  <time>2011-09-29T05:06:47Z</time>
  <speed>2.600000</speed>
</trkpt>
<trkpt lat="32.607231140" lon="35.136257172">
  <ele>158.235596</ele>
  <time>2011-09-29T05:06:48Z</time>
  <speed>2.720000</speed>
</trkpt>
<trkpt lat="32.607200623" lon="35.136230469">
  <ele>158.442627</ele>
  <time>2011-09-29T05:06:49Z</time>
  <speed>2.600000</speed>
</trkpt>
<trkpt lat="32.607173920" lon="35.136207581">
  <ele>158.825439</ele>
  <time>2011-09-29T05:06:50Z</time>
  <speed>2.370000</speed>
</trkpt>
<trkpt lat="32.607135773" lon="35.136165619">
  <ele>159.981689</ele>
  <time>2011-09-29T05:06:52Z</time>
  <speed>2.690000</speed>
</trkpt>
<trkpt lat="32.607093811" lon="35.136131287">
  <ele>160.298096</ele>
  <time>2011-09-29T05:06:54Z</time>
  <speed>2.770000</speed>
</trkpt>
<trkpt lat="32.607063293" lon="35.136096954">
  <ele>160.341064</ele>
  <time>2011-09-29T05:06:56Z</time>
  <speed>2.400000</speed>
</trkpt>
<trkpt lat="32.607036591" lon="35.136054993">
  <ele>160.520752</ele>
  <time>2011-09-29T05:06:58Z</time>
  <speed>2.310000</speed>
</trkpt>
<trkpt lat="32.606998444" lon="35.136020660">
  <ele>160.501221</ele>
  <time>2011-09-29T05:07:00Z</time>
  <speed>2.800000</speed>
</trkpt>
<trkpt lat="32.606975555" lon="35.135997772">
  <ele>160.868408</ele>
  <time>2011-09-29T05:07:01Z</time>
  <speed>2.730000</speed>
</trkpt>
<trkpt lat="32.606952667" lon="35.135971069">
  <ele>161.395752</ele>
  <time>2011-09-29T05:07:02Z</time>
  <speed>2.440000</speed>
</trkpt>
<trkpt lat="32.606910706" lon="35.135932922">
  <ele>162.020752</ele>
  <time>2011-09-29T05:07:04Z</time>
  <speed>2.800000</speed>
</trkpt>
<trkpt lat="32.606864929" lon="35.135894775">
  <ele>162.848877</ele>
  <time>2011-09-29T05:07:06Z</time>
  <speed>2.220000</speed>
</trkpt>
<trkpt lat="32.606834412" lon="35.135868073">
  <ele>164.106689</ele>
  <time>2011-09-29T05:07:08Z</time>
  <speed>0.410000</speed>
</trkpt>
<trkpt lat="32.606811523" lon="35.135848999">
  <ele>164.137939</ele>
  <time>2011-09-29T05:07:29Z</time>
  <speed>0.400000</speed>
</trkpt>
<trkpt lat="32.606788635" lon="35.135822296">
  <ele>164.141846</ele>
  <time>2011-09-29T05:07:35Z</time>
  <speed>0.670000</speed>
</trkpt>
<trkpt lat="32.606765747" lon="35.135791779">
  <ele>164.286377</ele>
  <time>2011-09-29T05:08:46Z</time>
  <speed>1.870000</speed>
</trkpt>
<trkpt lat="32.606727600" lon="35.135757446">
  <ele>164.555908</ele>
  <time>2011-09-29T05:08:48Z</time>
  <speed>2.910000</speed>
</trkpt>
<trkpt lat="32.606685638" lon="35.135730743">
  <ele>164.907471</ele>
  <time>2011-09-29T05:08:50Z</time>
  <speed>2.240000</speed>
</trkpt>
<trkpt lat="32.606628418" lon="35.135692596">
  <ele>165.774658</ele>
  <time>2011-09-29T05:08:52Z</time>
  <speed>2.520000</speed>
</trkpt>
<trkpt lat="32.606597900" lon="35.135635376">
  <ele>165.915283</ele>
  <time>2011-09-29T05:08:54Z</time>
  <speed>2.430000</speed>
</trkpt>
<trkpt lat="32.606605530" lon="35.135581970">
  <ele>165.766846</ele>
  <time>2011-09-29T05:08:56Z</time>
  <speed>2.640000</speed>
</trkpt>
<trkpt lat="32.606620789" lon="35.135551453">
  <ele>166.177002</ele>
  <time>2011-09-29T05:08:57Z</time>
  <speed>2.990000</speed>
</trkpt>
<trkpt lat="32.606624603" lon="35.135513306">
  <ele>165.778564</ele>
  <time>2011-09-29T05:08:58Z</time>
  <speed>2.800000</speed>
</trkpt>
<trkpt lat="32.606647491" lon="35.135490417">
  <ele>166.430908</ele>
  <time>2011-09-29T05:08:59Z</time>
  <speed>2.590000</speed>
</trkpt>
<trkpt lat="32.606678009" lon="35.135448456">
  <ele>167.579346</ele>
  <time>2011-09-29T05:09:01Z</time>
  <speed>2.700000</speed>
</trkpt>
<trkpt lat="32.606719971" lon="35.135414124">
  <ele>168.153564</ele>
  <time>2011-09-29T05:09:03Z</time>
  <speed>2.700000</speed>
</trkpt>
<trkpt lat="32.606716156" lon="35.135379791">
  <ele>168.036377</ele>
  <time>2011-09-29T05:09:04Z</time>
  <speed>2.760000</speed>
</trkpt>
<trkpt lat="32.606739044" lon="35.135326385">
  <ele>168.020752</ele>
  <time>2011-09-29T05:09:06Z</time>
  <speed>2.800000</speed>
</trkpt>
<trkpt lat="32.606765747" lon="35.135272980">
  <ele>168.637939</ele>
  <time>2011-09-29T05:09:08Z</time>
  <speed>2.700000</speed>
</trkpt>
<trkpt lat="32.606792450" lon="35.135223389">
  <ele>169.360596</ele>
  <time>2011-09-29T05:09:10Z</time>
  <speed>2.520000</speed>
</trkpt>
<trkpt lat="32.606811523" lon="35.135177612">
  <ele>169.794189</ele>
  <time>2011-09-29T05:09:12Z</time>
  <speed>2.480000</speed>
</trkpt>
<trkpt lat="32.606842041" lon="35.135135651">
  <ele>170.204346</ele>
  <time>2011-09-29T05:09:14Z</time>
  <speed>1.900000</speed>
</trkpt>
<trkpt lat="32.606872559" lon="35.135101318">
  <ele>170.438721</ele>
  <time>2011-09-29T05:09:16Z</time>
  <speed>2.320000</speed>
</trkpt>
<trkpt lat="32.606899261" lon="35.135051727">
  <ele>170.485596</ele>
  <time>2011-09-29T05:09:18Z</time>
  <speed>2.120000</speed>
</trkpt>
<trkpt lat="32.606910706" lon="35.135009766">
  <ele>170.743408</ele>
  <time>2011-09-29T05:09:20Z</time>
  <speed>2.280000</speed>
</trkpt>
<trkpt lat="32.606914520" lon="35.134975433">
  <ele>170.606689</ele>
  <time>2011-09-29T05:09:21Z</time>
  <speed>2.260000</speed>
</trkpt>
<trkpt lat="32.606929779" lon="35.134929657">
  <ele>170.739502</ele>
  <time>2011-09-29T05:09:23Z</time>
  <speed>2.320000</speed>
</trkpt>
<trkpt lat="32.606941223" lon="35.134887695">
  <ele>170.727783</ele>
  <time>2011-09-29T05:09:25Z</time>
  <speed>2.230000</speed>
</trkpt>
<trkpt lat="32.606967926" lon="35.134845734">
  <ele>170.450439</ele>
  <time>2011-09-29T05:09:27Z</time>
  <speed>2.380000</speed>
</trkpt>
<trkpt lat="32.606990814" lon="35.134807587">
  <ele>170.907471</ele>
  <time>2011-09-29T05:09:29Z</time>
  <speed>2.420000</speed>
</trkpt>
<trkpt lat="32.607013702" lon="35.134754181">
  <ele>171.052002</ele>
  <time>2011-09-29T05:09:31Z</time>
  <speed>2.310000</speed>
</trkpt>
<trkpt lat="32.607032776" lon="35.134708405">
  <ele>171.348877</ele>
  <time>2011-09-29T05:09:33Z</time>
  <speed>2.090000</speed>
</trkpt>
<trkpt lat="32.607055664" lon="35.134666443">
  <ele>172.149658</ele>
  <time>2011-09-29T05:09:35Z</time>
  <speed>2.070000</speed>
</trkpt>
<trkpt lat="32.607051849" lon="35.134632111">
  <ele>171.735596</ele>
  <time>2011-09-29T05:09:36Z</time>
  <speed>2.240000</speed>
</trkpt>
<trkpt lat="32.607059479" lon="35.134582520">
  <ele>171.712158</ele>
  <time>2011-09-29T05:09:38Z</time>
  <speed>2.010000</speed>
</trkpt>
<trkpt lat="32.607074738" lon="35.134540558">
  <ele>172.927002</ele>
  <time>2011-09-29T05:09:40Z</time>
  <speed>2.260000</speed>
</trkpt>
<trkpt lat="32.607086182" lon="35.134502411">
  <ele>173.208252</ele>
  <time>2011-09-29T05:09:42Z</time>
  <speed>1.790000</speed>
</trkpt>
<trkpt lat="32.607097626" lon="35.134460449">
  <ele>173.993408</ele>
  <time>2011-09-29T05:09:44Z</time>
  <speed>1.740000</speed>
</trkpt>
<trkpt lat="32.607101440" lon="35.134422302">
  <ele>174.087158</ele>
  <time>2011-09-29T05:09:46Z</time>
  <speed>2.000000</speed>
</trkpt>
<trkpt lat="32.607082367" lon="35.134365082">
  <ele>174.903564</ele>
  <time>2011-09-29T05:09:48Z</time>
  <speed>2.180000</speed>
</trkpt>
<trkpt lat="32.607067108" lon="35.134330750">
  <ele>175.200439</ele>
  <time>2011-09-29T05:09:50Z</time>
  <speed>2.220000</speed>
</trkpt>
<trkpt lat="32.607055664" lon="35.134292603">
  <ele>175.528564</ele>
  <time>2011-09-29T05:09:52Z</time>
  <speed>1.810000</speed>
</trkpt>
<trkpt lat="32.607044220" lon="35.134254456">
  <ele>175.555908</ele>
  <time>2011-09-29T05:09:54Z</time>
  <speed>1.390000</speed>
</trkpt>
<trkpt lat="32.607032776" lon="35.134227753">
  <ele>175.903564</ele>
  <time>2011-09-29T05:09:56Z</time>
  <speed>1.490000</speed>
</trkpt>
<trkpt lat="32.607032776" lon="35.134189606">
  <ele>176.821533</ele>
  <time>2011-09-29T05:09:58Z</time>
  <speed>1.490000</speed>
</trkpt>
<trkpt lat="32.607021332" lon="35.134140015">
  <ele>176.966064</ele>
  <time>2011-09-29T05:10:00Z</time>
  <speed>2.080000</speed>
</trkpt>
<trkpt lat="32.607009888" lon="35.134094238">
  <ele>177.227783</ele>
  <time>2011-09-29T05:10:02Z</time>
  <speed>1.090000</speed>
</trkpt>
<trkpt lat="32.606987000" lon="35.134048462">
  <ele>177.325439</ele>
  <time>2011-09-29T05:10:04Z</time>
  <speed>1.540000</speed>
</trkpt>
<trkpt lat="32.606964111" lon="35.133998871">
  <ele>177.852783</ele>
  <time>2011-09-29T05:10:06Z</time>
  <speed>1.650000</speed>
</trkpt>
<trkpt lat="32.606937408" lon="35.133968353">
  <ele>177.848877</ele>
  <time>2011-09-29T05:10:07Z</time>
  <speed>1.560000</speed>
</trkpt>
<trkpt lat="32.606925964" lon="35.133930206">
  <ele>178.157471</ele>
  <time>2011-09-29T05:10:09Z</time>
  <speed>1.200000</speed>
</trkpt>
<trkpt lat="32.606906891" lon="35.133888245">
  <ele>178.653564</ele>
  <time>2011-09-29T05:10:12Z</time>
  <speed>1.160000</speed>
</trkpt>
<trkpt lat="32.606887817" lon="35.133853912">
  <ele>178.270752</ele>
  <time>2011-09-29T05:10:14Z</time>
  <speed>1.810000</speed>
</trkpt>
<trkpt lat="32.606868744" lon="35.133811951">
  <ele>179.094971</ele>
  <time>2011-09-29T05:10:16Z</time>
  <speed>1.780000</speed>
</trkpt>
<trkpt lat="32.606815338" lon="35.133766174">
  <ele>179.274658</ele>
  <time>2011-09-29T05:10:18Z</time>
  <speed>1.620000</speed>
</trkpt>
<trkpt lat="32.606781006" lon="35.133735657">
  <ele>179.825439</ele>
  <time>2011-09-29T05:10:20Z</time>
  <speed>2.190000</speed>
</trkpt>
<trkpt lat="32.606758118" lon="35.133708954">
  <ele>180.446533</ele>
  <time>2011-09-29T05:10:22Z</time>
  <speed>1.740000</speed>
</trkpt>
<trkpt lat="32.606731415" lon="35.133693695">
  <ele>180.985596</ele>
  <time>2011-09-29T05:10:24Z</time>
  <speed>1.590000</speed>
</trkpt>
<trkpt lat="32.606700897" lon="35.133678436">
  <ele>181.321533</ele>
  <time>2011-09-29T05:10:26Z</time>
  <speed>1.370000</speed>
</trkpt>
<trkpt lat="32.606670380" lon="35.133659363">
  <ele>181.626221</ele>
  <time>2011-09-29T05:10:28Z</time>
  <speed>1.100000</speed>
</trkpt>
<trkpt lat="32.606628418" lon="35.133663177">
  <ele>181.719971</ele>
  <time>2011-09-29T05:10:30Z</time>
  <speed>1.320000</speed>
</trkpt>
<trkpt lat="32.606590271" lon="35.133647919">
  <ele>181.993408</ele>
  <time>2011-09-29T05:10:32Z</time>
  <speed>1.540000</speed>
</trkpt>
<trkpt lat="32.606563568" lon="35.133632660">
  <ele>182.216064</ele>
  <time>2011-09-29T05:10:33Z</time>
  <speed>1.600000</speed>
</trkpt>
<trkpt lat="32.606521606" lon="35.133609772">
  <ele>182.591064</ele>
  <time>2011-09-29T05:10:35Z</time>
  <speed>2.180000</speed>
</trkpt>
<trkpt lat="32.606479645" lon="35.133583069">
  <ele>182.790283</ele>
  <time>2011-09-29T05:10:37Z</time>
  <speed>1.750000</speed>
</trkpt>
<trkpt lat="32.606449127" lon="35.133571625">
  <ele>182.231689</ele>
  <time>2011-09-29T05:10:38Z</time>
  <speed>1.700000</speed>
</trkpt>
<trkpt lat="32.606414795" lon="35.133552551">
  <ele>182.719971</ele>
  <time>2011-09-29T05:10:41Z</time>
  <speed>1.390000</speed>
</trkpt>
<trkpt lat="32.606380463" lon="35.133537292">
  <ele>183.114502</ele>
  <time>2011-09-29T05:10:42Z</time>
  <speed>2.160000</speed>
</trkpt>
<trkpt lat="32.606353760" lon="35.133537292">
  <ele>183.708252</ele>
  <time>2011-09-29T05:10:44Z</time>
  <speed>1.700000</speed>
</trkpt>
<trkpt lat="32.606315613" lon="35.133541107">
  <ele>184.430908</ele>
  <time>2011-09-29T05:10:46Z</time>
  <speed>1.760000</speed>
</trkpt>
<trkpt lat="32.606285095" lon="35.133548737">
  <ele>184.719971</ele>
  <time>2011-09-29T05:10:48Z</time>
  <speed>1.540000</speed>
</trkpt>
<trkpt lat="32.606246948" lon="35.133533478">
  <ele>185.680908</ele>
  <time>2011-09-29T05:10:50Z</time>
  <speed>1.390000</speed>
</trkpt>
<trkpt lat="32.606227875" lon="35.133525848">
  <ele>188.387939</ele>
  <time>2011-09-29T05:10:52Z</time>
  <speed>1.630000</speed>
</trkpt>
<trkpt lat="32.606197357" lon="35.133506775">
  <ele>189.770752</ele>
  <time>2011-09-29T05:10:54Z</time>
  <speed>1.720000</speed>
</trkpt>
<trkpt lat="32.606163025" lon="35.133495331">
  <ele>191.778564</ele>
  <time>2011-09-29T05:10:57Z</time>
  <speed>1.840000</speed>
</trkpt>
<trkpt lat="32.606128693" lon="35.133506775">
  <ele>192.950439</ele>
  <time>2011-09-29T05:10:59Z</time>
  <speed>1.550000</speed>
</trkpt>
<trkpt lat="32.606082916" lon="35.133499146">
  <ele>192.802002</ele>
  <time>2011-09-29T05:11:02Z</time>
  <speed>1.530000</speed>
</trkpt>
<trkpt lat="32.606052399" lon="35.133529663">
  <ele>194.399658</ele>
  <time>2011-09-29T05:11:05Z</time>
  <speed>1.800000</speed>
</trkpt>
<trkpt lat="32.606025696" lon="35.133544922">
  <ele>193.860596</ele>
  <time>2011-09-29T05:11:07Z</time>
  <speed>2.060000</speed>
</trkpt>
<trkpt lat="32.605995178" lon="35.133556366">
  <ele>193.407471</ele>
  <time>2011-09-29T05:11:09Z</time>
  <speed>1.890000</speed>
</trkpt>
<trkpt lat="32.605960846" lon="35.133571625">
  <ele>193.259033</ele>
  <time>2011-09-29T05:11:11Z</time>
  <speed>2.210000</speed>
</trkpt>
<trkpt lat="32.605918884" lon="35.133571625">
  <ele>193.083252</ele>
  <time>2011-09-29T05:11:13Z</time>
  <speed>2.170000</speed>
</trkpt>
<trkpt lat="32.605880737" lon="35.133567810">
  <ele>193.059814</ele>
  <time>2011-09-29T05:11:15Z</time>
  <speed>2.400000</speed>
</trkpt>
<trkpt lat="32.605838776" lon="35.133548737">
  <ele>192.899658</ele>
  <time>2011-09-29T05:11:17Z</time>
  <speed>2.580000</speed>
</trkpt>
<trkpt lat="32.605804443" lon="35.133552551">
  <ele>192.102783</ele>
  <time>2011-09-29T05:11:18Z</time>
  <speed>2.760000</speed>
</trkpt>
<trkpt lat="32.605762482" lon="35.133537292">
  <ele>192.727783</ele>
  <time>2011-09-29T05:11:20Z</time>
  <speed>2.550000</speed>
</trkpt>
<trkpt lat="32.605724335" lon="35.133541107">
  <ele>191.954346</ele>
  <time>2011-09-29T05:11:21Z</time>
  <speed>2.770000</speed>
</trkpt>
<trkpt lat="32.605686188" lon="35.133544922">
  <ele>192.325439</ele>
  <time>2011-09-29T05:11:23Z</time>
  <speed>1.610000</speed>
</trkpt>
<trkpt lat="32.605655670" lon="35.133541107">
  <ele>192.743408</ele>
  <time>2011-09-29T05:11:25Z</time>
  <speed>2.550000</speed>
</trkpt>
<trkpt lat="32.605628967" lon="35.133548737">
  <ele>192.130127</ele>
  <time>2011-09-29T05:11:26Z</time>
  <speed>2.390000</speed>
</trkpt>
<trkpt lat="32.605594635" lon="35.133560181">
  <ele>191.786377</ele>
  <time>2011-09-29T05:11:28Z</time>
  <speed>2.080000</speed>
</trkpt>
<trkpt lat="32.605552673" lon="35.133567810">
  <ele>192.091064</ele>
  <time>2011-09-29T05:11:30Z</time>
  <speed>2.280000</speed>
</trkpt>
<trkpt lat="32.605506897" lon="35.133575439">
  <ele>191.911377</ele>
  <time>2011-09-29T05:11:32Z</time>
  <speed>2.670000</speed>
</trkpt>
<trkpt lat="32.605453491" lon="35.133594513">
  <ele>192.466064</ele>
  <time>2011-09-29T05:11:34Z</time>
  <speed>2.270000</speed>
</trkpt>
<trkpt lat="32.605430603" lon="35.133613586">
  <ele>194.075439</ele>
  <time>2011-09-29T05:11:36Z</time>
  <speed>2.740000</speed>
</trkpt>
<trkpt lat="32.605400085" lon="35.133617401">
  <ele>193.923096</ele>
  <time>2011-09-29T05:11:37Z</time>
  <speed>2.570000</speed>
</trkpt>
<trkpt lat="32.605365753" lon="35.133632660">
  <ele>193.872314</ele>
  <time>2011-09-29T05:11:39Z</time>
  <speed>1.470000</speed>
</trkpt>
<trkpt lat="32.605331421" lon="35.133644104">
  <ele>194.212158</ele>
  <time>2011-09-29T05:11:41Z</time>
  <speed>2.140000</speed>
</trkpt>
<trkpt lat="32.605285645" lon="35.133651733">
  <ele>193.700439</ele>
  <time>2011-09-29T05:11:43Z</time>
  <speed>2.400000</speed>
</trkpt>
<trkpt lat="32.605258942" lon="35.133651733">
  <ele>193.755127</ele>
  <time>2011-09-29T05:11:44Z</time>
  <speed>2.440000</speed>
</trkpt>
<trkpt lat="32.605209351" lon="35.133659363">
  <ele>193.223877</ele>
  <time>2011-09-29T05:11:45Z</time>
  <speed>2.690000</speed>
</trkpt>
<trkpt lat="32.605182648" lon="35.133666992">
  <ele>193.087158</ele>
  <time>2011-09-29T05:11:46Z</time>
  <speed>2.650000</speed>
</trkpt>
<trkpt lat="32.605140686" lon="35.133670807">
  <ele>192.649658</ele>
  <time>2011-09-29T05:11:48Z</time>
  <speed>1.810000</speed>
</trkpt>
<trkpt lat="32.605106354" lon="35.133693695">
  <ele>192.864502</ele>
  <time>2011-09-29T05:11:50Z</time>
  <speed>2.120000</speed>
</trkpt>
<trkpt lat="32.605068207" lon="35.133701324">
  <ele>192.110596</ele>
  <time>2011-09-29T05:11:52Z</time>
  <speed>2.000000</speed>
</trkpt>
<trkpt lat="32.605033875" lon="35.133705139">
  <ele>191.716064</ele>
  <time>2011-09-29T05:11:54Z</time>
  <speed>1.800000</speed>
</trkpt>
<trkpt lat="32.604988098" lon="35.133701324">
  <ele>191.954346</ele>
  <time>2011-09-29T05:11:56Z</time>
  <speed>2.270000</speed>
</trkpt>
<trkpt lat="32.604930878" lon="35.133705139">
  <ele>191.524658</ele>
  <time>2011-09-29T05:11:58Z</time>
  <speed>2.360000</speed>
</trkpt>
<trkpt lat="32.604881287" lon="35.133705139">
  <ele>191.411377</ele>
  <time>2011-09-29T05:12:00Z</time>
  <speed>2.720000</speed>
</trkpt>
<trkpt lat="32.604854584" lon="35.133693695">
  <ele>190.759033</ele>
  <time>2011-09-29T05:12:01Z</time>
  <speed>2.700000</speed>
</trkpt>
<trkpt lat="32.604808807" lon="35.133659363">
  <ele>190.497314</ele>
  <time>2011-09-29T05:12:03Z</time>
  <speed>2.870000</speed>
</trkpt>
<trkpt lat="32.604770660" lon="35.133617401">
  <ele>190.622314</ele>
  <time>2011-09-29T05:12:05Z</time>
  <speed>2.150000</speed>
</trkpt>
<trkpt lat="32.604766846" lon="35.133575439">
  <ele>188.798096</ele>
  <time>2011-09-29T05:12:07Z</time>
  <speed>1.710000</speed>
</trkpt>
<trkpt lat="32.604785919" lon="35.133533478">
  <ele>188.634033</ele>
  <time>2011-09-29T05:12:09Z</time>
  <speed>2.750000</speed>
</trkpt>
<trkpt lat="32.604801178" lon="35.133506775">
  <ele>188.387939</ele>
  <time>2011-09-29T05:12:10Z</time>
  <speed>3.080000</speed>
</trkpt>
<trkpt lat="32.604804993" lon="35.133472443">
  <ele>188.262939</ele>
  <time>2011-09-29T05:12:11Z</time>
  <speed>2.790000</speed>
</trkpt>
<trkpt lat="32.604801178" lon="35.133434296">
  <ele>187.606689</ele>
  <time>2011-09-29T05:12:12Z</time>
  <speed>2.900000</speed>
</trkpt>
<trkpt lat="32.604793549" lon="35.133365631">
  <ele>188.134033</ele>
  <time>2011-09-29T05:12:14Z</time>
  <speed>2.600000</speed>
</trkpt>
<trkpt lat="32.604778290" lon="35.133338928">
  <ele>188.825439</ele>
  <time>2011-09-29T05:12:15Z</time>
  <speed>2.830000</speed>
</trkpt>
<trkpt lat="32.604751587" lon="35.133323669">
  <ele>188.860596</ele>
  <time>2011-09-29T05:12:16Z</time>
  <speed>2.940000</speed>
</trkpt>
<trkpt lat="32.604717255" lon="35.133308411">
  <ele>187.844971</ele>
  <time>2011-09-29T05:12:17Z</time>
  <speed>2.980000</speed>
</trkpt>
<trkpt lat="32.604679108" lon="35.133289337">
  <ele>187.227783</ele>
  <time>2011-09-29T05:12:18Z</time>
  <speed>2.990000</speed>
</trkpt>
<trkpt lat="32.604652405" lon="35.133281708">
  <ele>188.270752</ele>
  <time>2011-09-29T05:12:19Z</time>
  <speed>2.930000</speed>
</trkpt>
<trkpt lat="32.604610443" lon="35.133266449">
  <ele>188.235596</ele>
  <time>2011-09-29T05:12:21Z</time>
  <speed>2.360000</speed>
</trkpt>
<trkpt lat="32.604579926" lon="35.133266449">
  <ele>188.864502</ele>
  <time>2011-09-29T05:12:22Z</time>
  <speed>2.930000</speed>
</trkpt>
<trkpt lat="32.604526520" lon="35.133255005">
  <ele>189.309814</ele>
  <time>2011-09-29T05:12:24Z</time>
  <speed>2.620000</speed>
</trkpt>
<trkpt lat="32.604488373" lon="35.133235931">
  <ele>189.403564</ele>
  <time>2011-09-29T05:12:26Z</time>
  <speed>2.650000</speed>
</trkpt>
<trkpt lat="32.604457855" lon="35.133205414">
  <ele>190.930908</ele>
  <time>2011-09-29T05:12:28Z</time>
  <speed>2.220000</speed>
</trkpt>
<trkpt lat="32.604427338" lon="35.133167267">
  <ele>192.059814</ele>
  <time>2011-09-29T05:12:30Z</time>
  <speed>2.820000</speed>
</trkpt>
<trkpt lat="32.604393005" lon="35.133155823">
  <ele>192.266846</ele>
  <time>2011-09-29T05:12:32Z</time>
  <speed>1.800000</speed>
</trkpt>
<trkpt lat="32.604366302" lon="35.133148193">
  <ele>192.634033</ele>
  <time>2011-09-29T05:12:34Z</time>
  <speed>1.940000</speed>
</trkpt>
<trkpt lat="32.604328156" lon="35.133132935">
  <ele>192.680908</ele>
  <time>2011-09-29T05:12:36Z</time>
  <speed>2.180000</speed>
</trkpt>
<trkpt lat="32.604290009" lon="35.133117676">
  <ele>192.649658</ele>
  <time>2011-09-29T05:12:38Z</time>
  <speed>2.080000</speed>
</trkpt>
<trkpt lat="32.604244232" lon="35.133090973">
  <ele>192.907471</ele>
  <time>2011-09-29T05:12:40Z</time>
  <speed>1.920000</speed>
</trkpt>
<trkpt lat="32.604221344" lon="35.133075714">
  <ele>192.899658</ele>
  <time>2011-09-29T05:12:41Z</time>
  <speed>1.460000</speed>
</trkpt>
<trkpt lat="32.604225159" lon="35.133033752">
  <ele>193.856689</ele>
  <time>2011-09-29T05:12:44Z</time>
  <speed>0.980000</speed>
</trkpt>
<trkpt lat="32.604236603" lon="35.132999420">
  <ele>193.462158</ele>
  <time>2011-09-29T05:12:46Z</time>
  <speed>1.970000</speed>
</trkpt>
<trkpt lat="32.604251862" lon="35.132953644">
  <ele>193.833252</ele>
  <time>2011-09-29T05:12:48Z</time>
  <speed>2.910000</speed>
</trkpt>
<trkpt lat="32.604278564" lon="35.132930756">
  <ele>193.696533</ele>
  <time>2011-09-29T05:12:49Z</time>
  <speed>3.200000</speed>
</trkpt>
<trkpt lat="32.604305267" lon="35.132900238">
  <ele>194.071533</ele>
  <time>2011-09-29T05:12:50Z</time>
  <speed>3.920000</speed>
</trkpt>
<trkpt lat="32.604301453" lon="35.132846832">
  <ele>193.930908</ele>
  <time>2011-09-29T05:12:51Z</time>
  <speed>4.620000</speed>
</trkpt>
<trkpt lat="32.604328156" lon="35.132797241">
  <ele>193.829346</ele>
  <time>2011-09-29T05:12:52Z</time>
  <speed>5.460000</speed>
</trkpt>
<trkpt lat="32.604373932" lon="35.132743835">
  <ele>193.391846</ele>
  <time>2011-09-29T05:12:53Z</time>
  <speed>5.890000</speed>
</trkpt>
<trkpt lat="32.604408264" lon="35.132686615">
  <ele>193.587158</ele>
  <time>2011-09-29T05:12:54Z</time>
  <speed>5.650000</speed>
</trkpt>
<trkpt lat="32.604438782" lon="35.132617950">
  <ele>193.919189</ele>
  <time>2011-09-29T05:12:55Z</time>
  <speed>6.930000</speed>
</trkpt>
<trkpt lat="32.604476929" lon="35.132537842">
  <ele>195.083252</ele>
  <time>2011-09-29T05:12:56Z</time>
  <speed>7.610000</speed>
</trkpt>
<trkpt lat="32.604507446" lon="35.132442474">
  <ele>196.055908</ele>
  <time>2011-09-29T05:12:57Z</time>
  <speed>8.120000</speed>
</trkpt>
<trkpt lat="32.604526520" lon="35.132347107">
  <ele>197.282471</ele>
  <time>2011-09-29T05:12:58Z</time>
  <speed>7.680000</speed>
</trkpt>
<trkpt lat="32.604553223" lon="35.132270813">
  <ele>197.501221</ele>
  <time>2011-09-29T05:12:59Z</time>
  <speed>7.460000</speed>
</trkpt>
<trkpt lat="32.604598999" lon="35.132205963">
  <ele>197.622314</ele>
  <time>2011-09-29T05:13:00Z</time>
  <speed>7.260000</speed>
</trkpt>
<trkpt lat="32.604637146" lon="35.132141113">
  <ele>197.665283</ele>
  <time>2011-09-29T05:13:01Z</time>
  <speed>7.130000</speed>
</trkpt>
<trkpt lat="32.604690552" lon="35.132080078">
  <ele>198.024658</ele>
  <time>2011-09-29T05:13:02Z</time>
  <speed>6.970000</speed>
</trkpt>
<trkpt lat="32.604740143" lon="35.132022858">
  <ele>198.376221</ele>
  <time>2011-09-29T05:13:03Z</time>
  <speed>7.030000</speed>
</trkpt>
<trkpt lat="32.604789734" lon="35.131958008">
  <ele>198.677002</ele>
  <time>2011-09-29T05:13:04Z</time>
  <speed>7.130000</speed>
</trkpt>
<trkpt lat="32.604824066" lon="35.131896973">
  <ele>198.817627</ele>
  <time>2011-09-29T05:13:05Z</time>
  <speed>6.510000</speed>
</trkpt>
<trkpt lat="32.604858398" lon="35.131851196">
  <ele>199.907471</ele>
  <time>2011-09-29T05:13:06Z</time>
  <speed>6.160000</speed>
</trkpt>
<trkpt lat="32.604896545" lon="35.131797791">
  <ele>199.860596</ele>
  <time>2011-09-29T05:13:07Z</time>
  <speed>6.260000</speed>
</trkpt>
<trkpt lat="32.604934692" lon="35.131744385">
  <ele>200.216064</ele>
  <time>2011-09-29T05:13:08Z</time>
  <speed>6.050000</speed>
</trkpt>
<trkpt lat="32.604957581" lon="35.131694794">
  <ele>200.641846</ele>
  <time>2011-09-29T05:13:09Z</time>
  <speed>4.410000</speed>
</trkpt>
<trkpt lat="32.604965210" lon="35.131637573">
  <ele>201.259033</ele>
  <time>2011-09-29T05:13:10Z</time>
  <speed>3.930000</speed>
</trkpt>
<trkpt lat="32.604953766" lon="35.131568909">
  <ele>202.481689</ele>
  <time>2011-09-29T05:13:11Z</time>
  <speed>3.210000</speed>
</trkpt>
<trkpt lat="32.604965210" lon="35.131534576">
  <ele>202.841064</ele>
  <time>2011-09-29T05:13:12Z</time>
  <speed>2.680000</speed>
</trkpt>
<trkpt lat="32.604953766" lon="35.131488800">
  <ele>202.802002</ele>
  <time>2011-09-29T05:13:13Z</time>
  <speed>2.300000</speed>
</trkpt>
<trkpt lat="32.604938507" lon="35.131431580">
  <ele>203.837158</ele>
  <time>2011-09-29T05:13:14Z</time>
  <speed>2.250000</speed>
</trkpt>
<trkpt lat="32.604957581" lon="35.131393433">
  <ele>204.270752</ele>
  <time>2011-09-29T05:13:16Z</time>
  <speed>1.980000</speed>
</trkpt>
<trkpt lat="32.604965210" lon="35.131359100">
  <ele>204.680908</ele>
  <time>2011-09-29T05:13:21Z</time>
  <speed>0.460000</speed>
</trkpt>
<trkpt lat="32.604984283" lon="35.131336212">
  <ele>204.821533</ele>
  <time>2011-09-29T05:13:23Z</time>
  <speed>1.920000</speed>
</trkpt>
<trkpt lat="32.605030060" lon="35.131305695">
  <ele>204.356689</ele>
  <time>2011-09-29T05:13:25Z</time>
  <speed>2.500000</speed>
</trkpt>
<trkpt lat="32.605056763" lon="35.131278992">
  <ele>203.977783</ele>
  <time>2011-09-29T05:13:27Z</time>
  <speed>1.960000</speed>
</trkpt>
<trkpt lat="32.605083466" lon="35.131237030">
  <ele>204.012939</ele>
  <time>2011-09-29T05:13:29Z</time>
  <speed>2.620000</speed>
</trkpt>
<trkpt lat="32.605102539" lon="35.131195068">
  <ele>204.169189</ele>
  <time>2011-09-29T05:13:31Z</time>
  <speed>2.280000</speed>
</trkpt>
<trkpt lat="32.605121613" lon="35.131168365">
  <ele>203.880127</ele>
  <time>2011-09-29T05:13:32Z</time>
  <speed>2.610000</speed>
</trkpt>
<trkpt lat="32.605171204" lon="35.131137848">
  <ele>202.876221</ele>
  <time>2011-09-29T05:13:33Z</time>
  <speed>3.180000</speed>
</trkpt>
<trkpt lat="32.605194092" lon="35.131095886">
  <ele>202.466064</ele>
  <time>2011-09-29T05:13:34Z</time>
  <speed>3.710000</speed>
</trkpt>
<trkpt lat="32.605224609" lon="35.131061554">
  <ele>201.895752</ele>
  <time>2011-09-29T05:13:35Z</time>
  <speed>3.580000</speed>
</trkpt>
<trkpt lat="32.605247498" lon="35.131023407">
  <ele>201.802002</ele>
  <time>2011-09-29T05:13:36Z</time>
  <speed>4.010000</speed>
</trkpt>
<trkpt lat="32.605300903" lon="35.130989075">
  <ele>201.880127</ele>
  <time>2011-09-29T05:13:37Z</time>
  <speed>4.070000</speed>
</trkpt>
<trkpt lat="32.605327606" lon="35.130958557">
  <ele>201.770752</ele>
  <time>2011-09-29T05:13:38Z</time>
  <speed>3.590000</speed>
</trkpt>
<trkpt lat="32.605377197" lon="35.130935669">
  <ele>202.110596</ele>
  <time>2011-09-29T05:13:39Z</time>
  <speed>3.340000</speed>
</trkpt>
<trkpt lat="32.605373383" lon="35.130867004">
  <ele>202.009033</ele>
  <time>2011-09-29T05:13:40Z</time>
  <speed>3.140000</speed>
</trkpt>
<trkpt lat="32.605361938" lon="35.130802155">
  <ele>202.298096</ele>
  <time>2011-09-29T05:13:42Z</time>
  <speed>1.770000</speed>
</trkpt>
<trkpt lat="32.605342865" lon="35.130779266">
  <ele>202.110596</ele>
  <time>2011-09-29T05:13:43Z</time>
  <speed>1.490000</speed>
</trkpt>
<trkpt lat="32.605247498" lon="35.130706787">
  <ele>202.212158</ele>
  <time>2011-09-29T05:13:44Z</time>
  <speed>1.450000</speed>
</trkpt>
<trkpt lat="32.605232239" lon="35.130661011">
  <ele>202.009033</ele>
  <time>2011-09-29T05:13:45Z</time>
  <speed>1.280000</speed>
</trkpt>
<trkpt lat="32.605194092" lon="35.130626678">
  <ele>201.907471</ele>
  <time>2011-09-29T05:13:46Z</time>
  <speed>1.720000</speed>
</trkpt>
<trkpt lat="32.605175018" lon="35.130565643">
  <ele>201.423096</ele>
  <time>2011-09-29T05:13:47Z</time>
  <speed>1.830000</speed>
</trkpt>
<trkpt lat="32.605136871" lon="35.130535126">
  <ele>201.122314</ele>
  <time>2011-09-29T05:13:48Z</time>
  <speed>2.130000</speed>
</trkpt>
<trkpt lat="32.605106354" lon="35.130481720">
  <ele>200.930908</ele>
  <time>2011-09-29T05:13:49Z</time>
  <speed>2.850000</speed>
</trkpt>
<trkpt lat="32.605072021" lon="35.130439758">
  <ele>200.469971</ele>
  <time>2011-09-29T05:13:51Z</time>
  <speed>2.550000</speed>
</trkpt>
<trkpt lat="32.605045319" lon="35.130420685">
  <ele>200.469971</ele>
  <time>2011-09-29T05:13:52Z</time>
  <speed>1.670000</speed>
</trkpt>
<trkpt lat="32.605007172" lon="35.130382538">
  <ele>200.610596</ele>
  <time>2011-09-29T05:13:53Z</time>
  <speed>2.250000</speed>
</trkpt>
<trkpt lat="32.604969025" lon="35.130352020">
  <ele>199.938721</ele>
  <time>2011-09-29T05:13:54Z</time>
  <speed>1.930000</speed>
</trkpt>
<trkpt lat="32.604927063" lon="35.130325317">
  <ele>199.946533</ele>
  <time>2011-09-29T05:13:56Z</time>
  <speed>2.070000</speed>
</trkpt>
<trkpt lat="32.604900360" lon="35.130298615">
  <ele>200.145752</ele>
  <time>2011-09-29T05:13:57Z</time>
  <speed>2.670000</speed>
</trkpt>
<trkpt lat="32.604873657" lon="35.130279541">
  <ele>199.919189</ele>
  <time>2011-09-29T05:13:58Z</time>
  <speed>2.340000</speed>
</trkpt>
<trkpt lat="32.604839325" lon="35.130271912">
  <ele>199.969971</ele>
  <time>2011-09-29T05:13:59Z</time>
  <speed>3.040000</speed>
</trkpt>
<trkpt lat="32.604812622" lon="35.130260468">
  <ele>199.966064</ele>
  <time>2011-09-29T05:14:00Z</time>
  <speed>2.760000</speed>
</trkpt>
<trkpt lat="32.604763031" lon="35.130252838">
  <ele>199.860596</ele>
  <time>2011-09-29T05:14:02Z</time>
  <speed>1.720000</speed>
</trkpt>
<trkpt lat="32.604705811" lon="35.130229950">
  <ele>200.231689</ele>
  <time>2011-09-29T05:14:04Z</time>
  <speed>2.120000</speed>
</trkpt>
<trkpt lat="32.604679108" lon="35.130218506">
  <ele>200.680908</ele>
  <time>2011-09-29T05:14:05Z</time>
  <speed>1.800000</speed>
</trkpt>
<trkpt lat="32.604629517" lon="35.130207062">
  <ele>200.942627</ele>
  <time>2011-09-29T05:14:07Z</time>
  <speed>2.320000</speed>
</trkpt>
<trkpt lat="32.604583740" lon="35.130195618">
  <ele>200.817627</ele>
  <time>2011-09-29T05:14:09Z</time>
  <speed>2.330000</speed>
</trkpt>
<trkpt lat="32.604541779" lon="35.130180359">
  <ele>201.059814</ele>
  <time>2011-09-29T05:14:11Z</time>
  <speed>2.130000</speed>
</trkpt>
<trkpt lat="32.604522705" lon="35.130157471">
  <ele>201.255127</ele>
  <time>2011-09-29T05:14:12Z</time>
  <speed>2.260000</speed>
</trkpt>
<trkpt lat="32.604496002" lon="35.130134583">
  <ele>200.981689</ele>
  <time>2011-09-29T05:14:13Z</time>
  <speed>2.140000</speed>
</trkpt>
<trkpt lat="32.604457855" lon="35.130111694">
  <ele>200.958252</ele>
  <time>2011-09-29T05:14:14Z</time>
  <speed>2.030000</speed>
</trkpt>
<trkpt lat="32.604431152" lon="35.130104065">
  <ele>201.290283</ele>
  <time>2011-09-29T05:14:15Z</time>
  <speed>2.180000</speed>
</trkpt>
<trkpt lat="32.604408264" lon="35.130073547">
  <ele>202.087158</ele>
  <time>2011-09-29T05:14:16Z</time>
  <speed>2.630000</speed>
</trkpt>
<trkpt lat="32.604370117" lon="35.130039215">
  <ele>202.188721</ele>
  <time>2011-09-29T05:14:18Z</time>
  <speed>2.430000</speed>
</trkpt>
<trkpt lat="32.604343414" lon="35.130023956">
  <ele>201.989502</ele>
  <time>2011-09-29T05:14:19Z</time>
  <speed>3.030000</speed>
</trkpt>
<trkpt lat="32.604320526" lon="35.130004883">
  <ele>201.880127</ele>
  <time>2011-09-29T05:14:20Z</time>
  <speed>3.220000</speed>
</trkpt>
<trkpt lat="32.604286194" lon="35.129985809">
  <ele>201.423096</ele>
  <time>2011-09-29T05:14:21Z</time>
  <speed>2.990000</speed>
</trkpt>
<trkpt lat="32.604232788" lon="35.129962921">
  <ele>201.684814</ele>
  <time>2011-09-29T05:14:22Z</time>
  <speed>3.290000</speed>
</trkpt>
<trkpt lat="32.604202271" lon="35.129947662">
  <ele>201.825439</ele>
  <time>2011-09-29T05:14:23Z</time>
  <speed>2.830000</speed>
</trkpt>
<trkpt lat="32.604164124" lon="35.129943848">
  <ele>201.930908</ele>
  <time>2011-09-29T05:14:24Z</time>
  <speed>3.330000</speed>
</trkpt>
<trkpt lat="32.604118347" lon="35.129920959">
  <ele>201.872314</ele>
  <time>2011-09-29T05:14:26Z</time>
  <speed>2.810000</speed>
</trkpt>
<trkpt lat="32.604080200" lon="35.129894257">
  <ele>201.802002</ele>
  <time>2011-09-29T05:14:28Z</time>
  <speed>2.060000</speed>
</trkpt>
<trkpt lat="32.604053497" lon="35.129878998">
  <ele>201.747314</ele>
  <time>2011-09-29T05:14:29Z</time>
  <speed>3.040000</speed>
</trkpt>
<trkpt lat="32.604030609" lon="35.129863739">
  <ele>201.716064</ele>
  <time>2011-09-29T05:14:30Z</time>
  <speed>3.390000</speed>
</trkpt>
<trkpt lat="32.604000092" lon="35.129852295">
  <ele>202.055908</ele>
  <time>2011-09-29T05:14:31Z</time>
  <speed>3.310000</speed>
</trkpt>
<trkpt lat="32.603969574" lon="35.129848480">
  <ele>202.251221</ele>
  <time>2011-09-29T05:14:32Z</time>
  <speed>2.930000</speed>
</trkpt>
<trkpt lat="32.603939056" lon="35.129837036">
  <ele>202.364502</ele>
  <time>2011-09-29T05:14:33Z</time>
  <speed>2.300000</speed>
</trkpt>
<trkpt lat="32.603897095" lon="35.129825592">
  <ele>202.485596</ele>
  <time>2011-09-29T05:14:35Z</time>
  <speed>2.310000</speed>
</trkpt>
<trkpt lat="32.603847504" lon="35.129806519">
  <ele>201.169189</ele>
  <time>2011-09-29T05:14:36Z</time>
  <speed>2.790000</speed>
</trkpt>
<trkpt lat="32.603816986" lon="35.129802704">
  <ele>201.106689</ele>
  <time>2011-09-29T05:14:37Z</time>
  <speed>2.840000</speed>
</trkpt>
<trkpt lat="32.603771210" lon="35.129806519">
  <ele>201.102783</ele>
  <time>2011-09-29T05:14:38Z</time>
  <speed>2.920000</speed>
</trkpt>
<trkpt lat="32.603698730" lon="35.129814148">
  <ele>202.469971</ele>
  <time>2011-09-29T05:14:40Z</time>
  <speed>2.680000</speed>
</trkpt>
<trkpt lat="32.603668213" lon="35.129814148">
  <ele>202.723877</ele>
  <time>2011-09-29T05:14:41Z</time>
  <speed>2.730000</speed>
</trkpt>
<trkpt lat="32.603626251" lon="35.129821777">
  <ele>203.688721</ele>
  <time>2011-09-29T05:14:42Z</time>
  <speed>3.040000</speed>
</trkpt>
<trkpt lat="32.603569031" lon="35.129798889">
  <ele>204.075439</ele>
  <time>2011-09-29T05:14:43Z</time>
  <speed>3.180000</speed>
</trkpt>
<trkpt lat="32.603523254" lon="35.129791260">
  <ele>204.477783</ele>
  <time>2011-09-29T05:14:45Z</time>
  <speed>2.320000</speed>
</trkpt>
<trkpt lat="32.603492737" lon="35.129783630">
  <ele>205.079346</ele>
  <time>2011-09-29T05:14:46Z</time>
  <speed>2.750000</speed>
</trkpt>
<trkpt lat="32.603439331" lon="35.129776001">
  <ele>205.813721</ele>
  <time>2011-09-29T05:14:48Z</time>
  <speed>3.180000</speed>
</trkpt>
<trkpt lat="32.603408813" lon="35.129768372">
  <ele>206.032471</ele>
  <time>2011-09-29T05:14:49Z</time>
  <speed>3.250000</speed>
</trkpt>
<trkpt lat="32.603382111" lon="35.129760742">
  <ele>206.594971</ele>
  <time>2011-09-29T05:14:50Z</time>
  <speed>2.850000</speed>
</trkpt>
<trkpt lat="32.603324890" lon="35.129756927">
  <ele>207.239502</ele>
  <time>2011-09-29T05:14:52Z</time>
  <speed>3.420000</speed>
</trkpt>
<trkpt lat="32.603298187" lon="35.129764557">
  <ele>207.255127</ele>
  <time>2011-09-29T05:14:53Z</time>
  <speed>3.300000</speed>
</trkpt>
<trkpt lat="32.603252411" lon="35.129760742">
  <ele>208.048096</ele>
  <time>2011-09-29T05:14:55Z</time>
  <speed>1.840000</speed>
</trkpt>
<trkpt lat="32.603221893" lon="35.129745483">
  <ele>208.305908</ele>
  <time>2011-09-29T05:14:56Z</time>
  <speed>2.350000</speed>
</trkpt>
<trkpt lat="32.603164673" lon="35.129768372">
  <ele>208.450439</ele>
  <time>2011-09-29T05:14:58Z</time>
  <speed>2.870000</speed>
</trkpt>
<trkpt lat="32.603137970" lon="35.129779816">
  <ele>208.954346</ele>
  <time>2011-09-29T05:14:59Z</time>
  <speed>2.340000</speed>
</trkpt>
<trkpt lat="32.603096008" lon="35.129783630">
  <ele>210.091064</ele>
  <time>2011-09-29T05:15:01Z</time>
  <speed>2.190000</speed>
</trkpt>
<trkpt lat="32.603050232" lon="35.129776001">
  <ele>211.251221</ele>
  <time>2011-09-29T05:15:03Z</time>
  <speed>1.910000</speed>
</trkpt>
<trkpt lat="32.603023529" lon="35.129772186">
  <ele>211.844971</ele>
  <time>2011-09-29T05:15:04Z</time>
  <speed>2.490000</speed>
</trkpt>
<trkpt lat="32.602977753" lon="35.129753113">
  <ele>212.313721</ele>
  <time>2011-09-29T05:15:05Z</time>
  <speed>2.120000</speed>
</trkpt>
<trkpt lat="32.602935791" lon="35.129745483">
  <ele>213.266846</ele>
  <time>2011-09-29T05:15:07Z</time>
  <speed>2.140000</speed>
</trkpt>
<trkpt lat="32.602893829" lon="35.129741669">
  <ele>214.270752</ele>
  <time>2011-09-29T05:15:09Z</time>
  <speed>2.080000</speed>
</trkpt>
<trkpt lat="32.602840424" lon="35.129753113">
  <ele>215.165283</ele>
  <time>2011-09-29T05:15:11Z</time>
  <speed>2.460000</speed>
</trkpt>
<trkpt lat="32.602809906" lon="35.129753113">
  <ele>216.071533</ele>
  <time>2011-09-29T05:15:13Z</time>
  <speed>1.370000</speed>
</trkpt>
<trkpt lat="32.602760315" lon="35.129753113">
  <ele>217.126221</ele>
  <time>2011-09-29T05:15:15Z</time>
  <speed>2.110000</speed>
</trkpt>
<trkpt lat="32.602725983" lon="35.129745483">
  <ele>217.825439</ele>
  <time>2011-09-29T05:15:16Z</time>
  <speed>2.700000</speed>
</trkpt>
<trkpt lat="32.602645874" lon="35.129714966">
  <ele>218.356689</ele>
  <time>2011-09-29T05:15:18Z</time>
  <speed>2.800000</speed>
</trkpt>
<trkpt lat="32.602619171" lon="35.129703522">
  <ele>218.825439</ele>
  <time>2011-09-29T05:15:19Z</time>
  <speed>2.860000</speed>
</trkpt>
<trkpt lat="32.602588654" lon="35.129703522">
  <ele>219.497314</ele>
  <time>2011-09-29T05:15:20Z</time>
  <speed>3.000000</speed>
</trkpt>
<trkpt lat="32.602550507" lon="35.129688263">
  <ele>219.844971</ele>
  <time>2011-09-29T05:15:21Z</time>
  <speed>3.430000</speed>
</trkpt>
<trkpt lat="32.602519989" lon="35.129673004">
  <ele>220.454346</ele>
  <time>2011-09-29T05:15:22Z</time>
  <speed>3.270000</speed>
</trkpt>
<trkpt lat="32.602481842" lon="35.129661560">
  <ele>221.290283</ele>
  <time>2011-09-29T05:15:24Z</time>
  <speed>1.590000</speed>
</trkpt>
<trkpt lat="32.602428436" lon="35.129680634">
  <ele>222.466064</ele>
  <time>2011-09-29T05:15:25Z</time>
  <speed>2.860000</speed>
</trkpt>
<trkpt lat="32.602386475" lon="35.129676819">
  <ele>223.184814</ele>
  <time>2011-09-29T05:15:27Z</time>
  <speed>1.940000</speed>
</trkpt>
<trkpt lat="32.602344513" lon="35.129669189">
  <ele>224.512939</ele>
  <time>2011-09-29T05:15:29Z</time>
  <speed>1.570000</speed>
</trkpt>
<trkpt lat="32.602283478" lon="35.129669189">
  <ele>224.216064</ele>
  <time>2011-09-29T05:15:31Z</time>
  <speed>2.440000</speed>
</trkpt>
<trkpt lat="32.602256775" lon="35.129665375">
  <ele>224.380127</ele>
  <time>2011-09-29T05:15:32Z</time>
  <speed>2.630000</speed>
</trkpt>
<trkpt lat="32.602230072" lon="35.129665375">
  <ele>224.497314</ele>
  <time>2011-09-29T05:15:33Z</time>
  <speed>2.770000</speed>
</trkpt>
<trkpt lat="32.602180481" lon="35.129650116">
  <ele>224.216064</ele>
  <time>2011-09-29T05:15:35Z</time>
  <speed>2.270000</speed>
</trkpt>
<trkpt lat="32.602153778" lon="35.129642487">
  <ele>224.618408</ele>
  <time>2011-09-29T05:15:36Z</time>
  <speed>2.460000</speed>
</trkpt>
<trkpt lat="32.602092743" lon="35.129634857">
  <ele>224.942627</ele>
  <time>2011-09-29T05:15:38Z</time>
  <speed>2.600000</speed>
</trkpt>
<trkpt lat="32.602066040" lon="35.129627228">
  <ele>225.071533</ele>
  <time>2011-09-29T05:15:39Z</time>
  <speed>2.920000</speed>
</trkpt>
<trkpt lat="32.602035522" lon="35.129619598">
  <ele>225.184814</ele>
  <time>2011-09-29T05:15:40Z</time>
  <speed>2.720000</speed>
</trkpt>
<trkpt lat="32.601982117" lon="35.129623413">
  <ele>224.798096</ele>
  <time>2011-09-29T05:15:42Z</time>
  <speed>2.550000</speed>
</trkpt>
<trkpt lat="32.601928711" lon="35.129611969">
  <ele>225.200439</ele>
  <time>2011-09-29T05:15:44Z</time>
  <speed>2.310000</speed>
</trkpt>
<trkpt lat="32.601890564" lon="35.129611969">
  <ele>225.243408</ele>
  <time>2011-09-29T05:15:46Z</time>
  <speed>2.030000</speed>
</trkpt>
<trkpt lat="32.601848602" lon="35.129604340">
  <ele>225.239502</ele>
  <time>2011-09-29T05:15:48Z</time>
  <speed>2.170000</speed>
</trkpt>
<trkpt lat="32.601799011" lon="35.129600525">
  <ele>224.587158</ele>
  <time>2011-09-29T05:15:49Z</time>
  <speed>2.850000</speed>
</trkpt>
<trkpt lat="32.601757050" lon="35.129581451">
  <ele>223.930908</ele>
  <time>2011-09-29T05:15:50Z</time>
  <speed>2.680000</speed>
</trkpt>
<trkpt lat="32.601711273" lon="35.129570007">
  <ele>223.645752</ele>
  <time>2011-09-29T05:15:52Z</time>
  <speed>2.720000</speed>
</trkpt>
<trkpt lat="32.601657867" lon="35.129558563">
  <ele>223.684814</ele>
  <time>2011-09-29T05:15:54Z</time>
  <speed>2.810000</speed>
</trkpt>
<trkpt lat="32.601627350" lon="35.129554749">
  <ele>223.770752</ele>
  <time>2011-09-29T05:15:55Z</time>
  <speed>2.660000</speed>
</trkpt>
<trkpt lat="32.601570129" lon="35.129543304">
  <ele>223.395752</ele>
  <time>2011-09-29T05:15:57Z</time>
  <speed>2.790000</speed>
</trkpt>
<trkpt lat="32.601539612" lon="35.129543304">
  <ele>223.016846</ele>
  <time>2011-09-29T05:15:58Z</time>
  <speed>2.710000</speed>
</trkpt>
<trkpt lat="32.601497650" lon="35.129535675">
  <ele>223.044189</ele>
  <time>2011-09-29T05:16:00Z</time>
  <speed>2.020000</speed>
</trkpt>
<trkpt lat="32.601455688" lon="35.129524231">
  <ele>222.497314</ele>
  <time>2011-09-29T05:16:02Z</time>
  <speed>2.060000</speed>
</trkpt>
<trkpt lat="32.601428986" lon="35.129516602">
  <ele>222.134033</ele>
  <time>2011-09-29T05:16:03Z</time>
  <speed>2.320000</speed>
</trkpt>
<trkpt lat="32.601394653" lon="35.129493713">
  <ele>221.653564</ele>
  <time>2011-09-29T05:16:05Z</time>
  <speed>2.240000</speed>
</trkpt>
<trkpt lat="32.601367950" lon="35.129474640">
  <ele>221.329346</ele>
  <time>2011-09-29T05:16:06Z</time>
  <speed>2.440000</speed>
</trkpt>
<trkpt lat="32.601322174" lon="35.129440308">
  <ele>221.376221</ele>
  <time>2011-09-29T05:16:08Z</time>
  <speed>2.390000</speed>
</trkpt>
<trkpt lat="32.601299286" lon="35.129428864">
  <ele>221.243408</ele>
  <time>2011-09-29T05:16:09Z</time>
  <speed>2.360000</speed>
</trkpt>
<trkpt lat="32.601249695" lon="35.129409790">
  <ele>221.290283</ele>
  <time>2011-09-29T05:16:11Z</time>
  <speed>2.360000</speed>
</trkpt>
<trkpt lat="32.601222992" lon="35.129379272">
  <ele>221.450439</ele>
  <time>2011-09-29T05:16:13Z</time>
  <speed>1.790000</speed>
</trkpt>
<trkpt lat="32.601196289" lon="35.129356384">
  <ele>221.325439</ele>
  <time>2011-09-29T05:16:15Z</time>
  <speed>1.870000</speed>
</trkpt>
<trkpt lat="32.601169586" lon="35.129322052">
  <ele>221.278564</ele>
  <time>2011-09-29T05:16:17Z</time>
  <speed>1.740000</speed>
</trkpt>
<trkpt lat="32.601154327" lon="35.129283905">
  <ele>221.395752</ele>
  <time>2011-09-29T05:16:19Z</time>
  <speed>1.550000</speed>
</trkpt>
<trkpt lat="32.601131439" lon="35.129226685">
  <ele>220.993408</ele>
  <time>2011-09-29T05:16:21Z</time>
  <speed>2.100000</speed>
</trkpt>
<trkpt lat="32.601112366" lon="35.129196167">
  <ele>220.927002</ele>
  <time>2011-09-29T05:16:22Z</time>
  <speed>2.670000</speed>
</trkpt>
<trkpt lat="32.601116180" lon="35.129158020">
  <ele>219.552002</ele>
  <time>2011-09-29T05:16:23Z</time>
  <speed>2.200000</speed>
</trkpt>
<trkpt lat="32.601104736" lon="35.129100800">
  <ele>218.583252</ele>
  <time>2011-09-29T05:16:25Z</time>
  <speed>1.810000</speed>
</trkpt>
<trkpt lat="32.601089478" lon="35.129055023">
  <ele>217.887939</ele>
  <time>2011-09-29T05:16:27Z</time>
  <speed>1.700000</speed>
</trkpt>
<trkpt lat="32.601074219" lon="35.129016876">
  <ele>217.532471</ele>
  <time>2011-09-29T05:16:28Z</time>
  <speed>2.240000</speed>
</trkpt>
<trkpt lat="32.601062775" lon="35.128971100">
  <ele>217.645752</ele>
  <time>2011-09-29T05:16:30Z</time>
  <speed>2.040000</speed>
</trkpt>
<trkpt lat="32.601104736" lon="35.128952026">
  <ele>217.852783</ele>
  <time>2011-09-29T05:16:32Z</time>
  <speed>1.730000</speed>
</trkpt>
<trkpt lat="32.601146698" lon="35.128917694">
  <ele>217.059814</ele>
  <time>2011-09-29T05:16:34Z</time>
  <speed>2.540000</speed>
</trkpt>
<trkpt lat="32.601184845" lon="35.128902435">
  <ele>216.884033</ele>
  <time>2011-09-29T05:16:36Z</time>
  <speed>2.290000</speed>
</trkpt>
<trkpt lat="32.601230621" lon="35.128906250">
  <ele>217.716064</ele>
  <time>2011-09-29T05:16:38Z</time>
  <speed>2.090000</speed>
</trkpt>
<trkpt lat="32.601257324" lon="35.128906250">
  <ele>217.493408</ele>
  <time>2011-09-29T05:16:40Z</time>
  <speed>1.420000</speed>
</trkpt>
<trkpt lat="32.601284027" lon="35.128913879">
  <ele>216.184814</ele>
  <time>2011-09-29T05:16:42Z</time>
  <speed>1.500000</speed>
</trkpt>
<trkpt lat="32.601314545" lon="35.128917694">
  <ele>216.075439</ele>
  <time>2011-09-29T05:16:43Z</time>
  <speed>2.170000</speed>
</trkpt>
<trkpt lat="32.601383209" lon="35.128898621">
  <ele>216.833252</ele>
  <time>2011-09-29T05:16:45Z</time>
  <speed>3.140000</speed>
</trkpt>
<trkpt lat="32.601413727" lon="35.128902435">
  <ele>217.255127</ele>
  <time>2011-09-29T05:16:46Z</time>
  <speed>2.140000</speed>
</trkpt>
<trkpt lat="32.601455688" lon="35.128910065">
  <ele>217.337158</ele>
  <time>2011-09-29T05:16:48Z</time>
  <speed>2.640000</speed>
</trkpt>
<trkpt lat="32.601501465" lon="35.128917694">
  <ele>217.466064</ele>
  <time>2011-09-29T05:16:50Z</time>
  <speed>1.890000</speed>
</trkpt>
<trkpt lat="32.601547241" lon="35.128932953">
  <ele>217.399658</ele>
  <time>2011-09-29T05:16:52Z</time>
  <speed>2.900000</speed>
</trkpt>
<trkpt lat="32.601577759" lon="35.128936768">
  <ele>217.630127</ele>
  <time>2011-09-29T05:16:53Z</time>
  <speed>3.480000</speed>
</trkpt>
<trkpt lat="32.601619720" lon="35.128948212">
  <ele>217.809814</ele>
  <time>2011-09-29T05:16:54Z</time>
  <speed>4.000000</speed>
</trkpt>
<trkpt lat="32.601665497" lon="35.128959656">
  <ele>216.817627</ele>
  <time>2011-09-29T05:16:56Z</time>
  <speed>3.060000</speed>
</trkpt>
<trkpt lat="32.601696014" lon="35.128959656">
  <ele>217.231689</ele>
  <time>2011-09-29T05:16:57Z</time>
  <speed>2.710000</speed>
</trkpt>
<trkpt lat="32.601730347" lon="35.128948212">
  <ele>217.407471</ele>
  <time>2011-09-29T05:16:58Z</time>
  <speed>3.560000</speed>
</trkpt>
<trkpt lat="32.601776123" lon="35.128940582">
  <ele>217.739502</ele>
  <time>2011-09-29T05:16:59Z</time>
  <speed>3.890000</speed>
</trkpt>
<trkpt lat="32.601821899" lon="35.128940582">
  <ele>217.516846</ele>
  <time>2011-09-29T05:17:00Z</time>
  <speed>4.140000</speed>
</trkpt>
<trkpt lat="32.601860046" lon="35.128929138">
  <ele>217.036377</ele>
  <time>2011-09-29T05:17:01Z</time>
  <speed>3.960000</speed>
</trkpt>
<trkpt lat="32.601890564" lon="35.128925323">
  <ele>216.341064</ele>
  <time>2011-09-29T05:17:02Z</time>
  <speed>3.690000</speed>
</trkpt>
<trkpt lat="32.601936340" lon="35.128925323">
  <ele>216.294189</ele>
  <time>2011-09-29T05:17:03Z</time>
  <speed>3.970000</speed>
</trkpt>
<trkpt lat="32.601982117" lon="35.128917694">
  <ele>216.278564</ele>
  <time>2011-09-29T05:17:04Z</time>
  <speed>5.180000</speed>
</trkpt>
<trkpt lat="32.602039337" lon="35.128913879">
  <ele>216.091064</ele>
  <time>2011-09-29T05:17:05Z</time>
  <speed>5.670000</speed>
</trkpt>
<trkpt lat="32.602096558" lon="35.128913879">
  <ele>215.969971</ele>
  <time>2011-09-29T05:17:06Z</time>
  <speed>5.510000</speed>
</trkpt>
<trkpt lat="32.602146149" lon="35.128906250">
  <ele>215.130127</ele>
  <time>2011-09-29T05:17:07Z</time>
  <speed>5.870000</speed>
</trkpt>
<trkpt lat="32.602199554" lon="35.128898621">
  <ele>214.454346</ele>
  <time>2011-09-29T05:17:08Z</time>
  <speed>5.550000</speed>
</trkpt>
<trkpt lat="32.602249146" lon="35.128879547">
  <ele>213.833252</ele>
  <time>2011-09-29T05:17:09Z</time>
  <speed>5.780000</speed>
</trkpt>
<trkpt lat="32.602310181" lon="35.128852844">
  <ele>213.223877</ele>
  <time>2011-09-29T05:17:10Z</time>
  <speed>6.260000</speed>
</trkpt>
<trkpt lat="32.602375031" lon="35.128829956">
  <ele>212.341064</ele>
  <time>2011-09-29T05:17:11Z</time>
  <speed>6.350000</speed>
</trkpt>
<trkpt lat="32.602451324" lon="35.128787994">
  <ele>212.032471</ele>
  <time>2011-09-29T05:17:12Z</time>
  <speed>7.770000</speed>
</trkpt>
<trkpt lat="32.602523804" lon="35.128742218">
  <ele>211.094971</ele>
  <time>2011-09-29T05:17:13Z</time>
  <speed>8.220000</speed>
</trkpt>
<trkpt lat="32.602642059" lon="35.128692627">
  <ele>210.602783</ele>
  <time>2011-09-29T05:17:14Z</time>
  <speed>9.060000</speed>
</trkpt>
<trkpt lat="32.602722168" lon="35.128639221">
  <ele>209.485596</ele>
  <time>2011-09-29T05:17:15Z</time>
  <speed>9.650000</speed>
</trkpt>
<trkpt lat="32.602813721" lon="35.128566742">
  <ele>206.829346</ele>
  <time>2011-09-29T05:17:16Z</time>
  <speed>9.350000</speed>
</trkpt>
<trkpt lat="32.602893829" lon="35.128490448">
  <ele>205.165283</ele>
  <time>2011-09-29T05:17:17Z</time>
  <speed>9.570000</speed>
</trkpt>
<trkpt lat="32.602970123" lon="35.128417969">
  <ele>204.071533</ele>
  <time>2011-09-29T05:17:18Z</time>
  <speed>9.920001</speed>
</trkpt>
<trkpt lat="32.603015900" lon="35.128326416">
  <ele>204.895752</ele>
  <time>2011-09-29T05:17:19Z</time>
  <speed>8.740000</speed>
</trkpt>
<trkpt lat="32.603076935" lon="35.128242493">
  <ele>204.278564</ele>
  <time>2011-09-29T05:17:20Z</time>
  <speed>8.090000</speed>
</trkpt>
<trkpt lat="32.603126526" lon="35.128177643">
  <ele>203.649658</ele>
  <time>2011-09-29T05:17:21Z</time>
  <speed>8.030000</speed>
</trkpt>
<trkpt lat="32.603195190" lon="35.128105164">
  <ele>204.591064</ele>
  <time>2011-09-29T05:17:22Z</time>
  <speed>7.220000</speed>
</trkpt>
<trkpt lat="32.603221893" lon="35.128032684">
  <ele>205.251221</ele>
  <time>2011-09-29T05:17:23Z</time>
  <speed>6.360000</speed>
</trkpt>
<trkpt lat="32.603233337" lon="35.127971649">
  <ele>205.075439</ele>
  <time>2011-09-29T05:17:24Z</time>
  <speed>5.760000</speed>
</trkpt>
<trkpt lat="32.603244781" lon="35.127910614">
  <ele>205.040283</ele>
  <time>2011-09-29T05:17:25Z</time>
  <speed>5.550000</speed>
</trkpt>
<trkpt lat="32.603248596" lon="35.127853394">
  <ele>205.360596</ele>
  <time>2011-09-29T05:17:26Z</time>
  <speed>4.700000</speed>
</trkpt>
<trkpt lat="32.603248596" lon="35.127799988">
  <ele>205.372314</ele>
  <time>2011-09-29T05:17:27Z</time>
  <speed>3.960000</speed>
</trkpt>
<trkpt lat="32.603244781" lon="35.127761841">
  <ele>205.575439</ele>
  <time>2011-09-29T05:17:28Z</time>
  <speed>3.750000</speed>
</trkpt>
<trkpt lat="32.603240967" lon="35.127716064">
  <ele>205.450439</ele>
  <time>2011-09-29T05:17:29Z</time>
  <speed>3.470000</speed>
</trkpt>
<trkpt lat="32.603229523" lon="35.127685547">
  <ele>205.895752</ele>
  <time>2011-09-29T05:17:30Z</time>
  <speed>3.040000</speed>
</trkpt>
<trkpt lat="32.603214264" lon="35.127639771">
  <ele>205.747314</ele>
  <time>2011-09-29T05:17:32Z</time>
  <speed>2.400000</speed>
</trkpt>
<trkpt lat="32.603195190" lon="35.127605438">
  <ele>205.704346</ele>
  <time>2011-09-29T05:17:33Z</time>
  <speed>2.510000</speed>
</trkpt>
<trkpt lat="32.603157043" lon="35.127563477">
  <ele>204.731689</ele>
  <time>2011-09-29T05:17:34Z</time>
  <speed>2.940000</speed>
</trkpt>
<trkpt lat="32.603137970" lon="35.127525330">
  <ele>204.184814</ele>
  <time>2011-09-29T05:17:35Z</time>
  <speed>3.220000</speed>
</trkpt>
<trkpt lat="32.603118896" lon="35.127502441">
  <ele>203.852783</ele>
  <time>2011-09-29T05:17:36Z</time>
  <speed>3.420000</speed>
</trkpt>
<trkpt lat="32.603080750" lon="35.127471924">
  <ele>203.458252</ele>
  <time>2011-09-29T05:17:37Z</time>
  <speed>3.470000</speed>
</trkpt>
<trkpt lat="32.603038788" lon="35.127449036">
  <ele>202.653564</ele>
  <time>2011-09-29T05:17:38Z</time>
  <speed>3.730000</speed>
</trkpt>
<trkpt lat="32.602993011" lon="35.127418518">
  <ele>202.040283</ele>
  <time>2011-09-29T05:17:39Z</time>
  <speed>3.690000</speed>
</trkpt>
<trkpt lat="32.602962494" lon="35.127407074">
  <ele>202.243408</ele>
  <time>2011-09-29T05:17:40Z</time>
  <speed>3.560000</speed>
</trkpt>
<trkpt lat="32.602928162" lon="35.127395630">
  <ele>202.020752</ele>
  <time>2011-09-29T05:17:41Z</time>
  <speed>3.110000</speed>
</trkpt>
<trkpt lat="32.602901459" lon="35.127391815">
  <ele>202.223877</ele>
  <time>2011-09-29T05:17:42Z</time>
  <speed>3.370000</speed>
</trkpt>
<trkpt lat="32.602863312" lon="35.127384186">
  <ele>202.020752</ele>
  <time>2011-09-29T05:17:43Z</time>
  <speed>3.130000</speed>
</trkpt>
<trkpt lat="32.602832794" lon="35.127380371">
  <ele>202.231689</ele>
  <time>2011-09-29T05:17:44Z</time>
  <speed>2.910000</speed>
</trkpt>
<trkpt lat="32.602794647" lon="35.127376556">
  <ele>202.044189</ele>
  <time>2011-09-29T05:17:45Z</time>
  <speed>3.320000</speed>
</trkpt>
<trkpt lat="32.602764130" lon="35.127368927">
  <ele>202.188721</ele>
  <time>2011-09-29T05:17:46Z</time>
  <speed>2.870000</speed>
</trkpt>
<trkpt lat="32.602729797" lon="35.127368927">
  <ele>202.766846</ele>
  <time>2011-09-29T05:17:47Z</time>
  <speed>3.300000</speed>
</trkpt>
<trkpt lat="32.602695465" lon="35.127365112">
  <ele>203.196533</ele>
  <time>2011-09-29T05:17:48Z</time>
  <speed>2.670000</speed>
</trkpt>
<trkpt lat="32.602664948" lon="35.127368927">
  <ele>203.864502</ele>
  <time>2011-09-29T05:17:49Z</time>
  <speed>2.480000</speed>
</trkpt>
<trkpt lat="32.602638245" lon="35.127368927">
  <ele>203.606689</ele>
  <time>2011-09-29T05:17:50Z</time>
  <speed>2.580000</speed>
</trkpt>
<trkpt lat="32.602607727" lon="35.127372742">
  <ele>203.501221</ele>
  <time>2011-09-29T05:17:51Z</time>
  <speed>2.580000</speed>
</trkpt>
<trkpt lat="32.602577209" lon="35.127372742">
  <ele>203.559814</ele>
  <time>2011-09-29T05:17:52Z</time>
  <speed>2.520000</speed>
</trkpt>
<trkpt lat="32.602550507" lon="35.127376556">
  <ele>203.930908</ele>
  <time>2011-09-29T05:17:53Z</time>
  <speed>2.110000</speed>
</trkpt>
<trkpt lat="32.602497101" lon="35.127380371">
  <ele>204.161377</ele>
  <time>2011-09-29T05:17:55Z</time>
  <speed>2.230000</speed>
</trkpt>
<trkpt lat="32.602451324" lon="35.127368927">
  <ele>204.829346</ele>
  <time>2011-09-29T05:17:57Z</time>
  <speed>2.530000</speed>
</trkpt>
<trkpt lat="32.602394104" lon="35.127342224">
  <ele>206.442627</ele>
  <time>2011-09-29T05:17:59Z</time>
  <speed>2.470000</speed>
</trkpt>
<trkpt lat="32.602340698" lon="35.127334595">
  <ele>207.196533</ele>
  <time>2011-09-29T05:18:01Z</time>
  <speed>2.300000</speed>
</trkpt>
<trkpt lat="32.602313995" lon="35.127342224">
  <ele>207.516846</ele>
  <time>2011-09-29T05:18:02Z</time>
  <speed>2.400000</speed>
</trkpt>
<trkpt lat="32.602283478" lon="35.127342224">
  <ele>207.403564</ele>
  <time>2011-09-29T05:18:03Z</time>
  <speed>2.500000</speed>
</trkpt>
<trkpt lat="32.602256775" lon="35.127342224">
  <ele>207.594971</ele>
  <time>2011-09-29T05:18:04Z</time>
  <speed>2.350000</speed>
</trkpt>
<trkpt lat="32.602203369" lon="35.127326965">
  <ele>207.219971</ele>
  <time>2011-09-29T05:18:06Z</time>
  <speed>2.450000</speed>
</trkpt>
<trkpt lat="32.602149963" lon="35.127319336">
  <ele>207.844971</ele>
  <time>2011-09-29T05:18:08Z</time>
  <speed>2.630000</speed>
</trkpt>
<trkpt lat="32.602119446" lon="35.127323151">
  <ele>208.251221</ele>
  <time>2011-09-29T05:18:09Z</time>
  <speed>2.450000</speed>
</trkpt>
<trkpt lat="32.602073669" lon="35.127319336">
  <ele>208.899658</ele>
  <time>2011-09-29T05:18:11Z</time>
  <speed>1.820000</speed>
</trkpt>
<trkpt lat="32.602043152" lon="35.127323151">
  <ele>209.161377</ele>
  <time>2011-09-29T05:18:12Z</time>
  <speed>2.060000</speed>
</trkpt>
<trkpt lat="32.602008820" lon="35.127307892">
  <ele>209.325439</ele>
  <time>2011-09-29T05:18:14Z</time>
  <speed>1.420000</speed>
</trkpt>
<trkpt lat="32.601978302" lon="35.127288818">
  <ele>209.723877</ele>
  <time>2011-09-29T05:18:16Z</time>
  <speed>1.930000</speed>
</trkpt>
<trkpt lat="32.601932526" lon="35.127258301">
  <ele>209.415283</ele>
  <time>2011-09-29T05:18:18Z</time>
  <speed>2.560000</speed>
</trkpt>
<trkpt lat="32.601905823" lon="35.127239227">
  <ele>209.661377</ele>
  <time>2011-09-29T05:18:19Z</time>
  <speed>2.530000</speed>
</trkpt>
<trkpt lat="32.601879120" lon="35.127212524">
  <ele>209.712158</ele>
  <time>2011-09-29T05:18:20Z</time>
  <speed>3.610000</speed>
</trkpt>
<trkpt lat="32.601848602" lon="35.127185822">
  <ele>209.684814</ele>
  <time>2011-09-29T05:18:21Z</time>
  <speed>3.980000</speed>
</trkpt>
<trkpt lat="32.601821899" lon="35.127159119">
  <ele>209.833252</ele>
  <time>2011-09-29T05:18:22Z</time>
  <speed>3.690000</speed>
</trkpt>
<trkpt lat="32.601787567" lon="35.127132416">
  <ele>209.719971</ele>
  <time>2011-09-29T05:18:23Z</time>
  <speed>4.060000</speed>
</trkpt>
<trkpt lat="32.601753235" lon="35.127094269">
  <ele>209.778564</ele>
  <time>2011-09-29T05:18:24Z</time>
  <speed>4.770000</speed>
</trkpt>
<trkpt lat="32.601715088" lon="35.127056122">
  <ele>209.782471</ele>
  <time>2011-09-29T05:18:25Z</time>
  <speed>4.930000</speed>
</trkpt>
<trkpt lat="32.601673126" lon="35.127021790">
  <ele>209.821533</ele>
  <time>2011-09-29T05:18:26Z</time>
  <speed>5.280000</speed>
</trkpt>
<trkpt lat="32.601627350" lon="35.127006531">
  <ele>209.844971</ele>
  <time>2011-09-29T05:18:27Z</time>
  <speed>4.830000</speed>
</trkpt>
<trkpt lat="32.601573944" lon="35.126998901">
  <ele>209.821533</ele>
  <time>2011-09-29T05:18:28Z</time>
  <speed>4.210000</speed>
</trkpt>
<trkpt lat="32.601531982" lon="35.126991272">
  <ele>209.887939</ele>
  <time>2011-09-29T05:18:29Z</time>
  <speed>3.300000</speed>
</trkpt>
<trkpt lat="32.601497650" lon="35.126979828">
  <ele>209.817627</ele>
  <time>2011-09-29T05:18:30Z</time>
  <speed>3.250000</speed>
</trkpt>
<trkpt lat="32.601467133" lon="35.126964569">
  <ele>209.844971</ele>
  <time>2011-09-29T05:18:31Z</time>
  <speed>3.100000</speed>
</trkpt>
<trkpt lat="32.601394653" lon="35.126956940">
  <ele>209.684814</ele>
  <time>2011-09-29T05:18:32Z</time>
  <speed>3.200000</speed>
</trkpt>
<trkpt lat="32.601364136" lon="35.126941681">
  <ele>209.630127</ele>
  <time>2011-09-29T05:18:33Z</time>
  <speed>3.030000</speed>
</trkpt>
<trkpt lat="32.601337433" lon="35.126926422">
  <ele>209.442627</ele>
  <time>2011-09-29T05:18:34Z</time>
  <speed>3.060000</speed>
</trkpt>
<trkpt lat="32.601306915" lon="35.126914978">
  <ele>209.102783</ele>
  <time>2011-09-29T05:18:35Z</time>
  <speed>3.180000</speed>
</trkpt>
<trkpt lat="32.601280212" lon="35.126895905">
  <ele>209.110596</ele>
  <time>2011-09-29T05:18:36Z</time>
  <speed>2.850000</speed>
</trkpt>
<trkpt lat="32.601253510" lon="35.126880646">
  <ele>209.165283</ele>
  <time>2011-09-29T05:18:37Z</time>
  <speed>2.830000</speed>
</trkpt>
<trkpt lat="32.601222992" lon="35.126861572">
  <ele>209.192627</ele>
  <time>2011-09-29T05:18:38Z</time>
  <speed>3.070000</speed>
</trkpt>
<trkpt lat="32.601196289" lon="35.126842499">
  <ele>209.227783</ele>
  <time>2011-09-29T05:18:39Z</time>
  <speed>2.600000</speed>
</trkpt>
<trkpt lat="32.601173401" lon="35.126831055">
  <ele>209.262939</ele>
  <time>2011-09-29T05:18:40Z</time>
  <speed>2.610000</speed>
</trkpt>
<trkpt lat="32.601112366" lon="35.126789093">
  <ele>209.419189</ele>
  <time>2011-09-29T05:18:42Z</time>
  <speed>2.910000</speed>
</trkpt>
<trkpt lat="32.601070404" lon="35.126762390">
  <ele>209.325439</ele>
  <time>2011-09-29T05:18:44Z</time>
  <speed>2.520000</speed>
</trkpt>
<trkpt lat="32.601024628" lon="35.126739502">
  <ele>208.497314</ele>
  <time>2011-09-29T05:18:46Z</time>
  <speed>2.130000</speed>
</trkpt>
<trkpt lat="32.600978851" lon="35.126712799">
  <ele>207.934814</ele>
  <time>2011-09-29T05:18:48Z</time>
  <speed>2.020000</speed>
</trkpt>
<trkpt lat="32.600959778" lon="35.126689911">
  <ele>207.669189</ele>
  <time>2011-09-29T05:18:49Z</time>
  <speed>2.470000</speed>
</trkpt>
<trkpt lat="32.600933075" lon="35.126670837">
  <ele>207.645752</ele>
  <time>2011-09-29T05:18:50Z</time>
  <speed>2.770000</speed>
</trkpt>
<trkpt lat="32.600910187" lon="35.126647949">
  <ele>207.509033</ele>
  <time>2011-09-29T05:18:51Z</time>
  <speed>2.940000</speed>
</trkpt>
<trkpt lat="32.600891113" lon="35.126625061">
  <ele>207.364502</ele>
  <time>2011-09-29T05:18:52Z</time>
  <speed>2.610000</speed>
</trkpt>
<trkpt lat="32.600856781" lon="35.126605988">
  <ele>207.399658</ele>
  <time>2011-09-29T05:18:53Z</time>
  <speed>2.900000</speed>
</trkpt>
<trkpt lat="32.600826263" lon="35.126590729">
  <ele>207.438721</ele>
  <time>2011-09-29T05:18:54Z</time>
  <speed>2.580000</speed>
</trkpt>
<trkpt lat="32.600776672" lon="35.126548767">
  <ele>207.052002</ele>
  <time>2011-09-29T05:18:56Z</time>
  <speed>2.950000</speed>
</trkpt>
<trkpt lat="32.600734711" lon="35.126537323">
  <ele>207.032471</ele>
  <time>2011-09-29T05:18:58Z</time>
  <speed>3.100000</speed>
</trkpt>
<trkpt lat="32.600704193" lon="35.126510620">
  <ele>207.071533</ele>
  <time>2011-09-29T05:18:59Z</time>
  <speed>2.600000</speed>
</trkpt>
<trkpt lat="32.600681305" lon="35.126495361">
  <ele>207.071533</ele>
  <time>2011-09-29T05:19:00Z</time>
  <speed>2.300000</speed>
</trkpt>
<trkpt lat="32.600658417" lon="35.126483917">
  <ele>206.712158</ele>
  <time>2011-09-29T05:19:01Z</time>
  <speed>2.270000</speed>
</trkpt>
<trkpt lat="32.600620270" lon="35.126461029">
  <ele>207.110596</ele>
  <time>2011-09-29T05:19:02Z</time>
  <speed>2.560000</speed>
</trkpt>
<trkpt lat="32.600589752" lon="35.126445770">
  <ele>206.966064</ele>
  <time>2011-09-29T05:19:03Z</time>
  <speed>3.000000</speed>
</trkpt>
<trkpt lat="32.600559235" lon="35.126438141">
  <ele>207.052002</ele>
  <time>2011-09-29T05:19:04Z</time>
  <speed>2.920000</speed>
</trkpt>
<trkpt lat="32.600524902" lon="35.126426697">
  <ele>207.055908</ele>
  <time>2011-09-29T05:19:05Z</time>
  <speed>3.140000</speed>
</trkpt>
<trkpt lat="32.600475311" lon="35.126411438">
  <ele>207.395752</ele>
  <time>2011-09-29T05:19:07Z</time>
  <speed>2.390000</speed>
</trkpt>
<trkpt lat="32.600437164" lon="35.126380920">
  <ele>208.958252</ele>
  <time>2011-09-29T05:19:08Z</time>
  <speed>2.720000</speed>
</trkpt>
<trkpt lat="32.600414276" lon="35.126365662">
  <ele>209.204346</ele>
  <time>2011-09-29T05:19:09Z</time>
  <speed>2.810000</speed>
</trkpt>
<trkpt lat="32.600383759" lon="35.126350403">
  <ele>209.719971</ele>
  <time>2011-09-29T05:19:10Z</time>
  <speed>2.620000</speed>
</trkpt>
<trkpt lat="32.600349426" lon="35.126338959">
  <ele>210.364502</ele>
  <time>2011-09-29T05:19:12Z</time>
  <speed>2.120000</speed>
</trkpt>
<trkpt lat="32.600318909" lon="35.126342773">
  <ele>210.727783</ele>
  <time>2011-09-29T05:19:13Z</time>
  <speed>2.180000</speed>
</trkpt>
<trkpt lat="32.600265503" lon="35.126342773">
  <ele>211.040283</ele>
  <time>2011-09-29T05:19:15Z</time>
  <speed>2.500000</speed>
</trkpt>
<trkpt lat="32.600212097" lon="35.126331329">
  <ele>211.497314</ele>
  <time>2011-09-29T05:19:17Z</time>
  <speed>2.370000</speed>
</trkpt>
<trkpt lat="32.600166321" lon="35.126335144">
  <ele>212.083252</ele>
  <time>2011-09-29T05:19:19Z</time>
  <speed>2.210000</speed>
</trkpt>
<trkpt lat="32.600112915" lon="35.126365662">
  <ele>212.802002</ele>
  <time>2011-09-29T05:19:21Z</time>
  <speed>2.290000</speed>
</trkpt>
<trkpt lat="32.600078583" lon="35.126377106">
  <ele>213.622314</ele>
  <time>2011-09-29T05:19:23Z</time>
  <speed>1.640000</speed>
</trkpt>
<trkpt lat="32.600040436" lon="35.126399994">
  <ele>214.208252</ele>
  <time>2011-09-29T05:19:25Z</time>
  <speed>1.750000</speed>
</trkpt>
<trkpt lat="32.599987030" lon="35.126426697">
  <ele>214.298096</ele>
  <time>2011-09-29T05:19:27Z</time>
  <speed>2.270000</speed>
</trkpt>
<trkpt lat="32.599948883" lon="35.126453400">
  <ele>213.626221</ele>
  <time>2011-09-29T05:19:28Z</time>
  <speed>2.030000</speed>
</trkpt>
<trkpt lat="32.599910736" lon="35.126472473">
  <ele>214.016846</ele>
  <time>2011-09-29T05:19:30Z</time>
  <speed>1.850000</speed>
</trkpt>
<trkpt lat="32.599868774" lon="35.126491547">
  <ele>214.270752</ele>
  <time>2011-09-29T05:19:32Z</time>
  <speed>1.960000</speed>
</trkpt>
<trkpt lat="32.599826813" lon="35.126506805">
  <ele>214.790283</ele>
  <time>2011-09-29T05:19:34Z</time>
  <speed>1.710000</speed>
</trkpt>
<trkpt lat="32.599796295" lon="35.126529694">
  <ele>215.059814</ele>
  <time>2011-09-29T05:19:36Z</time>
  <speed>1.260000</speed>
</trkpt>
<trkpt lat="32.599761963" lon="35.126556396">
  <ele>214.805908</ele>
  <time>2011-09-29T05:19:38Z</time>
  <speed>1.450000</speed>
</trkpt>
<trkpt lat="32.599735260" lon="35.126567841">
  <ele>214.766846</ele>
  <time>2011-09-29T05:19:39Z</time>
  <speed>1.560000</speed>
</trkpt>
<trkpt lat="32.599700928" lon="35.126586914">
  <ele>214.946533</ele>
  <time>2011-09-29T05:19:40Z</time>
  <speed>2.130000</speed>
</trkpt>
<trkpt lat="32.599678040" lon="35.126602173">
  <ele>215.009033</ele>
  <time>2011-09-29T05:19:41Z</time>
  <speed>2.200000</speed>
</trkpt>
<trkpt lat="32.599651337" lon="35.126621246">
  <ele>215.040283</ele>
  <time>2011-09-29T05:19:42Z</time>
  <speed>2.070000</speed>
</trkpt>
<trkpt lat="32.599628448" lon="35.126636505">
  <ele>215.274658</ele>
  <time>2011-09-29T05:19:43Z</time>
  <speed>1.760000</speed>
</trkpt>
<trkpt lat="32.599605560" lon="35.126663208">
  <ele>215.716064</ele>
  <time>2011-09-29T05:19:44Z</time>
  <speed>1.890000</speed>
</trkpt>
<trkpt lat="32.599578857" lon="35.126678467">
  <ele>215.774658</ele>
  <time>2011-09-29T05:19:45Z</time>
  <speed>2.180000</speed>
</trkpt>
<trkpt lat="32.599536896" lon="35.126705170">
  <ele>216.137939</ele>
  <time>2011-09-29T05:19:47Z</time>
  <speed>1.520000</speed>
</trkpt>
<trkpt lat="32.599506378" lon="35.126728058">
  <ele>216.239502</ele>
  <time>2011-09-29T05:19:48Z</time>
  <speed>1.920000</speed>
</trkpt>
<trkpt lat="32.599468231" lon="35.126762390">
  <ele>216.227783</ele>
  <time>2011-09-29T05:19:50Z</time>
  <speed>1.770000</speed>
</trkpt>
<trkpt lat="32.599445343" lon="35.126773834">
  <ele>216.282471</ele>
  <time>2011-09-29T05:19:52Z</time>
  <speed>0.620000</speed>
</trkpt>
<trkpt lat="32.599399567" lon="35.126808167">
  <ele>215.887939</ele>
  <time>2011-09-29T05:19:54Z</time>
  <speed>1.350000</speed>
</trkpt>
<trkpt lat="32.599369049" lon="35.126823425">
  <ele>215.911377</ele>
  <time>2011-09-29T05:19:56Z</time>
  <speed>1.330000</speed>
</trkpt>
<trkpt lat="32.599342346" lon="35.126846313">
  <ele>215.884033</ele>
  <time>2011-09-29T05:19:58Z</time>
  <speed>1.490000</speed>
</trkpt>
<trkpt lat="32.599319458" lon="35.126861572">
  <ele>215.907471</ele>
  <time>2011-09-29T05:19:59Z</time>
  <speed>1.790000</speed>
</trkpt>
<trkpt lat="32.599288940" lon="35.126865387">
  <ele>216.313721</ele>
  <time>2011-09-29T05:20:00Z</time>
  <speed>1.790000</speed>
</trkpt>
<trkpt lat="32.599258423" lon="35.126853943">
  <ele>217.606689</ele>
  <time>2011-09-29T05:20:01Z</time>
  <speed>1.180000</speed>
</trkpt>
<trkpt lat="32.599216461" lon="35.126861572">
  <ele>218.544189</ele>
  <time>2011-09-29T05:20:02Z</time>
  <speed>1.880000</speed>
</trkpt>
<trkpt lat="32.599178314" lon="35.126892090">
  <ele>218.173096</ele>
  <time>2011-09-29T05:20:03Z</time>
  <speed>1.900000</speed>
</trkpt>
<trkpt lat="32.599140167" lon="35.126918793">
  <ele>218.759033</ele>
  <time>2011-09-29T05:20:04Z</time>
  <speed>1.580000</speed>
</trkpt>
<trkpt lat="32.599094391" lon="35.126941681">
  <ele>219.075439</ele>
  <time>2011-09-29T05:20:06Z</time>
  <speed>1.490000</speed>
</trkpt>
<trkpt lat="32.599040985" lon="35.126983643">
  <ele>218.958252</ele>
  <time>2011-09-29T05:20:08Z</time>
  <speed>2.310000</speed>
</trkpt>
<trkpt lat="32.598987579" lon="35.127006531">
  <ele>218.626221</ele>
  <time>2011-09-29T05:20:10Z</time>
  <speed>2.310000</speed>
</trkpt>
<trkpt lat="32.598953247" lon="35.127021790">
  <ele>219.469971</ele>
  <time>2011-09-29T05:20:11Z</time>
  <speed>2.420000</speed>
</trkpt>
<trkpt lat="32.598922729" lon="35.127037048">
  <ele>219.309814</ele>
  <time>2011-09-29T05:20:12Z</time>
  <speed>2.200000</speed>
</trkpt>
<trkpt lat="32.598899841" lon="35.127052307">
  <ele>219.130127</ele>
  <time>2011-09-29T05:20:13Z</time>
  <speed>1.940000</speed>
</trkpt>
<trkpt lat="32.598854065" lon="35.127048492">
  <ele>219.200439</ele>
  <time>2011-09-29T05:20:15Z</time>
  <speed>2.010000</speed>
</trkpt>
<trkpt lat="32.598808289" lon="35.127059937">
  <ele>219.266846</ele>
  <time>2011-09-29T05:20:16Z</time>
  <speed>2.630000</speed>
</trkpt>
<trkpt lat="32.598773956" lon="35.127067566">
  <ele>219.110596</ele>
  <time>2011-09-29T05:20:17Z</time>
  <speed>2.300000</speed>
</trkpt>
<trkpt lat="32.598743439" lon="35.127075195">
  <ele>219.770752</ele>
  <time>2011-09-29T05:20:18Z</time>
  <speed>2.350000</speed>
</trkpt>
<trkpt lat="32.598693848" lon="35.127075195">
  <ele>219.622314</ele>
  <time>2011-09-29T05:20:20Z</time>
  <speed>2.220000</speed>
</trkpt>
<trkpt lat="32.598640442" lon="35.127079010">
  <ele>219.348877</ele>
  <time>2011-09-29T05:20:22Z</time>
  <speed>2.800000</speed>
</trkpt>
<trkpt lat="32.598590851" lon="35.127082825">
  <ele>218.731689</ele>
  <time>2011-09-29T05:20:24Z</time>
  <speed>2.620000</speed>
</trkpt>
<trkpt lat="32.598560333" lon="35.127071381">
  <ele>218.911377</ele>
  <time>2011-09-29T05:20:25Z</time>
  <speed>2.570000</speed>
</trkpt>
<trkpt lat="32.598510742" lon="35.127063751">
  <ele>218.860596</ele>
  <time>2011-09-29T05:20:27Z</time>
  <speed>2.900000</speed>
</trkpt>
<trkpt lat="32.598484039" lon="35.127056122">
  <ele>218.684814</ele>
  <time>2011-09-29T05:20:28Z</time>
  <speed>3.540000</speed>
</trkpt>
<trkpt lat="32.598442078" lon="35.127071381">
  <ele>218.227783</ele>
  <time>2011-09-29T05:20:29Z</time>
  <speed>4.320000</speed>
</trkpt>
<trkpt lat="32.598396301" lon="35.127075195">
  <ele>217.751221</ele>
  <time>2011-09-29T05:20:30Z</time>
  <speed>4.570000</speed>
</trkpt>
<trkpt lat="32.598354340" lon="35.127067566">
  <ele>217.579346</ele>
  <time>2011-09-29T05:20:31Z</time>
  <speed>4.370000</speed>
</trkpt>
<trkpt lat="32.598308563" lon="35.127067566">
  <ele>217.548096</ele>
  <time>2011-09-29T05:20:32Z</time>
  <speed>4.940000</speed>
</trkpt>
<trkpt lat="32.598255157" lon="35.127082825">
  <ele>217.282471</ele>
  <time>2011-09-29T05:20:33Z</time>
  <speed>4.490000</speed>
</trkpt>
<trkpt lat="32.598213196" lon="35.127082825">
  <ele>217.434814</ele>
  <time>2011-09-29T05:20:34Z</time>
  <speed>4.540000</speed>
</trkpt>
<trkpt lat="32.598163605" lon="35.127075195">
  <ele>218.204346</ele>
  <time>2011-09-29T05:20:35Z</time>
  <speed>4.870000</speed>
</trkpt>
<trkpt lat="32.598121643" lon="35.127082825">
  <ele>217.305908</ele>
  <time>2011-09-29T05:20:36Z</time>
  <speed>4.630000</speed>
</trkpt>
<trkpt lat="32.598083496" lon="35.127086639">
  <ele>217.055908</ele>
  <time>2011-09-29T05:20:37Z</time>
  <speed>3.980000</speed>
</trkpt>
<trkpt lat="32.598037720" lon="35.127094269">
  <ele>217.223877</ele>
  <time>2011-09-29T05:20:38Z</time>
  <speed>5.010000</speed>
</trkpt>
<trkpt lat="32.597995758" lon="35.127113342">
  <ele>216.962158</ele>
  <time>2011-09-29T05:20:39Z</time>
  <speed>4.880000</speed>
</trkpt>
<trkpt lat="32.597938538" lon="35.127132416">
  <ele>216.829346</ele>
  <time>2011-09-29T05:20:40Z</time>
  <speed>5.480000</speed>
</trkpt>
<trkpt lat="32.597888947" lon="35.127136230">
  <ele>216.755127</ele>
  <time>2011-09-29T05:20:41Z</time>
  <speed>5.770000</speed>
</trkpt>
<trkpt lat="32.597831726" lon="35.127162933">
  <ele>216.555908</ele>
  <time>2011-09-29T05:20:42Z</time>
  <speed>5.450000</speed>
</trkpt>
<trkpt lat="32.597782135" lon="35.127185822">
  <ele>216.298096</ele>
  <time>2011-09-29T05:20:43Z</time>
  <speed>5.370000</speed>
</trkpt>
<trkpt lat="32.597732544" lon="35.127208710">
  <ele>216.126221</ele>
  <time>2011-09-29T05:20:44Z</time>
  <speed>5.700000</speed>
</trkpt>
<trkpt lat="32.597679138" lon="35.127231598">
  <ele>215.165283</ele>
  <time>2011-09-29T05:20:45Z</time>
  <speed>5.750000</speed>
</trkpt>
<trkpt lat="32.597625732" lon="35.127254486">
  <ele>214.649658</ele>
  <time>2011-09-29T05:20:46Z</time>
  <speed>6.620000</speed>
</trkpt>
<trkpt lat="32.597560883" lon="35.127273560">
  <ele>214.188721</ele>
  <time>2011-09-29T05:20:47Z</time>
  <speed>7.050000</speed>
</trkpt>
<trkpt lat="32.597488403" lon="35.127296448">
  <ele>213.458252</ele>
  <time>2011-09-29T05:20:48Z</time>
  <speed>7.290000</speed>
</trkpt>
<trkpt lat="32.597427368" lon="35.127330780">
  <ele>212.376221</ele>
  <time>2011-09-29T05:20:49Z</time>
  <speed>7.350000</speed>
</trkpt>
<trkpt lat="32.597358704" lon="35.127365112">
  <ele>211.614502</ele>
  <time>2011-09-29T05:20:50Z</time>
  <speed>8.070000</speed>
</trkpt>
<trkpt lat="32.597290039" lon="35.127407074">
  <ele>210.403564</ele>
  <time>2011-09-29T05:20:51Z</time>
  <speed>8.420000</speed>
</trkpt>
<trkpt lat="32.597213745" lon="35.127449036">
  <ele>210.118408</ele>
  <time>2011-09-29T05:20:52Z</time>
  <speed>7.970000</speed>
</trkpt>
<trkpt lat="32.597141266" lon="35.127502441">
  <ele>210.161377</ele>
  <time>2011-09-29T05:20:53Z</time>
  <speed>8.370000</speed>
</trkpt>
<trkpt lat="32.597080231" lon="35.127555847">
  <ele>209.997314</ele>
  <time>2011-09-29T05:20:54Z</time>
  <speed>8.870000</speed>
</trkpt>
<trkpt lat="32.597026825" lon="35.127624512">
  <ele>209.372314</ele>
  <time>2011-09-29T05:20:55Z</time>
  <speed>8.570000</speed>
</trkpt>
<trkpt lat="32.596977234" lon="35.127689362">
  <ele>209.317627</ele>
  <time>2011-09-29T05:20:56Z</time>
  <speed>7.950000</speed>
</trkpt>
<trkpt lat="32.596927643" lon="35.127761841">
  <ele>209.669189</ele>
  <time>2011-09-29T05:20:57Z</time>
  <speed>8.300000</speed>
</trkpt>
<trkpt lat="32.596881866" lon="35.127826691">
  <ele>209.864502</ele>
  <time>2011-09-29T05:20:58Z</time>
  <speed>8.130000</speed>
</trkpt>
<trkpt lat="32.596836090" lon="35.127891541">
  <ele>209.380127</ele>
  <time>2011-09-29T05:20:59Z</time>
  <speed>8.340000</speed>
</trkpt>
<trkpt lat="32.596778870" lon="35.127952576">
  <ele>209.063721</ele>
  <time>2011-09-29T05:21:00Z</time>
  <speed>8.240000</speed>
</trkpt>
<trkpt lat="32.596714020" lon="35.128005981">
  <ele>209.052002</ele>
  <time>2011-09-29T05:21:01Z</time>
  <speed>8.300000</speed>
</trkpt>
<trkpt lat="32.596649170" lon="35.128036499">
  <ele>208.555908</ele>
  <time>2011-09-29T05:21:02Z</time>
  <speed>7.660000</speed>
</trkpt>
<trkpt lat="32.596584320" lon="35.128055573">
  <ele>208.126221</ele>
  <time>2011-09-29T05:21:03Z</time>
  <speed>7.710000</speed>
</trkpt>
<trkpt lat="32.596519470" lon="35.128067017">
  <ele>208.149658</ele>
  <time>2011-09-29T05:21:04Z</time>
  <speed>6.970000</speed>
</trkpt>
<trkpt lat="32.596458435" lon="35.128086090">
  <ele>207.528564</ele>
  <time>2011-09-29T05:21:05Z</time>
  <speed>7.140000</speed>
</trkpt>
<trkpt lat="32.596401215" lon="35.128101349">
  <ele>207.200439</ele>
  <time>2011-09-29T05:21:06Z</time>
  <speed>6.370000</speed>
</trkpt>
<trkpt lat="32.596355438" lon="35.128108978">
  <ele>206.610596</ele>
  <time>2011-09-29T05:21:07Z</time>
  <speed>6.430000</speed>
</trkpt>
<trkpt lat="32.596282959" lon="35.128116608">
  <ele>206.270752</ele>
  <time>2011-09-29T05:21:08Z</time>
  <speed>6.920000</speed>
</trkpt>
<trkpt lat="32.596214294" lon="35.128120422">
  <ele>206.169189</ele>
  <time>2011-09-29T05:21:09Z</time>
  <speed>7.280000</speed>
</trkpt>
<trkpt lat="32.596157074" lon="35.128120422">
  <ele>205.739502</ele>
  <time>2011-09-29T05:21:10Z</time>
  <speed>6.340000</speed>
</trkpt>
<trkpt lat="32.596103668" lon="35.128124237">
  <ele>205.266846</ele>
  <time>2011-09-29T05:21:11Z</time>
  <speed>5.370000</speed>
</trkpt>
<trkpt lat="32.596054077" lon="35.128131866">
  <ele>204.969971</ele>
  <time>2011-09-29T05:21:12Z</time>
  <speed>5.840000</speed>
</trkpt>
<trkpt lat="32.595981598" lon="35.128162384">
  <ele>204.864502</ele>
  <time>2011-09-29T05:21:13Z</time>
  <speed>7.740000</speed>
</trkpt>
<trkpt lat="32.595912933" lon="35.128185272">
  <ele>204.384033</ele>
  <time>2011-09-29T05:21:14Z</time>
  <speed>7.540000</speed>
</trkpt>
<trkpt lat="32.595844269" lon="35.128211975">
  <ele>204.173096</ele>
  <time>2011-09-29T05:21:15Z</time>
  <speed>7.460000</speed>
</trkpt>
<trkpt lat="32.595779419" lon="35.128234863">
  <ele>203.962158</ele>
  <time>2011-09-29T05:21:16Z</time>
  <speed>6.980000</speed>
</trkpt>
<trkpt lat="32.595714569" lon="35.128253937">
  <ele>203.735596</ele>
  <time>2011-09-29T05:21:17Z</time>
  <speed>7.340000</speed>
</trkpt>
<trkpt lat="32.595649719" lon="35.128265381">
  <ele>203.485596</ele>
  <time>2011-09-29T05:21:18Z</time>
  <speed>6.810000</speed>
</trkpt>
<trkpt lat="32.595561981" lon="35.128261566">
  <ele>202.985596</ele>
  <time>2011-09-29T05:21:19Z</time>
  <speed>7.530000</speed>
</trkpt>
<trkpt lat="32.595462799" lon="35.128265381">
  <ele>203.376221</ele>
  <time>2011-09-29T05:21:20Z</time>
  <speed>7.460000</speed>
</trkpt>
<trkpt lat="32.595397949" lon="35.128253937">
  <ele>203.087158</ele>
  <time>2011-09-29T05:21:21Z</time>
  <speed>6.970000</speed>
</trkpt>
<trkpt lat="32.595336914" lon="35.128261566">
  <ele>202.844971</ele>
  <time>2011-09-29T05:21:22Z</time>
  <speed>7.170000</speed>
</trkpt>
<trkpt lat="32.595275879" lon="35.128265381">
  <ele>202.989502</ele>
  <time>2011-09-29T05:21:23Z</time>
  <speed>5.820000</speed>
</trkpt>
<trkpt lat="32.595222473" lon="35.128276825">
  <ele>203.071533</ele>
  <time>2011-09-29T05:21:24Z</time>
  <speed>4.800000</speed>
</trkpt>
<trkpt lat="32.595191956" lon="35.128288269">
  <ele>203.118408</ele>
  <time>2011-09-29T05:21:25Z</time>
  <speed>2.990000</speed>
</trkpt>
<trkpt lat="32.595153809" lon="35.128292084">
  <ele>203.376221</ele>
  <time>2011-09-29T05:21:26Z</time>
  <speed>1.740000</speed>
</trkpt>
<trkpt lat="32.595123291" lon="35.128307343">
  <ele>204.044189</ele>
  <time>2011-09-29T05:21:28Z</time>
  <speed>1.320000</speed>
</trkpt>
<trkpt lat="32.595104218" lon="35.128341675">
  <ele>203.876221</ele>
  <time>2011-09-29T05:21:31Z</time>
  <speed>0.950000</speed>
</trkpt>
<trkpt lat="32.595069885" lon="35.128372192">
  <ele>204.419189</ele>
  <time>2011-09-29T05:21:33Z</time>
  <speed>1.190000</speed>
</trkpt>
<trkpt lat="32.595035553" lon="35.128395081">
  <ele>204.927002</ele>
  <time>2011-09-29T05:21:34Z</time>
  <speed>1.490000</speed>
</trkpt>
<trkpt lat="32.594993591" lon="35.128425598">
  <ele>205.321533</ele>
  <time>2011-09-29T05:21:36Z</time>
  <speed>2.000000</speed>
</trkpt>
<trkpt lat="32.594966888" lon="35.128459930">
  <ele>205.223877</ele>
  <time>2011-09-29T05:21:38Z</time>
  <speed>2.180000</speed>
</trkpt>
<trkpt lat="32.594940186" lon="35.128490448">
  <ele>205.251221</ele>
  <time>2011-09-29T05:21:39Z</time>
  <speed>2.350000</speed>
</trkpt>
<trkpt lat="32.594913483" lon="35.128524780">
  <ele>205.184814</ele>
  <time>2011-09-29T05:21:41Z</time>
  <speed>1.560000</speed>
</trkpt>
<trkpt lat="32.594882965" lon="35.128551483">
  <ele>205.028564</ele>
  <time>2011-09-29T05:21:44Z</time>
  <speed>1.130000</speed>
</trkpt>
<trkpt lat="32.594860077" lon="35.128562927">
  <ele>204.493408</ele>
  <time>2011-09-29T05:21:46Z</time>
  <speed>1.510000</speed>
</trkpt>
<trkpt lat="32.594837189" lon="35.128589630">
  <ele>204.341064</ele>
  <time>2011-09-29T05:21:48Z</time>
  <speed>1.750000</speed>
</trkpt>
<trkpt lat="32.594806671" lon="35.128616333">
  <ele>204.485596</ele>
  <time>2011-09-29T05:21:50Z</time>
  <speed>1.180000</speed>
</trkpt>
<trkpt lat="32.594779968" lon="35.128654480">
  <ele>204.505127</ele>
  <time>2011-09-29T05:21:53Z</time>
  <speed>2.070000</speed>
</trkpt>
<trkpt lat="32.594757080" lon="35.128688812">
  <ele>204.356689</ele>
  <time>2011-09-29T05:21:55Z</time>
  <speed>1.030000</speed>
</trkpt>
<trkpt lat="32.594726563" lon="35.128711700">
  <ele>204.571533</ele>
  <time>2011-09-29T05:21:58Z</time>
  <speed>1.510000</speed>
</trkpt>
<trkpt lat="32.594707489" lon="35.128734589">
  <ele>204.630127</ele>
  <time>2011-09-29T05:22:00Z</time>
  <speed>1.250000</speed>
</trkpt>
<trkpt lat="32.594673157" lon="35.128765106">
  <ele>204.817627</ele>
  <time>2011-09-29T05:22:02Z</time>
  <speed>2.000000</speed>
</trkpt>
<trkpt lat="32.594650269" lon="35.128795624">
  <ele>205.149658</ele>
  <time>2011-09-29T05:22:04Z</time>
  <speed>1.530000</speed>
</trkpt>
<trkpt lat="32.594612122" lon="35.128826141">
  <ele>205.567627</ele>
  <time>2011-09-29T05:22:06Z</time>
  <speed>1.510000</speed>
</trkpt>
<trkpt lat="32.594600677" lon="35.128868103">
  <ele>205.618408</ele>
  <time>2011-09-29T05:22:09Z</time>
  <speed>1.290000</speed>
</trkpt>
<trkpt lat="32.594581604" lon="35.128894806">
  <ele>205.493408</ele>
  <time>2011-09-29T05:22:11Z</time>
  <speed>0.960000</speed>
</trkpt>
<trkpt lat="32.594562531" lon="35.128917694">
  <ele>205.817627</ele>
  <time>2011-09-29T05:22:13Z</time>
  <speed>1.240000</speed>
</trkpt>
<trkpt lat="32.594528198" lon="35.128929138">
  <ele>205.637939</ele>
  <time>2011-09-29T05:22:14Z</time>
  <speed>1.330000</speed>
</trkpt>
<trkpt lat="32.594486237" lon="35.128925323">
  <ele>206.208252</ele>
  <time>2011-09-29T05:22:16Z</time>
  <speed>1.310000</speed>
</trkpt>
<trkpt lat="32.594455719" lon="35.128917694">
  <ele>206.743408</ele>
  <time>2011-09-29T05:22:18Z</time>
  <speed>1.650000</speed>
</trkpt>
<trkpt lat="32.594429016" lon="35.128898621">
  <ele>207.716064</ele>
  <time>2011-09-29T05:22:21Z</time>
  <speed>1.180000</speed>
</trkpt>
<trkpt lat="32.594402313" lon="35.128868103">
  <ele>207.520752</ele>
  <time>2011-09-29T05:22:24Z</time>
  <speed>0.990000</speed>
</trkpt>
<trkpt lat="32.594406128" lon="35.128833771">
  <ele>208.809814</ele>
  <time>2011-09-29T05:22:26Z</time>
  <speed>0.870000</speed>
</trkpt>
<trkpt lat="32.594409943" lon="35.128799438">
  <ele>211.200439</ele>
  <time>2011-09-29T05:22:29Z</time>
  <speed>1.060000</speed>
</trkpt>
<trkpt lat="32.594409943" lon="35.128768921">
  <ele>211.825439</ele>
  <time>2011-09-29T05:22:32Z</time>
  <speed>0.870000</speed>
</trkpt>
<trkpt lat="32.594425201" lon="35.128734589">
  <ele>212.544189</ele>
  <time>2011-09-29T05:22:39Z</time>
  <speed>0.670000</speed>
</trkpt>
<trkpt lat="32.594436646" lon="35.128700256">
  <ele>212.544189</ele>
  <time>2011-09-29T05:22:44Z</time>
  <speed>0.780000</speed>
</trkpt>
<trkpt lat="32.594451904" lon="35.128646851">
  <ele>213.048096</ele>
  <time>2011-09-29T05:22:47Z</time>
  <speed>1.400000</speed>
</trkpt>
<trkpt lat="32.594478607" lon="35.128608704">
  <ele>213.219971</ele>
  <time>2011-09-29T05:22:49Z</time>
  <speed>1.410000</speed>
</trkpt>
<trkpt lat="32.594501495" lon="35.128566742">
  <ele>213.180908</ele>
  <time>2011-09-29T05:22:51Z</time>
  <speed>1.720000</speed>
</trkpt>
<trkpt lat="32.594520569" lon="35.128513336">
  <ele>213.255127</ele>
  <time>2011-09-29T05:22:53Z</time>
  <speed>1.870000</speed>
</trkpt>
<trkpt lat="32.594539642" lon="35.128471375">
  <ele>212.802002</ele>
  <time>2011-09-29T05:22:55Z</time>
  <speed>1.420000</speed>
</trkpt>
<trkpt lat="32.594543457" lon="35.128440857">
  <ele>214.130127</ele>
  <time>2011-09-29T05:22:57Z</time>
  <speed>0.830000</speed>
</trkpt>
<trkpt lat="32.594562531" lon="35.128398895">
  <ele>214.766846</ele>
  <time>2011-09-29T05:23:00Z</time>
  <speed>1.250000</speed>
</trkpt>
<trkpt lat="32.594600677" lon="35.128372192">
  <ele>215.262939</ele>
  <time>2011-09-29T05:23:02Z</time>
  <speed>1.150000</speed>
</trkpt>
<trkpt lat="32.594623566" lon="35.128337860">
  <ele>216.231689</ele>
  <time>2011-09-29T05:23:05Z</time>
  <speed>1.230000</speed>
</trkpt>
<trkpt lat="32.594615936" lon="35.128292084">
  <ele>216.380127</ele>
  <time>2011-09-29T05:23:07Z</time>
  <speed>1.400000</speed>
</trkpt>
<trkpt lat="32.594635010" lon="35.128261566">
  <ele>217.239502</ele>
  <time>2011-09-29T05:23:09Z</time>
  <speed>1.170000</speed>
</trkpt>
<trkpt lat="32.594646454" lon="35.128219604">
  <ele>217.567627</ele>
  <time>2011-09-29T05:23:11Z</time>
  <speed>1.310000</speed>
</trkpt>
<trkpt lat="32.594676971" lon="35.128192902">
  <ele>218.024658</ele>
  <time>2011-09-29T05:23:13Z</time>
  <speed>1.660000</speed>
</trkpt>
<trkpt lat="32.594699860" lon="35.128166199">
  <ele>218.290283</ele>
  <time>2011-09-29T05:23:15Z</time>
  <speed>0.830000</speed>
</trkpt>
<trkpt lat="32.594688416" lon="35.128124237">
  <ele>219.782471</ele>
  <time>2011-09-29T05:23:17Z</time>
  <speed>1.170000</speed>
</trkpt>
<trkpt lat="32.594699860" lon="35.128093719">
  <ele>220.216064</ele>
  <time>2011-09-29T05:23:19Z</time>
  <speed>1.000000</speed>
</trkpt>
<trkpt lat="32.594718933" lon="35.128059387">
  <ele>221.231689</ele>
  <time>2011-09-29T05:23:22Z</time>
  <speed>1.220000</speed>
</trkpt>
<trkpt lat="32.594718933" lon="35.128017426">
  <ele>221.360596</ele>
  <time>2011-09-29T05:23:24Z</time>
  <speed>1.300000</speed>
</trkpt>
<trkpt lat="32.594726563" lon="35.127986908">
  <ele>222.505127</ele>
  <time>2011-09-29T05:23:26Z</time>
  <speed>1.170000</speed>
</trkpt>
<trkpt lat="32.594745636" lon="35.127948761">
  <ele>222.512939</ele>
  <time>2011-09-29T05:23:28Z</time>
  <speed>1.300000</speed>
</trkpt>
<trkpt lat="32.594764709" lon="35.127914429">
  <ele>222.946533</ele>
  <time>2011-09-29T05:23:31Z</time>
  <speed>1.350000</speed>
</trkpt>
<trkpt lat="32.594791412" lon="35.127880096">
  <ele>222.477783</ele>
  <time>2011-09-29T05:23:33Z</time>
  <speed>1.750000</speed>
</trkpt>
<trkpt lat="32.594810486" lon="35.127838135">
  <ele>222.759033</ele>
  <time>2011-09-29T05:23:35Z</time>
  <speed>1.810000</speed>
</trkpt>
<trkpt lat="32.594844818" lon="35.127799988">
  <ele>222.579346</ele>
  <time>2011-09-29T05:23:37Z</time>
  <speed>2.660000</speed>
</trkpt>
<trkpt lat="32.594871521" lon="35.127754211">
  <ele>222.899658</ele>
  <time>2011-09-29T05:23:39Z</time>
  <speed>2.400000</speed>
</trkpt>
<trkpt lat="32.594898224" lon="35.127704620">
  <ele>222.403564</ele>
  <time>2011-09-29T05:23:41Z</time>
  <speed>2.540000</speed>
</trkpt>
<trkpt lat="32.594921112" lon="35.127655029">
  <ele>222.641846</ele>
  <time>2011-09-29T05:23:43Z</time>
  <speed>2.070000</speed>
</trkpt>
<trkpt lat="32.594944000" lon="35.127616882">
  <ele>222.637939</ele>
  <time>2011-09-29T05:23:45Z</time>
  <speed>1.770000</speed>
</trkpt>
<trkpt lat="32.594963074" lon="35.127574921">
  <ele>223.153564</ele>
  <time>2011-09-29T05:23:47Z</time>
  <speed>1.830000</speed>
</trkpt>
<trkpt lat="32.594978333" lon="35.127540588">
  <ele>223.489502</ele>
  <time>2011-09-29T05:23:49Z</time>
  <speed>1.490000</speed>
</trkpt>
<trkpt lat="32.594963074" lon="35.127502441">
  <ele>223.458252</ele>
  <time>2011-09-29T05:23:51Z</time>
  <speed>1.600000</speed>
</trkpt>
<trkpt lat="32.594955444" lon="35.127452850">
  <ele>223.989502</ele>
  <time>2011-09-29T05:23:52Z</time>
  <speed>1.590000</speed>
</trkpt>
<trkpt lat="32.594932556" lon="35.127414703">
  <ele>225.501221</ele>
  <time>2011-09-29T05:23:54Z</time>
  <speed>1.020000</speed>
</trkpt>
<trkpt lat="32.594928741" lon="35.127365112">
  <ele>225.641846</ele>
  <time>2011-09-29T05:23:56Z</time>
  <speed>1.430000</speed>
</trkpt>
<trkpt lat="32.594917297" lon="35.127330780">
  <ele>226.821533</ele>
  <time>2011-09-29T05:23:58Z</time>
  <speed>1.330000</speed>
</trkpt>
<trkpt lat="32.594905853" lon="35.127292633">
  <ele>227.192627</ele>
  <time>2011-09-29T05:24:00Z</time>
  <speed>1.450000</speed>
</trkpt>
<trkpt lat="32.594902039" lon="35.127262115">
  <ele>228.052002</ele>
  <time>2011-09-29T05:24:01Z</time>
  <speed>1.510000</speed>
</trkpt>
<trkpt lat="32.594905853" lon="35.127220154">
  <ele>227.630127</ele>
  <time>2011-09-29T05:24:03Z</time>
  <speed>1.650000</speed>
</trkpt>
<trkpt lat="32.594909668" lon="35.127166748">
  <ele>226.688721</ele>
  <time>2011-09-29T05:24:05Z</time>
  <speed>1.480000</speed>
</trkpt>
<trkpt lat="32.594909668" lon="35.127128601">
  <ele>226.501221</ele>
  <time>2011-09-29T05:24:07Z</time>
  <speed>1.240000</speed>
</trkpt>
<trkpt lat="32.594894409" lon="35.127094269">
  <ele>226.602783</ele>
  <time>2011-09-29T05:24:08Z</time>
  <speed>1.630000</speed>
</trkpt>
<trkpt lat="32.594898224" lon="35.127063751">
  <ele>226.411377</ele>
  <time>2011-09-29T05:24:10Z</time>
  <speed>1.380000</speed>
</trkpt>
<trkpt lat="32.594886780" lon="35.127033234">
  <ele>226.555908</ele>
  <time>2011-09-29T05:24:12Z</time>
  <speed>1.600000</speed>
</trkpt>
<trkpt lat="32.594875336" lon="35.126998901">
  <ele>226.739502</ele>
  <time>2011-09-29T05:24:14Z</time>
  <speed>2.010000</speed>
</trkpt>
<trkpt lat="32.594829559" lon="35.126968384">
  <ele>226.012939</ele>
  <time>2011-09-29T05:24:16Z</time>
  <speed>1.670000</speed>
</trkpt>
<trkpt lat="32.594791412" lon="35.126926422">
  <ele>225.762939</ele>
  <time>2011-09-29T05:24:19Z</time>
  <speed>1.750000</speed>
</trkpt>
<trkpt lat="32.594768524" lon="35.126907349">
  <ele>225.544189</ele>
  <time>2011-09-29T05:24:21Z</time>
  <speed>1.680000</speed>
</trkpt>
<trkpt lat="32.594730377" lon="35.126892090">
  <ele>225.344971</ele>
  <time>2011-09-29T05:24:23Z</time>
  <speed>1.660000</speed>
</trkpt>
<trkpt lat="32.594703674" lon="35.126876831">
  <ele>225.458252</ele>
  <time>2011-09-29T05:24:26Z</time>
  <speed>1.460000</speed>
</trkpt>
<trkpt lat="32.594673157" lon="35.126846313">
  <ele>225.708252</ele>
  <time>2011-09-29T05:24:29Z</time>
  <speed>1.520000</speed>
</trkpt>
<trkpt lat="32.594627380" lon="35.126823425">
  <ele>225.669189</ele>
  <time>2011-09-29T05:24:31Z</time>
  <speed>2.170000</speed>
</trkpt>
<trkpt lat="32.594600677" lon="35.126815796">
  <ele>225.212158</ele>
  <time>2011-09-29T05:24:32Z</time>
  <speed>2.680000</speed>
</trkpt>
<trkpt lat="32.594562531" lon="35.126796722">
  <ele>225.036377</ele>
  <time>2011-09-29T05:24:33Z</time>
  <speed>3.330000</speed>
</trkpt>
<trkpt lat="32.594532013" lon="35.126792908">
  <ele>224.704346</ele>
  <time>2011-09-29T05:24:34Z</time>
  <speed>3.290000</speed>
</trkpt>
<trkpt lat="32.594497681" lon="35.126792908">
  <ele>224.329346</ele>
  <time>2011-09-29T05:24:35Z</time>
  <speed>3.960000</speed>
</trkpt>
<trkpt lat="32.594463348" lon="35.126796722">
  <ele>224.083252</ele>
  <time>2011-09-29T05:24:36Z</time>
  <speed>3.680000</speed>
</trkpt>
<trkpt lat="32.594425201" lon="35.126796722">
  <ele>224.169189</ele>
  <time>2011-09-29T05:24:37Z</time>
  <speed>3.880000</speed>
</trkpt>
<trkpt lat="32.594390869" lon="35.126800537">
  <ele>224.036377</ele>
  <time>2011-09-29T05:24:38Z</time>
  <speed>4.070000</speed>
</trkpt>
<trkpt lat="32.594352722" lon="35.126804352">
  <ele>223.700439</ele>
  <time>2011-09-29T05:24:39Z</time>
  <speed>4.180000</speed>
</trkpt>
<trkpt lat="32.594314575" lon="35.126808167">
  <ele>223.802002</ele>
  <time>2011-09-29T05:24:40Z</time>
  <speed>4.010000</speed>
</trkpt>
<trkpt lat="32.594280243" lon="35.126815796">
  <ele>223.489502</ele>
  <time>2011-09-29T05:24:41Z</time>
  <speed>3.870000</speed>
</trkpt>
<trkpt lat="32.594249725" lon="35.126823425">
  <ele>223.665283</ele>
  <time>2011-09-29T05:24:42Z</time>
  <speed>3.680000</speed>
</trkpt>
<trkpt lat="32.594203949" lon="35.126827240">
  <ele>223.665283</ele>
  <time>2011-09-29T05:24:43Z</time>
  <speed>3.850000</speed>
</trkpt>
<trkpt lat="32.594169617" lon="35.126842499">
  <ele>224.040283</ele>
  <time>2011-09-29T05:24:44Z</time>
  <speed>4.350000</speed>
</trkpt>
<trkpt lat="32.594131470" lon="35.126853943">
  <ele>223.555908</ele>
  <time>2011-09-29T05:24:45Z</time>
  <speed>4.580000</speed>
</trkpt>
<trkpt lat="32.594085693" lon="35.126857758">
  <ele>223.598877</ele>
  <time>2011-09-29T05:24:46Z</time>
  <speed>4.640000</speed>
</trkpt>
<trkpt lat="32.594058990" lon="35.126869202">
  <ele>223.411377</ele>
  <time>2011-09-29T05:24:47Z</time>
  <speed>4.470000</speed>
</trkpt>
<trkpt lat="32.594017029" lon="35.126884460">
  <ele>223.079346</ele>
  <time>2011-09-29T05:24:48Z</time>
  <speed>4.620000</speed>
</trkpt>
<trkpt lat="32.593971252" lon="35.126895905">
  <ele>223.052002</ele>
  <time>2011-09-29T05:24:49Z</time>
  <speed>4.700000</speed>
</trkpt>
<trkpt lat="32.593936920" lon="35.126907349">
  <ele>222.891846</ele>
  <time>2011-09-29T05:24:50Z</time>
  <speed>4.570000</speed>
</trkpt>
<trkpt lat="32.593898773" lon="35.126926422">
  <ele>222.962158</ele>
  <time>2011-09-29T05:24:51Z</time>
  <speed>4.270000</speed>
</trkpt>
<trkpt lat="32.593872070" lon="35.126934052">
  <ele>222.602783</ele>
  <time>2011-09-29T05:24:52Z</time>
  <speed>4.410000</speed>
</trkpt>
<trkpt lat="32.593845367" lon="35.126945496">
  <ele>223.352783</ele>
  <time>2011-09-29T05:24:53Z</time>
  <speed>3.840000</speed>
</trkpt>
<trkpt lat="32.593811035" lon="35.126960754">
  <ele>223.712158</ele>
  <time>2011-09-29T05:24:54Z</time>
  <speed>3.420000</speed>
</trkpt>
<trkpt lat="32.593788147" lon="35.126979828">
  <ele>224.161377</ele>
  <time>2011-09-29T05:24:55Z</time>
  <speed>3.220000</speed>
</trkpt>
<trkpt lat="32.593753815" lon="35.126987457">
  <ele>224.786377</ele>
  <time>2011-09-29T05:24:56Z</time>
  <speed>3.210000</speed>
</trkpt>
<trkpt lat="32.593719482" lon="35.127002716">
  <ele>224.411377</ele>
  <time>2011-09-29T05:24:57Z</time>
  <speed>3.110000</speed>
</trkpt>
<trkpt lat="32.593692780" lon="35.127014160">
  <ele>224.231689</ele>
  <time>2011-09-29T05:24:58Z</time>
  <speed>3.070000</speed>
</trkpt>
<trkpt lat="32.593647003" lon="35.127040863">
  <ele>224.727783</ele>
  <time>2011-09-29T05:25:00Z</time>
  <speed>2.180000</speed>
</trkpt>
<trkpt lat="32.593616486" lon="35.127067566">
  <ele>224.653564</ele>
  <time>2011-09-29T05:25:02Z</time>
  <speed>1.570000</speed>
</trkpt>
<trkpt lat="32.593589783" lon="35.127075195">
  <ele>224.583252</ele>
  <time>2011-09-29T05:25:03Z</time>
  <speed>1.970000</speed>
</trkpt>
<trkpt lat="32.593563080" lon="35.127101898">
  <ele>224.469971</ele>
  <time>2011-09-29T05:25:05Z</time>
  <speed>1.650000</speed>
</trkpt>
<trkpt lat="32.593524933" lon="35.127117157">
  <ele>224.126221</ele>
  <time>2011-09-29T05:25:07Z</time>
  <speed>1.680000</speed>
</trkpt>
<trkpt lat="32.593498230" lon="35.127140045">
  <ele>223.384033</ele>
  <time>2011-09-29T05:25:10Z</time>
  <speed>1.180000</speed>
</trkpt>
<trkpt lat="32.593498230" lon="35.127174377">
  <ele>222.833252</ele>
  <time>2011-09-29T05:25:12Z</time>
  <speed>1.240000</speed>
</trkpt>
<trkpt lat="32.593463898" lon="35.127197266">
  <ele>222.255127</ele>
  <time>2011-09-29T05:25:14Z</time>
  <speed>1.490000</speed>
</trkpt>
<trkpt lat="32.593425751" lon="35.127216339">
  <ele>221.911377</ele>
  <time>2011-09-29T05:25:16Z</time>
  <speed>1.590000</speed>
</trkpt>
<trkpt lat="32.593399048" lon="35.127227783">
  <ele>221.528564</ele>
  <time>2011-09-29T05:25:18Z</time>
  <speed>1.150000</speed>
</trkpt>
<trkpt lat="32.593353271" lon="35.127243042">
  <ele>220.770752</ele>
  <time>2011-09-29T05:25:20Z</time>
  <speed>1.770000</speed>
</trkpt>
<trkpt lat="32.593322754" lon="35.127254486">
  <ele>220.567627</ele>
  <time>2011-09-29T05:25:22Z</time>
  <speed>1.300000</speed>
</trkpt>
<trkpt lat="32.593296051" lon="35.127277374">
  <ele>220.032471</ele>
  <time>2011-09-29T05:25:24Z</time>
  <speed>1.440000</speed>
</trkpt>
<trkpt lat="32.593257904" lon="35.127288818">
  <ele>219.395752</ele>
  <time>2011-09-29T05:25:27Z</time>
  <speed>1.710000</speed>
</trkpt>
<trkpt lat="32.593227386" lon="35.127319336">
  <ele>219.219971</ele>
  <time>2011-09-29T05:25:28Z</time>
  <speed>1.940000</speed>
</trkpt>
<trkpt lat="32.593166351" lon="35.127346039">
  <ele>218.337158</ele>
  <time>2011-09-29T05:25:30Z</time>
  <speed>1.440000</speed>
</trkpt>
<trkpt lat="32.593139648" lon="35.127365112">
  <ele>217.923096</ele>
  <time>2011-09-29T05:25:32Z</time>
  <speed>1.710000</speed>
</trkpt>
<trkpt lat="32.593116760" lon="35.127391815">
  <ele>216.505127</ele>
  <time>2011-09-29T05:25:35Z</time>
  <speed>1.840000</speed>
</trkpt>
<trkpt lat="32.593074799" lon="35.127414703">
  <ele>215.911377</ele>
  <time>2011-09-29T05:25:37Z</time>
  <speed>2.040000</speed>
</trkpt>
<trkpt lat="32.593044281" lon="35.127429962">
  <ele>215.321533</ele>
  <time>2011-09-29T05:25:39Z</time>
  <speed>1.600000</speed>
</trkpt>
<trkpt lat="32.593013763" lon="35.127456665">
  <ele>214.614502</ele>
  <time>2011-09-29T05:25:42Z</time>
  <speed>1.740000</speed>
</trkpt>
<trkpt lat="32.592975616" lon="35.127483368">
  <ele>214.469971</ele>
  <time>2011-09-29T05:25:44Z</time>
  <speed>1.690000</speed>
</trkpt>
<trkpt lat="32.592945099" lon="35.127510071">
  <ele>214.153564</ele>
  <time>2011-09-29T05:25:46Z</time>
  <speed>1.910000</speed>
</trkpt>
<trkpt lat="32.592918396" lon="35.127540588">
  <ele>213.544189</ele>
  <time>2011-09-29T05:25:48Z</time>
  <speed>1.930000</speed>
</trkpt>
<trkpt lat="32.592899323" lon="35.127567291">
  <ele>213.106689</ele>
  <time>2011-09-29T05:25:50Z</time>
  <speed>1.750000</speed>
</trkpt>
<trkpt lat="32.592857361" lon="35.127571106">
  <ele>212.735596</ele>
  <time>2011-09-29T05:25:51Z</time>
  <speed>2.070000</speed>
</trkpt>
<trkpt lat="32.592823029" lon="35.127601624">
  <ele>212.473877</ele>
  <time>2011-09-29T05:25:53Z</time>
  <speed>2.100000</speed>
</trkpt>
<trkpt lat="32.592800140" lon="35.127624512">
  <ele>212.012939</ele>
  <time>2011-09-29T05:25:55Z</time>
  <speed>1.540000</speed>
</trkpt>
<trkpt lat="32.592758179" lon="35.127655029">
  <ele>211.247314</ele>
  <time>2011-09-29T05:25:58Z</time>
  <speed>2.150000</speed>
</trkpt>
<trkpt lat="32.592742920" lon="35.127681732">
  <ele>211.094971</ele>
  <time>2011-09-29T05:26:00Z</time>
  <speed>1.500000</speed>
</trkpt>
<trkpt lat="32.592708588" lon="35.127693176">
  <ele>211.602783</ele>
  <time>2011-09-29T05:26:02Z</time>
  <speed>1.390000</speed>
</trkpt>
<trkpt lat="32.592704773" lon="35.127704620">
  <ele>214.630127</ele>
  <time>2011-09-29T05:26:04Z</time>
  <speed>1.820000</speed>
</trkpt>
<trkpt lat="32.592693329" lon="35.127738953">
  <ele>214.325439</ele>
  <time>2011-09-29T05:26:06Z</time>
  <speed>2.020000</speed>
</trkpt>
<trkpt lat="32.592666626" lon="35.127765656">
  <ele>214.555908</ele>
  <time>2011-09-29T05:26:08Z</time>
  <speed>1.930000</speed>
</trkpt>
<trkpt lat="32.592632294" lon="35.127799988">
  <ele>214.665283</ele>
  <time>2011-09-29T05:26:10Z</time>
  <speed>1.630000</speed>
</trkpt>
<trkpt lat="32.592617035" lon="35.127826691">
  <ele>214.887939</ele>
  <time>2011-09-29T05:26:12Z</time>
  <speed>1.690000</speed>
</trkpt>
<trkpt lat="32.592590332" lon="35.127841949">
  <ele>214.524658</ele>
  <time>2011-09-29T05:26:14Z</time>
  <speed>1.610000</speed>
</trkpt>
<trkpt lat="32.592575073" lon="35.127876282">
  <ele>214.774658</ele>
  <time>2011-09-29T05:26:16Z</time>
  <speed>1.670000</speed>
</trkpt>
<trkpt lat="32.592590332" lon="35.127872467">
  <ele>219.442627</ele>
  <time>2011-09-29T05:26:17Z</time>
  <speed>1.560000</speed>
</trkpt>
<trkpt lat="32.592582703" lon="35.127883911">
  <ele>222.462158</ele>
  <time>2011-09-29T05:26:19Z</time>
  <speed>1.230000</speed>
</trkpt>
<trkpt lat="32.592594147" lon="35.127895355">
  <ele>224.958252</ele>
  <time>2011-09-29T05:26:31Z</time>
  <speed>0.050000</speed>
</trkpt>
<trkpt lat="32.592617035" lon="35.127899170">
  <ele>226.477783</ele>
  <time>2011-09-29T05:27:05Z</time>
  <speed>0.030000</speed>
</trkpt>
<trkpt lat="32.592628479" lon="35.127872467">
  <ele>228.145752</ele>
  <time>2011-09-29T05:27:22Z</time>
</trkpt>
<trkpt lat="32.592624664" lon="35.127834320">
  <ele>227.868408</ele>
  <time>2011-09-29T05:27:34Z</time>
</trkpt>
<trkpt lat="32.592605591" lon="35.127864838">
  <ele>228.075439</ele>
  <time>2011-09-29T05:27:45Z</time>
</trkpt>
<trkpt lat="32.592632294" lon="35.127876282">
  <ele>228.923096</ele>
  <time>2011-09-29T05:28:17Z</time>
  <speed>0.060000</speed>
</trkpt>
<trkpt lat="32.592639923" lon="35.127891541">
  <ele>231.692627</ele>
  <time>2011-09-29T05:28:38Z</time>
  <speed>0.810000</speed>
</trkpt>
<trkpt lat="32.592617035" lon="35.127925873">
  <ele>232.501221</ele>
  <time>2011-09-29T05:28:41Z</time>
  <speed>1.080000</speed>
</trkpt>
<trkpt lat="32.592601776" lon="35.127952576">
  <ele>233.188721</ele>
  <time>2011-09-29T05:28:43Z</time>
  <speed>1.340000</speed>
</trkpt>
<trkpt lat="32.592575073" lon="35.127994537">
  <ele>232.860596</ele>
  <time>2011-09-29T05:28:45Z</time>
  <speed>1.860000</speed>
</trkpt>
<trkpt lat="32.592556000" lon="35.128028870">
  <ele>233.579346</ele>
  <time>2011-09-29T05:28:47Z</time>
  <speed>1.980000</speed>
</trkpt>
<trkpt lat="32.592536926" lon="35.128055573">
  <ele>233.114502</ele>
  <time>2011-09-29T05:28:48Z</time>
  <speed>2.020000</speed>
</trkpt>
<trkpt lat="32.592521667" lon="35.128082275">
  <ele>232.466064</ele>
  <time>2011-09-29T05:28:49Z</time>
  <speed>1.750000</speed>
</trkpt>
<trkpt lat="32.592502594" lon="35.128124237">
  <ele>232.251221</ele>
  <time>2011-09-29T05:28:51Z</time>
  <speed>1.790000</speed>
</trkpt>
<trkpt lat="32.592479706" lon="35.128154755">
  <ele>232.071533</ele>
  <time>2011-09-29T05:28:53Z</time>
  <speed>1.810000</speed>
</trkpt>
<trkpt lat="32.592456818" lon="35.128192902">
  <ele>232.231689</ele>
  <time>2011-09-29T05:28:55Z</time>
  <speed>1.790000</speed>
</trkpt>
<trkpt lat="32.592449188" lon="35.128231049">
  <ele>232.567627</ele>
  <time>2011-09-29T05:28:57Z</time>
  <speed>1.870000</speed>
</trkpt>
<trkpt lat="32.592426300" lon="35.128269196">
  <ele>232.458252</ele>
  <time>2011-09-29T05:28:59Z</time>
  <speed>1.960000</speed>
</trkpt>
<trkpt lat="32.592395782" lon="35.128295898">
  <ele>232.438721</ele>
  <time>2011-09-29T05:29:01Z</time>
  <speed>2.350000</speed>
</trkpt>
<trkpt lat="32.592365265" lon="35.128345490">
  <ele>232.387939</ele>
  <time>2011-09-29T05:29:03Z</time>
  <speed>2.700000</speed>
</trkpt>
<trkpt lat="32.592334747" lon="35.128395081">
  <ele>231.860596</ele>
  <time>2011-09-29T05:29:05Z</time>
  <speed>2.950000</speed>
</trkpt>
<trkpt lat="32.592308044" lon="35.128421783">
  <ele>231.251221</ele>
  <time>2011-09-29T05:29:06Z</time>
  <speed>3.800000</speed>
</trkpt>
<trkpt lat="32.592288971" lon="35.128463745">
  <ele>230.735596</ele>
  <time>2011-09-29T05:29:07Z</time>
  <speed>4.250000</speed>
</trkpt>
<trkpt lat="32.592262268" lon="35.128501892">
  <ele>230.067627</ele>
  <time>2011-09-29T05:29:08Z</time>
  <speed>4.540000</speed>
</trkpt>
<trkpt lat="32.592227936" lon="35.128547668">
  <ele>229.544189</ele>
  <time>2011-09-29T05:29:09Z</time>
  <speed>5.470000</speed>
</trkpt>
<trkpt lat="32.592178345" lon="35.128593445">
  <ele>229.497314</ele>
  <time>2011-09-29T05:29:10Z</time>
  <speed>5.760000</speed>
</trkpt>
<trkpt lat="32.592147827" lon="35.128646851">
  <ele>229.571533</ele>
  <time>2011-09-29T05:29:11Z</time>
  <speed>5.850000</speed>
</trkpt>
<trkpt lat="32.592117310" lon="35.128692627">
  <ele>229.954346</ele>
  <time>2011-09-29T05:29:12Z</time>
  <speed>5.390000</speed>
</trkpt>
<trkpt lat="32.592090607" lon="35.128753662">
  <ele>230.614502</ele>
  <time>2011-09-29T05:29:13Z</time>
  <speed>6.130000</speed>
</trkpt>
<trkpt lat="32.592052460" lon="35.128814697">
  <ele>230.634033</ele>
  <time>2011-09-29T05:29:14Z</time>
  <speed>5.990000</speed>
</trkpt>
<trkpt lat="32.592025757" lon="35.128868103">
  <ele>230.618408</ele>
  <time>2011-09-29T05:29:15Z</time>
  <speed>5.810000</speed>
</trkpt>
<trkpt lat="32.592006683" lon="35.128929138">
  <ele>230.919189</ele>
  <time>2011-09-29T05:29:16Z</time>
  <speed>5.210000</speed>
</trkpt>
<trkpt lat="32.591983795" lon="35.128978729">
  <ele>230.606689</ele>
  <time>2011-09-29T05:29:17Z</time>
  <speed>4.640000</speed>
</trkpt>
<trkpt lat="32.591972351" lon="35.129028320">
  <ele>230.282471</ele>
  <time>2011-09-29T05:29:18Z</time>
  <speed>4.120000</speed>
</trkpt>
<trkpt lat="32.591957092" lon="35.129066467">
  <ele>229.622314</ele>
  <time>2011-09-29T05:29:19Z</time>
  <speed>3.730000</speed>
</trkpt>
<trkpt lat="32.591941833" lon="35.129100800">
  <ele>229.450439</ele>
  <time>2011-09-29T05:29:20Z</time>
  <speed>3.330000</speed>
</trkpt>
<trkpt lat="32.591926575" lon="35.129135132">
  <ele>229.036377</ele>
  <time>2011-09-29T05:29:21Z</time>
  <speed>3.260000</speed>
</trkpt>
<trkpt lat="32.591903687" lon="35.129180908">
  <ele>229.403564</ele>
  <time>2011-09-29T05:29:22Z</time>
  <speed>3.180000</speed>
</trkpt>
<trkpt lat="32.591911316" lon="35.129222870">
  <ele>229.372314</ele>
  <time>2011-09-29T05:29:23Z</time>
  <speed>2.920000</speed>
</trkpt>
<trkpt lat="32.591888428" lon="35.129268646">
  <ele>229.141846</ele>
  <time>2011-09-29T05:29:25Z</time>
  <speed>2.500000</speed>
</trkpt>
<trkpt lat="32.591835022" lon="35.129295349">
  <ele>228.630127</ele>
  <time>2011-09-29T05:29:27Z</time>
  <speed>2.850000</speed>
</trkpt>
<trkpt lat="32.591804504" lon="35.129314423">
  <ele>228.723877</ele>
  <time>2011-09-29T05:29:28Z</time>
  <speed>2.360000</speed>
</trkpt>
<trkpt lat="32.591773987" lon="35.129341125">
  <ele>228.192627</ele>
  <time>2011-09-29T05:29:31Z</time>
  <speed>1.290000</speed>
</trkpt>
<trkpt lat="32.591747284" lon="35.129371643">
  <ele>228.110596</ele>
  <time>2011-09-29T05:29:34Z</time>
  <speed>1.220000</speed>
</trkpt>
<trkpt lat="32.591773987" lon="35.129394531">
  <ele>227.497314</ele>
  <time>2011-09-29T05:29:38Z</time>
  <speed>0.860000</speed>
</trkpt>
<trkpt lat="32.591781616" lon="35.129352570">
  <ele>227.196533</ele>
  <time>2011-09-29T05:29:42Z</time>
  <speed>1.000000</speed>
</trkpt>
<trkpt lat="32.591762543" lon="35.129287720">
  <ele>227.380127</ele>
  <time>2011-09-29T05:29:44Z</time>
  <speed>1.860000</speed>
</trkpt>
<trkpt lat="32.591758728" lon="35.129257202">
  <ele>227.356689</ele>
  <time>2011-09-29T05:29:45Z</time>
  <speed>2.350000</speed>
</trkpt>
<trkpt lat="32.591762543" lon="35.129203796">
  <ele>226.552002</ele>
  <time>2011-09-29T05:29:47Z</time>
  <speed>1.890000</speed>
</trkpt>
<trkpt lat="32.591762543" lon="35.129158020">
  <ele>226.442627</ele>
  <time>2011-09-29T05:29:49Z</time>
  <speed>1.670000</speed>
</trkpt>
<trkpt lat="32.591751099" lon="35.129127502">
  <ele>227.208252</ele>
  <time>2011-09-29T05:29:50Z</time>
  <speed>1.820000</speed>
</trkpt>
<trkpt lat="32.591754913" lon="35.129096985">
  <ele>227.950439</ele>
  <time>2011-09-29T05:29:51Z</time>
  <speed>2.140000</speed>
</trkpt>
<trkpt lat="32.591754913" lon="35.129051208">
  <ele>227.993408</ele>
  <time>2011-09-29T05:29:53Z</time>
  <speed>2.040000</speed>
</trkpt>
<trkpt lat="32.591766357" lon="35.129005432">
  <ele>227.969971</ele>
  <time>2011-09-29T05:29:55Z</time>
  <speed>1.920000</speed>
</trkpt>
<trkpt lat="32.591770172" lon="35.128963470">
  <ele>227.505127</ele>
  <time>2011-09-29T05:29:57Z</time>
  <speed>2.230000</speed>
</trkpt>
<trkpt lat="32.591766357" lon="35.128906250">
  <ele>226.762939</ele>
  <time>2011-09-29T05:29:59Z</time>
  <speed>2.690000</speed>
</trkpt>
<trkpt lat="32.591770172" lon="35.128864288">
  <ele>226.684814</ele>
  <time>2011-09-29T05:30:00Z</time>
  <speed>2.800000</speed>
</trkpt>
<trkpt lat="32.591762543" lon="35.128829956">
  <ele>225.817627</ele>
  <time>2011-09-29T05:30:01Z</time>
  <speed>2.610000</speed>
</trkpt>
<trkpt lat="32.591785431" lon="35.128776550">
  <ele>225.325439</ele>
  <time>2011-09-29T05:30:03Z</time>
  <speed>2.850000</speed>
</trkpt>
<trkpt lat="32.591785431" lon="35.128742218">
  <ele>225.153564</ele>
  <time>2011-09-29T05:30:04Z</time>
  <speed>3.050000</speed>
</trkpt>
<trkpt lat="32.591781616" lon="35.128696442">
  <ele>224.985596</ele>
  <time>2011-09-29T05:30:05Z</time>
  <speed>3.910000</speed>
</trkpt>
<trkpt lat="32.591777802" lon="35.128650665">
  <ele>224.993408</ele>
  <time>2011-09-29T05:30:06Z</time>
  <speed>3.830000</speed>
</trkpt>
<trkpt lat="32.591773987" lon="35.128604889">
  <ele>224.805908</ele>
  <time>2011-09-29T05:30:07Z</time>
  <speed>3.390000</speed>
</trkpt>
<trkpt lat="32.591777802" lon="35.128562927">
  <ele>225.024658</ele>
  <time>2011-09-29T05:30:08Z</time>
  <speed>3.110000</speed>
</trkpt>
<trkpt lat="32.591773987" lon="35.128517151">
  <ele>225.114502</ele>
  <time>2011-09-29T05:30:09Z</time>
  <speed>3.350000</speed>
</trkpt>
<trkpt lat="32.591773987" lon="35.128479004">
  <ele>224.864502</ele>
  <time>2011-09-29T05:30:10Z</time>
  <speed>3.230000</speed>
</trkpt>
<trkpt lat="32.591777802" lon="35.128440857">
  <ele>224.501221</ele>
  <time>2011-09-29T05:30:11Z</time>
  <speed>3.110000</speed>
</trkpt>
<trkpt lat="32.591762543" lon="35.128402710">
  <ele>224.430908</ele>
  <time>2011-09-29T05:30:12Z</time>
  <speed>3.000000</speed>
</trkpt>
<trkpt lat="32.591762543" lon="35.128368378">
  <ele>224.473877</ele>
  <time>2011-09-29T05:30:13Z</time>
  <speed>2.610000</speed>
</trkpt>
<trkpt lat="32.591762543" lon="35.128330231">
  <ele>224.368408</ele>
  <time>2011-09-29T05:30:14Z</time>
  <speed>2.990000</speed>
</trkpt>
<trkpt lat="32.591743469" lon="35.128295898">
  <ele>224.208252</ele>
  <time>2011-09-29T05:30:15Z</time>
  <speed>2.700000</speed>
</trkpt>
<trkpt lat="32.591732025" lon="35.128265381">
  <ele>224.282471</ele>
  <time>2011-09-29T05:30:16Z</time>
  <speed>2.590000</speed>
</trkpt>
<trkpt lat="32.591716766" lon="35.128219604">
  <ele>223.864502</ele>
  <time>2011-09-29T05:30:17Z</time>
  <speed>3.080000</speed>
</trkpt>
<trkpt lat="32.591701508" lon="35.128185272">
  <ele>223.618408</ele>
  <time>2011-09-29T05:30:18Z</time>
  <speed>2.600000</speed>
</trkpt>
<trkpt lat="32.591667175" lon="35.128124237">
  <ele>223.641846</ele>
  <time>2011-09-29T05:30:20Z</time>
  <speed>2.580000</speed>
</trkpt>
<trkpt lat="32.591655731" lon="35.128093719">
  <ele>223.341064</ele>
  <time>2011-09-29T05:30:21Z</time>
  <speed>2.010000</speed>
</trkpt>
<trkpt lat="32.591617584" lon="35.128040314">
  <ele>222.567627</ele>
  <time>2011-09-29T05:30:23Z</time>
  <speed>2.210000</speed>
</trkpt>
<trkpt lat="32.591587067" lon="35.128002167">
  <ele>222.149658</ele>
  <time>2011-09-29T05:30:25Z</time>
  <speed>2.080000</speed>
</trkpt>
<trkpt lat="32.591564178" lon="35.127975464">
  <ele>221.637939</ele>
  <time>2011-09-29T05:30:26Z</time>
  <speed>1.860000</speed>
</trkpt>
<trkpt lat="32.591526031" lon="35.127944946">
  <ele>221.165283</ele>
  <time>2011-09-29T05:30:28Z</time>
  <speed>2.390000</speed>
</trkpt>
<trkpt lat="32.591495514" lon="35.127918243">
  <ele>221.102783</ele>
  <time>2011-09-29T05:30:30Z</time>
  <speed>1.900000</speed>
</trkpt>
<trkpt lat="32.591464996" lon="35.127891541">
  <ele>220.399658</ele>
  <time>2011-09-29T05:30:32Z</time>
  <speed>1.770000</speed>
</trkpt>
<trkpt lat="32.591430664" lon="35.127868652">
  <ele>220.427002</ele>
  <time>2011-09-29T05:30:34Z</time>
  <speed>1.730000</speed>
</trkpt>
<trkpt lat="32.591384888" lon="35.127857208">
  <ele>219.692627</ele>
  <time>2011-09-29T05:30:36Z</time>
  <speed>1.810000</speed>
</trkpt>
<trkpt lat="32.591335297" lon="35.127830505">
  <ele>220.157471</ele>
  <time>2011-09-29T05:30:38Z</time>
  <speed>2.250000</speed>
</trkpt>
<trkpt lat="32.591297150" lon="35.127799988">
  <ele>219.184814</ele>
  <time>2011-09-29T05:30:40Z</time>
  <speed>2.030000</speed>
</trkpt>
<trkpt lat="32.591262817" lon="35.127780914">
  <ele>219.282471</ele>
  <time>2011-09-29T05:30:42Z</time>
  <speed>1.960000</speed>
</trkpt>
<trkpt lat="32.591224670" lon="35.127765656">
  <ele>218.368408</ele>
  <time>2011-09-29T05:30:44Z</time>
  <speed>2.320000</speed>
</trkpt>
<trkpt lat="32.591175079" lon="35.127746582">
  <ele>218.516846</ele>
  <time>2011-09-29T05:30:46Z</time>
  <speed>2.130000</speed>
</trkpt>
<trkpt lat="32.591129303" lon="35.127742767">
  <ele>217.567627</ele>
  <time>2011-09-29T05:30:48Z</time>
  <speed>2.270000</speed>
</trkpt>
<trkpt lat="32.591087341" lon="35.127731323">
  <ele>217.223877</ele>
  <time>2011-09-29T05:30:50Z</time>
  <speed>1.680000</speed>
</trkpt>
<trkpt lat="32.591045380" lon="35.127738953">
  <ele>218.649658</ele>
  <time>2011-09-29T05:30:52Z</time>
  <speed>1.840000</speed>
</trkpt>
<trkpt lat="32.591007233" lon="35.127746582">
  <ele>219.216064</ele>
  <time>2011-09-29T05:30:54Z</time>
  <speed>2.050000</speed>
</trkpt>
<trkpt lat="32.590969086" lon="35.127750397">
  <ele>218.755127</ele>
  <time>2011-09-29T05:30:57Z</time>
  <speed>1.670000</speed>
</trkpt>
<trkpt lat="32.590938568" lon="35.127761841">
  <ele>218.083252</ele>
  <time>2011-09-29T05:30:59Z</time>
  <speed>1.860000</speed>
</trkpt>
<trkpt lat="32.590904236" lon="35.127769470">
  <ele>217.821533</ele>
  <time>2011-09-29T05:31:01Z</time>
  <speed>1.620000</speed>
</trkpt>
<trkpt lat="32.590873718" lon="35.127780914">
  <ele>216.973877</ele>
  <time>2011-09-29T05:31:04Z</time>
  <speed>1.470000</speed>
</trkpt>
<trkpt lat="32.590850830" lon="35.127796173">
  <ele>215.985596</ele>
  <time>2011-09-29T05:31:06Z</time>
  <speed>1.530000</speed>
</trkpt>
<trkpt lat="32.590816498" lon="35.127815247">
  <ele>215.817627</ele>
  <time>2011-09-29T05:31:09Z</time>
  <speed>1.540000</speed>
</trkpt>
<trkpt lat="32.590785980" lon="35.127826691">
  <ele>216.415283</ele>
  <time>2011-09-29T05:31:10Z</time>
  <speed>1.750000</speed>
</trkpt>
<trkpt lat="32.590755463" lon="35.127841949">
  <ele>216.235596</ele>
  <time>2011-09-29T05:31:12Z</time>
  <speed>1.650000</speed>
</trkpt>
<trkpt lat="32.590724945" lon="35.127864838">
  <ele>216.403564</ele>
  <time>2011-09-29T05:31:14Z</time>
  <speed>1.480000</speed>
</trkpt>
<trkpt lat="32.590694427" lon="35.127891541">
  <ele>216.516846</ele>
  <time>2011-09-29T05:31:17Z</time>
  <speed>1.110000</speed>
</trkpt>
<trkpt lat="32.590671539" lon="35.127910614">
  <ele>216.091064</ele>
  <time>2011-09-29T05:31:19Z</time>
  <speed>1.700000</speed>
</trkpt>
<trkpt lat="32.590644836" lon="35.127925873">
  <ele>215.938721</ele>
  <time>2011-09-29T05:31:21Z</time>
  <speed>1.360000</speed>
</trkpt>
<trkpt lat="32.590614319" lon="35.127925873">
  <ele>215.716064</ele>
  <time>2011-09-29T05:31:23Z</time>
  <speed>1.570000</speed>
</trkpt>
<trkpt lat="32.590583801" lon="35.127937317">
  <ele>215.614502</ele>
  <time>2011-09-29T05:31:25Z</time>
  <speed>1.320000</speed>
</trkpt>
<trkpt lat="32.590549469" lon="35.127956390">
  <ele>215.063721</ele>
  <time>2011-09-29T05:31:27Z</time>
  <speed>1.300000</speed>
</trkpt>
<trkpt lat="32.590522766" lon="35.127964020">
  <ele>214.743408</ele>
  <time>2011-09-29T05:31:29Z</time>
  <speed>1.570000</speed>
</trkpt>
<trkpt lat="32.590480804" lon="35.127979279">
  <ele>214.993408</ele>
  <time>2011-09-29T05:31:31Z</time>
  <speed>1.820000</speed>
</trkpt>
<trkpt lat="32.590454102" lon="35.127990723">
  <ele>215.098877</ele>
  <time>2011-09-29T05:31:33Z</time>
  <speed>1.610000</speed>
</trkpt>
<trkpt lat="32.590427399" lon="35.128009796">
  <ele>215.079346</ele>
  <time>2011-09-29T05:31:35Z</time>
  <speed>1.150000</speed>
</trkpt>
<trkpt lat="32.590396881" lon="35.128013611">
  <ele>215.005127</ele>
  <time>2011-09-29T05:31:37Z</time>
  <speed>1.590000</speed>
</trkpt>
<trkpt lat="32.590366364" lon="35.128025055">
  <ele>214.821533</ele>
  <time>2011-09-29T05:31:40Z</time>
  <speed>1.430000</speed>
</trkpt>
<trkpt lat="32.590320587" lon="35.128032684">
  <ele>214.634033</ele>
  <time>2011-09-29T05:31:43Z</time>
  <speed>1.340000</speed>
</trkpt>
<trkpt lat="32.590290070" lon="35.128044128">
  <ele>214.262939</ele>
  <time>2011-09-29T05:31:45Z</time>
  <speed>1.150000</speed>
</trkpt>
<trkpt lat="32.590248108" lon="35.128078461">
  <ele>214.290283</ele>
  <time>2011-09-29T05:31:47Z</time>
  <speed>1.620000</speed>
</trkpt>
<trkpt lat="32.590213776" lon="35.128093719">
  <ele>214.223877</ele>
  <time>2011-09-29T05:31:49Z</time>
  <speed>0.680000</speed>
</trkpt>
<trkpt lat="32.590183258" lon="35.128108978">
  <ele>214.087158</ele>
  <time>2011-09-29T05:31:51Z</time>
  <speed>0.850000</speed>
</trkpt>
<trkpt lat="32.590152740" lon="35.128120422">
  <ele>213.864502</ele>
  <time>2011-09-29T05:31:55Z</time>
  <speed>0.870000</speed>
</trkpt>
<trkpt lat="32.590122223" lon="35.128120422">
  <ele>213.969971</ele>
  <time>2011-09-29T05:32:00Z</time>
  <speed>0.740000</speed>
</trkpt>
<trkpt lat="32.590103149" lon="35.128108978">
  <ele>216.235596</ele>
  <time>2011-09-29T05:32:02Z</time>
  <speed>0.630000</speed>
</trkpt>
<trkpt lat="32.590103149" lon="35.128074646">
  <ele>218.294189</ele>
  <time>2011-09-29T05:32:04Z</time>
  <speed>1.330000</speed>
</trkpt>
<trkpt lat="32.590110779" lon="35.128036499">
  <ele>218.802002</ele>
  <time>2011-09-29T05:32:05Z</time>
  <speed>1.750000</speed>
</trkpt>
<trkpt lat="32.590133667" lon="35.128002167">
  <ele>219.727783</ele>
  <time>2011-09-29T05:32:06Z</time>
  <speed>3.100000</speed>
</trkpt>
<trkpt lat="32.590167999" lon="35.127964020">
  <ele>220.208252</ele>
  <time>2011-09-29T05:32:07Z</time>
  <speed>3.680000</speed>
</trkpt>
<trkpt lat="32.590187073" lon="35.127925873">
  <ele>220.321533</ele>
  <time>2011-09-29T05:32:08Z</time>
  <speed>3.920000</speed>
</trkpt>
<trkpt lat="32.590209961" lon="35.127887726">
  <ele>220.454346</ele>
  <time>2011-09-29T05:32:09Z</time>
  <speed>3.840000</speed>
</trkpt>
<trkpt lat="32.590240479" lon="35.127857208">
  <ele>219.977783</ele>
  <time>2011-09-29T05:32:10Z</time>
  <speed>4.210000</speed>
</trkpt>
<trkpt lat="32.590263367" lon="35.127826691">
  <ele>220.048096</ele>
  <time>2011-09-29T05:32:11Z</time>
  <speed>4.250000</speed>
</trkpt>
<trkpt lat="32.590301514" lon="35.127792358">
  <ele>219.946533</ele>
  <time>2011-09-29T05:32:12Z</time>
  <speed>4.790000</speed>
</trkpt>
<trkpt lat="32.590347290" lon="35.127750397">
  <ele>220.219971</ele>
  <time>2011-09-29T05:32:13Z</time>
  <speed>5.620000</speed>
</trkpt>
<trkpt lat="32.590389252" lon="35.127704620">
  <ele>220.243408</ele>
  <time>2011-09-29T05:32:14Z</time>
  <speed>5.910000</speed>
</trkpt>
<trkpt lat="32.590415955" lon="35.127655029">
  <ele>220.884033</ele>
  <time>2011-09-29T05:32:15Z</time>
  <speed>5.000000</speed>
</trkpt>
<trkpt lat="32.590442657" lon="35.127616882">
  <ele>221.872314</ele>
  <time>2011-09-29T05:32:16Z</time>
  <speed>5.040000</speed>
</trkpt>
<trkpt lat="32.590484619" lon="35.127559662">
  <ele>221.493408</ele>
  <time>2011-09-29T05:32:17Z</time>
  <speed>5.970000</speed>
</trkpt>
<trkpt lat="32.590534210" lon="35.127479553">
  <ele>222.563721</ele>
  <time>2011-09-29T05:32:18Z</time>
  <speed>5.950000</speed>
</trkpt>
<trkpt lat="32.590579987" lon="35.127395630">
  <ele>222.946533</ele>
  <time>2011-09-29T05:32:19Z</time>
  <speed>5.950000</speed>
</trkpt>
<trkpt lat="32.590599060" lon="35.127300262">
  <ele>223.376221</ele>
  <time>2011-09-29T05:32:20Z</time>
  <speed>6.210000</speed>
</trkpt>
<trkpt lat="32.590633392" lon="35.127243042">
  <ele>223.606689</ele>
  <time>2011-09-29T05:32:21Z</time>
  <speed>5.920000</speed>
</trkpt>
<trkpt lat="32.590682983" lon="35.127193451">
  <ele>224.048096</ele>
  <time>2011-09-29T05:32:22Z</time>
  <speed>6.040000</speed>
</trkpt>
<trkpt lat="32.590728760" lon="35.127151489">
  <ele>224.157471</ele>
  <time>2011-09-29T05:32:23Z</time>
  <speed>5.880000</speed>
</trkpt>
<trkpt lat="32.590770721" lon="35.127117157">
  <ele>224.274658</ele>
  <time>2011-09-29T05:32:24Z</time>
  <speed>5.890000</speed>
</trkpt>
<trkpt lat="32.590816498" lon="35.127075195">
  <ele>224.641846</ele>
  <time>2011-09-29T05:32:25Z</time>
  <speed>6.020000</speed>
</trkpt>
<trkpt lat="32.590869904" lon="35.127017975">
  <ele>225.548096</ele>
  <time>2011-09-29T05:32:26Z</time>
  <speed>6.500000</speed>
</trkpt>
<trkpt lat="32.590915680" lon="35.126968384">
  <ele>225.919189</ele>
  <time>2011-09-29T05:32:27Z</time>
  <speed>6.520000</speed>
</trkpt>
<trkpt lat="32.590969086" lon="35.126907349">
  <ele>226.731689</ele>
  <time>2011-09-29T05:32:28Z</time>
  <speed>6.770000</speed>
</trkpt>
<trkpt lat="32.591011047" lon="35.126873016">
  <ele>227.079346</ele>
  <time>2011-09-29T05:32:29Z</time>
  <speed>5.990000</speed>
</trkpt>
<trkpt lat="32.591053009" lon="35.126834869">
  <ele>227.200439</ele>
  <time>2011-09-29T05:32:30Z</time>
  <speed>5.700000</speed>
</trkpt>
<trkpt lat="32.591091156" lon="35.126789093">
  <ele>227.516846</ele>
  <time>2011-09-29T05:32:31Z</time>
  <speed>5.430000</speed>
</trkpt>
<trkpt lat="32.591167450" lon="35.126758575">
  <ele>227.606689</ele>
  <time>2011-09-29T05:32:32Z</time>
  <speed>4.840000</speed>
</trkpt>
<trkpt lat="32.591194153" lon="35.126712799">
  <ele>226.969971</ele>
  <time>2011-09-29T05:32:33Z</time>
  <speed>4.600000</speed>
</trkpt>
<trkpt lat="32.591209412" lon="35.126670837">
  <ele>226.860596</ele>
  <time>2011-09-29T05:32:34Z</time>
  <speed>5.070000</speed>
</trkpt>
<trkpt lat="32.591251373" lon="35.126644135">
  <ele>226.759033</ele>
  <time>2011-09-29T05:32:35Z</time>
  <speed>4.690000</speed>
</trkpt>
<trkpt lat="32.591289520" lon="35.126605988">
  <ele>226.555908</ele>
  <time>2011-09-29T05:32:36Z</time>
  <speed>4.530000</speed>
</trkpt>
<trkpt lat="32.591327667" lon="35.126579285">
  <ele>227.028564</ele>
  <time>2011-09-29T05:32:37Z</time>
  <speed>4.430000</speed>
</trkpt>
<trkpt lat="32.591369629" lon="35.126533508">
  <ele>229.243408</ele>
  <time>2011-09-29T05:32:38Z</time>
  <speed>4.040000</speed>
</trkpt>
<trkpt lat="32.591400146" lon="35.126506805">
  <ele>229.325439</ele>
  <time>2011-09-29T05:32:39Z</time>
  <speed>3.940000</speed>
</trkpt>
<trkpt lat="32.591430664" lon="35.126491547">
  <ele>229.622314</ele>
  <time>2011-09-29T05:32:40Z</time>
  <speed>3.410000</speed>
</trkpt>
<trkpt lat="32.591464996" lon="35.126476288">
  <ele>229.891846</ele>
  <time>2011-09-29T05:32:41Z</time>
  <speed>3.180000</speed>
</trkpt>
<trkpt lat="32.591503143" lon="35.126464844">
  <ele>230.348877</ele>
  <time>2011-09-29T05:32:42Z</time>
  <speed>2.790000</speed>
</trkpt>
<trkpt lat="32.591533661" lon="35.126461029">
  <ele>230.813721</ele>
  <time>2011-09-29T05:32:43Z</time>
  <speed>2.910000</speed>
</trkpt>
<trkpt lat="32.591564178" lon="35.126449585">
  <ele>231.028564</ele>
  <time>2011-09-29T05:32:44Z</time>
  <speed>2.830000</speed>
</trkpt>
<trkpt lat="32.591590881" lon="35.126434326">
  <ele>231.157471</ele>
  <time>2011-09-29T05:32:45Z</time>
  <speed>2.870000</speed>
</trkpt>
<trkpt lat="32.591609955" lon="35.126411438">
  <ele>231.067627</ele>
  <time>2011-09-29T05:32:46Z</time>
  <speed>2.820000</speed>
</trkpt>
<trkpt lat="32.591636658" lon="35.126392365">
  <ele>230.899658</ele>
  <time>2011-09-29T05:32:47Z</time>
  <speed>2.880000</speed>
</trkpt>
<trkpt lat="32.591667175" lon="35.126377106">
  <ele>231.106689</ele>
  <time>2011-09-29T05:32:48Z</time>
  <speed>2.530000</speed>
</trkpt>
<trkpt lat="32.591716766" lon="35.126350403">
  <ele>231.321533</ele>
  <time>2011-09-29T05:32:50Z</time>
  <speed>2.810000</speed>
</trkpt>
<trkpt lat="32.591762543" lon="35.126323700">
  <ele>231.048096</ele>
  <time>2011-09-29T05:32:52Z</time>
  <speed>2.250000</speed>
</trkpt>
<trkpt lat="32.591789246" lon="35.126304626">
  <ele>232.091064</ele>
  <time>2011-09-29T05:32:53Z</time>
  <speed>2.360000</speed>
</trkpt>
<trkpt lat="32.591835022" lon="35.126274109">
  <ele>231.946533</ele>
  <time>2011-09-29T05:32:55Z</time>
  <speed>2.460000</speed>
</trkpt>
<trkpt lat="32.591873169" lon="35.126251221">
  <ele>232.012939</ele>
  <time>2011-09-29T05:32:57Z</time>
  <speed>2.580000</speed>
</trkpt>
<trkpt lat="32.591892242" lon="35.126220703">
  <ele>231.403564</ele>
  <time>2011-09-29T05:32:59Z</time>
  <speed>2.260000</speed>
</trkpt>
<trkpt lat="32.591918945" lon="35.126205444">
  <ele>231.118408</ele>
  <time>2011-09-29T05:33:00Z</time>
  <speed>2.590000</speed>
</trkpt>
<trkpt lat="32.591949463" lon="35.126182556">
  <ele>231.149658</ele>
  <time>2011-09-29T05:33:02Z</time>
  <speed>1.870000</speed>
</trkpt>
<trkpt lat="32.591976166" lon="35.126152039">
  <ele>231.895752</ele>
  <time>2011-09-29T05:33:04Z</time>
  <speed>2.260000</speed>
</trkpt>
<trkpt lat="32.592002869" lon="35.126132965">
  <ele>231.696533</ele>
  <time>2011-09-29T05:33:05Z</time>
  <speed>2.400000</speed>
</trkpt>
<trkpt lat="32.592025757" lon="35.126117706">
  <ele>231.673096</ele>
  <time>2011-09-29T05:33:06Z</time>
  <speed>2.420000</speed>
</trkpt>
<trkpt lat="32.592052460" lon="35.126075745">
  <ele>231.442627</ele>
  <time>2011-09-29T05:33:08Z</time>
  <speed>2.240000</speed>
</trkpt>
<trkpt lat="32.592075348" lon="35.126041412">
  <ele>231.149658</ele>
  <time>2011-09-29T05:33:10Z</time>
  <speed>2.160000</speed>
</trkpt>
<trkpt lat="32.592109680" lon="35.126003265">
  <ele>231.344971</ele>
  <time>2011-09-29T05:33:12Z</time>
  <speed>2.160000</speed>
</trkpt>
<trkpt lat="32.592132568" lon="35.125968933">
  <ele>231.137939</ele>
  <time>2011-09-29T05:33:14Z</time>
  <speed>1.890000</speed>
</trkpt>
<trkpt lat="32.592159271" lon="35.125926971">
  <ele>231.915283</ele>
  <time>2011-09-29T05:33:16Z</time>
  <speed>2.220000</speed>
</trkpt>
<trkpt lat="32.592185974" lon="35.125885010">
  <ele>231.501221</ele>
  <time>2011-09-29T05:33:18Z</time>
  <speed>2.360000</speed>
</trkpt>
<trkpt lat="32.592216492" lon="35.125846863">
  <ele>231.770752</ele>
  <time>2011-09-29T05:33:20Z</time>
  <speed>2.220000</speed>
</trkpt>
<trkpt lat="32.592254639" lon="35.125812531">
  <ele>231.923096</ele>
  <time>2011-09-29T05:33:22Z</time>
  <speed>3.030000</speed>
</trkpt>
<trkpt lat="32.592273712" lon="35.125785828">
  <ele>231.692627</ele>
  <time>2011-09-29T05:33:23Z</time>
  <speed>3.030000</speed>
</trkpt>
<trkpt lat="32.592292786" lon="35.125759125">
  <ele>231.493408</ele>
  <time>2011-09-29T05:33:24Z</time>
  <speed>3.910000</speed>
</trkpt>
<trkpt lat="32.592323303" lon="35.125728607">
  <ele>231.122314</ele>
  <time>2011-09-29T05:33:25Z</time>
  <speed>4.540000</speed>
</trkpt>
<trkpt lat="32.592357635" lon="35.125698090">
  <ele>231.235596</ele>
  <time>2011-09-29T05:33:26Z</time>
  <speed>4.630000</speed>
</trkpt>
<trkpt lat="32.592395782" lon="35.125659943">
  <ele>230.919189</ele>
  <time>2011-09-29T05:33:27Z</time>
  <speed>5.090000</speed>
</trkpt>
<trkpt lat="32.592426300" lon="35.125625610">
  <ele>230.344971</ele>
  <time>2011-09-29T05:33:28Z</time>
  <speed>4.890000</speed>
</trkpt>
<trkpt lat="32.592456818" lon="35.125587463">
  <ele>230.489502</ele>
  <time>2011-09-29T05:33:29Z</time>
  <speed>4.370000</speed>
</trkpt>
<trkpt lat="32.592475891" lon="35.125534058">
  <ele>230.594971</ele>
  <time>2011-09-29T05:33:30Z</time>
  <speed>5.510000</speed>
</trkpt>
<trkpt lat="32.592487335" lon="35.125473022">
  <ele>230.204346</ele>
  <time>2011-09-29T05:33:31Z</time>
  <speed>5.560000</speed>
</trkpt>
<trkpt lat="32.592487335" lon="35.125392914">
  <ele>230.387939</ele>
  <time>2011-09-29T05:33:32Z</time>
  <speed>6.330000</speed>
</trkpt>
<trkpt lat="32.592483521" lon="35.125320435">
  <ele>230.278564</ele>
  <time>2011-09-29T05:33:33Z</time>
  <speed>5.920000</speed>
</trkpt>
<trkpt lat="32.592475891" lon="35.125259399">
  <ele>229.942627</ele>
  <time>2011-09-29T05:33:34Z</time>
  <speed>5.190000</speed>
</trkpt>
<trkpt lat="32.592460632" lon="35.125205994">
  <ele>230.005127</ele>
  <time>2011-09-29T05:33:35Z</time>
  <speed>4.760000</speed>
</trkpt>
<trkpt lat="32.592449188" lon="35.125160217">
  <ele>229.915283</ele>
  <time>2011-09-29T05:33:36Z</time>
  <speed>3.860000</speed>
</trkpt>
<trkpt lat="32.592430115" lon="35.125114441">
  <ele>230.005127</ele>
  <time>2011-09-29T05:33:37Z</time>
  <speed>3.870000</speed>
</trkpt>
<trkpt lat="32.592418671" lon="35.125076294">
  <ele>229.993408</ele>
  <time>2011-09-29T05:33:38Z</time>
  <speed>3.530000</speed>
</trkpt>
<trkpt lat="32.592407227" lon="35.125041962">
  <ele>230.075439</ele>
  <time>2011-09-29T05:33:39Z</time>
  <speed>3.370000</speed>
</trkpt>
<trkpt lat="32.592395782" lon="35.125011444">
  <ele>230.641846</ele>
  <time>2011-09-29T05:33:40Z</time>
  <speed>3.250000</speed>
</trkpt>
<trkpt lat="32.592384338" lon="35.124973297">
  <ele>231.016846</ele>
  <time>2011-09-29T05:33:41Z</time>
  <speed>3.180000</speed>
</trkpt>
<trkpt lat="32.592376709" lon="35.124942780">
  <ele>230.735596</ele>
  <time>2011-09-29T05:33:42Z</time>
  <speed>2.980000</speed>
</trkpt>
<trkpt lat="32.592365265" lon="35.124900818">
  <ele>231.223877</ele>
  <time>2011-09-29T05:33:43Z</time>
  <speed>3.230000</speed>
</trkpt>
<trkpt lat="32.592361450" lon="35.124862671">
  <ele>230.856689</ele>
  <time>2011-09-29T05:33:44Z</time>
  <speed>3.840000</speed>
</trkpt>
<trkpt lat="32.592346191" lon="35.124820709">
  <ele>230.278564</ele>
  <time>2011-09-29T05:33:45Z</time>
  <speed>4.680000</speed>
</trkpt>
<trkpt lat="32.592330933" lon="35.124771118">
  <ele>229.723877</ele>
  <time>2011-09-29T05:33:46Z</time>
  <speed>5.010000</speed>
</trkpt>
<trkpt lat="32.592315674" lon="35.124725342">
  <ele>229.657471</ele>
  <time>2011-09-29T05:33:47Z</time>
  <speed>4.740000</speed>
</trkpt>
<trkpt lat="32.592304230" lon="35.124679565">
  <ele>229.919189</ele>
  <time>2011-09-29T05:33:48Z</time>
  <speed>5.090000</speed>
</trkpt>
<trkpt lat="32.592285156" lon="35.124626160">
  <ele>230.067627</ele>
  <time>2011-09-29T05:33:49Z</time>
  <speed>5.090000</speed>
</trkpt>
<trkpt lat="32.592254639" lon="35.124576569">
  <ele>229.759033</ele>
  <time>2011-09-29T05:33:50Z</time>
  <speed>5.300000</speed>
</trkpt>
<trkpt lat="32.592231750" lon="35.124526978">
  <ele>229.536377</ele>
  <time>2011-09-29T05:33:51Z</time>
  <speed>5.190000</speed>
</trkpt>
<trkpt lat="32.592212677" lon="35.124477386">
  <ele>229.743408</ele>
  <time>2011-09-29T05:33:52Z</time>
  <speed>5.020000</speed>
</trkpt>
<trkpt lat="32.592185974" lon="35.124443054">
  <ele>229.942627</ele>
  <time>2011-09-29T05:33:53Z</time>
  <speed>4.790000</speed>
</trkpt>
<trkpt lat="32.592159271" lon="35.124401093">
  <ele>229.610596</ele>
  <time>2011-09-29T05:33:54Z</time>
  <speed>4.400000</speed>
</trkpt>
<trkpt lat="32.592132568" lon="35.124362946">
  <ele>229.313721</ele>
  <time>2011-09-29T05:33:55Z</time>
  <speed>4.120000</speed>
</trkpt>
<trkpt lat="32.592098236" lon="35.124332428">
  <ele>229.321533</ele>
  <time>2011-09-29T05:33:56Z</time>
  <speed>4.050000</speed>
</trkpt>
<trkpt lat="32.592075348" lon="35.124301910">
  <ele>229.196533</ele>
  <time>2011-09-29T05:33:57Z</time>
  <speed>3.640000</speed>
</trkpt>
<trkpt lat="32.592048645" lon="35.124279022">
  <ele>229.063721</ele>
  <time>2011-09-29T05:33:58Z</time>
  <speed>3.470000</speed>
</trkpt>
<trkpt lat="32.592025757" lon="35.124259949">
  <ele>228.903564</ele>
  <time>2011-09-29T05:33:59Z</time>
  <speed>3.350000</speed>
</trkpt>
<trkpt lat="32.591991425" lon="35.124229431">
  <ele>229.731689</ele>
  <time>2011-09-29T05:34:00Z</time>
  <speed>3.600000</speed>
</trkpt>
<trkpt lat="32.591960907" lon="35.124195099">
  <ele>230.219971</ele>
  <time>2011-09-29T05:34:01Z</time>
  <speed>3.480000</speed>
</trkpt>
<trkpt lat="32.591934204" lon="35.124168396">
  <ele>230.493408</ele>
  <time>2011-09-29T05:34:02Z</time>
  <speed>3.010000</speed>
</trkpt>
<trkpt lat="32.591911316" lon="35.124153137">
  <ele>230.626221</ele>
  <time>2011-09-29T05:34:03Z</time>
  <speed>3.080000</speed>
</trkpt>
<trkpt lat="32.591884613" lon="35.124130249">
  <ele>230.946533</ele>
  <time>2011-09-29T05:34:04Z</time>
  <speed>2.740000</speed>
</trkpt>
<trkpt lat="32.591861725" lon="35.124118805">
  <ele>230.930908</ele>
  <time>2011-09-29T05:34:05Z</time>
  <speed>2.490000</speed>
</trkpt>
<trkpt lat="32.591831207" lon="35.124107361">
  <ele>231.442627</ele>
  <time>2011-09-29T05:34:06Z</time>
  <speed>2.320000</speed>
</trkpt>
<trkpt lat="32.591808319" lon="35.124092102">
  <ele>232.860596</ele>
  <time>2011-09-29T05:34:07Z</time>
  <speed>2.270000</speed>
</trkpt>
<trkpt lat="32.591781616" lon="35.124080658">
  <ele>233.114502</ele>
  <time>2011-09-29T05:34:08Z</time>
  <speed>2.300000</speed>
</trkpt>
<trkpt lat="32.591735840" lon="35.124057770">
  <ele>234.903564</ele>
  <time>2011-09-29T05:34:10Z</time>
  <speed>2.700000</speed>
</trkpt>
<trkpt lat="32.591712952" lon="35.124046326">
  <ele>235.899658</ele>
  <time>2011-09-29T05:34:11Z</time>
  <speed>2.780000</speed>
</trkpt>
<trkpt lat="32.591678619" lon="35.124042511">
  <ele>235.774658</ele>
  <time>2011-09-29T05:34:12Z</time>
  <speed>2.820000</speed>
</trkpt>
<trkpt lat="32.591651917" lon="35.124031067">
  <ele>235.399658</ele>
  <time>2011-09-29T05:34:13Z</time>
  <speed>2.810000</speed>
</trkpt>
<trkpt lat="32.591625214" lon="35.124019623">
  <ele>235.719971</ele>
  <time>2011-09-29T05:34:14Z</time>
  <speed>2.780000</speed>
</trkpt>
<trkpt lat="32.591583252" lon="35.123996735">
  <ele>235.813721</ele>
  <time>2011-09-29T05:34:16Z</time>
  <speed>2.600000</speed>
</trkpt>
<trkpt lat="32.591541290" lon="35.123977661">
  <ele>236.829346</ele>
  <time>2011-09-29T05:34:18Z</time>
  <speed>2.400000</speed>
</trkpt>
<trkpt lat="32.591503143" lon="35.123970032">
  <ele>237.665283</ele>
  <time>2011-09-29T05:34:20Z</time>
  <speed>2.250000</speed>
</trkpt>
<trkpt lat="32.591461182" lon="35.123958588">
  <ele>237.930908</ele>
  <time>2011-09-29T05:34:22Z</time>
  <speed>2.540000</speed>
</trkpt>
<trkpt lat="32.591419220" lon="35.123947144">
  <ele>236.231689</ele>
  <time>2011-09-29T05:34:24Z</time>
  <speed>2.290000</speed>
</trkpt>
<trkpt lat="32.591369629" lon="35.123928070">
  <ele>236.829346</ele>
  <time>2011-09-29T05:34:26Z</time>
  <speed>2.530000</speed>
</trkpt>
<trkpt lat="32.591335297" lon="35.123916626">
  <ele>237.563721</ele>
  <time>2011-09-29T05:34:28Z</time>
  <speed>1.830000</speed>
</trkpt>
<trkpt lat="32.591289520" lon="35.123897552">
  <ele>237.169189</ele>
  <time>2011-09-29T05:34:30Z</time>
  <speed>2.460000</speed>
</trkpt>
<trkpt lat="32.591262817" lon="35.123897552">
  <ele>236.110596</ele>
  <time>2011-09-29T05:34:31Z</time>
  <speed>2.330000</speed>
</trkpt>
<trkpt lat="32.591213226" lon="35.123889923">
  <ele>234.778564</ele>
  <time>2011-09-29T05:34:33Z</time>
  <speed>2.130000</speed>
</trkpt>
<trkpt lat="32.591167450" lon="35.123878479">
  <ele>234.333252</ele>
  <time>2011-09-29T05:34:35Z</time>
  <speed>2.500000</speed>
</trkpt>
<trkpt lat="32.591117859" lon="35.123878479">
  <ele>235.141846</ele>
  <time>2011-09-29T05:34:37Z</time>
  <speed>2.500000</speed>
</trkpt>
<trkpt lat="32.591091156" lon="35.123870850">
  <ele>234.907471</ele>
  <time>2011-09-29T05:34:38Z</time>
  <speed>2.390000</speed>
</trkpt>
<trkpt lat="32.591045380" lon="35.123867035">
  <ele>235.001221</ele>
  <time>2011-09-29T05:34:40Z</time>
  <speed>3.010000</speed>
</trkpt>
<trkpt lat="32.591014862" lon="35.123867035">
  <ele>235.110596</ele>
  <time>2011-09-29T05:34:41Z</time>
  <speed>2.570000</speed>
</trkpt>
<trkpt lat="32.590984344" lon="35.123870850">
  <ele>234.899658</ele>
  <time>2011-09-29T05:34:42Z</time>
  <speed>2.490000</speed>
</trkpt>
<trkpt lat="32.590934753" lon="35.123859406">
  <ele>233.884033</ele>
  <time>2011-09-29T05:34:44Z</time>
  <speed>2.170000</speed>
</trkpt>
<trkpt lat="32.590908051" lon="35.123855591">
  <ele>234.235596</ele>
  <time>2011-09-29T05:34:45Z</time>
  <speed>2.200000</speed>
</trkpt>
<trkpt lat="32.590854645" lon="35.123859406">
  <ele>234.094971</ele>
  <time>2011-09-29T05:34:47Z</time>
  <speed>2.150000</speed>
</trkpt>
<trkpt lat="32.590812683" lon="35.123867035">
  <ele>234.134033</ele>
  <time>2011-09-29T05:34:49Z</time>
  <speed>2.060000</speed>
</trkpt>
<trkpt lat="32.590763092" lon="35.123870850">
  <ele>234.626221</ele>
  <time>2011-09-29T05:34:51Z</time>
  <speed>2.270000</speed>
</trkpt>
<trkpt lat="32.590724945" lon="35.123886108">
  <ele>233.466064</ele>
  <time>2011-09-29T05:34:53Z</time>
  <speed>1.570000</speed>
</trkpt>
<trkpt lat="32.590694427" lon="35.123878479">
  <ele>233.520752</ele>
  <time>2011-09-29T05:34:55Z</time>
  <speed>1.920000</speed>
</trkpt>
<trkpt lat="32.590660095" lon="35.123886108">
  <ele>233.919189</ele>
  <time>2011-09-29T05:34:57Z</time>
  <speed>1.680000</speed>
</trkpt>
<trkpt lat="32.590629578" lon="35.123893738">
  <ele>234.852783</ele>
  <time>2011-09-29T05:34:59Z</time>
  <speed>1.380000</speed>
</trkpt>
<trkpt lat="32.590599060" lon="35.123901367">
  <ele>235.536377</ele>
  <time>2011-09-29T05:35:01Z</time>
  <speed>1.380000</speed>
</trkpt>
<trkpt lat="32.590568542" lon="35.123905182">
  <ele>235.868408</ele>
  <time>2011-09-29T05:35:03Z</time>
  <speed>1.280000</speed>
</trkpt>
<trkpt lat="32.590538025" lon="35.123912811">
  <ele>236.653564</ele>
  <time>2011-09-29T05:35:05Z</time>
  <speed>1.810000</speed>
</trkpt>
<trkpt lat="32.590503693" lon="35.123905182">
  <ele>237.102783</ele>
  <time>2011-09-29T05:35:07Z</time>
  <speed>1.570000</speed>
</trkpt>
<trkpt lat="32.590457916" lon="35.123889923">
  <ele>237.669189</ele>
  <time>2011-09-29T05:35:09Z</time>
  <speed>1.400000</speed>
</trkpt>
<trkpt lat="32.590423584" lon="35.123889923">
  <ele>238.165283</ele>
  <time>2011-09-29T05:35:11Z</time>
  <speed>1.780000</speed>
</trkpt>
<trkpt lat="32.590381622" lon="35.123886108">
  <ele>238.844971</ele>
  <time>2011-09-29T05:35:13Z</time>
  <speed>2.050000</speed>
</trkpt>
<trkpt lat="32.590347290" lon="35.123878479">
  <ele>240.380127</ele>
  <time>2011-09-29T05:35:15Z</time>
  <speed>1.740000</speed>
</trkpt>
<trkpt lat="32.590309143" lon="35.123878479">
  <ele>240.067627</ele>
  <time>2011-09-29T05:35:17Z</time>
  <speed>1.860000</speed>
</trkpt>
<trkpt lat="32.590278625" lon="35.123859406">
  <ele>241.294189</ele>
  <time>2011-09-29T05:35:19Z</time>
  <speed>2.030000</speed>
</trkpt>
<trkpt lat="32.590244293" lon="35.123851776">
  <ele>240.216064</ele>
  <time>2011-09-29T05:35:21Z</time>
  <speed>1.850000</speed>
</trkpt>
<trkpt lat="32.590190887" lon="35.123836517">
  <ele>241.427002</ele>
  <time>2011-09-29T05:35:23Z</time>
  <speed>1.980000</speed>
</trkpt>
<trkpt lat="32.590160370" lon="35.123828888">
  <ele>241.567627</ele>
  <time>2011-09-29T05:35:25Z</time>
  <speed>1.990000</speed>
</trkpt>
<trkpt lat="32.590110779" lon="35.123817444">
  <ele>241.505127</ele>
  <time>2011-09-29T05:35:27Z</time>
  <speed>1.950000</speed>
</trkpt>
<trkpt lat="32.590076447" lon="35.123802185">
  <ele>241.821533</ele>
  <time>2011-09-29T05:35:29Z</time>
  <speed>1.980000</speed>
</trkpt>
<trkpt lat="32.590038300" lon="35.123786926">
  <ele>242.298096</ele>
  <time>2011-09-29T05:35:31Z</time>
  <speed>1.880000</speed>
</trkpt>
<trkpt lat="32.590000153" lon="35.123775482">
  <ele>242.743408</ele>
  <time>2011-09-29T05:35:33Z</time>
  <speed>2.010000</speed>
</trkpt>
<trkpt lat="32.589958191" lon="35.123775482">
  <ele>244.134033</ele>
  <time>2011-09-29T05:35:35Z</time>
  <speed>2.210000</speed>
</trkpt>
<trkpt lat="32.589927673" lon="35.123775482">
  <ele>244.415283</ele>
  <time>2011-09-29T05:35:36Z</time>
  <speed>2.380000</speed>
</trkpt>
<trkpt lat="32.589889526" lon="35.123756409">
  <ele>244.739502</ele>
  <time>2011-09-29T05:35:38Z</time>
  <speed>2.200000</speed>
</trkpt>
<trkpt lat="32.589866638" lon="35.123733521">
  <ele>246.079346</ele>
  <time>2011-09-29T05:35:40Z</time>
  <speed>1.910000</speed>
</trkpt>
<trkpt lat="32.589832306" lon="35.123703003">
  <ele>246.766846</ele>
  <time>2011-09-29T05:35:42Z</time>
  <speed>2.620000</speed>
</trkpt>
<trkpt lat="32.589794159" lon="35.123668671">
  <ele>246.778564</ele>
  <time>2011-09-29T05:35:44Z</time>
  <speed>2.160000</speed>
</trkpt>
<trkpt lat="32.589775085" lon="35.123641968">
  <ele>246.735596</ele>
  <time>2011-09-29T05:35:45Z</time>
  <speed>2.420000</speed>
</trkpt>
<trkpt lat="32.589748383" lon="35.123611450">
  <ele>246.700439</ele>
  <time>2011-09-29T05:35:46Z</time>
  <speed>3.110000</speed>
</trkpt>
<trkpt lat="32.589725494" lon="35.123592377">
  <ele>246.227783</ele>
  <time>2011-09-29T05:35:47Z</time>
  <speed>2.400000</speed>
</trkpt>
<trkpt lat="32.589698792" lon="35.123550415">
  <ele>246.184814</ele>
  <time>2011-09-29T05:35:50Z</time>
  <speed>1.920000</speed>
</trkpt>
<trkpt lat="32.589668274" lon="35.123519897">
  <ele>246.559814</ele>
  <time>2011-09-29T05:35:52Z</time>
  <speed>2.440000</speed>
</trkpt>
<trkpt lat="32.589637756" lon="35.123508453">
  <ele>246.403564</ele>
  <time>2011-09-29T05:35:54Z</time>
  <speed>2.050000</speed>
</trkpt>
<trkpt lat="32.589607239" lon="35.123485565">
  <ele>246.614502</ele>
  <time>2011-09-29T05:35:56Z</time>
  <speed>1.850000</speed>
</trkpt>
<trkpt lat="32.589580536" lon="35.123474121">
  <ele>247.360596</ele>
  <time>2011-09-29T05:35:57Z</time>
  <speed>1.670000</speed>
</trkpt>
<trkpt lat="32.589553833" lon="35.123447418">
  <ele>248.028564</ele>
  <time>2011-09-29T05:35:59Z</time>
  <speed>1.980000</speed>
</trkpt>
<trkpt lat="32.589519501" lon="35.123424530">
  <ele>248.454346</ele>
  <time>2011-09-29T05:36:02Z</time>
  <speed>1.850000</speed>
</trkpt>
<trkpt lat="32.589496613" lon="35.123386383">
  <ele>248.794189</ele>
  <time>2011-09-29T05:36:04Z</time>
  <speed>1.940000</speed>
</trkpt>
<trkpt lat="32.589473724" lon="35.123340607">
  <ele>248.083252</ele>
  <time>2011-09-29T05:36:06Z</time>
  <speed>1.840000</speed>
</trkpt>
<trkpt lat="32.589447021" lon="35.123306274">
  <ele>248.134033</ele>
  <time>2011-09-29T05:36:08Z</time>
  <speed>1.470000</speed>
</trkpt>
<trkpt lat="32.589435577" lon="35.123268127">
  <ele>248.434814</ele>
  <time>2011-09-29T05:36:10Z</time>
  <speed>1.930000</speed>
</trkpt>
<trkpt lat="32.589420319" lon="35.123241425">
  <ele>247.626221</ele>
  <time>2011-09-29T05:36:12Z</time>
  <speed>1.800000</speed>
</trkpt>
<trkpt lat="32.589389801" lon="35.123210907">
  <ele>247.735596</ele>
  <time>2011-09-29T05:36:14Z</time>
  <speed>2.200000</speed>
</trkpt>
<trkpt lat="32.589363098" lon="35.123176575">
  <ele>247.610596</ele>
  <time>2011-09-29T05:36:16Z</time>
  <speed>2.170000</speed>
</trkpt>
<trkpt lat="32.589332581" lon="35.123149872">
  <ele>247.852783</ele>
  <time>2011-09-29T05:36:18Z</time>
  <speed>2.310000</speed>
</trkpt>
<trkpt lat="32.589298248" lon="35.123123169">
  <ele>247.200439</ele>
  <time>2011-09-29T05:36:20Z</time>
  <speed>2.310000</speed>
</trkpt>
<trkpt lat="32.589275360" lon="35.123100281">
  <ele>246.802002</ele>
  <time>2011-09-29T05:36:22Z</time>
  <speed>1.660000</speed>
</trkpt>
<trkpt lat="32.589241028" lon="35.123088837">
  <ele>246.587158</ele>
  <time>2011-09-29T05:36:24Z</time>
  <speed>1.870000</speed>
</trkpt>
<trkpt lat="32.589210510" lon="35.123069763">
  <ele>247.200439</ele>
  <time>2011-09-29T05:36:26Z</time>
  <speed>1.680000</speed>
</trkpt>
<trkpt lat="32.589179993" lon="35.123058319">
  <ele>246.680908</ele>
  <time>2011-09-29T05:36:28Z</time>
  <speed>1.910000</speed>
</trkpt>
<trkpt lat="32.589138031" lon="35.123046875">
  <ele>246.993408</ele>
  <time>2011-09-29T05:36:30Z</time>
  <speed>2.080000</speed>
</trkpt>
<trkpt lat="32.589092255" lon="35.123035431">
  <ele>247.173096</ele>
  <time>2011-09-29T05:36:32Z</time>
  <speed>2.110000</speed>
</trkpt>
<trkpt lat="32.589050293" lon="35.123016357">
  <ele>247.325439</ele>
  <time>2011-09-29T05:36:34Z</time>
  <speed>3.370000</speed>
</trkpt>
<trkpt lat="32.589023590" lon="35.123008728">
  <ele>247.645752</ele>
  <time>2011-09-29T05:36:35Z</time>
  <speed>3.040000</speed>
</trkpt>
<trkpt lat="32.588985443" lon="35.123004913">
  <ele>246.899658</ele>
  <time>2011-09-29T05:36:36Z</time>
  <speed>3.840000</speed>
</trkpt>
<trkpt lat="32.588947296" lon="35.122993469">
  <ele>246.649658</ele>
  <time>2011-09-29T05:36:37Z</time>
  <speed>4.330000</speed>
</trkpt>
<trkpt lat="32.588905334" lon="35.122978210">
  <ele>246.477783</ele>
  <time>2011-09-29T05:36:38Z</time>
  <speed>4.920000</speed>
</trkpt>
<trkpt lat="32.588848114" lon="35.122966766">
  <ele>246.454346</ele>
  <time>2011-09-29T05:36:39Z</time>
  <speed>6.100000</speed>
</trkpt>
<trkpt lat="32.588790894" lon="35.122943878">
  <ele>246.188721</ele>
  <time>2011-09-29T05:36:40Z</time>
  <speed>6.800000</speed>
</trkpt>
<trkpt lat="32.588729858" lon="35.122932434">
  <ele>246.052002</ele>
  <time>2011-09-29T05:36:41Z</time>
  <speed>7.300000</speed>
</trkpt>
<trkpt lat="32.588665009" lon="35.122936249">
  <ele>246.149658</ele>
  <time>2011-09-29T05:36:42Z</time>
  <speed>6.580000</speed>
</trkpt>
<trkpt lat="32.588607788" lon="35.122932434">
  <ele>246.458252</ele>
  <time>2011-09-29T05:36:43Z</time>
  <speed>5.250000</speed>
</trkpt>
<trkpt lat="32.588554382" lon="35.122932434">
  <ele>246.512939</ele>
  <time>2011-09-29T05:36:44Z</time>
  <speed>5.270000</speed>
</trkpt>
<trkpt lat="32.588508606" lon="35.122940063">
  <ele>246.509033</ele>
  <time>2011-09-29T05:36:45Z</time>
  <speed>5.170000</speed>
</trkpt>
<trkpt lat="32.588455200" lon="35.122955322">
  <ele>246.634033</ele>
  <time>2011-09-29T05:36:46Z</time>
  <speed>5.570000</speed>
</trkpt>
<trkpt lat="32.588417053" lon="35.122970581">
  <ele>246.329346</ele>
  <time>2011-09-29T05:36:47Z</time>
  <speed>4.920000</speed>
</trkpt>
<trkpt lat="32.588378906" lon="35.122989655">
  <ele>246.141846</ele>
  <time>2011-09-29T05:36:48Z</time>
  <speed>3.910000</speed>
</trkpt>
<trkpt lat="32.588348389" lon="35.123001099">
  <ele>246.036377</ele>
  <time>2011-09-29T05:36:49Z</time>
  <speed>3.250000</speed>
</trkpt>
<trkpt lat="32.588325500" lon="35.123020172">
  <ele>245.493408</ele>
  <time>2011-09-29T05:36:50Z</time>
  <speed>2.970000</speed>
</trkpt>
<trkpt lat="32.588283539" lon="35.123043060">
  <ele>244.149658</ele>
  <time>2011-09-29T05:36:51Z</time>
  <speed>3.070000</speed>
</trkpt>
<trkpt lat="32.588230133" lon="35.123062134">
  <ele>244.259033</ele>
  <time>2011-09-29T05:36:53Z</time>
  <speed>2.170000</speed>
</trkpt>
<trkpt lat="32.588199615" lon="35.123096466">
  <ele>244.485596</ele>
  <time>2011-09-29T05:36:55Z</time>
  <speed>2.070000</speed>
</trkpt>
<trkpt lat="32.588165283" lon="35.123126984">
  <ele>243.993408</ele>
  <time>2011-09-29T05:36:57Z</time>
  <speed>2.480000</speed>
</trkpt>
<trkpt lat="32.588138580" lon="35.123153687">
  <ele>244.227783</ele>
  <time>2011-09-29T05:36:58Z</time>
  <speed>2.530000</speed>
</trkpt>
<trkpt lat="32.588111877" lon="35.123168945">
  <ele>244.540283</ele>
  <time>2011-09-29T05:36:59Z</time>
  <speed>3.060000</speed>
</trkpt>
<trkpt lat="32.588066101" lon="35.123207092">
  <ele>244.278564</ele>
  <time>2011-09-29T05:37:01Z</time>
  <speed>2.980000</speed>
</trkpt>
<trkpt lat="32.588035583" lon="35.123229980">
  <ele>243.829346</ele>
  <time>2011-09-29T05:37:02Z</time>
  <speed>3.180000</speed>
</trkpt>
<trkpt lat="32.588016510" lon="35.123256683">
  <ele>242.778564</ele>
  <time>2011-09-29T05:37:03Z</time>
  <speed>3.250000</speed>
</trkpt>
<trkpt lat="32.587974548" lon="35.123306274">
  <ele>242.028564</ele>
  <time>2011-09-29T05:37:05Z</time>
  <speed>3.780000</speed>
</trkpt>
<trkpt lat="32.587955475" lon="35.123329163">
  <ele>241.895752</ele>
  <time>2011-09-29T05:37:06Z</time>
  <speed>3.370000</speed>
</trkpt>
<trkpt lat="32.587928772" lon="35.123367310">
  <ele>241.473877</ele>
  <time>2011-09-29T05:37:07Z</time>
  <speed>3.840000</speed>
</trkpt>
<trkpt lat="32.587909698" lon="35.123405457">
  <ele>241.505127</ele>
  <time>2011-09-29T05:37:08Z</time>
  <speed>3.610000</speed>
</trkpt>
<trkpt lat="32.587890625" lon="35.123439789">
  <ele>240.911377</ele>
  <time>2011-09-29T05:37:09Z</time>
  <speed>3.360000</speed>
</trkpt>
<trkpt lat="32.587871552" lon="35.123474121">
  <ele>240.848877</ele>
  <time>2011-09-29T05:37:10Z</time>
  <speed>3.160000</speed>
</trkpt>
<trkpt lat="32.587856293" lon="35.123504639">
  <ele>240.657471</ele>
  <time>2011-09-29T05:37:11Z</time>
  <speed>3.110000</speed>
</trkpt>
<trkpt lat="32.587837219" lon="35.123546600">
  <ele>240.731689</ele>
  <time>2011-09-29T05:37:12Z</time>
  <speed>2.870000</speed>
</trkpt>
<trkpt lat="32.587818146" lon="35.123577118">
  <ele>240.473877</ele>
  <time>2011-09-29T05:37:13Z</time>
  <speed>2.410000</speed>
</trkpt>
<trkpt lat="32.587799072" lon="35.123634338">
  <ele>240.602783</ele>
  <time>2011-09-29T05:37:15Z</time>
  <speed>1.990000</speed>
</trkpt>
<trkpt lat="32.587787628" lon="35.123683929">
  <ele>240.618408</ele>
  <time>2011-09-29T05:37:17Z</time>
  <speed>1.980000</speed>
</trkpt>
<trkpt lat="32.587768555" lon="35.123729706">
  <ele>240.915283</ele>
  <time>2011-09-29T05:37:19Z</time>
  <speed>1.540000</speed>
</trkpt>
<trkpt lat="32.587749481" lon="35.123767853">
  <ele>241.544189</ele>
  <time>2011-09-29T05:37:21Z</time>
  <speed>1.800000</speed>
</trkpt>
<trkpt lat="32.587734222" lon="35.123817444">
  <ele>241.044189</ele>
  <time>2011-09-29T05:37:23Z</time>
  <speed>2.090000</speed>
</trkpt>
<trkpt lat="32.587722778" lon="35.123867035">
  <ele>240.708252</ele>
  <time>2011-09-29T05:37:25Z</time>
  <speed>1.770000</speed>
</trkpt>
<trkpt lat="32.587711334" lon="35.123897552">
  <ele>241.216064</ele>
  <time>2011-09-29T05:37:26Z</time>
  <speed>1.860000</speed>
</trkpt>
<trkpt lat="32.587692261" lon="35.123943329">
  <ele>240.899658</ele>
  <time>2011-09-29T05:37:28Z</time>
  <speed>2.020000</speed>
</trkpt>
<trkpt lat="32.587661743" lon="35.123989105">
  <ele>240.673096</ele>
  <time>2011-09-29T05:37:30Z</time>
  <speed>2.330000</speed>
</trkpt>
<trkpt lat="32.587638855" lon="35.124042511">
  <ele>240.317627</ele>
  <time>2011-09-29T05:37:32Z</time>
  <speed>1.870000</speed>
</trkpt>
<trkpt lat="32.587615967" lon="35.124084473">
  <ele>240.567627</ele>
  <time>2011-09-29T05:37:34Z</time>
  <speed>1.530000</speed>
</trkpt>
<trkpt lat="32.587600708" lon="35.124134064">
  <ele>241.145752</ele>
  <time>2011-09-29T05:37:36Z</time>
  <speed>1.890000</speed>
</trkpt>
<trkpt lat="32.587589264" lon="35.124172211">
  <ele>241.969971</ele>
  <time>2011-09-29T05:37:38Z</time>
  <speed>1.920000</speed>
</trkpt>
<trkpt lat="32.587585449" lon="35.124221802">
  <ele>242.227783</ele>
  <time>2011-09-29T05:37:40Z</time>
  <speed>1.550000</speed>
</trkpt>
<trkpt lat="32.587577820" lon="35.124256134">
  <ele>242.575439</ele>
  <time>2011-09-29T05:37:42Z</time>
  <speed>1.520000</speed>
</trkpt>
<trkpt lat="32.587581635" lon="35.124313354">
  <ele>242.903564</ele>
  <time>2011-09-29T05:37:44Z</time>
  <speed>1.880000</speed>
</trkpt>
<trkpt lat="32.587577820" lon="35.124359131">
  <ele>242.427002</ele>
  <time>2011-09-29T05:37:46Z</time>
  <speed>1.930000</speed>
</trkpt>
<trkpt lat="32.587589264" lon="35.124397278">
  <ele>243.079346</ele>
  <time>2011-09-29T05:37:48Z</time>
  <speed>1.730000</speed>
</trkpt>
<trkpt lat="32.587593079" lon="35.124439240">
  <ele>243.255127</ele>
  <time>2011-09-29T05:37:50Z</time>
  <speed>1.910000</speed>
</trkpt>
<trkpt lat="32.587604523" lon="35.124477386">
  <ele>243.399658</ele>
  <time>2011-09-29T05:37:52Z</time>
  <speed>1.870000</speed>
</trkpt>
<trkpt lat="32.587615967" lon="35.124515533">
  <ele>244.805908</ele>
  <time>2011-09-29T05:37:54Z</time>
  <speed>1.640000</speed>
</trkpt>
<trkpt lat="32.587615967" lon="35.124557495">
  <ele>245.294189</ele>
  <time>2011-09-29T05:37:56Z</time>
  <speed>1.560000</speed>
</trkpt>
<trkpt lat="32.587623596" lon="35.124591827">
  <ele>245.969971</ele>
  <time>2011-09-29T05:37:58Z</time>
  <speed>1.720000</speed>
</trkpt>
<trkpt lat="32.587631226" lon="35.124633789">
  <ele>246.696533</ele>
  <time>2011-09-29T05:38:00Z</time>
  <speed>1.860000</speed>
</trkpt>
<trkpt lat="32.587635040" lon="35.124675751">
  <ele>247.188721</ele>
  <time>2011-09-29T05:38:02Z</time>
  <speed>1.760000</speed>
</trkpt>
<trkpt lat="32.587623596" lon="35.124713898">
  <ele>247.719971</ele>
  <time>2011-09-29T05:38:05Z</time>
  <speed>1.280000</speed>
</trkpt>
<trkpt lat="32.587612152" lon="35.124752045">
  <ele>248.380127</ele>
  <time>2011-09-29T05:38:08Z</time>
  <speed>1.330000</speed>
</trkpt>
<trkpt lat="32.587596893" lon="35.124782562">
  <ele>248.864502</ele>
  <time>2011-09-29T05:38:10Z</time>
  <speed>1.490000</speed>
</trkpt>
<trkpt lat="32.587577820" lon="35.124805450">
  <ele>249.255127</ele>
  <time>2011-09-29T05:38:12Z</time>
  <speed>1.490000</speed>
</trkpt>
<trkpt lat="32.587547302" lon="35.124824524">
  <ele>249.153564</ele>
  <time>2011-09-29T05:38:14Z</time>
  <speed>1.770000</speed>
</trkpt>
<trkpt lat="32.587516785" lon="35.124847412">
  <ele>250.137939</ele>
  <time>2011-09-29T05:38:16Z</time>
  <speed>2.340000</speed>
</trkpt>
<trkpt lat="32.587493896" lon="35.124870300">
  <ele>249.247314</ele>
  <time>2011-09-29T05:38:17Z</time>
  <speed>2.820000</speed>
</trkpt>
<trkpt lat="32.587471008" lon="35.124889374">
  <ele>248.548096</ele>
  <time>2011-09-29T05:38:18Z</time>
  <speed>2.970000</speed>
</trkpt>
<trkpt lat="32.587421417" lon="35.124931335">
  <ele>249.227783</ele>
  <time>2011-09-29T05:38:20Z</time>
  <speed>4.160000</speed>
</trkpt>
<trkpt lat="32.587387085" lon="35.124958038">
  <ele>249.044189</ele>
  <time>2011-09-29T05:38:21Z</time>
  <speed>4.780000</speed>
</trkpt>
<trkpt lat="32.587352753" lon="35.124988556">
  <ele>248.946533</ele>
  <time>2011-09-29T05:38:22Z</time>
  <speed>4.840000</speed>
</trkpt>
<trkpt lat="32.587318420" lon="35.125022888">
  <ele>249.067627</ele>
  <time>2011-09-29T05:38:23Z</time>
  <speed>5.160000</speed>
</trkpt>
<trkpt lat="32.587280273" lon="35.125057220">
  <ele>248.477783</ele>
  <time>2011-09-29T05:38:24Z</time>
  <speed>5.220000</speed>
</trkpt>
<trkpt lat="32.587245941" lon="35.125099182">
  <ele>248.157471</ele>
  <time>2011-09-29T05:38:25Z</time>
  <speed>5.230000</speed>
</trkpt>
<trkpt lat="32.587203979" lon="35.125137329">
  <ele>247.606689</ele>
  <time>2011-09-29T05:38:26Z</time>
  <speed>5.250000</speed>
</trkpt>
<trkpt lat="32.587177277" lon="35.125183105">
  <ele>247.005127</ele>
  <time>2011-09-29T05:38:27Z</time>
  <speed>4.340000</speed>
</trkpt>
<trkpt lat="32.587146759" lon="35.125232697">
  <ele>247.243408</ele>
  <time>2011-09-29T05:38:28Z</time>
  <speed>5.280000</speed>
</trkpt>
<trkpt lat="32.587112427" lon="35.125267029">
  <ele>246.938721</ele>
  <time>2011-09-29T05:38:29Z</time>
  <speed>4.170000</speed>
</trkpt>
<trkpt lat="32.587089539" lon="35.125297546">
  <ele>246.794189</ele>
  <time>2011-09-29T05:38:30Z</time>
  <speed>3.430000</speed>
</trkpt>
<trkpt lat="32.587059021" lon="35.125328064">
  <ele>246.860596</ele>
  <time>2011-09-29T05:38:31Z</time>
  <speed>3.230000</speed>
</trkpt>
<trkpt lat="32.587028503" lon="35.125373840">
  <ele>247.110596</ele>
  <time>2011-09-29T05:38:32Z</time>
  <speed>3.610000</speed>
</trkpt>
<trkpt lat="32.587005615" lon="35.125404358">
  <ele>246.938721</ele>
  <time>2011-09-29T05:38:33Z</time>
  <speed>3.360000</speed>
</trkpt>
<trkpt lat="32.586986542" lon="35.125431061">
  <ele>247.083252</ele>
  <time>2011-09-29T05:38:34Z</time>
  <speed>2.790000</speed>
</trkpt>
<trkpt lat="32.586944580" lon="35.125465393">
  <ele>247.270752</ele>
  <time>2011-09-29T05:38:36Z</time>
  <speed>2.360000</speed>
</trkpt>
<trkpt lat="32.586902618" lon="35.125507355">
  <ele>247.329346</ele>
  <time>2011-09-29T05:38:38Z</time>
  <speed>2.680000</speed>
</trkpt>
<trkpt lat="32.586872101" lon="35.125556946">
  <ele>247.657471</ele>
  <time>2011-09-29T05:38:40Z</time>
  <speed>2.740000</speed>
</trkpt>
<trkpt lat="32.586845398" lon="35.125602722">
  <ele>247.532471</ele>
  <time>2011-09-29T05:38:42Z</time>
  <speed>1.990000</speed>
</trkpt>
<trkpt lat="32.586822510" lon="35.125629425">
  <ele>247.571533</ele>
  <time>2011-09-29T05:38:43Z</time>
  <speed>2.000000</speed>
</trkpt>
<trkpt lat="32.586795807" lon="35.125667572">
  <ele>247.626221</ele>
  <time>2011-09-29T05:38:45Z</time>
  <speed>1.990000</speed>
</trkpt>
<trkpt lat="32.586772919" lon="35.125694275">
  <ele>247.466064</ele>
  <time>2011-09-29T05:38:47Z</time>
  <speed>1.170000</speed>
</trkpt>
<trkpt lat="32.586738586" lon="35.125724792">
  <ele>247.548096</ele>
  <time>2011-09-29T05:38:50Z</time>
  <speed>1.880000</speed>
</trkpt>
<trkpt lat="32.586711884" lon="35.125740051">
  <ele>247.587158</ele>
  <time>2011-09-29T05:38:51Z</time>
  <speed>2.140000</speed>
</trkpt>
<trkpt lat="32.586681366" lon="35.125755310">
  <ele>247.075439</ele>
  <time>2011-09-29T05:38:53Z</time>
  <speed>2.120000</speed>
</trkpt>
<trkpt lat="32.586643219" lon="35.125782013">
  <ele>246.919189</ele>
  <time>2011-09-29T05:38:54Z</time>
  <speed>3.920000</speed>
</trkpt>
<trkpt lat="32.586605072" lon="35.125793457">
  <ele>246.587158</ele>
  <time>2011-09-29T05:38:55Z</time>
  <speed>4.250000</speed>
</trkpt>
<trkpt lat="32.586574554" lon="35.125801086">
  <ele>246.395752</ele>
  <time>2011-09-29T05:38:56Z</time>
  <speed>3.120000</speed>
</trkpt>
<trkpt lat="32.586540222" lon="35.125801086">
  <ele>246.270752</ele>
  <time>2011-09-29T05:38:57Z</time>
  <speed>3.950000</speed>
</trkpt>
<trkpt lat="32.586498260" lon="35.125801086">
  <ele>246.083252</ele>
  <time>2011-09-29T05:38:58Z</time>
  <speed>3.990000</speed>
</trkpt>
<trkpt lat="32.586463928" lon="35.125808716">
  <ele>245.864502</ele>
  <time>2011-09-29T05:38:59Z</time>
  <speed>3.170000</speed>
</trkpt>
<trkpt lat="32.586441040" lon="35.125820160">
  <ele>245.899658</ele>
  <time>2011-09-29T05:39:00Z</time>
  <speed>2.940000</speed>
</trkpt>
<trkpt lat="32.586395264" lon="35.125858307">
  <ele>245.700439</ele>
  <time>2011-09-29T05:39:01Z</time>
  <speed>5.030000</speed>
</trkpt>
<trkpt lat="32.586307526" lon="35.125938416">
  <ele>245.235596</ele>
  <time>2011-09-29T05:39:02Z</time>
  <speed>5.640000</speed>
</trkpt>
<trkpt lat="32.586254120" lon="35.125991821">
  <ele>245.016846</ele>
  <time>2011-09-29T05:39:03Z</time>
  <speed>5.320000</speed>
</trkpt>
<trkpt lat="32.586215973" lon="35.126018524">
  <ele>245.341064</ele>
  <time>2011-09-29T05:39:04Z</time>
  <speed>4.000000</speed>
</trkpt>
<trkpt lat="32.586189270" lon="35.126045227">
  <ele>245.344971</ele>
  <time>2011-09-29T05:39:05Z</time>
  <speed>2.320000</speed>
</trkpt>
<trkpt lat="32.586162567" lon="35.126071930">
  <ele>245.278564</ele>
  <time>2011-09-29T05:39:07Z</time>
  <speed>1.530000</speed>
</trkpt>
<trkpt lat="32.586143494" lon="35.126098633">
  <ele>245.286377</ele>
  <time>2011-09-29T05:39:09Z</time>
  <speed>1.110000</speed>
</trkpt>
<trkpt lat="32.586132050" lon="35.126132965">
  <ele>245.407471</ele>
  <time>2011-09-29T05:39:10Z</time>
  <speed>1.540000</speed>
</trkpt>
<trkpt lat="32.586116791" lon="35.126159668">
  <ele>245.286377</ele>
  <time>2011-09-29T05:39:11Z</time>
  <speed>1.410000</speed>
</trkpt>
<trkpt lat="32.586097717" lon="35.126197815">
  <ele>245.137939</ele>
  <time>2011-09-29T05:39:14Z</time>
  <speed>1.340000</speed>
</trkpt>
<trkpt lat="32.586074829" lon="35.126228333">
  <ele>245.473877</ele>
  <time>2011-09-29T05:39:16Z</time>
  <speed>1.710000</speed>
</trkpt>
<trkpt lat="32.586044312" lon="35.126277924">
  <ele>246.009033</ele>
  <time>2011-09-29T05:39:18Z</time>
  <speed>1.790000</speed>
</trkpt>
<trkpt lat="32.586032867" lon="35.126331329">
  <ele>246.493408</ele>
  <time>2011-09-29T05:39:20Z</time>
  <speed>1.660000</speed>
</trkpt>
<trkpt lat="32.586013794" lon="35.126365662">
  <ele>246.821533</ele>
  <time>2011-09-29T05:39:21Z</time>
  <speed>1.770000</speed>
</trkpt>
<trkpt lat="32.585994720" lon="35.126392365">
  <ele>247.024658</ele>
  <time>2011-09-29T05:39:23Z</time>
  <speed>1.480000</speed>
</trkpt>
<trkpt lat="32.585983276" lon="35.126419067">
  <ele>247.298096</ele>
  <time>2011-09-29T05:39:25Z</time>
  <speed>1.180000</speed>
</trkpt>
<trkpt lat="32.585952759" lon="35.126457214">
  <ele>247.716064</ele>
  <time>2011-09-29T05:39:27Z</time>
  <speed>1.490000</speed>
</trkpt>
<trkpt lat="32.585918427" lon="35.126472473">
  <ele>248.169189</ele>
  <time>2011-09-29T05:39:29Z</time>
  <speed>1.490000</speed>
</trkpt>
<trkpt lat="32.585903168" lon="35.126502991">
  <ele>248.415283</ele>
  <time>2011-09-29T05:39:31Z</time>
  <speed>1.330000</speed>
</trkpt>
<trkpt lat="32.585876465" lon="35.126541138">
  <ele>248.696533</ele>
  <time>2011-09-29T05:39:34Z</time>
  <speed>1.450000</speed>
</trkpt>
<trkpt lat="32.585842133" lon="35.126583099">
  <ele>248.575439</ele>
  <time>2011-09-29T05:39:36Z</time>
  <speed>2.170000</speed>
</trkpt>
<trkpt lat="32.585811615" lon="35.126621246">
  <ele>249.157471</ele>
  <time>2011-09-29T05:39:38Z</time>
  <speed>2.270000</speed>
</trkpt>
<trkpt lat="32.585777283" lon="35.126659393">
  <ele>250.091064</ele>
  <time>2011-09-29T05:39:40Z</time>
  <speed>2.070000</speed>
</trkpt>
<trkpt lat="32.585746765" lon="35.126689911">
  <ele>251.173096</ele>
  <time>2011-09-29T05:39:42Z</time>
  <speed>1.900000</speed>
</trkpt>
<trkpt lat="32.585720062" lon="35.126724243">
  <ele>251.149658</ele>
  <time>2011-09-29T05:39:44Z</time>
  <speed>2.170000</speed>
</trkpt>
<trkpt lat="32.585689545" lon="35.126758575">
  <ele>251.794189</ele>
  <time>2011-09-29T05:39:46Z</time>
  <speed>2.000000</speed>
</trkpt>
<trkpt lat="32.585662842" lon="35.126789093">
  <ele>252.212158</ele>
  <time>2011-09-29T05:39:48Z</time>
  <speed>1.730000</speed>
</trkpt>
<trkpt lat="32.585628510" lon="35.126815796">
  <ele>252.755127</ele>
  <time>2011-09-29T05:39:50Z</time>
  <speed>1.420000</speed>
</trkpt>
<trkpt lat="32.585601807" lon="35.126846313">
  <ele>253.696533</ele>
  <time>2011-09-29T05:39:52Z</time>
  <speed>1.910000</speed>
</trkpt>
<trkpt lat="32.585575104" lon="35.126884460">
  <ele>253.884033</ele>
  <time>2011-09-29T05:39:54Z</time>
  <speed>1.920000</speed>
</trkpt>
<trkpt lat="32.585552216" lon="35.126903534">
  <ele>254.262939</ele>
  <time>2011-09-29T05:39:56Z</time>
  <speed>1.420000</speed>
</trkpt>
<trkpt lat="32.585517883" lon="35.126930237">
  <ele>254.622314</ele>
  <time>2011-09-29T05:39:58Z</time>
  <speed>1.570000</speed>
</trkpt>
<trkpt lat="32.585479736" lon="35.126953125">
  <ele>255.005127</ele>
  <time>2011-09-29T05:40:00Z</time>
  <speed>1.760000</speed>
</trkpt>
<trkpt lat="32.585453033" lon="35.126976013">
  <ele>255.282471</ele>
  <time>2011-09-29T05:40:02Z</time>
  <speed>1.750000</speed>
</trkpt>
<trkpt lat="32.585422516" lon="35.126995087">
  <ele>255.532471</ele>
  <time>2011-09-29T05:40:04Z</time>
  <speed>1.480000</speed>
</trkpt>
<trkpt lat="32.585388184" lon="35.127017975">
  <ele>255.696533</ele>
  <time>2011-09-29T05:40:06Z</time>
  <speed>1.660000</speed>
</trkpt>
<trkpt lat="32.585376740" lon="35.127052307">
  <ele>255.887939</ele>
  <time>2011-09-29T05:40:08Z</time>
  <speed>1.350000</speed>
</trkpt>
<trkpt lat="32.585353851" lon="35.127079010">
  <ele>256.424316</ele>
  <time>2011-09-29T05:40:10Z</time>
  <speed>1.090000</speed>
</trkpt>
<trkpt lat="32.585342407" lon="35.127109528">
  <ele>256.939941</ele>
  <time>2011-09-29T05:40:12Z</time>
  <speed>0.930000</speed>
</trkpt>
<trkpt lat="32.585300446" lon="35.127170563">
  <ele>258.033691</ele>
  <time>2011-09-29T05:40:14Z</time>
  <speed>1.990000</speed>
</trkpt>
<trkpt lat="32.585277557" lon="35.127201080">
  <ele>258.268066</ele>
  <time>2011-09-29T05:40:16Z</time>
  <speed>2.200000</speed>
</trkpt>
<trkpt lat="32.585239410" lon="35.127223969">
  <ele>258.760254</ele>
  <time>2011-09-29T05:40:18Z</time>
  <speed>1.570000</speed>
</trkpt>
<trkpt lat="32.585224152" lon="35.127254486">
  <ele>259.354004</ele>
  <time>2011-09-29T05:40:20Z</time>
  <speed>1.370000</speed>
</trkpt>
<trkpt lat="32.585193634" lon="35.127277374">
  <ele>259.861816</ele>
  <time>2011-09-29T05:40:21Z</time>
  <speed>1.830000</speed>
</trkpt>
<trkpt lat="32.585163116" lon="35.127307892">
  <ele>260.244629</ele>
  <time>2011-09-29T05:40:23Z</time>
  <speed>1.900000</speed>
</trkpt>
<trkpt lat="32.585132599" lon="35.127353668">
  <ele>260.986816</ele>
  <time>2011-09-29T05:40:25Z</time>
  <speed>2.580000</speed>
</trkpt>
<trkpt lat="32.585086823" lon="35.127388000">
  <ele>261.908691</ele>
  <time>2011-09-29T05:40:27Z</time>
  <speed>2.570000</speed>
</trkpt>
<trkpt lat="32.585071564" lon="35.127437592">
  <ele>262.635254</ele>
  <time>2011-09-29T05:40:29Z</time>
  <speed>2.260000</speed>
</trkpt>
<trkpt lat="32.585033417" lon="35.127471924">
  <ele>263.697754</ele>
  <time>2011-09-29T05:40:31Z</time>
  <speed>2.420000</speed>
</trkpt>
<trkpt lat="32.584999084" lon="35.127513885">
  <ele>264.588379</ele>
  <time>2011-09-29T05:40:33Z</time>
  <speed>2.350000</speed>
</trkpt>
<trkpt lat="32.584949493" lon="35.127559662">
  <ele>265.713379</ele>
  <time>2011-09-29T05:40:35Z</time>
  <speed>2.110000</speed>
</trkpt>
<trkpt lat="32.584922791" lon="35.127593994">
  <ele>266.635254</ele>
  <time>2011-09-29T05:40:37Z</time>
  <speed>2.140000</speed>
</trkpt>
<trkpt lat="32.584880829" lon="35.127609253">
  <ele>267.721191</ele>
  <time>2011-09-29T05:40:39Z</time>
  <speed>2.110000</speed>
</trkpt>
<trkpt lat="32.584857941" lon="35.127624512">
  <ele>268.924316</ele>
  <time>2011-09-29T05:40:41Z</time>
  <speed>1.350000</speed>
</trkpt>
<trkpt lat="32.584823608" lon="35.127647400">
  <ele>270.533691</ele>
  <time>2011-09-29T05:40:44Z</time>
  <speed>1.260000</speed>
</trkpt>
<trkpt lat="32.584796906" lon="35.127662659">
  <ele>271.588379</ele>
  <time>2011-09-29T05:40:46Z</time>
  <speed>1.150000</speed>
</trkpt>
<trkpt lat="32.584762573" lon="35.127677917">
  <ele>272.244629</ele>
  <time>2011-09-29T05:40:48Z</time>
  <speed>1.140000</speed>
</trkpt>
<trkpt lat="32.584732056" lon="35.127689362">
  <ele>272.994629</ele>
  <time>2011-09-29T05:40:50Z</time>
  <speed>1.180000</speed>
</trkpt>
<trkpt lat="32.584690094" lon="35.127712250">
  <ele>274.096191</ele>
  <time>2011-09-29T05:40:52Z</time>
  <speed>1.830000</speed>
</trkpt>
<trkpt lat="32.584648132" lon="35.127731323">
  <ele>274.658691</ele>
  <time>2011-09-29T05:40:54Z</time>
  <speed>2.000000</speed>
</trkpt>
<trkpt lat="32.584617615" lon="35.127761841">
  <ele>275.424316</ele>
  <time>2011-09-29T05:40:56Z</time>
  <speed>1.560000</speed>
</trkpt>
<trkpt lat="32.584571838" lon="35.127788544">
  <ele>276.385254</ele>
  <time>2011-09-29T05:40:58Z</time>
  <speed>2.130000</speed>
</trkpt>
<trkpt lat="32.584533691" lon="35.127811432">
  <ele>276.635254</ele>
  <time>2011-09-29T05:41:00Z</time>
  <speed>1.480000</speed>
</trkpt>
<trkpt lat="32.584499359" lon="35.127849579">
  <ele>277.111816</ele>
  <time>2011-09-29T05:41:02Z</time>
  <speed>2.310000</speed>
</trkpt>
<trkpt lat="32.584461212" lon="35.127872467">
  <ele>277.518066</ele>
  <time>2011-09-29T05:41:04Z</time>
  <speed>2.100000</speed>
</trkpt>
<trkpt lat="32.584415436" lon="35.127895355">
  <ele>278.127441</ele>
  <time>2011-09-29T05:41:06Z</time>
  <speed>1.900000</speed>
</trkpt>
<trkpt lat="32.584388733" lon="35.127929688">
  <ele>278.463379</ele>
  <time>2011-09-29T05:41:08Z</time>
  <speed>1.990000</speed>
</trkpt>
<trkpt lat="32.584358215" lon="35.127956390">
  <ele>278.916504</ele>
  <time>2011-09-29T05:41:09Z</time>
  <speed>2.000000</speed>
</trkpt>
<trkpt lat="32.584304810" lon="35.128013611">
  <ele>279.635254</ele>
  <time>2011-09-29T05:41:11Z</time>
  <speed>1.860000</speed>
</trkpt>
<trkpt lat="32.584274292" lon="35.128047943">
  <ele>280.393066</ele>
  <time>2011-09-29T05:41:13Z</time>
  <speed>1.830000</speed>
</trkpt>
<trkpt lat="32.584251404" lon="35.128078461">
  <ele>280.791504</ele>
  <time>2011-09-29T05:41:15Z</time>
  <speed>1.470000</speed>
</trkpt>
<trkpt lat="32.584220886" lon="35.128101349">
  <ele>281.314941</ele>
  <time>2011-09-29T05:41:17Z</time>
  <speed>1.460000</speed>
</trkpt>
<trkpt lat="32.584205627" lon="35.128131866">
  <ele>281.854004</ele>
  <time>2011-09-29T05:41:18Z</time>
  <speed>1.690000</speed>
</trkpt>
<trkpt lat="32.584175110" lon="35.128158569">
  <ele>281.939941</ele>
  <time>2011-09-29T05:41:20Z</time>
  <speed>1.400000</speed>
</trkpt>
<trkpt lat="32.584156036" lon="35.128196716">
  <ele>282.252441</ele>
  <time>2011-09-29T05:41:22Z</time>
  <speed>1.830000</speed>
</trkpt>
<trkpt lat="32.584125519" lon="35.128227234">
  <ele>282.166504</ele>
  <time>2011-09-29T05:41:24Z</time>
  <speed>1.630000</speed>
</trkpt>
<trkpt lat="32.584091187" lon="35.128269196">
  <ele>281.744629</ele>
  <time>2011-09-29T05:41:26Z</time>
  <speed>2.140000</speed>
</trkpt>
<trkpt lat="32.584068298" lon="35.128292084">
  <ele>281.705566</ele>
  <time>2011-09-29T05:41:27Z</time>
  <speed>2.350000</speed>
</trkpt>
<trkpt lat="32.584053040" lon="35.128318787">
  <ele>281.916504</ele>
  <time>2011-09-29T05:41:28Z</time>
  <speed>2.420000</speed>
</trkpt>
<trkpt lat="32.584007263" lon="35.128372192">
  <ele>282.033691</ele>
  <time>2011-09-29T05:41:30Z</time>
  <speed>1.960000</speed>
</trkpt>
<trkpt lat="32.583992004" lon="35.128417969">
  <ele>282.189941</ele>
  <time>2011-09-29T05:41:32Z</time>
  <speed>2.140000</speed>
</trkpt>
<trkpt lat="32.583969116" lon="35.128463745">
  <ele>282.533691</ele>
  <time>2011-09-29T05:41:34Z</time>
  <speed>2.300000</speed>
</trkpt>
<trkpt lat="32.583946228" lon="35.128513336">
  <ele>282.682129</ele>
  <time>2011-09-29T05:41:36Z</time>
  <speed>2.130000</speed>
</trkpt>
<trkpt lat="32.583923340" lon="35.128566742">
  <ele>282.760254</ele>
  <time>2011-09-29T05:41:38Z</time>
  <speed>2.150000</speed>
</trkpt>
<trkpt lat="32.583908081" lon="35.128620148">
  <ele>283.057129</ele>
  <time>2011-09-29T05:41:40Z</time>
  <speed>2.120000</speed>
</trkpt>
<trkpt lat="32.583885193" lon="35.128658295">
  <ele>283.377441</ele>
  <time>2011-09-29T05:41:42Z</time>
  <speed>1.440000</speed>
</trkpt>
<trkpt lat="32.583862305" lon="35.128704071">
  <ele>284.666504</ele>
  <time>2011-09-29T05:41:44Z</time>
  <speed>1.670000</speed>
</trkpt>
<trkpt lat="32.583831787" lon="35.128761292">
  <ele>284.385254</ele>
  <time>2011-09-29T05:41:46Z</time>
  <speed>2.340000</speed>
</trkpt>
<trkpt lat="32.583820343" lon="35.128791809">
  <ele>284.697754</ele>
  <time>2011-09-29T05:41:47Z</time>
  <speed>2.600000</speed>
</trkpt>
<trkpt lat="32.583805084" lon="35.128822327">
  <ele>285.127441</ele>
  <time>2011-09-29T05:41:48Z</time>
  <speed>2.620000</speed>
</trkpt>
<trkpt lat="32.583797455" lon="35.128856659">
  <ele>285.580566</ele>
  <time>2011-09-29T05:41:49Z</time>
  <speed>2.370000</speed>
</trkpt>
<trkpt lat="32.583782196" lon="35.128890991">
  <ele>285.080566</ele>
  <time>2011-09-29T05:41:50Z</time>
  <speed>2.310000</speed>
</trkpt>
<trkpt lat="32.583740234" lon="35.128971100">
  <ele>282.822754</ele>
  <time>2011-09-29T05:41:52Z</time>
  <speed>2.990000</speed>
</trkpt>
<trkpt lat="32.583724976" lon="35.129005432">
  <ele>282.283691</ele>
  <time>2011-09-29T05:41:53Z</time>
  <speed>2.830000</speed>
</trkpt>
<trkpt lat="32.583709717" lon="35.129039764">
  <ele>281.252441</ele>
  <time>2011-09-29T05:41:54Z</time>
  <speed>2.070000</speed>
</trkpt>
<trkpt lat="32.583698273" lon="35.129070282">
  <ele>280.791504</ele>
  <time>2011-09-29T05:41:55Z</time>
  <speed>2.110000</speed>
</trkpt>
<trkpt lat="32.583667755" lon="35.129123688">
  <ele>280.572754</ele>
  <time>2011-09-29T05:41:57Z</time>
  <speed>2.380000</speed>
</trkpt>
<trkpt lat="32.583652496" lon="35.129154205">
  <ele>279.643066</ele>
  <time>2011-09-29T05:41:58Z</time>
  <speed>2.340000</speed>
</trkpt>
<trkpt lat="32.583629608" lon="35.129203796">
  <ele>278.979004</ele>
  <time>2011-09-29T05:42:00Z</time>
  <speed>2.210000</speed>
</trkpt>
<trkpt lat="32.583599091" lon="35.129226685">
  <ele>279.143066</ele>
  <time>2011-09-29T05:42:01Z</time>
  <speed>2.080000</speed>
</trkpt>
<trkpt lat="32.583587646" lon="35.129276276">
  <ele>278.525879</ele>
  <time>2011-09-29T05:42:03Z</time>
  <speed>2.320000</speed>
</trkpt>
<trkpt lat="32.583564758" lon="35.129329681">
  <ele>277.986816</ele>
  <time>2011-09-29T05:42:05Z</time>
  <speed>2.050000</speed>
</trkpt>
<trkpt lat="32.583560944" lon="35.129379272">
  <ele>277.166504</ele>
  <time>2011-09-29T05:42:07Z</time>
  <speed>2.400000</speed>
</trkpt>
<trkpt lat="32.583538055" lon="35.129421234">
  <ele>277.182129</ele>
  <time>2011-09-29T05:42:09Z</time>
  <speed>1.990000</speed>
</trkpt>
<trkpt lat="32.583534241" lon="35.129474640">
  <ele>277.650879</ele>
  <time>2011-09-29T05:42:11Z</time>
  <speed>2.050000</speed>
</trkpt>
<trkpt lat="32.583518982" lon="35.129524231">
  <ele>277.400879</ele>
  <time>2011-09-29T05:42:13Z</time>
  <speed>2.190000</speed>
</trkpt>
<trkpt lat="32.583496094" lon="35.129570007">
  <ele>277.346191</ele>
  <time>2011-09-29T05:42:15Z</time>
  <speed>2.000000</speed>
</trkpt>
<trkpt lat="32.583469391" lon="35.129611969">
  <ele>277.307129</ele>
  <time>2011-09-29T05:42:17Z</time>
  <speed>1.810000</speed>
</trkpt>
<trkpt lat="32.583450317" lon="35.129657745">
  <ele>277.650879</ele>
  <time>2011-09-29T05:42:19Z</time>
  <speed>2.220000</speed>
</trkpt>
<trkpt lat="32.583438873" lon="35.129692078">
  <ele>278.236816</ele>
  <time>2011-09-29T05:42:20Z</time>
  <speed>2.080000</speed>
</trkpt>
<trkpt lat="32.583415985" lon="35.129730225">
  <ele>278.041504</ele>
  <time>2011-09-29T05:42:22Z</time>
  <speed>2.010000</speed>
</trkpt>
<trkpt lat="32.583408356" lon="35.129764557">
  <ele>277.939941</ele>
  <time>2011-09-29T05:42:24Z</time>
  <speed>2.170000</speed>
</trkpt>
<trkpt lat="32.583393097" lon="35.129802704">
  <ele>277.314941</ele>
  <time>2011-09-29T05:42:26Z</time>
  <speed>2.090000</speed>
</trkpt>
<trkpt lat="32.583381653" lon="35.129844666">
  <ele>277.033691</ele>
  <time>2011-09-29T05:42:28Z</time>
  <speed>1.700000</speed>
</trkpt>
<trkpt lat="32.583370209" lon="35.129886627">
  <ele>277.486816</ele>
  <time>2011-09-29T05:42:30Z</time>
  <speed>1.950000</speed>
</trkpt>
<trkpt lat="32.583358765" lon="35.129920959">
  <ele>276.986816</ele>
  <time>2011-09-29T05:42:32Z</time>
  <speed>1.420000</speed>
</trkpt>
<trkpt lat="32.583320618" lon="35.129947662">
  <ele>276.666504</ele>
  <time>2011-09-29T05:42:34Z</time>
  <speed>1.770000</speed>
</trkpt>
<trkpt lat="32.583286285" lon="35.129978180">
  <ele>276.877441</ele>
  <time>2011-09-29T05:42:36Z</time>
  <speed>2.150000</speed>
</trkpt>
<trkpt lat="32.583259583" lon="35.130001068">
  <ele>276.877441</ele>
  <time>2011-09-29T05:42:38Z</time>
  <speed>2.380000</speed>
</trkpt>
<trkpt lat="32.583225250" lon="35.130016327">
  <ele>276.955566</ele>
  <time>2011-09-29T05:42:40Z</time>
  <speed>2.090000</speed>
</trkpt>
<trkpt lat="32.583198547" lon="35.130031586">
  <ele>277.150879</ele>
  <time>2011-09-29T05:42:42Z</time>
  <speed>1.460000</speed>
</trkpt>
<trkpt lat="32.583164215" lon="35.130058289">
  <ele>276.760254</ele>
  <time>2011-09-29T05:42:44Z</time>
  <speed>1.470000</speed>
</trkpt>
<trkpt lat="32.583126068" lon="35.130069733">
  <ele>276.916504</ele>
  <time>2011-09-29T05:42:46Z</time>
  <speed>1.710000</speed>
</trkpt>
<trkpt lat="32.583095551" lon="35.130096436">
  <ele>277.291504</ele>
  <time>2011-09-29T05:42:48Z</time>
  <speed>2.020000</speed>
</trkpt>
<trkpt lat="32.583065033" lon="35.130123138">
  <ele>277.057129</ele>
  <time>2011-09-29T05:42:50Z</time>
  <speed>1.710000</speed>
</trkpt>
<trkpt lat="32.583023071" lon="35.130149841">
  <ele>276.432129</ele>
  <time>2011-09-29T05:42:52Z</time>
  <speed>1.540000</speed>
</trkpt>
<trkpt lat="32.582988739" lon="35.130161285">
  <ele>276.041504</ele>
  <time>2011-09-29T05:42:54Z</time>
  <speed>1.320000</speed>
</trkpt>
<trkpt lat="32.582954407" lon="35.130191803">
  <ele>275.893066</ele>
  <time>2011-09-29T05:42:57Z</time>
  <speed>1.770000</speed>
</trkpt>
<trkpt lat="32.582920074" lon="35.130218506">
  <ele>276.322754</ele>
  <time>2011-09-29T05:42:59Z</time>
  <speed>1.770000</speed>
</trkpt>
<trkpt lat="32.582893372" lon="35.130245209">
  <ele>276.229004</ele>
  <time>2011-09-29T05:43:01Z</time>
  <speed>2.010000</speed>
</trkpt>
<trkpt lat="32.582851410" lon="35.130290985">
  <ele>276.729004</ele>
  <time>2011-09-29T05:43:03Z</time>
  <speed>1.980000</speed>
</trkpt>
<trkpt lat="32.582817078" lon="35.130332947">
  <ele>278.072754</ele>
  <time>2011-09-29T05:43:05Z</time>
  <speed>2.020000</speed>
</trkpt>
<trkpt lat="32.582790375" lon="35.130363464">
  <ele>277.854004</ele>
  <time>2011-09-29T05:43:07Z</time>
  <speed>2.140000</speed>
</trkpt>
<trkpt lat="32.582759857" lon="35.130393982">
  <ele>277.799316</ele>
  <time>2011-09-29T05:43:09Z</time>
  <speed>1.820000</speed>
</trkpt>
<trkpt lat="32.582733154" lon="35.130409241">
  <ele>277.729004</ele>
  <time>2011-09-29T05:43:11Z</time>
  <speed>1.760000</speed>
</trkpt>
<trkpt lat="32.582687378" lon="35.130443573">
  <ele>277.533691</ele>
  <time>2011-09-29T05:43:13Z</time>
  <speed>2.080000</speed>
</trkpt>
<trkpt lat="32.582660675" lon="35.130466461">
  <ele>277.283691</ele>
  <time>2011-09-29T05:43:15Z</time>
  <speed>1.620000</speed>
</trkpt>
<trkpt lat="32.582630157" lon="35.130493164">
  <ele>276.736816</ele>
  <time>2011-09-29T05:43:17Z</time>
  <speed>1.820000</speed>
</trkpt>
<trkpt lat="32.582588196" lon="35.130516052">
  <ele>276.424316</ele>
  <time>2011-09-29T05:43:19Z</time>
  <speed>2.080000</speed>
</trkpt>
<trkpt lat="32.582553864" lon="35.130531311">
  <ele>276.119629</ele>
  <time>2011-09-29T05:43:21Z</time>
  <speed>1.790000</speed>
</trkpt>
<trkpt lat="32.582523346" lon="35.130561829">
  <ele>276.127441</ele>
  <time>2011-09-29T05:43:23Z</time>
  <speed>1.750000</speed>
</trkpt>
<trkpt lat="32.582473755" lon="35.130577087">
  <ele>276.299316</ele>
  <time>2011-09-29T05:43:25Z</time>
  <speed>2.420000</speed>
</trkpt>
<trkpt lat="32.582439423" lon="35.130580902">
  <ele>276.135254</ele>
  <time>2011-09-29T05:43:26Z</time>
  <speed>2.220000</speed>
</trkpt>
<trkpt lat="32.582397461" lon="35.130603790">
  <ele>275.854004</ele>
  <time>2011-09-29T05:43:29Z</time>
  <speed>1.820000</speed>
</trkpt>
<trkpt lat="32.582359314" lon="35.130599976">
  <ele>275.525879</ele>
  <time>2011-09-29T05:43:31Z</time>
  <speed>1.570000</speed>
</trkpt>
<trkpt lat="32.582317352" lon="35.130607605">
  <ele>274.963379</ele>
  <time>2011-09-29T05:43:33Z</time>
  <speed>1.660000</speed>
</trkpt>
<trkpt lat="32.582279205" lon="35.130619049">
  <ele>274.463379</ele>
  <time>2011-09-29T05:43:35Z</time>
  <speed>2.180000</speed>
</trkpt>
<trkpt lat="32.582248688" lon="35.130626678">
  <ele>274.799316</ele>
  <time>2011-09-29T05:43:37Z</time>
  <speed>1.730000</speed>
</trkpt>
<trkpt lat="32.582199097" lon="35.130638123">
  <ele>275.885254</ele>
  <time>2011-09-29T05:43:39Z</time>
  <speed>1.850000</speed>
</trkpt>
<trkpt lat="32.582153320" lon="35.130653381">
  <ele>275.893066</ele>
  <time>2011-09-29T05:43:41Z</time>
  <speed>2.470000</speed>
</trkpt>
<trkpt lat="32.582103729" lon="35.130653381">
  <ele>276.338379</ele>
  <time>2011-09-29T05:43:43Z</time>
  <speed>2.380000</speed>
</trkpt>
<trkpt lat="32.582073212" lon="35.130653381">
  <ele>276.791504</ele>
  <time>2011-09-29T05:43:44Z</time>
  <speed>2.130000</speed>
</trkpt>
<trkpt lat="32.582046509" lon="35.130653381">
  <ele>277.291504</ele>
  <time>2011-09-29T05:43:45Z</time>
  <speed>1.980000</speed>
</trkpt>
<trkpt lat="32.582019806" lon="35.130649567">
  <ele>276.986816</ele>
  <time>2011-09-29T05:43:46Z</time>
  <speed>1.760000</speed>
</trkpt>
<trkpt lat="32.581977844" lon="35.130653381">
  <ele>276.572754</ele>
  <time>2011-09-29T05:43:48Z</time>
  <speed>1.520000</speed>
</trkpt>
<trkpt lat="32.581947327" lon="35.130649567">
  <ele>276.822754</ele>
  <time>2011-09-29T05:43:50Z</time>
  <speed>1.580000</speed>
</trkpt>
<trkpt lat="32.581920624" lon="35.130641937">
  <ele>276.439941</ele>
  <time>2011-09-29T05:43:52Z</time>
  <speed>1.430000</speed>
</trkpt>
<trkpt lat="32.581893921" lon="35.130630493">
  <ele>276.869629</ele>
  <time>2011-09-29T05:43:54Z</time>
  <speed>1.600000</speed>
</trkpt>
<trkpt lat="32.581855774" lon="35.130638123">
  <ele>279.447754</ele>
  <time>2011-09-29T05:43:56Z</time>
  <speed>1.510000</speed>
</trkpt>
<trkpt lat="32.581825256" lon="35.130638123">
  <ele>279.768066</ele>
  <time>2011-09-29T05:43:58Z</time>
  <speed>1.480000</speed>
</trkpt>
<trkpt lat="32.581790924" lon="35.130630493">
  <ele>279.955566</ele>
  <time>2011-09-29T05:44:01Z</time>
  <speed>1.450000</speed>
</trkpt>
<trkpt lat="32.581760406" lon="35.130611420">
  <ele>279.854004</ele>
  <time>2011-09-29T05:44:03Z</time>
  <speed>1.770000</speed>
</trkpt>
<trkpt lat="32.581726074" lon="35.130588531">
  <ele>279.838379</ele>
  <time>2011-09-29T05:44:05Z</time>
  <speed>1.520000</speed>
</trkpt>
<trkpt lat="32.581703186" lon="35.130565643">
  <ele>280.650879</ele>
  <time>2011-09-29T05:44:07Z</time>
  <speed>1.980000</speed>
</trkpt>
<trkpt lat="32.581668854" lon="35.130554199">
  <ele>280.650879</ele>
  <time>2011-09-29T05:44:09Z</time>
  <speed>1.690000</speed>
</trkpt>
<trkpt lat="32.581634521" lon="35.130542755">
  <ele>281.689941</ele>
  <time>2011-09-29T05:44:11Z</time>
  <speed>1.840000</speed>
</trkpt>
<trkpt lat="32.581607819" lon="35.130535126">
  <ele>282.564941</ele>
  <time>2011-09-29T05:44:13Z</time>
  <speed>1.510000</speed>
</trkpt>
<trkpt lat="32.581577301" lon="35.130516052">
  <ele>282.346191</ele>
  <time>2011-09-29T05:44:15Z</time>
  <speed>1.830000</speed>
</trkpt>
<trkpt lat="32.581550598" lon="35.130489349">
  <ele>282.854004</ele>
  <time>2011-09-29T05:44:17Z</time>
  <speed>2.090000</speed>
</trkpt>
<trkpt lat="32.581523895" lon="35.130462646">
  <ele>283.104004</ele>
  <time>2011-09-29T05:44:19Z</time>
  <speed>1.840000</speed>
</trkpt>
<trkpt lat="32.581489563" lon="35.130435944">
  <ele>283.354004</ele>
  <time>2011-09-29T05:44:21Z</time>
  <speed>1.900000</speed>
</trkpt>
<trkpt lat="32.581470490" lon="35.130397797">
  <ele>283.814941</ele>
  <time>2011-09-29T05:44:24Z</time>
  <speed>1.520000</speed>
</trkpt>
<trkpt lat="32.581439972" lon="35.130367279">
  <ele>284.189941</ele>
  <time>2011-09-29T05:44:27Z</time>
  <speed>1.570000</speed>
</trkpt>
<trkpt lat="32.581417084" lon="35.130336761">
  <ele>283.854004</ele>
  <time>2011-09-29T05:44:29Z</time>
  <speed>1.500000</speed>
</trkpt>
<trkpt lat="32.581394196" lon="35.130302429">
  <ele>284.338379</ele>
  <time>2011-09-29T05:44:31Z</time>
  <speed>1.570000</speed>
</trkpt>
<trkpt lat="32.581375122" lon="35.130275726">
  <ele>284.916504</ele>
  <time>2011-09-29T05:44:33Z</time>
  <speed>1.490000</speed>
</trkpt>
<trkpt lat="32.581348419" lon="35.130256653">
  <ele>285.197754</ele>
  <time>2011-09-29T05:44:35Z</time>
  <speed>1.800000</speed>
</trkpt>
<trkpt lat="32.581321716" lon="35.130229950">
  <ele>285.627441</ele>
  <time>2011-09-29T05:44:37Z</time>
  <speed>1.580000</speed>
</trkpt>
<trkpt lat="32.581291199" lon="35.130210876">
  <ele>286.072754</ele>
  <time>2011-09-29T05:44:39Z</time>
  <speed>1.780000</speed>
</trkpt>
<trkpt lat="32.581268311" lon="35.130176544">
  <ele>286.689941</ele>
  <time>2011-09-29T05:44:41Z</time>
  <speed>1.700000</speed>
</trkpt>
<trkpt lat="32.581237793" lon="35.130161285">
  <ele>287.627441</ele>
  <time>2011-09-29T05:44:43Z</time>
  <speed>1.570000</speed>
</trkpt>
<trkpt lat="32.581211090" lon="35.130138397">
  <ele>287.346191</ele>
  <time>2011-09-29T05:44:45Z</time>
  <speed>1.750000</speed>
</trkpt>
<trkpt lat="32.581188202" lon="35.130107880">
  <ele>287.322754</ele>
  <time>2011-09-29T05:44:47Z</time>
  <speed>1.440000</speed>
</trkpt>
<trkpt lat="32.581165314" lon="35.130092621">
  <ele>287.166504</ele>
  <time>2011-09-29T05:44:49Z</time>
  <speed>1.430000</speed>
</trkpt>
<trkpt lat="32.581134796" lon="35.130069733">
  <ele>286.541504</ele>
  <time>2011-09-29T05:44:51Z</time>
  <speed>1.770000</speed>
</trkpt>
<trkpt lat="32.581111908" lon="35.130046844">
  <ele>286.916504</ele>
  <time>2011-09-29T05:44:53Z</time>
  <speed>2.110000</speed>
</trkpt>
<trkpt lat="32.581089020" lon="35.130023956">
  <ele>287.197754</ele>
  <time>2011-09-29T05:44:55Z</time>
  <speed>2.140000</speed>
</trkpt>
<trkpt lat="32.581058502" lon="35.129993439">
  <ele>287.986816</ele>
  <time>2011-09-29T05:44:57Z</time>
  <speed>2.130000</speed>
</trkpt>
<trkpt lat="32.581031799" lon="35.129959106">
  <ele>290.322754</ele>
  <time>2011-09-29T05:44:59Z</time>
  <speed>2.130000</speed>
</trkpt>
<trkpt lat="32.581020355" lon="35.129928589">
  <ele>292.635254</ele>
  <time>2011-09-29T05:45:01Z</time>
  <speed>1.830000</speed>
</trkpt>
<trkpt lat="32.581001282" lon="35.129890442">
  <ele>294.572754</ele>
  <time>2011-09-29T05:45:03Z</time>
  <speed>1.830000</speed>
</trkpt>
<trkpt lat="32.580993652" lon="35.129859924">
  <ele>296.064941</ele>
  <time>2011-09-29T05:45:05Z</time>
  <speed>1.750000</speed>
</trkpt>
<trkpt lat="32.580986023" lon="35.129829407">
  <ele>297.221191</ele>
  <time>2011-09-29T05:45:07Z</time>
  <speed>1.590000</speed>
</trkpt>
<trkpt lat="32.580974579" lon="35.129787445">
  <ele>298.291504</ele>
  <time>2011-09-29T05:45:09Z</time>
  <speed>2.000000</speed>
</trkpt>
<trkpt lat="32.580959320" lon="35.129749298">
  <ele>299.760254</ele>
  <time>2011-09-29T05:45:11Z</time>
  <speed>1.940000</speed>
</trkpt>
<trkpt lat="32.580940247" lon="35.129714966">
  <ele>300.822754</ele>
  <time>2011-09-29T05:45:13Z</time>
  <speed>1.990000</speed>
</trkpt>
<trkpt lat="32.580932617" lon="35.129676819">
  <ele>301.814941</ele>
  <time>2011-09-29T05:45:15Z</time>
  <speed>1.680000</speed>
</trkpt>
<trkpt lat="32.580924988" lon="35.129642487">
  <ele>302.260254</ele>
  <time>2011-09-29T05:45:17Z</time>
  <speed>1.640000</speed>
</trkpt>
<trkpt lat="32.580913544" lon="35.129604340">
  <ele>302.783691</ele>
  <time>2011-09-29T05:45:19Z</time>
  <speed>1.630000</speed>
</trkpt>
<trkpt lat="32.580894470" lon="35.129550934">
  <ele>303.721191</ele>
  <time>2011-09-29T05:45:22Z</time>
  <speed>1.540000</speed>
</trkpt>
<trkpt lat="32.580894470" lon="35.129512787">
  <ele>303.643066</ele>
  <time>2011-09-29T05:45:24Z</time>
  <speed>1.730000</speed>
</trkpt>
<trkpt lat="32.580875397" lon="35.129478455">
  <ele>304.611816</ele>
  <time>2011-09-29T05:45:26Z</time>
  <speed>1.380000</speed>
</trkpt>
<trkpt lat="32.580867767" lon="35.129447937">
  <ele>305.205566</ele>
  <time>2011-09-29T05:45:28Z</time>
  <speed>1.610000</speed>
</trkpt>
<trkpt lat="32.580844879" lon="35.129409790">
  <ele>305.400879</ele>
  <time>2011-09-29T05:45:30Z</time>
  <speed>1.800000</speed>
</trkpt>
<trkpt lat="32.580837250" lon="35.129379272">
  <ele>305.471191</ele>
  <time>2011-09-29T05:45:32Z</time>
  <speed>2.040000</speed>
</trkpt>
<trkpt lat="32.580814362" lon="35.129344940">
  <ele>305.635254</ele>
  <time>2011-09-29T05:45:34Z</time>
  <speed>1.660000</speed>
</trkpt>
<trkpt lat="32.580810547" lon="35.129295349">
  <ele>305.674316</ele>
  <time>2011-09-29T05:45:37Z</time>
  <speed>1.290000</speed>
</trkpt>
<trkpt lat="32.580802917" lon="35.129257202">
  <ele>305.580566</ele>
  <time>2011-09-29T05:45:40Z</time>
  <speed>1.390000</speed>
</trkpt>
<trkpt lat="32.580802917" lon="35.129226685">
  <ele>306.111816</ele>
  <time>2011-09-29T05:45:42Z</time>
  <speed>1.500000</speed>
</trkpt>
<trkpt lat="32.580791473" lon="35.129192352">
  <ele>306.533691</ele>
  <time>2011-09-29T05:45:44Z</time>
  <speed>1.300000</speed>
</trkpt>
<trkpt lat="32.580780029" lon="35.129154205">
  <ele>306.643066</ele>
  <time>2011-09-29T05:45:47Z</time>
  <speed>1.300000</speed>
</trkpt>
<trkpt lat="32.580764771" lon="35.129119873">
  <ele>306.924316</ele>
  <time>2011-09-29T05:45:49Z</time>
  <speed>1.340000</speed>
</trkpt>
<trkpt lat="32.580749512" lon="35.129074097">
  <ele>307.197754</ele>
  <time>2011-09-29T05:45:52Z</time>
  <speed>1.320000</speed>
</trkpt>
<trkpt lat="32.580741882" lon="35.129039764">
  <ele>307.705566</ele>
  <time>2011-09-29T05:45:54Z</time>
  <speed>1.480000</speed>
</trkpt>
<trkpt lat="32.580726624" lon="35.129005432">
  <ele>307.330566</ele>
  <time>2011-09-29T05:45:56Z</time>
  <speed>1.270000</speed>
</trkpt>
<trkpt lat="32.580711365" lon="35.128963470">
  <ele>307.924316</ele>
  <time>2011-09-29T05:45:59Z</time>
  <speed>1.430000</speed>
</trkpt>
<trkpt lat="32.580692291" lon="35.128925323">
  <ele>308.291504</ele>
  <time>2011-09-29T05:46:02Z</time>
  <speed>1.200000</speed>
</trkpt>
<trkpt lat="32.580680847" lon="35.128887177">
  <ele>308.432129</ele>
  <time>2011-09-29T05:46:05Z</time>
  <speed>1.550000</speed>
</trkpt>
<trkpt lat="32.580669403" lon="35.128845215">
  <ele>309.018066</ele>
  <time>2011-09-29T05:46:07Z</time>
  <speed>1.320000</speed>
</trkpt>
<trkpt lat="32.580646515" lon="35.128807068">
  <ele>308.494629</ele>
  <time>2011-09-29T05:46:09Z</time>
  <speed>1.750000</speed>
</trkpt>
<trkpt lat="32.580627441" lon="35.128772736">
  <ele>308.057129</ele>
  <time>2011-09-29T05:46:11Z</time>
  <speed>1.760000</speed>
</trkpt>
<trkpt lat="32.580612183" lon="35.128734589">
  <ele>307.838379</ele>
  <time>2011-09-29T05:46:13Z</time>
  <speed>1.630000</speed>
</trkpt>
<trkpt lat="32.580604553" lon="35.128692627">
  <ele>307.229004</ele>
  <time>2011-09-29T05:46:15Z</time>
  <speed>2.000000</speed>
</trkpt>
<trkpt lat="32.580596924" lon="35.128658295">
  <ele>306.260254</ele>
  <time>2011-09-29T05:46:17Z</time>
  <speed>1.040000</speed>
</trkpt>
<trkpt lat="32.580581665" lon="35.128616333">
  <ele>306.447754</ele>
  <time>2011-09-29T05:47:01Z</time>
  <speed>1.980000</speed>
</trkpt>
<trkpt lat="32.580570221" lon="35.128574371">
  <ele>305.979004</ele>
  <time>2011-09-29T05:47:03Z</time>
  <speed>2.350000</speed>
</trkpt>
<trkpt lat="32.580535889" lon="35.128524780">
  <ele>305.346191</ele>
  <time>2011-09-29T05:47:05Z</time>
  <speed>2.970000</speed>
</trkpt>
<trkpt lat="32.580516815" lon="35.128494263">
  <ele>305.127441</ele>
  <time>2011-09-29T05:47:06Z</time>
  <speed>3.370000</speed>
</trkpt>
<trkpt lat="32.580497742" lon="35.128463745">
  <ele>304.924316</ele>
  <time>2011-09-29T05:47:07Z</time>
  <speed>3.640000</speed>
</trkpt>
<trkpt lat="32.580471039" lon="35.128433228">
  <ele>304.775879</ele>
  <time>2011-09-29T05:47:08Z</time>
  <speed>3.740000</speed>
</trkpt>
<trkpt lat="32.580451965" lon="35.128398895">
  <ele>304.494629</ele>
  <time>2011-09-29T05:47:09Z</time>
  <speed>3.700000</speed>
</trkpt>
<trkpt lat="32.580432892" lon="35.128364563">
  <ele>304.424316</ele>
  <time>2011-09-29T05:47:10Z</time>
  <speed>3.880000</speed>
</trkpt>
<trkpt lat="32.580410004" lon="35.128330231">
  <ele>304.260254</ele>
  <time>2011-09-29T05:47:11Z</time>
  <speed>3.600000</speed>
</trkpt>
<trkpt lat="32.580390930" lon="35.128295898">
  <ele>303.979004</ele>
  <time>2011-09-29T05:47:12Z</time>
  <speed>4.250000</speed>
</trkpt>
<trkpt lat="32.580360413" lon="35.128257751">
  <ele>303.893066</ele>
  <time>2011-09-29T05:47:13Z</time>
  <speed>4.650000</speed>
</trkpt>
<trkpt lat="32.580329895" lon="35.128215790">
  <ele>303.729004</ele>
  <time>2011-09-29T05:47:14Z</time>
  <speed>5.040000</speed>
</trkpt>
<trkpt lat="32.580303192" lon="35.128170013">
  <ele>303.580566</ele>
  <time>2011-09-29T05:47:15Z</time>
  <speed>5.240000</speed>
</trkpt>
<trkpt lat="32.580272675" lon="35.128120422">
  <ele>303.275879</ele>
  <time>2011-09-29T05:47:16Z</time>
  <speed>5.220000</speed>
</trkpt>
<trkpt lat="32.580245972" lon="35.128070831">
  <ele>302.627441</ele>
  <time>2011-09-29T05:47:17Z</time>
  <speed>5.640000</speed>
</trkpt>
<trkpt lat="32.580211639" lon="35.128021240">
  <ele>302.439941</ele>
  <time>2011-09-29T05:47:18Z</time>
  <speed>5.640000</speed>
</trkpt>
<trkpt lat="32.580184937" lon="35.127971649">
  <ele>301.775879</ele>
  <time>2011-09-29T05:47:19Z</time>
  <speed>5.410000</speed>
</trkpt>
<trkpt lat="32.580158234" lon="35.127918243">
  <ele>301.518066</ele>
  <time>2011-09-29T05:47:20Z</time>
  <speed>5.300000</speed>
</trkpt>
<trkpt lat="32.580135345" lon="35.127872467">
  <ele>302.025879</ele>
  <time>2011-09-29T05:47:21Z</time>
  <speed>4.980000</speed>
</trkpt>
<trkpt lat="32.580116272" lon="35.127822876">
  <ele>302.236816</ele>
  <time>2011-09-29T05:47:22Z</time>
  <speed>4.610000</speed>
</trkpt>
<trkpt lat="32.580089569" lon="35.127784729">
  <ele>302.119629</ele>
  <time>2011-09-29T05:47:23Z</time>
  <speed>4.190000</speed>
</trkpt>
<trkpt lat="32.580062866" lon="35.127742767">
  <ele>302.541504</ele>
  <time>2011-09-29T05:47:24Z</time>
  <speed>4.230000</speed>
</trkpt>
<trkpt lat="32.580039978" lon="35.127708435">
  <ele>303.174316</ele>
  <time>2011-09-29T05:47:25Z</time>
  <speed>3.940000</speed>
</trkpt>
<trkpt lat="32.580024719" lon="35.127674103">
  <ele>302.596191</ele>
  <time>2011-09-29T05:47:26Z</time>
  <speed>3.590000</speed>
</trkpt>
<trkpt lat="32.580009460" lon="35.127643585">
  <ele>302.361816</ele>
  <time>2011-09-29T05:47:27Z</time>
  <speed>3.510000</speed>
</trkpt>
<trkpt lat="32.579990387" lon="35.127609253">
  <ele>302.127441</ele>
  <time>2011-09-29T05:47:28Z</time>
  <speed>3.360000</speed>
</trkpt>
<trkpt lat="32.579975128" lon="35.127574921">
  <ele>302.033691</ele>
  <time>2011-09-29T05:47:29Z</time>
  <speed>3.330000</speed>
</trkpt>
<trkpt lat="32.579959869" lon="35.127540588">
  <ele>302.455566</ele>
  <time>2011-09-29T05:47:30Z</time>
  <speed>3.530000</speed>
</trkpt>
<trkpt lat="32.579948425" lon="35.127506256">
  <ele>302.439941</ele>
  <time>2011-09-29T05:47:31Z</time>
  <speed>3.400000</speed>
</trkpt>
<trkpt lat="32.579933167" lon="35.127471924">
  <ele>302.502441</ele>
  <time>2011-09-29T05:47:32Z</time>
  <speed>3.720000</speed>
</trkpt>
<trkpt lat="32.579917908" lon="35.127433777">
  <ele>302.908691</ele>
  <time>2011-09-29T05:47:33Z</time>
  <speed>3.560000</speed>
</trkpt>
<trkpt lat="32.579906464" lon="35.127399445">
  <ele>303.166504</ele>
  <time>2011-09-29T05:47:34Z</time>
  <speed>3.360000</speed>
</trkpt>
<trkpt lat="32.579895020" lon="35.127368927">
  <ele>303.510254</ele>
  <time>2011-09-29T05:47:35Z</time>
  <speed>3.210000</speed>
</trkpt>
<trkpt lat="32.579887390" lon="35.127334595">
  <ele>303.205566</ele>
  <time>2011-09-29T05:47:36Z</time>
  <speed>3.230000</speed>
</trkpt>
<trkpt lat="32.579879761" lon="35.127277374">
  <ele>302.713379</ele>
  <time>2011-09-29T05:47:38Z</time>
  <speed>3.180000</speed>
</trkpt>
<trkpt lat="32.579860687" lon="35.127220154">
  <ele>302.088379</ele>
  <time>2011-09-29T05:47:40Z</time>
  <speed>2.950000</speed>
</trkpt>
<trkpt lat="32.579845428" lon="35.127189636">
  <ele>302.080566</ele>
  <time>2011-09-29T05:47:41Z</time>
  <speed>2.940000</speed>
</trkpt>
<trkpt lat="32.579833984" lon="35.127162933">
  <ele>301.760254</ele>
  <time>2011-09-29T05:47:42Z</time>
  <speed>3.130000</speed>
</trkpt>
<trkpt lat="32.579814911" lon="35.127124786">
  <ele>301.979004</ele>
  <time>2011-09-29T05:47:43Z</time>
  <speed>3.350000</speed>
</trkpt>
<trkpt lat="32.579799652" lon="35.127090454">
  <ele>302.064941</ele>
  <time>2011-09-29T05:47:44Z</time>
  <speed>3.320000</speed>
</trkpt>
<trkpt lat="32.579792023" lon="35.127052307">
  <ele>302.283691</ele>
  <time>2011-09-29T05:47:45Z</time>
  <speed>3.880000</speed>
</trkpt>
<trkpt lat="32.579776764" lon="35.127010345">
  <ele>302.689941</ele>
  <time>2011-09-29T05:47:46Z</time>
  <speed>4.340000</speed>
</trkpt>
<trkpt lat="32.579761505" lon="35.126964569">
  <ele>303.291504</ele>
  <time>2011-09-29T05:47:47Z</time>
  <speed>4.590000</speed>
</trkpt>
<trkpt lat="32.579750061" lon="35.126914978">
  <ele>303.268066</ele>
  <time>2011-09-29T05:47:48Z</time>
  <speed>4.400000</speed>
</trkpt>
<trkpt lat="32.579738617" lon="35.126873016">
  <ele>303.275879</ele>
  <time>2011-09-29T05:47:49Z</time>
  <speed>4.180000</speed>
</trkpt>
<trkpt lat="32.579723358" lon="35.126827240">
  <ele>303.002441</ele>
  <time>2011-09-29T05:47:50Z</time>
  <speed>4.210000</speed>
</trkpt>
<trkpt lat="32.579711914" lon="35.126781464">
  <ele>302.830566</ele>
  <time>2011-09-29T05:47:51Z</time>
  <speed>4.200000</speed>
</trkpt>
<trkpt lat="32.579696655" lon="35.126739502">
  <ele>302.494629</ele>
  <time>2011-09-29T05:47:52Z</time>
  <speed>4.170000</speed>
</trkpt>
<trkpt lat="32.579689026" lon="35.126697540">
  <ele>302.330566</ele>
  <time>2011-09-29T05:47:53Z</time>
  <speed>4.120000</speed>
</trkpt>
<trkpt lat="32.579673767" lon="35.126655579">
  <ele>302.182129</ele>
  <time>2011-09-29T05:47:54Z</time>
  <speed>4.190000</speed>
</trkpt>
<trkpt lat="32.579662323" lon="35.126613617">
  <ele>301.768066</ele>
  <time>2011-09-29T05:47:55Z</time>
  <speed>4.300000</speed>
</trkpt>
<trkpt lat="32.579654694" lon="35.126567841">
  <ele>301.635254</ele>
  <time>2011-09-29T05:47:56Z</time>
  <speed>4.270000</speed>
</trkpt>
<trkpt lat="32.579647064" lon="35.126525879">
  <ele>301.674316</ele>
  <time>2011-09-29T05:47:57Z</time>
  <speed>4.260000</speed>
</trkpt>
<trkpt lat="32.579635620" lon="35.126480103">
  <ele>301.932129</ele>
  <time>2011-09-29T05:47:58Z</time>
  <speed>4.120000</speed>
</trkpt>
<trkpt lat="32.579624176" lon="35.126441956">
  <ele>301.955566</ele>
  <time>2011-09-29T05:47:59Z</time>
  <speed>4.130000</speed>
</trkpt>
<trkpt lat="32.579612732" lon="35.126396179">
  <ele>302.041504</ele>
  <time>2011-09-29T05:48:00Z</time>
  <speed>4.350000</speed>
</trkpt>
<trkpt lat="32.579601288" lon="35.126350403">
  <ele>302.025879</ele>
  <time>2011-09-29T05:48:01Z</time>
  <speed>4.560000</speed>
</trkpt>
<trkpt lat="32.579586029" lon="35.126300812">
  <ele>301.986816</ele>
  <time>2011-09-29T05:48:02Z</time>
  <speed>4.640000</speed>
</trkpt>
<trkpt lat="32.579578400" lon="35.126255035">
  <ele>302.119629</ele>
  <time>2011-09-29T05:48:03Z</time>
  <speed>4.650000</speed>
</trkpt>
<trkpt lat="32.579570770" lon="35.126205444">
  <ele>302.182129</ele>
  <time>2011-09-29T05:48:04Z</time>
  <speed>4.390000</speed>
</trkpt>
<trkpt lat="32.579563141" lon="35.126163483">
  <ele>302.205566</ele>
  <time>2011-09-29T05:48:05Z</time>
  <speed>4.340000</speed>
</trkpt>
<trkpt lat="32.579555511" lon="35.126117706">
  <ele>301.947754</ele>
  <time>2011-09-29T05:48:06Z</time>
  <speed>4.360000</speed>
</trkpt>
<trkpt lat="32.579551697" lon="35.126071930">
  <ele>301.908691</ele>
  <time>2011-09-29T05:48:07Z</time>
  <speed>4.410000</speed>
</trkpt>
<trkpt lat="32.579547882" lon="35.126029968">
  <ele>301.525879</ele>
  <time>2011-09-29T05:48:08Z</time>
  <speed>4.470000</speed>
</trkpt>
<trkpt lat="32.579544067" lon="35.125984192">
  <ele>301.127441</ele>
  <time>2011-09-29T05:48:09Z</time>
  <speed>4.590000</speed>
</trkpt>
<trkpt lat="32.579536438" lon="35.125934601">
  <ele>300.721191</ele>
  <time>2011-09-29T05:48:10Z</time>
  <speed>4.790000</speed>
</trkpt>
<trkpt lat="32.579536438" lon="35.125881195">
  <ele>300.838379</ele>
  <time>2011-09-29T05:48:11Z</time>
  <speed>4.980000</speed>
</trkpt>
<trkpt lat="32.579540253" lon="35.125827789">
  <ele>300.572754</ele>
  <time>2011-09-29T05:48:12Z</time>
  <speed>4.870000</speed>
</trkpt>
<trkpt lat="32.579547882" lon="35.125778198">
  <ele>300.814941</ele>
  <time>2011-09-29T05:48:13Z</time>
  <speed>4.820000</speed>
</trkpt>
<trkpt lat="32.579547882" lon="35.125732422">
  <ele>300.330566</ele>
  <time>2011-09-29T05:48:14Z</time>
  <speed>4.590000</speed>
</trkpt>
<trkpt lat="32.579547882" lon="35.125679016">
  <ele>299.854004</ele>
  <time>2011-09-29T05:48:15Z</time>
  <speed>5.300000</speed>
</trkpt>
<trkpt lat="32.579547882" lon="35.125621796">
  <ele>299.557129</ele>
  <time>2011-09-29T05:48:16Z</time>
  <speed>5.470000</speed>
</trkpt>
<trkpt lat="32.579544067" lon="35.125564575">
  <ele>299.588379</ele>
  <time>2011-09-29T05:48:17Z</time>
  <speed>5.600000</speed>
</trkpt>
<trkpt lat="32.579536438" lon="35.125507355">
  <ele>299.689941</ele>
  <time>2011-09-29T05:48:18Z</time>
  <speed>5.770000</speed>
</trkpt>
<trkpt lat="32.579524994" lon="35.125442505">
  <ele>299.658691</ele>
  <time>2011-09-29T05:48:19Z</time>
  <speed>5.830000</speed>
</trkpt>
<trkpt lat="32.579505920" lon="35.125381470">
  <ele>299.689941</ele>
  <time>2011-09-29T05:48:20Z</time>
  <speed>6.020000</speed>
</trkpt>
<trkpt lat="32.579486847" lon="35.125320435">
  <ele>299.463379</ele>
  <time>2011-09-29T05:48:21Z</time>
  <speed>6.260000</speed>
</trkpt>
<trkpt lat="32.579467773" lon="35.125255585">
  <ele>299.502441</ele>
  <time>2011-09-29T05:48:22Z</time>
  <speed>6.470000</speed>
</trkpt>
<trkpt lat="32.579452515" lon="35.125186920">
  <ele>299.463379</ele>
  <time>2011-09-29T05:48:23Z</time>
  <speed>6.710000</speed>
</trkpt>
<trkpt lat="32.579433441" lon="35.125114441">
  <ele>299.135254</ele>
  <time>2011-09-29T05:48:24Z</time>
  <speed>6.890000</speed>
</trkpt>
<trkpt lat="32.579410553" lon="35.125045776">
  <ele>299.072754</ele>
  <time>2011-09-29T05:48:25Z</time>
  <speed>6.920000</speed>
</trkpt>
<trkpt lat="32.579391479" lon="35.124973297">
  <ele>298.768066</ele>
  <time>2011-09-29T05:48:26Z</time>
  <speed>7.040000</speed>
</trkpt>
<trkpt lat="32.579368591" lon="35.124900818">
  <ele>298.174316</ele>
  <time>2011-09-29T05:48:27Z</time>
  <speed>7.180000</speed>
</trkpt>
<trkpt lat="32.579341888" lon="35.124824524">
  <ele>297.955566</ele>
  <time>2011-09-29T05:48:28Z</time>
  <speed>7.560000</speed>
</trkpt>
<trkpt lat="32.579311371" lon="35.124744415">
  <ele>297.768066</ele>
  <time>2011-09-29T05:48:29Z</time>
  <speed>7.940000</speed>
</trkpt>
<trkpt lat="32.579284668" lon="35.124660492">
  <ele>297.299316</ele>
  <time>2011-09-29T05:48:30Z</time>
  <speed>8.340000</speed>
</trkpt>
<trkpt lat="32.579261780" lon="35.124580383">
  <ele>296.729004</ele>
  <time>2011-09-29T05:48:31Z</time>
  <speed>8.160000</speed>
</trkpt>
<trkpt lat="32.579235077" lon="35.124500275">
  <ele>296.432129</ele>
  <time>2011-09-29T05:48:32Z</time>
  <speed>8.340000</speed>
</trkpt>
<trkpt lat="32.579204559" lon="35.124420166">
  <ele>295.721191</ele>
  <time>2011-09-29T05:48:33Z</time>
  <speed>8.400000</speed>
</trkpt>
<trkpt lat="32.579170227" lon="35.124336243">
  <ele>295.807129</ele>
  <time>2011-09-29T05:48:34Z</time>
  <speed>8.160000</speed>
</trkpt>
<trkpt lat="32.579147339" lon="35.124256134">
  <ele>295.869629</ele>
  <time>2011-09-29T05:48:35Z</time>
  <speed>7.970000</speed>
</trkpt>
<trkpt lat="32.579120636" lon="35.124179840">
  <ele>295.924316</ele>
  <time>2011-09-29T05:48:36Z</time>
  <speed>8.100000</speed>
</trkpt>
<trkpt lat="32.579097748" lon="35.124099731">
  <ele>295.361816</ele>
  <time>2011-09-29T05:48:37Z</time>
  <speed>7.980000</speed>
</trkpt>
<trkpt lat="32.579071045" lon="35.124019623">
  <ele>295.080566</ele>
  <time>2011-09-29T05:48:38Z</time>
  <speed>7.940000</speed>
</trkpt>
<trkpt lat="32.579048157" lon="35.123935699">
  <ele>294.486816</ele>
  <time>2011-09-29T05:48:39Z</time>
  <speed>7.730000</speed>
</trkpt>
<trkpt lat="32.579032898" lon="35.123859406">
  <ele>294.432129</ele>
  <time>2011-09-29T05:48:40Z</time>
  <speed>7.740000</speed>
</trkpt>
<trkpt lat="32.579010010" lon="35.123779297">
  <ele>293.963379</ele>
  <time>2011-09-29T05:48:41Z</time>
  <speed>7.570000</speed>
</trkpt>
<trkpt lat="32.578987122" lon="35.123706818">
  <ele>293.830566</ele>
  <time>2011-09-29T05:48:42Z</time>
  <speed>7.320000</speed>
</trkpt>
<trkpt lat="32.578968048" lon="35.123634338">
  <ele>293.307129</ele>
  <time>2011-09-29T05:48:43Z</time>
  <speed>7.320000</speed>
</trkpt>
<trkpt lat="32.578948975" lon="35.123561859">
  <ele>293.213379</ele>
  <time>2011-09-29T05:48:44Z</time>
  <speed>7.240000</speed>
</trkpt>
<trkpt lat="32.578929901" lon="35.123485565">
  <ele>292.963379</ele>
  <time>2011-09-29T05:48:45Z</time>
  <speed>7.440000</speed>
</trkpt>
<trkpt lat="32.578914642" lon="35.123424530">
  <ele>293.393066</ele>
  <time>2011-09-29T05:48:46Z</time>
  <speed>6.810000</speed>
</trkpt>
<trkpt lat="32.578891754" lon="35.123348236">
  <ele>293.119629</ele>
  <time>2011-09-29T05:48:47Z</time>
  <speed>6.630000</speed>
</trkpt>
<trkpt lat="32.578865051" lon="35.123283386">
  <ele>292.822754</ele>
  <time>2011-09-29T05:48:48Z</time>
  <speed>6.740000</speed>
</trkpt>
<trkpt lat="32.578830719" lon="35.123218536">
  <ele>292.447754</ele>
  <time>2011-09-29T05:48:49Z</time>
  <speed>6.890000</speed>
</trkpt>
<trkpt lat="32.578792572" lon="35.123161316">
  <ele>292.189941</ele>
  <time>2011-09-29T05:48:50Z</time>
  <speed>6.990000</speed>
</trkpt>
<trkpt lat="32.578746796" lon="35.123107910">
  <ele>291.822754</ele>
  <time>2011-09-29T05:48:51Z</time>
  <speed>7.390000</speed>
</trkpt>
<trkpt lat="32.578697205" lon="35.123050690">
  <ele>291.283691</ele>
  <time>2011-09-29T05:48:52Z</time>
  <speed>8.000000</speed>
</trkpt>
<trkpt lat="32.578651428" lon="35.122985840">
  <ele>290.424316</ele>
  <time>2011-09-29T05:48:53Z</time>
  <speed>8.410000</speed>
</trkpt>
<trkpt lat="32.578598022" lon="35.122920990">
  <ele>289.416504</ele>
  <time>2011-09-29T05:48:54Z</time>
  <speed>8.330000</speed>
</trkpt>
<trkpt lat="32.578548431" lon="35.122856140">
  <ele>288.064941</ele>
  <time>2011-09-29T05:48:55Z</time>
  <speed>8.660000</speed>
</trkpt>
<trkpt lat="32.578498840" lon="35.122787476">
  <ele>287.291504</ele>
  <time>2011-09-29T05:48:56Z</time>
  <speed>8.800000</speed>
</trkpt>
<trkpt lat="32.578449249" lon="35.122714996">
  <ele>287.604004</ele>
  <time>2011-09-29T05:48:57Z</time>
  <speed>8.610000</speed>
</trkpt>
<trkpt lat="32.578392029" lon="35.122650146">
  <ele>287.572754</ele>
  <time>2011-09-29T05:48:58Z</time>
  <speed>8.280000</speed>
</trkpt>
<trkpt lat="32.578334808" lon="35.122589111">
  <ele>287.236816</ele>
  <time>2011-09-29T05:48:59Z</time>
  <speed>8.500000</speed>
</trkpt>
<trkpt lat="32.578273773" lon="35.122535706">
  <ele>286.643066</ele>
  <time>2011-09-29T05:49:00Z</time>
  <speed>7.960000</speed>
</trkpt>
<trkpt lat="32.578205109" lon="35.122482300">
  <ele>285.885254</ele>
  <time>2011-09-29T05:49:01Z</time>
  <speed>8.540000</speed>
</trkpt>
<trkpt lat="32.578144073" lon="35.122425079">
  <ele>284.197754</ele>
  <time>2011-09-29T05:49:02Z</time>
  <speed>8.550000</speed>
</trkpt>
<trkpt lat="32.578086853" lon="35.122360229">
  <ele>283.143066</ele>
  <time>2011-09-29T05:49:03Z</time>
  <speed>8.640000</speed>
</trkpt>
<trkpt lat="32.578033447" lon="35.122295380">
  <ele>281.963379</ele>
  <time>2011-09-29T05:49:04Z</time>
  <speed>8.630000</speed>
</trkpt>
<trkpt lat="32.577980042" lon="35.122234344">
  <ele>281.221191</ele>
  <time>2011-09-29T05:49:05Z</time>
  <speed>8.000000</speed>
</trkpt>
<trkpt lat="32.577926636" lon="35.122180939">
  <ele>279.807129</ele>
  <time>2011-09-29T05:49:06Z</time>
  <speed>7.890000</speed>
</trkpt>
<trkpt lat="32.577873230" lon="35.122127533">
  <ele>278.322754</ele>
  <time>2011-09-29T05:49:07Z</time>
  <speed>7.990000</speed>
</trkpt>
<trkpt lat="32.577812195" lon="35.122074127">
  <ele>276.979004</ele>
  <time>2011-09-29T05:49:08Z</time>
  <speed>8.620000</speed>
</trkpt>
<trkpt lat="32.577747345" lon="35.122020721">
  <ele>275.557129</ele>
  <time>2011-09-29T05:49:09Z</time>
  <speed>8.980000</speed>
</trkpt>
<trkpt lat="32.577682495" lon="35.121963501">
  <ele>273.729004</ele>
  <time>2011-09-29T05:49:10Z</time>
  <speed>9.360000</speed>
</trkpt>
<trkpt lat="32.577621460" lon="35.121887207">
  <ele>271.994629</ele>
  <time>2011-09-29T05:49:11Z</time>
  <speed>9.450000</speed>
</trkpt>
<trkpt lat="32.577575684" lon="35.121803284">
  <ele>271.080566</ele>
  <time>2011-09-29T05:49:12Z</time>
  <speed>9.990000</speed>
</trkpt>
<trkpt lat="32.577529907" lon="35.121707916">
  <ele>270.939941</ele>
  <time>2011-09-29T05:49:13Z</time>
  <speed>9.960000</speed>
</trkpt>
<trkpt lat="32.577487946" lon="35.121616364">
  <ele>270.213379</ele>
  <time>2011-09-29T05:49:14Z</time>
  <speed>9.780000</speed>
</trkpt>
<trkpt lat="32.577449799" lon="35.121524811">
  <ele>269.908691</ele>
  <time>2011-09-29T05:49:15Z</time>
  <speed>9.310000</speed>
</trkpt>
<trkpt lat="32.577407837" lon="35.121440887">
  <ele>269.221191</ele>
  <time>2011-09-29T05:49:16Z</time>
  <speed>8.310000</speed>
</trkpt>
<trkpt lat="32.577373505" lon="35.121372223">
  <ele>268.893066</ele>
  <time>2011-09-29T05:49:17Z</time>
  <speed>6.710000</speed>
</trkpt>
<trkpt lat="32.577354431" lon="35.121322632">
  <ele>268.150879</ele>
  <time>2011-09-29T05:49:18Z</time>
  <speed>4.640000</speed>
</trkpt>
<trkpt lat="32.577331543" lon="35.121292114">
  <ele>268.049316</ele>
  <time>2011-09-29T05:49:19Z</time>
  <speed>4.140000</speed>
</trkpt>
<trkpt lat="32.577297211" lon="35.121273041">
  <ele>267.033691</ele>
  <time>2011-09-29T05:49:20Z</time>
  <speed>4.080000</speed>
</trkpt>
<trkpt lat="32.577266693" lon="35.121269226">
  <ele>266.783691</ele>
  <time>2011-09-29T05:49:21Z</time>
  <speed>4.230000</speed>
</trkpt>
<trkpt lat="32.577228546" lon="35.121288300">
  <ele>266.666504</ele>
  <time>2011-09-29T05:49:22Z</time>
  <speed>4.220000</speed>
</trkpt>
<trkpt lat="32.577194214" lon="35.121303558">
  <ele>266.174316</ele>
  <time>2011-09-29T05:49:23Z</time>
  <speed>3.550000</speed>
</trkpt>
<trkpt lat="32.577167511" lon="35.121326447">
  <ele>266.541504</ele>
  <time>2011-09-29T05:49:24Z</time>
  <speed>3.430000</speed>
</trkpt>
<trkpt lat="32.577136993" lon="35.121345520">
  <ele>266.775879</ele>
  <time>2011-09-29T05:49:25Z</time>
  <speed>3.900000</speed>
</trkpt>
<trkpt lat="32.577106476" lon="35.121356964">
  <ele>266.518066</ele>
  <time>2011-09-29T05:49:26Z</time>
  <speed>3.050000</speed>
</trkpt>
<trkpt lat="32.577072144" lon="35.121376038">
  <ele>267.174316</ele>
  <time>2011-09-29T05:49:28Z</time>
  <speed>1.190000</speed>
</trkpt>
<trkpt lat="32.577037811" lon="35.121398926">
  <ele>267.666504</ele>
  <time>2011-09-29T05:49:45Z</time>
  <speed>2.090000</speed>
</trkpt>
<trkpt lat="32.576988220" lon="35.121421814">
  <ele>267.494629</ele>
  <time>2011-09-29T05:49:47Z</time>
  <speed>3.320000</speed>
</trkpt>
<trkpt lat="32.576961517" lon="35.121437073">
  <ele>267.064941</ele>
  <time>2011-09-29T05:49:48Z</time>
  <speed>3.170000</speed>
</trkpt>
<trkpt lat="32.576934814" lon="35.121456146">
  <ele>266.752441</ele>
  <time>2011-09-29T05:49:49Z</time>
  <speed>3.800000</speed>
</trkpt>
<trkpt lat="32.576896667" lon="35.121479034">
  <ele>266.689941</ele>
  <time>2011-09-29T05:49:50Z</time>
  <speed>3.950000</speed>
</trkpt>
<trkpt lat="32.576862335" lon="35.121494293">
  <ele>266.369629</ele>
  <time>2011-09-29T05:49:51Z</time>
  <speed>4.160000</speed>
</trkpt>
<trkpt lat="32.576824188" lon="35.121513367">
  <ele>265.900879</ele>
  <time>2011-09-29T05:49:52Z</time>
  <speed>4.490000</speed>
</trkpt>
<trkpt lat="32.576786041" lon="35.121532440">
  <ele>265.721191</ele>
  <time>2011-09-29T05:49:53Z</time>
  <speed>4.750000</speed>
</trkpt>
<trkpt lat="32.576744080" lon="35.121555328">
  <ele>265.541504</ele>
  <time>2011-09-29T05:49:54Z</time>
  <speed>4.810000</speed>
</trkpt>
<trkpt lat="32.576705933" lon="35.121574402">
  <ele>265.088379</ele>
  <time>2011-09-29T05:49:55Z</time>
  <speed>4.910000</speed>
</trkpt>
<trkpt lat="32.576660156" lon="35.121597290">
  <ele>264.705566</ele>
  <time>2011-09-29T05:49:56Z</time>
  <speed>5.100000</speed>
</trkpt>
<trkpt lat="32.576618195" lon="35.121612549">
  <ele>263.986816</ele>
  <time>2011-09-29T05:49:57Z</time>
  <speed>5.000000</speed>
</trkpt>
<trkpt lat="32.576580048" lon="35.121635437">
  <ele>263.924316</ele>
  <time>2011-09-29T05:49:58Z</time>
  <speed>5.300000</speed>
</trkpt>
<trkpt lat="32.576534271" lon="35.121658325">
  <ele>263.893066</ele>
  <time>2011-09-29T05:49:59Z</time>
  <speed>5.250000</speed>
</trkpt>
<trkpt lat="32.576484680" lon="35.121677399">
  <ele>263.846191</ele>
  <time>2011-09-29T05:50:00Z</time>
  <speed>5.320000</speed>
</trkpt>
<trkpt lat="32.576438904" lon="35.121700287">
  <ele>263.369629</ele>
  <time>2011-09-29T05:50:01Z</time>
  <speed>5.350000</speed>
</trkpt>
<trkpt lat="32.576396942" lon="35.121726990">
  <ele>262.939941</ele>
  <time>2011-09-29T05:50:02Z</time>
  <speed>5.280000</speed>
</trkpt>
<trkpt lat="32.576351166" lon="35.121746063">
  <ele>262.299316</ele>
  <time>2011-09-29T05:50:03Z</time>
  <speed>5.090000</speed>
</trkpt>
<trkpt lat="32.576313019" lon="35.121753693">
  <ele>261.432129</ele>
  <time>2011-09-29T05:50:04Z</time>
  <speed>5.060000</speed>
</trkpt>
<trkpt lat="32.576267242" lon="35.121761322">
  <ele>260.088379</ele>
  <time>2011-09-29T05:50:05Z</time>
  <speed>5.150000</speed>
</trkpt>
<trkpt lat="32.576225281" lon="35.121772766">
  <ele>260.189941</ele>
  <time>2011-09-29T05:50:06Z</time>
  <speed>4.590000</speed>
</trkpt>
<trkpt lat="32.576183319" lon="35.121772766">
  <ele>260.127441</ele>
  <time>2011-09-29T05:50:07Z</time>
  <speed>4.510000</speed>
</trkpt>
<trkpt lat="32.576145172" lon="35.121765137">
  <ele>259.291504</ele>
  <time>2011-09-29T05:50:08Z</time>
  <speed>4.020000</speed>
</trkpt>
<trkpt lat="32.576107025" lon="35.121761322">
  <ele>259.002441</ele>
  <time>2011-09-29T05:50:09Z</time>
  <speed>4.210000</speed>
</trkpt>
<trkpt lat="32.576068878" lon="35.121746063">
  <ele>258.619629</ele>
  <time>2011-09-29T05:50:10Z</time>
  <speed>4.300000</speed>
</trkpt>
<trkpt lat="32.576030731" lon="35.121730804">
  <ele>258.338379</ele>
  <time>2011-09-29T05:50:11Z</time>
  <speed>3.880000</speed>
</trkpt>
<trkpt lat="32.576000214" lon="35.121715546">
  <ele>258.604004</ele>
  <time>2011-09-29T05:50:12Z</time>
  <speed>3.720000</speed>
</trkpt>
<trkpt lat="32.575965881" lon="35.121692657">
  <ele>258.369629</ele>
  <time>2011-09-29T05:50:13Z</time>
  <speed>3.760000</speed>
</trkpt>
<trkpt lat="32.575939178" lon="35.121665955">
  <ele>258.236816</ele>
  <time>2011-09-29T05:50:14Z</time>
  <speed>3.970000</speed>
</trkpt>
<trkpt lat="32.575912476" lon="35.121643066">
  <ele>258.166504</ele>
  <time>2011-09-29T05:50:15Z</time>
  <speed>3.970000</speed>
</trkpt>
<trkpt lat="32.575881958" lon="35.121620178">
  <ele>258.354004</ele>
  <time>2011-09-29T05:50:16Z</time>
  <speed>3.880000</speed>
</trkpt>
<trkpt lat="32.575855255" lon="35.121601105">
  <ele>257.479004</ele>
  <time>2011-09-29T05:50:17Z</time>
  <speed>4.000000</speed>
</trkpt>
<trkpt lat="32.575824738" lon="35.121578217">
  <ele>257.900879</ele>
  <time>2011-09-29T05:50:18Z</time>
  <speed>3.630000</speed>
</trkpt>
<trkpt lat="32.575790405" lon="35.121555328">
  <ele>258.049316</ele>
  <time>2011-09-29T05:50:19Z</time>
  <speed>3.790000</speed>
</trkpt>
<trkpt lat="32.575767517" lon="35.121536255">
  <ele>258.471191</ele>
  <time>2011-09-29T05:50:20Z</time>
  <speed>3.580000</speed>
</trkpt>
<trkpt lat="32.575744629" lon="35.121509552">
  <ele>259.150879</ele>
  <time>2011-09-29T05:50:21Z</time>
  <speed>3.670000</speed>
</trkpt>
<trkpt lat="32.575714111" lon="35.121490479">
  <ele>259.260254</ele>
  <time>2011-09-29T05:50:22Z</time>
  <speed>3.840000</speed>
</trkpt>
<trkpt lat="32.575691223" lon="35.121459961">
  <ele>259.908691</ele>
  <time>2011-09-29T05:50:23Z</time>
  <speed>3.880000</speed>
</trkpt>
<trkpt lat="32.575660706" lon="35.121437073">
  <ele>260.088379</ele>
  <time>2011-09-29T05:50:24Z</time>
  <speed>3.800000</speed>
</trkpt>
<trkpt lat="32.575634003" lon="35.121414185">
  <ele>260.049316</ele>
  <time>2011-09-29T05:50:25Z</time>
  <speed>3.690000</speed>
</trkpt>
<trkpt lat="32.575607300" lon="35.121391296">
  <ele>260.260254</ele>
  <time>2011-09-29T05:50:26Z</time>
  <speed>3.680000</speed>
</trkpt>
<trkpt lat="32.575576782" lon="35.121364594">
  <ele>261.197754</ele>
  <time>2011-09-29T05:50:27Z</time>
  <speed>3.540000</speed>
</trkpt>
<trkpt lat="32.575550079" lon="35.121345520">
  <ele>261.361816</ele>
  <time>2011-09-29T05:50:28Z</time>
  <speed>3.600000</speed>
</trkpt>
<trkpt lat="32.575523376" lon="35.121326447">
  <ele>261.275879</ele>
  <time>2011-09-29T05:50:29Z</time>
  <speed>3.550000</speed>
</trkpt>
<trkpt lat="32.575496674" lon="35.121311188">
  <ele>261.236816</ele>
  <time>2011-09-29T05:50:30Z</time>
  <speed>3.730000</speed>
</trkpt>
<trkpt lat="32.575466156" lon="35.121299744">
  <ele>261.197754</ele>
  <time>2011-09-29T05:50:31Z</time>
  <speed>4.170000</speed>
</trkpt>
<trkpt lat="32.575428009" lon="35.121284485">
  <ele>261.221191</ele>
  <time>2011-09-29T05:50:32Z</time>
  <speed>4.050000</speed>
</trkpt>
<trkpt lat="32.575389862" lon="35.121273041">
  <ele>261.932129</ele>
  <time>2011-09-29T05:50:33Z</time>
  <speed>3.950000</speed>
</trkpt>
<trkpt lat="32.575359344" lon="35.121269226">
  <ele>261.689941</ele>
  <time>2011-09-29T05:50:34Z</time>
  <speed>3.610000</speed>
</trkpt>
<trkpt lat="32.575332642" lon="35.121273041">
  <ele>262.346191</ele>
  <time>2011-09-29T05:50:35Z</time>
  <speed>3.880000</speed>
</trkpt>
<trkpt lat="32.575294495" lon="35.121273041">
  <ele>262.174316</ele>
  <time>2011-09-29T05:50:36Z</time>
  <speed>3.630000</speed>
</trkpt>
<trkpt lat="32.575263977" lon="35.121288300">
  <ele>263.057129</ele>
  <time>2011-09-29T05:50:37Z</time>
  <speed>3.610000</speed>
</trkpt>
<trkpt lat="32.575237274" lon="35.121307373">
  <ele>263.705566</ele>
  <time>2011-09-29T05:50:38Z</time>
  <speed>3.410000</speed>
</trkpt>
<trkpt lat="32.575210571" lon="35.121322632">
  <ele>264.057129</ele>
  <time>2011-09-29T05:50:39Z</time>
  <speed>3.150000</speed>
</trkpt>
<trkpt lat="32.575187683" lon="35.121341705">
  <ele>264.299316</ele>
  <time>2011-09-29T05:50:40Z</time>
  <speed>3.110000</speed>
</trkpt>
<trkpt lat="32.575149536" lon="35.121372223">
  <ele>264.744629</ele>
  <time>2011-09-29T05:50:42Z</time>
  <speed>2.840000</speed>
</trkpt>
<trkpt lat="32.575107574" lon="35.121410370">
  <ele>265.619629</ele>
  <time>2011-09-29T05:50:44Z</time>
  <speed>2.640000</speed>
</trkpt>
<trkpt lat="32.575088501" lon="35.121429443">
  <ele>266.275879</ele>
  <time>2011-09-29T05:50:45Z</time>
  <speed>2.830000</speed>
</trkpt>
<trkpt lat="32.575046539" lon="35.121448517">
  <ele>265.838379</ele>
  <time>2011-09-29T05:50:47Z</time>
  <speed>2.660000</speed>
</trkpt>
<trkpt lat="32.574996948" lon="35.121459961">
  <ele>266.221191</ele>
  <time>2011-09-29T05:50:49Z</time>
  <speed>2.930000</speed>
</trkpt>
<trkpt lat="32.574966431" lon="35.121463776">
  <ele>266.377441</ele>
  <time>2011-09-29T05:50:50Z</time>
  <speed>3.040000</speed>
</trkpt>
<trkpt lat="32.574920654" lon="35.121459961">
  <ele>265.744629</ele>
  <time>2011-09-29T05:50:52Z</time>
  <speed>3.220000</speed>
</trkpt>
<trkpt lat="32.574886322" lon="35.121456146">
  <ele>265.822754</ele>
  <time>2011-09-29T05:50:53Z</time>
  <speed>3.360000</speed>
</trkpt>
<trkpt lat="32.574855804" lon="35.121444702">
  <ele>265.627441</ele>
  <time>2011-09-29T05:50:54Z</time>
  <speed>3.460000</speed>
</trkpt>
<trkpt lat="32.574817657" lon="35.121440887">
  <ele>266.721191</ele>
  <time>2011-09-29T05:50:55Z</time>
  <speed>3.800000</speed>
</trkpt>
<trkpt lat="32.574787140" lon="35.121425629">
  <ele>266.377441</ele>
  <time>2011-09-29T05:50:56Z</time>
  <speed>3.620000</speed>
</trkpt>
<trkpt lat="32.574764252" lon="35.121410370">
  <ele>266.088379</ele>
  <time>2011-09-29T05:50:57Z</time>
  <speed>3.560000</speed>
</trkpt>
<trkpt lat="32.574733734" lon="35.121387482">
  <ele>265.986816</ele>
  <time>2011-09-29T05:50:58Z</time>
  <speed>3.610000</speed>
</trkpt>
<trkpt lat="32.574707031" lon="35.121364594">
  <ele>266.025879</ele>
  <time>2011-09-29T05:50:59Z</time>
  <speed>3.710000</speed>
</trkpt>
<trkpt lat="32.574676514" lon="35.121341705">
  <ele>265.783691</ele>
  <time>2011-09-29T05:51:00Z</time>
  <speed>3.800000</speed>
</trkpt>
<trkpt lat="32.574649811" lon="35.121322632">
  <ele>265.377441</ele>
  <time>2011-09-29T05:51:01Z</time>
  <speed>3.860000</speed>
</trkpt>
<trkpt lat="32.574619293" lon="35.121299744">
  <ele>265.283691</ele>
  <time>2011-09-29T05:51:02Z</time>
  <speed>3.960000</speed>
</trkpt>
<trkpt lat="32.574588776" lon="35.121276855">
  <ele>265.252441</ele>
  <time>2011-09-29T05:51:03Z</time>
  <speed>3.940000</speed>
</trkpt>
<trkpt lat="32.574562073" lon="35.121250153">
  <ele>265.447754</ele>
  <time>2011-09-29T05:51:04Z</time>
  <speed>3.770000</speed>
</trkpt>
<trkpt lat="32.574539185" lon="35.121227264">
  <ele>265.244629</ele>
  <time>2011-09-29T05:51:05Z</time>
  <speed>3.450000</speed>
</trkpt>
<trkpt lat="32.574516296" lon="35.121208191">
  <ele>265.057129</ele>
  <time>2011-09-29T05:51:06Z</time>
  <speed>3.380000</speed>
</trkpt>
<trkpt lat="32.574489594" lon="35.121185303">
  <ele>265.135254</ele>
  <time>2011-09-29T05:51:07Z</time>
  <speed>3.230000</speed>
</trkpt>
<trkpt lat="32.574462891" lon="35.121162415">
  <ele>265.197754</ele>
  <time>2011-09-29T05:51:08Z</time>
  <speed>3.330000</speed>
</trkpt>
<trkpt lat="32.574440002" lon="35.121135712">
  <ele>265.049316</ele>
  <time>2011-09-29T05:51:09Z</time>
  <speed>3.660000</speed>
</trkpt>
<trkpt lat="32.574413300" lon="35.121109009">
  <ele>264.838379</ele>
  <time>2011-09-29T05:51:10Z</time>
  <speed>3.600000</speed>
</trkpt>
<trkpt lat="32.574386597" lon="35.121082306">
  <ele>265.049316</ele>
  <time>2011-09-29T05:51:11Z</time>
  <speed>3.480000</speed>
</trkpt>
<trkpt lat="32.574363708" lon="35.121055603">
  <ele>265.580566</ele>
  <time>2011-09-29T05:51:12Z</time>
  <speed>3.410000</speed>
</trkpt>
<trkpt lat="32.574340820" lon="35.121032715">
  <ele>266.049316</ele>
  <time>2011-09-29T05:51:13Z</time>
  <speed>3.260000</speed>
</trkpt>
<trkpt lat="32.574295044" lon="35.120998383">
  <ele>266.244629</ele>
  <time>2011-09-29T05:51:15Z</time>
  <speed>3.040000</speed>
</trkpt>
<trkpt lat="32.574245453" lon="35.120964050">
  <ele>266.604004</ele>
  <time>2011-09-29T05:51:17Z</time>
  <speed>3.030000</speed>
</trkpt>
<trkpt lat="32.574218750" lon="35.120948792">
  <ele>266.635254</ele>
  <time>2011-09-29T05:51:18Z</time>
  <speed>3.070000</speed>
</trkpt>
<trkpt lat="32.574195862" lon="35.120933533">
  <ele>267.002441</ele>
  <time>2011-09-29T05:51:19Z</time>
  <speed>3.170000</speed>
</trkpt>
<trkpt lat="32.574172974" lon="35.120914459">
  <ele>267.518066</ele>
  <time>2011-09-29T05:51:20Z</time>
  <speed>3.090000</speed>
</trkpt>
<trkpt lat="32.574146271" lon="35.120903015">
  <ele>267.393066</ele>
  <time>2011-09-29T05:51:21Z</time>
  <speed>3.010000</speed>
</trkpt>
<trkpt lat="32.574104309" lon="35.120876312">
  <ele>267.572754</ele>
  <time>2011-09-29T05:51:23Z</time>
  <speed>2.760000</speed>
</trkpt>
<trkpt lat="32.574043274" lon="35.120864868">
  <ele>268.471191</ele>
  <time>2011-09-29T05:51:25Z</time>
  <speed>2.660000</speed>
</trkpt>
<trkpt lat="32.574012756" lon="35.120853424">
  <ele>268.416504</ele>
  <time>2011-09-29T05:51:26Z</time>
  <speed>2.790000</speed>
</trkpt>
<trkpt lat="32.573986053" lon="35.120841980">
  <ele>268.744629</ele>
  <time>2011-09-29T05:51:27Z</time>
  <speed>3.100000</speed>
</trkpt>
<trkpt lat="32.573940277" lon="35.120819092">
  <ele>269.111816</ele>
  <time>2011-09-29T05:51:29Z</time>
  <speed>2.810000</speed>
</trkpt>
<trkpt lat="32.573913574" lon="35.120811462">
  <ele>268.877441</ele>
  <time>2011-09-29T05:51:30Z</time>
  <speed>2.920000</speed>
</trkpt>
<trkpt lat="32.573879242" lon="35.120811462">
  <ele>269.385254</ele>
  <time>2011-09-29T05:51:31Z</time>
  <speed>3.150000</speed>
</trkpt>
<trkpt lat="32.573829651" lon="35.120800018">
  <ele>269.580566</ele>
  <time>2011-09-29T05:51:33Z</time>
  <speed>3.130000</speed>
</trkpt>
<trkpt lat="32.573780060" lon="35.120792389">
  <ele>269.549316</ele>
  <time>2011-09-29T05:51:35Z</time>
  <speed>3.160000</speed>
</trkpt>
<trkpt lat="32.573730469" lon="35.120800018">
  <ele>268.713379</ele>
  <time>2011-09-29T05:51:37Z</time>
  <speed>3.610000</speed>
</trkpt>
<trkpt lat="32.573699951" lon="35.120796204">
  <ele>268.439941</ele>
  <time>2011-09-29T05:51:38Z</time>
  <speed>3.580000</speed>
</trkpt>
<trkpt lat="32.573673248" lon="35.120796204">
  <ele>268.221191</ele>
  <time>2011-09-29T05:51:39Z</time>
  <speed>3.650000</speed>
</trkpt>
<trkpt lat="32.573638916" lon="35.120803833">
  <ele>268.268066</ele>
  <time>2011-09-29T05:51:40Z</time>
  <speed>3.610000</speed>
</trkpt>
<trkpt lat="32.573608398" lon="35.120811462">
  <ele>268.174316</ele>
  <time>2011-09-29T05:51:41Z</time>
  <speed>3.590000</speed>
</trkpt>
<trkpt lat="32.573577881" lon="35.120815277">
  <ele>268.314941</ele>
  <time>2011-09-29T05:51:42Z</time>
  <speed>3.560000</speed>
</trkpt>
<trkpt lat="32.573547363" lon="35.120819092">
  <ele>268.166504</ele>
  <time>2011-09-29T05:51:43Z</time>
  <speed>3.440000</speed>
</trkpt>
<trkpt lat="32.573513031" lon="35.120822906">
  <ele>267.791504</ele>
  <time>2011-09-29T05:51:44Z</time>
  <speed>3.510000</speed>
</trkpt>
<trkpt lat="32.573486328" lon="35.120822906">
  <ele>267.697754</ele>
  <time>2011-09-29T05:51:45Z</time>
  <speed>3.650000</speed>
</trkpt>
<trkpt lat="32.573451996" lon="35.120834351">
  <ele>267.596191</ele>
  <time>2011-09-29T05:51:46Z</time>
  <speed>3.700000</speed>
</trkpt>
<trkpt lat="32.573417664" lon="35.120841980">
  <ele>267.807129</ele>
  <time>2011-09-29T05:51:47Z</time>
  <speed>3.880000</speed>
</trkpt>
<trkpt lat="32.573383331" lon="35.120853424">
  <ele>267.760254</ele>
  <time>2011-09-29T05:51:48Z</time>
  <speed>3.990000</speed>
</trkpt>
<trkpt lat="32.573345184" lon="35.120857239">
  <ele>268.197754</ele>
  <time>2011-09-29T05:51:49Z</time>
  <speed>4.150000</speed>
</trkpt>
<trkpt lat="32.573307037" lon="35.120864868">
  <ele>268.385254</ele>
  <time>2011-09-29T05:51:50Z</time>
  <speed>3.930000</speed>
</trkpt>
<trkpt lat="32.573272705" lon="35.120864868">
  <ele>268.494629</ele>
  <time>2011-09-29T05:51:51Z</time>
  <speed>4.110000</speed>
</trkpt>
<trkpt lat="32.573234558" lon="35.120872498">
  <ele>268.393066</ele>
  <time>2011-09-29T05:51:52Z</time>
  <speed>3.970000</speed>
</trkpt>
<trkpt lat="32.573204041" lon="35.120876312">
  <ele>268.268066</ele>
  <time>2011-09-29T05:51:53Z</time>
  <speed>3.880000</speed>
</trkpt>
<trkpt lat="32.573165894" lon="35.120872498">
  <ele>267.932129</ele>
  <time>2011-09-29T05:51:54Z</time>
  <speed>3.910000</speed>
</trkpt>
<trkpt lat="32.573131561" lon="35.120872498">
  <ele>267.572754</ele>
  <time>2011-09-29T05:51:55Z</time>
  <speed>3.850000</speed>
</trkpt>
<trkpt lat="32.573101044" lon="35.120880127">
  <ele>267.385254</ele>
  <time>2011-09-29T05:51:56Z</time>
  <speed>3.720000</speed>
</trkpt>
<trkpt lat="32.573070526" lon="35.120887756">
  <ele>267.244629</ele>
  <time>2011-09-29T05:51:57Z</time>
  <speed>3.880000</speed>
</trkpt>
<trkpt lat="32.573036194" lon="35.120895386">
  <ele>267.268066</ele>
  <time>2011-09-29T05:51:58Z</time>
  <speed>3.900000</speed>
</trkpt>
<trkpt lat="32.573001862" lon="35.120899200">
  <ele>267.127441</ele>
  <time>2011-09-29T05:51:59Z</time>
  <speed>3.930000</speed>
</trkpt>
<trkpt lat="32.572967529" lon="35.120903015">
  <ele>267.088379</ele>
  <time>2011-09-29T05:52:00Z</time>
  <speed>4.260000</speed>
</trkpt>
<trkpt lat="32.572933197" lon="35.120910645">
  <ele>266.760254</ele>
  <time>2011-09-29T05:52:01Z</time>
  <speed>4.010000</speed>
</trkpt>
<trkpt lat="32.572895050" lon="35.120922089">
  <ele>266.494629</ele>
  <time>2011-09-29T05:52:02Z</time>
  <speed>4.560000</speed>
</trkpt>
<trkpt lat="32.572853088" lon="35.120933533">
  <ele>266.111816</ele>
  <time>2011-09-29T05:52:03Z</time>
  <speed>4.890000</speed>
</trkpt>
<trkpt lat="32.572818756" lon="35.120952606">
  <ele>265.705566</ele>
  <time>2011-09-29T05:52:04Z</time>
  <speed>4.840000</speed>
</trkpt>
<trkpt lat="32.572772980" lon="35.120975494">
  <ele>265.729004</ele>
  <time>2011-09-29T05:52:05Z</time>
  <speed>4.960000</speed>
</trkpt>
<trkpt lat="32.572731018" lon="35.120994568">
  <ele>265.619629</ele>
  <time>2011-09-29T05:52:06Z</time>
  <speed>5.220000</speed>
</trkpt>
<trkpt lat="32.572677612" lon="35.121025085">
  <ele>266.346191</ele>
  <time>2011-09-29T05:52:07Z</time>
  <speed>5.220000</speed>
</trkpt>
<trkpt lat="32.572631836" lon="35.121047974">
  <ele>266.549316</ele>
  <time>2011-09-29T05:52:08Z</time>
  <speed>5.450000</speed>
</trkpt>
<trkpt lat="32.572582245" lon="35.121074677">
  <ele>267.010254</ele>
  <time>2011-09-29T05:52:09Z</time>
  <speed>5.550000</speed>
</trkpt>
<trkpt lat="32.572528839" lon="35.121093750">
  <ele>267.127441</ele>
  <time>2011-09-29T05:52:10Z</time>
  <speed>5.910000</speed>
</trkpt>
<trkpt lat="32.572479248" lon="35.121097565">
  <ele>265.869629</ele>
  <time>2011-09-29T05:52:11Z</time>
  <speed>5.750000</speed>
</trkpt>
<trkpt lat="32.572422028" lon="35.121089935">
  <ele>265.197754</ele>
  <time>2011-09-29T05:52:12Z</time>
  <speed>6.270000</speed>
</trkpt>
<trkpt lat="32.572364807" lon="35.121074677">
  <ele>264.471191</ele>
  <time>2011-09-29T05:52:13Z</time>
  <speed>6.410000</speed>
</trkpt>
<trkpt lat="32.572307587" lon="35.121055603">
  <ele>263.986816</ele>
  <time>2011-09-29T05:52:14Z</time>
  <speed>6.730000</speed>
</trkpt>
<trkpt lat="32.572250366" lon="35.121028900">
  <ele>262.604004</ele>
  <time>2011-09-29T05:52:15Z</time>
  <speed>6.820000</speed>
</trkpt>
<trkpt lat="32.572196960" lon="35.120994568">
  <ele>261.916504</ele>
  <time>2011-09-29T05:52:16Z</time>
  <speed>5.930000</speed>
</trkpt>
<trkpt lat="32.572151184" lon="35.120967865">
  <ele>261.400879</ele>
  <time>2011-09-29T05:52:17Z</time>
  <speed>4.650000</speed>
</trkpt>
<trkpt lat="32.572116852" lon="35.120948792">
  <ele>261.408691</ele>
  <time>2011-09-29T05:52:18Z</time>
  <speed>3.790000</speed>
</trkpt>
<trkpt lat="32.572086334" lon="35.120937347">
  <ele>261.596191</ele>
  <time>2011-09-29T05:52:19Z</time>
  <speed>3.090000</speed>
</trkpt>
<trkpt lat="32.572044373" lon="35.120918274">
  <ele>260.744629</ele>
  <time>2011-09-29T05:52:21Z</time>
  <speed>2.010000</speed>
</trkpt>
<trkpt lat="32.572017670" lon="35.120922089">
  <ele>260.393066</ele>
  <time>2011-09-29T05:52:22Z</time>
  <speed>2.570000</speed>
</trkpt>
<trkpt lat="32.571975708" lon="35.120964050">
  <ele>260.197754</ele>
  <time>2011-09-29T05:52:24Z</time>
  <speed>3.030000</speed>
</trkpt>
<trkpt lat="32.571956635" lon="35.121025085">
  <ele>260.354004</ele>
  <time>2011-09-29T05:52:26Z</time>
  <speed>2.090000</speed>
</trkpt>
<trkpt lat="32.571971893" lon="35.121074677">
  <ele>260.768066</ele>
  <time>2011-09-29T05:52:28Z</time>
  <speed>2.190000</speed>
</trkpt>
<trkpt lat="32.571987152" lon="35.121128082">
  <ele>261.775879</ele>
  <time>2011-09-29T05:52:30Z</time>
  <speed>2.320000</speed>
</trkpt>
<trkpt lat="32.571990967" lon="35.121158600">
  <ele>262.471191</ele>
  <time>2011-09-29T05:52:31Z</time>
  <speed>2.450000</speed>
</trkpt>
<trkpt lat="32.571998596" lon="35.121212006">
  <ele>263.268066</ele>
  <time>2011-09-29T05:52:33Z</time>
  <speed>2.180000</speed>
</trkpt>
<trkpt lat="32.571994781" lon="35.121250153">
  <ele>263.760254</ele>
  <time>2011-09-29T05:52:35Z</time>
  <speed>1.960000</speed>
</trkpt>
<trkpt lat="32.572002411" lon="35.121299744">
  <ele>264.588379</ele>
  <time>2011-09-29T05:52:37Z</time>
  <speed>2.060000</speed>
</trkpt>
<trkpt lat="32.572006226" lon="35.121349335">
  <ele>265.877441</ele>
  <time>2011-09-29T05:52:39Z</time>
  <speed>1.940000</speed>
</trkpt>
<trkpt lat="32.572017670" lon="35.121387482">
  <ele>265.705566</ele>
  <time>2011-09-29T05:52:41Z</time>
  <speed>1.860000</speed>
</trkpt>
<trkpt lat="32.572021484" lon="35.121429443">
  <ele>265.486816</ele>
  <time>2011-09-29T05:52:43Z</time>
  <speed>1.990000</speed>
</trkpt>
<trkpt lat="32.572021484" lon="35.121467590">
  <ele>266.182129</ele>
  <time>2011-09-29T05:52:45Z</time>
  <speed>1.940000</speed>
</trkpt>
<trkpt lat="32.572021484" lon="35.121505737">
  <ele>266.275879</ele>
  <time>2011-09-29T05:52:47Z</time>
  <speed>1.870000</speed>
</trkpt>
<trkpt lat="32.572021484" lon="35.121543884">
  <ele>266.830566</ele>
  <time>2011-09-29T05:52:49Z</time>
  <speed>1.850000</speed>
</trkpt>
<trkpt lat="32.572036743" lon="35.121585846">
  <ele>267.010254</ele>
  <time>2011-09-29T05:52:51Z</time>
  <speed>2.280000</speed>
</trkpt>
<trkpt lat="32.572048187" lon="35.121620178">
  <ele>266.830566</ele>
  <time>2011-09-29T05:52:53Z</time>
  <speed>2.250000</speed>
</trkpt>
<trkpt lat="32.572055817" lon="35.121658325">
  <ele>267.166504</ele>
  <time>2011-09-29T05:52:55Z</time>
  <speed>2.120000</speed>
</trkpt>
<trkpt lat="32.572067261" lon="35.121704102">
  <ele>267.408691</ele>
  <time>2011-09-29T05:52:57Z</time>
  <speed>1.920000</speed>
</trkpt>
<trkpt lat="32.572082520" lon="35.121753693">
  <ele>267.041504</ele>
  <time>2011-09-29T05:52:59Z</time>
  <speed>1.890000</speed>
</trkpt>
<trkpt lat="32.572082520" lon="35.121791840">
  <ele>267.518066</ele>
  <time>2011-09-29T05:53:01Z</time>
  <speed>2.100000</speed>
</trkpt>
<trkpt lat="32.572078705" lon="35.121833801">
  <ele>268.307129</ele>
  <time>2011-09-29T05:53:03Z</time>
  <speed>2.010000</speed>
</trkpt>
<trkpt lat="32.572082520" lon="35.121868134">
  <ele>268.283691</ele>
  <time>2011-09-29T05:53:05Z</time>
  <speed>1.930000</speed>
</trkpt>
<trkpt lat="32.572101593" lon="35.121917725">
  <ele>268.393066</ele>
  <time>2011-09-29T05:53:07Z</time>
  <speed>2.070000</speed>
</trkpt>
<trkpt lat="32.572093964" lon="35.121955872">
  <ele>268.854004</ele>
  <time>2011-09-29T05:53:09Z</time>
  <speed>1.900000</speed>
</trkpt>
<trkpt lat="32.572074890" lon="35.121986389">
  <ele>269.643066</ele>
  <time>2011-09-29T05:53:11Z</time>
  <speed>1.900000</speed>
</trkpt>
<trkpt lat="32.572067261" lon="35.122024536">
  <ele>270.291504</ele>
  <time>2011-09-29T05:53:13Z</time>
  <speed>1.990000</speed>
</trkpt>
<trkpt lat="32.572059631" lon="35.122062683">
  <ele>269.729004</ele>
  <time>2011-09-29T05:53:15Z</time>
  <speed>1.890000</speed>
</trkpt>
<trkpt lat="32.572052002" lon="35.122100830">
  <ele>270.205566</ele>
  <time>2011-09-29T05:53:17Z</time>
  <speed>1.930000</speed>
</trkpt>
<trkpt lat="32.572055817" lon="35.122138977">
  <ele>270.385254</ele>
  <time>2011-09-29T05:53:19Z</time>
  <speed>1.680000</speed>
</trkpt>
<trkpt lat="32.572048187" lon="35.122184753">
  <ele>270.182129</ele>
  <time>2011-09-29T05:53:21Z</time>
  <speed>1.740000</speed>
</trkpt>
<trkpt lat="32.572044373" lon="35.122222900">
  <ele>270.244629</ele>
  <time>2011-09-29T05:53:23Z</time>
  <speed>1.900000</speed>
</trkpt>
<trkpt lat="32.572048187" lon="35.122261047">
  <ele>270.229004</ele>
  <time>2011-09-29T05:53:25Z</time>
  <speed>1.980000</speed>
</trkpt>
<trkpt lat="32.572036743" lon="35.122303009">
  <ele>270.572754</ele>
  <time>2011-09-29T05:53:27Z</time>
  <speed>2.090000</speed>
</trkpt>
<trkpt lat="32.572025299" lon="35.122344971">
  <ele>270.588379</ele>
  <time>2011-09-29T05:53:29Z</time>
  <speed>2.040000</speed>
</trkpt>
<trkpt lat="32.572025299" lon="35.122386932">
  <ele>270.627441</ele>
  <time>2011-09-29T05:53:31Z</time>
  <speed>1.850000</speed>
</trkpt>
<trkpt lat="32.572021484" lon="35.122428894">
  <ele>271.494629</ele>
  <time>2011-09-29T05:53:33Z</time>
  <speed>2.000000</speed>
</trkpt>
<trkpt lat="32.572017670" lon="35.122470856">
  <ele>271.283691</ele>
  <time>2011-09-29T05:53:35Z</time>
  <speed>1.990000</speed>
</trkpt>
<trkpt lat="32.572025299" lon="35.122505188">
  <ele>271.010254</ele>
  <time>2011-09-29T05:53:37Z</time>
  <speed>1.750000</speed>
</trkpt>
<trkpt lat="32.572021484" lon="35.122543335">
  <ele>271.518066</ele>
  <time>2011-09-29T05:53:39Z</time>
  <speed>1.470000</speed>
</trkpt>
<trkpt lat="32.572013855" lon="35.122581482">
  <ele>272.338379</ele>
  <time>2011-09-29T05:53:41Z</time>
  <speed>1.740000</speed>
</trkpt>
<trkpt lat="32.572021484" lon="35.122623444">
  <ele>272.111816</ele>
  <time>2011-09-29T05:53:43Z</time>
  <speed>1.920000</speed>
</trkpt>
<trkpt lat="32.572032928" lon="35.122657776">
  <ele>272.346191</ele>
  <time>2011-09-29T05:53:45Z</time>
  <speed>1.730000</speed>
</trkpt>
<trkpt lat="32.572036743" lon="35.122695923">
  <ele>272.721191</ele>
  <time>2011-09-29T05:53:47Z</time>
  <speed>1.720000</speed>
</trkpt>
<trkpt lat="32.572036743" lon="35.122730255">
  <ele>273.486816</ele>
  <time>2011-09-29T05:53:49Z</time>
  <speed>2.080000</speed>
</trkpt>
<trkpt lat="32.572044373" lon="35.122776031">
  <ele>273.846191</ele>
  <time>2011-09-29T05:53:51Z</time>
  <speed>2.100000</speed>
</trkpt>
<trkpt lat="32.572040558" lon="35.122810364">
  <ele>274.205566</ele>
  <time>2011-09-29T05:53:53Z</time>
  <speed>1.810000</speed>
</trkpt>
<trkpt lat="32.572029114" lon="35.122859955">
  <ele>274.111816</ele>
  <time>2011-09-29T05:53:56Z</time>
  <speed>1.780000</speed>
</trkpt>
<trkpt lat="32.572032928" lon="35.122901917">
  <ele>274.260254</ele>
  <time>2011-09-29T05:53:58Z</time>
  <speed>2.060000</speed>
</trkpt>
<trkpt lat="32.572036743" lon="35.122943878">
  <ele>274.229004</ele>
  <time>2011-09-29T05:54:00Z</time>
  <speed>1.880000</speed>
</trkpt>
<trkpt lat="32.572036743" lon="35.122989655">
  <ele>274.057129</ele>
  <time>2011-09-29T05:54:02Z</time>
  <speed>2.030000</speed>
</trkpt>
<trkpt lat="32.572044373" lon="35.123031616">
  <ele>274.846191</ele>
  <time>2011-09-29T05:54:04Z</time>
  <speed>1.700000</speed>
</trkpt>
<trkpt lat="32.572044373" lon="35.123073578">
  <ele>274.744629</ele>
  <time>2011-09-29T05:54:06Z</time>
  <speed>2.180000</speed>
</trkpt>
<trkpt lat="32.572052002" lon="35.123119354">
  <ele>275.275879</ele>
  <time>2011-09-29T05:54:08Z</time>
  <speed>2.090000</speed>
</trkpt>
<trkpt lat="32.572048187" lon="35.123153687">
  <ele>275.822754</ele>
  <time>2011-09-29T05:54:10Z</time>
  <speed>1.730000</speed>
</trkpt>
<trkpt lat="32.572048187" lon="35.123199463">
  <ele>276.080566</ele>
  <time>2011-09-29T05:54:12Z</time>
  <speed>1.960000</speed>
</trkpt>
<trkpt lat="32.572052002" lon="35.123237610">
  <ele>276.861816</ele>
  <time>2011-09-29T05:54:14Z</time>
  <speed>1.950000</speed>
</trkpt>
<trkpt lat="32.572059631" lon="35.123279572">
  <ele>277.002441</ele>
  <time>2011-09-29T05:54:16Z</time>
  <speed>1.750000</speed>
</trkpt>
<trkpt lat="32.572052002" lon="35.123317719">
  <ele>277.682129</ele>
  <time>2011-09-29T05:54:18Z</time>
  <speed>1.960000</speed>
</trkpt>
<trkpt lat="32.572048187" lon="35.123355865">
  <ele>278.666504</ele>
  <time>2011-09-29T05:54:20Z</time>
  <speed>1.820000</speed>
</trkpt>
<trkpt lat="32.572048187" lon="35.123394012">
  <ele>279.143066</ele>
  <time>2011-09-29T05:54:22Z</time>
  <speed>1.780000</speed>
</trkpt>
<trkpt lat="32.572052002" lon="35.123435974">
  <ele>279.283691</ele>
  <time>2011-09-29T05:54:24Z</time>
  <speed>1.870000</speed>
</trkpt>
<trkpt lat="32.572055817" lon="35.123477936">
  <ele>280.150879</ele>
  <time>2011-09-29T05:54:26Z</time>
  <speed>1.880000</speed>
</trkpt>
<trkpt lat="32.572044373" lon="35.123512268">
  <ele>280.752441</ele>
  <time>2011-09-29T05:54:28Z</time>
  <speed>1.720000</speed>
</trkpt>
<trkpt lat="32.572036743" lon="35.123546600">
  <ele>280.736816</ele>
  <time>2011-09-29T05:54:30Z</time>
  <speed>1.590000</speed>
</trkpt>
<trkpt lat="32.572025299" lon="35.123577118">
  <ele>281.166504</ele>
  <time>2011-09-29T05:54:32Z</time>
  <speed>1.750000</speed>
</trkpt>
<trkpt lat="32.572017670" lon="35.123619080">
  <ele>281.775879</ele>
  <time>2011-09-29T05:54:34Z</time>
  <speed>1.820000</speed>
</trkpt>
<trkpt lat="32.572010040" lon="35.123661041">
  <ele>281.900879</ele>
  <time>2011-09-29T05:54:36Z</time>
  <speed>1.770000</speed>
</trkpt>
<trkpt lat="32.572010040" lon="35.123703003">
  <ele>281.994629</ele>
  <time>2011-09-29T05:54:38Z</time>
  <speed>2.100000</speed>
</trkpt>
<trkpt lat="32.572002411" lon="35.123741150">
  <ele>282.314941</ele>
  <time>2011-09-29T05:54:40Z</time>
  <speed>1.890000</speed>
</trkpt>
<trkpt lat="32.571994781" lon="35.123779297">
  <ele>283.033691</ele>
  <time>2011-09-29T05:54:42Z</time>
  <speed>2.020000</speed>
</trkpt>
<trkpt lat="32.571983337" lon="35.123821259">
  <ele>283.775879</ele>
  <time>2011-09-29T05:54:44Z</time>
  <speed>2.030000</speed>
</trkpt>
<trkpt lat="32.571968079" lon="35.123859406">
  <ele>284.721191</ele>
  <time>2011-09-29T05:54:46Z</time>
  <speed>1.870000</speed>
</trkpt>
<trkpt lat="32.571971893" lon="35.123897552">
  <ele>285.361816</ele>
  <time>2011-09-29T05:54:48Z</time>
  <speed>1.860000</speed>
</trkpt>
<trkpt lat="32.571968079" lon="35.123935699">
  <ele>285.400879</ele>
  <time>2011-09-29T05:54:50Z</time>
  <speed>1.950000</speed>
</trkpt>
<trkpt lat="32.571956635" lon="35.123977661">
  <ele>286.197754</ele>
  <time>2011-09-29T05:54:52Z</time>
  <speed>1.760000</speed>
</trkpt>
<trkpt lat="32.571952820" lon="35.124019623">
  <ele>286.807129</ele>
  <time>2011-09-29T05:54:54Z</time>
  <speed>1.820000</speed>
</trkpt>
<trkpt lat="32.571949005" lon="35.124057770">
  <ele>286.674316</ele>
  <time>2011-09-29T05:54:56Z</time>
  <speed>1.900000</speed>
</trkpt>
<trkpt lat="32.571949005" lon="35.124095917">
  <ele>286.580566</ele>
  <time>2011-09-29T05:54:58Z</time>
  <speed>1.950000</speed>
</trkpt>
<trkpt lat="32.571952820" lon="35.124145508">
  <ele>286.174316</ele>
  <time>2011-09-29T05:55:00Z</time>
  <speed>2.000000</speed>
</trkpt>
<trkpt lat="32.571956635" lon="35.124179840">
  <ele>285.369629</ele>
  <time>2011-09-29T05:55:02Z</time>
  <speed>1.890000</speed>
</trkpt>
<trkpt lat="32.571949005" lon="35.124225616">
  <ele>286.080566</ele>
  <time>2011-09-29T05:55:04Z</time>
  <speed>2.060000</speed>
</trkpt>
<trkpt lat="32.571937561" lon="35.124267578">
  <ele>286.385254</ele>
  <time>2011-09-29T05:55:06Z</time>
  <speed>2.110000</speed>
</trkpt>
<trkpt lat="32.571922302" lon="35.124301910">
  <ele>287.486816</ele>
  <time>2011-09-29T05:55:08Z</time>
  <speed>1.740000</speed>
</trkpt>
<trkpt lat="32.571907043" lon="35.124343872">
  <ele>288.658691</ele>
  <time>2011-09-29T05:55:10Z</time>
  <speed>1.710000</speed>
</trkpt>
<trkpt lat="32.571895599" lon="35.124378204">
  <ele>289.393066</ele>
  <time>2011-09-29T05:55:12Z</time>
  <speed>1.520000</speed>
</trkpt>
<trkpt lat="32.571887970" lon="35.124412537">
  <ele>289.682129</ele>
  <time>2011-09-29T05:55:14Z</time>
  <speed>1.860000</speed>
</trkpt>
<trkpt lat="32.571891785" lon="35.124446869">
  <ele>289.846191</ele>
  <time>2011-09-29T05:55:16Z</time>
  <speed>1.780000</speed>
</trkpt>
<trkpt lat="32.571884155" lon="35.124492645">
  <ele>289.854004</ele>
  <time>2011-09-29T05:55:19Z</time>
  <speed>1.870000</speed>
</trkpt>
<trkpt lat="32.571865082" lon="35.124523163">
  <ele>290.072754</ele>
  <time>2011-09-29T05:55:21Z</time>
  <speed>1.750000</speed>
</trkpt>
<trkpt lat="32.571849823" lon="35.124549866">
  <ele>290.650879</ele>
  <time>2011-09-29T05:55:23Z</time>
  <speed>1.830000</speed>
</trkpt>
<trkpt lat="32.571834564" lon="35.124591827">
  <ele>291.268066</ele>
  <time>2011-09-29T05:55:25Z</time>
  <speed>1.940000</speed>
</trkpt>
<trkpt lat="32.571826935" lon="35.124626160">
  <ele>291.354004</ele>
  <time>2011-09-29T05:55:27Z</time>
  <speed>1.880000</speed>
</trkpt>
<trkpt lat="32.571815491" lon="35.124660492">
  <ele>291.260254</ele>
  <time>2011-09-29T05:55:29Z</time>
  <speed>1.710000</speed>
</trkpt>
<trkpt lat="32.571815491" lon="35.124694824">
  <ele>291.869629</ele>
  <time>2011-09-29T05:55:31Z</time>
  <speed>1.660000</speed>
</trkpt>
<trkpt lat="32.571815491" lon="35.124732971">
  <ele>292.143066</ele>
  <time>2011-09-29T05:55:33Z</time>
  <speed>1.750000</speed>
</trkpt>
<trkpt lat="32.571815491" lon="35.124771118">
  <ele>292.166504</ele>
  <time>2011-09-29T05:55:35Z</time>
  <speed>1.550000</speed>
</trkpt>
<trkpt lat="32.571811676" lon="35.124809265">
  <ele>292.479004</ele>
  <time>2011-09-29T05:55:37Z</time>
  <speed>1.850000</speed>
</trkpt>
<trkpt lat="32.571811676" lon="35.124839783">
  <ele>292.822754</ele>
  <time>2011-09-29T05:55:39Z</time>
  <speed>1.870000</speed>
</trkpt>
<trkpt lat="32.571811676" lon="35.124889374">
  <ele>294.064941</ele>
  <time>2011-09-29T05:55:41Z</time>
  <speed>1.970000</speed>
</trkpt>
<trkpt lat="32.571807861" lon="35.124927521">
  <ele>294.689941</ele>
  <time>2011-09-29T05:55:43Z</time>
  <speed>1.780000</speed>
</trkpt>
<trkpt lat="32.571807861" lon="35.124973297">
  <ele>295.025879</ele>
  <time>2011-09-29T05:55:45Z</time>
  <speed>1.580000</speed>
</trkpt>
<trkpt lat="32.571796417" lon="35.125000000">
  <ele>295.541504</ele>
  <time>2011-09-29T05:55:47Z</time>
  <speed>1.590000</speed>
</trkpt>
<trkpt lat="32.571792603" lon="35.125034332">
  <ele>295.846191</ele>
  <time>2011-09-29T05:55:49Z</time>
  <speed>1.620000</speed>
</trkpt>
<trkpt lat="32.571784973" lon="35.125076294">
  <ele>296.838379</ele>
  <time>2011-09-29T05:55:51Z</time>
  <speed>1.730000</speed>
</trkpt>
<trkpt lat="32.571777344" lon="35.125106812">
  <ele>297.494629</ele>
  <time>2011-09-29T05:55:53Z</time>
  <speed>1.800000</speed>
</trkpt>
<trkpt lat="32.571769714" lon="35.125144958">
  <ele>297.268066</ele>
  <time>2011-09-29T05:55:55Z</time>
  <speed>1.760000</speed>
</trkpt>
<trkpt lat="32.571762085" lon="35.125183105">
  <ele>297.471191</ele>
  <time>2011-09-29T05:55:57Z</time>
  <speed>1.680000</speed>
</trkpt>
<trkpt lat="32.571765900" lon="35.125217438">
  <ele>297.830566</ele>
  <time>2011-09-29T05:55:59Z</time>
  <speed>1.600000</speed>
</trkpt>
<trkpt lat="32.571765900" lon="35.125255585">
  <ele>298.104004</ele>
  <time>2011-09-29T05:56:01Z</time>
  <speed>1.580000</speed>
</trkpt>
<trkpt lat="32.571758270" lon="35.125293732">
  <ele>298.463379</ele>
  <time>2011-09-29T05:56:03Z</time>
  <speed>1.560000</speed>
</trkpt>
<trkpt lat="32.571754456" lon="35.125328064">
  <ele>298.377441</ele>
  <time>2011-09-29T05:56:05Z</time>
  <speed>1.400000</speed>
</trkpt>
<trkpt lat="32.571746826" lon="35.125358582">
  <ele>298.627441</ele>
  <time>2011-09-29T05:56:07Z</time>
  <speed>1.600000</speed>
</trkpt>
<trkpt lat="32.571743011" lon="35.125392914">
  <ele>298.924316</ele>
  <time>2011-09-29T05:56:09Z</time>
  <speed>1.450000</speed>
</trkpt>
<trkpt lat="32.571746826" lon="35.125431061">
  <ele>298.791504</ele>
  <time>2011-09-29T05:56:11Z</time>
  <speed>2.070000</speed>
</trkpt>
<trkpt lat="32.571746826" lon="35.125473022">
  <ele>299.346191</ele>
  <time>2011-09-29T05:56:13Z</time>
  <speed>1.910000</speed>
</trkpt>
<trkpt lat="32.571746826" lon="35.125507355">
  <ele>299.455566</ele>
  <time>2011-09-29T05:56:15Z</time>
  <speed>1.640000</speed>
</trkpt>
<trkpt lat="32.571758270" lon="35.125545502">
  <ele>299.838379</ele>
  <time>2011-09-29T05:56:17Z</time>
  <speed>1.660000</speed>
</trkpt>
<trkpt lat="32.571773529" lon="35.125587463">
  <ele>299.994629</ele>
  <time>2011-09-29T05:56:19Z</time>
  <speed>1.450000</speed>
</trkpt>
<trkpt lat="32.571769714" lon="35.125621796">
  <ele>300.041504</ele>
  <time>2011-09-29T05:56:21Z</time>
  <speed>1.680000</speed>
</trkpt>
<trkpt lat="32.571765900" lon="35.125671387">
  <ele>300.869629</ele>
  <time>2011-09-29T05:56:24Z</time>
  <speed>1.690000</speed>
</trkpt>
<trkpt lat="32.571762085" lon="35.125709534">
  <ele>301.033691</ele>
  <time>2011-09-29T05:56:26Z</time>
  <speed>1.970000</speed>
</trkpt>
<trkpt lat="32.571769714" lon="35.125747681">
  <ele>301.174316</ele>
  <time>2011-09-29T05:56:28Z</time>
  <speed>1.470000</speed>
</trkpt>
<trkpt lat="32.571773529" lon="35.125785828">
  <ele>301.244629</ele>
  <time>2011-09-29T05:56:30Z</time>
  <speed>1.900000</speed>
</trkpt>
<trkpt lat="32.571777344" lon="35.125820160">
  <ele>302.119629</ele>
  <time>2011-09-29T05:56:32Z</time>
  <speed>1.800000</speed>
</trkpt>
<trkpt lat="32.571781158" lon="35.125865936">
  <ele>302.471191</ele>
  <time>2011-09-29T05:56:35Z</time>
  <speed>1.580000</speed>
</trkpt>
<trkpt lat="32.571773529" lon="35.125896454">
  <ele>303.197754</ele>
  <time>2011-09-29T05:56:37Z</time>
  <speed>1.490000</speed>
</trkpt>
<trkpt lat="32.571773529" lon="35.125926971">
  <ele>303.564941</ele>
  <time>2011-09-29T05:56:39Z</time>
  <speed>1.730000</speed>
</trkpt>
<trkpt lat="32.571773529" lon="35.125961304">
  <ele>304.010254</ele>
  <time>2011-09-29T05:56:41Z</time>
  <speed>1.490000</speed>
</trkpt>
<trkpt lat="32.571777344" lon="35.125995636">
  <ele>304.643066</ele>
  <time>2011-09-29T05:56:43Z</time>
  <speed>1.830000</speed>
</trkpt>
<trkpt lat="32.571781158" lon="35.126029968">
  <ele>304.807129</ele>
  <time>2011-09-29T05:56:45Z</time>
  <speed>1.510000</speed>
</trkpt>
<trkpt lat="32.571792603" lon="35.126064301">
  <ele>305.400879</ele>
  <time>2011-09-29T05:56:47Z</time>
  <speed>1.580000</speed>
</trkpt>
<trkpt lat="32.571800232" lon="35.126094818">
  <ele>305.760254</ele>
  <time>2011-09-29T05:56:49Z</time>
  <speed>1.560000</speed>
</trkpt>
<trkpt lat="32.571807861" lon="35.126129150">
  <ele>306.611816</ele>
  <time>2011-09-29T05:56:52Z</time>
  <speed>1.200000</speed>
</trkpt>
<trkpt lat="32.571819305" lon="35.126163483">
  <ele>306.869629</ele>
  <time>2011-09-29T05:56:54Z</time>
  <speed>1.510000</speed>
</trkpt>
<trkpt lat="32.571815491" lon="35.126197815">
  <ele>307.752441</ele>
  <time>2011-09-29T05:56:56Z</time>
  <speed>1.270000</speed>
</trkpt>
<trkpt lat="32.571811676" lon="35.126239777">
  <ele>308.572754</ele>
  <time>2011-09-29T05:56:59Z</time>
  <speed>1.360000</speed>
</trkpt>
<trkpt lat="32.571800232" lon="35.126281738">
  <ele>309.229004</ele>
  <time>2011-09-29T05:57:02Z</time>
  <speed>1.480000</speed>
</trkpt>
<trkpt lat="32.571804047" lon="35.126319885">
  <ele>309.666504</ele>
  <time>2011-09-29T05:57:05Z</time>
  <speed>1.320000</speed>
</trkpt>
<trkpt lat="32.571804047" lon="35.126365662">
  <ele>309.486816</ele>
  <time>2011-09-29T05:57:08Z</time>
  <speed>1.180000</speed>
</trkpt>
<trkpt lat="32.571781158" lon="35.126399994">
  <ele>309.861816</ele>
  <time>2011-09-29T05:57:11Z</time>
  <speed>1.400000</speed>
</trkpt>
<trkpt lat="32.571769714" lon="35.126441956">
  <ele>310.963379</ele>
  <time>2011-09-29T05:57:14Z</time>
  <speed>1.460000</speed>
</trkpt>
<trkpt lat="32.571765900" lon="35.126480103">
  <ele>311.502441</ele>
  <time>2011-09-29T05:57:16Z</time>
  <speed>1.890000</speed>
</trkpt>
<trkpt lat="32.571754456" lon="35.126506805">
  <ele>311.861816</ele>
  <time>2011-09-29T05:57:18Z</time>
  <speed>1.530000</speed>
</trkpt>
<trkpt lat="32.571746826" lon="35.126552582">
  <ele>311.900879</ele>
  <time>2011-09-29T05:57:21Z</time>
  <speed>1.510000</speed>
</trkpt>
<trkpt lat="32.571754456" lon="35.126590729">
  <ele>312.479004</ele>
  <time>2011-09-29T05:57:23Z</time>
  <speed>1.580000</speed>
</trkpt>
<trkpt lat="32.571762085" lon="35.126636505">
  <ele>312.572754</ele>
  <time>2011-09-29T05:57:26Z</time>
  <speed>1.670000</speed>
</trkpt>
<trkpt lat="32.571765900" lon="35.126678467">
  <ele>312.854004</ele>
  <time>2011-09-29T05:57:28Z</time>
  <speed>1.970000</speed>
</trkpt>
<trkpt lat="32.571773529" lon="35.126716614">
  <ele>312.744629</ele>
  <time>2011-09-29T05:57:30Z</time>
  <speed>1.580000</speed>
</trkpt>
<trkpt lat="32.571781158" lon="35.126750946">
  <ele>313.393066</ele>
  <time>2011-09-29T05:57:32Z</time>
  <speed>1.440000</speed>
</trkpt>
<trkpt lat="32.571788788" lon="35.126789093">
  <ele>313.393066</ele>
  <time>2011-09-29T05:57:34Z</time>
  <speed>1.660000</speed>
</trkpt>
<trkpt lat="32.571807861" lon="35.126819611">
  <ele>313.221191</ele>
  <time>2011-09-29T05:57:36Z</time>
  <speed>1.620000</speed>
</trkpt>
<trkpt lat="32.571823120" lon="35.126850128">
  <ele>312.979004</ele>
  <time>2011-09-29T05:57:38Z</time>
  <speed>1.730000</speed>
</trkpt>
<trkpt lat="32.571830750" lon="35.126888275">
  <ele>313.018066</ele>
  <time>2011-09-29T05:57:40Z</time>
  <speed>1.630000</speed>
</trkpt>
<trkpt lat="32.571823120" lon="35.126930237">
  <ele>312.697754</ele>
  <time>2011-09-29T05:57:43Z</time>
  <speed>1.520000</speed>
</trkpt>
<trkpt lat="32.571838379" lon="35.126956940">
  <ele>313.611816</ele>
  <time>2011-09-29T05:57:45Z</time>
  <speed>1.420000</speed>
</trkpt>
<trkpt lat="32.571842194" lon="35.127002716">
  <ele>313.799316</ele>
  <time>2011-09-29T05:57:48Z</time>
  <speed>1.590000</speed>
</trkpt>
<trkpt lat="32.571846008" lon="35.127037048">
  <ele>314.189941</ele>
  <time>2011-09-29T05:57:50Z</time>
  <speed>1.530000</speed>
</trkpt>
<trkpt lat="32.571868896" lon="35.127067566">
  <ele>314.393066</ele>
  <time>2011-09-29T05:57:53Z</time>
  <speed>1.510000</speed>
</trkpt>
<trkpt lat="32.571891785" lon="35.127105713">
  <ele>313.979004</ele>
  <time>2011-09-29T05:57:56Z</time>
  <speed>1.600000</speed>
</trkpt>
<trkpt lat="32.571903229" lon="35.127143860">
  <ele>313.877441</ele>
  <time>2011-09-29T05:57:59Z</time>
  <speed>1.710000</speed>
</trkpt>
<trkpt lat="32.571907043" lon="35.127174377">
  <ele>313.549316</ele>
  <time>2011-09-29T05:58:01Z</time>
  <speed>1.310000</speed>
</trkpt>
<trkpt lat="32.571895599" lon="35.127212524">
  <ele>312.932129</ele>
  <time>2011-09-29T05:58:04Z</time>
  <speed>1.310000</speed>
</trkpt>
<trkpt lat="32.571865082" lon="35.127235413">
  <ele>313.822754</ele>
  <time>2011-09-29T05:58:07Z</time>
  <speed>1.290000</speed>
</trkpt>
<trkpt lat="32.571849823" lon="35.127258301">
  <ele>314.096191</ele>
  <time>2011-09-29T05:58:09Z</time>
  <speed>1.540000</speed>
</trkpt>
<trkpt lat="32.571823120" lon="35.127281189">
  <ele>315.150879</ele>
  <time>2011-09-29T05:58:11Z</time>
  <speed>1.350000</speed>
</trkpt>
<trkpt lat="32.571800232" lon="35.127307892">
  <ele>315.596191</ele>
  <time>2011-09-29T05:58:14Z</time>
  <speed>1.280000</speed>
</trkpt>
<trkpt lat="32.571773529" lon="35.127342224">
  <ele>315.916504</ele>
  <time>2011-09-29T05:58:17Z</time>
  <speed>1.750000</speed>
</trkpt>
<trkpt lat="32.571743011" lon="35.127368927">
  <ele>317.377441</ele>
  <time>2011-09-29T05:58:20Z</time>
  <speed>1.550000</speed>
</trkpt>
<trkpt lat="32.571716309" lon="35.127399445">
  <ele>317.502441</ele>
  <time>2011-09-29T05:58:24Z</time>
  <speed>1.450000</speed>
</trkpt>
<trkpt lat="32.571697235" lon="35.127426147">
  <ele>317.010254</ele>
  <time>2011-09-29T05:58:26Z</time>
  <speed>1.660000</speed>
</trkpt>
<trkpt lat="32.571670532" lon="35.127460480">
  <ele>317.010254</ele>
  <time>2011-09-29T05:58:29Z</time>
  <speed>1.440000</speed>
</trkpt>
<trkpt lat="32.571659088" lon="35.127490997">
  <ele>317.533691</ele>
  <time>2011-09-29T05:58:31Z</time>
  <speed>1.410000</speed>
</trkpt>
<trkpt lat="32.571632385" lon="35.127521515">
  <ele>317.252441</ele>
  <time>2011-09-29T05:58:34Z</time>
  <speed>1.240000</speed>
</trkpt>
<trkpt lat="32.571617126" lon="35.127552032">
  <ele>317.119629</ele>
  <time>2011-09-29T05:58:37Z</time>
  <speed>1.330000</speed>
</trkpt>
<trkpt lat="32.571609497" lon="35.127586365">
  <ele>317.564941</ele>
  <time>2011-09-29T05:58:39Z</time>
  <speed>1.480000</speed>
</trkpt>
<trkpt lat="32.571590424" lon="35.127624512">
  <ele>317.088379</ele>
  <time>2011-09-29T05:58:42Z</time>
  <speed>1.350000</speed>
</trkpt>
<trkpt lat="32.571582794" lon="35.127655029">
  <ele>316.947754</ele>
  <time>2011-09-29T05:58:45Z</time>
  <speed>1.090000</speed>
</trkpt>
<trkpt lat="32.571556091" lon="35.127674103">
  <ele>317.033691</ele>
  <time>2011-09-29T05:58:48Z</time>
  <speed>1.230000</speed>
</trkpt>
<trkpt lat="32.571540833" lon="35.127704620">
  <ele>317.635254</ele>
  <time>2011-09-29T05:58:50Z</time>
  <speed>1.090000</speed>
</trkpt>
<trkpt lat="32.571514130" lon="35.127731323">
  <ele>318.018066</ele>
  <time>2011-09-29T05:58:53Z</time>
  <speed>1.450000</speed>
</trkpt>
<trkpt lat="32.571502686" lon="35.127773285">
  <ele>317.627441</ele>
  <time>2011-09-29T05:58:56Z</time>
  <speed>1.450000</speed>
</trkpt>
<trkpt lat="32.571479797" lon="35.127807617">
  <ele>316.799316</ele>
  <time>2011-09-29T05:58:59Z</time>
  <speed>1.490000</speed>
</trkpt>
<trkpt lat="32.571460724" lon="35.127834320">
  <ele>317.338379</ele>
  <time>2011-09-29T05:59:01Z</time>
  <speed>1.490000</speed>
</trkpt>
<trkpt lat="32.571445465" lon="35.127868652">
  <ele>318.041504</ele>
  <time>2011-09-29T05:59:03Z</time>
  <speed>1.430000</speed>
</trkpt>
<trkpt lat="32.571430206" lon="35.127895355">
  <ele>318.752441</ele>
  <time>2011-09-29T05:59:05Z</time>
  <speed>1.500000</speed>
</trkpt>
<trkpt lat="32.571418762" lon="35.127929688">
  <ele>319.236816</ele>
  <time>2011-09-29T05:59:08Z</time>
  <speed>1.070000</speed>
</trkpt>
<trkpt lat="32.571407318" lon="35.127964020">
  <ele>319.314941</ele>
  <time>2011-09-29T05:59:10Z</time>
  <speed>1.530000</speed>
</trkpt>
<trkpt lat="32.571384430" lon="35.127990723">
  <ele>319.439941</ele>
  <time>2011-09-29T05:59:12Z</time>
  <speed>1.640000</speed>
</trkpt>
<trkpt lat="32.571365356" lon="35.128028870">
  <ele>319.736816</ele>
  <time>2011-09-29T05:59:15Z</time>
  <speed>1.580000</speed>
</trkpt>
<trkpt lat="32.571353912" lon="35.128059387">
  <ele>319.721191</ele>
  <time>2011-09-29T05:59:17Z</time>
  <speed>1.400000</speed>
</trkpt>
<trkpt lat="32.571338654" lon="35.128101349">
  <ele>320.330566</ele>
  <time>2011-09-29T05:59:20Z</time>
  <speed>1.400000</speed>
</trkpt>
<trkpt lat="32.571311951" lon="35.128120422">
  <ele>320.510254</ele>
  <time>2011-09-29T05:59:23Z</time>
  <speed>1.140000</speed>
</trkpt>
<trkpt lat="32.571311951" lon="35.128166199">
  <ele>320.221191</ele>
  <time>2011-09-29T05:59:26Z</time>
  <speed>1.480000</speed>
</trkpt>
<trkpt lat="32.571292877" lon="35.128208160">
  <ele>320.416504</ele>
  <time>2011-09-29T05:59:29Z</time>
  <speed>1.830000</speed>
</trkpt>
<trkpt lat="32.571277618" lon="35.128238678">
  <ele>320.533691</ele>
  <time>2011-09-29T05:59:31Z</time>
  <speed>1.650000</speed>
</trkpt>
<trkpt lat="32.571258545" lon="35.128265381">
  <ele>320.799316</ele>
  <time>2011-09-29T05:59:33Z</time>
  <speed>1.520000</speed>
</trkpt>
<trkpt lat="32.571235657" lon="35.128299713">
  <ele>321.299316</ele>
  <time>2011-09-29T05:59:35Z</time>
  <speed>1.690000</speed>
</trkpt>
<trkpt lat="32.571220398" lon="35.128334045">
  <ele>321.619629</ele>
  <time>2011-09-29T05:59:37Z</time>
  <speed>1.810000</speed>
</trkpt>
<trkpt lat="32.571201324" lon="35.128372192">
  <ele>321.525879</ele>
  <time>2011-09-29T05:59:40Z</time>
  <speed>1.540000</speed>
</trkpt>
<trkpt lat="32.571182251" lon="35.128410339">
  <ele>320.549316</ele>
  <time>2011-09-29T05:59:43Z</time>
  <speed>1.890000</speed>
</trkpt>
<trkpt lat="32.571159363" lon="35.128437042">
  <ele>321.104004</ele>
  <time>2011-09-29T05:59:45Z</time>
  <speed>1.730000</speed>
</trkpt>
<trkpt lat="32.571144104" lon="35.128463745">
  <ele>320.924316</ele>
  <time>2011-09-29T05:59:47Z</time>
  <speed>1.670000</speed>
</trkpt>
<trkpt lat="32.571125031" lon="35.128498077">
  <ele>320.760254</ele>
  <time>2011-09-29T05:59:49Z</time>
  <speed>1.900000</speed>
</trkpt>
<trkpt lat="32.571105957" lon="35.128532410">
  <ele>320.564941</ele>
  <time>2011-09-29T05:59:51Z</time>
  <speed>1.850000</speed>
</trkpt>
<trkpt lat="32.571090698" lon="35.128566742">
  <ele>320.650879</ele>
  <time>2011-09-29T05:59:53Z</time>
  <speed>1.640000</speed>
</trkpt>
<trkpt lat="32.571075439" lon="35.128597260">
  <ele>320.932129</ele>
  <time>2011-09-29T05:59:55Z</time>
  <speed>1.440000</speed>
</trkpt>
<trkpt lat="32.571067810" lon="35.128627777">
  <ele>320.963379</ele>
  <time>2011-09-29T05:59:57Z</time>
  <speed>1.560000</speed>
</trkpt>
<trkpt lat="32.571056366" lon="35.128658295">
  <ele>321.057129</ele>
  <time>2011-09-29T05:59:59Z</time>
  <speed>1.550000</speed>
</trkpt>
<trkpt lat="32.571029663" lon="35.128700256">
  <ele>320.627441</ele>
  <time>2011-09-29T06:00:02Z</time>
  <speed>1.770000</speed>
</trkpt>
<trkpt lat="32.571014404" lon="35.128730774">
  <ele>320.432129</ele>
  <time>2011-09-29T06:00:04Z</time>
  <speed>1.930000</speed>
</trkpt>
<trkpt lat="32.570991516" lon="35.128765106">
  <ele>320.525879</ele>
  <time>2011-09-29T06:00:06Z</time>
  <speed>1.660000</speed>
</trkpt>
<trkpt lat="32.570980072" lon="35.128803253">
  <ele>320.541504</ele>
  <time>2011-09-29T06:00:08Z</time>
  <speed>1.620000</speed>
</trkpt>
<trkpt lat="32.570964813" lon="35.128829956">
  <ele>320.744629</ele>
  <time>2011-09-29T06:00:10Z</time>
  <speed>1.770000</speed>
</trkpt>
<trkpt lat="32.570938110" lon="35.128860474">
  <ele>320.674316</ele>
  <time>2011-09-29T06:00:12Z</time>
  <speed>1.930000</speed>
</trkpt>
<trkpt lat="32.570919037" lon="35.128898621">
  <ele>320.877441</ele>
  <time>2011-09-29T06:00:14Z</time>
  <speed>1.690000</speed>
</trkpt>
<trkpt lat="32.570896149" lon="35.128929138">
  <ele>320.486816</ele>
  <time>2011-09-29T06:00:16Z</time>
  <speed>1.850000</speed>
</trkpt>
<trkpt lat="32.570877075" lon="35.128963470">
  <ele>319.830566</ele>
  <time>2011-09-29T06:00:19Z</time>
  <speed>1.750000</speed>
</trkpt>
<trkpt lat="32.570858002" lon="35.128997803">
  <ele>320.088379</ele>
  <time>2011-09-29T06:00:21Z</time>
  <speed>1.860000</speed>
</trkpt>
<trkpt lat="32.570838928" lon="35.129024506">
  <ele>319.838379</ele>
  <time>2011-09-29T06:00:23Z</time>
  <speed>2.000000</speed>
</trkpt>
<trkpt lat="32.570827484" lon="35.129066467">
  <ele>320.158691</ele>
  <time>2011-09-29T06:00:25Z</time>
  <speed>2.030000</speed>
</trkpt>
<trkpt lat="32.570812225" lon="35.129104614">
  <ele>320.486816</ele>
  <time>2011-09-29T06:00:27Z</time>
  <speed>2.040000</speed>
</trkpt>
<trkpt lat="32.570789337" lon="35.129154205">
  <ele>320.494629</ele>
  <time>2011-09-29T06:00:29Z</time>
  <speed>2.420000</speed>
</trkpt>
<trkpt lat="32.570770264" lon="35.129203796">
  <ele>319.971191</ele>
  <time>2011-09-29T06:00:31Z</time>
  <speed>2.660000</speed>
</trkpt>
<trkpt lat="32.570758820" lon="35.129234314">
  <ele>319.775879</ele>
  <time>2011-09-29T06:00:32Z</time>
  <speed>2.870000</speed>
</trkpt>
<trkpt lat="32.570743561" lon="35.129261017">
  <ele>319.752441</ele>
  <time>2011-09-29T06:00:33Z</time>
  <speed>3.140000</speed>
</trkpt>
<trkpt lat="32.570732117" lon="35.129291534">
  <ele>320.338379</ele>
  <time>2011-09-29T06:00:34Z</time>
  <speed>3.410000</speed>
</trkpt>
<trkpt lat="32.570724487" lon="35.129329681">
  <ele>320.010254</ele>
  <time>2011-09-29T06:00:35Z</time>
  <speed>3.540000</speed>
</trkpt>
<trkpt lat="32.570713043" lon="35.129367828">
  <ele>319.971191</ele>
  <time>2011-09-29T06:00:36Z</time>
  <speed>3.830000</speed>
</trkpt>
<trkpt lat="32.570709229" lon="35.129409790">
  <ele>319.955566</ele>
  <time>2011-09-29T06:00:37Z</time>
  <speed>4.060000</speed>
</trkpt>
<trkpt lat="32.570701599" lon="35.129459381">
  <ele>320.189941</ele>
  <time>2011-09-29T06:00:38Z</time>
  <speed>4.420000</speed>
</trkpt>
<trkpt lat="32.570701599" lon="35.129505157">
  <ele>319.963379</ele>
  <time>2011-09-29T06:00:39Z</time>
  <speed>4.470000</speed>
</trkpt>
<trkpt lat="32.570697784" lon="35.129550934">
  <ele>319.682129</ele>
  <time>2011-09-29T06:00:40Z</time>
  <speed>4.750000</speed>
</trkpt>
<trkpt lat="32.570690155" lon="35.129604340">
  <ele>319.150879</ele>
  <time>2011-09-29T06:00:41Z</time>
  <speed>4.690000</speed>
</trkpt>
<trkpt lat="32.570682526" lon="35.129657745">
  <ele>318.877441</ele>
  <time>2011-09-29T06:00:42Z</time>
  <speed>5.300000</speed>
</trkpt>
<trkpt lat="32.570671082" lon="35.129714966">
  <ele>318.666504</ele>
  <time>2011-09-29T06:00:43Z</time>
  <speed>5.530000</speed>
</trkpt>
<trkpt lat="32.570667267" lon="35.129776001">
  <ele>318.752441</ele>
  <time>2011-09-29T06:00:44Z</time>
  <speed>5.900000</speed>
</trkpt>
<trkpt lat="32.570655823" lon="35.129840851">
  <ele>317.744629</ele>
  <time>2011-09-29T06:00:45Z</time>
  <speed>6.210000</speed>
</trkpt>
<trkpt lat="32.570640564" lon="35.129905701">
  <ele>318.268066</ele>
  <time>2011-09-29T06:00:46Z</time>
  <speed>6.190000</speed>
</trkpt>
<trkpt lat="32.570625305" lon="35.129966736">
  <ele>317.549316</ele>
  <time>2011-09-29T06:00:47Z</time>
  <speed>6.830000</speed>
</trkpt>
<trkpt lat="32.570610046" lon="35.130043030">
  <ele>316.979004</ele>
  <time>2011-09-29T06:00:48Z</time>
  <speed>7.060000</speed>
</trkpt>
<trkpt lat="32.570594788" lon="35.130119324">
  <ele>315.986816</ele>
  <time>2011-09-29T06:00:49Z</time>
  <speed>7.580000</speed>
</trkpt>
<trkpt lat="32.570575714" lon="35.130199432">
  <ele>315.057129</ele>
  <time>2011-09-29T06:00:50Z</time>
  <speed>7.840000</speed>
</trkpt>
<trkpt lat="32.570552826" lon="35.130275726">
  <ele>313.643066</ele>
  <time>2011-09-29T06:00:51Z</time>
  <speed>7.930000</speed>
</trkpt>
<trkpt lat="32.570537567" lon="35.130363464">
  <ele>311.869629</ele>
  <time>2011-09-29T06:00:52Z</time>
  <speed>8.340000</speed>
</trkpt>
<trkpt lat="32.570529938" lon="35.130447388">
  <ele>312.307129</ele>
  <time>2011-09-29T06:00:53Z</time>
  <speed>8.160000</speed>
</trkpt>
<trkpt lat="32.570541382" lon="35.130531311">
  <ele>312.244629</ele>
  <time>2011-09-29T06:00:54Z</time>
  <speed>7.910000</speed>
</trkpt>
<trkpt lat="32.570564270" lon="35.130615234">
  <ele>312.010254</ele>
  <time>2011-09-29T06:00:55Z</time>
  <speed>7.810000</speed>
</trkpt>
<trkpt lat="32.570587158" lon="35.130695343">
  <ele>312.119629</ele>
  <time>2011-09-29T06:00:56Z</time>
  <speed>7.430000</speed>
</trkpt>
<trkpt lat="32.570613861" lon="35.130767822">
  <ele>312.182129</ele>
  <time>2011-09-29T06:00:57Z</time>
  <speed>7.420000</speed>
</trkpt>
<trkpt lat="32.570632935" lon="35.130840302">
  <ele>312.002441</ele>
  <time>2011-09-29T06:00:58Z</time>
  <speed>7.050000</speed>
</trkpt>
<trkpt lat="32.570652008" lon="35.130908966">
  <ele>311.775879</ele>
  <time>2011-09-29T06:00:59Z</time>
  <speed>6.810000</speed>
</trkpt>
<trkpt lat="32.570663452" lon="35.130977631">
  <ele>311.229004</ele>
  <time>2011-09-29T06:01:00Z</time>
  <speed>6.480000</speed>
</trkpt>
<trkpt lat="32.570674896" lon="35.131046295">
  <ele>310.080566</ele>
  <time>2011-09-29T06:01:01Z</time>
  <speed>6.130000</speed>
</trkpt>
<trkpt lat="32.570678711" lon="35.131118774">
  <ele>310.807129</ele>
  <time>2011-09-29T06:01:02Z</time>
  <speed>6.470000</speed>
</trkpt>
<trkpt lat="32.570686340" lon="35.131183624">
  <ele>310.580566</ele>
  <time>2011-09-29T06:01:03Z</time>
  <speed>5.890000</speed>
</trkpt>
<trkpt lat="32.570690155" lon="35.131240845">
  <ele>310.143066</ele>
  <time>2011-09-29T06:01:04Z</time>
  <speed>5.220000</speed>
</trkpt>
<trkpt lat="32.570701599" lon="35.131290436">
  <ele>310.010254</ele>
  <time>2011-09-29T06:01:05Z</time>
  <speed>4.570000</speed>
</trkpt>
<trkpt lat="32.570713043" lon="35.131328583">
  <ele>310.572754</ele>
  <time>2011-09-29T06:01:06Z</time>
  <speed>3.790000</speed>
</trkpt>
<trkpt lat="32.570713043" lon="35.131359100">
  <ele>310.432129</ele>
  <time>2011-09-29T06:01:07Z</time>
  <speed>3.520000</speed>
</trkpt>
<trkpt lat="32.570716858" lon="35.131393433">
  <ele>310.033691</ele>
  <time>2011-09-29T06:01:08Z</time>
  <speed>2.870000</speed>
</trkpt>
<trkpt lat="32.570716858" lon="35.131439209">
  <ele>310.463379</ele>
  <time>2011-09-29T06:01:10Z</time>
  <speed>2.110000</speed>
</trkpt>
<trkpt lat="32.570724487" lon="35.131484985">
  <ele>310.400879</ele>
  <time>2011-09-29T06:01:12Z</time>
  <speed>1.890000</speed>
</trkpt>
<trkpt lat="32.570739746" lon="35.131523132">
  <ele>310.221191</ele>
  <time>2011-09-29T06:01:14Z</time>
  <speed>2.120000</speed>
</trkpt>
<trkpt lat="32.570747375" lon="35.131557465">
  <ele>311.158691</ele>
  <time>2011-09-29T06:01:16Z</time>
  <speed>1.850000</speed>
</trkpt>
<trkpt lat="32.570758820" lon="35.131599426">
  <ele>311.932129</ele>
  <time>2011-09-29T06:01:19Z</time>
  <speed>1.800000</speed>
</trkpt>
<trkpt lat="32.570766449" lon="35.131645203">
  <ele>312.057129</ele>
  <time>2011-09-29T06:01:21Z</time>
  <speed>1.680000</speed>
</trkpt>
<trkpt lat="32.570762634" lon="35.131683350">
  <ele>312.900879</ele>
  <time>2011-09-29T06:01:23Z</time>
  <speed>1.640000</speed>
</trkpt>
<trkpt lat="32.570774078" lon="35.131713867">
  <ele>313.150879</ele>
  <time>2011-09-29T06:01:25Z</time>
  <speed>1.690000</speed>
</trkpt>
<trkpt lat="32.570785522" lon="35.131748199">
  <ele>313.283691</ele>
  <time>2011-09-29T06:01:27Z</time>
  <speed>1.520000</speed>
</trkpt>
<trkpt lat="32.570796967" lon="35.131782532">
  <ele>314.064941</ele>
  <time>2011-09-29T06:01:29Z</time>
  <speed>1.590000</speed>
</trkpt>
<trkpt lat="32.570804596" lon="35.131820679">
  <ele>314.572754</ele>
  <time>2011-09-29T06:01:31Z</time>
  <speed>1.760000</speed>
</trkpt>
<trkpt lat="32.570819855" lon="35.131855011">
  <ele>314.744629</ele>
  <time>2011-09-29T06:01:33Z</time>
  <speed>1.790000</speed>
</trkpt>
<trkpt lat="32.570823669" lon="35.131889343">
  <ele>315.393066</ele>
  <time>2011-09-29T06:01:35Z</time>
  <speed>1.650000</speed>
</trkpt>
<trkpt lat="32.570827484" lon="35.131927490">
  <ele>315.689941</ele>
  <time>2011-09-29T06:01:37Z</time>
  <speed>1.690000</speed>
</trkpt>
<trkpt lat="32.570835114" lon="35.131961823">
  <ele>316.408691</ele>
  <time>2011-09-29T06:01:39Z</time>
  <speed>1.330000</speed>
</trkpt>
<trkpt lat="32.570842743" lon="35.132003784">
  <ele>317.025879</ele>
  <time>2011-09-29T06:01:42Z</time>
  <speed>1.630000</speed>
</trkpt>
<trkpt lat="32.570842743" lon="35.132045746">
  <ele>316.908691</ele>
  <time>2011-09-29T06:01:45Z</time>
  <speed>1.660000</speed>
</trkpt>
<trkpt lat="32.570846558" lon="35.132091522">
  <ele>316.807129</ele>
  <time>2011-09-29T06:01:48Z</time>
  <speed>1.440000</speed>
</trkpt>
<trkpt lat="32.570854187" lon="35.132137299">
  <ele>316.697754</ele>
  <time>2011-09-29T06:01:51Z</time>
  <speed>1.540000</speed>
</trkpt>
<trkpt lat="32.570854187" lon="35.132183075">
  <ele>317.635254</ele>
  <time>2011-09-29T06:01:54Z</time>
  <speed>1.670000</speed>
</trkpt>
<trkpt lat="32.570858002" lon="35.132225037">
  <ele>317.846191</ele>
  <time>2011-09-29T06:01:57Z</time>
  <speed>1.230000</speed>
</trkpt>
<trkpt lat="32.570861816" lon="35.132270813">
  <ele>318.104004</ele>
  <time>2011-09-29T06:02:00Z</time>
  <speed>1.480000</speed>
</trkpt>
<trkpt lat="32.570861816" lon="35.132305145">
  <ele>318.939941</ele>
  <time>2011-09-29T06:02:02Z</time>
  <speed>1.300000</speed>
</trkpt>
<trkpt lat="32.570869446" lon="35.132339478">
  <ele>318.713379</ele>
  <time>2011-09-29T06:02:04Z</time>
  <speed>1.490000</speed>
</trkpt>
<trkpt lat="32.570877075" lon="35.132373810">
  <ele>318.564941</ele>
  <time>2011-09-29T06:02:06Z</time>
  <speed>1.300000</speed>
</trkpt>
<trkpt lat="32.570880890" lon="35.132415771">
  <ele>318.846191</ele>
  <time>2011-09-29T06:02:08Z</time>
  <speed>1.440000</speed>
</trkpt>
<trkpt lat="32.570888519" lon="35.132453918">
  <ele>318.666504</ele>
  <time>2011-09-29T06:02:10Z</time>
  <speed>1.650000</speed>
</trkpt>
<trkpt lat="32.570896149" lon="35.132492065">
  <ele>318.908691</ele>
  <time>2011-09-29T06:02:12Z</time>
  <speed>1.680000</speed>
</trkpt>
<trkpt lat="32.570907593" lon="35.132530212">
  <ele>319.588379</ele>
  <time>2011-09-29T06:02:14Z</time>
  <speed>1.680000</speed>
</trkpt>
<trkpt lat="32.570919037" lon="35.132568359">
  <ele>319.768066</ele>
  <time>2011-09-29T06:02:16Z</time>
  <speed>1.750000</speed>
</trkpt>
<trkpt lat="32.570930481" lon="35.132610321">
  <ele>320.400879</ele>
  <time>2011-09-29T06:02:18Z</time>
  <speed>1.520000</speed>
</trkpt>
<trkpt lat="32.570941925" lon="35.132648468">
  <ele>320.924316</ele>
  <time>2011-09-29T06:02:20Z</time>
  <speed>1.510000</speed>
</trkpt>
<trkpt lat="32.570941925" lon="35.132686615">
  <ele>320.822754</ele>
  <time>2011-09-29T06:02:23Z</time>
  <speed>1.400000</speed>
</trkpt>
<trkpt lat="32.570938110" lon="35.132724762">
  <ele>321.510254</ele>
  <time>2011-09-29T06:02:26Z</time>
  <speed>1.180000</speed>
</trkpt>
<trkpt lat="32.570938110" lon="35.132766724">
  <ele>322.072754</ele>
  <time>2011-09-29T06:02:29Z</time>
  <speed>1.710000</speed>
</trkpt>
<trkpt lat="32.570938110" lon="35.132812500">
  <ele>323.025879</ele>
  <time>2011-09-29T06:02:32Z</time>
  <speed>1.570000</speed>
</trkpt>
<trkpt lat="32.570930481" lon="35.132858276">
  <ele>323.752441</ele>
  <time>2011-09-29T06:02:35Z</time>
  <speed>1.450000</speed>
</trkpt>
<trkpt lat="32.570919037" lon="35.132884979">
  <ele>324.736816</ele>
  <time>2011-09-29T06:02:37Z</time>
  <speed>1.540000</speed>
</trkpt>
<trkpt lat="32.570907593" lon="35.132938385">
  <ele>325.486816</ele>
  <time>2011-09-29T06:02:40Z</time>
  <speed>1.610000</speed>
</trkpt>
<trkpt lat="32.570907593" lon="35.132972717">
  <ele>326.119629</ele>
  <time>2011-09-29T06:02:42Z</time>
  <speed>1.590000</speed>
</trkpt>
<trkpt lat="32.570911407" lon="35.133010864">
  <ele>326.299316</ele>
  <time>2011-09-29T06:02:44Z</time>
  <speed>1.420000</speed>
</trkpt>
<trkpt lat="32.570907593" lon="35.133041382">
  <ele>327.447754</ele>
  <time>2011-09-29T06:02:46Z</time>
  <speed>1.620000</speed>
</trkpt>
<trkpt lat="32.570903778" lon="35.133079529">
  <ele>328.049316</ele>
  <time>2011-09-29T06:02:48Z</time>
  <speed>1.740000</speed>
</trkpt>
<trkpt lat="32.570903778" lon="35.133113861">
  <ele>327.635254</ele>
  <time>2011-09-29T06:02:50Z</time>
  <speed>1.630000</speed>
</trkpt>
<trkpt lat="32.570903778" lon="35.133159637">
  <ele>327.885254</ele>
  <time>2011-09-29T06:02:53Z</time>
  <speed>1.470000</speed>
</trkpt>
<trkpt lat="32.570903778" lon="35.133197784">
  <ele>328.354004</ele>
  <time>2011-09-29T06:02:56Z</time>
  <speed>1.440000</speed>
</trkpt>
<trkpt lat="32.570903778" lon="35.133235931">
  <ele>328.783691</ele>
  <time>2011-09-29T06:02:59Z</time>
  <speed>1.450000</speed>
</trkpt>
<trkpt lat="32.570903778" lon="35.133281708">
  <ele>329.174316</ele>
  <time>2011-09-29T06:03:02Z</time>
  <speed>1.600000</speed>
</trkpt>
<trkpt lat="32.570903778" lon="35.133316040">
  <ele>329.057129</ele>
  <time>2011-09-29T06:03:04Z</time>
  <speed>1.690000</speed>
</trkpt>
<trkpt lat="32.570903778" lon="35.133354187">
  <ele>329.479004</ele>
  <time>2011-09-29T06:03:06Z</time>
  <speed>1.350000</speed>
</trkpt>
<trkpt lat="32.570903778" lon="35.133396149">
  <ele>329.986816</ele>
  <time>2011-09-29T06:03:08Z</time>
  <speed>1.690000</speed>
</trkpt>
<trkpt lat="32.570888519" lon="35.133426666">
  <ele>330.729004</ele>
  <time>2011-09-29T06:03:10Z</time>
  <speed>1.380000</speed>
</trkpt>
<trkpt lat="32.570884705" lon="35.133460999">
  <ele>331.205566</ele>
  <time>2011-09-29T06:03:12Z</time>
  <speed>1.820000</speed>
</trkpt>
<trkpt lat="32.570884705" lon="35.133495331">
  <ele>331.455566</ele>
  <time>2011-09-29T06:03:14Z</time>
  <speed>1.630000</speed>
</trkpt>
<trkpt lat="32.570873260" lon="35.133533478">
  <ele>332.393066</ele>
  <time>2011-09-29T06:03:17Z</time>
  <speed>1.280000</speed>
</trkpt>
<trkpt lat="32.570850372" lon="35.133560181">
  <ele>333.479004</ele>
  <time>2011-09-29T06:03:19Z</time>
  <speed>1.540000</speed>
</trkpt>
<trkpt lat="32.570838928" lon="35.133594513">
  <ele>333.986816</ele>
  <time>2011-09-29T06:03:21Z</time>
  <speed>1.540000</speed>
</trkpt>
<trkpt lat="32.570835114" lon="35.133636475">
  <ele>334.471191</ele>
  <time>2011-09-29T06:03:24Z</time>
  <speed>1.350000</speed>
</trkpt>
<trkpt lat="32.570819855" lon="35.133682251">
  <ele>334.533691</ele>
  <time>2011-09-29T06:03:27Z</time>
  <speed>1.480000</speed>
</trkpt>
<trkpt lat="32.570808411" lon="35.133716583">
  <ele>334.541504</ele>
  <time>2011-09-29T06:03:29Z</time>
  <speed>1.440000</speed>
</trkpt>
<trkpt lat="32.570793152" lon="35.133758545">
  <ele>335.314941</ele>
  <time>2011-09-29T06:03:32Z</time>
  <speed>1.450000</speed>
</trkpt>
<trkpt lat="32.570777893" lon="35.133792877">
  <ele>336.244629</ele>
  <time>2011-09-29T06:03:35Z</time>
  <speed>1.510000</speed>
</trkpt>
<trkpt lat="32.570758820" lon="35.133823395">
  <ele>336.674316</ele>
  <time>2011-09-29T06:03:38Z</time>
  <speed>1.220000</speed>
</trkpt>
<trkpt lat="32.570739746" lon="35.133857727">
  <ele>337.213379</ele>
  <time>2011-09-29T06:03:41Z</time>
  <speed>0.980000</speed>
</trkpt>
<trkpt lat="32.570720673" lon="35.133884430">
  <ele>338.033691</ele>
  <time>2011-09-29T06:03:43Z</time>
  <speed>1.430000</speed>
</trkpt>
<trkpt lat="32.570705414" lon="35.133911133">
  <ele>339.143066</ele>
  <time>2011-09-29T06:03:45Z</time>
  <speed>1.120000</speed>
</trkpt>
<trkpt lat="32.570690155" lon="35.133941650">
  <ele>339.814941</ele>
  <time>2011-09-29T06:03:48Z</time>
  <speed>1.160000</speed>
</trkpt>
<trkpt lat="32.570674896" lon="35.133972168">
  <ele>340.775879</ele>
  <time>2011-09-29T06:03:52Z</time>
  <speed>1.380000</speed>
</trkpt>
<trkpt lat="32.570655823" lon="35.134002686">
  <ele>341.697754</ele>
  <time>2011-09-29T06:03:54Z</time>
  <speed>1.260000</speed>
</trkpt>
<trkpt lat="32.570640564" lon="35.134029388">
  <ele>342.002441</ele>
  <time>2011-09-29T06:03:56Z</time>
  <speed>1.090000</speed>
</trkpt>
<trkpt lat="32.570629120" lon="35.134067535">
  <ele>342.002441</ele>
  <time>2011-09-29T06:03:59Z</time>
  <speed>1.180000</speed>
</trkpt>
<trkpt lat="32.570617676" lon="35.134098053">
  <ele>343.119629</ele>
  <time>2011-09-29T06:04:01Z</time>
  <speed>1.360000</speed>
</trkpt>
<trkpt lat="32.570610046" lon="35.134136200">
  <ele>343.143066</ele>
  <time>2011-09-29T06:04:04Z</time>
  <speed>1.250000</speed>
</trkpt>
<trkpt lat="32.570590973" lon="35.134170532">
  <ele>343.604004</ele>
  <time>2011-09-29T06:04:07Z</time>
  <speed>1.130000</speed>
</trkpt>
<trkpt lat="32.570575714" lon="35.134212494">
  <ele>343.885254</ele>
  <time>2011-09-29T06:04:11Z</time>
  <speed>1.740000</speed>
</trkpt>
<trkpt lat="32.570556641" lon="35.134239197">
  <ele>343.971191</ele>
  <time>2011-09-29T06:04:13Z</time>
  <speed>1.370000</speed>
</trkpt>
<trkpt lat="32.570529938" lon="35.134265900">
  <ele>343.979004</ele>
  <time>2011-09-29T06:04:17Z</time>
  <speed>1.200000</speed>
</trkpt>
<trkpt lat="32.570510864" lon="35.134284973">
  <ele>344.189941</ele>
  <time>2011-09-29T06:04:20Z</time>
  <speed>1.250000</speed>
</trkpt>
<trkpt lat="32.570495605" lon="35.134326935">
  <ele>345.221191</ele>
  <time>2011-09-29T06:04:23Z</time>
  <speed>1.020000</speed>
</trkpt>
<trkpt lat="32.570480347" lon="35.134357452">
  <ele>345.314941</ele>
  <time>2011-09-29T06:04:26Z</time>
  <speed>1.270000</speed>
</trkpt>
<trkpt lat="32.570461273" lon="35.134391785">
  <ele>345.768066</ele>
  <time>2011-09-29T06:04:29Z</time>
  <speed>1.420000</speed>
</trkpt>
<trkpt lat="32.570434570" lon="35.134422302">
  <ele>345.416504</ele>
  <time>2011-09-29T06:04:32Z</time>
  <speed>1.290000</speed>
</trkpt>
<trkpt lat="32.570419312" lon="35.134449005">
  <ele>345.432129</ele>
  <time>2011-09-29T06:04:34Z</time>
  <speed>1.210000</speed>
</trkpt>
<trkpt lat="32.570404053" lon="35.134479523">
  <ele>345.314941</ele>
  <time>2011-09-29T06:04:37Z</time>
  <speed>1.190000</speed>
</trkpt>
<trkpt lat="32.570377350" lon="35.134513855">
  <ele>346.252441</ele>
  <time>2011-09-29T06:04:40Z</time>
  <speed>1.310000</speed>
</trkpt>
<trkpt lat="32.570365906" lon="35.134544373">
  <ele>347.104004</ele>
  <time>2011-09-29T06:04:43Z</time>
  <speed>1.000000</speed>
</trkpt>
<trkpt lat="32.570346832" lon="35.134571075">
  <ele>347.260254</ele>
  <time>2011-09-29T06:04:46Z</time>
  <speed>1.200000</speed>
</trkpt>
<trkpt lat="32.570323944" lon="35.134605408">
  <ele>348.158691</ele>
  <time>2011-09-29T06:04:49Z</time>
  <speed>0.970000</speed>
</trkpt>
<trkpt lat="32.570308685" lon="35.134643555">
  <ele>347.354004</ele>
  <time>2011-09-29T06:04:53Z</time>
  <speed>1.110000</speed>
</trkpt>
<trkpt lat="32.570285797" lon="35.134670258">
  <ele>347.744629</ele>
  <time>2011-09-29T06:04:56Z</time>
  <speed>1.490000</speed>
</trkpt>
<trkpt lat="32.570266724" lon="35.134696960">
  <ele>348.408691</ele>
  <time>2011-09-29T06:04:58Z</time>
  <speed>1.410000</speed>
</trkpt>
<trkpt lat="32.570251465" lon="35.134731293">
  <ele>348.775879</ele>
  <time>2011-09-29T06:05:01Z</time>
  <speed>1.360000</speed>
</trkpt>
<trkpt lat="32.570232391" lon="35.134754181">
  <ele>349.533691</ele>
  <time>2011-09-29T06:05:04Z</time>
  <speed>1.150000</speed>
</trkpt>
<trkpt lat="32.570213318" lon="35.134780884">
  <ele>350.314941</ele>
  <time>2011-09-29T06:05:06Z</time>
  <speed>1.200000</speed>
</trkpt>
<trkpt lat="32.570198059" lon="35.134807587">
  <ele>350.908691</ele>
  <time>2011-09-29T06:05:09Z</time>
  <speed>0.980000</speed>
</trkpt>
<trkpt lat="32.570175171" lon="35.134830475">
  <ele>350.963379</ele>
  <time>2011-09-29T06:05:12Z</time>
  <speed>1.150000</speed>
</trkpt>
<trkpt lat="32.570159912" lon="35.134860992">
  <ele>352.697754</ele>
  <time>2011-09-29T06:05:15Z</time>
  <speed>0.890000</speed>
</trkpt>
<trkpt lat="32.570140839" lon="35.134899139">
  <ele>352.768066</ele>
  <time>2011-09-29T06:05:18Z</time>
  <speed>1.000000</speed>
</trkpt>
<trkpt lat="32.570114136" lon="35.134925842">
  <ele>353.002441</ele>
  <time>2011-09-29T06:05:22Z</time>
  <speed>0.990000</speed>
</trkpt>
<trkpt lat="32.570095062" lon="35.134960175">
  <ele>353.354004</ele>
  <time>2011-09-29T06:05:25Z</time>
  <speed>0.930000</speed>
</trkpt>
<trkpt lat="32.570087433" lon="35.134990692">
  <ele>353.658691</ele>
  <time>2011-09-29T06:05:28Z</time>
  <speed>1.050000</speed>
</trkpt>
<trkpt lat="32.570060730" lon="35.135009766">
  <ele>353.916504</ele>
  <time>2011-09-29T06:05:32Z</time>
  <speed>1.110000</speed>
</trkpt>
<trkpt lat="32.570037842" lon="35.135040283">
  <ele>354.127441</ele>
  <time>2011-09-29T06:05:35Z</time>
  <speed>1.160000</speed>
</trkpt>
<trkpt lat="32.570022583" lon="35.135078430">
  <ele>354.354004</ele>
  <time>2011-09-29T06:05:38Z</time>
  <speed>0.910000</speed>
</trkpt>
<trkpt lat="32.569999695" lon="35.135105133">
  <ele>354.869629</ele>
  <time>2011-09-29T06:05:41Z</time>
  <speed>1.130000</speed>
</trkpt>
<trkpt lat="32.569980621" lon="35.135131836">
  <ele>355.080566</ele>
  <time>2011-09-29T06:05:43Z</time>
  <speed>1.640000</speed>
</trkpt>
<trkpt lat="32.569965363" lon="35.135169983">
  <ele>355.471191</ele>
  <time>2011-09-29T06:05:45Z</time>
  <speed>1.610000</speed>
</trkpt>
<trkpt lat="32.569931030" lon="35.135177612">
  <ele>355.635254</ele>
  <time>2011-09-29T06:05:48Z</time>
  <speed>1.510000</speed>
</trkpt>
<trkpt lat="32.569904327" lon="35.135181427">
  <ele>355.955566</ele>
  <time>2011-09-29T06:05:50Z</time>
  <speed>1.330000</speed>
</trkpt>
<trkpt lat="32.569873810" lon="35.135185242">
  <ele>356.174316</ele>
  <time>2011-09-29T06:05:52Z</time>
  <speed>1.640000</speed>
</trkpt>
<trkpt lat="32.569843292" lon="35.135204315">
  <ele>357.197754</ele>
  <time>2011-09-29T06:05:54Z</time>
  <speed>1.460000</speed>
</trkpt>
<trkpt lat="32.569805145" lon="35.135223389">
  <ele>358.182129</ele>
  <time>2011-09-29T06:05:57Z</time>
  <speed>1.470000</speed>
</trkpt>
<trkpt lat="32.569766998" lon="35.135223389">
  <ele>357.963379</ele>
  <time>2011-09-29T06:06:00Z</time>
  <speed>1.540000</speed>
</trkpt>
<trkpt lat="32.569740295" lon="35.135223389">
  <ele>357.588379</ele>
  <time>2011-09-29T06:06:02Z</time>
  <speed>1.570000</speed>
</trkpt>
<trkpt lat="32.569709778" lon="35.135227203">
  <ele>357.924316</ele>
  <time>2011-09-29T06:06:04Z</time>
  <speed>1.450000</speed>
</trkpt>
<trkpt lat="32.569675446" lon="35.135227203">
  <ele>358.361816</ele>
  <time>2011-09-29T06:06:07Z</time>
  <speed>1.700000</speed>
</trkpt>
<trkpt lat="32.569633484" lon="35.135223389">
  <ele>358.494629</ele>
  <time>2011-09-29T06:06:10Z</time>
  <speed>1.590000</speed>
</trkpt>
<trkpt lat="32.569602966" lon="35.135231018">
  <ele>359.736816</ele>
  <time>2011-09-29T06:06:12Z</time>
  <speed>1.580000</speed>
</trkpt>
<trkpt lat="32.569572449" lon="35.135234833">
  <ele>359.072754</ele>
  <time>2011-09-29T06:06:15Z</time>
  <speed>1.510000</speed>
</trkpt>
<trkpt lat="32.569538116" lon="35.135234833">
  <ele>359.096191</ele>
  <time>2011-09-29T06:06:18Z</time>
  <speed>1.180000</speed>
</trkpt>
<trkpt lat="32.569499969" lon="35.135234833">
  <ele>359.838379</ele>
  <time>2011-09-29T06:06:21Z</time>
  <speed>1.350000</speed>
</trkpt>
<trkpt lat="32.569461823" lon="35.135238647">
  <ele>360.197754</ele>
  <time>2011-09-29T06:06:24Z</time>
  <speed>1.380000</speed>
</trkpt>
<trkpt lat="32.569431305" lon="35.135246277">
  <ele>360.643066</ele>
  <time>2011-09-29T06:06:26Z</time>
  <speed>1.530000</speed>
</trkpt>
<trkpt lat="32.569404602" lon="35.135246277">
  <ele>360.768066</ele>
  <time>2011-09-29T06:06:28Z</time>
  <speed>1.480000</speed>
</trkpt>
<trkpt lat="32.569377899" lon="35.135250092">
  <ele>360.900879</ele>
  <time>2011-09-29T06:06:30Z</time>
  <speed>1.410000</speed>
</trkpt>
<trkpt lat="32.569351196" lon="35.135257721">
  <ele>360.658691</ele>
  <time>2011-09-29T06:06:33Z</time>
  <speed>1.260000</speed>
</trkpt>
<trkpt lat="32.569313049" lon="35.135257721">
  <ele>361.291504</ele>
  <time>2011-09-29T06:06:36Z</time>
  <speed>1.110000</speed>
</trkpt>
<trkpt lat="32.569286346" lon="35.135242462">
  <ele>360.611816</ele>
  <time>2011-09-29T06:06:39Z</time>
  <speed>1.350000</speed>
</trkpt>
<trkpt lat="32.569252014" lon="35.135250092">
  <ele>360.471191</ele>
  <time>2011-09-29T06:06:43Z</time>
  <speed>0.810000</speed>
</trkpt>
<trkpt lat="32.569213867" lon="35.135250092">
  <ele>361.439941</ele>
  <time>2011-09-29T06:06:46Z</time>
  <speed>1.440000</speed>
</trkpt>
<trkpt lat="32.569171906" lon="35.135246277">
  <ele>361.447754</ele>
  <time>2011-09-29T06:06:49Z</time>
  <speed>1.430000</speed>
</trkpt>
<trkpt lat="32.569145203" lon="35.135227203">
  <ele>361.869629</ele>
  <time>2011-09-29T06:06:51Z</time>
  <speed>1.650000</speed>
</trkpt>
<trkpt lat="32.569114685" lon="35.135223389">
  <ele>362.729004</ele>
  <time>2011-09-29T06:06:54Z</time>
  <speed>1.430000</speed>
</trkpt>
<trkpt lat="32.569084167" lon="35.135219574">
  <ele>362.807129</ele>
  <time>2011-09-29T06:06:56Z</time>
  <speed>1.550000</speed>
</trkpt>
<trkpt lat="32.569057465" lon="35.135227203">
  <ele>363.799316</ele>
  <time>2011-09-29T06:06:58Z</time>
  <speed>1.200000</speed>
</trkpt>
<trkpt lat="32.569034576" lon="35.135250092">
  <ele>364.775879</ele>
  <time>2011-09-29T06:07:01Z</time>
  <speed>1.290000</speed>
</trkpt>
<trkpt lat="32.569000244" lon="35.135250092">
  <ele>364.854004</ele>
  <time>2011-09-29T06:07:04Z</time>
  <speed>1.300000</speed>
</trkpt>
<trkpt lat="32.568965912" lon="35.135253906">
  <ele>364.580566</ele>
  <time>2011-09-29T06:07:08Z</time>
  <speed>1.150000</speed>
</trkpt>
<trkpt lat="32.568927765" lon="35.135253906">
  <ele>364.377441</ele>
  <time>2011-09-29T06:07:11Z</time>
  <speed>1.200000</speed>
</trkpt>
<trkpt lat="32.568889618" lon="35.135257721">
  <ele>364.283691</ele>
  <time>2011-09-29T06:07:14Z</time>
  <speed>1.100000</speed>
</trkpt>
<trkpt lat="32.568862915" lon="35.135269165">
  <ele>364.338379</ele>
  <time>2011-09-29T06:07:17Z</time>
  <speed>1.220000</speed>
</trkpt>
<trkpt lat="32.568824768" lon="35.135276794">
  <ele>364.572754</ele>
  <time>2011-09-29T06:07:20Z</time>
  <speed>1.340000</speed>
</trkpt>
<trkpt lat="32.568798065" lon="35.135292053">
  <ele>365.314941</ele>
  <time>2011-09-29T06:07:23Z</time>
  <speed>0.880000</speed>
</trkpt>
<trkpt lat="32.568771362" lon="35.135299683">
  <ele>365.939941</ele>
  <time>2011-09-29T06:07:25Z</time>
  <speed>1.380000</speed>
</trkpt>
<trkpt lat="32.568740845" lon="35.135307312">
  <ele>366.494629</ele>
  <time>2011-09-29T06:07:27Z</time>
  <speed>1.450000</speed>
</trkpt>
<trkpt lat="32.568706512" lon="35.135318756">
  <ele>366.502441</ele>
  <time>2011-09-29T06:07:30Z</time>
  <speed>1.570000</speed>
</trkpt>
<trkpt lat="32.568660736" lon="35.135314941">
  <ele>367.158691</ele>
  <time>2011-09-29T06:07:33Z</time>
  <speed>1.250000</speed>
</trkpt>
<trkpt lat="32.568622589" lon="35.135307312">
  <ele>366.682129</ele>
  <time>2011-09-29T06:07:36Z</time>
  <speed>1.420000</speed>
</trkpt>
<trkpt lat="32.568592072" lon="35.135307312">
  <ele>367.643066</ele>
  <time>2011-09-29T06:07:39Z</time>
  <speed>1.330000</speed>
</trkpt>
<trkpt lat="32.568557739" lon="35.135311127">
  <ele>368.041504</ele>
  <time>2011-09-29T06:07:42Z</time>
  <speed>1.310000</speed>
</trkpt>
<trkpt lat="32.568519592" lon="35.135311127">
  <ele>368.408691</ele>
  <time>2011-09-29T06:07:45Z</time>
  <speed>1.260000</speed>
</trkpt>
<trkpt lat="32.568481445" lon="35.135314941">
  <ele>368.658691</ele>
  <time>2011-09-29T06:07:48Z</time>
  <speed>1.280000</speed>
</trkpt>
<trkpt lat="32.568450928" lon="35.135318756">
  <ele>369.057129</ele>
  <time>2011-09-29T06:07:50Z</time>
  <speed>1.400000</speed>
</trkpt>
<trkpt lat="32.568416595" lon="35.135326385">
  <ele>370.268066</ele>
  <time>2011-09-29T06:07:53Z</time>
  <speed>1.520000</speed>
</trkpt>
<trkpt lat="32.568389893" lon="35.135334015">
  <ele>371.447754</ele>
  <time>2011-09-29T06:07:55Z</time>
  <speed>1.590000</speed>
</trkpt>
<trkpt lat="32.568363190" lon="35.135341644">
  <ele>372.049316</ele>
  <time>2011-09-29T06:07:57Z</time>
  <speed>1.180000</speed>
</trkpt>
<trkpt lat="32.568336487" lon="35.135372162">
  <ele>372.564941</ele>
  <time>2011-09-29T06:08:00Z</time>
  <speed>1.160000</speed>
</trkpt>
<trkpt lat="32.568309784" lon="35.135402679">
  <ele>373.408691</ele>
  <time>2011-09-29T06:08:03Z</time>
  <speed>1.490000</speed>
</trkpt>
<trkpt lat="32.568290710" lon="35.135429382">
  <ele>373.557129</ele>
  <time>2011-09-29T06:08:05Z</time>
  <speed>0.970000</speed>
</trkpt>
<trkpt lat="32.568260193" lon="35.135448456">
  <ele>373.682129</ele>
  <time>2011-09-29T06:08:08Z</time>
  <speed>1.200000</speed>
</trkpt>
<trkpt lat="32.568225861" lon="35.135437012">
  <ele>372.213379</ele>
  <time>2011-09-29T06:08:11Z</time>
  <speed>1.330000</speed>
</trkpt>
<trkpt lat="32.568195343" lon="35.135429382">
  <ele>370.721191</ele>
  <time>2011-09-29T06:08:14Z</time>
  <speed>1.130000</speed>
</trkpt>
<trkpt lat="32.568157196" lon="35.135433197">
  <ele>371.346191</ele>
  <time>2011-09-29T06:08:17Z</time>
  <speed>1.430000</speed>
</trkpt>
<trkpt lat="32.568126678" lon="35.135437012">
  <ele>372.533691</ele>
  <time>2011-09-29T06:08:19Z</time>
  <speed>1.460000</speed>
</trkpt>
<trkpt lat="32.568096161" lon="35.135456085">
  <ele>373.354004</ele>
  <time>2011-09-29T06:08:22Z</time>
  <speed>1.240000</speed>
</trkpt>
<trkpt lat="32.568065643" lon="35.135459900">
  <ele>373.064941</ele>
  <time>2011-09-29T06:08:25Z</time>
  <speed>1.400000</speed>
</trkpt>
<trkpt lat="32.568038940" lon="35.135471344">
  <ele>373.182129</ele>
  <time>2011-09-29T06:08:27Z</time>
  <speed>1.310000</speed>
</trkpt>
<trkpt lat="32.568004608" lon="35.135490417">
  <ele>372.822754</ele>
  <time>2011-09-29T06:08:30Z</time>
  <speed>1.660000</speed>
</trkpt>
<trkpt lat="32.567974091" lon="35.135505676">
  <ele>373.205566</ele>
  <time>2011-09-29T06:08:32Z</time>
  <speed>1.620000</speed>
</trkpt>
<trkpt lat="32.567943573" lon="35.135517120">
  <ele>373.807129</ele>
  <time>2011-09-29T06:08:34Z</time>
  <speed>1.320000</speed>
</trkpt>
<trkpt lat="32.567905426" lon="35.135520935">
  <ele>373.877441</ele>
  <time>2011-09-29T06:08:37Z</time>
  <speed>1.560000</speed>
</trkpt>
<trkpt lat="32.567878723" lon="35.135536194">
  <ele>374.666504</ele>
  <time>2011-09-29T06:08:39Z</time>
  <speed>1.410000</speed>
</trkpt>
<trkpt lat="32.567852020" lon="35.135559082">
  <ele>374.822754</ele>
  <time>2011-09-29T06:08:42Z</time>
  <speed>1.080000</speed>
</trkpt>
<trkpt lat="32.567813873" lon="35.135574341">
  <ele>374.744629</ele>
  <time>2011-09-29T06:08:45Z</time>
  <speed>1.360000</speed>
</trkpt>
<trkpt lat="32.567779541" lon="35.135581970">
  <ele>374.893066</ele>
  <time>2011-09-29T06:08:48Z</time>
  <speed>1.140000</speed>
</trkpt>
<trkpt lat="32.567752838" lon="35.135616302">
  <ele>374.893066</ele>
  <time>2011-09-29T06:08:51Z</time>
  <speed>1.210000</speed>
</trkpt>
<trkpt lat="32.567718506" lon="35.135643005">
  <ele>375.994629</ele>
  <time>2011-09-29T06:08:54Z</time>
  <speed>1.230000</speed>
</trkpt>
<trkpt lat="32.567695618" lon="35.135662079">
  <ele>376.752441</ele>
  <time>2011-09-29T06:08:56Z</time>
  <speed>1.590000</speed>
</trkpt>
<trkpt lat="32.567668915" lon="35.135681152">
  <ele>376.885254</ele>
  <time>2011-09-29T06:08:58Z</time>
  <speed>1.350000</speed>
</trkpt>
<trkpt lat="32.567646027" lon="35.135711670">
  <ele>377.479004</ele>
  <time>2011-09-29T06:09:00Z</time>
  <speed>1.350000</speed>
</trkpt>
<trkpt lat="32.567623138" lon="35.135742188">
  <ele>378.572754</ele>
  <time>2011-09-29T06:09:02Z</time>
  <speed>1.610000</speed>
</trkpt>
<trkpt lat="32.567600250" lon="35.135761261">
  <ele>379.674316</ele>
  <time>2011-09-29T06:09:04Z</time>
  <speed>1.640000</speed>
</trkpt>
<trkpt lat="32.567573547" lon="35.135784149">
  <ele>381.393066</ele>
  <time>2011-09-29T06:09:07Z</time>
  <speed>1.290000</speed>
</trkpt>
<trkpt lat="32.567546844" lon="35.135803223">
  <ele>382.494629</ele>
  <time>2011-09-29T06:09:10Z</time>
  <speed>1.320000</speed>
</trkpt>
<trkpt lat="32.567512512" lon="35.135822296">
  <ele>383.463379</ele>
  <time>2011-09-29T06:09:13Z</time>
  <speed>1.460000</speed>
</trkpt>
<trkpt lat="32.567481995" lon="35.135852814">
  <ele>384.354004</ele>
  <time>2011-09-29T06:09:16Z</time>
  <speed>1.560000</speed>
</trkpt>
<trkpt lat="32.567459106" lon="35.135871887">
  <ele>385.104004</ele>
  <time>2011-09-29T06:09:18Z</time>
  <speed>1.440000</speed>
</trkpt>
<trkpt lat="32.567432404" lon="35.135887146">
  <ele>385.846191</ele>
  <time>2011-09-29T06:09:20Z</time>
  <speed>1.440000</speed>
</trkpt>
<trkpt lat="32.567409515" lon="35.135910034">
  <ele>386.979004</ele>
  <time>2011-09-29T06:09:22Z</time>
  <speed>1.260000</speed>
</trkpt>
<trkpt lat="32.567378998" lon="35.135936737">
  <ele>387.299316</ele>
  <time>2011-09-29T06:09:25Z</time>
  <speed>1.850000</speed>
</trkpt>
<trkpt lat="32.567348480" lon="35.135951996">
  <ele>387.822754</ele>
  <time>2011-09-29T06:09:27Z</time>
  <speed>1.580000</speed>
</trkpt>
<trkpt lat="32.567321777" lon="35.135967255">
  <ele>388.604004</ele>
  <time>2011-09-29T06:09:29Z</time>
  <speed>1.450000</speed>
</trkpt>
<trkpt lat="32.567295074" lon="35.135990143">
  <ele>389.283691</ele>
  <time>2011-09-29T06:09:31Z</time>
  <speed>2.000000</speed>
</trkpt>
<trkpt lat="32.567272186" lon="35.136013031">
  <ele>388.830566</ele>
  <time>2011-09-29T06:09:33Z</time>
  <speed>1.570000</speed>
</trkpt>
<trkpt lat="32.567249298" lon="35.136028290">
  <ele>389.010254</ele>
  <time>2011-09-29T06:09:35Z</time>
  <speed>1.730000</speed>
</trkpt>
<trkpt lat="32.567230225" lon="35.136051178">
  <ele>389.822754</ele>
  <time>2011-09-29T06:09:37Z</time>
  <speed>1.800000</speed>
</trkpt>
<trkpt lat="32.567207336" lon="35.136074066">
  <ele>389.736816</ele>
  <time>2011-09-29T06:09:39Z</time>
  <speed>1.520000</speed>
</trkpt>
<trkpt lat="32.567173004" lon="35.136096954">
  <ele>389.994629</ele>
  <time>2011-09-29T06:09:42Z</time>
  <speed>1.740000</speed>
</trkpt>
<trkpt lat="32.567146301" lon="35.136116028">
  <ele>390.385254</ele>
  <time>2011-09-29T06:09:44Z</time>
  <speed>1.770000</speed>
</trkpt>
<trkpt lat="32.567119598" lon="35.136150360">
  <ele>391.791504</ele>
  <time>2011-09-29T06:09:46Z</time>
  <speed>2.110000</speed>
</trkpt>
<trkpt lat="32.567092896" lon="35.136173248">
  <ele>392.197754</ele>
  <time>2011-09-29T06:09:48Z</time>
  <speed>2.160000</speed>
</trkpt>
<trkpt lat="32.567058563" lon="35.136192322">
  <ele>392.033691</ele>
  <time>2011-09-29T06:09:51Z</time>
  <speed>1.160000</speed>
</trkpt>
<trkpt lat="32.567028046" lon="35.136219025">
  <ele>392.205566</ele>
  <time>2011-09-29T06:09:54Z</time>
  <speed>1.680000</speed>
</trkpt>
<trkpt lat="32.567005157" lon="35.136234283">
  <ele>392.830566</ele>
  <time>2011-09-29T06:09:56Z</time>
  <speed>1.210000</speed>
</trkpt>
<trkpt lat="32.566978455" lon="35.136253357">
  <ele>391.893066</ele>
  <time>2011-09-29T06:09:59Z</time>
  <speed>1.110000</speed>
</trkpt>
<trkpt lat="32.566944122" lon="35.136264801">
  <ele>392.658691</ele>
  <time>2011-09-29T06:10:02Z</time>
  <speed>1.670000</speed>
</trkpt>
<trkpt lat="32.566909790" lon="35.136268616">
  <ele>392.900879</ele>
  <time>2011-09-29T06:10:04Z</time>
  <speed>1.550000</speed>
</trkpt>
<trkpt lat="32.566879272" lon="35.136280060">
  <ele>392.916504</ele>
  <time>2011-09-29T06:10:06Z</time>
  <speed>1.360000</speed>
</trkpt>
<trkpt lat="32.566841125" lon="35.136295319">
  <ele>393.705566</ele>
  <time>2011-09-29T06:10:09Z</time>
  <speed>1.680000</speed>
</trkpt>
<trkpt lat="32.566810608" lon="35.136314392">
  <ele>393.096191</ele>
  <time>2011-09-29T06:10:12Z</time>
  <speed>1.460000</speed>
</trkpt>
<trkpt lat="32.566772461" lon="35.136337280">
  <ele>393.674316</ele>
  <time>2011-09-29T06:10:15Z</time>
  <speed>1.840000</speed>
</trkpt>
<trkpt lat="32.566745758" lon="35.136348724">
  <ele>394.447754</ele>
  <time>2011-09-29T06:10:17Z</time>
  <speed>1.700000</speed>
</trkpt>
<trkpt lat="32.566722870" lon="35.136375427">
  <ele>395.213379</ele>
  <time>2011-09-29T06:10:19Z</time>
  <speed>1.860000</speed>
</trkpt>
<trkpt lat="32.566692352" lon="35.136390686">
  <ele>395.525879</ele>
  <time>2011-09-29T06:10:21Z</time>
  <speed>1.770000</speed>
</trkpt>
<trkpt lat="32.566665649" lon="35.136398315">
  <ele>396.002441</ele>
  <time>2011-09-29T06:10:23Z</time>
  <speed>1.500000</speed>
</trkpt>
<trkpt lat="32.566627502" lon="35.136394501">
  <ele>395.408691</ele>
  <time>2011-09-29T06:10:26Z</time>
  <speed>1.570000</speed>
</trkpt>
<trkpt lat="32.566596985" lon="35.136390686">
  <ele>396.080566</ele>
  <time>2011-09-29T06:10:28Z</time>
  <speed>1.420000</speed>
</trkpt>
<trkpt lat="32.566570282" lon="35.136383057">
  <ele>395.799316</ele>
  <time>2011-09-29T06:10:30Z</time>
  <speed>1.520000</speed>
</trkpt>
<trkpt lat="32.566535950" lon="35.136383057">
  <ele>396.236816</ele>
  <time>2011-09-29T06:10:32Z</time>
  <speed>1.290000</speed>
</trkpt>
<trkpt lat="32.566509247" lon="35.136394501">
  <ele>396.939941</ele>
  <time>2011-09-29T06:10:34Z</time>
  <speed>1.460000</speed>
</trkpt>
<trkpt lat="32.566474915" lon="35.136394501">
  <ele>398.174316</ele>
  <time>2011-09-29T06:10:37Z</time>
  <speed>1.230000</speed>
</trkpt>
<trkpt lat="32.566440582" lon="35.136409760">
  <ele>398.533691</ele>
  <time>2011-09-29T06:10:41Z</time>
  <speed>1.490000</speed>
</trkpt>
<trkpt lat="32.566410065" lon="35.136421204">
  <ele>398.955566</ele>
  <time>2011-09-29T06:10:44Z</time>
  <speed>1.310000</speed>
</trkpt>
<trkpt lat="32.566379547" lon="35.136417389">
  <ele>397.885254</ele>
  <time>2011-09-29T06:10:47Z</time>
  <speed>1.430000</speed>
</trkpt>
<trkpt lat="32.566345215" lon="35.136405945">
  <ele>398.041504</ele>
  <time>2011-09-29T06:10:50Z</time>
  <speed>1.160000</speed>
</trkpt>
<trkpt lat="32.566318512" lon="35.136398315">
  <ele>397.619629</ele>
  <time>2011-09-29T06:10:54Z</time>
  <speed>0.990000</speed>
</trkpt>
<trkpt lat="32.566291809" lon="35.136386871">
  <ele>398.158691</ele>
  <time>2011-09-29T06:10:57Z</time>
  <speed>1.180000</speed>
</trkpt>
<trkpt lat="32.566261292" lon="35.136386871">
  <ele>398.096191</ele>
  <time>2011-09-29T06:11:00Z</time>
  <speed>1.100000</speed>
</trkpt>
<trkpt lat="32.566226959" lon="35.136363983">
  <ele>398.932129</ele>
  <time>2011-09-29T06:11:03Z</time>
  <speed>1.120000</speed>
</trkpt>
<trkpt lat="32.566200256" lon="35.136363983">
  <ele>399.002441</ele>
  <time>2011-09-29T06:11:05Z</time>
  <speed>1.180000</speed>
</trkpt>
<trkpt lat="32.566169739" lon="35.136371613">
  <ele>398.760254</ele>
  <time>2011-09-29T06:11:08Z</time>
  <speed>1.060000</speed>
</trkpt>
<trkpt lat="32.566135406" lon="35.136394501">
  <ele>399.330566</ele>
  <time>2011-09-29T06:11:12Z</time>
  <speed>1.300000</speed>
</trkpt>
<trkpt lat="32.566131592" lon="35.136436462">
  <ele>399.979004</ele>
  <time>2011-09-29T06:11:15Z</time>
  <speed>1.060000</speed>
</trkpt>
<trkpt lat="32.566146851" lon="35.136459351">
  <ele>398.807129</ele>
  <time>2011-09-29T06:13:23Z</time>
</trkpt>
<trkpt lat="32.566158295" lon="35.136447906">
  <ele>396.174316</ele>
  <time>2011-09-29T06:17:02Z</time>
</trkpt>
<trkpt lat="32.566169739" lon="35.136444092">
  <ele>393.408691</ele>
  <time>2011-09-29T06:21:16Z</time>
</trkpt>
<trkpt lat="32.566188812" lon="35.136486053">
  <ele>392.588379</ele>
  <time>2011-09-29T06:23:01Z</time>
  <speed>1.930000</speed>
</trkpt>
<trkpt lat="32.566188812" lon="35.136539459">
  <ele>392.213379</ele>
  <time>2011-09-29T06:23:03Z</time>
  <speed>2.000000</speed>
</trkpt>
<trkpt lat="32.566169739" lon="35.136581421">
  <ele>391.729004</ele>
  <time>2011-09-29T06:23:05Z</time>
  <speed>2.350000</speed>
</trkpt>
<trkpt lat="32.566158295" lon="35.136611938">
  <ele>391.416504</ele>
  <time>2011-09-29T06:23:06Z</time>
  <speed>2.690000</speed>
</trkpt>
<trkpt lat="32.566127777" lon="35.136661530">
  <ele>391.979004</ele>
  <time>2011-09-29T06:23:08Z</time>
  <speed>3.000000</speed>
</trkpt>
<trkpt lat="32.566108704" lon="35.136692047">
  <ele>391.494629</ele>
  <time>2011-09-29T06:23:09Z</time>
  <speed>3.420000</speed>
</trkpt>
<trkpt lat="32.566085815" lon="35.136722565">
  <ele>391.416504</ele>
  <time>2011-09-29T06:23:10Z</time>
  <speed>3.840000</speed>
</trkpt>
<trkpt lat="32.566055298" lon="35.136756897">
  <ele>391.682129</ele>
  <time>2011-09-29T06:23:11Z</time>
  <speed>4.590000</speed>
</trkpt>
<trkpt lat="32.566017151" lon="35.136795044">
  <ele>391.900879</ele>
  <time>2011-09-29T06:23:12Z</time>
  <speed>5.780000</speed>
</trkpt>
<trkpt lat="32.565975189" lon="35.136840820">
  <ele>392.479004</ele>
  <time>2011-09-29T06:23:13Z</time>
  <speed>6.390000</speed>
</trkpt>
<trkpt lat="32.565933228" lon="35.136894226">
  <ele>392.518066</ele>
  <time>2011-09-29T06:23:14Z</time>
  <speed>7.210000</speed>
</trkpt>
<trkpt lat="32.565891266" lon="35.136947632">
  <ele>391.150879</ele>
  <time>2011-09-29T06:23:15Z</time>
  <speed>7.140000</speed>
</trkpt>
<trkpt lat="32.565841675" lon="35.137008667">
  <ele>390.549316</ele>
  <time>2011-09-29T06:23:16Z</time>
  <speed>7.990000</speed>
</trkpt>
<trkpt lat="32.565788269" lon="35.137065887">
  <ele>389.697754</ele>
  <time>2011-09-29T06:23:17Z</time>
  <speed>8.210000</speed>
</trkpt>
<trkpt lat="32.565731049" lon="35.137126923">
  <ele>389.096191</ele>
  <time>2011-09-29T06:23:18Z</time>
  <speed>8.600000</speed>
</trkpt>
<trkpt lat="32.565662384" lon="35.137180328">
  <ele>388.049316</ele>
  <time>2011-09-29T06:23:19Z</time>
  <speed>8.340000</speed>
</trkpt>
<trkpt lat="32.565597534" lon="35.137229919">
  <ele>387.096191</ele>
  <time>2011-09-29T06:23:20Z</time>
  <speed>8.170000</speed>
</trkpt>
<trkpt lat="32.565528870" lon="35.137275696">
  <ele>386.533691</ele>
  <time>2011-09-29T06:23:21Z</time>
  <speed>8.380000</speed>
</trkpt>
<trkpt lat="32.565460205" lon="35.137321472">
  <ele>386.119629</ele>
  <time>2011-09-29T06:23:22Z</time>
  <speed>8.550000</speed>
</trkpt>
<trkpt lat="32.565391541" lon="35.137371063">
  <ele>386.189941</ele>
  <time>2011-09-29T06:23:23Z</time>
  <speed>8.580000</speed>
</trkpt>
<trkpt lat="32.565319061" lon="35.137416840">
  <ele>385.705566</ele>
  <time>2011-09-29T06:23:24Z</time>
  <speed>8.860000</speed>
</trkpt>
<trkpt lat="32.565250397" lon="35.137454987">
  <ele>384.729004</ele>
  <time>2011-09-29T06:23:25Z</time>
  <speed>8.500000</speed>
</trkpt>
<trkpt lat="32.565174103" lon="35.137485504">
  <ele>383.275879</ele>
  <time>2011-09-29T06:23:26Z</time>
  <speed>8.990000</speed>
</trkpt>
<trkpt lat="32.565093994" lon="35.137527466">
  <ele>382.838379</ele>
  <time>2011-09-29T06:23:27Z</time>
  <speed>9.160000</speed>
</trkpt>
<trkpt lat="32.565017700" lon="35.137577057">
  <ele>382.213379</ele>
  <time>2011-09-29T06:23:28Z</time>
  <speed>8.840000</speed>
</trkpt>
<trkpt lat="32.564945221" lon="35.137622833">
  <ele>381.158691</ele>
  <time>2011-09-29T06:23:29Z</time>
  <speed>8.280000</speed>
</trkpt>
<trkpt lat="32.564888000" lon="35.137664795">
  <ele>380.916504</ele>
  <time>2011-09-29T06:23:30Z</time>
  <speed>7.050000</speed>
</trkpt>
<trkpt lat="32.564838409" lon="35.137702942">
  <ele>380.377441</ele>
  <time>2011-09-29T06:23:31Z</time>
  <speed>6.330000</speed>
</trkpt>
<trkpt lat="32.564785004" lon="35.137752533">
  <ele>380.971191</ele>
  <time>2011-09-29T06:23:32Z</time>
  <speed>7.360000</speed>
</trkpt>
<trkpt lat="32.564731598" lon="35.137798309">
  <ele>380.713379</ele>
  <time>2011-09-29T06:23:33Z</time>
  <speed>7.350000</speed>
</trkpt>
<trkpt lat="32.564666748" lon="35.137836456">
  <ele>380.244629</ele>
  <time>2011-09-29T06:23:34Z</time>
  <speed>8.100000</speed>
</trkpt>
<trkpt lat="32.564598083" lon="35.137863159">
  <ele>380.197754</ele>
  <time>2011-09-29T06:23:35Z</time>
  <speed>8.320000</speed>
</trkpt>
<trkpt lat="32.564517975" lon="35.137866974">
  <ele>378.846191</ele>
  <time>2011-09-29T06:23:36Z</time>
  <speed>9.980000</speed>
</trkpt>
<trkpt lat="32.564437866" lon="35.137847900">
  <ele>375.627441</ele>
  <time>2011-09-29T06:23:37Z</time>
  <speed>9.440000</speed>
</trkpt>
<trkpt lat="32.564357758" lon="35.137813568">
  <ele>374.658691</ele>
  <time>2011-09-29T06:23:38Z</time>
  <speed>9.350000</speed>
</trkpt>
<trkpt lat="32.564285278" lon="35.137779236">
  <ele>373.666504</ele>
  <time>2011-09-29T06:23:39Z</time>
  <speed>9.060000</speed>
</trkpt>
<trkpt lat="32.564212799" lon="35.137737274">
  <ele>372.705566</ele>
  <time>2011-09-29T06:23:40Z</time>
  <speed>8.990000</speed>
</trkpt>
<trkpt lat="32.564144135" lon="35.137683868">
  <ele>370.994629</ele>
  <time>2011-09-29T06:23:41Z</time>
  <speed>8.960000</speed>
</trkpt>
<trkpt lat="32.564086914" lon="35.137615204">
  <ele>370.307129</ele>
  <time>2011-09-29T06:23:42Z</time>
  <speed>8.790000</speed>
</trkpt>
<trkpt lat="32.564041138" lon="35.137535095">
  <ele>368.713379</ele>
  <time>2011-09-29T06:23:43Z</time>
  <speed>9.350000</speed>
</trkpt>
<trkpt lat="32.563995361" lon="35.137447357">
  <ele>367.557129</ele>
  <time>2011-09-29T06:23:44Z</time>
  <speed>9.130000</speed>
</trkpt>
<trkpt lat="32.563961029" lon="35.137351990">
  <ele>365.994629</ele>
  <time>2011-09-29T06:23:45Z</time>
  <speed>9.290000</speed>
</trkpt>
<trkpt lat="32.563930511" lon="35.137256622">
  <ele>364.705566</ele>
  <time>2011-09-29T06:23:46Z</time>
  <speed>9.640000</speed>
</trkpt>
<trkpt lat="32.563880920" lon="35.137157440">
  <ele>363.885254</ele>
  <time>2011-09-29T06:23:47Z</time>
  <speed>10.070000</speed>
</trkpt>
<trkpt lat="32.563819885" lon="35.137084961">
  <ele>364.619629</ele>
  <time>2011-09-29T06:23:48Z</time>
  <speed>9.670000</speed>
</trkpt>
<trkpt lat="32.563758850" lon="35.137016296">
  <ele>364.447754</ele>
  <time>2011-09-29T06:23:49Z</time>
  <speed>8.730000</speed>
</trkpt>
<trkpt lat="32.563701630" lon="35.136962891">
  <ele>366.033691</ele>
  <time>2011-09-29T06:23:50Z</time>
  <speed>8.570000</speed>
</trkpt>
<trkpt lat="32.563648224" lon="35.136905670">
  <ele>365.346191</ele>
  <time>2011-09-29T06:23:51Z</time>
  <speed>7.420000</speed>
</trkpt>
<trkpt lat="32.563594818" lon="35.136852264">
  <ele>365.299316</ele>
  <time>2011-09-29T06:23:52Z</time>
  <speed>7.320000</speed>
</trkpt>
<trkpt lat="32.563549042" lon="35.136806488">
  <ele>363.939941</ele>
  <time>2011-09-29T06:23:53Z</time>
  <speed>7.220000</speed>
</trkpt>
<trkpt lat="32.563503265" lon="35.136756897">
  <ele>363.658691</ele>
  <time>2011-09-29T06:23:54Z</time>
  <speed>6.650000</speed>
</trkpt>
<trkpt lat="32.563465118" lon="35.136714935">
  <ele>363.533691</ele>
  <time>2011-09-29T06:23:55Z</time>
  <speed>5.730000</speed>
</trkpt>
<trkpt lat="32.563430786" lon="35.136672974">
  <ele>363.525879</ele>
  <time>2011-09-29T06:23:56Z</time>
  <speed>5.470000</speed>
</trkpt>
<trkpt lat="32.563396454" lon="35.136634827">
  <ele>363.596191</ele>
  <time>2011-09-29T06:23:57Z</time>
  <speed>5.100000</speed>
</trkpt>
<trkpt lat="32.563365936" lon="35.136596680">
  <ele>363.338379</ele>
  <time>2011-09-29T06:23:58Z</time>
  <speed>4.690000</speed>
</trkpt>
<trkpt lat="32.563343048" lon="35.136566162">
  <ele>362.580566</ele>
  <time>2011-09-29T06:23:59Z</time>
  <speed>4.350000</speed>
</trkpt>
<trkpt lat="32.563312531" lon="35.136531830">
  <ele>362.525879</ele>
  <time>2011-09-29T06:24:00Z</time>
  <speed>3.590000</speed>
</trkpt>
<trkpt lat="32.563293457" lon="35.136512756">
  <ele>362.760254</ele>
  <time>2011-09-29T06:24:01Z</time>
  <speed>2.820000</speed>
</trkpt>
<trkpt lat="32.563270569" lon="35.136478424">
  <ele>361.775879</ele>
  <time>2011-09-29T06:24:03Z</time>
  <speed>2.360000</speed>
</trkpt>
<trkpt lat="32.563240051" lon="35.136436462">
  <ele>361.502441</ele>
  <time>2011-09-29T06:24:05Z</time>
  <speed>2.570000</speed>
</trkpt>
<trkpt lat="32.563209534" lon="35.136405945">
  <ele>361.510254</ele>
  <time>2011-09-29T06:24:07Z</time>
  <speed>2.370000</speed>
</trkpt>
<trkpt lat="32.563190460" lon="35.136379242">
  <ele>361.283691</ele>
  <time>2011-09-29T06:24:08Z</time>
  <speed>2.540000</speed>
</trkpt>
<trkpt lat="32.563167572" lon="35.136360168">
  <ele>361.643066</ele>
  <time>2011-09-29T06:24:09Z</time>
  <speed>2.690000</speed>
</trkpt>
<trkpt lat="32.563137054" lon="35.136333466">
  <ele>361.775879</ele>
  <time>2011-09-29T06:24:10Z</time>
  <speed>3.040000</speed>
</trkpt>
<trkpt lat="32.563102722" lon="35.136291504">
  <ele>361.721191</ele>
  <time>2011-09-29T06:24:12Z</time>
  <speed>2.940000</speed>
</trkpt>
<trkpt lat="32.563079834" lon="35.136253357">
  <ele>361.838379</ele>
  <time>2011-09-29T06:24:13Z</time>
  <speed>3.030000</speed>
</trkpt>
<trkpt lat="32.563060760" lon="35.136230469">
  <ele>361.947754</ele>
  <time>2011-09-29T06:24:14Z</time>
  <speed>3.050000</speed>
</trkpt>
<trkpt lat="32.563037872" lon="35.136207581">
  <ele>362.018066</ele>
  <time>2011-09-29T06:24:15Z</time>
  <speed>3.130000</speed>
</trkpt>
<trkpt lat="32.563018799" lon="35.136184692">
  <ele>362.041504</ele>
  <time>2011-09-29T06:24:16Z</time>
  <speed>2.870000</speed>
</trkpt>
<trkpt lat="32.562984467" lon="35.136142731">
  <ele>363.197754</ele>
  <time>2011-09-29T06:24:18Z</time>
  <speed>3.140000</speed>
</trkpt>
<trkpt lat="32.562946320" lon="35.136096954">
  <ele>363.955566</ele>
  <time>2011-09-29T06:24:20Z</time>
  <speed>2.810000</speed>
</trkpt>
<trkpt lat="32.562915802" lon="35.136047363">
  <ele>364.299316</ele>
  <time>2011-09-29T06:24:22Z</time>
  <speed>2.920000</speed>
</trkpt>
<trkpt lat="32.562873840" lon="35.136001587">
  <ele>364.025879</ele>
  <time>2011-09-29T06:24:24Z</time>
  <speed>2.900000</speed>
</trkpt>
<trkpt lat="32.562847137" lon="35.135951996">
  <ele>364.221191</ele>
  <time>2011-09-29T06:24:26Z</time>
  <speed>2.660000</speed>
</trkpt>
<trkpt lat="32.562816620" lon="35.135910034">
  <ele>364.400879</ele>
  <time>2011-09-29T06:24:28Z</time>
  <speed>2.610000</speed>
</trkpt>
<trkpt lat="32.562793732" lon="35.135890961">
  <ele>364.783691</ele>
  <time>2011-09-29T06:24:29Z</time>
  <speed>2.920000</speed>
</trkpt>
<trkpt lat="32.562744141" lon="35.135829926">
  <ele>365.525879</ele>
  <time>2011-09-29T06:24:31Z</time>
  <speed>3.110000</speed>
</trkpt>
<trkpt lat="32.562721252" lon="35.135810852">
  <ele>365.666504</ele>
  <time>2011-09-29T06:24:32Z</time>
  <speed>3.440000</speed>
</trkpt>
<trkpt lat="32.562698364" lon="35.135791779">
  <ele>366.549316</ele>
  <time>2011-09-29T06:24:33Z</time>
  <speed>2.940000</speed>
</trkpt>
<trkpt lat="32.562679291" lon="35.135768890">
  <ele>366.861816</ele>
  <time>2011-09-29T06:24:34Z</time>
  <speed>3.150000</speed>
</trkpt>
<trkpt lat="32.562656403" lon="35.135742188">
  <ele>365.127441</ele>
  <time>2011-09-29T06:24:35Z</time>
  <speed>3.190000</speed>
</trkpt>
<trkpt lat="32.562633514" lon="35.135719299">
  <ele>365.150879</ele>
  <time>2011-09-29T06:24:36Z</time>
  <speed>3.340000</speed>
</trkpt>
<trkpt lat="32.562602997" lon="35.135700226">
  <ele>365.447754</ele>
  <time>2011-09-29T06:24:37Z</time>
  <speed>3.250000</speed>
</trkpt>
<trkpt lat="32.562580109" lon="35.135681152">
  <ele>365.463379</ele>
  <time>2011-09-29T06:24:38Z</time>
  <speed>2.940000</speed>
</trkpt>
<trkpt lat="32.562553406" lon="35.135665894">
  <ele>365.291504</ele>
  <time>2011-09-29T06:24:39Z</time>
  <speed>3.090000</speed>
</trkpt>
<trkpt lat="32.562522888" lon="35.135650635">
  <ele>365.502441</ele>
  <time>2011-09-29T06:24:40Z</time>
  <speed>3.220000</speed>
</trkpt>
<trkpt lat="32.562473297" lon="35.135631561">
  <ele>364.861816</ele>
  <time>2011-09-29T06:24:42Z</time>
  <speed>2.910000</speed>
</trkpt>
<trkpt lat="32.562442780" lon="35.135623932">
  <ele>364.416504</ele>
  <time>2011-09-29T06:24:43Z</time>
  <speed>3.200000</speed>
</trkpt>
<trkpt lat="32.562416077" lon="35.135608673">
  <ele>363.346191</ele>
  <time>2011-09-29T06:24:44Z</time>
  <speed>3.110000</speed>
</trkpt>
<trkpt lat="32.562362671" lon="35.135593414">
  <ele>363.424316</ele>
  <time>2011-09-29T06:24:46Z</time>
  <speed>3.020000</speed>
</trkpt>
<trkpt lat="32.562316895" lon="35.135593414">
  <ele>363.361816</ele>
  <time>2011-09-29T06:24:48Z</time>
  <speed>2.940000</speed>
</trkpt>
<trkpt lat="32.562290192" lon="35.135589600">
  <ele>363.158691</ele>
  <time>2011-09-29T06:24:49Z</time>
  <speed>2.940000</speed>
</trkpt>
<trkpt lat="32.562259674" lon="35.135589600">
  <ele>362.877441</ele>
  <time>2011-09-29T06:24:50Z</time>
  <speed>3.190000</speed>
</trkpt>
<trkpt lat="32.562229156" lon="35.135593414">
  <ele>362.150879</ele>
  <time>2011-09-29T06:24:51Z</time>
  <speed>3.530000</speed>
</trkpt>
<trkpt lat="32.562198639" lon="35.135601044">
  <ele>361.877441</ele>
  <time>2011-09-29T06:24:52Z</time>
  <speed>3.590000</speed>
</trkpt>
<trkpt lat="32.562164307" lon="35.135612488">
  <ele>361.971191</ele>
  <time>2011-09-29T06:24:53Z</time>
  <speed>3.940000</speed>
</trkpt>
<trkpt lat="32.562129974" lon="35.135623932">
  <ele>361.744629</ele>
  <time>2011-09-29T06:24:54Z</time>
  <speed>3.550000</speed>
</trkpt>
<trkpt lat="32.562099457" lon="35.135643005">
  <ele>361.736816</ele>
  <time>2011-09-29T06:24:55Z</time>
  <speed>3.570000</speed>
</trkpt>
<trkpt lat="32.562072754" lon="35.135658264">
  <ele>362.775879</ele>
  <time>2011-09-29T06:24:56Z</time>
  <speed>2.870000</speed>
</trkpt>
<trkpt lat="32.562046051" lon="35.135669708">
  <ele>362.393066</ele>
  <time>2011-09-29T06:24:57Z</time>
  <speed>2.810000</speed>
</trkpt>
<trkpt lat="32.562019348" lon="35.135681152">
  <ele>361.666504</ele>
  <time>2011-09-29T06:24:58Z</time>
  <speed>3.330000</speed>
</trkpt>
<trkpt lat="32.561992645" lon="35.135696411">
  <ele>361.854004</ele>
  <time>2011-09-29T06:24:59Z</time>
  <speed>3.690000</speed>
</trkpt>
<trkpt lat="32.561962128" lon="35.135715485">
  <ele>361.947754</ele>
  <time>2011-09-29T06:25:00Z</time>
  <speed>3.980000</speed>
</trkpt>
<trkpt lat="32.561923981" lon="35.135734558">
  <ele>362.783691</ele>
  <time>2011-09-29T06:25:01Z</time>
  <speed>4.530000</speed>
</trkpt>
<trkpt lat="32.561878204" lon="35.135753632">
  <ele>362.307129</ele>
  <time>2011-09-29T06:25:02Z</time>
  <speed>4.910000</speed>
</trkpt>
<trkpt lat="32.561836243" lon="35.135776520">
  <ele>362.424316</ele>
  <time>2011-09-29T06:25:03Z</time>
  <speed>5.130000</speed>
</trkpt>
<trkpt lat="32.561794281" lon="35.135799408">
  <ele>362.494629</ele>
  <time>2011-09-29T06:25:04Z</time>
  <speed>5.210000</speed>
</trkpt>
<trkpt lat="32.561752319" lon="35.135822296">
  <ele>362.619629</ele>
  <time>2011-09-29T06:25:05Z</time>
  <speed>5.180000</speed>
</trkpt>
<trkpt lat="32.561706543" lon="35.135848999">
  <ele>362.291504</ele>
  <time>2011-09-29T06:25:06Z</time>
  <speed>5.740000</speed>
</trkpt>
<trkpt lat="32.561653137" lon="35.135883331">
  <ele>362.854004</ele>
  <time>2011-09-29T06:25:07Z</time>
  <speed>6.460000</speed>
</trkpt>
<trkpt lat="32.561607361" lon="35.135921478">
  <ele>362.689941</ele>
  <time>2011-09-29T06:25:08Z</time>
  <speed>6.060000</speed>
</trkpt>
<trkpt lat="32.561565399" lon="35.135948181">
  <ele>362.291504</ele>
  <time>2011-09-29T06:25:09Z</time>
  <speed>5.380000</speed>
</trkpt>
<trkpt lat="32.561523438" lon="35.135974884">
  <ele>361.518066</ele>
  <time>2011-09-29T06:25:10Z</time>
  <speed>4.780000</speed>
</trkpt>
<trkpt lat="32.561489105" lon="35.136001587">
  <ele>361.424316</ele>
  <time>2011-09-29T06:25:11Z</time>
  <speed>4.590000</speed>
</trkpt>
<trkpt lat="32.561462402" lon="35.136032104">
  <ele>360.557129</ele>
  <time>2011-09-29T06:25:12Z</time>
  <speed>4.590000</speed>
</trkpt>
<trkpt lat="32.561428070" lon="35.136066437">
  <ele>359.869629</ele>
  <time>2011-09-29T06:25:13Z</time>
  <speed>4.390000</speed>
</trkpt>
<trkpt lat="32.561401367" lon="35.136100769">
  <ele>360.205566</ele>
  <time>2011-09-29T06:25:14Z</time>
  <speed>3.580000</speed>
</trkpt>
<trkpt lat="32.561382294" lon="35.136131287">
  <ele>359.971191</ele>
  <time>2011-09-29T06:25:15Z</time>
  <speed>3.470000</speed>
</trkpt>
<trkpt lat="32.561370850" lon="35.136165619">
  <ele>359.541504</ele>
  <time>2011-09-29T06:25:16Z</time>
  <speed>3.540000</speed>
</trkpt>
<trkpt lat="32.561363220" lon="35.136203766">
  <ele>360.447754</ele>
  <time>2011-09-29T06:25:17Z</time>
  <speed>2.060000</speed>
</trkpt>
<trkpt lat="32.561378479" lon="35.136253357">
  <ele>360.986816</ele>
  <time>2011-09-29T06:25:19Z</time>
  <speed>2.120000</speed>
</trkpt>
<trkpt lat="32.561397552" lon="35.136299133">
  <ele>362.596191</ele>
  <time>2011-09-29T06:25:21Z</time>
  <speed>1.820000</speed>
</trkpt>
<trkpt lat="32.561424255" lon="35.136329651">
  <ele>363.119629</ele>
  <time>2011-09-29T06:25:23Z</time>
  <speed>1.930000</speed>
</trkpt>
<trkpt lat="32.561439514" lon="35.136371613">
  <ele>363.229004</ele>
  <time>2011-09-29T06:25:25Z</time>
  <speed>1.670000</speed>
</trkpt>
<trkpt lat="32.561462402" lon="35.136421204">
  <ele>363.447754</ele>
  <time>2011-09-29T06:25:27Z</time>
  <speed>2.000000</speed>
</trkpt>
<trkpt lat="32.561470032" lon="35.136463165">
  <ele>363.947754</ele>
  <time>2011-09-29T06:25:29Z</time>
  <speed>1.800000</speed>
</trkpt>
<trkpt lat="32.561485291" lon="35.136501312">
  <ele>364.439941</ele>
  <time>2011-09-29T06:25:31Z</time>
  <speed>1.790000</speed>
</trkpt>
<trkpt lat="32.561496735" lon="35.136535645">
  <ele>364.947754</ele>
  <time>2011-09-29T06:25:33Z</time>
  <speed>1.570000</speed>
</trkpt>
<trkpt lat="32.561511993" lon="35.136566162">
  <ele>365.494629</ele>
  <time>2011-09-29T06:25:35Z</time>
  <speed>1.700000</speed>
</trkpt>
<trkpt lat="32.561527252" lon="35.136604309">
  <ele>365.158691</ele>
  <time>2011-09-29T06:25:37Z</time>
  <speed>1.660000</speed>
</trkpt>
<trkpt lat="32.561534882" lon="35.136638641">
  <ele>365.174316</ele>
  <time>2011-09-29T06:25:39Z</time>
  <speed>1.620000</speed>
</trkpt>
<trkpt lat="32.561531067" lon="35.136672974">
  <ele>365.127441</ele>
  <time>2011-09-29T06:25:41Z</time>
  <speed>1.620000</speed>
</trkpt>
<trkpt lat="32.561531067" lon="35.136707306">
  <ele>365.252441</ele>
  <time>2011-09-29T06:25:43Z</time>
  <speed>1.610000</speed>
</trkpt>
<trkpt lat="32.561523438" lon="35.136749268">
  <ele>365.697754</ele>
  <time>2011-09-29T06:25:45Z</time>
  <speed>1.470000</speed>
</trkpt>
<trkpt lat="32.561508179" lon="35.136791229">
  <ele>366.549316</ele>
  <time>2011-09-29T06:25:47Z</time>
  <speed>1.810000</speed>
</trkpt>
<trkpt lat="32.561492920" lon="35.136829376">
  <ele>367.010254</ele>
  <time>2011-09-29T06:25:49Z</time>
  <speed>1.970000</speed>
</trkpt>
<trkpt lat="32.561481476" lon="35.136859894">
  <ele>367.322754</ele>
  <time>2011-09-29T06:25:51Z</time>
  <speed>1.660000</speed>
</trkpt>
<trkpt lat="32.561462402" lon="35.136886597">
  <ele>367.041504</ele>
  <time>2011-09-29T06:25:53Z</time>
  <speed>1.340000</speed>
</trkpt>
<trkpt lat="32.561435699" lon="35.136913300">
  <ele>367.518066</ele>
  <time>2011-09-29T06:25:56Z</time>
  <speed>1.380000</speed>
</trkpt>
<trkpt lat="32.561408997" lon="35.136943817">
  <ele>368.627441</ele>
  <time>2011-09-29T06:25:59Z</time>
  <speed>1.520000</speed>
</trkpt>
<trkpt lat="32.561389923" lon="35.136966705">
  <ele>367.963379</ele>
  <time>2011-09-29T06:26:01Z</time>
  <speed>1.370000</speed>
</trkpt>
<trkpt lat="32.561363220" lon="35.137008667">
  <ele>368.893066</ele>
  <time>2011-09-29T06:26:04Z</time>
  <speed>1.070000</speed>
</trkpt>
<trkpt lat="32.561359406" lon="35.137054443">
  <ele>368.721191</ele>
  <time>2011-09-29T06:26:07Z</time>
  <speed>1.620000</speed>
</trkpt>
<trkpt lat="32.561347961" lon="35.137092590">
  <ele>369.510254</ele>
  <time>2011-09-29T06:26:10Z</time>
  <speed>0.860000</speed>
</trkpt>
<trkpt lat="32.561332703" lon="35.137126923">
  <ele>369.033691</ele>
  <time>2011-09-29T06:26:13Z</time>
  <speed>1.300000</speed>
</trkpt>
<trkpt lat="32.561321259" lon="35.137168884">
  <ele>369.549316</ele>
  <time>2011-09-29T06:26:15Z</time>
  <speed>1.500000</speed>
</trkpt>
<trkpt lat="32.561298370" lon="35.137210846">
  <ele>369.689941</ele>
  <time>2011-09-29T06:26:18Z</time>
  <speed>1.470000</speed>
</trkpt>
<trkpt lat="32.561290741" lon="35.137252808">
  <ele>369.635254</ele>
  <time>2011-09-29T06:26:20Z</time>
  <speed>1.920000</speed>
</trkpt>
<trkpt lat="32.561279297" lon="35.137290955">
  <ele>369.604004</ele>
  <time>2011-09-29T06:26:22Z</time>
  <speed>1.380000</speed>
</trkpt>
<trkpt lat="32.561267853" lon="35.137321472">
  <ele>370.268066</ele>
  <time>2011-09-29T06:26:24Z</time>
  <speed>1.390000</speed>
</trkpt>
<trkpt lat="32.561260223" lon="35.137355804">
  <ele>371.041504</ele>
  <time>2011-09-29T06:26:26Z</time>
  <speed>1.450000</speed>
</trkpt>
<trkpt lat="32.561256409" lon="35.137393951">
  <ele>372.049316</ele>
  <time>2011-09-29T06:26:29Z</time>
  <speed>1.370000</speed>
</trkpt>
<trkpt lat="32.561244965" lon="35.137432098">
  <ele>372.580566</ele>
  <time>2011-09-29T06:26:31Z</time>
  <speed>1.630000</speed>
</trkpt>
<trkpt lat="32.561237335" lon="35.137466431">
  <ele>372.416504</ele>
  <time>2011-09-29T06:26:33Z</time>
  <speed>1.320000</speed>
</trkpt>
<trkpt lat="32.561241150" lon="35.137500763">
  <ele>372.439941</ele>
  <time>2011-09-29T06:26:35Z</time>
  <speed>1.590000</speed>
</trkpt>
<trkpt lat="32.561244965" lon="35.137535095">
  <ele>373.041504</ele>
  <time>2011-09-29T06:26:37Z</time>
  <speed>1.590000</speed>
</trkpt>
<trkpt lat="32.561244965" lon="35.137569427">
  <ele>373.174316</ele>
  <time>2011-09-29T06:26:39Z</time>
  <speed>1.770000</speed>
</trkpt>
<trkpt lat="32.561248779" lon="35.137619019">
  <ele>373.416504</ele>
  <time>2011-09-29T06:26:41Z</time>
  <speed>1.510000</speed>
</trkpt>
<trkpt lat="32.561252594" lon="35.137657166">
  <ele>373.549316</ele>
  <time>2011-09-29T06:26:43Z</time>
  <speed>1.890000</speed>
</trkpt>
<trkpt lat="32.561252594" lon="35.137695313">
  <ele>373.643066</ele>
  <time>2011-09-29T06:26:45Z</time>
  <speed>1.720000</speed>
</trkpt>
<trkpt lat="32.561256409" lon="35.137729645">
  <ele>373.111816</ele>
  <time>2011-09-29T06:26:47Z</time>
  <speed>1.730000</speed>
</trkpt>
<trkpt lat="32.561275482" lon="35.137767792">
  <ele>373.525879</ele>
  <time>2011-09-29T06:26:49Z</time>
  <speed>2.020000</speed>
</trkpt>
<trkpt lat="32.561286926" lon="35.137805939">
  <ele>373.330566</ele>
  <time>2011-09-29T06:26:51Z</time>
  <speed>2.070000</speed>
</trkpt>
<trkpt lat="32.561290741" lon="35.137859344">
  <ele>372.682129</ele>
  <time>2011-09-29T06:26:53Z</time>
  <speed>2.700000</speed>
</trkpt>
<trkpt lat="32.561302185" lon="35.137908936">
  <ele>371.525879</ele>
  <time>2011-09-29T06:26:55Z</time>
  <speed>2.260000</speed>
</trkpt>
<trkpt lat="32.561313629" lon="35.137969971">
  <ele>371.564941</ele>
  <time>2011-09-29T06:26:57Z</time>
  <speed>3.250000</speed>
</trkpt>
<trkpt lat="32.561321259" lon="35.138004303">
  <ele>370.939941</ele>
  <time>2011-09-29T06:26:58Z</time>
  <speed>3.340000</speed>
</trkpt>
<trkpt lat="32.561328888" lon="35.138046265">
  <ele>370.135254</ele>
  <time>2011-09-29T06:26:59Z</time>
  <speed>3.850000</speed>
</trkpt>
<trkpt lat="32.561340332" lon="35.138084412">
  <ele>369.705566</ele>
  <time>2011-09-29T06:27:00Z</time>
  <speed>3.820000</speed>
</trkpt>
<trkpt lat="32.561359406" lon="35.138122559">
  <ele>369.494629</ele>
  <time>2011-09-29T06:27:01Z</time>
  <speed>3.630000</speed>
</trkpt>
<trkpt lat="32.561378479" lon="35.138160706">
  <ele>369.236816</ele>
  <time>2011-09-29T06:27:02Z</time>
  <speed>4.090000</speed>
</trkpt>
<trkpt lat="32.561401367" lon="35.138195038">
  <ele>369.338379</ele>
  <time>2011-09-29T06:27:03Z</time>
  <speed>3.790000</speed>
</trkpt>
<trkpt lat="32.561424255" lon="35.138221741">
  <ele>369.736816</ele>
  <time>2011-09-29T06:27:04Z</time>
  <speed>3.470000</speed>
</trkpt>
<trkpt lat="32.561454773" lon="35.138248444">
  <ele>369.635254</ele>
  <time>2011-09-29T06:27:05Z</time>
  <speed>3.860000</speed>
</trkpt>
<trkpt lat="32.561511993" lon="35.138259888">
  <ele>370.002441</ele>
  <time>2011-09-29T06:27:06Z</time>
  <speed>3.640000</speed>
</trkpt>
<trkpt lat="32.561542511" lon="35.138271332">
  <ele>369.979004</ele>
  <time>2011-09-29T06:27:07Z</time>
  <speed>2.610000</speed>
</trkpt>
<trkpt lat="32.561599731" lon="35.138259888">
  <ele>369.627441</ele>
  <time>2011-09-29T06:27:09Z</time>
  <speed>2.790000</speed>
</trkpt>
<trkpt lat="32.561641693" lon="35.138252258">
  <ele>370.260254</ele>
  <time>2011-09-29T06:27:11Z</time>
  <speed>2.390000</speed>
</trkpt>
<trkpt lat="32.561676025" lon="35.138244629">
  <ele>370.525879</ele>
  <time>2011-09-29T06:27:12Z</time>
  <speed>2.340000</speed>
</trkpt>
<trkpt lat="32.561706543" lon="35.138240814">
  <ele>370.338379</ele>
  <time>2011-09-29T06:27:13Z</time>
  <speed>2.700000</speed>
</trkpt>
<trkpt lat="32.561752319" lon="35.138225555">
  <ele>369.908691</ele>
  <time>2011-09-29T06:27:15Z</time>
  <speed>2.510000</speed>
</trkpt>
<trkpt lat="32.561779022" lon="35.138214111">
  <ele>369.682129</ele>
  <time>2011-09-29T06:27:16Z</time>
  <speed>3.040000</speed>
</trkpt>
<trkpt lat="32.561809540" lon="35.138202667">
  <ele>369.799316</ele>
  <time>2011-09-29T06:27:17Z</time>
  <speed>3.380000</speed>
</trkpt>
<trkpt lat="32.561840057" lon="35.138187408">
  <ele>370.002441</ele>
  <time>2011-09-29T06:27:18Z</time>
  <speed>3.260000</speed>
</trkpt>
<trkpt lat="32.561866760" lon="35.138172150">
  <ele>369.846191</ele>
  <time>2011-09-29T06:27:19Z</time>
  <speed>3.600000</speed>
</trkpt>
<trkpt lat="32.561897278" lon="35.138149261">
  <ele>370.244629</ele>
  <time>2011-09-29T06:27:20Z</time>
  <speed>3.830000</speed>
</trkpt>
<trkpt lat="32.561935425" lon="35.138122559">
  <ele>370.432129</ele>
  <time>2011-09-29T06:27:21Z</time>
  <speed>4.750000</speed>
</trkpt>
<trkpt lat="32.561977386" lon="35.138080597">
  <ele>370.049316</ele>
  <time>2011-09-29T06:27:22Z</time>
  <speed>5.560000</speed>
</trkpt>
<trkpt lat="32.562030792" lon="35.138038635">
  <ele>370.010254</ele>
  <time>2011-09-29T06:27:23Z</time>
  <speed>6.190000</speed>
</trkpt>
<trkpt lat="32.562088013" lon="35.137992859">
  <ele>369.955566</ele>
  <time>2011-09-29T06:27:24Z</time>
  <speed>6.660000</speed>
</trkpt>
<trkpt lat="32.562133789" lon="35.137939453">
  <ele>369.494629</ele>
  <time>2011-09-29T06:27:25Z</time>
  <speed>6.860000</speed>
</trkpt>
<trkpt lat="32.562191010" lon="35.137893677">
  <ele>369.713379</ele>
  <time>2011-09-29T06:27:26Z</time>
  <speed>6.710000</speed>
</trkpt>
<trkpt lat="32.562244415" lon="35.137847900">
  <ele>369.244629</ele>
  <time>2011-09-29T06:27:27Z</time>
  <speed>6.490000</speed>
</trkpt>
<trkpt lat="32.562290192" lon="35.137798309">
  <ele>369.088379</ele>
  <time>2011-09-29T06:27:28Z</time>
  <speed>6.700000</speed>
</trkpt>
<trkpt lat="32.562339783" lon="35.137744904">
  <ele>368.900879</ele>
  <time>2011-09-29T06:27:29Z</time>
  <speed>6.570000</speed>
</trkpt>
<trkpt lat="32.562393188" lon="35.137672424">
  <ele>370.385254</ele>
  <time>2011-09-29T06:27:30Z</time>
  <speed>6.440000</speed>
</trkpt>
<trkpt lat="32.562442780" lon="35.137622833">
  <ele>370.088379</ele>
  <time>2011-09-29T06:27:31Z</time>
  <speed>6.370000</speed>
</trkpt>
<trkpt lat="32.562492371" lon="35.137588501">
  <ele>370.361816</ele>
  <time>2011-09-29T06:27:32Z</time>
  <speed>6.000000</speed>
</trkpt>
<trkpt lat="32.562538147" lon="35.137561798">
  <ele>369.729004</ele>
  <time>2011-09-29T06:27:33Z</time>
  <speed>5.650000</speed>
</trkpt>
<trkpt lat="32.562587738" lon="35.137538910">
  <ele>369.064941</ele>
  <time>2011-09-29T06:27:34Z</time>
  <speed>5.720000</speed>
</trkpt>
<trkpt lat="32.562641144" lon="35.137535095">
  <ele>368.947754</ele>
  <time>2011-09-29T06:27:35Z</time>
  <speed>6.210000</speed>
</trkpt>
<trkpt lat="32.562690735" lon="35.137535095">
  <ele>368.572754</ele>
  <time>2011-09-29T06:27:36Z</time>
  <speed>5.590000</speed>
</trkpt>
<trkpt lat="32.562744141" lon="35.137546539">
  <ele>368.205566</ele>
  <time>2011-09-29T06:27:37Z</time>
  <speed>5.300000</speed>
</trkpt>
<trkpt lat="32.562797546" lon="35.137561798">
  <ele>367.049316</ele>
  <time>2011-09-29T06:27:38Z</time>
  <speed>6.080000</speed>
</trkpt>
<trkpt lat="32.562858582" lon="35.137584686">
  <ele>367.088379</ele>
  <time>2011-09-29T06:27:39Z</time>
  <speed>6.540000</speed>
</trkpt>
<trkpt lat="32.562923431" lon="35.137611389">
  <ele>366.322754</ele>
  <time>2011-09-29T06:27:40Z</time>
  <speed>7.460000</speed>
</trkpt>
<trkpt lat="32.562992096" lon="35.137649536">
  <ele>365.869629</ele>
  <time>2011-09-29T06:27:41Z</time>
  <speed>8.250000</speed>
</trkpt>
<trkpt lat="32.563060760" lon="35.137683868">
  <ele>365.111816</ele>
  <time>2011-09-29T06:27:42Z</time>
  <speed>7.680000</speed>
</trkpt>
<trkpt lat="32.563125610" lon="35.137725830">
  <ele>364.494629</ele>
  <time>2011-09-29T06:27:43Z</time>
  <speed>7.900000</speed>
</trkpt>
<trkpt lat="32.563194275" lon="35.137771606">
  <ele>364.346191</ele>
  <time>2011-09-29T06:27:44Z</time>
  <speed>8.300000</speed>
</trkpt>
<trkpt lat="32.563262939" lon="35.137821198">
  <ele>363.955566</ele>
  <time>2011-09-29T06:27:45Z</time>
  <speed>8.640000</speed>
</trkpt>
<trkpt lat="32.563327789" lon="35.137878418">
  <ele>363.018066</ele>
  <time>2011-09-29T06:27:46Z</time>
  <speed>8.020000</speed>
</trkpt>
<trkpt lat="32.563385010" lon="35.137931824">
  <ele>362.197754</ele>
  <time>2011-09-29T06:27:47Z</time>
  <speed>7.940000</speed>
</trkpt>
<trkpt lat="32.563449860" lon="35.137992859">
  <ele>362.088379</ele>
  <time>2011-09-29T06:27:48Z</time>
  <speed>8.270000</speed>
</trkpt>
<trkpt lat="32.563503265" lon="35.138053894">
  <ele>361.822754</ele>
  <time>2011-09-29T06:27:49Z</time>
  <speed>7.900000</speed>
</trkpt>
<trkpt lat="32.563556671" lon="35.138111115">
  <ele>361.119629</ele>
  <time>2011-09-29T06:27:50Z</time>
  <speed>7.000000</speed>
</trkpt>
<trkpt lat="32.563602448" lon="35.138172150">
  <ele>361.221191</ele>
  <time>2011-09-29T06:27:51Z</time>
  <speed>5.910000</speed>
</trkpt>
<trkpt lat="32.563636780" lon="35.138233185">
  <ele>361.588379</ele>
  <time>2011-09-29T06:27:52Z</time>
  <speed>6.140000</speed>
</trkpt>
<trkpt lat="32.563671112" lon="35.138286591">
  <ele>360.939941</ele>
  <time>2011-09-29T06:27:53Z</time>
  <speed>5.880000</speed>
</trkpt>
<trkpt lat="32.563705444" lon="35.138343811">
  <ele>361.072754</ele>
  <time>2011-09-29T06:27:54Z</time>
  <speed>5.650000</speed>
</trkpt>
<trkpt lat="32.563732147" lon="35.138389587">
  <ele>361.346191</ele>
  <time>2011-09-29T06:27:55Z</time>
  <speed>4.690000</speed>
</trkpt>
<trkpt lat="32.563762665" lon="35.138431549">
  <ele>361.955566</ele>
  <time>2011-09-29T06:27:56Z</time>
  <speed>4.690000</speed>
</trkpt>
<trkpt lat="32.563800812" lon="35.138462067">
  <ele>361.768066</ele>
  <time>2011-09-29T06:27:57Z</time>
  <speed>3.890000</speed>
</trkpt>
<trkpt lat="32.563819885" lon="35.138500214">
  <ele>361.658691</ele>
  <time>2011-09-29T06:27:58Z</time>
  <speed>3.320000</speed>
</trkpt>
<trkpt lat="32.563838959" lon="35.138530731">
  <ele>361.213379</ele>
  <time>2011-09-29T06:27:59Z</time>
  <speed>3.160000</speed>
</trkpt>
<trkpt lat="32.563858032" lon="35.138561249">
  <ele>360.830566</ele>
  <time>2011-09-29T06:28:00Z</time>
  <speed>3.170000</speed>
</trkpt>
<trkpt lat="32.563877106" lon="35.138587952">
  <ele>360.627441</ele>
  <time>2011-09-29T06:28:01Z</time>
  <speed>2.940000</speed>
</trkpt>
<trkpt lat="32.563892365" lon="35.138610840">
  <ele>360.486816</ele>
  <time>2011-09-29T06:28:02Z</time>
  <speed>2.790000</speed>
</trkpt>
<trkpt lat="32.563907623" lon="35.138645172">
  <ele>361.049316</ele>
  <time>2011-09-29T06:28:03Z</time>
  <speed>2.980000</speed>
</trkpt>
<trkpt lat="32.563926697" lon="35.138675690">
  <ele>361.432129</ele>
  <time>2011-09-29T06:28:04Z</time>
  <speed>2.750000</speed>
</trkpt>
<trkpt lat="32.563949585" lon="35.138698578">
  <ele>362.197754</ele>
  <time>2011-09-29T06:28:05Z</time>
  <speed>2.800000</speed>
</trkpt>
<trkpt lat="32.563983917" lon="35.138744354">
  <ele>362.369629</ele>
  <time>2011-09-29T06:28:07Z</time>
  <speed>2.890000</speed>
</trkpt>
<trkpt lat="32.564006805" lon="35.138763428">
  <ele>362.619629</ele>
  <time>2011-09-29T06:28:08Z</time>
  <speed>2.780000</speed>
</trkpt>
<trkpt lat="32.564048767" lon="35.138801575">
  <ele>362.932129</ele>
  <time>2011-09-29T06:28:10Z</time>
  <speed>2.480000</speed>
</trkpt>
<trkpt lat="32.564086914" lon="35.138835907">
  <ele>362.971191</ele>
  <time>2011-09-29T06:28:12Z</time>
  <speed>1.960000</speed>
</trkpt>
<trkpt lat="32.564105988" lon="35.138866425">
  <ele>363.338379</ele>
  <time>2011-09-29T06:28:13Z</time>
  <speed>2.100000</speed>
</trkpt>
<trkpt lat="32.564144135" lon="35.138904572">
  <ele>363.275879</ele>
  <time>2011-09-29T06:28:15Z</time>
  <speed>2.260000</speed>
</trkpt>
<trkpt lat="32.564182281" lon="35.138931274">
  <ele>363.174316</ele>
  <time>2011-09-29T06:28:17Z</time>
  <speed>1.970000</speed>
</trkpt>
<trkpt lat="32.564231873" lon="35.138954163">
  <ele>363.947754</ele>
  <time>2011-09-29T06:28:19Z</time>
  <speed>2.450000</speed>
</trkpt>
<trkpt lat="32.564277649" lon="35.138977051">
  <ele>364.377441</ele>
  <time>2011-09-29T06:28:21Z</time>
  <speed>2.350000</speed>
</trkpt>
<trkpt lat="32.564319611" lon="35.138999939">
  <ele>364.143066</ele>
  <time>2011-09-29T06:28:23Z</time>
  <speed>2.060000</speed>
</trkpt>
<trkpt lat="32.564361572" lon="35.139015198">
  <ele>364.705566</ele>
  <time>2011-09-29T06:28:25Z</time>
  <speed>2.310000</speed>
</trkpt>
<trkpt lat="32.564407349" lon="35.139034271">
  <ele>364.971191</ele>
  <time>2011-09-29T06:28:27Z</time>
  <speed>1.980000</speed>
</trkpt>
<trkpt lat="32.564456940" lon="35.139038086">
  <ele>366.096191</ele>
  <time>2011-09-29T06:28:29Z</time>
  <speed>2.430000</speed>
</trkpt>
<trkpt lat="32.564483643" lon="35.139049530">
  <ele>366.432129</ele>
  <time>2011-09-29T06:28:30Z</time>
  <speed>2.140000</speed>
</trkpt>
<trkpt lat="32.564533234" lon="35.139060974">
  <ele>366.939941</ele>
  <time>2011-09-29T06:28:32Z</time>
  <speed>1.750000</speed>
</trkpt>
<trkpt lat="32.564563751" lon="35.139060974">
  <ele>367.205566</ele>
  <time>2011-09-29T06:28:33Z</time>
  <speed>2.080000</speed>
</trkpt>
<trkpt lat="32.564601898" lon="35.139060974">
  <ele>367.564941</ele>
  <time>2011-09-29T06:28:34Z</time>
  <speed>2.340000</speed>
</trkpt>
<trkpt lat="32.564628601" lon="35.139064789">
  <ele>368.166504</ele>
  <time>2011-09-29T06:28:35Z</time>
  <speed>2.430000</speed>
</trkpt>
<trkpt lat="32.564674377" lon="35.139076233">
  <ele>368.729004</ele>
  <time>2011-09-29T06:28:37Z</time>
  <speed>2.110000</speed>
</trkpt>
<trkpt lat="32.564701080" lon="35.139080048">
  <ele>368.783691</ele>
  <time>2011-09-29T06:28:38Z</time>
  <speed>2.370000</speed>
</trkpt>
<trkpt lat="32.564731598" lon="35.139080048">
  <ele>368.947754</ele>
  <time>2011-09-29T06:28:39Z</time>
  <speed>2.530000</speed>
</trkpt>
<trkpt lat="32.564765930" lon="35.139076233">
  <ele>369.525879</ele>
  <time>2011-09-29T06:28:40Z</time>
  <speed>2.620000</speed>
</trkpt>
<trkpt lat="32.564811707" lon="35.139087677">
  <ele>368.682129</ele>
  <time>2011-09-29T06:28:42Z</time>
  <speed>1.580000</speed>
</trkpt>
<trkpt lat="32.564857483" lon="35.139087677">
  <ele>369.932129</ele>
  <time>2011-09-29T06:28:44Z</time>
  <speed>2.020000</speed>
</trkpt>
<trkpt lat="32.564888000" lon="35.139091492">
  <ele>370.650879</ele>
  <time>2011-09-29T06:28:45Z</time>
  <speed>2.610000</speed>
</trkpt>
<trkpt lat="32.564918518" lon="35.139095306">
  <ele>370.721191</ele>
  <time>2011-09-29T06:28:46Z</time>
  <speed>2.770000</speed>
</trkpt>
<trkpt lat="32.564968109" lon="35.139099121">
  <ele>367.916504</ele>
  <time>2011-09-29T06:28:47Z</time>
  <speed>3.690000</speed>
</trkpt>
<trkpt lat="32.565017700" lon="35.139091492">
  <ele>367.221191</ele>
  <time>2011-09-29T06:28:48Z</time>
  <speed>4.430000</speed>
</trkpt>
<trkpt lat="32.565059662" lon="35.139080048">
  <ele>367.674316</ele>
  <time>2011-09-29T06:28:49Z</time>
  <speed>5.140000</speed>
</trkpt>
<trkpt lat="32.565116882" lon="35.139064789">
  <ele>367.150879</ele>
  <time>2011-09-29T06:28:50Z</time>
  <speed>4.860000</speed>
</trkpt>
<trkpt lat="32.565174103" lon="35.139045715">
  <ele>365.697754</ele>
  <time>2011-09-29T06:28:51Z</time>
  <speed>5.780000</speed>
</trkpt>
<trkpt lat="32.565238953" lon="35.139015198">
  <ele>364.861816</ele>
  <time>2011-09-29T06:28:52Z</time>
  <speed>6.970000</speed>
</trkpt>
<trkpt lat="32.565315247" lon="35.138996124">
  <ele>362.791504</ele>
  <time>2011-09-29T06:28:53Z</time>
  <speed>6.890000</speed>
</trkpt>
<trkpt lat="32.565383911" lon="35.138977051">
  <ele>362.049316</ele>
  <time>2011-09-29T06:28:54Z</time>
  <speed>7.480000</speed>
</trkpt>
<trkpt lat="32.565452576" lon="35.138957977">
  <ele>361.627441</ele>
  <time>2011-09-29T06:28:55Z</time>
  <speed>7.690000</speed>
</trkpt>
<trkpt lat="32.565528870" lon="35.138931274">
  <ele>361.143066</ele>
  <time>2011-09-29T06:28:56Z</time>
  <speed>7.940000</speed>
</trkpt>
<trkpt lat="32.565597534" lon="35.138908386">
  <ele>361.033691</ele>
  <time>2011-09-29T06:28:57Z</time>
  <speed>7.730000</speed>
</trkpt>
<trkpt lat="32.565658569" lon="35.138877869">
  <ele>358.510254</ele>
  <time>2011-09-29T06:28:58Z</time>
  <speed>7.110000</speed>
</trkpt>
<trkpt lat="32.565723419" lon="35.138847351">
  <ele>357.643066</ele>
  <time>2011-09-29T06:28:59Z</time>
  <speed>6.370000</speed>
</trkpt>
<trkpt lat="32.565784454" lon="35.138828278">
  <ele>357.557129</ele>
  <time>2011-09-29T06:29:00Z</time>
  <speed>6.090000</speed>
</trkpt>
<trkpt lat="32.565841675" lon="35.138835907">
  <ele>356.736816</ele>
  <time>2011-09-29T06:29:01Z</time>
  <speed>6.510000</speed>
</trkpt>
<trkpt lat="32.565891266" lon="35.138877869">
  <ele>355.877441</ele>
  <time>2011-09-29T06:29:02Z</time>
  <speed>6.900000</speed>
</trkpt>
<trkpt lat="32.565937042" lon="35.138942719">
  <ele>355.088379</ele>
  <time>2011-09-29T06:29:03Z</time>
  <speed>7.230000</speed>
</trkpt>
<trkpt lat="32.565982819" lon="35.139003754">
  <ele>353.541504</ele>
  <time>2011-09-29T06:29:04Z</time>
  <speed>7.730000</speed>
</trkpt>
<trkpt lat="32.566036224" lon="35.139068604">
  <ele>353.049316</ele>
  <time>2011-09-29T06:29:05Z</time>
  <speed>8.520000</speed>
</trkpt>
<trkpt lat="32.566089630" lon="35.139144897">
  <ele>352.393066</ele>
  <time>2011-09-29T06:29:06Z</time>
  <speed>9.710000</speed>
</trkpt>
<trkpt lat="32.566150665" lon="35.139221191">
  <ele>352.596191</ele>
  <time>2011-09-29T06:29:07Z</time>
  <speed>10.140000</speed>
</trkpt>
<trkpt lat="32.566215515" lon="35.139305115">
  <ele>351.932129</ele>
  <time>2011-09-29T06:29:08Z</time>
  <speed>10.410000</speed>
</trkpt>
<trkpt lat="32.566280365" lon="35.139392853">
  <ele>351.643066</ele>
  <time>2011-09-29T06:29:09Z</time>
  <speed>10.760000</speed>
</trkpt>
<trkpt lat="32.566345215" lon="35.139484406">
  <ele>350.604004</ele>
  <time>2011-09-29T06:29:10Z</time>
  <speed>10.550000</speed>
</trkpt>
<trkpt lat="32.566413879" lon="35.139572144">
  <ele>350.744629</ele>
  <time>2011-09-29T06:29:11Z</time>
  <speed>10.400000</speed>
</trkpt>
<trkpt lat="32.566478729" lon="35.139640808">
  <ele>350.400879</ele>
  <time>2011-09-29T06:29:12Z</time>
  <speed>9.290000</speed>
</trkpt>
<trkpt lat="32.566551208" lon="35.139690399">
  <ele>349.932129</ele>
  <time>2011-09-29T06:29:13Z</time>
  <speed>8.460000</speed>
</trkpt>
<trkpt lat="32.566623688" lon="35.139709473">
  <ele>349.596191</ele>
  <time>2011-09-29T06:29:14Z</time>
  <speed>7.820000</speed>
</trkpt>
<trkpt lat="32.566696167" lon="35.139705658">
  <ele>349.135254</ele>
  <time>2011-09-29T06:29:15Z</time>
  <speed>7.910000</speed>
</trkpt>
<trkpt lat="32.566776276" lon="35.139694214">
  <ele>349.002441</ele>
  <time>2011-09-29T06:29:16Z</time>
  <speed>8.600000</speed>
</trkpt>
<trkpt lat="32.566852570" lon="35.139682770">
  <ele>348.721191</ele>
  <time>2011-09-29T06:29:17Z</time>
  <speed>7.810000</speed>
</trkpt>
<trkpt lat="32.566917419" lon="35.139675140">
  <ele>347.971191</ele>
  <time>2011-09-29T06:29:18Z</time>
  <speed>8.040000</speed>
</trkpt>
<trkpt lat="32.566986084" lon="35.139667511">
  <ele>347.096191</ele>
  <time>2011-09-29T06:29:19Z</time>
  <speed>8.150000</speed>
</trkpt>
<trkpt lat="32.567062378" lon="35.139686584">
  <ele>346.658691</ele>
  <time>2011-09-29T06:29:20Z</time>
  <speed>7.620000</speed>
</trkpt>
<trkpt lat="32.567131042" lon="35.139701843">
  <ele>346.611816</ele>
  <time>2011-09-29T06:29:21Z</time>
  <speed>7.990000</speed>
</trkpt>
<trkpt lat="32.567195892" lon="35.139717102">
  <ele>345.994629</ele>
  <time>2011-09-29T06:29:22Z</time>
  <speed>7.280000</speed>
</trkpt>
<trkpt lat="32.567260742" lon="35.139743805">
  <ele>345.674316</ele>
  <time>2011-09-29T06:29:23Z</time>
  <speed>7.080000</speed>
</trkpt>
<trkpt lat="32.567325592" lon="35.139766693">
  <ele>345.049316</ele>
  <time>2011-09-29T06:29:24Z</time>
  <speed>7.520000</speed>
</trkpt>
<trkpt lat="32.567390442" lon="35.139797211">
  <ele>345.127441</ele>
  <time>2011-09-29T06:29:25Z</time>
  <speed>8.050000</speed>
</trkpt>
<trkpt lat="32.567462921" lon="35.139842987">
  <ele>344.807129</ele>
  <time>2011-09-29T06:29:26Z</time>
  <speed>8.260000</speed>
</trkpt>
<trkpt lat="32.567527771" lon="35.139892578">
  <ele>344.588379</ele>
  <time>2011-09-29T06:29:27Z</time>
  <speed>8.300000</speed>
</trkpt>
<trkpt lat="32.567584991" lon="35.139942169">
  <ele>344.471191</ele>
  <time>2011-09-29T06:29:28Z</time>
  <speed>8.050000</speed>
</trkpt>
<trkpt lat="32.567638397" lon="35.139995575">
  <ele>344.197754</ele>
  <time>2011-09-29T06:29:29Z</time>
  <speed>7.850000</speed>
</trkpt>
<trkpt lat="32.567699432" lon="35.140060425">
  <ele>344.744629</ele>
  <time>2011-09-29T06:29:30Z</time>
  <speed>7.520000</speed>
</trkpt>
<trkpt lat="32.567752838" lon="35.140113831">
  <ele>344.486816</ele>
  <time>2011-09-29T06:29:31Z</time>
  <speed>7.240000</speed>
</trkpt>
<trkpt lat="32.567802429" lon="35.140163422">
  <ele>345.135254</ele>
  <time>2011-09-29T06:29:32Z</time>
  <speed>7.000000</speed>
</trkpt>
<trkpt lat="32.567844391" lon="35.140213013">
  <ele>345.807129</ele>
  <time>2011-09-29T06:29:33Z</time>
  <speed>6.580000</speed>
</trkpt>
<trkpt lat="32.567878723" lon="35.140262604">
  <ele>346.986816</ele>
  <time>2011-09-29T06:29:34Z</time>
  <speed>6.080000</speed>
</trkpt>
<trkpt lat="32.567909241" lon="35.140308380">
  <ele>347.736816</ele>
  <time>2011-09-29T06:29:35Z</time>
  <speed>6.170000</speed>
</trkpt>
<trkpt lat="32.567939758" lon="35.140354156">
  <ele>348.924316</ele>
  <time>2011-09-29T06:29:36Z</time>
  <speed>5.550000</speed>
</trkpt>
<trkpt lat="32.567962646" lon="35.140399933">
  <ele>350.127441</ele>
  <time>2011-09-29T06:29:37Z</time>
  <speed>5.170000</speed>
</trkpt>
<trkpt lat="32.567989349" lon="35.140441895">
  <ele>350.252441</ele>
  <time>2011-09-29T06:29:38Z</time>
  <speed>5.020000</speed>
</trkpt>
<trkpt lat="32.568008423" lon="35.140487671">
  <ele>350.057129</ele>
  <time>2011-09-29T06:29:39Z</time>
  <speed>4.620000</speed>
</trkpt>
<trkpt lat="32.568023682" lon="35.140533447">
  <ele>349.947754</ele>
  <time>2011-09-29T06:29:40Z</time>
  <speed>4.310000</speed>
</trkpt>
<trkpt lat="32.568046570" lon="35.140575409">
  <ele>349.713379</ele>
  <time>2011-09-29T06:29:41Z</time>
  <speed>4.460000</speed>
</trkpt>
<trkpt lat="32.568061829" lon="35.140621185">
  <ele>349.900879</ele>
  <time>2011-09-29T06:29:42Z</time>
  <speed>4.300000</speed>
</trkpt>
<trkpt lat="32.568073273" lon="35.140663147">
  <ele>350.072754</ele>
  <time>2011-09-29T06:29:43Z</time>
  <speed>3.990000</speed>
</trkpt>
<trkpt lat="32.568088531" lon="35.140705109">
  <ele>350.096191</ele>
  <time>2011-09-29T06:29:44Z</time>
  <speed>3.850000</speed>
</trkpt>
<trkpt lat="32.568096161" lon="35.140739441">
  <ele>349.713379</ele>
  <time>2011-09-29T06:29:45Z</time>
  <speed>3.780000</speed>
</trkpt>
<trkpt lat="32.568103790" lon="35.140777588">
  <ele>349.814941</ele>
  <time>2011-09-29T06:29:46Z</time>
  <speed>3.450000</speed>
</trkpt>
<trkpt lat="32.568115234" lon="35.140811920">
  <ele>350.283691</ele>
  <time>2011-09-29T06:29:47Z</time>
  <speed>3.450000</speed>
</trkpt>
<trkpt lat="32.568119049" lon="35.140842438">
  <ele>350.314941</ele>
  <time>2011-09-29T06:29:48Z</time>
  <speed>3.260000</speed>
</trkpt>
<trkpt lat="32.568115234" lon="35.140884399">
  <ele>350.025879</ele>
  <time>2011-09-29T06:29:49Z</time>
  <speed>3.230000</speed>
</trkpt>
<trkpt lat="32.568115234" lon="35.140918732">
  <ele>350.291504</ele>
  <time>2011-09-29T06:29:50Z</time>
  <speed>3.180000</speed>
</trkpt>
<trkpt lat="32.568126678" lon="35.140953064">
  <ele>349.682129</ele>
  <time>2011-09-29T06:29:51Z</time>
  <speed>2.970000</speed>
</trkpt>
<trkpt lat="32.568141937" lon="35.141010284">
  <ele>349.111816</ele>
  <time>2011-09-29T06:29:53Z</time>
  <speed>2.600000</speed>
</trkpt>
<trkpt lat="32.568141937" lon="35.141044617">
  <ele>348.869629</ele>
  <time>2011-09-29T06:29:54Z</time>
  <speed>2.810000</speed>
</trkpt>
<trkpt lat="32.568149567" lon="35.141075134">
  <ele>349.361816</ele>
  <time>2011-09-29T06:29:55Z</time>
  <speed>2.820000</speed>
</trkpt>
<trkpt lat="32.568164825" lon="35.141105652">
  <ele>349.025879</ele>
  <time>2011-09-29T06:29:56Z</time>
  <speed>2.910000</speed>
</trkpt>
<trkpt lat="32.568172455" lon="35.141162872">
  <ele>348.768066</ele>
  <time>2011-09-29T06:29:58Z</time>
  <speed>2.590000</speed>
</trkpt>
<trkpt lat="32.568176270" lon="35.141220093">
  <ele>349.549316</ele>
  <time>2011-09-29T06:30:00Z</time>
  <speed>2.380000</speed>
</trkpt>
<trkpt lat="32.568187714" lon="35.141265869">
  <ele>349.057129</ele>
  <time>2011-09-29T06:30:02Z</time>
  <speed>2.370000</speed>
</trkpt>
<trkpt lat="32.568187714" lon="35.141311646">
  <ele>349.104004</ele>
  <time>2011-09-29T06:30:04Z</time>
  <speed>2.100000</speed>
</trkpt>
<trkpt lat="32.568195343" lon="35.141353607">
  <ele>348.994629</ele>
  <time>2011-09-29T06:30:06Z</time>
  <speed>2.520000</speed>
</trkpt>
<trkpt lat="32.568206787" lon="35.141407013">
  <ele>349.799316</ele>
  <time>2011-09-29T06:30:08Z</time>
  <speed>2.830000</speed>
</trkpt>
<trkpt lat="32.568225861" lon="35.141475677">
  <ele>350.760254</ele>
  <time>2011-09-29T06:30:10Z</time>
  <speed>3.490000</speed>
</trkpt>
<trkpt lat="32.568233490" lon="35.141510010">
  <ele>351.189941</ele>
  <time>2011-09-29T06:30:11Z</time>
  <speed>3.810000</speed>
</trkpt>
<trkpt lat="32.568244934" lon="35.141551971">
  <ele>350.627441</ele>
  <time>2011-09-29T06:30:12Z</time>
  <speed>4.510000</speed>
</trkpt>
<trkpt lat="32.568264008" lon="35.141605377">
  <ele>350.361816</ele>
  <time>2011-09-29T06:30:13Z</time>
  <speed>5.230000</speed>
</trkpt>
<trkpt lat="32.568286896" lon="35.141654968">
  <ele>350.471191</ele>
  <time>2011-09-29T06:30:14Z</time>
  <speed>5.650000</speed>
</trkpt>
<trkpt lat="32.568325043" lon="35.141708374">
  <ele>349.846191</ele>
  <time>2011-09-29T06:30:15Z</time>
  <speed>6.340000</speed>
</trkpt>
<trkpt lat="32.568370819" lon="35.141757965">
  <ele>350.057129</ele>
  <time>2011-09-29T06:30:16Z</time>
  <speed>6.630000</speed>
</trkpt>
<trkpt lat="32.568420410" lon="35.141803741">
  <ele>349.229004</ele>
  <time>2011-09-29T06:30:17Z</time>
  <speed>7.030000</speed>
</trkpt>
<trkpt lat="32.568485260" lon="35.141845703">
  <ele>348.939941</ele>
  <time>2011-09-29T06:30:18Z</time>
  <speed>7.700000</speed>
</trkpt>
<trkpt lat="32.568557739" lon="35.141880035">
  <ele>348.994629</ele>
  <time>2011-09-29T06:30:19Z</time>
  <speed>8.110000</speed>
</trkpt>
<trkpt lat="32.568626404" lon="35.141918182">
  <ele>348.588379</ele>
  <time>2011-09-29T06:30:20Z</time>
  <speed>8.150000</speed>
</trkpt>
<trkpt lat="32.568691254" lon="35.141948700">
  <ele>348.549316</ele>
  <time>2011-09-29T06:30:21Z</time>
  <speed>7.560000</speed>
</trkpt>
<trkpt lat="32.568759918" lon="35.141975403">
  <ele>348.400879</ele>
  <time>2011-09-29T06:30:22Z</time>
  <speed>7.240000</speed>
</trkpt>
<trkpt lat="32.568817139" lon="35.142002106">
  <ele>348.205566</ele>
  <time>2011-09-29T06:30:23Z</time>
  <speed>6.470000</speed>
</trkpt>
<trkpt lat="32.568862915" lon="35.142028809">
  <ele>348.424316</ele>
  <time>2011-09-29T06:30:24Z</time>
  <speed>5.000000</speed>
</trkpt>
<trkpt lat="32.568897247" lon="35.142059326">
  <ele>348.096191</ele>
  <time>2011-09-29T06:30:25Z</time>
  <speed>4.490000</speed>
</trkpt>
<trkpt lat="32.568935394" lon="35.142089844">
  <ele>348.010254</ele>
  <time>2011-09-29T06:30:26Z</time>
  <speed>4.290000</speed>
</trkpt>
<trkpt lat="32.568973541" lon="35.142112732">
  <ele>347.619629</ele>
  <time>2011-09-29T06:30:27Z</time>
  <speed>3.490000</speed>
</trkpt>
<trkpt lat="32.569015503" lon="35.142143250">
  <ele>347.697754</ele>
  <time>2011-09-29T06:30:28Z</time>
  <speed>3.410000</speed>
</trkpt>
<trkpt lat="32.569042206" lon="35.142177582">
  <ele>347.814941</ele>
  <time>2011-09-29T06:30:29Z</time>
  <speed>2.910000</speed>
</trkpt>
<trkpt lat="32.569072723" lon="35.142196655">
  <ele>347.666504</ele>
  <time>2011-09-29T06:30:30Z</time>
  <speed>2.740000</speed>
</trkpt>
<trkpt lat="32.569091797" lon="35.142219543">
  <ele>347.854004</ele>
  <time>2011-09-29T06:30:31Z</time>
  <speed>2.260000</speed>
</trkpt>
<trkpt lat="32.569118500" lon="35.142238617">
  <ele>348.486816</ele>
  <time>2011-09-29T06:30:32Z</time>
  <speed>2.830000</speed>
</trkpt>
<trkpt lat="32.569149017" lon="35.142253876">
  <ele>348.572754</ele>
  <time>2011-09-29T06:30:33Z</time>
  <speed>2.330000</speed>
</trkpt>
<trkpt lat="32.569183350" lon="35.142288208">
  <ele>348.986816</ele>
  <time>2011-09-29T06:30:35Z</time>
  <speed>1.560000</speed>
</trkpt>
<trkpt lat="32.569213867" lon="35.142311096">
  <ele>348.432129</ele>
  <time>2011-09-29T06:30:37Z</time>
  <speed>1.850000</speed>
</trkpt>
<trkpt lat="32.569252014" lon="35.142353058">
  <ele>348.893066</ele>
  <time>2011-09-29T06:30:39Z</time>
  <speed>2.060000</speed>
</trkpt>
<trkpt lat="32.569290161" lon="35.142395020">
  <ele>349.557129</ele>
  <time>2011-09-29T06:30:41Z</time>
  <speed>2.240000</speed>
</trkpt>
<trkpt lat="32.569320679" lon="35.142417908">
  <ele>350.158691</ele>
  <time>2011-09-29T06:30:42Z</time>
  <speed>2.330000</speed>
</trkpt>
<trkpt lat="32.569355011" lon="35.142440796">
  <ele>351.455566</ele>
  <time>2011-09-29T06:30:44Z</time>
  <speed>1.650000</speed>
</trkpt>
<trkpt lat="32.569381714" lon="35.142467499">
  <ele>351.908691</ele>
  <time>2011-09-29T06:30:46Z</time>
  <speed>1.860000</speed>
</trkpt>
<trkpt lat="32.569404602" lon="35.142498016">
  <ele>353.338379</ele>
  <time>2011-09-29T06:30:48Z</time>
  <speed>1.760000</speed>
</trkpt>
<trkpt lat="32.569427490" lon="35.142528534">
  <ele>354.689941</ele>
  <time>2011-09-29T06:30:50Z</time>
  <speed>1.560000</speed>
</trkpt>
<trkpt lat="32.569450378" lon="35.142551422">
  <ele>355.291504</ele>
  <time>2011-09-29T06:30:52Z</time>
  <speed>1.600000</speed>
</trkpt>
<trkpt lat="32.569477081" lon="35.142581940">
  <ele>355.494629</ele>
  <time>2011-09-29T06:30:54Z</time>
  <speed>1.670000</speed>
</trkpt>
<trkpt lat="32.569499969" lon="35.142608643">
  <ele>355.736816</ele>
  <time>2011-09-29T06:30:56Z</time>
  <speed>1.660000</speed>
</trkpt>
<trkpt lat="32.569519043" lon="35.142646790">
  <ele>356.041504</ele>
  <time>2011-09-29T06:30:58Z</time>
  <speed>1.850000</speed>
</trkpt>
<trkpt lat="32.569549561" lon="35.142677307">
  <ele>356.791504</ele>
  <time>2011-09-29T06:31:00Z</time>
  <speed>1.830000</speed>
</trkpt>
<trkpt lat="32.569568634" lon="35.142707825">
  <ele>357.604004</ele>
  <time>2011-09-29T06:31:02Z</time>
  <speed>1.540000</speed>
</trkpt>
<trkpt lat="32.569591522" lon="35.142730713">
  <ele>357.533691</ele>
  <time>2011-09-29T06:31:04Z</time>
  <speed>1.260000</speed>
</trkpt>
<trkpt lat="32.569618225" lon="35.142757416">
  <ele>356.971191</ele>
  <time>2011-09-29T06:31:06Z</time>
  <speed>1.520000</speed>
</trkpt>
<trkpt lat="32.569644928" lon="35.142791748">
  <ele>356.471191</ele>
  <time>2011-09-29T06:31:08Z</time>
  <speed>2.220000</speed>
</trkpt>
<trkpt lat="32.569664001" lon="35.142837524">
  <ele>356.682129</ele>
  <time>2011-09-29T06:31:10Z</time>
  <speed>1.780000</speed>
</trkpt>
<trkpt lat="32.569683075" lon="35.142868042">
  <ele>356.518066</ele>
  <time>2011-09-29T06:31:12Z</time>
  <speed>1.740000</speed>
</trkpt>
<trkpt lat="32.569713593" lon="35.142898560">
  <ele>356.260254</ele>
  <time>2011-09-29T06:31:14Z</time>
  <speed>1.520000</speed>
</trkpt>
<trkpt lat="32.569744110" lon="35.142925262">
  <ele>356.494629</ele>
  <time>2011-09-29T06:31:16Z</time>
  <speed>1.230000</speed>
</trkpt>
<trkpt lat="32.569770813" lon="35.142955780">
  <ele>355.986816</ele>
  <time>2011-09-29T06:31:18Z</time>
  <speed>1.830000</speed>
</trkpt>
<trkpt lat="32.569786072" lon="35.142993927">
  <ele>356.408691</ele>
  <time>2011-09-29T06:31:20Z</time>
  <speed>1.870000</speed>
</trkpt>
<trkpt lat="32.569805145" lon="35.143032074">
  <ele>356.197754</ele>
  <time>2011-09-29T06:31:22Z</time>
  <speed>1.890000</speed>
</trkpt>
<trkpt lat="32.569831848" lon="35.143066406">
  <ele>355.947754</ele>
  <time>2011-09-29T06:31:24Z</time>
  <speed>2.030000</speed>
</trkpt>
<trkpt lat="32.569850922" lon="35.143096924">
  <ele>356.439941</ele>
  <time>2011-09-29T06:31:26Z</time>
  <speed>1.950000</speed>
</trkpt>
<trkpt lat="32.569881439" lon="35.143131256">
  <ele>356.580566</ele>
  <time>2011-09-29T06:31:28Z</time>
  <speed>1.660000</speed>
</trkpt>
<trkpt lat="32.569908142" lon="35.143157959">
  <ele>357.033691</ele>
  <time>2011-09-29T06:31:30Z</time>
  <speed>1.870000</speed>
</trkpt>
<trkpt lat="32.569938660" lon="35.143199921">
  <ele>357.205566</ele>
  <time>2011-09-29T06:31:32Z</time>
  <speed>2.510000</speed>
</trkpt>
<trkpt lat="32.569988251" lon="35.143241882">
  <ele>357.385254</ele>
  <time>2011-09-29T06:31:34Z</time>
  <speed>3.260000</speed>
</trkpt>
<trkpt lat="32.570011139" lon="35.143268585">
  <ele>357.361816</ele>
  <time>2011-09-29T06:31:35Z</time>
  <speed>3.470000</speed>
</trkpt>
<trkpt lat="32.570037842" lon="35.143302917">
  <ele>357.861816</ele>
  <time>2011-09-29T06:31:36Z</time>
  <speed>3.770000</speed>
</trkpt>
<trkpt lat="32.570068359" lon="35.143341064">
  <ele>357.650879</ele>
  <time>2011-09-29T06:31:37Z</time>
  <speed>4.280000</speed>
</trkpt>
<trkpt lat="32.570098877" lon="35.143375397">
  <ele>357.799316</ele>
  <time>2011-09-29T06:31:38Z</time>
  <speed>4.810000</speed>
</trkpt>
<trkpt lat="32.570144653" lon="35.143417358">
  <ele>357.721191</ele>
  <time>2011-09-29T06:31:39Z</time>
  <speed>5.950000</speed>
</trkpt>
<trkpt lat="32.570194244" lon="35.143447876">
  <ele>357.557129</ele>
  <time>2011-09-29T06:31:40Z</time>
  <speed>5.960000</speed>
</trkpt>
<trkpt lat="32.570243835" lon="35.143478394">
  <ele>357.354004</ele>
  <time>2011-09-29T06:31:41Z</time>
  <speed>6.060000</speed>
</trkpt>
<trkpt lat="32.570293427" lon="35.143512726">
  <ele>357.182129</ele>
  <time>2011-09-29T06:31:42Z</time>
  <speed>6.790000</speed>
</trkpt>
<trkpt lat="32.570358276" lon="35.143554688">
  <ele>357.088379</ele>
  <time>2011-09-29T06:31:43Z</time>
  <speed>7.440000</speed>
</trkpt>
<trkpt lat="32.570442200" lon="35.143577576">
  <ele>356.643066</ele>
  <time>2011-09-29T06:31:44Z</time>
  <speed>8.939999</speed>
</trkpt>
<trkpt lat="32.570537567" lon="35.143611908">
  <ele>356.307129</ele>
  <time>2011-09-29T06:31:45Z</time>
  <speed>9.830000</speed>
</trkpt>
<trkpt lat="32.570632935" lon="35.143638611">
  <ele>355.830566</ele>
  <time>2011-09-29T06:31:46Z</time>
  <speed>9.940000</speed>
</trkpt>
<trkpt lat="32.570728302" lon="35.143657684">
  <ele>355.588379</ele>
  <time>2011-09-29T06:31:47Z</time>
  <speed>9.920001</speed>
</trkpt>
<trkpt lat="32.570819855" lon="35.143684387">
  <ele>355.221191</ele>
  <time>2011-09-29T06:31:48Z</time>
  <speed>9.970000</speed>
</trkpt>
<trkpt lat="32.570907593" lon="35.143707275">
  <ele>354.814941</ele>
  <time>2011-09-29T06:31:49Z</time>
  <speed>9.580000</speed>
</trkpt>
<trkpt lat="32.570995331" lon="35.143730164">
  <ele>353.893066</ele>
  <time>2011-09-29T06:31:50Z</time>
  <speed>9.760000</speed>
</trkpt>
<trkpt lat="32.571083069" lon="35.143760681">
  <ele>352.330566</ele>
  <time>2011-09-29T06:31:51Z</time>
  <speed>9.890000</speed>
</trkpt>
<trkpt lat="32.571170807" lon="35.143798828">
  <ele>351.518066</ele>
  <time>2011-09-29T06:31:52Z</time>
  <speed>10.230000</speed>
</trkpt>
<trkpt lat="32.571254730" lon="35.143844604">
  <ele>351.268066</ele>
  <time>2011-09-29T06:31:53Z</time>
  <speed>10.230000</speed>
</trkpt>
<trkpt lat="32.571331024" lon="35.143886566">
  <ele>350.619629</ele>
  <time>2011-09-29T06:31:54Z</time>
  <speed>9.130000</speed>
</trkpt>
<trkpt lat="32.571392059" lon="35.143917084">
  <ele>350.455566</ele>
  <time>2011-09-29T06:31:55Z</time>
  <speed>6.900000</speed>
</trkpt>
<trkpt lat="32.571445465" lon="35.143943787">
  <ele>350.057129</ele>
  <time>2011-09-29T06:31:56Z</time>
  <speed>5.880000</speed>
</trkpt>
<trkpt lat="32.571498871" lon="35.143974304">
  <ele>349.830566</ele>
  <time>2011-09-29T06:31:57Z</time>
  <speed>6.150000</speed>
</trkpt>
<trkpt lat="32.571548462" lon="35.143997192">
  <ele>349.346191</ele>
  <time>2011-09-29T06:31:58Z</time>
  <speed>4.830000</speed>
</trkpt>
<trkpt lat="32.571590424" lon="35.144008636">
  <ele>348.932129</ele>
  <time>2011-09-29T06:31:59Z</time>
  <speed>3.270000</speed>
</trkpt>
<trkpt lat="32.571636200" lon="35.144020081">
  <ele>348.518066</ele>
  <time>2011-09-29T06:32:00Z</time>
  <speed>2.860000</speed>
</trkpt>
<trkpt lat="32.571666718" lon="35.144031525">
  <ele>348.010254</ele>
  <time>2011-09-29T06:32:01Z</time>
  <speed>1.740000</speed>
</trkpt>
<trkpt lat="32.571701050" lon="35.144016266">
  <ele>348.119629</ele>
  <time>2011-09-29T06:32:02Z</time>
  <speed>0.400000</speed>
</trkpt>
<trkpt lat="32.571727753" lon="35.144016266">
  <ele>347.041504</ele>
  <time>2011-09-29T06:32:24Z</time>
  <speed>1.120000</speed>
</trkpt>
<trkpt lat="32.571750641" lon="35.144042969">
  <ele>346.197754</ele>
  <time>2011-09-29T06:32:27Z</time>
  <speed>1.190000</speed>
</trkpt>
<trkpt lat="32.571781158" lon="35.144054413">
  <ele>345.869629</ele>
  <time>2011-09-29T06:32:28Z</time>
  <speed>0.890000</speed>
</trkpt>
<trkpt lat="32.571792603" lon="35.144027710">
  <ele>347.174316</ele>
  <time>2011-09-29T06:33:25Z</time>
  <speed>0.010000</speed>
</trkpt>
<trkpt lat="32.571815491" lon="35.144004822">
  <ele>346.729004</ele>
  <time>2011-09-29T06:33:55Z</time>
  <speed>0.110000</speed>
</trkpt>
<trkpt lat="32.571823120" lon="35.144039154">
  <ele>347.127441</ele>
  <time>2011-09-29T06:34:03Z</time>
  <speed>0.370000</speed>
</trkpt>
<trkpt lat="32.571861267" lon="35.144050598">
  <ele>347.885254</ele>
  <time>2011-09-29T06:34:06Z</time>
  <speed>2.150000</speed>
</trkpt>
<trkpt lat="32.571887970" lon="35.144065857">
  <ele>348.064941</ele>
  <time>2011-09-29T06:34:08Z</time>
  <speed>1.590000</speed>
</trkpt>
<trkpt lat="32.571918488" lon="35.144081116">
  <ele>348.057129</ele>
  <time>2011-09-29T06:34:10Z</time>
  <speed>1.480000</speed>
</trkpt>
<trkpt lat="32.571956635" lon="35.144115448">
  <ele>348.354004</ele>
  <time>2011-09-29T06:34:13Z</time>
  <speed>1.660000</speed>
</trkpt>
<trkpt lat="32.571979523" lon="35.144142151">
  <ele>348.393066</ele>
  <time>2011-09-29T06:34:15Z</time>
  <speed>1.790000</speed>
</trkpt>
<trkpt lat="32.572006226" lon="35.144161224">
  <ele>347.705566</ele>
  <time>2011-09-29T06:34:17Z</time>
  <speed>1.330000</speed>
</trkpt>
<trkpt lat="32.572029114" lon="35.144180298">
  <ele>348.174316</ele>
  <time>2011-09-29T06:34:19Z</time>
  <speed>1.570000</speed>
</trkpt>
<trkpt lat="32.572052002" lon="35.144207001">
  <ele>348.510254</ele>
  <time>2011-09-29T06:34:22Z</time>
  <speed>1.400000</speed>
</trkpt>
<trkpt lat="32.572086334" lon="35.144229889">
  <ele>348.096191</ele>
  <time>2011-09-29T06:34:25Z</time>
  <speed>1.550000</speed>
</trkpt>
<trkpt lat="32.572116852" lon="35.144252777">
  <ele>347.361816</ele>
  <time>2011-09-29T06:34:28Z</time>
  <speed>1.500000</speed>
</trkpt>
<trkpt lat="32.572139740" lon="35.144275665">
  <ele>346.338379</ele>
  <time>2011-09-29T06:34:30Z</time>
  <speed>1.510000</speed>
</trkpt>
<trkpt lat="32.572162628" lon="35.144287109">
  <ele>345.518066</ele>
  <time>2011-09-29T06:34:32Z</time>
  <speed>1.870000</speed>
</trkpt>
<trkpt lat="32.572196960" lon="35.144306183">
  <ele>345.314941</ele>
  <time>2011-09-29T06:34:35Z</time>
  <speed>1.590000</speed>
</trkpt>
<trkpt lat="32.572238922" lon="35.144325256">
  <ele>344.783691</ele>
  <time>2011-09-29T06:34:38Z</time>
  <speed>1.740000</speed>
</trkpt>
<trkpt lat="32.572269440" lon="35.144344330">
  <ele>344.572754</ele>
  <time>2011-09-29T06:34:40Z</time>
  <speed>2.040000</speed>
</trkpt>
<trkpt lat="32.572307587" lon="35.144355774">
  <ele>344.229004</ele>
  <time>2011-09-29T06:34:42Z</time>
  <speed>1.950000</speed>
</trkpt>
<trkpt lat="32.572345734" lon="35.144371033">
  <ele>342.877441</ele>
  <time>2011-09-29T06:34:44Z</time>
  <speed>1.700000</speed>
</trkpt>
<trkpt lat="32.572380066" lon="35.144386292">
  <ele>342.252441</ele>
  <time>2011-09-29T06:34:46Z</time>
  <speed>1.740000</speed>
</trkpt>
<trkpt lat="32.572406769" lon="35.144405365">
  <ele>341.494629</ele>
  <time>2011-09-29T06:34:48Z</time>
  <speed>2.210000</speed>
</trkpt>
<trkpt lat="32.572444916" lon="35.144428253">
  <ele>341.400879</ele>
  <time>2011-09-29T06:34:50Z</time>
  <speed>2.180000</speed>
</trkpt>
<trkpt lat="32.572475433" lon="35.144451141">
  <ele>341.760254</ele>
  <time>2011-09-29T06:34:52Z</time>
  <speed>2.210000</speed>
</trkpt>
<trkpt lat="32.572513580" lon="35.144466400">
  <ele>340.596191</ele>
  <time>2011-09-29T06:34:54Z</time>
  <speed>2.460000</speed>
</trkpt>
<trkpt lat="32.572559357" lon="35.144493103">
  <ele>339.299316</ele>
  <time>2011-09-29T06:34:56Z</time>
  <speed>2.620000</speed>
</trkpt>
<trkpt lat="32.572593689" lon="35.144519806">
  <ele>338.986816</ele>
  <time>2011-09-29T06:34:58Z</time>
  <speed>2.470000</speed>
</trkpt>
<trkpt lat="32.572639465" lon="35.144538879">
  <ele>338.580566</ele>
  <time>2011-09-29T06:35:00Z</time>
  <speed>2.540000</speed>
</trkpt>
<trkpt lat="32.572681427" lon="35.144569397">
  <ele>338.611816</ele>
  <time>2011-09-29T06:35:02Z</time>
  <speed>2.650000</speed>
</trkpt>
<trkpt lat="32.572719574" lon="35.144599915">
  <ele>339.244629</ele>
  <time>2011-09-29T06:35:04Z</time>
  <speed>2.480000</speed>
</trkpt>
<trkpt lat="32.572742462" lon="35.144611359">
  <ele>338.775879</ele>
  <time>2011-09-29T06:35:05Z</time>
  <speed>3.030000</speed>
</trkpt>
<trkpt lat="32.572769165" lon="35.144634247">
  <ele>338.479004</ele>
  <time>2011-09-29T06:35:06Z</time>
  <speed>3.260000</speed>
</trkpt>
<trkpt lat="32.572792053" lon="35.144653320">
  <ele>338.627441</ele>
  <time>2011-09-29T06:35:07Z</time>
  <speed>2.610000</speed>
</trkpt>
<trkpt lat="32.572814941" lon="35.144672394">
  <ele>338.010254</ele>
  <time>2011-09-29T06:35:08Z</time>
  <speed>2.920000</speed>
</trkpt>
<trkpt lat="32.572849274" lon="35.144702911">
  <ele>337.557129</ele>
  <time>2011-09-29T06:35:10Z</time>
  <speed>2.010000</speed>
</trkpt>
<trkpt lat="32.572891235" lon="35.144729614">
  <ele>337.127441</ele>
  <time>2011-09-29T06:35:12Z</time>
  <speed>2.380000</speed>
</trkpt>
<trkpt lat="32.572921753" lon="35.144771576">
  <ele>337.291504</ele>
  <time>2011-09-29T06:35:14Z</time>
  <speed>2.370000</speed>
</trkpt>
<trkpt lat="32.572956085" lon="35.144805908">
  <ele>337.111816</ele>
  <time>2011-09-29T06:35:16Z</time>
  <speed>1.860000</speed>
</trkpt>
<trkpt lat="32.572986603" lon="35.144840240">
  <ele>337.002441</ele>
  <time>2011-09-29T06:35:18Z</time>
  <speed>1.810000</speed>
</trkpt>
<trkpt lat="32.573017120" lon="35.144870758">
  <ele>337.557129</ele>
  <time>2011-09-29T06:35:20Z</time>
  <speed>2.170000</speed>
</trkpt>
<trkpt lat="32.573043823" lon="35.144901276">
  <ele>338.080566</ele>
  <time>2011-09-29T06:35:22Z</time>
  <speed>1.760000</speed>
</trkpt>
<trkpt lat="32.573078156" lon="35.144943237">
  <ele>339.158691</ele>
  <time>2011-09-29T06:35:24Z</time>
  <speed>1.480000</speed>
</trkpt>
<trkpt lat="32.573097229" lon="35.144981384">
  <ele>339.604004</ele>
  <time>2011-09-29T06:35:26Z</time>
  <speed>1.750000</speed>
</trkpt>
<trkpt lat="32.573123932" lon="35.145015717">
  <ele>339.385254</ele>
  <time>2011-09-29T06:35:28Z</time>
  <speed>1.710000</speed>
</trkpt>
<trkpt lat="32.573146820" lon="35.145042419">
  <ele>339.361816</ele>
  <time>2011-09-29T06:35:29Z</time>
  <speed>1.850000</speed>
</trkpt>
<trkpt lat="32.573173523" lon="35.145069122">
  <ele>340.064941</ele>
  <time>2011-09-29T06:35:31Z</time>
  <speed>1.440000</speed>
</trkpt>
<trkpt lat="32.573196411" lon="35.145107269">
  <ele>341.439941</ele>
  <time>2011-09-29T06:35:34Z</time>
  <speed>1.430000</speed>
</trkpt>
<trkpt lat="32.573223114" lon="35.145126343">
  <ele>342.049316</ele>
  <time>2011-09-29T06:35:36Z</time>
  <speed>1.380000</speed>
</trkpt>
<trkpt lat="32.573249817" lon="35.145153046">
  <ele>342.260254</ele>
  <time>2011-09-29T06:35:38Z</time>
  <speed>1.210000</speed>
</trkpt>
<trkpt lat="32.573265076" lon="35.145183563">
  <ele>343.736816</ele>
  <time>2011-09-29T06:35:40Z</time>
  <speed>1.470000</speed>
</trkpt>
<trkpt lat="32.573284149" lon="35.145202637">
  <ele>344.596191</ele>
  <time>2011-09-29T06:35:41Z</time>
  <speed>1.840000</speed>
</trkpt>
<trkpt lat="32.573310852" lon="35.145236969">
  <ele>345.158691</ele>
  <time>2011-09-29T06:35:43Z</time>
  <speed>1.800000</speed>
</trkpt>
<trkpt lat="32.573345184" lon="35.145267487">
  <ele>345.393066</ele>
  <time>2011-09-29T06:35:45Z</time>
  <speed>1.650000</speed>
</trkpt>
<trkpt lat="32.573368073" lon="35.145290375">
  <ele>345.416504</ele>
  <time>2011-09-29T06:35:46Z</time>
  <speed>1.810000</speed>
</trkpt>
<trkpt lat="32.573394775" lon="35.145320892">
  <ele>345.268066</ele>
  <time>2011-09-29T06:35:48Z</time>
  <speed>1.690000</speed>
</trkpt>
<trkpt lat="32.573417664" lon="35.145359039">
  <ele>346.002441</ele>
  <time>2011-09-29T06:35:50Z</time>
  <speed>1.170000</speed>
</trkpt>
<trkpt lat="32.573444366" lon="35.145389557">
  <ele>345.775879</ele>
  <time>2011-09-29T06:35:52Z</time>
  <speed>2.120000</speed>
</trkpt>
<trkpt lat="32.573474884" lon="35.145431519">
  <ele>346.986816</ele>
  <time>2011-09-29T06:35:54Z</time>
  <speed>1.740000</speed>
</trkpt>
<trkpt lat="32.573501587" lon="35.145465851">
  <ele>347.869629</ele>
  <time>2011-09-29T06:35:56Z</time>
  <speed>1.950000</speed>
</trkpt>
<trkpt lat="32.573528290" lon="35.145500183">
  <ele>349.025879</ele>
  <time>2011-09-29T06:35:58Z</time>
  <speed>1.860000</speed>
</trkpt>
<trkpt lat="32.573554993" lon="35.145534515">
  <ele>349.400879</ele>
  <time>2011-09-29T06:36:00Z</time>
  <speed>1.640000</speed>
</trkpt>
<trkpt lat="32.573600769" lon="35.145561218">
  <ele>348.557129</ele>
  <time>2011-09-29T06:36:02Z</time>
  <speed>2.180000</speed>
</trkpt>
<trkpt lat="32.573642731" lon="35.145591736">
  <ele>347.916504</ele>
  <time>2011-09-29T06:36:04Z</time>
  <speed>2.090000</speed>
</trkpt>
<trkpt lat="32.573680878" lon="35.145618439">
  <ele>347.650879</ele>
  <time>2011-09-29T06:36:06Z</time>
  <speed>2.040000</speed>
</trkpt>
<trkpt lat="32.573707581" lon="35.145648956">
  <ele>347.518066</ele>
  <time>2011-09-29T06:36:08Z</time>
  <speed>1.920000</speed>
</trkpt>
<trkpt lat="32.573757172" lon="35.145683289">
  <ele>347.307129</ele>
  <time>2011-09-29T06:36:10Z</time>
  <speed>1.980000</speed>
</trkpt>
<trkpt lat="32.573783875" lon="35.145729065">
  <ele>347.463379</ele>
  <time>2011-09-29T06:36:12Z</time>
  <speed>2.170000</speed>
</trkpt>
<trkpt lat="32.573825836" lon="35.145767212">
  <ele>347.979004</ele>
  <time>2011-09-29T06:36:14Z</time>
  <speed>1.880000</speed>
</trkpt>
<trkpt lat="32.573852539" lon="35.145786285">
  <ele>347.775879</ele>
  <time>2011-09-29T06:36:15Z</time>
  <speed>2.060000</speed>
</trkpt>
<trkpt lat="32.573890686" lon="35.145820618">
  <ele>347.955566</ele>
  <time>2011-09-29T06:36:17Z</time>
  <speed>1.580000</speed>
</trkpt>
<trkpt lat="32.573925018" lon="35.145847321">
  <ele>348.377441</ele>
  <time>2011-09-29T06:36:19Z</time>
  <speed>1.750000</speed>
</trkpt>
<trkpt lat="32.573944092" lon="35.145877838">
  <ele>347.986816</ele>
  <time>2011-09-29T06:36:21Z</time>
  <speed>1.690000</speed>
</trkpt>
<trkpt lat="32.573982239" lon="35.145896912">
  <ele>348.432129</ele>
  <time>2011-09-29T06:36:23Z</time>
  <speed>2.060000</speed>
</trkpt>
<trkpt lat="32.574020386" lon="35.145915985">
  <ele>348.322754</ele>
  <time>2011-09-29T06:36:25Z</time>
  <speed>2.360000</speed>
</trkpt>
<trkpt lat="32.574058533" lon="35.145954132">
  <ele>347.689941</ele>
  <time>2011-09-29T06:36:27Z</time>
  <speed>2.280000</speed>
</trkpt>
<trkpt lat="32.574100494" lon="35.145984650">
  <ele>347.619629</ele>
  <time>2011-09-29T06:36:29Z</time>
  <speed>2.350000</speed>
</trkpt>
<trkpt lat="32.574131012" lon="35.145992279">
  <ele>347.549316</ele>
  <time>2011-09-29T06:36:30Z</time>
  <speed>2.340000</speed>
</trkpt>
<trkpt lat="32.574161530" lon="35.146022797">
  <ele>347.643066</ele>
  <time>2011-09-29T06:36:32Z</time>
  <speed>2.320000</speed>
</trkpt>
<trkpt lat="32.574195862" lon="35.146053314">
  <ele>348.650879</ele>
  <time>2011-09-29T06:36:34Z</time>
  <speed>2.520000</speed>
</trkpt>
<trkpt lat="32.574234009" lon="35.146091461">
  <ele>348.963379</ele>
  <time>2011-09-29T06:36:36Z</time>
  <speed>2.740000</speed>
</trkpt>
<trkpt lat="32.574264526" lon="35.146133423">
  <ele>348.924316</ele>
  <time>2011-09-29T06:36:38Z</time>
  <speed>2.230000</speed>
</trkpt>
<trkpt lat="32.574295044" lon="35.146167755">
  <ele>348.377441</ele>
  <time>2011-09-29T06:36:40Z</time>
  <speed>1.870000</speed>
</trkpt>
<trkpt lat="32.574321747" lon="35.146217346">
  <ele>348.072754</ele>
  <time>2011-09-29T06:36:42Z</time>
  <speed>2.360000</speed>
</trkpt>
<trkpt lat="32.574348450" lon="35.146266937">
  <ele>348.635254</ele>
  <time>2011-09-29T06:36:44Z</time>
  <speed>2.780000</speed>
</trkpt>
<trkpt lat="32.574367523" lon="35.146297455">
  <ele>348.736816</ele>
  <time>2011-09-29T06:36:45Z</time>
  <speed>2.930000</speed>
</trkpt>
<trkpt lat="32.574378967" lon="35.146343231">
  <ele>349.307129</ele>
  <time>2011-09-29T06:36:46Z</time>
  <speed>3.600000</speed>
</trkpt>
<trkpt lat="32.574394226" lon="35.146385193">
  <ele>349.877441</ele>
  <time>2011-09-29T06:36:47Z</time>
  <speed>3.860000</speed>
</trkpt>
<trkpt lat="32.574409485" lon="35.146438599">
  <ele>350.518066</ele>
  <time>2011-09-29T06:36:48Z</time>
  <speed>4.460000</speed>
</trkpt>
<trkpt lat="32.574428558" lon="35.146488190">
  <ele>350.830566</ele>
  <time>2011-09-29T06:36:49Z</time>
  <speed>4.930000</speed>
</trkpt>
<trkpt lat="32.574451447" lon="35.146537781">
  <ele>350.955566</ele>
  <time>2011-09-29T06:36:50Z</time>
  <speed>4.940000</speed>
</trkpt>
<trkpt lat="32.574466705" lon="35.146583557">
  <ele>350.979004</ele>
  <time>2011-09-29T06:36:51Z</time>
  <speed>4.490000</speed>
</trkpt>
<trkpt lat="32.574485779" lon="35.146633148">
  <ele>351.158691</ele>
  <time>2011-09-29T06:36:52Z</time>
  <speed>4.790000</speed>
</trkpt>
<trkpt lat="32.574501038" lon="35.146690369">
  <ele>351.408691</ele>
  <time>2011-09-29T06:36:53Z</time>
  <speed>5.280000</speed>
</trkpt>
<trkpt lat="32.574520111" lon="35.146743774">
  <ele>351.650879</ele>
  <time>2011-09-29T06:36:54Z</time>
  <speed>5.160000</speed>
</trkpt>
<trkpt lat="32.574531555" lon="35.146800995">
  <ele>351.736816</ele>
  <time>2011-09-29T06:36:55Z</time>
  <speed>4.920000</speed>
</trkpt>
<trkpt lat="32.574546814" lon="35.146850586">
  <ele>351.611816</ele>
  <time>2011-09-29T06:36:56Z</time>
  <speed>4.660000</speed>
</trkpt>
<trkpt lat="32.574565887" lon="35.146903992">
  <ele>351.752441</ele>
  <time>2011-09-29T06:36:57Z</time>
  <speed>4.500000</speed>
</trkpt>
<trkpt lat="32.574581146" lon="35.146949768">
  <ele>351.768066</ele>
  <time>2011-09-29T06:36:58Z</time>
  <speed>4.760000</speed>
</trkpt>
<trkpt lat="32.574604034" lon="35.147003174">
  <ele>352.080566</ele>
  <time>2011-09-29T06:36:59Z</time>
  <speed>4.410000</speed>
</trkpt>
<trkpt lat="32.574607849" lon="35.147064209">
  <ele>352.338379</ele>
  <time>2011-09-29T06:37:00Z</time>
  <speed>4.230000</speed>
</trkpt>
<trkpt lat="32.574611664" lon="35.147109985">
  <ele>352.549316</ele>
  <time>2011-09-29T06:37:01Z</time>
  <speed>4.060000</speed>
</trkpt>
<trkpt lat="32.574615479" lon="35.147159576">
  <ele>352.838379</ele>
  <time>2011-09-29T06:37:02Z</time>
  <speed>3.860000</speed>
</trkpt>
<trkpt lat="32.574607849" lon="35.147197723">
  <ele>352.971191</ele>
  <time>2011-09-29T06:37:03Z</time>
  <speed>3.670000</speed>
</trkpt>
<trkpt lat="32.574607849" lon="35.147258759">
  <ele>353.338379</ele>
  <time>2011-09-29T06:37:04Z</time>
  <speed>3.800000</speed>
</trkpt>
<trkpt lat="32.574607849" lon="35.147300720">
  <ele>353.432129</ele>
  <time>2011-09-29T06:37:05Z</time>
  <speed>3.250000</speed>
</trkpt>
<trkpt lat="32.574611664" lon="35.147346497">
  <ele>353.729004</ele>
  <time>2011-09-29T06:37:06Z</time>
  <speed>3.010000</speed>
</trkpt>
<trkpt lat="32.574611664" lon="35.147392273">
  <ele>354.096191</ele>
  <time>2011-09-29T06:37:07Z</time>
  <speed>3.620000</speed>
</trkpt>
<trkpt lat="32.574611664" lon="35.147438049">
  <ele>354.455566</ele>
  <time>2011-09-29T06:37:08Z</time>
  <speed>3.520000</speed>
</trkpt>
<trkpt lat="32.574619293" lon="35.147491455">
  <ele>353.572754</ele>
  <time>2011-09-29T06:37:09Z</time>
  <speed>3.400000</speed>
</trkpt>
<trkpt lat="32.574607849" lon="35.147541046">
  <ele>354.033691</ele>
  <time>2011-09-29T06:37:10Z</time>
  <speed>2.920000</speed>
</trkpt>
<trkpt lat="32.574596405" lon="35.147583008">
  <ele>354.557129</ele>
  <time>2011-09-29T06:37:11Z</time>
  <speed>3.310000</speed>
</trkpt>
<trkpt lat="32.574569702" lon="35.147617340">
  <ele>354.479004</ele>
  <time>2011-09-29T06:37:12Z</time>
  <speed>3.770000</speed>
</trkpt>
<trkpt lat="32.574554443" lon="35.147651672">
  <ele>354.510254</ele>
  <time>2011-09-29T06:37:13Z</time>
  <speed>3.660000</speed>
</trkpt>
<trkpt lat="32.574539185" lon="35.147689819">
  <ele>355.072754</ele>
  <time>2011-09-29T06:37:14Z</time>
  <speed>3.740000</speed>
</trkpt>
<trkpt lat="32.574516296" lon="35.147727966">
  <ele>355.221191</ele>
  <time>2011-09-29T06:37:15Z</time>
  <speed>3.970000</speed>
</trkpt>
<trkpt lat="32.574493408" lon="35.147781372">
  <ele>355.510254</ele>
  <time>2011-09-29T06:37:16Z</time>
  <speed>4.520000</speed>
</trkpt>
<trkpt lat="32.574466705" lon="35.147846222">
  <ele>355.729004</ele>
  <time>2011-09-29T06:37:17Z</time>
  <speed>5.330000</speed>
</trkpt>
<trkpt lat="32.574447632" lon="35.147907257">
  <ele>355.791504</ele>
  <time>2011-09-29T06:37:18Z</time>
  <speed>5.820000</speed>
</trkpt>
<trkpt lat="32.574428558" lon="35.147964478">
  <ele>356.064941</ele>
  <time>2011-09-29T06:37:19Z</time>
  <speed>5.940000</speed>
</trkpt>
<trkpt lat="32.574409485" lon="35.148040771">
  <ele>356.393066</ele>
  <time>2011-09-29T06:37:20Z</time>
  <speed>6.520000</speed>
</trkpt>
<trkpt lat="32.574394226" lon="35.148113251">
  <ele>356.541504</ele>
  <time>2011-09-29T06:37:21Z</time>
  <speed>6.350000</speed>
</trkpt>
<trkpt lat="32.574382782" lon="35.148185730">
  <ele>355.604004</ele>
  <time>2011-09-29T06:37:22Z</time>
  <speed>6.310000</speed>
</trkpt>
<trkpt lat="32.574367523" lon="35.148265839">
  <ele>354.939941</ele>
  <time>2011-09-29T06:37:23Z</time>
  <speed>6.680000</speed>
</trkpt>
<trkpt lat="32.574356079" lon="35.148342133">
  <ele>354.682129</ele>
  <time>2011-09-29T06:37:24Z</time>
  <speed>6.510000</speed>
</trkpt>
<trkpt lat="32.574340820" lon="35.148433685">
  <ele>355.182129</ele>
  <time>2011-09-29T06:37:25Z</time>
  <speed>6.730000</speed>
</trkpt>
<trkpt lat="32.574333191" lon="35.148509979">
  <ele>354.564941</ele>
  <time>2011-09-29T06:37:26Z</time>
  <speed>6.830000</speed>
</trkpt>
<trkpt lat="32.574321747" lon="35.148586273">
  <ele>354.314941</ele>
  <time>2011-09-29T06:37:27Z</time>
  <speed>7.080000</speed>
</trkpt>
<trkpt lat="32.574310303" lon="35.148658752">
  <ele>354.025879</ele>
  <time>2011-09-29T06:37:28Z</time>
  <speed>7.120000</speed>
</trkpt>
<trkpt lat="32.574298859" lon="35.148735046">
  <ele>353.432129</ele>
  <time>2011-09-29T06:37:29Z</time>
  <speed>6.960000</speed>
</trkpt>
<trkpt lat="32.574295044" lon="35.148811340">
  <ele>353.463379</ele>
  <time>2011-09-29T06:37:30Z</time>
  <speed>7.270000</speed>
</trkpt>
<trkpt lat="32.574287415" lon="35.148895264">
  <ele>353.275879</ele>
  <time>2011-09-29T06:37:31Z</time>
  <speed>7.610000</speed>
</trkpt>
<trkpt lat="32.574283600" lon="35.148986816">
  <ele>352.619629</ele>
  <time>2011-09-29T06:37:32Z</time>
  <speed>8.380000</speed>
</trkpt>
<trkpt lat="32.574291229" lon="35.149082184">
  <ele>351.674316</ele>
  <time>2011-09-29T06:37:33Z</time>
  <speed>8.080000</speed>
</trkpt>
<trkpt lat="32.574310303" lon="35.149169922">
  <ele>350.541504</ele>
  <time>2011-09-29T06:37:34Z</time>
  <speed>7.360000</speed>
</trkpt>
<trkpt lat="32.574337006" lon="35.149238586">
  <ele>349.736816</ele>
  <time>2011-09-29T06:37:35Z</time>
  <speed>6.590000</speed>
</trkpt>
<trkpt lat="32.574363708" lon="35.149311066">
  <ele>349.135254</ele>
  <time>2011-09-29T06:37:36Z</time>
  <speed>6.550000</speed>
</trkpt>
<trkpt lat="32.574390411" lon="35.149383545">
  <ele>348.604004</ele>
  <time>2011-09-29T06:37:37Z</time>
  <speed>6.880000</speed>
</trkpt>
<trkpt lat="32.574417114" lon="35.149448395">
  <ele>348.346191</ele>
  <time>2011-09-29T06:37:38Z</time>
  <speed>6.530000</speed>
</trkpt>
<trkpt lat="32.574462891" lon="35.149501801">
  <ele>348.666504</ele>
  <time>2011-09-29T06:37:39Z</time>
  <speed>6.660000</speed>
</trkpt>
<trkpt lat="32.574504852" lon="35.149547577">
  <ele>348.939941</ele>
  <time>2011-09-29T06:37:40Z</time>
  <speed>5.450000</speed>
</trkpt>
<trkpt lat="32.574550629" lon="35.149578094">
  <ele>349.494629</ele>
  <time>2011-09-29T06:37:41Z</time>
  <speed>4.910000</speed>
</trkpt>
<trkpt lat="32.574588776" lon="35.149612427">
  <ele>349.447754</ele>
  <time>2011-09-29T06:37:42Z</time>
  <speed>5.010000</speed>
</trkpt>
<trkpt lat="32.574630737" lon="35.149639130">
  <ele>349.260254</ele>
  <time>2011-09-29T06:37:43Z</time>
  <speed>5.110000</speed>
</trkpt>
<trkpt lat="32.574676514" lon="35.149658203">
  <ele>349.322754</ele>
  <time>2011-09-29T06:37:44Z</time>
  <speed>4.830000</speed>
</trkpt>
<trkpt lat="32.574718475" lon="35.149669647">
  <ele>349.830566</ele>
  <time>2011-09-29T06:37:45Z</time>
  <speed>4.570000</speed>
</trkpt>
<trkpt lat="32.574756622" lon="35.149669647">
  <ele>349.455566</ele>
  <time>2011-09-29T06:37:46Z</time>
  <speed>4.290000</speed>
</trkpt>
<trkpt lat="32.574790955" lon="35.149669647">
  <ele>349.588379</ele>
  <time>2011-09-29T06:37:47Z</time>
  <speed>3.440000</speed>
</trkpt>
<trkpt lat="32.574829102" lon="35.149669647">
  <ele>349.604004</ele>
  <time>2011-09-29T06:37:48Z</time>
  <speed>3.680000</speed>
</trkpt>
<trkpt lat="32.574890137" lon="35.149654388">
  <ele>349.400879</ele>
  <time>2011-09-29T06:37:49Z</time>
  <speed>5.850000</speed>
</trkpt>
<trkpt lat="32.574951172" lon="35.149639130">
  <ele>349.354004</ele>
  <time>2011-09-29T06:37:50Z</time>
  <speed>6.240000</speed>
</trkpt>
<trkpt lat="32.575019836" lon="35.149627686">
  <ele>349.689941</ele>
  <time>2011-09-29T06:37:51Z</time>
  <speed>7.300000</speed>
</trkpt>
<trkpt lat="32.575096130" lon="35.149620056">
  <ele>349.744629</ele>
  <time>2011-09-29T06:37:52Z</time>
  <speed>7.740000</speed>
</trkpt>
<trkpt lat="32.575164795" lon="35.149616241">
  <ele>348.971191</ele>
  <time>2011-09-29T06:37:53Z</time>
  <speed>7.230000</speed>
</trkpt>
<trkpt lat="32.575233459" lon="35.149608612">
  <ele>348.775879</ele>
  <time>2011-09-29T06:37:54Z</time>
  <speed>7.390000</speed>
</trkpt>
<trkpt lat="32.575344086" lon="35.149581909">
  <ele>348.869629</ele>
  <time>2011-09-29T06:37:55Z</time>
  <speed>8.230000</speed>
</trkpt>
<trkpt lat="32.575447083" lon="35.149559021">
  <ele>348.471191</ele>
  <time>2011-09-29T06:37:56Z</time>
  <speed>8.480000</speed>
</trkpt>
<trkpt lat="32.575538635" lon="35.149528503">
  <ele>348.025879</ele>
  <time>2011-09-29T06:37:57Z</time>
  <speed>7.770000</speed>
</trkpt>
<trkpt lat="32.575611115" lon="35.149517059">
  <ele>347.244629</ele>
  <time>2011-09-29T06:37:58Z</time>
  <speed>7.670000</speed>
</trkpt>
<trkpt lat="32.575683594" lon="35.149509430">
  <ele>347.744629</ele>
  <time>2011-09-29T06:37:59Z</time>
  <speed>8.190000</speed>
</trkpt>
<trkpt lat="32.575763702" lon="35.149509430">
  <ele>346.611816</ele>
  <time>2011-09-29T06:38:00Z</time>
  <speed>7.850000</speed>
</trkpt>
<trkpt lat="32.575832367" lon="35.149517059">
  <ele>345.838379</ele>
  <time>2011-09-29T06:38:01Z</time>
  <speed>7.150000</speed>
</trkpt>
<trkpt lat="32.575897217" lon="35.149524689">
  <ele>345.619629</ele>
  <time>2011-09-29T06:38:02Z</time>
  <speed>6.720000</speed>
</trkpt>
<trkpt lat="32.575965881" lon="35.149536133">
  <ele>345.182129</ele>
  <time>2011-09-29T06:38:03Z</time>
  <speed>6.410000</speed>
</trkpt>
<trkpt lat="32.576034546" lon="35.149532318">
  <ele>344.713379</ele>
  <time>2011-09-29T06:38:04Z</time>
  <speed>6.920000</speed>
</trkpt>
<trkpt lat="32.576099396" lon="35.149536133">
  <ele>343.557129</ele>
  <time>2011-09-29T06:38:05Z</time>
  <speed>6.960000</speed>
</trkpt>
<trkpt lat="32.576160431" lon="35.149536133">
  <ele>343.838379</ele>
  <time>2011-09-29T06:38:06Z</time>
  <speed>6.160000</speed>
</trkpt>
<trkpt lat="32.576210022" lon="35.149536133">
  <ele>343.127441</ele>
  <time>2011-09-29T06:38:07Z</time>
  <speed>5.300000</speed>
</trkpt>
<trkpt lat="32.576274872" lon="35.149528503">
  <ele>344.135254</ele>
  <time>2011-09-29T06:38:08Z</time>
  <speed>6.370000</speed>
</trkpt>
<trkpt lat="32.576351166" lon="35.149517059">
  <ele>344.299316</ele>
  <time>2011-09-29T06:38:09Z</time>
  <speed>5.960000</speed>
</trkpt>
<trkpt lat="32.576431274" lon="35.149505615">
  <ele>343.994629</ele>
  <time>2011-09-29T06:38:10Z</time>
  <speed>6.830000</speed>
</trkpt>
<trkpt lat="32.576522827" lon="35.149486542">
  <ele>343.354004</ele>
  <time>2011-09-29T06:38:11Z</time>
  <speed>6.910000</speed>
</trkpt>
<trkpt lat="32.576583862" lon="35.149459839">
  <ele>342.627441</ele>
  <time>2011-09-29T06:38:12Z</time>
  <speed>6.770000</speed>
</trkpt>
<trkpt lat="32.576667786" lon="35.149440765">
  <ele>340.033691</ele>
  <time>2011-09-29T06:38:13Z</time>
  <speed>6.310000</speed>
</trkpt>
<trkpt lat="32.576721191" lon="35.149421692">
  <ele>340.025879</ele>
  <time>2011-09-29T06:38:14Z</time>
  <speed>5.520000</speed>
</trkpt>
<trkpt lat="32.576766968" lon="35.149394989">
  <ele>338.830566</ele>
  <time>2011-09-29T06:38:15Z</time>
  <speed>5.760000</speed>
</trkpt>
<trkpt lat="32.576816559" lon="35.149375916">
  <ele>338.549316</ele>
  <time>2011-09-29T06:38:16Z</time>
  <speed>5.810000</speed>
</trkpt>
<trkpt lat="32.576869965" lon="35.149356842">
  <ele>338.432129</ele>
  <time>2011-09-29T06:38:17Z</time>
  <speed>5.980000</speed>
</trkpt>
<trkpt lat="32.576927185" lon="35.149330139">
  <ele>337.486816</ele>
  <time>2011-09-29T06:38:18Z</time>
  <speed>5.960000</speed>
</trkpt>
<trkpt lat="32.576969147" lon="35.149314880">
  <ele>339.064941</ele>
  <time>2011-09-29T06:38:19Z</time>
  <speed>5.600000</speed>
</trkpt>
<trkpt lat="32.577022552" lon="35.149295807">
  <ele>339.705566</ele>
  <time>2011-09-29T06:38:20Z</time>
  <speed>6.450000</speed>
</trkpt>
<trkpt lat="32.577075958" lon="35.149272919">
  <ele>339.369629</ele>
  <time>2011-09-29T06:38:21Z</time>
  <speed>6.760000</speed>
</trkpt>
<trkpt lat="32.577133179" lon="35.149250031">
  <ele>339.010254</ele>
  <time>2011-09-29T06:38:22Z</time>
  <speed>6.420000</speed>
</trkpt>
<trkpt lat="32.577190399" lon="35.149215698">
  <ele>337.635254</ele>
  <time>2011-09-29T06:38:23Z</time>
  <speed>6.570000</speed>
</trkpt>
<trkpt lat="32.577259064" lon="35.149185181">
  <ele>336.604004</ele>
  <time>2011-09-29T06:38:24Z</time>
  <speed>6.740000</speed>
</trkpt>
<trkpt lat="32.577316284" lon="35.149158478">
  <ele>336.010254</ele>
  <time>2011-09-29T06:38:25Z</time>
  <speed>6.470000</speed>
</trkpt>
<trkpt lat="32.577369690" lon="35.149124146">
  <ele>336.158691</ele>
  <time>2011-09-29T06:38:26Z</time>
  <speed>6.230000</speed>
</trkpt>
<trkpt lat="32.577419281" lon="35.149089813">
  <ele>335.525879</ele>
  <time>2011-09-29T06:38:27Z</time>
  <speed>5.740000</speed>
</trkpt>
<trkpt lat="32.577465057" lon="35.149055481">
  <ele>335.018066</ele>
  <time>2011-09-29T06:38:28Z</time>
  <speed>5.410000</speed>
</trkpt>
<trkpt lat="32.577503204" lon="35.149024963">
  <ele>334.268066</ele>
  <time>2011-09-29T06:38:29Z</time>
  <speed>4.930000</speed>
</trkpt>
<trkpt lat="32.577548981" lon="35.149005890">
  <ele>334.221191</ele>
  <time>2011-09-29T06:38:30Z</time>
  <speed>5.530000</speed>
</trkpt>
<trkpt lat="32.577602386" lon="35.148990631">
  <ele>334.096191</ele>
  <time>2011-09-29T06:38:31Z</time>
  <speed>5.360000</speed>
</trkpt>
<trkpt lat="32.577648163" lon="35.148975372">
  <ele>333.697754</ele>
  <time>2011-09-29T06:38:32Z</time>
  <speed>5.410000</speed>
</trkpt>
<trkpt lat="32.577705383" lon="35.148963928">
  <ele>333.135254</ele>
  <time>2011-09-29T06:38:33Z</time>
  <speed>5.940000</speed>
</trkpt>
<trkpt lat="32.577770233" lon="35.148948669">
  <ele>332.596191</ele>
  <time>2011-09-29T06:38:34Z</time>
  <speed>7.040000</speed>
</trkpt>
<trkpt lat="32.577846527" lon="35.148929596">
  <ele>331.955566</ele>
  <time>2011-09-29T06:38:35Z</time>
  <speed>8.480000</speed>
</trkpt>
<trkpt lat="32.577926636" lon="35.148906708">
  <ele>331.143066</ele>
  <time>2011-09-29T06:38:36Z</time>
  <speed>9.000000</speed>
</trkpt>
<trkpt lat="32.578014374" lon="35.148872375">
  <ele>330.760254</ele>
  <time>2011-09-29T06:38:37Z</time>
  <speed>9.780000</speed>
</trkpt>
<trkpt lat="32.578102112" lon="35.148838043">
  <ele>330.064941</ele>
  <time>2011-09-29T06:38:38Z</time>
  <speed>9.980000</speed>
</trkpt>
<trkpt lat="32.578197479" lon="35.148803711">
  <ele>329.041504</ele>
  <time>2011-09-29T06:38:39Z</time>
  <speed>10.079999</speed>
</trkpt>
<trkpt lat="32.578289032" lon="35.148773193">
  <ele>328.580566</ele>
  <time>2011-09-29T06:38:40Z</time>
  <speed>10.270000</speed>
</trkpt>
<trkpt lat="32.578403473" lon="35.148742676">
  <ele>328.189941</ele>
  <time>2011-09-29T06:38:41Z</time>
  <speed>10.569999</speed>
</trkpt>
<trkpt lat="32.578495026" lon="35.148723602">
  <ele>327.885254</ele>
  <time>2011-09-29T06:38:42Z</time>
  <speed>10.189999</speed>
</trkpt>
<trkpt lat="32.578609467" lon="35.148704529">
  <ele>327.244629</ele>
  <time>2011-09-29T06:38:43Z</time>
  <speed>10.189999</speed>
</trkpt>
<trkpt lat="32.578704834" lon="35.148700714">
  <ele>326.408691</ele>
  <time>2011-09-29T06:38:44Z</time>
  <speed>10.470000</speed>
</trkpt>
<trkpt lat="32.578792572" lon="35.148704529">
  <ele>325.729004</ele>
  <time>2011-09-29T06:38:45Z</time>
  <speed>9.760000</speed>
</trkpt>
<trkpt lat="32.578872681" lon="35.148723602">
  <ele>324.971191</ele>
  <time>2011-09-29T06:38:46Z</time>
  <speed>9.190000</speed>
</trkpt>
<trkpt lat="32.578952789" lon="35.148742676">
  <ele>324.400879</ele>
  <time>2011-09-29T06:38:47Z</time>
  <speed>8.780000</speed>
</trkpt>
<trkpt lat="32.579044342" lon="35.148757935">
  <ele>323.877441</ele>
  <time>2011-09-29T06:38:48Z</time>
  <speed>9.660000</speed>
</trkpt>
<trkpt lat="32.579135895" lon="35.148780823">
  <ele>324.096191</ele>
  <time>2011-09-29T06:38:49Z</time>
  <speed>9.680000</speed>
</trkpt>
<trkpt lat="32.579227448" lon="35.148803711">
  <ele>324.025879</ele>
  <time>2011-09-29T06:38:50Z</time>
  <speed>10.320000</speed>
</trkpt>
<trkpt lat="32.579330444" lon="35.148822784">
  <ele>323.986816</ele>
  <time>2011-09-29T06:38:51Z</time>
  <speed>10.520000</speed>
</trkpt>
<trkpt lat="32.579433441" lon="35.148834229">
  <ele>323.783691</ele>
  <time>2011-09-29T06:38:52Z</time>
  <speed>10.560000</speed>
</trkpt>
<trkpt lat="32.579532623" lon="35.148880005">
  <ele>325.119629</ele>
  <time>2011-09-29T06:38:53Z</time>
  <speed>10.930000</speed>
</trkpt>
<trkpt lat="32.579627991" lon="35.148902893">
  <ele>325.393066</ele>
  <time>2011-09-29T06:38:54Z</time>
  <speed>10.840000</speed>
</trkpt>
<trkpt lat="32.579723358" lon="35.148906708">
  <ele>325.268066</ele>
  <time>2011-09-29T06:38:55Z</time>
  <speed>10.120000</speed>
</trkpt>
<trkpt lat="32.579788208" lon="35.148887634">
  <ele>325.494629</ele>
  <time>2011-09-29T06:38:56Z</time>
  <speed>7.900000</speed>
</trkpt>
<trkpt lat="32.579879761" lon="35.148849487">
  <ele>324.057129</ele>
  <time>2011-09-29T06:38:57Z</time>
  <speed>7.220000</speed>
</trkpt>
<trkpt lat="32.579929352" lon="35.148796082">
  <ele>323.721191</ele>
  <time>2011-09-29T06:38:58Z</time>
  <speed>4.260000</speed>
</trkpt>
<trkpt lat="32.579936981" lon="35.148757935">
  <ele>323.064941</ele>
  <time>2011-09-29T06:38:59Z</time>
  <speed>3.070000</speed>
</trkpt>
<trkpt lat="32.579940796" lon="35.148719788">
  <ele>323.846191</ele>
  <time>2011-09-29T06:39:00Z</time>
  <speed>2.690000</speed>
</trkpt>
<trkpt lat="32.579944611" lon="35.148677826">
  <ele>322.689941</ele>
  <time>2011-09-29T06:39:01Z</time>
  <speed>2.600000</speed>
</trkpt>
<trkpt lat="32.579944611" lon="35.148635864">
  <ele>322.057129</ele>
  <time>2011-09-29T06:39:02Z</time>
  <speed>2.940000</speed>
</trkpt>
<trkpt lat="32.579948425" lon="35.148571014">
  <ele>321.924316</ele>
  <time>2011-09-29T06:39:04Z</time>
  <speed>3.230000</speed>
</trkpt>
<trkpt lat="32.579959869" lon="35.148540497">
  <ele>321.361816</ele>
  <time>2011-09-29T06:39:05Z</time>
  <speed>3.000000</speed>
</trkpt>
<trkpt lat="32.579986572" lon="35.148521423">
  <ele>320.072754</ele>
  <time>2011-09-29T06:39:06Z</time>
  <speed>2.910000</speed>
</trkpt>
<trkpt lat="32.580013275" lon="35.148517609">
  <ele>317.041504</ele>
  <time>2011-09-29T06:39:07Z</time>
  <speed>2.860000</speed>
</trkpt>
<trkpt lat="32.580047607" lon="35.148517609">
  <ele>317.025879</ele>
  <time>2011-09-29T06:39:08Z</time>
  <speed>3.560000</speed>
</trkpt>
<trkpt lat="32.580081940" lon="35.148517609">
  <ele>315.822754</ele>
  <time>2011-09-29T06:39:09Z</time>
  <speed>3.850000</speed>
</trkpt>
<trkpt lat="32.580112457" lon="35.148513794">
  <ele>316.471191</ele>
  <time>2011-09-29T06:39:10Z</time>
  <speed>3.910000</speed>
</trkpt>
<trkpt lat="32.580146790" lon="35.148509979">
  <ele>316.908691</ele>
  <time>2011-09-29T06:39:11Z</time>
  <speed>3.860000</speed>
</trkpt>
<trkpt lat="32.580177307" lon="35.148506165">
  <ele>315.838379</ele>
  <time>2011-09-29T06:39:12Z</time>
  <speed>3.540000</speed>
</trkpt>
<trkpt lat="32.580215454" lon="35.148509979">
  <ele>316.041504</ele>
  <time>2011-09-29T06:39:13Z</time>
  <speed>3.630000</speed>
</trkpt>
<trkpt lat="32.580253601" lon="35.148509979">
  <ele>316.033691</ele>
  <time>2011-09-29T06:39:14Z</time>
  <speed>3.500000</speed>
</trkpt>
<trkpt lat="32.580287933" lon="35.148513794">
  <ele>314.955566</ele>
  <time>2011-09-29T06:39:15Z</time>
  <speed>3.280000</speed>
</trkpt>
<trkpt lat="32.580326080" lon="35.148529053">
  <ele>316.518066</ele>
  <time>2011-09-29T06:39:17Z</time>
  <speed>2.610000</speed>
</trkpt>
<trkpt lat="32.580364227" lon="35.148540497">
  <ele>315.104004</ele>
  <time>2011-09-29T06:39:19Z</time>
  <speed>1.890000</speed>
</trkpt>
<trkpt lat="32.580390930" lon="35.148548126">
  <ele>315.666504</ele>
  <time>2011-09-29T06:39:21Z</time>
  <speed>1.630000</speed>
</trkpt>
<trkpt lat="32.580429077" lon="35.148548126">
  <ele>314.830566</ele>
  <time>2011-09-29T06:39:23Z</time>
  <speed>2.090000</speed>
</trkpt>
<trkpt lat="32.580463409" lon="35.148555756">
  <ele>314.447754</ele>
  <time>2011-09-29T06:39:25Z</time>
  <speed>2.600000</speed>
</trkpt>
<trkpt lat="32.580513000" lon="35.148555756">
  <ele>314.377441</ele>
  <time>2011-09-29T06:39:27Z</time>
  <speed>2.550000</speed>
</trkpt>
<trkpt lat="32.580562592" lon="35.148555756">
  <ele>314.549316</ele>
  <time>2011-09-29T06:39:29Z</time>
  <speed>2.540000</speed>
</trkpt>
<trkpt lat="32.580600739" lon="35.148555756">
  <ele>315.525879</ele>
  <time>2011-09-29T06:39:31Z</time>
  <speed>2.540000</speed>
</trkpt>
<trkpt lat="32.580646515" lon="35.148551941">
  <ele>315.791504</ele>
  <time>2011-09-29T06:39:33Z</time>
  <speed>2.450000</speed>
</trkpt>
<trkpt lat="32.580677032" lon="35.148551941">
  <ele>316.627441</ele>
  <time>2011-09-29T06:39:34Z</time>
  <speed>2.510000</speed>
</trkpt>
<trkpt lat="32.580715179" lon="35.148548126">
  <ele>316.697754</ele>
  <time>2011-09-29T06:39:36Z</time>
  <speed>2.640000</speed>
</trkpt>
<trkpt lat="32.580741882" lon="35.148548126">
  <ele>317.627441</ele>
  <time>2011-09-29T06:39:37Z</time>
  <speed>2.600000</speed>
</trkpt>
<trkpt lat="32.580787659" lon="35.148551941">
  <ele>318.822754</ele>
  <time>2011-09-29T06:39:39Z</time>
  <speed>2.820000</speed>
</trkpt>
<trkpt lat="32.580833435" lon="35.148548126">
  <ele>319.096191</ele>
  <time>2011-09-29T06:39:41Z</time>
  <speed>2.400000</speed>
</trkpt>
<trkpt lat="32.580860138" lon="35.148544312">
  <ele>318.088379</ele>
  <time>2011-09-29T06:39:42Z</time>
  <speed>1.850000</speed>
</trkpt>
<trkpt lat="32.580905914" lon="35.148544312">
  <ele>317.729004</ele>
  <time>2011-09-29T06:39:44Z</time>
  <speed>2.160000</speed>
</trkpt>
<trkpt lat="32.580940247" lon="35.148536682">
  <ele>318.455566</ele>
  <time>2011-09-29T06:39:46Z</time>
  <speed>2.110000</speed>
</trkpt>
<trkpt lat="32.580986023" lon="35.148532867">
  <ele>318.588379</ele>
  <time>2011-09-29T06:39:48Z</time>
  <speed>2.410000</speed>
</trkpt>
<trkpt lat="32.581031799" lon="35.148536682">
  <ele>321.275879</ele>
  <time>2011-09-29T06:39:50Z</time>
  <speed>2.720000</speed>
</trkpt>
<trkpt lat="32.581077576" lon="35.148536682">
  <ele>320.314941</ele>
  <time>2011-09-29T06:39:52Z</time>
  <speed>1.490000</speed>
</trkpt>
<trkpt lat="32.581123352" lon="35.148532867">
  <ele>321.979004</ele>
  <time>2011-09-29T06:39:54Z</time>
  <speed>1.570000</speed>
</trkpt>
<trkpt lat="32.581153870" lon="35.148536682">
  <ele>323.533691</ele>
  <time>2011-09-29T06:39:56Z</time>
  <speed>1.330000</speed>
</trkpt>
<trkpt lat="32.581180573" lon="35.148548126">
  <ele>325.596191</ele>
  <time>2011-09-29T06:39:58Z</time>
  <speed>1.010000</speed>
</trkpt>
<trkpt lat="32.581222534" lon="35.148559570">
  <ele>326.814941</ele>
  <time>2011-09-29T06:40:01Z</time>
  <speed>1.170000</speed>
</trkpt>
<trkpt lat="32.581249237" lon="35.148555756">
  <ele>328.150879</ele>
  <time>2011-09-29T06:40:03Z</time>
  <speed>1.600000</speed>
</trkpt>
<trkpt lat="32.581275940" lon="35.148559570">
  <ele>329.400879</ele>
  <time>2011-09-29T06:40:04Z</time>
  <speed>1.430000</speed>
</trkpt>
<trkpt lat="32.581310272" lon="35.148532867">
  <ele>330.182129</ele>
  <time>2011-09-29T06:40:07Z</time>
  <speed>1.490000</speed>
</trkpt>
<trkpt lat="32.581340790" lon="35.148513794">
  <ele>332.908691</ele>
  <time>2011-09-29T06:40:09Z</time>
  <speed>2.200000</speed>
</trkpt>
<trkpt lat="32.581382751" lon="35.148502350">
  <ele>333.439941</ele>
  <time>2011-09-29T06:40:11Z</time>
  <speed>1.570000</speed>
</trkpt>
<trkpt lat="32.581420898" lon="35.148487091">
  <ele>334.322754</ele>
  <time>2011-09-29T06:40:13Z</time>
  <speed>2.290000</speed>
</trkpt>
<trkpt lat="32.581459045" lon="35.148471832">
  <ele>335.486816</ele>
  <time>2011-09-29T06:40:15Z</time>
  <speed>2.040000</speed>
</trkpt>
<trkpt lat="32.581504822" lon="35.148452759">
  <ele>335.049316</ele>
  <time>2011-09-29T06:40:17Z</time>
  <speed>2.440000</speed>
</trkpt>
<trkpt lat="32.581554413" lon="35.148460388">
  <ele>330.604004</ele>
  <time>2011-09-29T06:40:18Z</time>
  <speed>2.400000</speed>
</trkpt>
<trkpt lat="32.581600189" lon="35.148445129">
  <ele>330.588379</ele>
  <time>2011-09-29T06:40:20Z</time>
  <speed>2.810000</speed>
</trkpt>
<trkpt lat="32.581626892" lon="35.148433685">
  <ele>330.721191</ele>
  <time>2011-09-29T06:40:21Z</time>
  <speed>3.490000</speed>
</trkpt>
<trkpt lat="32.581665039" lon="35.148426056">
  <ele>331.307129</ele>
  <time>2011-09-29T06:40:22Z</time>
  <speed>4.160000</speed>
</trkpt>
<trkpt lat="32.581703186" lon="35.148406982">
  <ele>331.135254</ele>
  <time>2011-09-29T06:40:23Z</time>
  <speed>4.290000</speed>
</trkpt>
<trkpt lat="32.581752777" lon="35.148391724">
  <ele>329.518066</ele>
  <time>2011-09-29T06:40:24Z</time>
  <speed>4.800000</speed>
</trkpt>
<trkpt lat="32.581798553" lon="35.148353577">
  <ele>329.174316</ele>
  <time>2011-09-29T06:40:25Z</time>
  <speed>5.780000</speed>
</trkpt>
<trkpt lat="32.581848145" lon="35.148323059">
  <ele>329.111816</ele>
  <time>2011-09-29T06:40:26Z</time>
  <speed>5.780000</speed>
</trkpt>
<trkpt lat="32.581897736" lon="35.148296356">
  <ele>329.385254</ele>
  <time>2011-09-29T06:40:27Z</time>
  <speed>5.840000</speed>
</trkpt>
<trkpt lat="32.581947327" lon="35.148269653">
  <ele>329.018066</ele>
  <time>2011-09-29T06:40:28Z</time>
  <speed>5.470000</speed>
</trkpt>
<trkpt lat="32.581993103" lon="35.148235321">
  <ele>329.549316</ele>
  <time>2011-09-29T06:40:29Z</time>
  <speed>5.560000</speed>
</trkpt>
<trkpt lat="32.582038879" lon="35.148189545">
  <ele>328.830566</ele>
  <time>2011-09-29T06:40:30Z</time>
  <speed>6.260000</speed>
</trkpt>
<trkpt lat="32.582080841" lon="35.148128510">
  <ele>328.768066</ele>
  <time>2011-09-29T06:40:31Z</time>
  <speed>7.020000</speed>
</trkpt>
<trkpt lat="32.582122803" lon="35.148071289">
  <ele>328.924316</ele>
  <time>2011-09-29T06:40:32Z</time>
  <speed>6.560000</speed>
</trkpt>
<trkpt lat="32.582160950" lon="35.148006439">
  <ele>329.072754</ele>
  <time>2011-09-29T06:40:33Z</time>
  <speed>6.890000</speed>
</trkpt>
<trkpt lat="32.582191467" lon="35.147914886">
  <ele>327.877441</ele>
  <time>2011-09-29T06:40:34Z</time>
  <speed>7.440000</speed>
</trkpt>
<trkpt lat="32.582214355" lon="35.147815704">
  <ele>326.455566</ele>
  <time>2011-09-29T06:40:35Z</time>
  <speed>8.010000</speed>
</trkpt>
<trkpt lat="32.582241058" lon="35.147735596">
  <ele>326.580566</ele>
  <time>2011-09-29T06:40:36Z</time>
  <speed>7.910000</speed>
</trkpt>
<trkpt lat="32.582267761" lon="35.147655487">
  <ele>326.494629</ele>
  <time>2011-09-29T06:40:37Z</time>
  <speed>7.920000</speed>
</trkpt>
<trkpt lat="32.582305908" lon="35.147567749">
  <ele>326.994629</ele>
  <time>2011-09-29T06:40:38Z</time>
  <speed>7.730000</speed>
</trkpt>
<trkpt lat="32.582321167" lon="35.147464752">
  <ele>326.564941</ele>
  <time>2011-09-29T06:40:39Z</time>
  <speed>8.920000</speed>
</trkpt>
<trkpt lat="32.582366943" lon="35.147369385">
  <ele>323.236816</ele>
  <time>2011-09-29T06:40:40Z</time>
  <speed>9.520000</speed>
</trkpt>
<trkpt lat="32.582401276" lon="35.147270203">
  <ele>322.510254</ele>
  <time>2011-09-29T06:40:41Z</time>
  <speed>9.720000</speed>
</trkpt>
<trkpt lat="32.582447052" lon="35.147174835">
  <ele>321.932129</ele>
  <time>2011-09-29T06:40:42Z</time>
  <speed>9.890000</speed>
</trkpt>
<trkpt lat="32.582500458" lon="35.147071838">
  <ele>321.010254</ele>
  <time>2011-09-29T06:40:43Z</time>
  <speed>9.670000</speed>
</trkpt>
<trkpt lat="32.582580566" lon="35.147010803">
  <ele>318.221191</ele>
  <time>2011-09-29T06:40:44Z</time>
  <speed>9.810001</speed>
</trkpt>
<trkpt lat="32.582653046" lon="35.146949768">
  <ele>317.354004</ele>
  <time>2011-09-29T06:40:45Z</time>
  <speed>10.090000</speed>
</trkpt>
<trkpt lat="32.582729340" lon="35.146881104">
  <ele>315.455566</ele>
  <time>2011-09-29T06:40:46Z</time>
  <speed>9.850000</speed>
</trkpt>
<trkpt lat="32.582801819" lon="35.146808624">
  <ele>314.275879</ele>
  <time>2011-09-29T06:40:47Z</time>
  <speed>9.280000</speed>
</trkpt>
<trkpt lat="32.582866669" lon="35.146743774">
  <ele>313.682129</ele>
  <time>2011-09-29T06:40:48Z</time>
  <speed>8.770000</speed>
</trkpt>
<trkpt lat="32.582927704" lon="35.146690369">
  <ele>312.424316</ele>
  <time>2011-09-29T06:40:49Z</time>
  <speed>7.490000</speed>
</trkpt>
<trkpt lat="32.582981110" lon="35.146652222">
  <ele>309.900879</ele>
  <time>2011-09-29T06:40:50Z</time>
  <speed>5.970000</speed>
</trkpt>
<trkpt lat="32.583019257" lon="35.146614075">
  <ele>309.314941</ele>
  <time>2011-09-29T06:40:51Z</time>
  <speed>4.830000</speed>
</trkpt>
<trkpt lat="32.583053589" lon="35.146583557">
  <ele>307.814941</ele>
  <time>2011-09-29T06:40:52Z</time>
  <speed>3.800000</speed>
</trkpt>
<trkpt lat="32.583080292" lon="35.146553040">
  <ele>307.033691</ele>
  <time>2011-09-29T06:40:53Z</time>
  <speed>3.250000</speed>
</trkpt>
<trkpt lat="32.583106995" lon="35.146514893">
  <ele>304.955566</ele>
  <time>2011-09-29T06:40:55Z</time>
  <speed>2.590000</speed>
</trkpt>
<trkpt lat="32.583137512" lon="35.146484375">
  <ele>303.510254</ele>
  <time>2011-09-29T06:40:57Z</time>
  <speed>3.120000</speed>
</trkpt>
<trkpt lat="32.583164215" lon="35.146465302">
  <ele>303.564941</ele>
  <time>2011-09-29T06:40:58Z</time>
  <speed>3.640000</speed>
</trkpt>
<trkpt lat="32.583190918" lon="35.146438599">
  <ele>303.385254</ele>
  <time>2011-09-29T06:40:59Z</time>
  <speed>4.570000</speed>
</trkpt>
<trkpt lat="32.583213806" lon="35.146392822">
  <ele>302.432129</ele>
  <time>2011-09-29T06:41:00Z</time>
  <speed>4.410000</speed>
</trkpt>
<trkpt lat="32.583236694" lon="35.146339417">
  <ele>300.963379</ele>
  <time>2011-09-29T06:41:01Z</time>
  <speed>4.900000</speed>
</trkpt>
<trkpt lat="32.583255768" lon="35.146286011">
  <ele>300.447754</ele>
  <time>2011-09-29T06:41:02Z</time>
  <speed>5.480000</speed>
</trkpt>
<trkpt lat="32.583274841" lon="35.146232605">
  <ele>299.861816</ele>
  <time>2011-09-29T06:41:03Z</time>
  <speed>5.610000</speed>
</trkpt>
<trkpt lat="32.583293915" lon="35.146175385">
  <ele>299.205566</ele>
  <time>2011-09-29T06:41:04Z</time>
  <speed>5.420000</speed>
</trkpt>
<trkpt lat="32.583312988" lon="35.146125793">
  <ele>298.307129</ele>
  <time>2011-09-29T06:41:05Z</time>
  <speed>4.900000</speed>
</trkpt>
<trkpt lat="32.583332062" lon="35.146080017">
  <ele>297.643066</ele>
  <time>2011-09-29T06:41:06Z</time>
  <speed>4.910000</speed>
</trkpt>
<trkpt lat="32.583358765" lon="35.146034241">
  <ele>297.096191</ele>
  <time>2011-09-29T06:41:07Z</time>
  <speed>5.320000</speed>
</trkpt>
<trkpt lat="32.583393097" lon="35.145988464">
  <ele>296.518066</ele>
  <time>2011-09-29T06:41:08Z</time>
  <speed>5.450000</speed>
</trkpt>
<trkpt lat="32.583419800" lon="35.145915985">
  <ele>296.049316</ele>
  <time>2011-09-29T06:41:09Z</time>
  <speed>6.470000</speed>
</trkpt>
<trkpt lat="32.583442688" lon="35.145828247">
  <ele>294.580566</ele>
  <time>2011-09-29T06:41:10Z</time>
  <speed>6.950000</speed>
</trkpt>
<trkpt lat="32.583457947" lon="35.145763397">
  <ele>293.596191</ele>
  <time>2011-09-29T06:41:11Z</time>
  <speed>6.290000</speed>
</trkpt>
<trkpt lat="32.583473206" lon="35.145683289">
  <ele>292.307129</ele>
  <time>2011-09-29T06:41:12Z</time>
  <speed>6.240000</speed>
</trkpt>
<trkpt lat="32.583526611" lon="35.145606995">
  <ele>290.088379</ele>
  <time>2011-09-29T06:41:13Z</time>
  <speed>7.590000</speed>
</trkpt>
<trkpt lat="32.583572388" lon="35.145523071">
  <ele>287.619629</ele>
  <time>2011-09-29T06:41:14Z</time>
  <speed>7.240000</speed>
</trkpt>
<trkpt lat="32.583610535" lon="35.145431519">
  <ele>286.189941</ele>
  <time>2011-09-29T06:41:15Z</time>
  <speed>7.400000</speed>
</trkpt>
<trkpt lat="32.583641052" lon="35.145351410">
  <ele>283.689941</ele>
  <time>2011-09-29T06:41:16Z</time>
  <speed>7.430000</speed>
</trkpt>
<trkpt lat="32.583671570" lon="35.145282745">
  <ele>282.143066</ele>
  <time>2011-09-29T06:41:17Z</time>
  <speed>5.660000</speed>
</trkpt>
<trkpt lat="32.583690643" lon="35.145229340">
  <ele>280.877441</ele>
  <time>2011-09-29T06:41:18Z</time>
  <speed>4.610000</speed>
</trkpt>
<trkpt lat="32.583705902" lon="35.145183563">
  <ele>279.588379</ele>
  <time>2011-09-29T06:41:19Z</time>
  <speed>3.250000</speed>
</trkpt>
<trkpt lat="32.583732605" lon="35.145198822">
  <ele>276.080566</ele>
  <time>2011-09-29T06:41:20Z</time>
  <speed>2.580000</speed>
</trkpt>
<trkpt lat="32.583751678" lon="35.145217896">
  <ele>274.572754</ele>
  <time>2011-09-29T06:41:21Z</time>
  <speed>2.720000</speed>
</trkpt>
<trkpt lat="32.583789825" lon="35.145259857">
  <ele>272.189941</ele>
  <time>2011-09-29T06:41:23Z</time>
  <speed>2.800000</speed>
</trkpt>
<trkpt lat="32.583808899" lon="35.145278931">
  <ele>270.955566</ele>
  <time>2011-09-29T06:41:24Z</time>
  <speed>3.010000</speed>
</trkpt>
<trkpt lat="32.583824158" lon="35.145313263">
  <ele>269.900879</ele>
  <time>2011-09-29T06:41:25Z</time>
  <speed>3.380000</speed>
</trkpt>
<trkpt lat="32.583843231" lon="35.145347595">
  <ele>269.166504</ele>
  <time>2011-09-29T06:41:26Z</time>
  <speed>3.530000</speed>
</trkpt>
<trkpt lat="32.583866119" lon="35.145385742">
  <ele>269.385254</ele>
  <time>2011-09-29T06:41:27Z</time>
  <speed>3.540000</speed>
</trkpt>
<trkpt lat="32.583881378" lon="35.145416260">
  <ele>268.869629</ele>
  <time>2011-09-29T06:41:28Z</time>
  <speed>2.820000</speed>
</trkpt>
<trkpt lat="32.583900452" lon="35.145446777">
  <ele>268.432129</ele>
  <time>2011-09-29T06:41:29Z</time>
  <speed>3.060000</speed>
</trkpt>
<trkpt lat="32.583915710" lon="35.145477295">
  <ele>267.533691</ele>
  <time>2011-09-29T06:41:30Z</time>
  <speed>3.280000</speed>
</trkpt>
<trkpt lat="32.583923340" lon="35.145519257">
  <ele>266.752441</ele>
  <time>2011-09-29T06:41:31Z</time>
  <speed>3.680000</speed>
</trkpt>
<trkpt lat="32.583942413" lon="35.145557404">
  <ele>266.143066</ele>
  <time>2011-09-29T06:41:32Z</time>
  <speed>3.680000</speed>
</trkpt>
<trkpt lat="32.583957672" lon="35.145595551">
  <ele>265.721191</ele>
  <time>2011-09-29T06:41:33Z</time>
  <speed>3.750000</speed>
</trkpt>
<trkpt lat="32.583976746" lon="35.145633698">
  <ele>265.533691</ele>
  <time>2011-09-29T06:41:34Z</time>
  <speed>4.020000</speed>
</trkpt>
<trkpt lat="32.583995819" lon="35.145668030">
  <ele>265.518066</ele>
  <time>2011-09-29T06:41:35Z</time>
  <speed>4.070000</speed>
</trkpt>
<trkpt lat="32.584003448" lon="35.145721436">
  <ele>265.244629</ele>
  <time>2011-09-29T06:41:36Z</time>
  <speed>4.650000</speed>
</trkpt>
<trkpt lat="32.584014893" lon="35.145774841">
  <ele>264.924316</ele>
  <time>2011-09-29T06:41:37Z</time>
  <speed>4.340000</speed>
</trkpt>
<trkpt lat="32.584018707" lon="35.145824432">
  <ele>264.424316</ele>
  <time>2011-09-29T06:41:38Z</time>
  <speed>4.130000</speed>
</trkpt>
<trkpt lat="32.584018707" lon="35.145874023">
  <ele>263.979004</ele>
  <time>2011-09-29T06:41:39Z</time>
  <speed>3.920000</speed>
</trkpt>
<trkpt lat="32.584022522" lon="35.145923615">
  <ele>263.893066</ele>
  <time>2011-09-29T06:41:40Z</time>
  <speed>4.400000</speed>
</trkpt>
<trkpt lat="32.584037781" lon="35.145961761">
  <ele>263.111816</ele>
  <time>2011-09-29T06:41:41Z</time>
  <speed>3.660000</speed>
</trkpt>
<trkpt lat="32.584064484" lon="35.145984650">
  <ele>262.393066</ele>
  <time>2011-09-29T06:41:42Z</time>
  <speed>3.540000</speed>
</trkpt>
<trkpt lat="32.584095001" lon="35.145984650">
  <ele>262.143066</ele>
  <time>2011-09-29T06:41:43Z</time>
  <speed>3.350000</speed>
</trkpt>
<trkpt lat="32.584133148" lon="35.145969391">
  <ele>261.205566</ele>
  <time>2011-09-29T06:41:44Z</time>
  <speed>3.210000</speed>
</trkpt>
<trkpt lat="32.584167480" lon="35.145946503">
  <ele>260.721191</ele>
  <time>2011-09-29T06:41:45Z</time>
  <speed>5.010000</speed>
</trkpt>
<trkpt lat="32.584209442" lon="35.145912170">
  <ele>260.119629</ele>
  <time>2011-09-29T06:41:46Z</time>
  <speed>6.650000</speed>
</trkpt>
<trkpt lat="32.584259033" lon="35.145866394">
  <ele>258.729004</ele>
  <time>2011-09-29T06:41:47Z</time>
  <speed>7.220000</speed>
</trkpt>
<trkpt lat="32.584312439" lon="35.145820618">
  <ele>257.619629</ele>
  <time>2011-09-29T06:41:48Z</time>
  <speed>7.330000</speed>
</trkpt>
<trkpt lat="32.584369659" lon="35.145774841">
  <ele>256.900879</ele>
  <time>2011-09-29T06:41:49Z</time>
  <speed>7.650000</speed>
</trkpt>
<trkpt lat="32.584426880" lon="35.145729065">
  <ele>256.119629</ele>
  <time>2011-09-29T06:41:50Z</time>
  <speed>7.820000</speed>
</trkpt>
<trkpt lat="32.584484100" lon="35.145687103">
  <ele>255.329346</ele>
  <time>2011-09-29T06:41:51Z</time>
  <speed>6.950000</speed>
</trkpt>
<trkpt lat="32.584541321" lon="35.145633698">
  <ele>254.173096</ele>
  <time>2011-09-29T06:41:52Z</time>
  <speed>7.760000</speed>
</trkpt>
<trkpt lat="32.584590912" lon="35.145584106">
  <ele>253.969971</ele>
  <time>2011-09-29T06:41:53Z</time>
  <speed>7.720000</speed>
</trkpt>
<trkpt lat="32.584644318" lon="35.145530701">
  <ele>252.825439</ele>
  <time>2011-09-29T06:41:54Z</time>
  <speed>7.290000</speed>
</trkpt>
<trkpt lat="32.584690094" lon="35.145469666">
  <ele>251.751221</ele>
  <time>2011-09-29T06:41:55Z</time>
  <speed>7.630000</speed>
</trkpt>
<trkpt lat="32.584735870" lon="35.145397186">
  <ele>252.094971</ele>
  <time>2011-09-29T06:41:56Z</time>
  <speed>7.900000</speed>
</trkpt>
<trkpt lat="32.584785461" lon="35.145339966">
  <ele>251.469971</ele>
  <time>2011-09-29T06:41:57Z</time>
  <speed>7.120000</speed>
</trkpt>
<trkpt lat="32.584831238" lon="35.145286560">
  <ele>250.411377</ele>
  <time>2011-09-29T06:41:58Z</time>
  <speed>7.120000</speed>
</trkpt>
<trkpt lat="32.584896088" lon="35.145252228">
  <ele>249.223877</ele>
  <time>2011-09-29T06:41:59Z</time>
  <speed>8.170000</speed>
</trkpt>
<trkpt lat="32.584972382" lon="35.145221710">
  <ele>247.813721</ele>
  <time>2011-09-29T06:42:00Z</time>
  <speed>8.910000</speed>
</trkpt>
<trkpt lat="32.585048676" lon="35.145198822">
  <ele>246.567627</ele>
  <time>2011-09-29T06:42:01Z</time>
  <speed>8.310000</speed>
</trkpt>
<trkpt lat="32.585124969" lon="35.145179749">
  <ele>246.169189</ele>
  <time>2011-09-29T06:42:02Z</time>
  <speed>8.760000</speed>
</trkpt>
<trkpt lat="32.585197449" lon="35.145195007">
  <ele>243.567627</ele>
  <time>2011-09-29T06:42:03Z</time>
  <speed>7.790000</speed>
</trkpt>
<trkpt lat="32.585250854" lon="35.145229340">
  <ele>244.290283</ele>
  <time>2011-09-29T06:42:04Z</time>
  <speed>7.400000</speed>
</trkpt>
<trkpt lat="32.585311890" lon="35.145267487">
  <ele>243.712158</ele>
  <time>2011-09-29T06:42:05Z</time>
  <speed>7.340000</speed>
</trkpt>
<trkpt lat="32.585376740" lon="35.145309448">
  <ele>242.403564</ele>
  <time>2011-09-29T06:42:06Z</time>
  <speed>7.880000</speed>
</trkpt>
<trkpt lat="32.585445404" lon="35.145355225">
  <ele>241.438721</ele>
  <time>2011-09-29T06:42:07Z</time>
  <speed>8.010000</speed>
</trkpt>
<trkpt lat="32.585514069" lon="35.145389557">
  <ele>240.930908</ele>
  <time>2011-09-29T06:42:08Z</time>
  <speed>8.300000</speed>
</trkpt>
<trkpt lat="32.585594177" lon="35.145427704">
  <ele>239.723877</ele>
  <time>2011-09-29T06:42:09Z</time>
  <speed>8.420000</speed>
</trkpt>
<trkpt lat="32.585674286" lon="35.145462036">
  <ele>238.497314</ele>
  <time>2011-09-29T06:42:10Z</time>
  <speed>8.490000</speed>
</trkpt>
<trkpt lat="32.585742950" lon="35.145477295">
  <ele>238.192627</ele>
  <time>2011-09-29T06:42:11Z</time>
  <speed>7.140000</speed>
</trkpt>
<trkpt lat="32.585800171" lon="35.145477295">
  <ele>237.020752</ele>
  <time>2011-09-29T06:42:12Z</time>
  <speed>6.730000</speed>
</trkpt>
<trkpt lat="32.585861206" lon="35.145462036">
  <ele>235.212158</ele>
  <time>2011-09-29T06:42:13Z</time>
  <speed>5.820000</speed>
</trkpt>
<trkpt lat="32.585903168" lon="35.145439148">
  <ele>234.735596</ele>
  <time>2011-09-29T06:42:14Z</time>
  <speed>5.020000</speed>
</trkpt>
<trkpt lat="32.585945129" lon="35.145401001">
  <ele>233.997314</ele>
  <time>2011-09-29T06:42:15Z</time>
  <speed>5.820000</speed>
</trkpt>
<trkpt lat="32.585983276" lon="35.145355225">
  <ele>232.884033</ele>
  <time>2011-09-29T06:42:16Z</time>
  <speed>5.910000</speed>
</trkpt>
<trkpt lat="32.586025238" lon="35.145305634">
  <ele>231.157471</ele>
  <time>2011-09-29T06:42:17Z</time>
  <speed>6.370000</speed>
</trkpt>
<trkpt lat="32.586078644" lon="35.145259857">
  <ele>229.973877</ele>
  <time>2011-09-29T06:42:18Z</time>
  <speed>7.130000</speed>
</trkpt>
<trkpt lat="32.586147308" lon="35.145252228">
  <ele>229.083252</ele>
  <time>2011-09-29T06:42:19Z</time>
  <speed>8.530000</speed>
</trkpt>
<trkpt lat="32.586223602" lon="35.145263672">
  <ele>228.145752</ele>
  <time>2011-09-29T06:42:20Z</time>
  <speed>8.820000</speed>
</trkpt>
<trkpt lat="32.586296082" lon="35.145286560">
  <ele>227.302002</ele>
  <time>2011-09-29T06:42:21Z</time>
  <speed>8.090000</speed>
</trkpt>
<trkpt lat="32.586349487" lon="35.145324707">
  <ele>226.376221</ele>
  <time>2011-09-29T06:42:22Z</time>
  <speed>6.420000</speed>
</trkpt>
<trkpt lat="32.586387634" lon="35.145370483">
  <ele>225.716064</ele>
  <time>2011-09-29T06:42:23Z</time>
  <speed>5.450000</speed>
</trkpt>
<trkpt lat="32.586402893" lon="35.145416260">
  <ele>224.927002</ele>
  <time>2011-09-29T06:42:24Z</time>
  <speed>4.410000</speed>
</trkpt>
<trkpt lat="32.586402893" lon="35.145458221">
  <ele>224.462158</ele>
  <time>2011-09-29T06:42:25Z</time>
  <speed>3.760000</speed>
</trkpt>
<trkpt lat="32.586395264" lon="35.145492554">
  <ele>223.821533</ele>
  <time>2011-09-29T06:42:26Z</time>
  <speed>3.070000</speed>
</trkpt>
<trkpt lat="32.586383820" lon="35.145545959">
  <ele>222.915283</ele>
  <time>2011-09-29T06:42:28Z</time>
  <speed>2.220000</speed>
</trkpt>
<trkpt lat="32.586376190" lon="35.145587921">
  <ele>222.106689</ele>
  <time>2011-09-29T06:42:30Z</time>
  <speed>1.560000</speed>
</trkpt>
<trkpt lat="32.586349487" lon="35.145641327">
  <ele>222.848877</ele>
  <time>2011-09-29T06:42:32Z</time>
  <speed>2.410000</speed>
</trkpt>
<trkpt lat="32.586341858" lon="35.145675659">
  <ele>222.520752</ele>
  <time>2011-09-29T06:42:33Z</time>
  <speed>3.210000</speed>
</trkpt>
<trkpt lat="32.586338043" lon="35.145721436">
  <ele>222.290283</ele>
  <time>2011-09-29T06:42:34Z</time>
  <speed>3.560000</speed>
</trkpt>
<trkpt lat="32.586330414" lon="35.145759583">
  <ele>222.712158</ele>
  <time>2011-09-29T06:42:35Z</time>
  <speed>3.690000</speed>
</trkpt>
<trkpt lat="32.586322784" lon="35.145801544">
  <ele>222.927002</ele>
  <time>2011-09-29T06:42:36Z</time>
  <speed>3.980000</speed>
</trkpt>
<trkpt lat="32.586315155" lon="35.145843506">
  <ele>222.837158</ele>
  <time>2011-09-29T06:42:37Z</time>
  <speed>4.170000</speed>
</trkpt>
<trkpt lat="32.586318970" lon="35.145889282">
  <ele>222.438721</ele>
  <time>2011-09-29T06:42:38Z</time>
  <speed>4.160000</speed>
</trkpt>
<trkpt lat="32.586334229" lon="35.145942688">
  <ele>221.680908</ele>
  <time>2011-09-29T06:42:39Z</time>
  <speed>4.640000</speed>
</trkpt>
<trkpt lat="32.586360931" lon="35.145988464">
  <ele>221.243408</ele>
  <time>2011-09-29T06:42:40Z</time>
  <speed>5.280000</speed>
</trkpt>
<trkpt lat="32.586410522" lon="35.146011353">
  <ele>220.903564</ele>
  <time>2011-09-29T06:42:41Z</time>
  <speed>5.310000</speed>
</trkpt>
<trkpt lat="32.586456299" lon="35.146011353">
  <ele>220.200439</ele>
  <time>2011-09-29T06:42:42Z</time>
  <speed>4.650000</speed>
</trkpt>
<trkpt lat="32.586502075" lon="35.145999908">
  <ele>219.571533</ele>
  <time>2011-09-29T06:42:43Z</time>
  <speed>4.800000</speed>
</trkpt>
<trkpt lat="32.586551666" lon="35.145988464">
  <ele>219.294189</ele>
  <time>2011-09-29T06:42:44Z</time>
  <speed>5.160000</speed>
</trkpt>
<trkpt lat="32.586593628" lon="35.145961761">
  <ele>218.751221</ele>
  <time>2011-09-29T06:42:45Z</time>
  <speed>4.770000</speed>
</trkpt>
<trkpt lat="32.586635590" lon="35.145931244">
  <ele>218.153564</ele>
  <time>2011-09-29T06:42:46Z</time>
  <speed>4.520000</speed>
</trkpt>
<trkpt lat="32.586669922" lon="35.145900726">
  <ele>217.841064</ele>
  <time>2011-09-29T06:42:47Z</time>
  <speed>4.200000</speed>
</trkpt>
<trkpt lat="32.586692810" lon="35.145870209">
  <ele>217.442627</ele>
  <time>2011-09-29T06:42:48Z</time>
  <speed>2.990000</speed>
</trkpt>
<trkpt lat="32.586708069" lon="35.145843506">
  <ele>217.137939</ele>
  <time>2011-09-29T06:42:49Z</time>
  <speed>2.930000</speed>
</trkpt>
<trkpt lat="32.586734772" lon="35.145801544">
  <ele>216.462158</ele>
  <time>2011-09-29T06:42:50Z</time>
  <speed>3.990000</speed>
</trkpt>
<trkpt lat="32.586753845" lon="35.145755768">
  <ele>215.344971</ele>
  <time>2011-09-29T06:42:51Z</time>
  <speed>4.210000</speed>
</trkpt>
<trkpt lat="32.586776733" lon="35.145706177">
  <ele>215.958252</ele>
  <time>2011-09-29T06:42:52Z</time>
  <speed>4.370000</speed>
</trkpt>
<trkpt lat="32.586803436" lon="35.145664215">
  <ele>216.278564</ele>
  <time>2011-09-29T06:42:53Z</time>
  <speed>4.620000</speed>
</trkpt>
<trkpt lat="32.586826324" lon="35.145626068">
  <ele>215.790283</ele>
  <time>2011-09-29T06:42:54Z</time>
  <speed>4.490000</speed>
</trkpt>
<trkpt lat="32.586853027" lon="35.145584106">
  <ele>215.134033</ele>
  <time>2011-09-29T06:42:55Z</time>
  <speed>4.910000</speed>
</trkpt>
<trkpt lat="32.586875916" lon="35.145534515">
  <ele>214.403564</ele>
  <time>2011-09-29T06:42:56Z</time>
  <speed>5.030000</speed>
</trkpt>
<trkpt lat="32.586891174" lon="35.145481110">
  <ele>213.438721</ele>
  <time>2011-09-29T06:42:57Z</time>
  <speed>5.130000</speed>
</trkpt>
<trkpt lat="32.586902618" lon="35.145423889">
  <ele>212.688721</ele>
  <time>2011-09-29T06:42:58Z</time>
  <speed>5.410000</speed>
</trkpt>
<trkpt lat="32.586914063" lon="35.145359039">
  <ele>212.462158</ele>
  <time>2011-09-29T06:42:59Z</time>
  <speed>5.910000</speed>
</trkpt>
<trkpt lat="32.586936951" lon="35.145298004">
  <ele>211.212158</ele>
  <time>2011-09-29T06:43:00Z</time>
  <speed>5.890000</speed>
</trkpt>
<trkpt lat="32.586952209" lon="35.145236969">
  <ele>210.501221</ele>
  <time>2011-09-29T06:43:01Z</time>
  <speed>5.740000</speed>
</trkpt>
<trkpt lat="32.586967468" lon="35.145183563">
  <ele>209.387939</ele>
  <time>2011-09-29T06:43:02Z</time>
  <speed>4.790000</speed>
</trkpt>
<trkpt lat="32.586971283" lon="35.145137787">
  <ele>208.602783</ele>
  <time>2011-09-29T06:43:03Z</time>
  <speed>4.200000</speed>
</trkpt>
<trkpt lat="32.586967468" lon="35.145095825">
  <ele>207.825439</ele>
  <time>2011-09-29T06:43:04Z</time>
  <speed>3.960000</speed>
</trkpt>
<trkpt lat="32.586940765" lon="35.145061493">
  <ele>207.106689</ele>
  <time>2011-09-29T06:43:05Z</time>
  <speed>4.360000</speed>
</trkpt>
<trkpt lat="32.586902618" lon="35.145015717">
  <ele>206.239502</ele>
  <time>2011-09-29T06:43:06Z</time>
  <speed>3.910000</speed>
</trkpt>
<trkpt lat="32.586853027" lon="35.144981384">
  <ele>205.442627</ele>
  <time>2011-09-29T06:43:07Z</time>
  <speed>4.080000</speed>
</trkpt>
<trkpt lat="32.586822510" lon="35.144969940">
  <ele>204.887939</ele>
  <time>2011-09-29T06:43:08Z</time>
  <speed>3.970000</speed>
</trkpt>
<trkpt lat="32.586784363" lon="35.144962311">
  <ele>204.149658</ele>
  <time>2011-09-29T06:43:09Z</time>
  <speed>3.990000</speed>
</trkpt>
<trkpt lat="32.586750031" lon="35.144950867">
  <ele>203.430908</ele>
  <time>2011-09-29T06:43:10Z</time>
  <speed>3.880000</speed>
</trkpt>
<trkpt lat="32.586723328" lon="35.144939423">
  <ele>202.501221</ele>
  <time>2011-09-29T06:43:11Z</time>
  <speed>2.980000</speed>
</trkpt>
<trkpt lat="32.586692810" lon="35.144920349">
  <ele>201.825439</ele>
  <time>2011-09-29T06:43:12Z</time>
  <speed>2.780000</speed>
</trkpt>
<trkpt lat="32.586647034" lon="35.144893646">
  <ele>200.274658</ele>
  <time>2011-09-29T06:43:14Z</time>
  <speed>2.970000</speed>
</trkpt>
<trkpt lat="32.586620331" lon="35.144878387">
  <ele>199.723877</ele>
  <time>2011-09-29T06:43:15Z</time>
  <speed>3.260000</speed>
</trkpt>
<trkpt lat="32.586593628" lon="35.144866943">
  <ele>199.192627</ele>
  <time>2011-09-29T06:43:16Z</time>
  <speed>2.900000</speed>
</trkpt>
<trkpt lat="32.586551666" lon="35.144855499">
  <ele>197.325439</ele>
  <time>2011-09-29T06:43:18Z</time>
  <speed>2.390000</speed>
</trkpt>
<trkpt lat="32.586509705" lon="35.144836426">
  <ele>196.153564</ele>
  <time>2011-09-29T06:43:20Z</time>
  <speed>2.610000</speed>
</trkpt>
<trkpt lat="32.586471558" lon="35.144828796">
  <ele>196.259033</ele>
  <time>2011-09-29T06:43:22Z</time>
  <speed>2.390000</speed>
</trkpt>
<trkpt lat="32.586429596" lon="35.144817352">
  <ele>195.610596</ele>
  <time>2011-09-29T06:43:24Z</time>
  <speed>2.460000</speed>
</trkpt>
<trkpt lat="32.586387634" lon="35.144798279">
  <ele>195.966064</ele>
  <time>2011-09-29T06:43:26Z</time>
  <speed>2.040000</speed>
</trkpt>
<trkpt lat="32.586353302" lon="35.144786835">
  <ele>195.454346</ele>
  <time>2011-09-29T06:43:28Z</time>
  <speed>1.760000</speed>
</trkpt>
<trkpt lat="32.586307526" lon="35.144767761">
  <ele>195.165283</ele>
  <time>2011-09-29T06:43:30Z</time>
  <speed>2.960000</speed>
</trkpt>
<trkpt lat="32.586280823" lon="35.144748688">
  <ele>195.587158</ele>
  <time>2011-09-29T06:43:31Z</time>
  <speed>3.390000</speed>
</trkpt>
<trkpt lat="32.586246490" lon="35.144725800">
  <ele>196.028564</ele>
  <time>2011-09-29T06:43:32Z</time>
  <speed>3.530000</speed>
</trkpt>
<trkpt lat="32.586215973" lon="35.144710541">
  <ele>195.880127</ele>
  <time>2011-09-29T06:43:33Z</time>
  <speed>3.450000</speed>
</trkpt>
<trkpt lat="32.586189270" lon="35.144691467">
  <ele>196.348877</ele>
  <time>2011-09-29T06:43:34Z</time>
  <speed>3.350000</speed>
</trkpt>
<trkpt lat="32.586154938" lon="35.144676208">
  <ele>197.477783</ele>
  <time>2011-09-29T06:43:35Z</time>
  <speed>3.700000</speed>
</trkpt>
<trkpt lat="32.586112976" lon="35.144672394">
  <ele>198.110596</ele>
  <time>2011-09-29T06:43:36Z</time>
  <speed>3.660000</speed>
</trkpt>
<trkpt lat="32.586082458" lon="35.144653320">
  <ele>198.442627</ele>
  <time>2011-09-29T06:43:37Z</time>
  <speed>3.510000</speed>
</trkpt>
<trkpt lat="32.586048126" lon="35.144641876">
  <ele>198.739502</ele>
  <time>2011-09-29T06:43:38Z</time>
  <speed>3.510000</speed>
</trkpt>
<trkpt lat="32.586017609" lon="35.144630432">
  <ele>198.891846</ele>
  <time>2011-09-29T06:43:39Z</time>
  <speed>3.430000</speed>
</trkpt>
<trkpt lat="32.585990906" lon="35.144615173">
  <ele>198.790283</ele>
  <time>2011-09-29T06:43:40Z</time>
  <speed>3.190000</speed>
</trkpt>
<trkpt lat="32.585960388" lon="35.144607544">
  <ele>199.083252</ele>
  <time>2011-09-29T06:43:41Z</time>
  <speed>2.780000</speed>
</trkpt>
<trkpt lat="32.585926056" lon="35.144588470">
  <ele>199.196533</ele>
  <time>2011-09-29T06:43:42Z</time>
  <speed>3.130000</speed>
</trkpt>
<trkpt lat="32.585899353" lon="35.144577026">
  <ele>199.462158</ele>
  <time>2011-09-29T06:43:43Z</time>
  <speed>3.140000</speed>
</trkpt>
<trkpt lat="32.585845947" lon="35.144565582">
  <ele>200.395752</ele>
  <time>2011-09-29T06:43:45Z</time>
  <speed>3.360000</speed>
</trkpt>
<trkpt lat="32.585815430" lon="35.144546509">
  <ele>200.770752</ele>
  <time>2011-09-29T06:43:46Z</time>
  <speed>3.370000</speed>
</trkpt>
<trkpt lat="32.585788727" lon="35.144527435">
  <ele>200.759033</ele>
  <time>2011-09-29T06:43:47Z</time>
  <speed>3.010000</speed>
</trkpt>
<trkpt lat="32.585765839" lon="35.144508362">
  <ele>200.368408</ele>
  <time>2011-09-29T06:43:48Z</time>
  <speed>2.980000</speed>
</trkpt>
<trkpt lat="32.585723877" lon="35.144481659">
  <ele>200.044189</ele>
  <time>2011-09-29T06:43:50Z</time>
  <speed>3.110000</speed>
</trkpt>
<trkpt lat="32.585693359" lon="35.144462585">
  <ele>200.149658</ele>
  <time>2011-09-29T06:43:51Z</time>
  <speed>3.200000</speed>
</trkpt>
<trkpt lat="32.585659027" lon="35.144451141">
  <ele>200.919189</ele>
  <time>2011-09-29T06:43:52Z</time>
  <speed>3.450000</speed>
</trkpt>
<trkpt lat="32.585636139" lon="35.144432068">
  <ele>201.180908</ele>
  <time>2011-09-29T06:43:53Z</time>
  <speed>3.000000</speed>
</trkpt>
<trkpt lat="32.585609436" lon="35.144412994">
  <ele>200.841064</ele>
  <time>2011-09-29T06:43:54Z</time>
  <speed>3.140000</speed>
</trkpt>
<trkpt lat="32.585582733" lon="35.144393921">
  <ele>201.216064</ele>
  <time>2011-09-29T06:43:55Z</time>
  <speed>3.210000</speed>
</trkpt>
<trkpt lat="32.585556030" lon="35.144378662">
  <ele>201.212158</ele>
  <time>2011-09-29T06:43:56Z</time>
  <speed>3.420000</speed>
</trkpt>
<trkpt lat="32.585525513" lon="35.144371033">
  <ele>201.200439</ele>
  <time>2011-09-29T06:43:57Z</time>
  <speed>3.380000</speed>
</trkpt>
<trkpt lat="32.585498810" lon="35.144359589">
  <ele>201.134033</ele>
  <time>2011-09-29T06:43:58Z</time>
  <speed>3.280000</speed>
</trkpt>
<trkpt lat="32.585472107" lon="35.144348145">
  <ele>201.067627</ele>
  <time>2011-09-29T06:43:59Z</time>
  <speed>3.230000</speed>
</trkpt>
<trkpt lat="32.585441589" lon="35.144332886">
  <ele>201.325439</ele>
  <time>2011-09-29T06:44:00Z</time>
  <speed>3.400000</speed>
</trkpt>
<trkpt lat="32.585414886" lon="35.144313812">
  <ele>201.911377</ele>
  <time>2011-09-29T06:44:01Z</time>
  <speed>3.300000</speed>
</trkpt>
<trkpt lat="32.585388184" lon="35.144302368">
  <ele>202.762939</ele>
  <time>2011-09-29T06:44:02Z</time>
  <speed>2.960000</speed>
</trkpt>
<trkpt lat="32.585361481" lon="35.144287109">
  <ele>203.395752</ele>
  <time>2011-09-29T06:44:03Z</time>
  <speed>3.010000</speed>
</trkpt>
<trkpt lat="32.585334778" lon="35.144271851">
  <ele>204.266846</ele>
  <time>2011-09-29T06:44:04Z</time>
  <speed>2.840000</speed>
</trkpt>
<trkpt lat="32.585277557" lon="35.144275665">
  <ele>205.751221</ele>
  <time>2011-09-29T06:44:06Z</time>
  <speed>3.070000</speed>
</trkpt>
<trkpt lat="32.585250854" lon="35.144268036">
  <ele>205.923096</ele>
  <time>2011-09-29T06:44:07Z</time>
  <speed>3.130000</speed>
</trkpt>
<trkpt lat="32.585220337" lon="35.144260406">
  <ele>206.262939</ele>
  <time>2011-09-29T06:44:08Z</time>
  <speed>2.860000</speed>
</trkpt>
<trkpt lat="32.585174561" lon="35.144245148">
  <ele>206.290283</ele>
  <time>2011-09-29T06:44:10Z</time>
  <speed>3.010000</speed>
</trkpt>
<trkpt lat="32.585124969" lon="35.144229889">
  <ele>206.481689</ele>
  <time>2011-09-29T06:44:12Z</time>
  <speed>2.970000</speed>
</trkpt>
<trkpt lat="32.585090637" lon="35.144229889">
  <ele>207.055908</ele>
  <time>2011-09-29T06:44:13Z</time>
  <speed>2.920000</speed>
</trkpt>
<trkpt lat="32.585037231" lon="35.144222260">
  <ele>207.337158</ele>
  <time>2011-09-29T06:44:15Z</time>
  <speed>2.730000</speed>
</trkpt>
<trkpt lat="32.585010529" lon="35.144222260">
  <ele>207.106689</ele>
  <time>2011-09-29T06:44:16Z</time>
  <speed>3.770000</speed>
</trkpt>
<trkpt lat="32.584972382" lon="35.144229889">
  <ele>207.860596</ele>
  <time>2011-09-29T06:44:17Z</time>
  <speed>3.100000</speed>
</trkpt>
<trkpt lat="32.584941864" lon="35.144218445">
  <ele>208.247314</ele>
  <time>2011-09-29T06:44:18Z</time>
  <speed>3.110000</speed>
</trkpt>
<trkpt lat="32.584915161" lon="35.144203186">
  <ele>208.907471</ele>
  <time>2011-09-29T06:44:19Z</time>
  <speed>2.760000</speed>
</trkpt>
<trkpt lat="32.584880829" lon="35.144195557">
  <ele>210.278564</ele>
  <time>2011-09-29T06:44:20Z</time>
  <speed>2.760000</speed>
</trkpt>
<trkpt lat="32.584854126" lon="35.144176483">
  <ele>210.290283</ele>
  <time>2011-09-29T06:44:21Z</time>
  <speed>2.580000</speed>
</trkpt>
<trkpt lat="32.584808350" lon="35.144161224">
  <ele>209.723877</ele>
  <time>2011-09-29T06:44:23Z</time>
  <speed>2.520000</speed>
</trkpt>
<trkpt lat="32.584762573" lon="35.144145966">
  <ele>210.395752</ele>
  <time>2011-09-29T06:44:25Z</time>
  <speed>2.580000</speed>
</trkpt>
<trkpt lat="32.584716797" lon="35.144138336">
  <ele>210.407471</ele>
  <time>2011-09-29T06:44:27Z</time>
  <speed>2.490000</speed>
</trkpt>
<trkpt lat="32.584678650" lon="35.144142151">
  <ele>209.942627</ele>
  <time>2011-09-29T06:44:29Z</time>
  <speed>2.390000</speed>
</trkpt>
<trkpt lat="32.584640503" lon="35.144130707">
  <ele>210.231689</ele>
  <time>2011-09-29T06:44:31Z</time>
  <speed>2.410000</speed>
</trkpt>
<trkpt lat="32.584613800" lon="35.144123077">
  <ele>211.110596</ele>
  <time>2011-09-29T06:44:32Z</time>
  <speed>2.640000</speed>
</trkpt>
<trkpt lat="32.584571838" lon="35.144096375">
  <ele>211.423096</ele>
  <time>2011-09-29T06:44:34Z</time>
  <speed>2.400000</speed>
</trkpt>
<trkpt lat="32.584526062" lon="35.144088745">
  <ele>211.649658</ele>
  <time>2011-09-29T06:44:36Z</time>
  <speed>2.400000</speed>
</trkpt>
<trkpt lat="32.584484100" lon="35.144077301">
  <ele>211.653564</ele>
  <time>2011-09-29T06:44:38Z</time>
  <speed>2.460000</speed>
</trkpt>
<trkpt lat="32.584453583" lon="35.144081116">
  <ele>213.415283</ele>
  <time>2011-09-29T06:44:39Z</time>
  <speed>2.500000</speed>
</trkpt>
<trkpt lat="32.584419250" lon="35.144073486">
  <ele>213.852783</ele>
  <time>2011-09-29T06:44:41Z</time>
  <speed>2.450000</speed>
</trkpt>
<trkpt lat="32.584373474" lon="35.144058228">
  <ele>215.145752</ele>
  <time>2011-09-29T06:44:43Z</time>
  <speed>2.370000</speed>
</trkpt>
<trkpt lat="32.584323883" lon="35.144042969">
  <ele>215.895752</ele>
  <time>2011-09-29T06:44:45Z</time>
  <speed>2.550000</speed>
</trkpt>
<trkpt lat="32.584281921" lon="35.144031525">
  <ele>216.614502</ele>
  <time>2011-09-29T06:44:47Z</time>
  <speed>2.380000</speed>
</trkpt>
<trkpt lat="32.584239960" lon="35.144016266">
  <ele>216.411377</ele>
  <time>2011-09-29T06:44:49Z</time>
  <speed>2.400000</speed>
</trkpt>
<trkpt lat="32.584197998" lon="35.143997192">
  <ele>216.653564</ele>
  <time>2011-09-29T06:44:51Z</time>
  <speed>2.540000</speed>
</trkpt>
<trkpt lat="32.584152222" lon="35.143985748">
  <ele>217.333252</ele>
  <time>2011-09-29T06:44:53Z</time>
  <speed>2.500000</speed>
</trkpt>
<trkpt lat="32.584110260" lon="35.143978119">
  <ele>218.145752</ele>
  <time>2011-09-29T06:44:55Z</time>
  <speed>2.570000</speed>
</trkpt>
<trkpt lat="32.584064484" lon="35.143966675">
  <ele>218.927002</ele>
  <time>2011-09-29T06:44:57Z</time>
  <speed>2.360000</speed>
</trkpt>
<trkpt lat="32.584022522" lon="35.143951416">
  <ele>219.680908</ele>
  <time>2011-09-29T06:44:59Z</time>
  <speed>2.320000</speed>
</trkpt>
<trkpt lat="32.583972931" lon="35.143955231">
  <ele>220.774658</ele>
  <time>2011-09-29T06:45:01Z</time>
  <speed>2.500000</speed>
</trkpt>
<trkpt lat="32.583923340" lon="35.143943787">
  <ele>222.747314</ele>
  <time>2011-09-29T06:45:03Z</time>
  <speed>2.500000</speed>
</trkpt>
<trkpt lat="32.583885193" lon="35.143939972">
  <ele>222.938721</ele>
  <time>2011-09-29T06:45:05Z</time>
  <speed>2.270000</speed>
</trkpt>
<trkpt lat="32.583843231" lon="35.143932343">
  <ele>223.083252</ele>
  <time>2011-09-29T06:45:07Z</time>
  <speed>2.400000</speed>
</trkpt>
<trkpt lat="32.583801270" lon="35.143920898">
  <ele>223.887939</ele>
  <time>2011-09-29T06:45:09Z</time>
  <speed>2.370000</speed>
</trkpt>
<trkpt lat="32.583755493" lon="35.143905640">
  <ele>224.364502</ele>
  <time>2011-09-29T06:45:11Z</time>
  <speed>2.430000</speed>
</trkpt>
<trkpt lat="32.583709717" lon="35.143909454">
  <ele>224.208252</ele>
  <time>2011-09-29T06:45:13Z</time>
  <speed>2.320000</speed>
</trkpt>
<trkpt lat="32.583660126" lon="35.143913269">
  <ele>225.044189</ele>
  <time>2011-09-29T06:45:15Z</time>
  <speed>2.380000</speed>
</trkpt>
<trkpt lat="32.583621979" lon="35.143905640">
  <ele>225.391846</ele>
  <time>2011-09-29T06:45:17Z</time>
  <speed>2.230000</speed>
</trkpt>
<trkpt lat="32.583576202" lon="35.143898010">
  <ele>226.173096</ele>
  <time>2011-09-29T06:45:19Z</time>
  <speed>2.520000</speed>
</trkpt>
<trkpt lat="32.583526611" lon="35.143898010">
  <ele>227.251221</ele>
  <time>2011-09-29T06:45:21Z</time>
  <speed>2.050000</speed>
</trkpt>
<trkpt lat="32.583484650" lon="35.143905640">
  <ele>227.169189</ele>
  <time>2011-09-29T06:45:23Z</time>
  <speed>2.040000</speed>
</trkpt>
<trkpt lat="32.583438873" lon="35.143913269">
  <ele>227.548096</ele>
  <time>2011-09-29T06:45:25Z</time>
  <speed>1.900000</speed>
</trkpt>
<trkpt lat="32.583393097" lon="35.143920898">
  <ele>228.559814</ele>
  <time>2011-09-29T06:45:27Z</time>
  <speed>2.010000</speed>
</trkpt>
<trkpt lat="32.583347321" lon="35.143932343">
  <ele>228.083252</ele>
  <time>2011-09-29T06:45:29Z</time>
  <speed>2.260000</speed>
</trkpt>
<trkpt lat="32.583309174" lon="35.143939972">
  <ele>228.005127</ele>
  <time>2011-09-29T06:45:31Z</time>
  <speed>2.130000</speed>
</trkpt>
<trkpt lat="32.583255768" lon="35.143939972">
  <ele>227.938721</ele>
  <time>2011-09-29T06:45:33Z</time>
  <speed>2.310000</speed>
</trkpt>
<trkpt lat="32.583213806" lon="35.143955231">
  <ele>227.927002</ele>
  <time>2011-09-29T06:45:35Z</time>
  <speed>2.190000</speed>
</trkpt>
<trkpt lat="32.583179474" lon="35.143962860">
  <ele>227.243408</ele>
  <time>2011-09-29T06:45:37Z</time>
  <speed>2.040000</speed>
</trkpt>
<trkpt lat="32.583137512" lon="35.143981934">
  <ele>226.524658</ele>
  <time>2011-09-29T06:45:39Z</time>
  <speed>2.330000</speed>
</trkpt>
<trkpt lat="32.583091736" lon="35.143981934">
  <ele>227.270752</ele>
  <time>2011-09-29T06:45:41Z</time>
  <speed>2.160000</speed>
</trkpt>
<trkpt lat="32.583045959" lon="35.144008636">
  <ele>228.837158</ele>
  <time>2011-09-29T06:45:43Z</time>
  <speed>2.190000</speed>
</trkpt>
<trkpt lat="32.583000183" lon="35.144027710">
  <ele>228.665283</ele>
  <time>2011-09-29T06:45:45Z</time>
  <speed>2.510000</speed>
</trkpt>
<trkpt lat="32.582958221" lon="35.144039154">
  <ele>228.395752</ele>
  <time>2011-09-29T06:45:47Z</time>
  <speed>2.320000</speed>
</trkpt>
<trkpt lat="32.582920074" lon="35.144062042">
  <ele>227.559814</ele>
  <time>2011-09-29T06:45:49Z</time>
  <speed>2.350000</speed>
</trkpt>
<trkpt lat="32.582878113" lon="35.144073486">
  <ele>226.723877</ele>
  <time>2011-09-29T06:45:51Z</time>
  <speed>2.300000</speed>
</trkpt>
<trkpt lat="32.582832336" lon="35.144088745">
  <ele>226.520752</ele>
  <time>2011-09-29T06:45:53Z</time>
  <speed>2.300000</speed>
</trkpt>
<trkpt lat="32.582786560" lon="35.144107819">
  <ele>226.134033</ele>
  <time>2011-09-29T06:45:55Z</time>
  <speed>2.270000</speed>
</trkpt>
<trkpt lat="32.582744598" lon="35.144123077">
  <ele>226.040283</ele>
  <time>2011-09-29T06:45:57Z</time>
  <speed>2.040000</speed>
</trkpt>
<trkpt lat="32.582717896" lon="35.144145966">
  <ele>227.969971</ele>
  <time>2011-09-29T06:45:58Z</time>
  <speed>2.230000</speed>
</trkpt>
<trkpt lat="32.582687378" lon="35.144157410">
  <ele>229.055908</ele>
  <time>2011-09-29T06:45:59Z</time>
  <speed>2.350000</speed>
</trkpt>
<trkpt lat="32.582645416" lon="35.144168854">
  <ele>228.110596</ele>
  <time>2011-09-29T06:46:01Z</time>
  <speed>2.190000</speed>
</trkpt>
<trkpt lat="32.582614899" lon="35.144187927">
  <ele>227.852783</ele>
  <time>2011-09-29T06:46:03Z</time>
  <speed>1.760000</speed>
</trkpt>
<trkpt lat="32.582576752" lon="35.144203186">
  <ele>227.774658</ele>
  <time>2011-09-29T06:46:05Z</time>
  <speed>2.170000</speed>
</trkpt>
<trkpt lat="32.582538605" lon="35.144229889">
  <ele>226.942627</ele>
  <time>2011-09-29T06:46:07Z</time>
  <speed>2.390000</speed>
</trkpt>
<trkpt lat="32.582492828" lon="35.144256592">
  <ele>227.348877</ele>
  <time>2011-09-29T06:46:09Z</time>
  <speed>2.380000</speed>
</trkpt>
<trkpt lat="32.582462311" lon="35.144275665">
  <ele>227.809814</ele>
  <time>2011-09-29T06:46:11Z</time>
  <speed>2.210000</speed>
</trkpt>
<trkpt lat="32.582427979" lon="35.144294739">
  <ele>227.579346</ele>
  <time>2011-09-29T06:46:13Z</time>
  <speed>2.270000</speed>
</trkpt>
<trkpt lat="32.582393646" lon="35.144309998">
  <ele>227.360596</ele>
  <time>2011-09-29T06:46:15Z</time>
  <speed>1.990000</speed>
</trkpt>
<trkpt lat="32.582359314" lon="35.144325256">
  <ele>227.501221</ele>
  <time>2011-09-29T06:46:17Z</time>
  <speed>2.140000</speed>
</trkpt>
<trkpt lat="32.582324982" lon="35.144351959">
  <ele>227.880127</ele>
  <time>2011-09-29T06:46:19Z</time>
  <speed>1.980000</speed>
</trkpt>
<trkpt lat="32.582290649" lon="35.144367218">
  <ele>227.594971</ele>
  <time>2011-09-29T06:46:21Z</time>
  <speed>2.170000</speed>
</trkpt>
<trkpt lat="32.582252502" lon="35.144401550">
  <ele>227.356689</ele>
  <time>2011-09-29T06:46:23Z</time>
  <speed>2.180000</speed>
</trkpt>
<trkpt lat="32.582221985" lon="35.144432068">
  <ele>226.567627</ele>
  <time>2011-09-29T06:46:25Z</time>
  <speed>2.260000</speed>
</trkpt>
<trkpt lat="32.582199097" lon="35.144454956">
  <ele>227.446533</ele>
  <time>2011-09-29T06:46:26Z</time>
  <speed>2.390000</speed>
</trkpt>
<trkpt lat="32.582164764" lon="35.144481659">
  <ele>227.087158</ele>
  <time>2011-09-29T06:46:28Z</time>
  <speed>2.490000</speed>
</trkpt>
<trkpt lat="32.582138062" lon="35.144508362">
  <ele>228.673096</ele>
  <time>2011-09-29T06:46:29Z</time>
  <speed>2.160000</speed>
</trkpt>
<trkpt lat="32.582111359" lon="35.144535065">
  <ele>228.341064</ele>
  <time>2011-09-29T06:46:31Z</time>
  <speed>2.240000</speed>
</trkpt>
<trkpt lat="32.582077026" lon="35.144569397">
  <ele>228.102783</ele>
  <time>2011-09-29T06:46:33Z</time>
  <speed>2.040000</speed>
</trkpt>
<trkpt lat="32.582054138" lon="35.144607544">
  <ele>227.844971</ele>
  <time>2011-09-29T06:46:35Z</time>
  <speed>1.980000</speed>
</trkpt>
<trkpt lat="32.582023621" lon="35.144638062">
  <ele>227.766846</ele>
  <time>2011-09-29T06:46:37Z</time>
  <speed>2.170000</speed>
</trkpt>
<trkpt lat="32.581993103" lon="35.144672394">
  <ele>227.708252</ele>
  <time>2011-09-29T06:46:39Z</time>
  <speed>2.050000</speed>
</trkpt>
<trkpt lat="32.581962585" lon="35.144702911">
  <ele>228.188721</ele>
  <time>2011-09-29T06:46:41Z</time>
  <speed>2.230000</speed>
</trkpt>
<trkpt lat="32.581920624" lon="35.144744873">
  <ele>229.387939</ele>
  <time>2011-09-29T06:46:43Z</time>
  <speed>2.490000</speed>
</trkpt>
<trkpt lat="32.581890106" lon="35.144779205">
  <ele>230.169189</ele>
  <time>2011-09-29T06:46:45Z</time>
  <speed>1.640000</speed>
</trkpt>
<trkpt lat="32.581867218" lon="35.144809723">
  <ele>230.364502</ele>
  <time>2011-09-29T06:46:47Z</time>
  <speed>1.930000</speed>
</trkpt>
<trkpt lat="32.581844330" lon="35.144836426">
  <ele>231.149658</ele>
  <time>2011-09-29T06:46:49Z</time>
  <speed>2.140000</speed>
</trkpt>
<trkpt lat="32.581813812" lon="35.144866943">
  <ele>231.032471</ele>
  <time>2011-09-29T06:46:51Z</time>
  <speed>1.920000</speed>
</trkpt>
<trkpt lat="32.581779480" lon="35.144866943">
  <ele>230.790283</ele>
  <time>2011-09-29T06:46:54Z</time>
  <speed>1.370000</speed>
</trkpt>
<trkpt lat="32.581771851" lon="35.144821167">
  <ele>231.309814</ele>
  <time>2011-09-29T06:46:56Z</time>
  <speed>3.100000</speed>
</trkpt>
<trkpt lat="32.581768036" lon="35.144783020">
  <ele>231.868408</ele>
  <time>2011-09-29T06:46:57Z</time>
  <speed>3.240000</speed>
</trkpt>
<trkpt lat="32.581764221" lon="35.144741058">
  <ele>231.591064</ele>
  <time>2011-09-29T06:46:58Z</time>
  <speed>4.250000</speed>
</trkpt>
<trkpt lat="32.581771851" lon="35.144683838">
  <ele>230.313721</ele>
  <time>2011-09-29T06:46:59Z</time>
  <speed>4.550000</speed>
</trkpt>
<trkpt lat="32.581775665" lon="35.144626617">
  <ele>229.317627</ele>
  <time>2011-09-29T06:47:00Z</time>
  <speed>5.160000</speed>
</trkpt>
<trkpt lat="32.581775665" lon="35.144565582">
  <ele>228.634033</ele>
  <time>2011-09-29T06:47:01Z</time>
  <speed>5.600000</speed>
</trkpt>
<trkpt lat="32.581787109" lon="35.144496918">
  <ele>228.329346</ele>
  <time>2011-09-29T06:47:02Z</time>
  <speed>5.960000</speed>
</trkpt>
<trkpt lat="32.581790924" lon="35.144428253">
  <ele>228.204346</ele>
  <time>2011-09-29T06:47:03Z</time>
  <speed>5.810000</speed>
</trkpt>
<trkpt lat="32.581783295" lon="35.144355774">
  <ele>227.059814</ele>
  <time>2011-09-29T06:47:04Z</time>
  <speed>6.660000</speed>
</trkpt>
<trkpt lat="32.581756592" lon="35.144306183">
  <ele>226.712158</ele>
  <time>2011-09-29T06:47:05Z</time>
  <speed>5.790000</speed>
</trkpt>
<trkpt lat="32.581710815" lon="35.144252777">
  <ele>226.450439</ele>
  <time>2011-09-29T06:47:06Z</time>
  <speed>5.500000</speed>
</trkpt>
<trkpt lat="32.581657410" lon="35.144207001">
  <ele>226.653564</ele>
  <time>2011-09-29T06:47:07Z</time>
  <speed>5.440000</speed>
</trkpt>
<trkpt lat="32.581619263" lon="35.144180298">
  <ele>226.376221</ele>
  <time>2011-09-29T06:47:08Z</time>
  <speed>3.770000</speed>
</trkpt>
<trkpt lat="32.581596375" lon="35.144142151">
  <ele>226.137939</ele>
  <time>2011-09-29T06:47:09Z</time>
  <speed>2.740000</speed>
</trkpt>
<trkpt lat="32.581584930" lon="35.144107819">
  <ele>225.548096</ele>
  <time>2011-09-29T06:47:11Z</time>
  <speed>1.440000</speed>
</trkpt>
<trkpt lat="32.581611633" lon="35.144081116">
  <ele>224.841064</ele>
  <time>2011-09-29T06:47:14Z</time>
  <speed>1.280000</speed>
</trkpt>
<trkpt lat="32.581645966" lon="35.144069672">
  <ele>224.071533</ele>
  <time>2011-09-29T06:47:17Z</time>
  <speed>0.850000</speed>
</trkpt>
<trkpt lat="32.581668854" lon="35.144084930">
  <ele>223.606689</ele>
  <time>2011-09-29T06:47:34Z</time>
  <speed>0.080000</speed>
</trkpt>
<trkpt lat="32.581703186" lon="35.144054413">
  <ele>223.923096</ele>
  <time>2011-09-29T06:47:41Z</time>
  <speed>1.840000</speed>
</trkpt>
<trkpt lat="32.581737518" lon="35.144054413">
  <ele>224.091064</ele>
  <time>2011-09-29T06:47:42Z</time>
  <speed>2.640000</speed>
</trkpt>
<trkpt lat="32.581779480" lon="35.144035339">
  <ele>224.184814</ele>
  <time>2011-09-29T06:47:44Z</time>
  <speed>2.400000</speed>
</trkpt>
<trkpt lat="32.581806183" lon="35.144027710">
  <ele>224.360596</ele>
  <time>2011-09-29T06:47:45Z</time>
  <speed>2.330000</speed>
</trkpt>
<trkpt lat="32.581844330" lon="35.144031525">
  <ele>224.360596</ele>
  <time>2011-09-29T06:47:46Z</time>
  <speed>3.880000</speed>
</trkpt>
<trkpt lat="32.581890106" lon="35.144027710">
  <ele>224.555908</ele>
  <time>2011-09-29T06:47:47Z</time>
  <speed>4.730000</speed>
</trkpt>
<trkpt lat="32.581966400" lon="35.144023895">
  <ele>224.641846</ele>
  <time>2011-09-29T06:47:48Z</time>
  <speed>6.570000</speed>
</trkpt>
<trkpt lat="32.582038879" lon="35.144008636">
  <ele>224.653564</ele>
  <time>2011-09-29T06:47:49Z</time>
  <speed>7.250000</speed>
</trkpt>
<trkpt lat="32.582134247" lon="35.144001007">
  <ele>224.645752</ele>
  <time>2011-09-29T06:47:50Z</time>
  <speed>9.200000</speed>
</trkpt>
<trkpt lat="32.582256317" lon="35.143962860">
  <ele>224.700439</ele>
  <time>2011-09-29T06:47:51Z</time>
  <speed>9.100000</speed>
</trkpt>
<trkpt lat="32.582347870" lon="35.143936157">
  <ele>224.747314</ele>
  <time>2011-09-29T06:47:52Z</time>
  <speed>9.120000</speed>
</trkpt>
<trkpt lat="32.582447052" lon="35.143886566">
  <ele>224.938721</ele>
  <time>2011-09-29T06:47:53Z</time>
  <speed>9.070000</speed>
</trkpt>
<trkpt lat="32.582550049" lon="35.143844604">
  <ele>225.165283</ele>
  <time>2011-09-29T06:47:54Z</time>
  <speed>8.880000</speed>
</trkpt>
<trkpt lat="32.582645416" lon="35.143802643">
  <ele>225.462158</ele>
  <time>2011-09-29T06:47:55Z</time>
  <speed>8.890000</speed>
</trkpt>
<trkpt lat="32.582740784" lon="35.143741608">
  <ele>225.798096</ele>
  <time>2011-09-29T06:47:56Z</time>
  <speed>9.360000</speed>
</trkpt>
<trkpt lat="32.582843781" lon="35.143699646">
  <ele>226.173096</ele>
  <time>2011-09-29T06:47:57Z</time>
  <speed>9.760000</speed>
</trkpt>
<trkpt lat="32.582939148" lon="35.143650055">
  <ele>226.477783</ele>
  <time>2011-09-29T06:47:58Z</time>
  <speed>10.130000</speed>
</trkpt>
<trkpt lat="32.583023071" lon="35.143596649">
  <ele>226.567627</ele>
  <time>2011-09-29T06:47:59Z</time>
  <speed>10.130000</speed>
</trkpt>
<trkpt lat="32.583103180" lon="35.143543243">
  <ele>226.680908</ele>
  <time>2011-09-29T06:48:00Z</time>
  <speed>9.699999</speed>
</trkpt>
<trkpt lat="32.583183289" lon="35.143493652">
  <ele>226.813721</ele>
  <time>2011-09-29T06:48:01Z</time>
  <speed>10.050000</speed>
</trkpt>
<trkpt lat="32.583259583" lon="35.143444061">
  <ele>226.821533</ele>
  <time>2011-09-29T06:48:02Z</time>
  <speed>8.950000</speed>
</trkpt>
<trkpt lat="32.583335876" lon="35.143421173">
  <ele>227.700439</ele>
  <time>2011-09-29T06:48:03Z</time>
  <speed>8.770000</speed>
</trkpt>
<trkpt lat="32.583412170" lon="35.143402100">
  <ele>227.587158</ele>
  <time>2011-09-29T06:48:04Z</time>
  <speed>8.170000</speed>
</trkpt>
<trkpt lat="32.583488464" lon="35.143413544">
  <ele>227.438721</ele>
  <time>2011-09-29T06:48:05Z</time>
  <speed>8.170000</speed>
</trkpt>
<trkpt lat="32.583557129" lon="35.143455505">
  <ele>227.149658</ele>
  <time>2011-09-29T06:48:06Z</time>
  <speed>7.350000</speed>
</trkpt>
<trkpt lat="32.583625793" lon="35.143497467">
  <ele>226.907471</ele>
  <time>2011-09-29T06:48:07Z</time>
  <speed>7.230000</speed>
</trkpt>
<trkpt lat="32.583686829" lon="35.143520355">
  <ele>226.911377</ele>
  <time>2011-09-29T06:48:08Z</time>
  <speed>6.780000</speed>
</trkpt>
<trkpt lat="32.583751678" lon="35.143539429">
  <ele>226.942627</ele>
  <time>2011-09-29T06:48:09Z</time>
  <speed>6.970000</speed>
</trkpt>
<trkpt lat="32.583816528" lon="35.143554688">
  <ele>226.997314</ele>
  <time>2011-09-29T06:48:10Z</time>
  <speed>7.810000</speed>
</trkpt>
<trkpt lat="32.583885193" lon="35.143581390">
  <ele>226.981689</ele>
  <time>2011-09-29T06:48:11Z</time>
  <speed>7.580000</speed>
</trkpt>
<trkpt lat="32.583972931" lon="35.143608093">
  <ele>227.048096</ele>
  <time>2011-09-29T06:48:12Z</time>
  <speed>8.200000</speed>
</trkpt>
<trkpt lat="32.584041595" lon="35.143634796">
  <ele>227.212158</ele>
  <time>2011-09-29T06:48:13Z</time>
  <speed>8.130000</speed>
</trkpt>
<trkpt lat="32.584106445" lon="35.143669128">
  <ele>227.208252</ele>
  <time>2011-09-29T06:48:14Z</time>
  <speed>7.780000</speed>
</trkpt>
<trkpt lat="32.584217072" lon="35.143707275">
  <ele>226.489502</ele>
  <time>2011-09-29T06:48:15Z</time>
  <speed>9.130000</speed>
</trkpt>
<trkpt lat="32.584300995" lon="35.143737793">
  <ele>226.548096</ele>
  <time>2011-09-29T06:48:16Z</time>
  <speed>9.490000</speed>
</trkpt>
<trkpt lat="32.584388733" lon="35.143756866">
  <ele>226.614502</ele>
  <time>2011-09-29T06:48:17Z</time>
  <speed>9.140000</speed>
</trkpt>
<trkpt lat="32.584476471" lon="35.143772125">
  <ele>226.716064</ele>
  <time>2011-09-29T06:48:18Z</time>
  <speed>9.100000</speed>
</trkpt>
<trkpt lat="32.584560394" lon="35.143787384">
  <ele>226.813721</ele>
  <time>2011-09-29T06:48:19Z</time>
  <speed>9.150000</speed>
</trkpt>
<trkpt lat="32.584651947" lon="35.143787384">
  <ele>227.020752</ele>
  <time>2011-09-29T06:48:20Z</time>
  <speed>9.270000</speed>
</trkpt>
<trkpt lat="32.584732056" lon="35.143775940">
  <ele>227.102783</ele>
  <time>2011-09-29T06:48:21Z</time>
  <speed>8.270000</speed>
</trkpt>
<trkpt lat="32.584804535" lon="35.143779755">
  <ele>227.247314</ele>
  <time>2011-09-29T06:48:22Z</time>
  <speed>8.010000</speed>
</trkpt>
<trkpt lat="32.584915161" lon="35.143779755">
  <ele>227.192627</ele>
  <time>2011-09-29T06:48:23Z</time>
  <speed>8.790000</speed>
</trkpt>
<trkpt lat="32.584987640" lon="35.143783569">
  <ele>226.942627</ele>
  <time>2011-09-29T06:48:24Z</time>
  <speed>8.050000</speed>
</trkpt>
<trkpt lat="32.585067749" lon="35.143775940">
  <ele>226.739502</ele>
  <time>2011-09-29T06:48:25Z</time>
  <speed>8.820000</speed>
</trkpt>
<trkpt lat="32.585147858" lon="35.143775940">
  <ele>226.563721</ele>
  <time>2011-09-29T06:48:26Z</time>
  <speed>9.110000</speed>
</trkpt>
<trkpt lat="32.585231781" lon="35.143779755">
  <ele>226.583252</ele>
  <time>2011-09-29T06:48:27Z</time>
  <speed>8.740000</speed>
</trkpt>
<trkpt lat="32.585304260" lon="35.143787384">
  <ele>226.684814</ele>
  <time>2011-09-29T06:48:28Z</time>
  <speed>8.340000</speed>
</trkpt>
<trkpt lat="32.585391998" lon="35.143775940">
  <ele>225.884033</ele>
  <time>2011-09-29T06:48:29Z</time>
  <speed>8.730000</speed>
</trkpt>
<trkpt lat="32.585479736" lon="35.143783569">
  <ele>224.669189</ele>
  <time>2011-09-29T06:48:30Z</time>
  <speed>9.210000</speed>
</trkpt>
<trkpt lat="32.585548401" lon="35.143779755">
  <ele>222.891846</ele>
  <time>2011-09-29T06:48:31Z</time>
  <speed>9.250000</speed>
</trkpt>
<trkpt lat="32.585624695" lon="35.143741608">
  <ele>222.231689</ele>
  <time>2011-09-29T06:48:32Z</time>
  <speed>9.260000</speed>
</trkpt>
<trkpt lat="32.585708618" lon="35.143695831">
  <ele>221.516846</ele>
  <time>2011-09-29T06:48:33Z</time>
  <speed>9.370000</speed>
</trkpt>
<trkpt lat="32.585796356" lon="35.143653870">
  <ele>221.192627</ele>
  <time>2011-09-29T06:48:34Z</time>
  <speed>8.750000</speed>
</trkpt>
<trkpt lat="32.585865021" lon="35.143611908">
  <ele>219.876221</ele>
  <time>2011-09-29T06:48:35Z</time>
  <speed>8.510000</speed>
</trkpt>
<trkpt lat="32.585933685" lon="35.143573761">
  <ele>219.735596</ele>
  <time>2011-09-29T06:48:36Z</time>
  <speed>8.360000</speed>
</trkpt>
<trkpt lat="32.585998535" lon="35.143531799">
  <ele>218.958252</ele>
  <time>2011-09-29T06:48:37Z</time>
  <speed>8.870000</speed>
</trkpt>
<trkpt lat="32.586067200" lon="35.143478394">
  <ele>217.309814</ele>
  <time>2011-09-29T06:48:38Z</time>
  <speed>8.480000</speed>
</trkpt>
<trkpt lat="32.586132050" lon="35.143421173">
  <ele>216.091064</ele>
  <time>2011-09-29T06:48:39Z</time>
  <speed>8.370000</speed>
</trkpt>
<trkpt lat="32.586189270" lon="35.143360138">
  <ele>215.743408</ele>
  <time>2011-09-29T06:48:40Z</time>
  <speed>8.320000</speed>
</trkpt>
<trkpt lat="32.586238861" lon="35.143287659">
  <ele>215.899658</ele>
  <time>2011-09-29T06:48:41Z</time>
  <speed>9.180000</speed>
</trkpt>
<trkpt lat="32.586280823" lon="35.143199921">
  <ele>214.841064</ele>
  <time>2011-09-29T06:48:42Z</time>
  <speed>9.390000</speed>
</trkpt>
<trkpt lat="32.586315155" lon="35.143104553">
  <ele>214.352783</ele>
  <time>2011-09-29T06:48:43Z</time>
  <speed>9.450000</speed>
</trkpt>
<trkpt lat="32.586341858" lon="35.143009186">
  <ele>213.614502</ele>
  <time>2011-09-29T06:48:44Z</time>
  <speed>9.330000</speed>
</trkpt>
<trkpt lat="32.586368561" lon="35.142925262">
  <ele>212.723877</ele>
  <time>2011-09-29T06:48:45Z</time>
  <speed>8.660000</speed>
</trkpt>
<trkpt lat="32.586406708" lon="35.142871857">
  <ele>211.997314</ele>
  <time>2011-09-29T06:48:46Z</time>
  <speed>6.800000</speed>
</trkpt>
<trkpt lat="32.586444855" lon="35.142787933">
  <ele>211.653564</ele>
  <time>2011-09-29T06:48:47Z</time>
  <speed>6.370000</speed>
</trkpt>
<trkpt lat="32.586479187" lon="35.142765045">
  <ele>210.794189</ele>
  <time>2011-09-29T06:48:48Z</time>
  <speed>3.710000</speed>
</trkpt>
<trkpt lat="32.586509705" lon="35.142738342">
  <ele>210.403564</ele>
  <time>2011-09-29T06:48:49Z</time>
  <speed>3.040000</speed>
</trkpt>
<trkpt lat="32.586532593" lon="35.142719269">
  <ele>210.286377</ele>
  <time>2011-09-29T06:48:50Z</time>
  <speed>1.930000</speed>
</trkpt>
<trkpt lat="32.586570740" lon="35.142707825">
  <ele>209.329346</ele>
  <time>2011-09-29T06:48:52Z</time>
  <speed>1.020000</speed>
</trkpt>
<trkpt lat="32.586597443" lon="35.142688751">
  <ele>209.110596</ele>
  <time>2011-09-29T06:48:54Z</time>
  <speed>0.610000</speed>
</trkpt>
<trkpt lat="32.586639404" lon="35.142669678">
  <ele>213.469971</ele>
  <time>2011-09-29T06:48:58Z</time>
  <speed>0.290000</speed>
</trkpt>
<trkpt lat="32.586639404" lon="35.142662048">
  <ele>217.446533</ele>
  <time>2011-09-29T06:48:58Z</time>
  <speed>0.310000</speed>
</trkpt>
<trkpt lat="32.586654663" lon="35.142658234">
  <ele>221.094971</ele>
  <time>2011-09-29T06:48:59Z</time>
  <speed>0.270000</speed>
</trkpt>
<trkpt lat="32.586662292" lon="35.142662048">
  <ele>224.423096</ele>
  <time>2011-09-29T06:49:00Z</time>
  <speed>0.230000</speed>
</trkpt>
<trkpt lat="32.586658478" lon="35.142677307">
  <ele>227.157471</ele>
  <time>2011-09-29T06:49:01Z</time>
  <speed>0.170000</speed>
</trkpt>
<trkpt lat="32.586692810" lon="35.142673492">
  <ele>226.598877</ele>
  <time>2011-09-29T06:49:04Z</time>
  <speed>0.070000</speed>
</trkpt>
<trkpt lat="32.586708069" lon="35.142673492">
  <ele>229.122314</ele>
  <time>2011-09-29T06:49:08Z</time>
  <speed>0.070000</speed>
</trkpt>
<trkpt lat="32.586719513" lon="35.142700195">
  <ele>227.934814</ele>
  <time>2011-09-29T06:49:14Z</time>
  <speed>0.060000</speed>
</trkpt>
<trkpt lat="32.586723328" lon="35.142719269">
  <ele>225.282471</ele>
  <time>2011-09-29T06:49:17Z</time>
  <speed>0.020000</speed>
</trkpt>
<trkpt lat="32.586738586" lon="35.142711639">
  <ele>222.427002</ele>
  <time>2011-09-29T06:49:19Z</time>
  <speed>0.020000</speed>
</trkpt>
<trkpt lat="32.586719513" lon="35.142715454">
  <ele>220.247314</ele>
  <time>2011-09-29T06:50:19Z</time>
  <speed>0.120000</speed>
</trkpt>
<trkpt lat="32.586692810" lon="35.142723083">
  <ele>220.864502</ele>
  <time>2011-09-29T06:51:16Z</time>
  <speed>0.190000</speed>
</trkpt>
<trkpt lat="32.586662292" lon="35.142715454">
  <ele>221.673096</ele>
  <time>2011-09-29T06:51:25Z</time>
  <speed>0.300000</speed>
</trkpt>
<trkpt lat="32.586635590" lon="35.142692566">
  <ele>222.356689</ele>
  <time>2011-09-29T06:51:29Z</time>
  <speed>0.300000</speed>
</trkpt>
<trkpt lat="32.586616516" lon="35.142677307">
  <ele>223.559814</ele>
  <time>2011-09-29T06:51:38Z</time>
  <speed>0.250000</speed>
</trkpt>
<trkpt lat="32.586597443" lon="35.142658234">
  <ele>224.587158</ele>
  <time>2011-09-29T06:52:13Z</time>
  <speed>0.060000</speed>
</trkpt>
<trkpt lat="32.586601257" lon="35.142673492">
  <ele>227.223877</ele>
  <time>2011-09-29T06:53:28Z</time>
  <speed>0.140000</speed>
</trkpt>
<trkpt lat="32.586616516" lon="35.142700195">
  <ele>227.239502</ele>
  <time>2011-09-29T06:53:46Z</time>
  <speed>0.170000</speed>
</trkpt>
<trkpt lat="32.586643219" lon="35.142715454">
  <ele>227.184814</ele>
  <time>2011-09-29T06:54:17Z</time>
  <speed>0.170000</speed>
</trkpt>
<trkpt lat="32.586669922" lon="35.142707825">
  <ele>226.876221</ele>
  <time>2011-09-29T06:54:24Z</time>
  <speed>0.340000</speed>
</trkpt>
<trkpt lat="32.586696625" lon="35.142707825">
  <ele>226.376221</ele>
  <time>2011-09-29T06:54:29Z</time>
  <speed>0.310000</speed>
</trkpt>
<trkpt lat="32.586711884" lon="35.142738342">
  <ele>226.282471</ele>
  <time>2011-09-29T06:54:41Z</time>
  <speed>0.140000</speed>
</trkpt>
<trkpt lat="32.586681366" lon="35.142726898">
  <ele>226.231689</ele>
  <time>2011-09-29T06:55:06Z</time>
  <speed>0.160000</speed>
</trkpt>
<trkpt lat="32.586704254" lon="35.142700195">
  <ele>226.149658</ele>
  <time>2011-09-29T06:56:55Z</time>
  <speed>0.390000</speed>
</trkpt>
<trkpt lat="32.586730957" lon="35.142681122">
  <ele>225.567627</ele>
  <time>2011-09-29T06:56:59Z</time>
  <speed>2.070000</speed>
</trkpt>
<trkpt lat="32.586761475" lon="35.142665863">
  <ele>225.548096</ele>
  <time>2011-09-29T06:57:01Z</time>
  <speed>2.050000</speed>
</trkpt>
<trkpt lat="32.586784363" lon="35.142616272">
  <ele>224.591064</ele>
  <time>2011-09-29T06:57:03Z</time>
  <speed>2.530000</speed>
</trkpt>
<trkpt lat="32.586826324" lon="35.142589569">
  <ele>224.032471</ele>
  <time>2011-09-29T06:57:05Z</time>
  <speed>3.040000</speed>
</trkpt>
<trkpt lat="32.586849213" lon="35.142562866">
  <ele>223.153564</ele>
  <time>2011-09-29T06:57:06Z</time>
  <speed>2.990000</speed>
</trkpt>
<trkpt lat="32.586891174" lon="35.142528534">
  <ele>222.841064</ele>
  <time>2011-09-29T06:57:08Z</time>
  <speed>3.330000</speed>
</trkpt>
<trkpt lat="32.586914063" lon="35.142513275">
  <ele>222.735596</ele>
  <time>2011-09-29T06:57:09Z</time>
  <speed>2.870000</speed>
</trkpt>
<trkpt lat="32.586940765" lon="35.142498016">
  <ele>222.594971</ele>
  <time>2011-09-29T06:57:10Z</time>
  <speed>3.190000</speed>
</trkpt>
<trkpt lat="32.586971283" lon="35.142486572">
  <ele>222.430908</ele>
  <time>2011-09-29T06:57:11Z</time>
  <speed>3.300000</speed>
</trkpt>
<trkpt lat="32.586997986" lon="35.142475128">
  <ele>222.231689</ele>
  <time>2011-09-29T06:57:12Z</time>
  <speed>3.180000</speed>
</trkpt>
<trkpt lat="32.587020874" lon="35.142456055">
  <ele>221.966064</ele>
  <time>2011-09-29T06:57:13Z</time>
  <speed>2.760000</speed>
</trkpt>
<trkpt lat="32.587047577" lon="35.142444611">
  <ele>221.516846</ele>
  <time>2011-09-29T06:57:14Z</time>
  <speed>2.950000</speed>
</trkpt>
<trkpt lat="32.587089539" lon="35.142414093">
  <ele>220.641846</ele>
  <time>2011-09-29T06:57:16Z</time>
  <speed>2.390000</speed>
</trkpt>
<trkpt lat="32.587131500" lon="35.142372131">
  <ele>219.907471</ele>
  <time>2011-09-29T06:57:18Z</time>
  <speed>2.810000</speed>
</trkpt>
<trkpt lat="32.587146759" lon="35.142345428">
  <ele>219.813721</ele>
  <time>2011-09-29T06:57:19Z</time>
  <speed>2.930000</speed>
</trkpt>
<trkpt lat="32.587181091" lon="35.142307281">
  <ele>219.477783</ele>
  <time>2011-09-29T06:57:21Z</time>
  <speed>2.470000</speed>
</trkpt>
<trkpt lat="32.587203979" lon="35.142292023">
  <ele>219.145752</ele>
  <time>2011-09-29T06:57:22Z</time>
  <speed>2.540000</speed>
</trkpt>
<trkpt lat="32.587226868" lon="35.142269135">
  <ele>218.782471</ele>
  <time>2011-09-29T06:57:23Z</time>
  <speed>3.050000</speed>
</trkpt>
<trkpt lat="32.587238312" lon="35.142200470">
  <ele>218.680908</ele>
  <time>2011-09-29T06:57:24Z</time>
  <speed>2.950000</speed>
</trkpt>
<trkpt lat="32.587249756" lon="35.142135620">
  <ele>218.563721</ele>
  <time>2011-09-29T06:57:25Z</time>
  <speed>2.650000</speed>
</trkpt>
<trkpt lat="32.587261200" lon="35.142063141">
  <ele>218.481689</ele>
  <time>2011-09-29T06:57:27Z</time>
  <speed>2.670000</speed>
</trkpt>
<trkpt lat="32.587291718" lon="35.142021179">
  <ele>218.106689</ele>
  <time>2011-09-29T06:57:29Z</time>
  <speed>2.060000</speed>
</trkpt>
<trkpt lat="32.587303162" lon="35.141960144">
  <ele>217.618408</ele>
  <time>2011-09-29T06:57:31Z</time>
  <speed>2.340000</speed>
</trkpt>
<trkpt lat="32.587318420" lon="35.141899109">
  <ele>216.735596</ele>
  <time>2011-09-29T06:57:33Z</time>
  <speed>2.100000</speed>
</trkpt>
<trkpt lat="32.587322235" lon="35.141864777">
  <ele>216.044189</ele>
  <time>2011-09-29T06:57:34Z</time>
  <speed>2.120000</speed>
</trkpt>
<trkpt lat="32.587322235" lon="35.141830444">
  <ele>215.352783</ele>
  <time>2011-09-29T06:57:35Z</time>
  <speed>2.240000</speed>
</trkpt>
<trkpt lat="32.587322235" lon="35.141769409">
  <ele>214.700439</ele>
  <time>2011-09-29T06:57:37Z</time>
  <speed>2.080000</speed>
</trkpt>
<trkpt lat="32.587333679" lon="35.141738892">
  <ele>214.216064</ele>
  <time>2011-09-29T06:57:38Z</time>
  <speed>1.590000</speed>
</trkpt>
<trkpt lat="32.587318420" lon="35.141677856">
  <ele>213.087158</ele>
  <time>2011-09-29T06:57:40Z</time>
  <speed>1.710000</speed>
</trkpt>
<trkpt lat="32.587329865" lon="35.141643524">
  <ele>212.661377</ele>
  <time>2011-09-29T06:57:41Z</time>
  <speed>2.230000</speed>
</trkpt>
<trkpt lat="32.587345123" lon="35.141593933">
  <ele>212.048096</ele>
  <time>2011-09-29T06:57:43Z</time>
  <speed>1.860000</speed>
</trkpt>
<trkpt lat="32.587360382" lon="35.141551971">
  <ele>210.798096</ele>
  <time>2011-09-29T06:57:45Z</time>
  <speed>1.450000</speed>
</trkpt>
<trkpt lat="32.587356567" lon="35.141521454">
  <ele>210.177002</ele>
  <time>2011-09-29T06:57:46Z</time>
  <speed>1.610000</speed>
</trkpt>
<trkpt lat="32.587398529" lon="35.141475677">
  <ele>208.282471</ele>
  <time>2011-09-29T06:57:48Z</time>
  <speed>1.870000</speed>
</trkpt>
<trkpt lat="32.587417603" lon="35.141448975">
  <ele>207.309814</ele>
  <time>2011-09-29T06:57:49Z</time>
  <speed>1.860000</speed>
</trkpt>
<trkpt lat="32.587436676" lon="35.141395569">
  <ele>205.528564</ele>
  <time>2011-09-29T06:57:50Z</time>
  <speed>1.870000</speed>
</trkpt>
<trkpt lat="32.587440491" lon="35.141361237">
  <ele>203.887939</ele>
  <time>2011-09-29T06:57:51Z</time>
  <speed>2.010000</speed>
</trkpt>
<trkpt lat="32.587448120" lon="35.141323090">
  <ele>201.700439</ele>
  <time>2011-09-29T06:57:52Z</time>
  <speed>1.970000</speed>
</trkpt>
<trkpt lat="32.587444305" lon="35.141273499">
  <ele>199.829346</ele>
  <time>2011-09-29T06:57:54Z</time>
  <speed>1.890000</speed>
</trkpt>
<trkpt lat="32.587451935" lon="35.141242981">
  <ele>198.614502</ele>
  <time>2011-09-29T06:57:55Z</time>
  <speed>1.780000</speed>
</trkpt>
<trkpt lat="32.587455750" lon="35.141208649">
  <ele>197.110596</ele>
  <time>2011-09-29T06:57:56Z</time>
  <speed>1.290000</speed>
</trkpt>
<trkpt lat="32.587459564" lon="35.141178131">
  <ele>195.067627</ele>
  <time>2011-09-29T06:57:57Z</time>
  <speed>1.870000</speed>
</trkpt>
<trkpt lat="32.587467194" lon="35.141151428">
  <ele>193.716064</ele>
  <time>2011-09-29T06:57:58Z</time>
  <speed>1.810000</speed>
</trkpt>
<trkpt lat="32.587471008" lon="35.141113281">
  <ele>192.122314</ele>
  <time>2011-09-29T06:57:59Z</time>
  <speed>2.290000</speed>
</trkpt>
<trkpt lat="32.587474823" lon="35.141075134">
  <ele>190.723877</ele>
  <time>2011-09-29T06:58:00Z</time>
  <speed>2.330000</speed>
</trkpt>
<trkpt lat="32.587478638" lon="35.141044617">
  <ele>189.419189</ele>
  <time>2011-09-29T06:58:01Z</time>
  <speed>2.170000</speed>
</trkpt>
<trkpt lat="32.587482452" lon="35.140987396">
  <ele>188.247314</ele>
  <time>2011-09-29T06:58:03Z</time>
  <speed>2.440000</speed>
</trkpt>
<trkpt lat="32.587482452" lon="35.140930176">
  <ele>187.356689</ele>
  <time>2011-09-29T06:58:05Z</time>
  <speed>2.540000</speed>
</trkpt>
<trkpt lat="32.587478638" lon="35.140869141">
  <ele>185.614502</ele>
  <time>2011-09-29T06:58:07Z</time>
  <speed>2.670000</speed>
</trkpt>
<trkpt lat="32.587467194" lon="35.140819550">
  <ele>184.153564</ele>
  <time>2011-09-29T06:58:09Z</time>
  <speed>2.150000</speed>
</trkpt>
<trkpt lat="32.587440491" lon="35.140785217">
  <ele>182.661377</ele>
  <time>2011-09-29T06:58:11Z</time>
  <speed>1.820000</speed>
</trkpt>
<trkpt lat="32.587436676" lon="35.140724182">
  <ele>183.333252</ele>
  <time>2011-09-29T06:58:13Z</time>
  <speed>1.870000</speed>
</trkpt>
<trkpt lat="32.587436676" lon="35.140682220">
  <ele>184.020752</ele>
  <time>2011-09-29T06:58:14Z</time>
  <speed>1.570000</speed>
</trkpt>
<trkpt lat="32.587432861" lon="35.140636444">
  <ele>182.501221</ele>
  <time>2011-09-29T06:58:16Z</time>
  <speed>1.900000</speed>
</trkpt>
<trkpt lat="32.587429047" lon="35.140602112">
  <ele>181.180908</ele>
  <time>2011-09-29T06:58:18Z</time>
  <speed>1.410000</speed>
</trkpt>
<trkpt lat="32.587421417" lon="35.140525818">
  <ele>182.473877</ele>
  <time>2011-09-29T06:58:20Z</time>
  <speed>2.240000</speed>
</trkpt>
<trkpt lat="32.587413788" lon="35.140487671">
  <ele>183.126221</ele>
  <time>2011-09-29T06:58:21Z</time>
  <speed>2.110000</speed>
</trkpt>
<trkpt lat="32.587406158" lon="35.140453339">
  <ele>183.298096</ele>
  <time>2011-09-29T06:58:22Z</time>
  <speed>2.160000</speed>
</trkpt>
<trkpt lat="32.587390900" lon="35.140396118">
  <ele>183.438721</ele>
  <time>2011-09-29T06:58:24Z</time>
  <speed>1.950000</speed>
</trkpt>
<trkpt lat="32.587368011" lon="35.140361786">
  <ele>182.762939</ele>
  <time>2011-09-29T06:58:26Z</time>
  <speed>1.520000</speed>
</trkpt>
<trkpt lat="32.587360382" lon="35.140323639">
  <ele>181.298096</ele>
  <time>2011-09-29T06:58:29Z</time>
  <speed>0.970000</speed>
</trkpt>
<trkpt lat="32.587333679" lon="35.140285492">
  <ele>180.852783</ele>
  <time>2011-09-29T06:58:31Z</time>
  <speed>1.000000</speed>
</trkpt>
<trkpt lat="32.587306976" lon="35.140262604">
  <ele>179.919189</ele>
  <time>2011-09-29T06:58:33Z</time>
  <speed>1.290000</speed>
</trkpt>
<trkpt lat="32.587295532" lon="35.140232086">
  <ele>178.719971</ele>
  <time>2011-09-29T06:58:36Z</time>
  <speed>1.260000</speed>
</trkpt>
<trkpt lat="32.587268829" lon="35.140205383">
  <ele>177.708252</ele>
  <time>2011-09-29T06:58:39Z</time>
  <speed>1.120000</speed>
</trkpt>
<trkpt lat="32.587261200" lon="35.140174866">
  <ele>177.337158</ele>
  <time>2011-09-29T06:58:41Z</time>
  <speed>1.450000</speed>
</trkpt>
<trkpt lat="32.587242126" lon="35.140148163">
  <ele>177.118408</ele>
  <time>2011-09-29T06:58:43Z</time>
  <speed>0.860000</speed>
</trkpt>
<trkpt lat="32.587234497" lon="35.140102386">
  <ele>176.829346</ele>
  <time>2011-09-29T06:58:46Z</time>
  <speed>1.310000</speed>
</trkpt>
<trkpt lat="32.587215424" lon="35.140075684">
  <ele>176.387939</ele>
  <time>2011-09-29T06:58:48Z</time>
  <speed>1.190000</speed>
</trkpt>
<trkpt lat="32.587196350" lon="35.140033722">
  <ele>175.634033</ele>
  <time>2011-09-29T06:58:51Z</time>
  <speed>1.300000</speed>
</trkpt>
<trkpt lat="32.587184906" lon="35.140007019">
  <ele>175.059814</ele>
  <time>2011-09-29T06:58:53Z</time>
  <speed>1.350000</speed>
</trkpt>
<trkpt lat="32.587169647" lon="35.139968872">
  <ele>174.450439</ele>
  <time>2011-09-29T06:58:56Z</time>
  <speed>1.280000</speed>
</trkpt>
<trkpt lat="32.587162018" lon="35.139926910">
  <ele>174.356689</ele>
  <time>2011-09-29T06:58:58Z</time>
  <speed>1.470000</speed>
</trkpt>
<trkpt lat="32.587142944" lon="35.139873505">
  <ele>173.915283</ele>
  <time>2011-09-29T06:59:00Z</time>
  <speed>1.500000</speed>
</trkpt>
<trkpt lat="32.587123871" lon="35.139839172">
  <ele>173.512939</ele>
  <time>2011-09-29T06:59:02Z</time>
  <speed>1.580000</speed>
</trkpt>
<trkpt lat="32.587093353" lon="35.139816284">
  <ele>173.165283</ele>
  <time>2011-09-29T06:59:05Z</time>
  <speed>1.510000</speed>
</trkpt>
<trkpt lat="32.587066650" lon="35.139789581">
  <ele>173.055908</ele>
  <time>2011-09-29T06:59:07Z</time>
  <speed>1.820000</speed>
</trkpt>
<trkpt lat="32.587047577" lon="35.139759064">
  <ele>172.563721</ele>
  <time>2011-09-29T06:59:09Z</time>
  <speed>1.390000</speed>
</trkpt>
<trkpt lat="32.587028503" lon="35.139724731">
  <ele>172.122314</ele>
  <time>2011-09-29T06:59:11Z</time>
  <speed>1.620000</speed>
</trkpt>
<trkpt lat="32.587009430" lon="35.139698029">
  <ele>171.637939</ele>
  <time>2011-09-29T06:59:13Z</time>
  <speed>1.460000</speed>
</trkpt>
<trkpt lat="32.586982727" lon="35.139682770">
  <ele>171.673096</ele>
  <time>2011-09-29T06:59:16Z</time>
  <speed>0.620000</speed>
</trkpt>
<trkpt lat="32.586971283" lon="35.139648438">
  <ele>172.094971</ele>
  <time>2011-09-29T06:59:18Z</time>
  <speed>1.190000</speed>
</trkpt>
<trkpt lat="32.586952209" lon="35.139602661">
  <ele>172.477783</ele>
  <time>2011-09-29T06:59:21Z</time>
  <speed>1.330000</speed>
</trkpt>
<trkpt lat="32.586940765" lon="35.139568329">
  <ele>171.778564</ele>
  <time>2011-09-29T06:59:24Z</time>
  <speed>0.690000</speed>
</trkpt>
<trkpt lat="32.586917877" lon="35.139537811">
  <ele>171.137939</ele>
  <time>2011-09-29T06:59:27Z</time>
  <speed>1.020000</speed>
</trkpt>
<trkpt lat="32.586894989" lon="35.139514923">
  <ele>170.993408</ele>
  <time>2011-09-29T06:59:28Z</time>
  <speed>1.370000</speed>
</trkpt>
<trkpt lat="32.586864471" lon="35.139492035">
  <ele>170.415283</ele>
  <time>2011-09-29T06:59:30Z</time>
  <speed>1.120000</speed>
</trkpt>
<trkpt lat="32.586856842" lon="35.139453888">
  <ele>169.809814</ele>
  <time>2011-09-29T06:59:33Z</time>
  <speed>0.980000</speed>
</trkpt>
<trkpt lat="32.586841583" lon="35.139419556">
  <ele>168.942627</ele>
  <time>2011-09-29T06:59:37Z</time>
  <speed>1.040000</speed>
</trkpt>
<trkpt lat="32.586826324" lon="35.139366150">
  <ele>168.677002</ele>
  <time>2011-09-29T06:59:41Z</time>
  <speed>0.880000</speed>
</trkpt>
<trkpt lat="32.586803436" lon="35.139305115">
  <ele>168.454346</ele>
  <time>2011-09-29T06:59:43Z</time>
  <speed>1.490000</speed>
</trkpt>
<trkpt lat="32.586803436" lon="35.139259338">
  <ele>169.001221</ele>
  <time>2011-09-29T06:59:44Z</time>
  <speed>1.590000</speed>
</trkpt>
<trkpt lat="32.586791992" lon="35.139221191">
  <ele>169.130127</ele>
  <time>2011-09-29T06:59:47Z</time>
  <speed>1.570000</speed>
</trkpt>
<trkpt lat="32.586769104" lon="35.139186859">
  <ele>169.001221</ele>
  <time>2011-09-29T06:59:49Z</time>
  <speed>1.170000</speed>
</trkpt>
<trkpt lat="32.586769104" lon="35.139152527">
  <ele>168.657471</ele>
  <time>2011-09-29T06:59:51Z</time>
  <speed>1.010000</speed>
</trkpt>
<trkpt lat="32.586757660" lon="35.139106750">
  <ele>169.032471</ele>
  <time>2011-09-29T06:59:53Z</time>
  <speed>1.130000</speed>
</trkpt>
<trkpt lat="32.586746216" lon="35.139064789">
  <ele>169.727783</ele>
  <time>2011-09-29T06:59:55Z</time>
  <speed>0.760000</speed>
</trkpt>
<trkpt lat="32.586723328" lon="35.139019012">
  <ele>170.052002</ele>
  <time>2011-09-29T06:59:57Z</time>
  <speed>1.190000</speed>
</trkpt>
<trkpt lat="32.586696625" lon="35.138988495">
  <ele>169.848877</ele>
  <time>2011-09-29T06:59:59Z</time>
  <speed>1.430000</speed>
</trkpt>
<trkpt lat="32.586673737" lon="35.138965607">
  <ele>170.079346</ele>
  <time>2011-09-29T07:00:01Z</time>
  <speed>1.520000</speed>
</trkpt>
<trkpt lat="32.586677551" lon="35.138919830">
  <ele>169.458252</ele>
  <time>2011-09-29T07:00:04Z</time>
  <speed>1.160000</speed>
</trkpt>
<trkpt lat="32.586650848" lon="35.138881683">
  <ele>169.427002</ele>
  <time>2011-09-29T07:00:08Z</time>
  <speed>0.800000</speed>
</trkpt>
<trkpt lat="32.586635590" lon="35.138851166">
  <ele>169.208252</ele>
  <time>2011-09-29T07:00:10Z</time>
  <speed>0.930000</speed>
</trkpt>
<trkpt lat="32.586639404" lon="35.138809204">
  <ele>169.997314</ele>
  <time>2011-09-29T07:00:14Z</time>
  <speed>0.830000</speed>
</trkpt>
<trkpt lat="32.586624146" lon="35.138786316">
  <ele>171.114502</ele>
  <time>2011-09-29T07:00:18Z</time>
  <speed>0.720000</speed>
</trkpt>
<trkpt lat="32.586620331" lon="35.138744354">
  <ele>170.512939</ele>
  <time>2011-09-29T07:00:22Z</time>
  <speed>0.820000</speed>
</trkpt>
<trkpt lat="32.586620331" lon="35.138698578">
  <ele>170.259033</ele>
  <time>2011-09-29T07:00:23Z</time>
  <speed>1.170000</speed>
</trkpt>
<trkpt lat="32.586620331" lon="35.138664246">
  <ele>170.114502</ele>
  <time>2011-09-29T07:00:25Z</time>
  <speed>1.310000</speed>
</trkpt>
<trkpt lat="32.586620331" lon="35.138629913">
  <ele>170.298096</ele>
  <time>2011-09-29T07:00:27Z</time>
  <speed>1.090000</speed>
</trkpt>
<trkpt lat="32.586620331" lon="35.138587952">
  <ele>170.376221</ele>
  <time>2011-09-29T07:00:29Z</time>
  <speed>1.290000</speed>
</trkpt>
<trkpt lat="32.586612701" lon="35.138553619">
  <ele>169.919189</ele>
  <time>2011-09-29T07:00:32Z</time>
  <speed>0.900000</speed>
</trkpt>
<trkpt lat="32.586601257" lon="35.138504028">
  <ele>172.637939</ele>
  <time>2011-09-29T07:00:35Z</time>
  <speed>1.090000</speed>
</trkpt>
<trkpt lat="32.586555481" lon="35.138481140">
  <ele>178.911377</ele>
  <time>2011-09-29T07:00:38Z</time>
  <speed>1.170000</speed>
</trkpt>
<trkpt lat="32.586528778" lon="35.138462067">
  <ele>182.512939</ele>
  <time>2011-09-29T07:00:41Z</time>
  <speed>1.200000</speed>
</trkpt>
<trkpt lat="32.586524963" lon="35.138454437">
  <ele>188.376221</ele>
  <time>2011-09-29T07:00:43Z</time>
  <speed>1.320000</speed>
</trkpt>
<trkpt lat="32.586521149" lon="35.138442993">
  <ele>191.356689</ele>
  <time>2011-09-29T07:00:44Z</time>
  <speed>1.040000</speed>
</trkpt>
<trkpt lat="32.586513519" lon="35.138404846">
  <ele>195.766846</ele>
  <time>2011-09-29T07:00:46Z</time>
  <speed>1.320000</speed>
</trkpt>
<trkpt lat="32.586505890" lon="35.138397217">
  <ele>198.688721</ele>
  <time>2011-09-29T07:00:47Z</time>
  <speed>1.280000</speed>
</trkpt>
<trkpt lat="32.586509705" lon="35.138366699">
  <ele>201.813721</ele>
  <time>2011-09-29T07:00:49Z</time>
  <speed>1.450000</speed>
</trkpt>
<trkpt lat="32.586509705" lon="35.138324738">
  <ele>202.766846</ele>
  <time>2011-09-29T07:00:52Z</time>
  <speed>1.100000</speed>
</trkpt>
<trkpt lat="32.586513519" lon="35.138286591">
  <ele>204.794189</ele>
  <time>2011-09-29T07:00:55Z</time>
  <speed>1.350000</speed>
</trkpt>
<trkpt lat="32.586517334" lon="35.138248444">
  <ele>205.469971</ele>
  <time>2011-09-29T07:00:58Z</time>
  <speed>1.430000</speed>
</trkpt>
<trkpt lat="32.586502075" lon="35.138217926">
  <ele>207.059814</ele>
  <time>2011-09-29T07:01:00Z</time>
  <speed>0.970000</speed>
</trkpt>
<trkpt lat="32.586486816" lon="35.138187408">
  <ele>208.114502</ele>
  <time>2011-09-29T07:01:03Z</time>
  <speed>0.670000</speed>
</trkpt>
<trkpt lat="32.586483002" lon="35.138160706">
  <ele>209.462158</ele>
  <time>2011-09-29T07:01:05Z</time>
  <speed>0.900000</speed>
</trkpt>
<trkpt lat="32.586475372" lon="35.138114929">
  <ele>210.516846</ele>
  <time>2011-09-29T07:01:08Z</time>
  <speed>1.000000</speed>
</trkpt>
<trkpt lat="32.586467743" lon="35.138076782">
  <ele>211.126221</ele>
  <time>2011-09-29T07:01:11Z</time>
  <speed>0.790000</speed>
</trkpt>
<trkpt lat="32.586463928" lon="35.138038635">
  <ele>211.419189</ele>
  <time>2011-09-29T07:01:14Z</time>
  <speed>1.040000</speed>
</trkpt>
<trkpt lat="32.586475372" lon="35.138000488">
  <ele>212.266846</ele>
  <time>2011-09-29T07:01:17Z</time>
  <speed>0.760000</speed>
</trkpt>
<trkpt lat="32.586483002" lon="35.137950897">
  <ele>212.739502</ele>
  <time>2011-09-29T07:01:20Z</time>
  <speed>0.980000</speed>
</trkpt>
<trkpt lat="32.586483002" lon="35.137912750">
  <ele>212.837158</ele>
  <time>2011-09-29T07:01:23Z</time>
  <speed>1.000000</speed>
</trkpt>
<trkpt lat="32.586483002" lon="35.137882233">
  <ele>214.134033</ele>
  <time>2011-09-29T07:01:26Z</time>
  <speed>0.690000</speed>
</trkpt>
<trkpt lat="32.586494446" lon="35.137840271">
  <ele>214.622314</ele>
  <time>2011-09-29T07:01:30Z</time>
  <speed>0.910000</speed>
</trkpt>
<trkpt lat="32.586509705" lon="35.137802124">
  <ele>215.141846</ele>
  <time>2011-09-29T07:01:33Z</time>
  <speed>0.900000</speed>
</trkpt>
<trkpt lat="32.586513519" lon="35.137760162">
  <ele>215.208252</ele>
  <time>2011-09-29T07:01:35Z</time>
  <speed>1.070000</speed>
</trkpt>
<trkpt lat="32.586524963" lon="35.137722015">
  <ele>215.110596</ele>
  <time>2011-09-29T07:01:37Z</time>
  <speed>1.350000</speed>
</trkpt>
<trkpt lat="32.586528778" lon="35.137691498">
  <ele>215.309814</ele>
  <time>2011-09-29T07:01:40Z</time>
  <speed>0.840000</speed>
</trkpt>
<trkpt lat="32.586532593" lon="35.137638092">
  <ele>215.598877</ele>
  <time>2011-09-29T07:01:43Z</time>
  <speed>1.070000</speed>
</trkpt>
<trkpt lat="32.586532593" lon="35.137603760">
  <ele>216.204346</ele>
  <time>2011-09-29T07:01:45Z</time>
  <speed>1.170000</speed>
</trkpt>
<trkpt lat="32.586532593" lon="35.137554169">
  <ele>216.884033</ele>
  <time>2011-09-29T07:01:48Z</time>
  <speed>0.920000</speed>
</trkpt>
<trkpt lat="32.586536407" lon="35.137516022">
  <ele>216.794189</ele>
  <time>2011-09-29T07:01:50Z</time>
  <speed>0.920000</speed>
</trkpt>
<trkpt lat="32.586540222" lon="35.137477875">
  <ele>216.950439</ele>
  <time>2011-09-29T07:01:53Z</time>
  <speed>1.040000</speed>
</trkpt>
<trkpt lat="32.586532593" lon="35.137447357">
  <ele>218.966064</ele>
  <time>2011-09-29T07:01:56Z</time>
  <speed>1.140000</speed>
</trkpt>
<trkpt lat="32.586536407" lon="35.137416840">
  <ele>221.001221</ele>
  <time>2011-09-29T07:02:00Z</time>
  <speed>0.670000</speed>
</trkpt>
<trkpt lat="32.586547852" lon="35.137390137">
  <ele>222.817627</ele>
  <time>2011-09-29T07:02:02Z</time>
  <speed>0.880000</speed>
</trkpt>
<trkpt lat="32.586551666" lon="35.137351990">
  <ele>223.231689</ele>
  <time>2011-09-29T07:02:04Z</time>
  <speed>0.970000</speed>
</trkpt>
<trkpt lat="32.586551666" lon="35.137306213">
  <ele>223.813721</ele>
  <time>2011-09-29T07:02:07Z</time>
  <speed>1.080000</speed>
</trkpt>
<trkpt lat="32.586559296" lon="35.137271881">
  <ele>224.145752</ele>
  <time>2011-09-29T07:02:09Z</time>
  <speed>1.190000</speed>
</trkpt>
<trkpt lat="32.586563110" lon="35.137229919">
  <ele>224.778564</ele>
  <time>2011-09-29T07:02:11Z</time>
  <speed>0.890000</speed>
</trkpt>
<trkpt lat="32.586559296" lon="35.137187958">
  <ele>226.770752</ele>
  <time>2011-09-29T07:02:14Z</time>
  <speed>0.860000</speed>
</trkpt>
<trkpt lat="32.586551666" lon="35.137161255">
  <ele>227.981689</ele>
  <time>2011-09-29T07:02:16Z</time>
  <speed>0.880000</speed>
</trkpt>
<trkpt lat="32.586551666" lon="35.137130737">
  <ele>229.384033</ele>
  <time>2011-09-29T07:02:18Z</time>
  <speed>1.590000</speed>
</trkpt>
<trkpt lat="32.586555481" lon="35.137096405">
  <ele>229.680908</ele>
  <time>2011-09-29T07:02:20Z</time>
  <speed>1.070000</speed>
</trkpt>
<trkpt lat="32.586563110" lon="35.137065887">
  <ele>229.477783</ele>
  <time>2011-09-29T07:02:23Z</time>
  <speed>1.040000</speed>
</trkpt>
<trkpt lat="32.586563110" lon="35.137023926">
  <ele>230.219971</ele>
  <time>2011-09-29T07:02:26Z</time>
  <speed>1.280000</speed>
</trkpt>
<trkpt lat="32.586559296" lon="35.136981964">
  <ele>231.122314</ele>
  <time>2011-09-29T07:02:29Z</time>
  <speed>1.130000</speed>
</trkpt>
<trkpt lat="32.586570740" lon="35.136947632">
  <ele>230.415283</ele>
  <time>2011-09-29T07:02:32Z</time>
  <speed>1.180000</speed>
</trkpt>
<trkpt lat="32.586570740" lon="35.136909485">
  <ele>230.704346</ele>
  <time>2011-09-29T07:02:35Z</time>
  <speed>1.150000</speed>
</trkpt>
<trkpt lat="32.586574554" lon="35.136867523">
  <ele>230.598877</ele>
  <time>2011-09-29T07:02:38Z</time>
  <speed>1.000000</speed>
</trkpt>
<trkpt lat="32.586578369" lon="35.136829376">
  <ele>230.477783</ele>
  <time>2011-09-29T07:02:40Z</time>
  <speed>1.110000</speed>
</trkpt>
<trkpt lat="32.586582184" lon="35.136791229">
  <ele>231.583252</ele>
  <time>2011-09-29T07:02:43Z</time>
  <speed>0.910000</speed>
</trkpt>
<trkpt lat="32.586593628" lon="35.136753082">
  <ele>231.270752</ele>
  <time>2011-09-29T07:02:47Z</time>
  <speed>0.880000</speed>
</trkpt>
<trkpt lat="32.586605072" lon="35.136722565">
  <ele>231.266846</ele>
  <time>2011-09-29T07:02:50Z</time>
  <speed>0.980000</speed>
</trkpt>
<trkpt lat="32.586605072" lon="35.136684418">
  <ele>230.673096</ele>
  <time>2011-09-29T07:02:53Z</time>
  <speed>0.790000</speed>
</trkpt>
<trkpt lat="32.586612701" lon="35.136650085">
  <ele>229.805908</ele>
  <time>2011-09-29T07:02:56Z</time>
  <speed>0.880000</speed>
</trkpt>
<trkpt lat="32.586601257" lon="35.136611938">
  <ele>229.313721</ele>
  <time>2011-09-29T07:02:59Z</time>
  <speed>0.930000</speed>
</trkpt>
<trkpt lat="32.586597443" lon="35.136573792">
  <ele>228.950439</ele>
  <time>2011-09-29T07:03:01Z</time>
  <speed>1.050000</speed>
</trkpt>
<trkpt lat="32.586605072" lon="35.136543274">
  <ele>228.966064</ele>
  <time>2011-09-29T07:03:02Z</time>
  <speed>1.220000</speed>
</trkpt>
<trkpt lat="32.586605072" lon="35.136508942">
  <ele>229.227783</ele>
  <time>2011-09-29T07:03:04Z</time>
  <speed>1.200000</speed>
</trkpt>
<trkpt lat="32.586597443" lon="35.136463165">
  <ele>229.153564</ele>
  <time>2011-09-29T07:03:07Z</time>
  <speed>0.950000</speed>
</trkpt>
<trkpt lat="32.586582184" lon="35.136432648">
  <ele>229.653564</ele>
  <time>2011-09-29T07:03:10Z</time>
  <speed>0.790000</speed>
</trkpt>
<trkpt lat="32.586578369" lon="35.136386871">
  <ele>229.575439</ele>
  <time>2011-09-29T07:03:13Z</time>
  <speed>0.770000</speed>
</trkpt>
<trkpt lat="32.586585999" lon="35.136352539">
  <ele>229.130127</ele>
  <time>2011-09-29T07:03:14Z</time>
  <speed>0.830000</speed>
</trkpt>
<trkpt lat="32.586578369" lon="35.136322021">
  <ele>230.325439</ele>
  <time>2011-09-29T07:03:16Z</time>
  <speed>1.030000</speed>
</trkpt>
<trkpt lat="32.586574554" lon="35.136283875">
  <ele>229.997314</ele>
  <time>2011-09-29T07:03:19Z</time>
  <speed>0.990000</speed>
</trkpt>
<trkpt lat="32.586570740" lon="35.136230469">
  <ele>229.427002</ele>
  <time>2011-09-29T07:03:22Z</time>
  <speed>1.320000</speed>
</trkpt>
<trkpt lat="32.586570740" lon="35.136188507">
  <ele>229.075439</ele>
  <time>2011-09-29T07:03:25Z</time>
  <speed>1.270000</speed>
</trkpt>
<trkpt lat="32.586578369" lon="35.136150360">
  <ele>229.036377</ele>
  <time>2011-09-29T07:03:27Z</time>
  <speed>1.210000</speed>
</trkpt>
<trkpt lat="32.586585999" lon="35.136104584">
  <ele>228.813721</ele>
  <time>2011-09-29T07:03:28Z</time>
  <speed>1.160000</speed>
</trkpt>
<trkpt lat="32.586593628" lon="35.136070251">
  <ele>228.524658</ele>
  <time>2011-09-29T07:03:31Z</time>
  <speed>1.130000</speed>
</trkpt>
<trkpt lat="32.586593628" lon="35.136039734">
  <ele>228.048096</ele>
  <time>2011-09-29T07:03:33Z</time>
  <speed>1.230000</speed>
</trkpt>
<trkpt lat="32.586578369" lon="35.136005402">
  <ele>228.294189</ele>
  <time>2011-09-29T07:03:35Z</time>
  <speed>1.160000</speed>
</trkpt>
<trkpt lat="32.586563110" lon="35.135971069">
  <ele>228.509033</ele>
  <time>2011-09-29T07:03:38Z</time>
  <speed>1.320000</speed>
</trkpt>
<trkpt lat="32.586563110" lon="35.135940552">
  <ele>228.434814</ele>
  <time>2011-09-29T07:03:40Z</time>
  <speed>1.120000</speed>
</trkpt>
<trkpt lat="32.586547852" lon="35.135898590">
  <ele>229.055908</ele>
  <time>2011-09-29T07:03:43Z</time>
  <speed>1.150000</speed>
</trkpt>
<trkpt lat="32.586540222" lon="35.135856628">
  <ele>229.149658</ele>
  <time>2011-09-29T07:03:46Z</time>
  <speed>1.250000</speed>
</trkpt>
<trkpt lat="32.586536407" lon="35.135829926">
  <ele>230.329346</ele>
  <time>2011-09-29T07:03:49Z</time>
  <speed>1.160000</speed>
</trkpt>
<trkpt lat="32.586524963" lon="35.135803223">
  <ele>232.899658</ele>
  <time>2011-09-29T07:03:52Z</time>
  <speed>0.970000</speed>
</trkpt>
<trkpt lat="32.586490631" lon="35.135791779">
  <ele>235.282471</ele>
  <time>2011-09-29T07:03:55Z</time>
  <speed>0.900000</speed>
</trkpt>
<trkpt lat="32.586467743" lon="35.135803223">
  <ele>237.887939</ele>
  <time>2011-09-29T07:03:57Z</time>
  <speed>0.280000</speed>
</trkpt>
<trkpt lat="32.586448669" lon="35.135818481">
  <ele>240.438721</ele>
  <time>2011-09-29T07:04:00Z</time>
  <speed>0.110000</speed>
</trkpt>
<trkpt lat="32.586433411" lon="35.135814667">
  <ele>237.934814</ele>
  <time>2011-09-29T07:04:18Z</time>
  <speed>0.050000</speed>
</trkpt>
<trkpt lat="32.586402893" lon="35.135807037">
  <ele>237.583252</ele>
  <time>2011-09-29T07:05:03Z</time>
  <speed>1.630000</speed>
</trkpt>
<trkpt lat="32.586380005" lon="35.135776520">
  <ele>239.462158</ele>
  <time>2011-09-29T07:05:06Z</time>
  <speed>1.340000</speed>
</trkpt>
<trkpt lat="32.586341858" lon="35.135765076">
  <ele>240.743408</ele>
  <time>2011-09-29T07:05:09Z</time>
  <speed>1.600000</speed>
</trkpt>
<trkpt lat="32.586307526" lon="35.135761261">
  <ele>240.977783</ele>
  <time>2011-09-29T07:05:12Z</time>
  <speed>1.200000</speed>
</trkpt>
<trkpt lat="32.586280823" lon="35.135742188">
  <ele>242.005127</ele>
  <time>2011-09-29T07:05:14Z</time>
  <speed>1.820000</speed>
</trkpt>
<trkpt lat="32.586257935" lon="35.135730743">
  <ele>243.184814</ele>
  <time>2011-09-29T07:05:16Z</time>
  <speed>1.360000</speed>
</trkpt>
<trkpt lat="32.586231232" lon="35.135738373">
  <ele>243.684814</ele>
  <time>2011-09-29T07:05:18Z</time>
  <speed>1.650000</speed>
</trkpt>
<trkpt lat="32.586193085" lon="35.135757446">
  <ele>244.872314</ele>
  <time>2011-09-29T07:05:20Z</time>
  <speed>1.770000</speed>
</trkpt>
<trkpt lat="32.586154938" lon="35.135784149">
  <ele>245.989502</ele>
  <time>2011-09-29T07:05:22Z</time>
  <speed>1.630000</speed>
</trkpt>
<trkpt lat="32.586132050" lon="35.135818481">
  <ele>247.716064</ele>
  <time>2011-09-29T07:05:24Z</time>
  <speed>1.280000</speed>
</trkpt>
<trkpt lat="32.586109161" lon="35.135852814">
  <ele>249.098877</ele>
  <time>2011-09-29T07:05:26Z</time>
  <speed>1.600000</speed>
</trkpt>
<trkpt lat="32.586086273" lon="35.135879517">
  <ele>249.712158</ele>
  <time>2011-09-29T07:05:28Z</time>
  <speed>1.240000</speed>
</trkpt>
<trkpt lat="32.586063385" lon="35.135902405">
  <ele>251.122314</ele>
  <time>2011-09-29T07:05:30Z</time>
  <speed>1.500000</speed>
</trkpt>
<trkpt lat="32.586032867" lon="35.135925293">
  <ele>251.177002</ele>
  <time>2011-09-29T07:05:32Z</time>
  <speed>1.060000</speed>
</trkpt>
<trkpt lat="32.586013794" lon="35.135951996">
  <ele>252.282471</ele>
  <time>2011-09-29T07:05:35Z</time>
  <speed>0.740000</speed>
</trkpt>
<trkpt lat="32.585987091" lon="35.135955811">
  <ele>252.782471</ele>
  <time>2011-09-29T07:05:37Z</time>
  <speed>1.650000</speed>
</trkpt>
<trkpt lat="32.585948944" lon="35.135967255">
  <ele>254.641846</ele>
  <time>2011-09-29T07:05:39Z</time>
  <speed>1.530000</speed>
</trkpt>
<trkpt lat="32.585910797" lon="35.135971069">
  <ele>255.188721</ele>
  <time>2011-09-29T07:05:42Z</time>
  <speed>1.410000</speed>
</trkpt>
<trkpt lat="32.585880280" lon="35.135982513">
  <ele>256.455566</ele>
  <time>2011-09-29T07:05:44Z</time>
  <speed>1.340000</speed>
</trkpt>
<trkpt lat="32.585834503" lon="35.135986328">
  <ele>257.744629</ele>
  <time>2011-09-29T07:05:47Z</time>
  <speed>1.010000</speed>
</trkpt>
<trkpt lat="32.585807800" lon="35.135986328">
  <ele>258.479004</ele>
  <time>2011-09-29T07:05:49Z</time>
  <speed>0.990000</speed>
</trkpt>
<trkpt lat="32.585784912" lon="35.136005402">
  <ele>259.432129</ele>
  <time>2011-09-29T07:05:51Z</time>
  <speed>1.000000</speed>
</trkpt>
<trkpt lat="32.585754395" lon="35.136028290">
  <ele>261.314941</ele>
  <time>2011-09-29T07:05:54Z</time>
  <speed>1.080000</speed>
</trkpt>
<trkpt lat="32.585727692" lon="35.136047363">
  <ele>262.229004</ele>
  <time>2011-09-29T07:05:57Z</time>
  <speed>0.840000</speed>
</trkpt>
<trkpt lat="32.585697174" lon="35.136035919">
  <ele>263.627441</ele>
  <time>2011-09-29T07:06:00Z</time>
  <speed>0.920000</speed>
</trkpt>
<trkpt lat="32.585681915" lon="35.135997772">
  <ele>264.002441</ele>
  <time>2011-09-29T07:06:04Z</time>
  <speed>1.090000</speed>
</trkpt>
<trkpt lat="32.585670471" lon="35.135971069">
  <ele>265.229004</ele>
  <time>2011-09-29T07:06:07Z</time>
  <speed>0.680000</speed>
</trkpt>
<trkpt lat="32.585651398" lon="35.135967255">
  <ele>267.588379</ele>
  <time>2011-09-29T07:06:18Z</time>
  <speed>0.060000</speed>
</trkpt>
<trkpt lat="32.585662842" lon="35.135951996">
  <ele>270.143066</ele>
  <time>2011-09-29T07:06:30Z</time>
  <speed>0.150000</speed>
</trkpt>
<trkpt lat="32.585655212" lon="35.135944366">
  <ele>272.932129</ele>
  <time>2011-09-29T07:06:43Z</time>
  <speed>0.100000</speed>
</trkpt>
<trkpt lat="32.585647583" lon="35.135940552">
  <ele>275.877441</ele>
  <time>2011-09-29T07:06:56Z</time>
  <speed>0.020000</speed>
</trkpt>
<trkpt lat="32.585639954" lon="35.135940552">
  <ele>278.854004</ele>
  <time>2011-09-29T07:07:08Z</time>
  <speed>0.030000</speed>
</trkpt>
<trkpt lat="32.585624695" lon="35.135929108">
  <ele>281.064941</ele>
  <time>2011-09-29T07:07:15Z</time>
  <speed>0.790000</speed>
</trkpt>
<trkpt lat="32.585601807" lon="35.135906219">
  <ele>282.447754</ele>
  <time>2011-09-29T07:07:18Z</time>
  <speed>0.820000</speed>
</trkpt>
<trkpt lat="32.585586548" lon="35.135879517">
  <ele>283.314941</ele>
  <time>2011-09-29T07:07:21Z</time>
  <speed>0.520000</speed>
</trkpt>
<trkpt lat="32.585586548" lon="35.135829926">
  <ele>283.963379</ele>
  <time>2011-09-29T07:07:26Z</time>
  <speed>1.740000</speed>
</trkpt>
<trkpt lat="32.585582733" lon="35.135791779">
  <ele>283.783691</ele>
  <time>2011-09-29T07:07:28Z</time>
  <speed>1.540000</speed>
</trkpt>
<trkpt lat="32.585578918" lon="35.135753632">
  <ele>283.963379</ele>
  <time>2011-09-29T07:07:30Z</time>
  <speed>1.370000</speed>
</trkpt>
<trkpt lat="32.585582733" lon="35.135719299">
  <ele>284.143066</ele>
  <time>2011-09-29T07:07:32Z</time>
  <speed>1.600000</speed>
</trkpt>
<trkpt lat="32.585586548" lon="35.135669708">
  <ele>284.064941</ele>
  <time>2011-09-29T07:07:35Z</time>
  <speed>1.860000</speed>
</trkpt>
<trkpt lat="32.585586548" lon="35.135631561">
  <ele>284.377441</ele>
  <time>2011-09-29T07:07:37Z</time>
  <speed>1.620000</speed>
</trkpt>
<trkpt lat="32.585590363" lon="35.135601044">
  <ele>284.494629</ele>
  <time>2011-09-29T07:07:39Z</time>
  <speed>1.600000</speed>
</trkpt>
<trkpt lat="32.585590363" lon="35.135562897">
  <ele>284.643066</ele>
  <time>2011-09-29T07:07:41Z</time>
  <speed>1.660000</speed>
</trkpt>
<trkpt lat="32.585590363" lon="35.135528564">
  <ele>284.479004</ele>
  <time>2011-09-29T07:07:43Z</time>
  <speed>1.720000</speed>
</trkpt>
<trkpt lat="32.585590363" lon="35.135486603">
  <ele>284.580566</ele>
  <time>2011-09-29T07:07:45Z</time>
  <speed>1.820000</speed>
</trkpt>
<trkpt lat="32.585590363" lon="35.135444641">
  <ele>284.275879</ele>
  <time>2011-09-29T07:07:47Z</time>
  <speed>1.580000</speed>
</trkpt>
<trkpt lat="32.585590363" lon="35.135398865">
  <ele>284.510254</ele>
  <time>2011-09-29T07:07:49Z</time>
  <speed>1.960000</speed>
</trkpt>
<trkpt lat="32.585594177" lon="35.135364532">
  <ele>284.213379</ele>
  <time>2011-09-29T07:07:51Z</time>
  <speed>1.880000</speed>
</trkpt>
<trkpt lat="32.585590363" lon="35.135326385">
  <ele>283.760254</ele>
  <time>2011-09-29T07:07:53Z</time>
  <speed>1.750000</speed>
</trkpt>
<trkpt lat="32.585586548" lon="35.135292053">
  <ele>283.775879</ele>
  <time>2011-09-29T07:07:55Z</time>
  <speed>1.490000</speed>
</trkpt>
<trkpt lat="32.585586548" lon="35.135253906">
  <ele>283.330566</ele>
  <time>2011-09-29T07:07:57Z</time>
  <speed>1.620000</speed>
</trkpt>
<trkpt lat="32.585586548" lon="35.135215759">
  <ele>283.549316</ele>
  <time>2011-09-29T07:07:59Z</time>
  <speed>1.720000</speed>
</trkpt>
<trkpt lat="32.585590363" lon="35.135177612">
  <ele>282.650879</ele>
  <time>2011-09-29T07:08:01Z</time>
  <speed>1.960000</speed>
</trkpt>
<trkpt lat="32.585594177" lon="35.135143280">
  <ele>281.979004</ele>
  <time>2011-09-29T07:08:03Z</time>
  <speed>1.770000</speed>
</trkpt>
<trkpt lat="32.585594177" lon="35.135108948">
  <ele>281.947754</ele>
  <time>2011-09-29T07:08:05Z</time>
  <speed>1.560000</speed>
</trkpt>
<trkpt lat="32.585597992" lon="35.135074615">
  <ele>281.736816</ele>
  <time>2011-09-29T07:08:07Z</time>
  <speed>1.460000</speed>
</trkpt>
<trkpt lat="32.585605621" lon="35.135040283">
  <ele>281.635254</ele>
  <time>2011-09-29T07:08:09Z</time>
  <speed>1.610000</speed>
</trkpt>
<trkpt lat="32.585613251" lon="35.134998322">
  <ele>281.822754</ele>
  <time>2011-09-29T07:08:11Z</time>
  <speed>1.830000</speed>
</trkpt>
<trkpt lat="32.585617065" lon="35.134960175">
  <ele>281.400879</ele>
  <time>2011-09-29T07:08:13Z</time>
  <speed>1.600000</speed>
</trkpt>
<trkpt lat="32.585620880" lon="35.134925842">
  <ele>281.510254</ele>
  <time>2011-09-29T07:08:15Z</time>
  <speed>1.810000</speed>
</trkpt>
<trkpt lat="32.585628510" lon="35.134887695">
  <ele>280.854004</ele>
  <time>2011-09-29T07:08:17Z</time>
  <speed>1.760000</speed>
</trkpt>
<trkpt lat="32.585632324" lon="35.134849548">
  <ele>280.127441</ele>
  <time>2011-09-29T07:08:19Z</time>
  <speed>1.610000</speed>
</trkpt>
<trkpt lat="32.585639954" lon="35.134811401">
  <ele>280.096191</ele>
  <time>2011-09-29T07:08:21Z</time>
  <speed>1.690000</speed>
</trkpt>
<trkpt lat="32.585639954" lon="35.134769440">
  <ele>280.447754</ele>
  <time>2011-09-29T07:08:23Z</time>
  <speed>1.730000</speed>
</trkpt>
<trkpt lat="32.585647583" lon="35.134735107">
  <ele>280.729004</ele>
  <time>2011-09-29T07:08:25Z</time>
  <speed>1.510000</speed>
</trkpt>
<trkpt lat="32.585666656" lon="35.134693146">
  <ele>280.197754</ele>
  <time>2011-09-29T07:08:28Z</time>
  <speed>1.480000</speed>
</trkpt>
<trkpt lat="32.585678101" lon="35.134647369">
  <ele>280.377441</ele>
  <time>2011-09-29T07:08:31Z</time>
  <speed>1.680000</speed>
</trkpt>
<trkpt lat="32.585689545" lon="35.134605408">
  <ele>281.088379</ele>
  <time>2011-09-29T07:08:34Z</time>
  <speed>1.430000</speed>
</trkpt>
<trkpt lat="32.585700989" lon="35.134571075">
  <ele>280.916504</ele>
  <time>2011-09-29T07:08:36Z</time>
  <speed>1.560000</speed>
</trkpt>
<trkpt lat="32.585712433" lon="35.134540558">
  <ele>281.158691</ele>
  <time>2011-09-29T07:08:38Z</time>
  <speed>1.850000</speed>
</trkpt>
<trkpt lat="32.585723877" lon="35.134502411">
  <ele>281.486816</ele>
  <time>2011-09-29T07:08:40Z</time>
  <speed>1.600000</speed>
</trkpt>
<trkpt lat="32.585742950" lon="35.134468079">
  <ele>281.572754</ele>
  <time>2011-09-29T07:08:42Z</time>
  <speed>1.660000</speed>
</trkpt>
<trkpt lat="32.585754395" lon="35.134437561">
  <ele>281.479004</ele>
  <time>2011-09-29T07:08:44Z</time>
  <speed>1.410000</speed>
</trkpt>
<trkpt lat="32.585769653" lon="35.134407043">
  <ele>281.869629</ele>
  <time>2011-09-29T07:08:46Z</time>
  <speed>1.650000</speed>
</trkpt>
<trkpt lat="32.585792542" lon="35.134368896">
  <ele>281.760254</ele>
  <time>2011-09-29T07:08:48Z</time>
  <speed>1.840000</speed>
</trkpt>
<trkpt lat="32.585811615" lon="35.134334564">
  <ele>281.791504</ele>
  <time>2011-09-29T07:08:50Z</time>
  <speed>1.690000</speed>
</trkpt>
<trkpt lat="32.585830688" lon="35.134304047">
  <ele>282.119629</ele>
  <time>2011-09-29T07:08:52Z</time>
  <speed>1.690000</speed>
</trkpt>
<trkpt lat="32.585845947" lon="35.134273529">
  <ele>282.291504</ele>
  <time>2011-09-29T07:08:54Z</time>
  <speed>1.760000</speed>
</trkpt>
<trkpt lat="32.585853577" lon="35.134243011">
  <ele>282.385254</ele>
  <time>2011-09-29T07:08:56Z</time>
  <speed>1.590000</speed>
</trkpt>
<trkpt lat="32.585865021" lon="35.134208679">
  <ele>282.010254</ele>
  <time>2011-09-29T07:08:58Z</time>
  <speed>1.600000</speed>
</trkpt>
<trkpt lat="32.585876465" lon="35.134174347">
  <ele>281.072754</ele>
  <time>2011-09-29T07:09:00Z</time>
  <speed>1.890000</speed>
</trkpt>
<trkpt lat="32.585895538" lon="35.134140015">
  <ele>281.338379</ele>
  <time>2011-09-29T07:09:02Z</time>
  <speed>1.720000</speed>
</trkpt>
<trkpt lat="32.585910797" lon="35.134113312">
  <ele>281.846191</ele>
  <time>2011-09-29T07:09:04Z</time>
  <speed>1.810000</speed>
</trkpt>
<trkpt lat="32.585918427" lon="35.134078979">
  <ele>282.416504</ele>
  <time>2011-09-29T07:09:06Z</time>
  <speed>1.880000</speed>
</trkpt>
<trkpt lat="32.585929871" lon="35.134048462">
  <ele>282.736816</ele>
  <time>2011-09-29T07:09:08Z</time>
  <speed>1.710000</speed>
</trkpt>
<trkpt lat="32.585948944" lon="35.134017944">
  <ele>283.346191</ele>
  <time>2011-09-29T07:09:10Z</time>
  <speed>1.840000</speed>
</trkpt>
<trkpt lat="32.585971832" lon="35.133987427">
  <ele>284.143066</ele>
  <time>2011-09-29T07:09:12Z</time>
  <speed>2.040000</speed>
</trkpt>
<trkpt lat="32.585998535" lon="35.133956909">
  <ele>284.666504</ele>
  <time>2011-09-29T07:09:14Z</time>
  <speed>2.180000</speed>
</trkpt>
<trkpt lat="32.586029053" lon="35.133926392">
  <ele>285.463379</ele>
  <time>2011-09-29T07:09:16Z</time>
  <speed>2.580000</speed>
</trkpt>
<trkpt lat="32.586063385" lon="35.133895874">
  <ele>285.291504</ele>
  <time>2011-09-29T07:09:18Z</time>
  <speed>2.150000</speed>
</trkpt>
<trkpt lat="32.586101532" lon="35.133869171">
  <ele>284.439941</ele>
  <time>2011-09-29T07:09:20Z</time>
  <speed>2.460000</speed>
</trkpt>
<trkpt lat="32.586143494" lon="35.133842468">
  <ele>284.088379</ele>
  <time>2011-09-29T07:09:22Z</time>
  <speed>2.510000</speed>
</trkpt>
<trkpt lat="32.586177826" lon="35.133815765">
  <ele>283.072754</ele>
  <time>2011-09-29T07:09:24Z</time>
  <speed>2.010000</speed>
</trkpt>
<trkpt lat="32.586219788" lon="35.133792877">
  <ele>282.400879</ele>
  <time>2011-09-29T07:09:26Z</time>
  <speed>2.200000</speed>
</trkpt>
<trkpt lat="32.586257935" lon="35.133777618">
  <ele>281.721191</ele>
  <time>2011-09-29T07:09:28Z</time>
  <speed>2.100000</speed>
</trkpt>
<trkpt lat="32.586299896" lon="35.133766174">
  <ele>280.580566</ele>
  <time>2011-09-29T07:09:30Z</time>
  <speed>2.420000</speed>
</trkpt>
<trkpt lat="32.586341858" lon="35.133754730">
  <ele>280.502441</ele>
  <time>2011-09-29T07:09:32Z</time>
  <speed>2.530000</speed>
</trkpt>
<trkpt lat="32.586380005" lon="35.133750916">
  <ele>281.354004</ele>
  <time>2011-09-29T07:09:34Z</time>
  <speed>2.310000</speed>
</trkpt>
<trkpt lat="32.586421967" lon="35.133739471">
  <ele>281.611816</ele>
  <time>2011-09-29T07:09:36Z</time>
  <speed>2.750000</speed>
</trkpt>
<trkpt lat="32.586471558" lon="35.133728027">
  <ele>283.002441</ele>
  <time>2011-09-29T07:09:38Z</time>
  <speed>3.570000</speed>
</trkpt>
<trkpt lat="32.586502075" lon="35.133724213">
  <ele>283.447754</ele>
  <time>2011-09-29T07:09:39Z</time>
  <speed>3.540000</speed>
</trkpt>
<trkpt lat="32.586532593" lon="35.133720398">
  <ele>283.369629</ele>
  <time>2011-09-29T07:09:40Z</time>
  <speed>3.520000</speed>
</trkpt>
<trkpt lat="32.586559296" lon="35.133716583">
  <ele>283.775879</ele>
  <time>2011-09-29T07:09:41Z</time>
  <speed>4.430000</speed>
</trkpt>
<trkpt lat="32.586597443" lon="35.133705139">
  <ele>283.752441</ele>
  <time>2011-09-29T07:09:42Z</time>
  <speed>4.560000</speed>
</trkpt>
<trkpt lat="32.586643219" lon="35.133686066">
  <ele>283.564941</ele>
  <time>2011-09-29T07:09:43Z</time>
  <speed>5.390000</speed>
</trkpt>
<trkpt lat="32.586688995" lon="35.133666992">
  <ele>283.658691</ele>
  <time>2011-09-29T07:09:44Z</time>
  <speed>5.310000</speed>
</trkpt>
<trkpt lat="32.586734772" lon="35.133640289">
  <ele>284.174316</ele>
  <time>2011-09-29T07:09:45Z</time>
  <speed>5.430000</speed>
</trkpt>
<trkpt lat="32.586776733" lon="35.133609772">
  <ele>283.822754</ele>
  <time>2011-09-29T07:09:46Z</time>
  <speed>4.910000</speed>
</trkpt>
<trkpt lat="32.586814880" lon="35.133575439">
  <ele>283.088379</ele>
  <time>2011-09-29T07:09:47Z</time>
  <speed>4.830000</speed>
</trkpt>
<trkpt lat="32.586837769" lon="35.133537292">
  <ele>283.010254</ele>
  <time>2011-09-29T07:09:48Z</time>
  <speed>3.530000</speed>
</trkpt>
<trkpt lat="32.586853027" lon="35.133499146">
  <ele>282.463379</ele>
  <time>2011-09-29T07:09:49Z</time>
  <speed>3.620000</speed>
</trkpt>
<trkpt lat="32.586864471" lon="35.133460999">
  <ele>282.416504</ele>
  <time>2011-09-29T07:09:50Z</time>
  <speed>3.060000</speed>
</trkpt>
<trkpt lat="32.586875916" lon="35.133430481">
  <ele>282.221191</ele>
  <time>2011-09-29T07:09:51Z</time>
  <speed>2.710000</speed>
</trkpt>
<trkpt lat="32.586883545" lon="35.133373260">
  <ele>281.814941</ele>
  <time>2011-09-29T07:09:53Z</time>
  <speed>2.180000</speed>
</trkpt>
<trkpt lat="32.586887360" lon="35.133316040">
  <ele>281.369629</ele>
  <time>2011-09-29T07:09:55Z</time>
  <speed>2.280000</speed>
</trkpt>
<trkpt lat="32.586891174" lon="35.133262634">
  <ele>280.986816</ele>
  <time>2011-09-29T07:09:57Z</time>
  <speed>2.310000</speed>
</trkpt>
<trkpt lat="32.586891174" lon="35.133216858">
  <ele>281.064941</ele>
  <time>2011-09-29T07:09:59Z</time>
  <speed>2.380000</speed>
</trkpt>
<trkpt lat="32.586887360" lon="35.133163452">
  <ele>281.330566</ele>
  <time>2011-09-29T07:10:01Z</time>
  <speed>2.330000</speed>
</trkpt>
<trkpt lat="32.586879730" lon="35.133113861">
  <ele>281.275879</ele>
  <time>2011-09-29T07:10:03Z</time>
  <speed>2.180000</speed>
</trkpt>
<trkpt lat="32.586872101" lon="35.133068085">
  <ele>281.705566</ele>
  <time>2011-09-29T07:10:05Z</time>
  <speed>2.290000</speed>
</trkpt>
<trkpt lat="32.586872101" lon="35.133018494">
  <ele>280.791504</ele>
  <time>2011-09-29T07:10:07Z</time>
  <speed>2.280000</speed>
</trkpt>
<trkpt lat="32.586864471" lon="35.132984161">
  <ele>281.775879</ele>
  <time>2011-09-29T07:10:08Z</time>
  <speed>2.470000</speed>
</trkpt>
<trkpt lat="32.586856842" lon="35.132930756">
  <ele>281.182129</ele>
  <time>2011-09-29T07:10:10Z</time>
  <speed>2.450000</speed>
</trkpt>
<trkpt lat="32.586849213" lon="35.132877350">
  <ele>280.713379</ele>
  <time>2011-09-29T07:10:12Z</time>
  <speed>2.260000</speed>
</trkpt>
<trkpt lat="32.586833954" lon="35.132823944">
  <ele>280.932129</ele>
  <time>2011-09-29T07:10:14Z</time>
  <speed>2.500000</speed>
</trkpt>
<trkpt lat="32.586826324" lon="35.132762909">
  <ele>279.814941</ele>
  <time>2011-09-29T07:10:16Z</time>
  <speed>2.890000</speed>
</trkpt>
<trkpt lat="32.586814880" lon="35.132732391">
  <ele>279.986816</ele>
  <time>2011-09-29T07:10:17Z</time>
  <speed>3.090000</speed>
</trkpt>
<trkpt lat="32.586803436" lon="35.132701874">
  <ele>279.775879</ele>
  <time>2011-09-29T07:10:18Z</time>
  <speed>3.080000</speed>
</trkpt>
<trkpt lat="32.586788177" lon="35.132640839">
  <ele>279.838379</ele>
  <time>2011-09-29T07:10:20Z</time>
  <speed>3.270000</speed>
</trkpt>
<trkpt lat="32.586772919" lon="35.132610321">
  <ele>280.088379</ele>
  <time>2011-09-29T07:10:21Z</time>
  <speed>3.310000</speed>
</trkpt>
<trkpt lat="32.586757660" lon="35.132579803">
  <ele>279.439941</ele>
  <time>2011-09-29T07:10:22Z</time>
  <speed>3.540000</speed>
</trkpt>
<trkpt lat="32.586738586" lon="35.132553101">
  <ele>279.416504</ele>
  <time>2011-09-29T07:10:23Z</time>
  <speed>3.290000</speed>
</trkpt>
<trkpt lat="32.586715698" lon="35.132526398">
  <ele>279.627441</ele>
  <time>2011-09-29T07:10:24Z</time>
  <speed>3.380000</speed>
</trkpt>
<trkpt lat="32.586692810" lon="35.132495880">
  <ele>279.768066</ele>
  <time>2011-09-29T07:10:25Z</time>
  <speed>3.300000</speed>
</trkpt>
<trkpt lat="32.586673737" lon="35.132472992">
  <ele>279.846191</ele>
  <time>2011-09-29T07:10:26Z</time>
  <speed>2.790000</speed>
</trkpt>
<trkpt lat="32.586631775" lon="35.132438660">
  <ele>279.002441</ele>
  <time>2011-09-29T07:10:28Z</time>
  <speed>2.880000</speed>
</trkpt>
<trkpt lat="32.586601257" lon="35.132423401">
  <ele>279.463379</ele>
  <time>2011-09-29T07:10:29Z</time>
  <speed>2.750000</speed>
</trkpt>
<trkpt lat="32.586559296" lon="35.132404327">
  <ele>279.510254</ele>
  <time>2011-09-29T07:10:31Z</time>
  <speed>2.520000</speed>
</trkpt>
<trkpt lat="32.586521149" lon="35.132381439">
  <ele>278.924316</ele>
  <time>2011-09-29T07:10:33Z</time>
  <speed>2.470000</speed>
</trkpt>
<trkpt lat="32.586475372" lon="35.132350922">
  <ele>279.729004</ele>
  <time>2011-09-29T07:10:35Z</time>
  <speed>3.010000</speed>
</trkpt>
<trkpt lat="32.586452484" lon="35.132328033">
  <ele>280.182129</ele>
  <time>2011-09-29T07:10:36Z</time>
  <speed>3.330000</speed>
</trkpt>
<trkpt lat="32.586433411" lon="35.132305145">
  <ele>280.502441</ele>
  <time>2011-09-29T07:10:37Z</time>
  <speed>3.240000</speed>
</trkpt>
<trkpt lat="32.586399078" lon="35.132259369">
  <ele>280.119629</ele>
  <time>2011-09-29T07:10:39Z</time>
  <speed>2.630000</speed>
</trkpt>
<trkpt lat="32.586357117" lon="35.132225037">
  <ele>282.072754</ele>
  <time>2011-09-29T07:10:41Z</time>
  <speed>2.680000</speed>
</trkpt>
<trkpt lat="32.586334229" lon="35.132213593">
  <ele>283.143066</ele>
  <time>2011-09-29T07:10:42Z</time>
  <speed>2.410000</speed>
</trkpt>
<trkpt lat="32.586299896" lon="35.132190704">
  <ele>284.791504</ele>
  <time>2011-09-29T07:10:44Z</time>
  <speed>2.170000</speed>
</trkpt>
<trkpt lat="32.586257935" lon="35.132175446">
  <ele>284.377441</ele>
  <time>2011-09-29T07:10:46Z</time>
  <speed>2.320000</speed>
</trkpt>
<trkpt lat="32.586215973" lon="35.132167816">
  <ele>285.408691</ele>
  <time>2011-09-29T07:10:48Z</time>
  <speed>2.200000</speed>
</trkpt>
<trkpt lat="32.586181641" lon="35.132164001">
  <ele>285.416504</ele>
  <time>2011-09-29T07:10:50Z</time>
  <speed>1.800000</speed>
</trkpt>
<trkpt lat="32.586135864" lon="35.132152557">
  <ele>286.971191</ele>
  <time>2011-09-29T07:10:52Z</time>
  <speed>1.910000</speed>
</trkpt>
<trkpt lat="32.586101532" lon="35.132144928">
  <ele>287.752441</ele>
  <time>2011-09-29T07:10:54Z</time>
  <speed>1.790000</speed>
</trkpt>
<trkpt lat="32.586071014" lon="35.132129669">
  <ele>287.229004</ele>
  <time>2011-09-29T07:10:56Z</time>
  <speed>2.000000</speed>
</trkpt>
<trkpt lat="32.586040497" lon="35.132118225">
  <ele>287.158691</ele>
  <time>2011-09-29T07:10:58Z</time>
  <speed>2.250000</speed>
</trkpt>
<trkpt lat="32.586002350" lon="35.132106781">
  <ele>287.572754</ele>
  <time>2011-09-29T07:11:00Z</time>
  <speed>2.140000</speed>
</trkpt>
<trkpt lat="32.585968018" lon="35.132091522">
  <ele>287.025879</ele>
  <time>2011-09-29T07:11:02Z</time>
  <speed>2.080000</speed>
</trkpt>
<trkpt lat="32.585933685" lon="35.132080078">
  <ele>287.143066</ele>
  <time>2011-09-29T07:11:04Z</time>
  <speed>2.030000</speed>
</trkpt>
<trkpt lat="32.585895538" lon="35.132068634">
  <ele>287.127441</ele>
  <time>2011-09-29T07:11:06Z</time>
  <speed>1.770000</speed>
</trkpt>
<trkpt lat="32.585861206" lon="35.132061005">
  <ele>288.033691</ele>
  <time>2011-09-29T07:11:08Z</time>
  <speed>2.180000</speed>
</trkpt>
<trkpt lat="32.585823059" lon="35.132053375">
  <ele>288.127441</ele>
  <time>2011-09-29T07:11:10Z</time>
  <speed>2.210000</speed>
</trkpt>
<trkpt lat="32.585781097" lon="35.132041931">
  <ele>287.994629</ele>
  <time>2011-09-29T07:11:12Z</time>
  <speed>2.280000</speed>
</trkpt>
<trkpt lat="32.585742950" lon="35.132030487">
  <ele>287.947754</ele>
  <time>2011-09-29T07:11:14Z</time>
  <speed>1.880000</speed>
</trkpt>
<trkpt lat="32.585708618" lon="35.132019043">
  <ele>288.385254</ele>
  <time>2011-09-29T07:11:16Z</time>
  <speed>1.760000</speed>
</trkpt>
<trkpt lat="32.585670471" lon="35.132011414">
  <ele>288.541504</ele>
  <time>2011-09-29T07:11:18Z</time>
  <speed>1.850000</speed>
</trkpt>
<trkpt lat="32.585636139" lon="35.131996155">
  <ele>288.002441</ele>
  <time>2011-09-29T07:11:20Z</time>
  <speed>2.000000</speed>
</trkpt>
<trkpt lat="32.585605621" lon="35.131988525">
  <ele>288.291504</ele>
  <time>2011-09-29T07:11:22Z</time>
  <speed>1.990000</speed>
</trkpt>
<trkpt lat="32.585575104" lon="35.131980896">
  <ele>289.018066</ele>
  <time>2011-09-29T07:11:24Z</time>
  <speed>1.520000</speed>
</trkpt>
<trkpt lat="32.585540771" lon="35.131988525">
  <ele>290.127441</ele>
  <time>2011-09-29T07:11:26Z</time>
  <speed>1.680000</speed>
</trkpt>
<trkpt lat="32.585506439" lon="35.131988525">
  <ele>289.830566</ele>
  <time>2011-09-29T07:11:28Z</time>
  <speed>2.000000</speed>
</trkpt>
<trkpt lat="32.585475922" lon="35.131996155">
  <ele>289.736816</ele>
  <time>2011-09-29T07:11:30Z</time>
  <speed>1.930000</speed>
</trkpt>
<trkpt lat="32.585437775" lon="35.132007599">
  <ele>290.127441</ele>
  <time>2011-09-29T07:11:32Z</time>
  <speed>2.140000</speed>
</trkpt>
<trkpt lat="32.585403442" lon="35.132034302">
  <ele>289.400879</ele>
  <time>2011-09-29T07:11:34Z</time>
  <speed>2.280000</speed>
</trkpt>
<trkpt lat="32.585369110" lon="35.132061005">
  <ele>288.689941</ele>
  <time>2011-09-29T07:11:36Z</time>
  <speed>2.460000</speed>
</trkpt>
<trkpt lat="32.585338593" lon="35.132083893">
  <ele>287.674316</ele>
  <time>2011-09-29T07:11:38Z</time>
  <speed>2.320000</speed>
</trkpt>
<trkpt lat="32.585304260" lon="35.132106781">
  <ele>287.439941</ele>
  <time>2011-09-29T07:11:40Z</time>
  <speed>2.480000</speed>
</trkpt>
<trkpt lat="32.585262299" lon="35.132125854">
  <ele>287.354004</ele>
  <time>2011-09-29T07:11:42Z</time>
  <speed>2.390000</speed>
</trkpt>
<trkpt lat="32.585220337" lon="35.132144928">
  <ele>286.752441</ele>
  <time>2011-09-29T07:11:44Z</time>
  <speed>2.540000</speed>
</trkpt>
<trkpt lat="32.585178375" lon="35.132156372">
  <ele>286.838379</ele>
  <time>2011-09-29T07:11:46Z</time>
  <speed>2.350000</speed>
</trkpt>
<trkpt lat="32.585140228" lon="35.132171631">
  <ele>286.268066</ele>
  <time>2011-09-29T07:11:48Z</time>
  <speed>2.350000</speed>
</trkpt>
<trkpt lat="32.585098267" lon="35.132186890">
  <ele>286.416504</ele>
  <time>2011-09-29T07:11:50Z</time>
  <speed>2.320000</speed>
</trkpt>
<trkpt lat="32.585056305" lon="35.132198334">
  <ele>286.682129</ele>
  <time>2011-09-29T07:11:52Z</time>
  <speed>2.540000</speed>
</trkpt>
<trkpt lat="32.585018158" lon="35.132209778">
  <ele>286.424316</ele>
  <time>2011-09-29T07:11:54Z</time>
  <speed>2.660000</speed>
</trkpt>
<trkpt lat="32.584964752" lon="35.132205963">
  <ele>286.611816</ele>
  <time>2011-09-29T07:11:56Z</time>
  <speed>2.530000</speed>
</trkpt>
<trkpt lat="32.584918976" lon="35.132198334">
  <ele>285.525879</ele>
  <time>2011-09-29T07:11:58Z</time>
  <speed>2.900000</speed>
</trkpt>
<trkpt lat="32.584869385" lon="35.132198334">
  <ele>286.275879</ele>
  <time>2011-09-29T07:12:00Z</time>
  <speed>2.760000</speed>
</trkpt>
<trkpt lat="32.584819794" lon="35.132194519">
  <ele>286.830566</ele>
  <time>2011-09-29T07:12:02Z</time>
  <speed>3.100000</speed>
</trkpt>
<trkpt lat="32.584789276" lon="35.132190704">
  <ele>287.088379</ele>
  <time>2011-09-29T07:12:03Z</time>
  <speed>3.000000</speed>
</trkpt>
<trkpt lat="32.584758759" lon="35.132186890">
  <ele>287.932129</ele>
  <time>2011-09-29T07:12:04Z</time>
  <speed>3.170000</speed>
</trkpt>
<trkpt lat="32.584732056" lon="35.132179260">
  <ele>288.377441</ele>
  <time>2011-09-29T07:12:05Z</time>
  <speed>3.130000</speed>
</trkpt>
<trkpt lat="32.584701538" lon="35.132171631">
  <ele>288.119629</ele>
  <time>2011-09-29T07:12:06Z</time>
  <speed>3.190000</speed>
</trkpt>
<trkpt lat="32.584674835" lon="35.132167816">
  <ele>287.822754</ele>
  <time>2011-09-29T07:12:07Z</time>
  <speed>3.120000</speed>
</trkpt>
<trkpt lat="32.584648132" lon="35.132160187">
  <ele>287.416504</ele>
  <time>2011-09-29T07:12:08Z</time>
  <speed>2.920000</speed>
</trkpt>
<trkpt lat="32.584617615" lon="35.132152557">
  <ele>287.572754</ele>
  <time>2011-09-29T07:12:09Z</time>
  <speed>2.970000</speed>
</trkpt>
<trkpt lat="32.584590912" lon="35.132148743">
  <ele>288.869629</ele>
  <time>2011-09-29T07:12:10Z</time>
  <speed>3.190000</speed>
</trkpt>
<trkpt lat="32.584560394" lon="35.132148743">
  <ele>289.400879</ele>
  <time>2011-09-29T07:12:11Z</time>
  <speed>3.190000</speed>
</trkpt>
<trkpt lat="32.584529877" lon="35.132137299">
  <ele>289.393066</ele>
  <time>2011-09-29T07:12:12Z</time>
  <speed>3.240000</speed>
</trkpt>
<trkpt lat="32.584503174" lon="35.132133484">
  <ele>289.197754</ele>
  <time>2011-09-29T07:12:13Z</time>
  <speed>3.320000</speed>
</trkpt>
<trkpt lat="32.584472656" lon="35.132125854">
  <ele>289.752441</ele>
  <time>2011-09-29T07:12:14Z</time>
  <speed>3.250000</speed>
</trkpt>
<trkpt lat="32.584442139" lon="35.132118225">
  <ele>290.307129</ele>
  <time>2011-09-29T07:12:15Z</time>
  <speed>3.200000</speed>
</trkpt>
<trkpt lat="32.584415436" lon="35.132110596">
  <ele>290.666504</ele>
  <time>2011-09-29T07:12:16Z</time>
  <speed>3.120000</speed>
</trkpt>
<trkpt lat="32.584384918" lon="35.132106781">
  <ele>290.877441</ele>
  <time>2011-09-29T07:12:17Z</time>
  <speed>3.190000</speed>
</trkpt>
<trkpt lat="32.584358215" lon="35.132095337">
  <ele>290.846191</ele>
  <time>2011-09-29T07:12:18Z</time>
  <speed>3.160000</speed>
</trkpt>
<trkpt lat="32.584327698" lon="35.132087708">
  <ele>291.346191</ele>
  <time>2011-09-29T07:12:19Z</time>
  <speed>3.240000</speed>
</trkpt>
<trkpt lat="32.584300995" lon="35.132080078">
  <ele>291.721191</ele>
  <time>2011-09-29T07:12:20Z</time>
  <speed>3.330000</speed>
</trkpt>
<trkpt lat="32.584270477" lon="35.132076263">
  <ele>292.322754</ele>
  <time>2011-09-29T07:12:21Z</time>
  <speed>3.190000</speed>
</trkpt>
<trkpt lat="32.584220886" lon="35.132061005">
  <ele>292.447754</ele>
  <time>2011-09-29T07:12:23Z</time>
  <speed>3.130000</speed>
</trkpt>
<trkpt lat="32.584167480" lon="35.132053375">
  <ele>292.869629</ele>
  <time>2011-09-29T07:12:25Z</time>
  <speed>3.070000</speed>
</trkpt>
<trkpt lat="32.584140778" lon="35.132053375">
  <ele>293.143066</ele>
  <time>2011-09-29T07:12:26Z</time>
  <speed>3.130000</speed>
</trkpt>
<trkpt lat="32.584087372" lon="35.132053375">
  <ele>293.041504</ele>
  <time>2011-09-29T07:12:28Z</time>
  <speed>3.100000</speed>
</trkpt>
<trkpt lat="32.584056854" lon="35.132061005">
  <ele>293.697754</ele>
  <time>2011-09-29T07:12:29Z</time>
  <speed>3.160000</speed>
</trkpt>
<trkpt lat="32.584030151" lon="35.132061005">
  <ele>293.885254</ele>
  <time>2011-09-29T07:12:30Z</time>
  <speed>3.110000</speed>
</trkpt>
<trkpt lat="32.584003448" lon="35.132064819">
  <ele>294.221191</ele>
  <time>2011-09-29T07:12:31Z</time>
  <speed>3.170000</speed>
</trkpt>
<trkpt lat="32.583972931" lon="35.132064819">
  <ele>294.330566</ele>
  <time>2011-09-29T07:12:32Z</time>
  <speed>3.210000</speed>
</trkpt>
<trkpt lat="32.583919525" lon="35.132064819">
  <ele>294.588379</ele>
  <time>2011-09-29T07:12:34Z</time>
  <speed>3.030000</speed>
</trkpt>
<trkpt lat="32.583892822" lon="35.132064819">
  <ele>294.893066</ele>
  <time>2011-09-29T07:12:35Z</time>
  <speed>2.940000</speed>
</trkpt>
<trkpt lat="32.583862305" lon="35.132072449">
  <ele>295.439941</ele>
  <time>2011-09-29T07:12:36Z</time>
  <speed>2.920000</speed>
</trkpt>
<trkpt lat="32.583839417" lon="35.132080078">
  <ele>295.455566</ele>
  <time>2011-09-29T07:12:37Z</time>
  <speed>2.930000</speed>
</trkpt>
<trkpt lat="32.583786011" lon="35.132099152">
  <ele>295.549316</ele>
  <time>2011-09-29T07:12:39Z</time>
  <speed>2.960000</speed>
</trkpt>
<trkpt lat="32.583755493" lon="35.132106781">
  <ele>296.127441</ele>
  <time>2011-09-29T07:12:40Z</time>
  <speed>2.930000</speed>
</trkpt>
<trkpt lat="32.583728790" lon="35.132114410">
  <ele>296.682129</ele>
  <time>2011-09-29T07:12:41Z</time>
  <speed>2.880000</speed>
</trkpt>
<trkpt lat="32.583679199" lon="35.132133484">
  <ele>297.064941</ele>
  <time>2011-09-29T07:12:43Z</time>
  <speed>2.940000</speed>
</trkpt>
<trkpt lat="32.583652496" lon="35.132144928">
  <ele>297.557129</ele>
  <time>2011-09-29T07:12:44Z</time>
  <speed>2.780000</speed>
</trkpt>
<trkpt lat="32.583602905" lon="35.132164001">
  <ele>296.822754</ele>
  <time>2011-09-29T07:12:46Z</time>
  <speed>2.860000</speed>
</trkpt>
<trkpt lat="32.583576202" lon="35.132186890">
  <ele>300.197754</ele>
  <time>2011-09-29T07:12:47Z</time>
  <speed>2.690000</speed>
</trkpt>
<trkpt lat="32.583538055" lon="35.132225037">
  <ele>301.393066</ele>
  <time>2011-09-29T07:12:49Z</time>
  <speed>2.910000</speed>
</trkpt>
<trkpt lat="32.583515167" lon="35.132244110">
  <ele>302.080566</ele>
  <time>2011-09-29T07:12:50Z</time>
  <speed>2.970000</speed>
</trkpt>
<trkpt lat="32.583488464" lon="35.132263184">
  <ele>302.510254</ele>
  <time>2011-09-29T07:12:51Z</time>
  <speed>3.300000</speed>
</trkpt>
<trkpt lat="32.583438873" lon="35.132297516">
  <ele>303.588379</ele>
  <time>2011-09-29T07:12:53Z</time>
  <speed>3.090000</speed>
</trkpt>
<trkpt lat="32.583412170" lon="35.132316589">
  <ele>305.361816</ele>
  <time>2011-09-29T07:12:54Z</time>
  <speed>2.960000</speed>
</trkpt>
<trkpt lat="32.583389282" lon="35.132335663">
  <ele>305.463379</ele>
  <time>2011-09-29T07:12:55Z</time>
  <speed>3.000000</speed>
</trkpt>
<trkpt lat="32.583343506" lon="35.132369995">
  <ele>304.627441</ele>
  <time>2011-09-29T07:12:57Z</time>
  <speed>3.170000</speed>
</trkpt>
<trkpt lat="32.583320618" lon="35.132389069">
  <ele>305.377441</ele>
  <time>2011-09-29T07:12:58Z</time>
  <speed>3.030000</speed>
</trkpt>
<trkpt lat="32.583271027" lon="35.132427216">
  <ele>306.369629</ele>
  <time>2011-09-29T07:13:00Z</time>
  <speed>3.080000</speed>
</trkpt>
<trkpt lat="32.583248138" lon="35.132442474">
  <ele>306.236816</ele>
  <time>2011-09-29T07:13:01Z</time>
  <speed>3.320000</speed>
</trkpt>
<trkpt lat="32.583221436" lon="35.132461548">
  <ele>306.971191</ele>
  <time>2011-09-29T07:13:02Z</time>
  <speed>3.270000</speed>
</trkpt>
<trkpt lat="32.583194733" lon="35.132480621">
  <ele>308.377441</ele>
  <time>2011-09-29T07:13:03Z</time>
  <speed>3.090000</speed>
</trkpt>
<trkpt lat="32.583168030" lon="35.132499695">
  <ele>308.049316</ele>
  <time>2011-09-29T07:13:04Z</time>
  <speed>3.550000</speed>
</trkpt>
<trkpt lat="32.583145142" lon="35.132518768">
  <ele>307.760254</ele>
  <time>2011-09-29T07:13:05Z</time>
  <speed>3.550000</speed>
</trkpt>
<trkpt lat="32.583118439" lon="35.132537842">
  <ele>307.393066</ele>
  <time>2011-09-29T07:13:06Z</time>
  <speed>3.410000</speed>
</trkpt>
<trkpt lat="32.583087921" lon="35.132556915">
  <ele>308.424316</ele>
  <time>2011-09-29T07:13:07Z</time>
  <speed>3.120000</speed>
</trkpt>
<trkpt lat="32.583061218" lon="35.132572174">
  <ele>308.541504</ele>
  <time>2011-09-29T07:13:08Z</time>
  <speed>3.150000</speed>
</trkpt>
<trkpt lat="32.583034515" lon="35.132595062">
  <ele>309.494629</ele>
  <time>2011-09-29T07:13:09Z</time>
  <speed>3.070000</speed>
</trkpt>
<trkpt lat="32.583007813" lon="35.132610321">
  <ele>309.674316</ele>
  <time>2011-09-29T07:13:10Z</time>
  <speed>3.220000</speed>
</trkpt>
<trkpt lat="32.582984924" lon="35.132633209">
  <ele>308.322754</ele>
  <time>2011-09-29T07:13:11Z</time>
  <speed>3.180000</speed>
</trkpt>
<trkpt lat="32.582958221" lon="35.132644653">
  <ele>308.369629</ele>
  <time>2011-09-29T07:13:12Z</time>
  <speed>3.330000</speed>
</trkpt>
<trkpt lat="32.582931519" lon="35.132667542">
  <ele>309.439941</ele>
  <time>2011-09-29T07:13:13Z</time>
  <speed>3.450000</speed>
</trkpt>
<trkpt lat="32.582904816" lon="35.132686615">
  <ele>309.572754</ele>
  <time>2011-09-29T07:13:14Z</time>
  <speed>3.280000</speed>
</trkpt>
<trkpt lat="32.582878113" lon="35.132705688">
  <ele>309.057129</ele>
  <time>2011-09-29T07:13:15Z</time>
  <speed>3.270000</speed>
</trkpt>
<trkpt lat="32.582851410" lon="35.132724762">
  <ele>309.689941</ele>
  <time>2011-09-29T07:13:16Z</time>
  <speed>3.380000</speed>
</trkpt>
<trkpt lat="32.582824707" lon="35.132740021">
  <ele>309.486816</ele>
  <time>2011-09-29T07:13:17Z</time>
  <speed>3.560000</speed>
</trkpt>
<trkpt lat="32.582798004" lon="35.132759094">
  <ele>309.736816</ele>
  <time>2011-09-29T07:13:18Z</time>
  <speed>3.360000</speed>
</trkpt>
<trkpt lat="32.582775116" lon="35.132778168">
  <ele>309.236816</ele>
  <time>2011-09-29T07:13:19Z</time>
  <speed>3.430000</speed>
</trkpt>
<trkpt lat="32.582748413" lon="35.132797241">
  <ele>308.994629</ele>
  <time>2011-09-29T07:13:20Z</time>
  <speed>3.570000</speed>
</trkpt>
<trkpt lat="32.582721710" lon="35.132816315">
  <ele>308.596191</ele>
  <time>2011-09-29T07:13:21Z</time>
  <speed>3.210000</speed>
</trkpt>
<trkpt lat="32.582698822" lon="35.132835388">
  <ele>308.541504</ele>
  <time>2011-09-29T07:13:22Z</time>
  <speed>3.450000</speed>
</trkpt>
<trkpt lat="32.582672119" lon="35.132854462">
  <ele>308.510254</ele>
  <time>2011-09-29T07:13:23Z</time>
  <speed>3.030000</speed>
</trkpt>
<trkpt lat="32.582649231" lon="35.132877350">
  <ele>307.721191</ele>
  <time>2011-09-29T07:13:24Z</time>
  <speed>3.110000</speed>
</trkpt>
<trkpt lat="32.582626343" lon="35.132900238">
  <ele>307.799316</ele>
  <time>2011-09-29T07:13:25Z</time>
  <speed>3.180000</speed>
</trkpt>
<trkpt lat="32.582603455" lon="35.132923126">
  <ele>308.330566</ele>
  <time>2011-09-29T07:13:26Z</time>
  <speed>3.190000</speed>
</trkpt>
<trkpt lat="32.582584381" lon="35.132946014">
  <ele>308.002441</ele>
  <time>2011-09-29T07:13:27Z</time>
  <speed>3.130000</speed>
</trkpt>
<trkpt lat="32.582542419" lon="35.132980347">
  <ele>307.479004</ele>
  <time>2011-09-29T07:13:29Z</time>
  <speed>3.200000</speed>
</trkpt>
<trkpt lat="32.582500458" lon="35.133018494">
  <ele>306.291504</ele>
  <time>2011-09-29T07:13:31Z</time>
  <speed>3.020000</speed>
</trkpt>
<trkpt lat="32.582466125" lon="35.133064270">
  <ele>305.346191</ele>
  <time>2011-09-29T07:13:33Z</time>
  <speed>3.070000</speed>
</trkpt>
<trkpt lat="32.582427979" lon="35.133106232">
  <ele>304.955566</ele>
  <time>2011-09-29T07:13:35Z</time>
  <speed>3.100000</speed>
</trkpt>
<trkpt lat="32.582405090" lon="35.133136749">
  <ele>305.346191</ele>
  <time>2011-09-29T07:13:36Z</time>
  <speed>3.190000</speed>
</trkpt>
<trkpt lat="32.582386017" lon="35.133159637">
  <ele>305.432129</ele>
  <time>2011-09-29T07:13:37Z</time>
  <speed>2.950000</speed>
</trkpt>
<trkpt lat="32.582351685" lon="35.133209229">
  <ele>304.924316</ele>
  <time>2011-09-29T07:13:39Z</time>
  <speed>3.100000</speed>
</trkpt>
<trkpt lat="32.582317352" lon="35.133255005">
  <ele>305.486816</ele>
  <time>2011-09-29T07:13:41Z</time>
  <speed>3.200000</speed>
</trkpt>
<trkpt lat="32.582302094" lon="35.133281708">
  <ele>305.432129</ele>
  <time>2011-09-29T07:13:42Z</time>
  <speed>3.130000</speed>
</trkpt>
<trkpt lat="32.582283020" lon="35.133312225">
  <ele>305.299316</ele>
  <time>2011-09-29T07:13:43Z</time>
  <speed>3.260000</speed>
</trkpt>
<trkpt lat="32.582263947" lon="35.133342743">
  <ele>305.604004</ele>
  <time>2011-09-29T07:13:44Z</time>
  <speed>3.390000</speed>
</trkpt>
<trkpt lat="32.582244873" lon="35.133365631">
  <ele>305.330566</ele>
  <time>2011-09-29T07:13:45Z</time>
  <speed>3.400000</speed>
</trkpt>
<trkpt lat="32.582229614" lon="35.133392334">
  <ele>305.518066</ele>
  <time>2011-09-29T07:13:46Z</time>
  <speed>3.540000</speed>
</trkpt>
<trkpt lat="32.582210541" lon="35.133422852">
  <ele>305.799316</ele>
  <time>2011-09-29T07:13:47Z</time>
  <speed>3.670000</speed>
</trkpt>
<trkpt lat="32.582195282" lon="35.133460999">
  <ele>307.166504</ele>
  <time>2011-09-29T07:13:48Z</time>
  <speed>3.930000</speed>
</trkpt>
<trkpt lat="32.582176208" lon="35.133499146">
  <ele>307.322754</ele>
  <time>2011-09-29T07:13:49Z</time>
  <speed>4.310000</speed>
</trkpt>
<trkpt lat="32.582157135" lon="35.133537292">
  <ele>307.275879</ele>
  <time>2011-09-29T07:13:50Z</time>
  <speed>4.180000</speed>
</trkpt>
<trkpt lat="32.582134247" lon="35.133575439">
  <ele>306.135254</ele>
  <time>2011-09-29T07:13:51Z</time>
  <speed>3.850000</speed>
</trkpt>
<trkpt lat="32.582118988" lon="35.133609772">
  <ele>305.166504</ele>
  <time>2011-09-29T07:13:52Z</time>
  <speed>3.630000</speed>
</trkpt>
<trkpt lat="32.582107544" lon="35.133647919">
  <ele>304.447754</ele>
  <time>2011-09-29T07:13:53Z</time>
  <speed>3.230000</speed>
</trkpt>
<trkpt lat="32.582099915" lon="35.133678436">
  <ele>303.033691</ele>
  <time>2011-09-29T07:13:54Z</time>
  <speed>3.180000</speed>
</trkpt>
<trkpt lat="32.582088470" lon="35.133712769">
  <ele>303.119629</ele>
  <time>2011-09-29T07:13:55Z</time>
  <speed>3.350000</speed>
</trkpt>
<trkpt lat="32.582084656" lon="35.133747101">
  <ele>302.322754</ele>
  <time>2011-09-29T07:13:56Z</time>
  <speed>3.250000</speed>
</trkpt>
<trkpt lat="32.582077026" lon="35.133781433">
  <ele>302.111816</ele>
  <time>2011-09-29T07:13:57Z</time>
  <speed>3.400000</speed>
</trkpt>
<trkpt lat="32.582080841" lon="35.133811951">
  <ele>301.604004</ele>
  <time>2011-09-29T07:13:58Z</time>
  <speed>3.410000</speed>
</trkpt>
<trkpt lat="32.582080841" lon="35.133846283">
  <ele>301.236816</ele>
  <time>2011-09-29T07:13:59Z</time>
  <speed>3.220000</speed>
</trkpt>
<trkpt lat="32.582080841" lon="35.133911133">
  <ele>301.096191</ele>
  <time>2011-09-29T07:14:01Z</time>
  <speed>3.120000</speed>
</trkpt>
<trkpt lat="32.582077026" lon="35.133949280">
  <ele>301.525879</ele>
  <time>2011-09-29T07:14:02Z</time>
  <speed>3.260000</speed>
</trkpt>
<trkpt lat="32.582080841" lon="35.133987427">
  <ele>302.018066</ele>
  <time>2011-09-29T07:14:03Z</time>
  <speed>3.110000</speed>
</trkpt>
<trkpt lat="32.582088470" lon="35.134017944">
  <ele>302.041504</ele>
  <time>2011-09-29T07:14:04Z</time>
  <speed>3.290000</speed>
</trkpt>
<trkpt lat="32.582088470" lon="35.134052277">
  <ele>302.330566</ele>
  <time>2011-09-29T07:14:05Z</time>
  <speed>3.260000</speed>
</trkpt>
<trkpt lat="32.582084656" lon="35.134090424">
  <ele>302.244629</ele>
  <time>2011-09-29T07:14:06Z</time>
  <speed>3.640000</speed>
</trkpt>
<trkpt lat="32.582080841" lon="35.134132385">
  <ele>302.260254</ele>
  <time>2011-09-29T07:14:07Z</time>
  <speed>4.060000</speed>
</trkpt>
<trkpt lat="32.582073212" lon="35.134174347">
  <ele>302.096191</ele>
  <time>2011-09-29T07:14:08Z</time>
  <speed>4.430000</speed>
</trkpt>
<trkpt lat="32.582057953" lon="35.134223938">
  <ele>301.955566</ele>
  <time>2011-09-29T07:14:09Z</time>
  <speed>4.760000</speed>
</trkpt>
<trkpt lat="32.582042694" lon="35.134273529">
  <ele>301.736816</ele>
  <time>2011-09-29T07:14:10Z</time>
  <speed>5.150000</speed>
</trkpt>
<trkpt lat="32.582027435" lon="35.134326935">
  <ele>301.994629</ele>
  <time>2011-09-29T07:14:11Z</time>
  <speed>5.460000</speed>
</trkpt>
<trkpt lat="32.582015991" lon="35.134387970">
  <ele>302.533691</ele>
  <time>2011-09-29T07:14:12Z</time>
  <speed>5.590000</speed>
</trkpt>
<trkpt lat="32.582012177" lon="35.134445190">
  <ele>302.588379</ele>
  <time>2011-09-29T07:14:13Z</time>
  <speed>5.790000</speed>
</trkpt>
<trkpt lat="32.582008362" lon="35.134513855">
  <ele>302.674316</ele>
  <time>2011-09-29T07:14:14Z</time>
  <speed>5.680000</speed>
</trkpt>
<trkpt lat="32.582012177" lon="35.134574890">
  <ele>302.877441</ele>
  <time>2011-09-29T07:14:15Z</time>
  <speed>5.500000</speed>
</trkpt>
<trkpt lat="32.582019806" lon="35.134632111">
  <ele>302.830566</ele>
  <time>2011-09-29T07:14:16Z</time>
  <speed>5.600000</speed>
</trkpt>
<trkpt lat="32.582035065" lon="35.134685516">
  <ele>302.486816</ele>
  <time>2011-09-29T07:14:17Z</time>
  <speed>5.320000</speed>
</trkpt>
<trkpt lat="32.582057953" lon="35.134735107">
  <ele>302.510254</ele>
  <time>2011-09-29T07:14:18Z</time>
  <speed>4.970000</speed>
</trkpt>
<trkpt lat="32.582080841" lon="35.134777069">
  <ele>302.791504</ele>
  <time>2011-09-29T07:14:19Z</time>
  <speed>4.690000</speed>
</trkpt>
<trkpt lat="32.582111359" lon="35.134819031">
  <ele>303.900879</ele>
  <time>2011-09-29T07:14:20Z</time>
  <speed>4.210000</speed>
</trkpt>
<trkpt lat="32.582134247" lon="35.134849548">
  <ele>304.424316</ele>
  <time>2011-09-29T07:14:21Z</time>
  <speed>3.460000</speed>
</trkpt>
<trkpt lat="32.582160950" lon="35.134868622">
  <ele>305.361816</ele>
  <time>2011-09-29T07:14:22Z</time>
  <speed>3.040000</speed>
</trkpt>
<trkpt lat="32.582214355" lon="35.134883881">
  <ele>305.924316</ele>
  <time>2011-09-29T07:14:24Z</time>
  <speed>2.930000</speed>
</trkpt>
<trkpt lat="32.582244873" lon="35.134880066">
  <ele>305.150879</ele>
  <time>2011-09-29T07:14:25Z</time>
  <speed>2.520000</speed>
</trkpt>
<trkpt lat="32.582286835" lon="35.134864807">
  <ele>304.775879</ele>
  <time>2011-09-29T07:14:27Z</time>
  <speed>1.790000</speed>
</trkpt>
<trkpt lat="32.582328796" lon="35.134834290">
  <ele>304.502441</ele>
  <time>2011-09-29T07:14:29Z</time>
  <speed>1.840000</speed>
</trkpt>
<trkpt lat="32.582355499" lon="35.134819031">
  <ele>304.877441</ele>
  <time>2011-09-29T07:14:31Z</time>
  <speed>1.450000</speed>
</trkpt>
<trkpt lat="32.582389832" lon="35.134807587">
  <ele>305.533691</ele>
  <time>2011-09-29T07:14:33Z</time>
  <speed>1.780000</speed>
</trkpt>
<trkpt lat="32.582427979" lon="35.134792328">
  <ele>305.916504</ele>
  <time>2011-09-29T07:14:35Z</time>
  <speed>1.840000</speed>
</trkpt>
<trkpt lat="32.582458496" lon="35.134773254">
  <ele>305.416504</ele>
  <time>2011-09-29T07:14:37Z</time>
  <speed>1.670000</speed>
</trkpt>
<trkpt lat="32.582492828" lon="35.134754181">
  <ele>305.814941</ele>
  <time>2011-09-29T07:14:39Z</time>
  <speed>1.850000</speed>
</trkpt>
<trkpt lat="32.582519531" lon="35.134746552">
  <ele>306.088379</ele>
  <time>2011-09-29T07:14:41Z</time>
  <speed>1.950000</speed>
</trkpt>
<trkpt lat="32.582553864" lon="35.134731293">
  <ele>306.588379</ele>
  <time>2011-09-29T07:14:43Z</time>
  <speed>2.250000</speed>
</trkpt>
<trkpt lat="32.582592010" lon="35.134712219">
  <ele>306.252441</ele>
  <time>2011-09-29T07:14:45Z</time>
  <speed>2.030000</speed>
</trkpt>
<trkpt lat="32.582630157" lon="35.134693146">
  <ele>305.924316</ele>
  <time>2011-09-29T07:14:47Z</time>
  <speed>2.160000</speed>
</trkpt>
<trkpt lat="32.582664490" lon="35.134681702">
  <ele>306.619629</ele>
  <time>2011-09-29T07:14:49Z</time>
  <speed>2.000000</speed>
</trkpt>
<trkpt lat="32.582710266" lon="35.134674072">
  <ele>306.986816</ele>
  <time>2011-09-29T07:14:51Z</time>
  <speed>1.750000</speed>
</trkpt>
<trkpt lat="32.582744598" lon="35.134658813">
  <ele>306.549316</ele>
  <time>2011-09-29T07:14:53Z</time>
  <speed>1.740000</speed>
</trkpt>
<trkpt lat="32.582771301" lon="35.134635925">
  <ele>306.541504</ele>
  <time>2011-09-29T07:14:55Z</time>
  <speed>1.530000</speed>
</trkpt>
<trkpt lat="32.582798004" lon="35.134624481">
  <ele>306.807129</ele>
  <time>2011-09-29T07:14:57Z</time>
  <speed>1.670000</speed>
</trkpt>
<trkpt lat="32.582836151" lon="35.134609222">
  <ele>307.502441</ele>
  <time>2011-09-29T07:14:59Z</time>
  <speed>2.260000</speed>
</trkpt>
<trkpt lat="32.582870483" lon="35.134586334">
  <ele>308.229004</ele>
  <time>2011-09-29T07:15:01Z</time>
  <speed>2.210000</speed>
</trkpt>
<trkpt lat="32.582904816" lon="35.134563446">
  <ele>308.072754</ele>
  <time>2011-09-29T07:15:03Z</time>
  <speed>1.550000</speed>
</trkpt>
<trkpt lat="32.582935333" lon="35.134544373">
  <ele>308.119629</ele>
  <time>2011-09-29T07:15:05Z</time>
  <speed>2.190000</speed>
</trkpt>
<trkpt lat="32.582973480" lon="35.134521484">
  <ele>308.486816</ele>
  <time>2011-09-29T07:15:07Z</time>
  <speed>2.150000</speed>
</trkpt>
<trkpt lat="32.583007813" lon="35.134494781">
  <ele>308.791504</ele>
  <time>2011-09-29T07:15:09Z</time>
  <speed>1.820000</speed>
</trkpt>
<trkpt lat="32.583038330" lon="35.134471893">
  <ele>308.025879</ele>
  <time>2011-09-29T07:15:11Z</time>
  <speed>2.430000</speed>
</trkpt>
<trkpt lat="32.583080292" lon="35.134437561">
  <ele>308.182129</ele>
  <time>2011-09-29T07:15:13Z</time>
  <speed>2.510000</speed>
</trkpt>
<trkpt lat="32.583118439" lon="35.134410858">
  <ele>308.791504</ele>
  <time>2011-09-29T07:15:15Z</time>
  <speed>2.430000</speed>
</trkpt>
<trkpt lat="32.583156586" lon="35.134368896">
  <ele>309.939941</ele>
  <time>2011-09-29T07:15:17Z</time>
  <speed>2.460000</speed>
</trkpt>
<trkpt lat="32.583187103" lon="35.134330750">
  <ele>310.197754</ele>
  <time>2011-09-29T07:15:19Z</time>
  <speed>2.210000</speed>
</trkpt>
<trkpt lat="32.583213806" lon="35.134296417">
  <ele>310.869629</ele>
  <time>2011-09-29T07:15:21Z</time>
  <speed>2.410000</speed>
</trkpt>
<trkpt lat="32.583248138" lon="35.134265900">
  <ele>311.791504</ele>
  <time>2011-09-29T07:15:23Z</time>
  <speed>2.230000</speed>
</trkpt>
<trkpt lat="32.583278656" lon="35.134258270">
  <ele>311.799316</ele>
  <time>2011-09-29T07:15:25Z</time>
  <speed>2.370000</speed>
</trkpt>
<trkpt lat="32.583320618" lon="35.134239197">
  <ele>311.314941</ele>
  <time>2011-09-29T07:15:27Z</time>
  <speed>2.580000</speed>
</trkpt>
<trkpt lat="32.583366394" lon="35.134220123">
  <ele>311.150879</ele>
  <time>2011-09-29T07:15:29Z</time>
  <speed>2.400000</speed>
</trkpt>
<trkpt lat="32.583400726" lon="35.134201050">
  <ele>310.619629</ele>
  <time>2011-09-29T07:15:31Z</time>
  <speed>2.170000</speed>
</trkpt>
<trkpt lat="32.583423615" lon="35.134162903">
  <ele>310.814941</ele>
  <time>2011-09-29T07:15:33Z</time>
  <speed>2.140000</speed>
</trkpt>
<trkpt lat="32.583461761" lon="35.134136200">
  <ele>310.104004</ele>
  <time>2011-09-29T07:15:35Z</time>
  <speed>1.630000</speed>
</trkpt>
<trkpt lat="32.583488464" lon="35.134136200">
  <ele>309.549316</ele>
  <time>2011-09-29T07:15:37Z</time>
  <speed>0.640000</speed>
</trkpt>
<trkpt lat="32.583518982" lon="35.134140015">
  <ele>310.455566</ele>
  <time>2011-09-29T07:15:41Z</time>
  <speed>0.160000</speed>
</trkpt>
<trkpt lat="32.583564758" lon="35.134136200">
  <ele>310.635254</ele>
  <time>2011-09-29T07:20:58Z</time>
  <speed>2.710000</speed>
</trkpt>
<trkpt lat="32.583595276" lon="35.134120941">
  <ele>310.744629</ele>
  <time>2011-09-29T07:20:59Z</time>
  <speed>3.650000</speed>
</trkpt>
<trkpt lat="32.583629608" lon="35.134094238">
  <ele>311.174316</ele>
  <time>2011-09-29T07:21:00Z</time>
  <speed>4.090000</speed>
</trkpt>
<trkpt lat="32.583656311" lon="35.134059906">
  <ele>310.893066</ele>
  <time>2011-09-29T07:21:01Z</time>
  <speed>4.090000</speed>
</trkpt>
<trkpt lat="32.583683014" lon="35.134025574">
  <ele>310.721191</ele>
  <time>2011-09-29T07:21:02Z</time>
  <speed>4.170000</speed>
</trkpt>
<trkpt lat="32.583709717" lon="35.133991241">
  <ele>311.119629</ele>
  <time>2011-09-29T07:21:03Z</time>
  <speed>4.230000</speed>
</trkpt>
<trkpt lat="32.583744049" lon="35.133960724">
  <ele>311.549316</ele>
  <time>2011-09-29T07:21:04Z</time>
  <speed>4.000000</speed>
</trkpt>
<trkpt lat="32.583786011" lon="35.133930206">
  <ele>310.994629</ele>
  <time>2011-09-29T07:21:05Z</time>
  <speed>4.560000</speed>
</trkpt>
<trkpt lat="32.583824158" lon="35.133899689">
  <ele>310.932129</ele>
  <time>2011-09-29T07:21:06Z</time>
  <speed>4.360000</speed>
</trkpt>
<trkpt lat="32.583862305" lon="35.133865356">
  <ele>311.057129</ele>
  <time>2011-09-29T07:21:07Z</time>
  <speed>4.890000</speed>
</trkpt>
<trkpt lat="32.583904266" lon="35.133834839">
  <ele>311.557129</ele>
  <time>2011-09-29T07:21:08Z</time>
  <speed>5.400000</speed>
</trkpt>
<trkpt lat="32.583950043" lon="35.133804321">
  <ele>311.604004</ele>
  <time>2011-09-29T07:21:09Z</time>
  <speed>5.800000</speed>
</trkpt>
<trkpt lat="32.583999634" lon="35.133766174">
  <ele>312.174316</ele>
  <time>2011-09-29T07:21:10Z</time>
  <speed>6.630000</speed>
</trkpt>
<trkpt lat="32.584056854" lon="35.133728027">
  <ele>311.611816</ele>
  <time>2011-09-29T07:21:11Z</time>
  <speed>6.900000</speed>
</trkpt>
<trkpt lat="32.584114075" lon="35.133682251">
  <ele>312.229004</ele>
  <time>2011-09-29T07:21:12Z</time>
  <speed>7.090000</speed>
</trkpt>
<trkpt lat="32.584178925" lon="35.133644104">
  <ele>311.275879</ele>
  <time>2011-09-29T07:21:13Z</time>
  <speed>7.650000</speed>
</trkpt>
<trkpt lat="32.584243774" lon="35.133605957">
  <ele>310.283691</ele>
  <time>2011-09-29T07:21:14Z</time>
  <speed>7.740000</speed>
</trkpt>
<trkpt lat="32.584308624" lon="35.133563995">
  <ele>310.283691</ele>
  <time>2011-09-29T07:21:15Z</time>
  <speed>8.090000</speed>
</trkpt>
<trkpt lat="32.584381104" lon="35.133525848">
  <ele>310.025879</ele>
  <time>2011-09-29T07:21:16Z</time>
  <speed>8.220000</speed>
</trkpt>
<trkpt lat="32.584453583" lon="35.133480072">
  <ele>310.127441</ele>
  <time>2011-09-29T07:21:17Z</time>
  <speed>8.570000</speed>
</trkpt>
<trkpt lat="32.584526062" lon="35.133441925">
  <ele>309.650879</ele>
  <time>2011-09-29T07:21:18Z</time>
  <speed>8.730000</speed>
</trkpt>
<trkpt lat="32.584606171" lon="35.133396149">
  <ele>308.377441</ele>
  <time>2011-09-29T07:21:19Z</time>
  <speed>9.030000</speed>
</trkpt>
<trkpt lat="32.584671021" lon="35.133346558">
  <ele>307.729004</ele>
  <time>2011-09-29T07:21:20Z</time>
  <speed>8.740000</speed>
</trkpt>
<trkpt lat="32.584743500" lon="35.133300781">
  <ele>306.908691</ele>
  <time>2011-09-29T07:21:21Z</time>
  <speed>8.810000</speed>
</trkpt>
<trkpt lat="32.584812164" lon="35.133255005">
  <ele>306.221191</ele>
  <time>2011-09-29T07:21:22Z</time>
  <speed>8.730000</speed>
</trkpt>
<trkpt lat="32.584884644" lon="35.133216858">
  <ele>304.807129</ele>
  <time>2011-09-29T07:21:23Z</time>
  <speed>9.020000</speed>
</trkpt>
<trkpt lat="32.584960938" lon="35.133178711">
  <ele>303.807129</ele>
  <time>2011-09-29T07:21:24Z</time>
  <speed>8.690000</speed>
</trkpt>
<trkpt lat="32.585029602" lon="35.133132935">
  <ele>303.354004</ele>
  <time>2011-09-29T07:21:25Z</time>
  <speed>8.640000</speed>
</trkpt>
<trkpt lat="32.585094452" lon="35.133087158">
  <ele>303.775879</ele>
  <time>2011-09-29T07:21:26Z</time>
  <speed>8.490000</speed>
</trkpt>
<trkpt lat="32.585155487" lon="35.133041382">
  <ele>303.072754</ele>
  <time>2011-09-29T07:21:27Z</time>
  <speed>7.840000</speed>
</trkpt>
<trkpt lat="32.585205078" lon="35.132991791">
  <ele>302.463379</ele>
  <time>2011-09-29T07:21:28Z</time>
  <speed>7.480000</speed>
</trkpt>
<trkpt lat="32.585254669" lon="35.132934570">
  <ele>302.744629</ele>
  <time>2011-09-29T07:21:29Z</time>
  <speed>7.710000</speed>
</trkpt>
<trkpt lat="32.585319519" lon="35.132888794">
  <ele>302.291504</ele>
  <time>2011-09-29T07:21:30Z</time>
  <speed>8.350000</speed>
</trkpt>
<trkpt lat="32.585384369" lon="35.132846832">
  <ele>301.604004</ele>
  <time>2011-09-29T07:21:31Z</time>
  <speed>8.440000</speed>
</trkpt>
<trkpt lat="32.585453033" lon="35.132804871">
  <ele>300.424316</ele>
  <time>2011-09-29T07:21:32Z</time>
  <speed>8.170000</speed>
</trkpt>
<trkpt lat="32.585517883" lon="35.132759094">
  <ele>300.150879</ele>
  <time>2011-09-29T07:21:33Z</time>
  <speed>8.370000</speed>
</trkpt>
<trkpt lat="32.585578918" lon="35.132717133">
  <ele>299.361816</ele>
  <time>2011-09-29T07:21:34Z</time>
  <speed>8.170000</speed>
</trkpt>
<trkpt lat="32.585639954" lon="35.132667542">
  <ele>298.768066</ele>
  <time>2011-09-29T07:21:35Z</time>
  <speed>8.160000</speed>
</trkpt>
<trkpt lat="32.585704803" lon="35.132621765">
  <ele>298.150879</ele>
  <time>2011-09-29T07:21:36Z</time>
  <speed>8.150000</speed>
</trkpt>
<trkpt lat="32.585773468" lon="35.132583618">
  <ele>297.502441</ele>
  <time>2011-09-29T07:21:37Z</time>
  <speed>7.820000</speed>
</trkpt>
<trkpt lat="32.585830688" lon="35.132537842">
  <ele>297.150879</ele>
  <time>2011-09-29T07:21:38Z</time>
  <speed>7.830000</speed>
</trkpt>
<trkpt lat="32.585887909" lon="35.132495880">
  <ele>296.666504</ele>
  <time>2011-09-29T07:21:39Z</time>
  <speed>7.920000</speed>
</trkpt>
<trkpt lat="32.585945129" lon="35.132446289">
  <ele>295.924316</ele>
  <time>2011-09-29T07:21:40Z</time>
  <speed>7.940000</speed>
</trkpt>
<trkpt lat="32.586006165" lon="35.132392883">
  <ele>295.127441</ele>
  <time>2011-09-29T07:21:41Z</time>
  <speed>8.190000</speed>
</trkpt>
<trkpt lat="32.586067200" lon="35.132350922">
  <ele>294.041504</ele>
  <time>2011-09-29T07:21:42Z</time>
  <speed>7.850000</speed>
</trkpt>
<trkpt lat="32.586124420" lon="35.132305145">
  <ele>293.971191</ele>
  <time>2011-09-29T07:21:43Z</time>
  <speed>7.650000</speed>
</trkpt>
<trkpt lat="32.586189270" lon="35.132270813">
  <ele>292.604004</ele>
  <time>2011-09-29T07:21:44Z</time>
  <speed>7.530000</speed>
</trkpt>
<trkpt lat="32.586257935" lon="35.132236481">
  <ele>291.479004</ele>
  <time>2011-09-29T07:21:45Z</time>
  <speed>8.030000</speed>
</trkpt>
<trkpt lat="32.586326599" lon="35.132213593">
  <ele>290.088379</ele>
  <time>2011-09-29T07:21:46Z</time>
  <speed>8.200000</speed>
</trkpt>
<trkpt lat="32.586399078" lon="35.132209778">
  <ele>289.346191</ele>
  <time>2011-09-29T07:21:47Z</time>
  <speed>7.640000</speed>
</trkpt>
<trkpt lat="32.586467743" lon="35.132225037">
  <ele>288.455566</ele>
  <time>2011-09-29T07:21:48Z</time>
  <speed>7.770000</speed>
</trkpt>
<trkpt lat="32.586536407" lon="35.132236481">
  <ele>287.283691</ele>
  <time>2011-09-29T07:21:49Z</time>
  <speed>7.190000</speed>
</trkpt>
<trkpt lat="32.586582184" lon="35.132244110">
  <ele>286.518066</ele>
  <time>2011-09-29T07:21:50Z</time>
  <speed>4.370000</speed>
</trkpt>
<trkpt lat="32.586612701" lon="35.132259369">
  <ele>286.846191</ele>
  <time>2011-09-29T07:21:51Z</time>
  <speed>3.600000</speed>
</trkpt>
<trkpt lat="32.586643219" lon="35.132266998">
  <ele>286.236816</ele>
  <time>2011-09-29T07:21:52Z</time>
  <speed>4.090000</speed>
</trkpt>
<trkpt lat="32.586685181" lon="35.132274628">
  <ele>284.939941</ele>
  <time>2011-09-29T07:21:53Z</time>
  <speed>5.040000</speed>
</trkpt>
<trkpt lat="32.586727142" lon="35.132286072">
  <ele>283.611816</ele>
  <time>2011-09-29T07:21:54Z</time>
  <speed>4.830000</speed>
</trkpt>
<trkpt lat="32.586772919" lon="35.132297516">
  <ele>283.018066</ele>
  <time>2011-09-29T07:21:55Z</time>
  <speed>5.490000</speed>
</trkpt>
<trkpt lat="32.586818695" lon="35.132308960">
  <ele>282.143066</ele>
  <time>2011-09-29T07:21:56Z</time>
  <speed>5.780000</speed>
</trkpt>
<trkpt lat="32.586860657" lon="35.132320404">
  <ele>280.564941</ele>
  <time>2011-09-29T07:21:57Z</time>
  <speed>5.340000</speed>
</trkpt>
<trkpt lat="32.586906433" lon="35.132324219">
  <ele>279.025879</ele>
  <time>2011-09-29T07:21:58Z</time>
  <speed>4.970000</speed>
</trkpt>
<trkpt lat="32.586952209" lon="35.132331848">
  <ele>278.104004</ele>
  <time>2011-09-29T07:21:59Z</time>
  <speed>5.680000</speed>
</trkpt>
<trkpt lat="32.587001801" lon="35.132347107">
  <ele>277.104004</ele>
  <time>2011-09-29T07:22:00Z</time>
  <speed>5.680000</speed>
</trkpt>
<trkpt lat="32.587047577" lon="35.132362366">
  <ele>276.064941</ele>
  <time>2011-09-29T07:22:01Z</time>
  <speed>5.390000</speed>
</trkpt>
<trkpt lat="32.587093353" lon="35.132373810">
  <ele>275.361816</ele>
  <time>2011-09-29T07:22:02Z</time>
  <speed>5.200000</speed>
</trkpt>
<trkpt lat="32.587139130" lon="35.132392883">
  <ele>274.471191</ele>
  <time>2011-09-29T07:22:03Z</time>
  <speed>5.800000</speed>
</trkpt>
<trkpt lat="32.587188721" lon="35.132408142">
  <ele>273.760254</ele>
  <time>2011-09-29T07:22:04Z</time>
  <speed>5.720000</speed>
</trkpt>
<trkpt lat="32.587238312" lon="35.132427216">
  <ele>273.502441</ele>
  <time>2011-09-29T07:22:05Z</time>
  <speed>5.250000</speed>
</trkpt>
<trkpt lat="32.587284088" lon="35.132442474">
  <ele>272.885254</ele>
  <time>2011-09-29T07:22:06Z</time>
  <speed>5.650000</speed>
</trkpt>
<trkpt lat="32.587333679" lon="35.132457733">
  <ele>271.900879</ele>
  <time>2011-09-29T07:22:07Z</time>
  <speed>5.660000</speed>
</trkpt>
<trkpt lat="32.587379456" lon="35.132476807">
  <ele>271.447754</ele>
  <time>2011-09-29T07:22:08Z</time>
  <speed>5.030000</speed>
</trkpt>
<trkpt lat="32.587417603" lon="35.132488251">
  <ele>271.150879</ele>
  <time>2011-09-29T07:22:09Z</time>
  <speed>4.680000</speed>
</trkpt>
<trkpt lat="32.587455750" lon="35.132495880">
  <ele>270.619629</ele>
  <time>2011-09-29T07:22:10Z</time>
  <speed>4.380000</speed>
</trkpt>
<trkpt lat="32.587497711" lon="35.132503510">
  <ele>270.439941</ele>
  <time>2011-09-29T07:22:11Z</time>
  <speed>4.320000</speed>
</trkpt>
<trkpt lat="32.587535858" lon="35.132511139">
  <ele>270.096191</ele>
  <time>2011-09-29T07:22:12Z</time>
  <speed>3.910000</speed>
</trkpt>
<trkpt lat="32.587562561" lon="35.132522583">
  <ele>269.994629</ele>
  <time>2011-09-29T07:22:13Z</time>
  <speed>3.230000</speed>
</trkpt>
<trkpt lat="32.587589264" lon="35.132545471">
  <ele>269.244629</ele>
  <time>2011-09-29T07:22:14Z</time>
  <speed>3.980000</speed>
</trkpt>
<trkpt lat="32.587604523" lon="35.132583618">
  <ele>268.424316</ele>
  <time>2011-09-29T07:22:15Z</time>
  <speed>3.960000</speed>
</trkpt>
<trkpt lat="32.587623596" lon="35.132625580">
  <ele>267.674316</ele>
  <time>2011-09-29T07:22:16Z</time>
  <speed>4.100000</speed>
</trkpt>
<trkpt lat="32.587638855" lon="35.132663727">
  <ele>267.354004</ele>
  <time>2011-09-29T07:22:17Z</time>
  <speed>4.580000</speed>
</trkpt>
<trkpt lat="32.587657928" lon="35.132709503">
  <ele>267.361816</ele>
  <time>2011-09-29T07:22:18Z</time>
  <speed>4.650000</speed>
</trkpt>
<trkpt lat="32.587699890" lon="35.132747650">
  <ele>267.104004</ele>
  <time>2011-09-29T07:22:19Z</time>
  <speed>6.420000</speed>
</trkpt>
<trkpt lat="32.587757111" lon="35.132778168">
  <ele>266.830566</ele>
  <time>2011-09-29T07:22:20Z</time>
  <speed>6.780000</speed>
</trkpt>
<trkpt lat="32.587818146" lon="35.132823944">
  <ele>265.760254</ele>
  <time>2011-09-29T07:22:21Z</time>
  <speed>7.570000</speed>
</trkpt>
<trkpt lat="32.587867737" lon="35.132877350">
  <ele>265.330566</ele>
  <time>2011-09-29T07:22:22Z</time>
  <speed>7.210000</speed>
</trkpt>
<trkpt lat="32.587898254" lon="35.132949829">
  <ele>264.885254</ele>
  <time>2011-09-29T07:22:23Z</time>
  <speed>6.990000</speed>
</trkpt>
<trkpt lat="32.587917328" lon="35.133018494">
  <ele>264.213379</ele>
  <time>2011-09-29T07:22:24Z</time>
  <speed>6.060000</speed>
</trkpt>
<trkpt lat="32.587924957" lon="35.133071899">
  <ele>263.479004</ele>
  <time>2011-09-29T07:22:25Z</time>
  <speed>4.460000</speed>
</trkpt>
<trkpt lat="32.587936401" lon="35.133117676">
  <ele>262.650879</ele>
  <time>2011-09-29T07:22:26Z</time>
  <speed>4.010000</speed>
</trkpt>
<trkpt lat="32.587947845" lon="35.133159637">
  <ele>262.275879</ele>
  <time>2011-09-29T07:22:27Z</time>
  <speed>4.030000</speed>
</trkpt>
<trkpt lat="32.587963104" lon="35.133209229">
  <ele>261.338379</ele>
  <time>2011-09-29T07:22:28Z</time>
  <speed>4.300000</speed>
</trkpt>
<trkpt lat="32.587966919" lon="35.133258820">
  <ele>260.580566</ele>
  <time>2011-09-29T07:22:29Z</time>
  <speed>4.640000</speed>
</trkpt>
<trkpt lat="32.587974548" lon="35.133316040">
  <ele>261.713379</ele>
  <time>2011-09-29T07:22:30Z</time>
  <speed>4.550000</speed>
</trkpt>
<trkpt lat="32.587982178" lon="35.133369446">
  <ele>262.682129</ele>
  <time>2011-09-29T07:22:31Z</time>
  <speed>4.060000</speed>
</trkpt>
<trkpt lat="32.587989807" lon="35.133415222">
  <ele>262.900879</ele>
  <time>2011-09-29T07:22:32Z</time>
  <speed>3.670000</speed>
</trkpt>
<trkpt lat="32.587997437" lon="35.133453369">
  <ele>263.361816</ele>
  <time>2011-09-29T07:22:33Z</time>
  <speed>3.600000</speed>
</trkpt>
<trkpt lat="32.588008881" lon="35.133483887">
  <ele>263.775879</ele>
  <time>2011-09-29T07:22:34Z</time>
  <speed>3.210000</speed>
</trkpt>
<trkpt lat="32.588020325" lon="35.133518219">
  <ele>263.947754</ele>
  <time>2011-09-29T07:22:35Z</time>
  <speed>3.730000</speed>
</trkpt>
<trkpt lat="32.588039398" lon="35.133556366">
  <ele>264.768066</ele>
  <time>2011-09-29T07:22:36Z</time>
  <speed>3.660000</speed>
</trkpt>
<trkpt lat="32.588050842" lon="35.133590698">
  <ele>265.143066</ele>
  <time>2011-09-29T07:22:37Z</time>
  <speed>3.570000</speed>
</trkpt>
<trkpt lat="32.588066101" lon="35.133628845">
  <ele>265.416504</ele>
  <time>2011-09-29T07:22:38Z</time>
  <speed>3.860000</speed>
</trkpt>
<trkpt lat="32.588077545" lon="35.133670807">
  <ele>266.072754</ele>
  <time>2011-09-29T07:22:39Z</time>
  <speed>3.560000</speed>
</trkpt>
<trkpt lat="32.588088989" lon="35.133708954">
  <ele>267.205566</ele>
  <time>2011-09-29T07:22:40Z</time>
  <speed>3.720000</speed>
</trkpt>
<trkpt lat="32.588108063" lon="35.133747101">
  <ele>268.213379</ele>
  <time>2011-09-29T07:22:41Z</time>
  <speed>3.780000</speed>
</trkpt>
<trkpt lat="32.588134766" lon="35.133781433">
  <ele>269.674316</ele>
  <time>2011-09-29T07:22:42Z</time>
  <speed>2.800000</speed>
</trkpt>
<trkpt lat="32.588153839" lon="35.133808136">
  <ele>270.002441</ele>
  <time>2011-09-29T07:22:43Z</time>
  <speed>3.060000</speed>
</trkpt>
<trkpt lat="32.588172913" lon="35.133831024">
  <ele>270.854004</ele>
  <time>2011-09-29T07:22:44Z</time>
  <speed>2.580000</speed>
</trkpt>
<trkpt lat="32.588195801" lon="35.133876801">
  <ele>272.877441</ele>
  <time>2011-09-29T07:22:46Z</time>
  <speed>2.630000</speed>
</trkpt>
<trkpt lat="32.588207245" lon="35.133937836">
  <ele>273.807129</ele>
  <time>2011-09-29T07:22:48Z</time>
  <speed>2.790000</speed>
</trkpt>
<trkpt lat="32.588222504" lon="35.133964539">
  <ele>274.033691</ele>
  <time>2011-09-29T07:22:49Z</time>
  <speed>3.300000</speed>
</trkpt>
<trkpt lat="32.588245392" lon="35.133991241">
  <ele>274.150879</ele>
  <time>2011-09-29T07:22:50Z</time>
  <speed>3.170000</speed>
</trkpt>
<trkpt lat="32.588272095" lon="35.134014130">
  <ele>273.408691</ele>
  <time>2011-09-29T07:22:51Z</time>
  <speed>3.250000</speed>
</trkpt>
<trkpt lat="32.588291168" lon="35.134071350">
  <ele>272.705566</ele>
  <time>2011-09-29T07:22:53Z</time>
  <speed>2.820000</speed>
</trkpt>
<trkpt lat="32.588310242" lon="35.134109497">
  <ele>273.611816</ele>
  <time>2011-09-29T07:22:54Z</time>
  <speed>3.480000</speed>
</trkpt>
<trkpt lat="32.588333130" lon="35.134143829">
  <ele>273.994629</ele>
  <time>2011-09-29T07:22:55Z</time>
  <speed>3.520000</speed>
</trkpt>
<trkpt lat="32.588352203" lon="35.134181976">
  <ele>273.861816</ele>
  <time>2011-09-29T07:22:56Z</time>
  <speed>3.820000</speed>
</trkpt>
<trkpt lat="32.588367462" lon="35.134216309">
  <ele>273.697754</ele>
  <time>2011-09-29T07:22:57Z</time>
  <speed>3.740000</speed>
</trkpt>
<trkpt lat="32.588390350" lon="35.134246826">
  <ele>274.268066</ele>
  <time>2011-09-29T07:22:58Z</time>
  <speed>3.600000</speed>
</trkpt>
<trkpt lat="32.588409424" lon="35.134281158">
  <ele>274.205566</ele>
  <time>2011-09-29T07:22:59Z</time>
  <speed>3.750000</speed>
</trkpt>
<trkpt lat="32.588432312" lon="35.134315491">
  <ele>273.666504</ele>
  <time>2011-09-29T07:23:00Z</time>
  <speed>4.160000</speed>
</trkpt>
<trkpt lat="32.588455200" lon="35.134349823">
  <ele>273.424316</ele>
  <time>2011-09-29T07:23:01Z</time>
  <speed>4.190000</speed>
</trkpt>
<trkpt lat="32.588481903" lon="35.134387970">
  <ele>273.408691</ele>
  <time>2011-09-29T07:23:02Z</time>
  <speed>4.130000</speed>
</trkpt>
<trkpt lat="32.588500977" lon="35.134422302">
  <ele>273.057129</ele>
  <time>2011-09-29T07:23:03Z</time>
  <speed>4.030000</speed>
</trkpt>
<trkpt lat="32.588523865" lon="35.134460449">
  <ele>273.166504</ele>
  <time>2011-09-29T07:23:04Z</time>
  <speed>4.250000</speed>
</trkpt>
<trkpt lat="32.588546753" lon="35.134494781">
  <ele>273.385254</ele>
  <time>2011-09-29T07:23:05Z</time>
  <speed>3.960000</speed>
</trkpt>
<trkpt lat="32.588573456" lon="35.134529114">
  <ele>273.291504</ele>
  <time>2011-09-29T07:23:06Z</time>
  <speed>4.170000</speed>
</trkpt>
<trkpt lat="32.588600159" lon="35.134555817">
  <ele>272.877441</ele>
  <time>2011-09-29T07:23:07Z</time>
  <speed>4.220000</speed>
</trkpt>
<trkpt lat="32.588630676" lon="35.134586334">
  <ele>273.111816</ele>
  <time>2011-09-29T07:23:08Z</time>
  <speed>4.390000</speed>
</trkpt>
<trkpt lat="32.588661194" lon="35.134620667">
  <ele>273.385254</ele>
  <time>2011-09-29T07:23:09Z</time>
  <speed>4.520000</speed>
</trkpt>
<trkpt lat="32.588695526" lon="35.134662628">
  <ele>273.885254</ele>
  <time>2011-09-29T07:23:10Z</time>
  <speed>5.000000</speed>
</trkpt>
<trkpt lat="32.588718414" lon="35.134708405">
  <ele>274.627441</ele>
  <time>2011-09-29T07:23:11Z</time>
  <speed>4.950000</speed>
</trkpt>
<trkpt lat="32.588726044" lon="35.134761810">
  <ele>274.768066</ele>
  <time>2011-09-29T07:23:12Z</time>
  <speed>5.430000</speed>
</trkpt>
<trkpt lat="32.588748932" lon="35.134819031">
  <ele>275.955566</ele>
  <time>2011-09-29T07:23:13Z</time>
  <speed>5.510000</speed>
</trkpt>
<trkpt lat="32.588775635" lon="35.134868622">
  <ele>276.439941</ele>
  <time>2011-09-29T07:23:14Z</time>
  <speed>6.080000</speed>
</trkpt>
<trkpt lat="32.588809967" lon="35.134922028">
  <ele>276.783691</ele>
  <time>2011-09-29T07:23:15Z</time>
  <speed>5.900000</speed>
</trkpt>
<trkpt lat="32.588829041" lon="35.134983063">
  <ele>277.150879</ele>
  <time>2011-09-29T07:23:16Z</time>
  <speed>6.290000</speed>
</trkpt>
<trkpt lat="32.588851929" lon="35.135044098">
  <ele>276.135254</ele>
  <time>2011-09-29T07:23:17Z</time>
  <speed>6.580000</speed>
</trkpt>
<trkpt lat="32.588878632" lon="35.135112762">
  <ele>275.119629</ele>
  <time>2011-09-29T07:23:18Z</time>
  <speed>7.070000</speed>
</trkpt>
<trkpt lat="32.588901520" lon="35.135189056">
  <ele>273.955566</ele>
  <time>2011-09-29T07:23:19Z</time>
  <speed>7.370000</speed>
</trkpt>
<trkpt lat="32.588932037" lon="35.135253906">
  <ele>272.869629</ele>
  <time>2011-09-29T07:23:20Z</time>
  <speed>6.440000</speed>
</trkpt>
<trkpt lat="32.588973999" lon="35.135303497">
  <ele>271.338379</ele>
  <time>2011-09-29T07:23:21Z</time>
  <speed>6.510000</speed>
</trkpt>
<trkpt lat="32.588996887" lon="35.135360718">
  <ele>270.611816</ele>
  <time>2011-09-29T07:23:22Z</time>
  <speed>5.960000</speed>
</trkpt>
<trkpt lat="32.589000702" lon="35.135425568">
  <ele>270.416504</ele>
  <time>2011-09-29T07:23:23Z</time>
  <speed>5.910000</speed>
</trkpt>
<trkpt lat="32.589015961" lon="35.135490417">
  <ele>270.564941</ele>
  <time>2011-09-29T07:23:24Z</time>
  <speed>6.090000</speed>
</trkpt>
<trkpt lat="32.589042664" lon="35.135547638">
  <ele>270.439941</ele>
  <time>2011-09-29T07:23:25Z</time>
  <speed>5.710000</speed>
</trkpt>
<trkpt lat="32.589069366" lon="35.135601044">
  <ele>270.494629</ele>
  <time>2011-09-29T07:23:26Z</time>
  <speed>6.030000</speed>
</trkpt>
<trkpt lat="32.589092255" lon="35.135662079">
  <ele>270.510254</ele>
  <time>2011-09-29T07:23:27Z</time>
  <speed>6.430000</speed>
</trkpt>
<trkpt lat="32.589115143" lon="35.135726929">
  <ele>269.533691</ele>
  <time>2011-09-29T07:23:28Z</time>
  <speed>6.570000</speed>
</trkpt>
<trkpt lat="32.589130402" lon="35.135791779">
  <ele>268.627441</ele>
  <time>2011-09-29T07:23:29Z</time>
  <speed>5.950000</speed>
</trkpt>
<trkpt lat="32.589157104" lon="35.135848999">
  <ele>268.275879</ele>
  <time>2011-09-29T07:23:30Z</time>
  <speed>5.970000</speed>
</trkpt>
<trkpt lat="32.589187622" lon="35.135906219">
  <ele>267.682129</ele>
  <time>2011-09-29T07:23:31Z</time>
  <speed>6.750000</speed>
</trkpt>
<trkpt lat="32.589218140" lon="35.135971069">
  <ele>266.963379</ele>
  <time>2011-09-29T07:23:32Z</time>
  <speed>6.610000</speed>
</trkpt>
<trkpt lat="32.589237213" lon="35.136043549">
  <ele>265.682129</ele>
  <time>2011-09-29T07:23:33Z</time>
  <speed>7.320000</speed>
</trkpt>
<trkpt lat="32.589241028" lon="35.136131287">
  <ele>265.893066</ele>
  <time>2011-09-29T07:23:34Z</time>
  <speed>7.490000</speed>
</trkpt>
<trkpt lat="32.589241028" lon="35.136215210">
  <ele>265.752441</ele>
  <time>2011-09-29T07:23:35Z</time>
  <speed>7.300000</speed>
</trkpt>
<trkpt lat="32.589248657" lon="35.136291504">
  <ele>265.604004</ele>
  <time>2011-09-29T07:23:36Z</time>
  <speed>7.160000</speed>
</trkpt>
<trkpt lat="32.589279175" lon="35.136356354">
  <ele>264.791504</ele>
  <time>2011-09-29T07:23:37Z</time>
  <speed>6.640000</speed>
</trkpt>
<trkpt lat="32.589328766" lon="35.136409760">
  <ele>263.760254</ele>
  <time>2011-09-29T07:23:38Z</time>
  <speed>7.150000</speed>
</trkpt>
<trkpt lat="32.589374542" lon="35.136459351">
  <ele>263.283691</ele>
  <time>2011-09-29T07:23:39Z</time>
  <speed>7.100000</speed>
</trkpt>
<trkpt lat="32.589420319" lon="35.136512756">
  <ele>262.439941</ele>
  <time>2011-09-29T07:23:40Z</time>
  <speed>7.010000</speed>
</trkpt>
<trkpt lat="32.589466095" lon="35.136566162">
  <ele>262.994629</ele>
  <time>2011-09-29T07:23:41Z</time>
  <speed>6.930000</speed>
</trkpt>
<trkpt lat="32.589519501" lon="35.136611938">
  <ele>262.604004</ele>
  <time>2011-09-29T07:23:42Z</time>
  <speed>6.470000</speed>
</trkpt>
<trkpt lat="32.589553833" lon="35.136672974">
  <ele>262.260254</ele>
  <time>2011-09-29T07:23:43Z</time>
  <speed>7.060000</speed>
</trkpt>
<trkpt lat="32.589584351" lon="35.136741638">
  <ele>261.791504</ele>
  <time>2011-09-29T07:23:44Z</time>
  <speed>7.400000</speed>
</trkpt>
<trkpt lat="32.589626312" lon="35.136810303">
  <ele>261.104004</ele>
  <time>2011-09-29T07:23:45Z</time>
  <speed>7.480000</speed>
</trkpt>
<trkpt lat="32.589668274" lon="35.136871338">
  <ele>259.822754</ele>
  <time>2011-09-29T07:23:46Z</time>
  <speed>6.850000</speed>
</trkpt>
<trkpt lat="32.589706421" lon="35.136924744">
  <ele>259.322754</ele>
  <time>2011-09-29T07:23:47Z</time>
  <speed>6.590000</speed>
</trkpt>
<trkpt lat="32.589756012" lon="35.136974335">
  <ele>258.572754</ele>
  <time>2011-09-29T07:23:48Z</time>
  <speed>7.150000</speed>
</trkpt>
<trkpt lat="32.589809418" lon="35.137016296">
  <ele>257.846191</ele>
  <time>2011-09-29T07:23:49Z</time>
  <speed>6.420000</speed>
</trkpt>
<trkpt lat="32.589862823" lon="35.137050629">
  <ele>257.150879</ele>
  <time>2011-09-29T07:23:50Z</time>
  <speed>6.430000</speed>
</trkpt>
<trkpt lat="32.589904785" lon="35.137096405">
  <ele>256.221191</ele>
  <time>2011-09-29T07:23:51Z</time>
  <speed>6.040000</speed>
</trkpt>
<trkpt lat="32.589935303" lon="35.137142181">
  <ele>255.598877</ele>
  <time>2011-09-29T07:23:52Z</time>
  <speed>5.450000</speed>
</trkpt>
<trkpt lat="32.589965820" lon="35.137176514">
  <ele>255.579346</ele>
  <time>2011-09-29T07:23:53Z</time>
  <speed>3.930000</speed>
</trkpt>
<trkpt lat="32.590015411" lon="35.137187958">
  <ele>255.364502</ele>
  <time>2011-09-29T07:23:54Z</time>
  <speed>4.040000</speed>
</trkpt>
<trkpt lat="32.590065002" lon="35.137187958">
  <ele>254.028564</ele>
  <time>2011-09-29T07:23:55Z</time>
  <speed>5.740000</speed>
</trkpt>
<trkpt lat="32.590118408" lon="35.137199402">
  <ele>254.122314</ele>
  <time>2011-09-29T07:23:56Z</time>
  <speed>5.580000</speed>
</trkpt>
<trkpt lat="32.590171814" lon="35.137210846">
  <ele>253.516846</ele>
  <time>2011-09-29T07:23:57Z</time>
  <speed>6.510000</speed>
</trkpt>
<trkpt lat="32.590240479" lon="35.137218475">
  <ele>252.430908</ele>
  <time>2011-09-29T07:23:58Z</time>
  <speed>6.520000</speed>
</trkpt>
<trkpt lat="32.590305328" lon="35.137237549">
  <ele>251.759033</ele>
  <time>2011-09-29T07:23:59Z</time>
  <speed>6.890000</speed>
</trkpt>
<trkpt lat="32.590370178" lon="35.137248993">
  <ele>251.270752</ele>
  <time>2011-09-29T07:24:00Z</time>
  <speed>7.090000</speed>
</trkpt>
<trkpt lat="32.590438843" lon="35.137260437">
  <ele>250.040283</ele>
  <time>2011-09-29T07:24:01Z</time>
  <speed>7.600000</speed>
</trkpt>
<trkpt lat="32.590518951" lon="35.137260437">
  <ele>249.485596</ele>
  <time>2011-09-29T07:24:02Z</time>
  <speed>7.970000</speed>
</trkpt>
<trkpt lat="32.590602875" lon="35.137256622">
  <ele>249.415283</ele>
  <time>2011-09-29T07:24:03Z</time>
  <speed>8.710000</speed>
</trkpt>
<trkpt lat="32.590686798" lon="35.137245178">
  <ele>248.575439</ele>
  <time>2011-09-29T07:24:04Z</time>
  <speed>8.520000</speed>
</trkpt>
<trkpt lat="32.590759277" lon="35.137268066">
  <ele>248.200439</ele>
  <time>2011-09-29T07:24:05Z</time>
  <speed>7.480000</speed>
</trkpt>
<trkpt lat="32.590805054" lon="35.137325287">
  <ele>247.954346</ele>
  <time>2011-09-29T07:24:06Z</time>
  <speed>7.320000</speed>
</trkpt>
<trkpt lat="32.590831757" lon="35.137397766">
  <ele>247.442627</ele>
  <time>2011-09-29T07:24:07Z</time>
  <speed>7.140000</speed>
</trkpt>
<trkpt lat="32.590850830" lon="35.137470245">
  <ele>246.950439</ele>
  <time>2011-09-29T07:24:08Z</time>
  <speed>6.870000</speed>
</trkpt>
<trkpt lat="32.590873718" lon="35.137535095">
  <ele>246.165283</ele>
  <time>2011-09-29T07:24:09Z</time>
  <speed>6.100000</speed>
</trkpt>
<trkpt lat="32.590892792" lon="35.137599945">
  <ele>245.157471</ele>
  <time>2011-09-29T07:24:10Z</time>
  <speed>6.460000</speed>
</trkpt>
<trkpt lat="32.590915680" lon="35.137657166">
  <ele>244.169189</ele>
  <time>2011-09-29T07:24:11Z</time>
  <speed>6.060000</speed>
</trkpt>
<trkpt lat="32.590946198" lon="35.137706757">
  <ele>243.032471</ele>
  <time>2011-09-29T07:24:12Z</time>
  <speed>5.590000</speed>
</trkpt>
<trkpt lat="32.590980530" lon="35.137744904">
  <ele>242.723877</ele>
  <time>2011-09-29T07:24:13Z</time>
  <speed>4.000000</speed>
</trkpt>
<trkpt lat="32.591003418" lon="35.137760162">
  <ele>243.485596</ele>
  <time>2011-09-29T07:24:17Z</time>
  <speed>0.040000</speed>
</trkpt>
<trkpt lat="32.590969086" lon="35.137737274">
  <ele>243.208252</ele>
  <time>2011-09-29T07:24:21Z</time>
  <speed>1.280000</speed>
</trkpt>
<trkpt lat="32.590950012" lon="35.137706757">
  <ele>242.981689</ele>
  <time>2011-09-29T07:24:23Z</time>
  <speed>1.380000</speed>
</trkpt>
<trkpt lat="32.590930939" lon="35.137672424">
  <ele>243.446533</ele>
  <time>2011-09-29T07:24:26Z</time>
  <speed>0.780000</speed>
</trkpt>
<trkpt lat="32.590904236" lon="35.137649536">
  <ele>244.684814</ele>
  <time>2011-09-29T07:24:30Z</time>
  <speed>0.120000</speed>
</trkpt>
<trkpt lat="32.590934753" lon="35.137683868">
  <ele>244.384033</ele>
  <time>2011-09-29T07:24:42Z</time>
  <speed>2.160000</speed>
</trkpt>
<trkpt lat="32.590972900" lon="35.137722015">
  <ele>244.684814</ele>
  <time>2011-09-29T07:24:44Z</time>
  <speed>3.120000</speed>
</trkpt>
<trkpt lat="32.591003418" lon="35.137744904">
  <ele>244.895752</ele>
  <time>2011-09-29T07:24:45Z</time>
  <speed>3.750000</speed>
</trkpt>
<trkpt lat="32.591041565" lon="35.137760162">
  <ele>244.954346</ele>
  <time>2011-09-29T07:24:46Z</time>
  <speed>4.730000</speed>
</trkpt>
<trkpt lat="32.591087341" lon="35.137779236">
  <ele>244.360596</ele>
  <time>2011-09-29T07:24:47Z</time>
  <speed>5.360000</speed>
</trkpt>
<trkpt lat="32.591133118" lon="35.137805939">
  <ele>243.591064</ele>
  <time>2011-09-29T07:24:48Z</time>
  <speed>5.020000</speed>
</trkpt>
<trkpt lat="32.591175079" lon="35.137836456">
  <ele>243.634033</ele>
  <time>2011-09-29T07:24:49Z</time>
  <speed>5.230000</speed>
</trkpt>
<trkpt lat="32.591194153" lon="35.137889862">
  <ele>242.915283</ele>
  <time>2011-09-29T07:24:50Z</time>
  <speed>5.840000</speed>
</trkpt>
<trkpt lat="32.591178894" lon="35.137947083">
  <ele>242.223877</ele>
  <time>2011-09-29T07:24:51Z</time>
  <speed>5.310000</speed>
</trkpt>
<trkpt lat="32.591159821" lon="35.138004303">
  <ele>241.895752</ele>
  <time>2011-09-29T07:24:52Z</time>
  <speed>5.810000</speed>
</trkpt>
<trkpt lat="32.591136932" lon="35.138065338">
  <ele>241.727783</ele>
  <time>2011-09-29T07:24:53Z</time>
  <speed>6.000000</speed>
</trkpt>
<trkpt lat="32.591125488" lon="35.138130188">
  <ele>241.094971</ele>
  <time>2011-09-29T07:24:54Z</time>
  <speed>6.530000</speed>
</trkpt>
<trkpt lat="32.591117859" lon="35.138206482">
  <ele>240.708252</ele>
  <time>2011-09-29T07:24:55Z</time>
  <speed>7.050000</speed>
</trkpt>
<trkpt lat="32.591117859" lon="35.138286591">
  <ele>239.993408</ele>
  <time>2011-09-29T07:24:56Z</time>
  <speed>7.070000</speed>
</trkpt>
<trkpt lat="32.591121674" lon="35.138370514">
  <ele>239.880127</ele>
  <time>2011-09-29T07:24:57Z</time>
  <speed>7.470000</speed>
</trkpt>
<trkpt lat="32.591140747" lon="35.138446808">
  <ele>241.020752</ele>
  <time>2011-09-29T07:24:58Z</time>
  <speed>7.540000</speed>
</trkpt>
<trkpt lat="32.591171265" lon="35.138519287">
  <ele>241.380127</ele>
  <time>2011-09-29T07:24:59Z</time>
  <speed>7.390000</speed>
</trkpt>
<trkpt lat="32.591194153" lon="35.138595581">
  <ele>241.247314</ele>
  <time>2011-09-29T07:25:00Z</time>
  <speed>7.430000</speed>
</trkpt>
<trkpt lat="32.591213226" lon="35.138668060">
  <ele>241.216064</ele>
  <time>2011-09-29T07:25:01Z</time>
  <speed>7.100000</speed>
</trkpt>
<trkpt lat="32.591201782" lon="35.138740540">
  <ele>241.333252</ele>
  <time>2011-09-29T07:25:02Z</time>
  <speed>6.830000</speed>
</trkpt>
<trkpt lat="32.591182709" lon="35.138813019">
  <ele>241.344971</ele>
  <time>2011-09-29T07:25:03Z</time>
  <speed>7.020000</speed>
</trkpt>
<trkpt lat="32.591190338" lon="35.138885498">
  <ele>240.141846</ele>
  <time>2011-09-29T07:25:04Z</time>
  <speed>6.930000</speed>
</trkpt>
<trkpt lat="32.591201782" lon="35.138957977">
  <ele>240.063721</ele>
  <time>2011-09-29T07:25:05Z</time>
  <speed>6.580000</speed>
</trkpt>
<trkpt lat="32.591213226" lon="35.139030457">
  <ele>241.485596</ele>
  <time>2011-09-29T07:25:06Z</time>
  <speed>6.510000</speed>
</trkpt>
<trkpt lat="32.591236115" lon="35.139099121">
  <ele>240.637939</ele>
  <time>2011-09-29T07:25:07Z</time>
  <speed>6.990000</speed>
</trkpt>
<trkpt lat="32.591247559" lon="35.139167786">
  <ele>240.735596</ele>
  <time>2011-09-29T07:25:08Z</time>
  <speed>5.910000</speed>
</trkpt>
<trkpt lat="32.591243744" lon="35.139225006">
  <ele>240.778564</ele>
  <time>2011-09-29T07:25:09Z</time>
  <speed>5.630000</speed>
</trkpt>
<trkpt lat="32.591220856" lon="35.139278412">
  <ele>240.727783</ele>
  <time>2011-09-29T07:25:10Z</time>
  <speed>5.480000</speed>
</trkpt>
<trkpt lat="32.591205597" lon="35.139339447">
  <ele>240.009033</ele>
  <time>2011-09-29T07:25:11Z</time>
  <speed>6.090000</speed>
</trkpt>
<trkpt lat="32.591201782" lon="35.139408112">
  <ele>238.790283</ele>
  <time>2011-09-29T07:25:12Z</time>
  <speed>6.350000</speed>
</trkpt>
<trkpt lat="32.591197968" lon="35.139476776">
  <ele>238.087158</ele>
  <time>2011-09-29T07:25:13Z</time>
  <speed>6.200000</speed>
</trkpt>
<trkpt lat="32.591201782" lon="35.139537811">
  <ele>236.680908</ele>
  <time>2011-09-29T07:25:14Z</time>
  <speed>5.630000</speed>
</trkpt>
<trkpt lat="32.591205597" lon="35.139598846">
  <ele>235.669189</ele>
  <time>2011-09-29T07:25:15Z</time>
  <speed>5.280000</speed>
</trkpt>
<trkpt lat="32.591220856" lon="35.139644623">
  <ele>235.774658</ele>
  <time>2011-09-29T07:25:16Z</time>
  <speed>4.590000</speed>
</trkpt>
<trkpt lat="32.591243744" lon="35.139686584">
  <ele>235.540283</ele>
  <time>2011-09-29T07:25:17Z</time>
  <speed>4.300000</speed>
</trkpt>
<trkpt lat="32.591247559" lon="35.139724731">
  <ele>235.196533</ele>
  <time>2011-09-29T07:25:18Z</time>
  <speed>3.650000</speed>
</trkpt>
<trkpt lat="32.591247559" lon="35.139766693">
  <ele>235.071533</ele>
  <time>2011-09-29T07:25:19Z</time>
  <speed>4.430000</speed>
</trkpt>
<trkpt lat="32.591251373" lon="35.139820099">
  <ele>235.716064</ele>
  <time>2011-09-29T07:25:20Z</time>
  <speed>4.800000</speed>
</trkpt>
<trkpt lat="32.591259003" lon="35.139873505">
  <ele>235.247314</ele>
  <time>2011-09-29T07:25:21Z</time>
  <speed>5.670000</speed>
</trkpt>
<trkpt lat="32.591259003" lon="35.139934540">
  <ele>233.903564</ele>
  <time>2011-09-29T07:25:22Z</time>
  <speed>6.050000</speed>
</trkpt>
<trkpt lat="32.591251373" lon="35.140003204">
  <ele>233.583252</ele>
  <time>2011-09-29T07:25:23Z</time>
  <speed>6.670000</speed>
</trkpt>
<trkpt lat="32.591255188" lon="35.140083313">
  <ele>233.173096</ele>
  <time>2011-09-29T07:25:24Z</time>
  <speed>7.460000</speed>
</trkpt>
<trkpt lat="32.591266632" lon="35.140159607">
  <ele>232.391846</ele>
  <time>2011-09-29T07:25:25Z</time>
  <speed>7.570000</speed>
</trkpt>
<trkpt lat="32.591274261" lon="35.140235901">
  <ele>231.544189</ele>
  <time>2011-09-29T07:25:26Z</time>
  <speed>7.690000</speed>
</trkpt>
<trkpt lat="32.591281891" lon="35.140327454">
  <ele>231.145752</ele>
  <time>2011-09-29T07:25:27Z</time>
  <speed>7.820000</speed>
</trkpt>
<trkpt lat="32.591281891" lon="35.140407562">
  <ele>230.700439</ele>
  <time>2011-09-29T07:25:28Z</time>
  <speed>7.210000</speed>
</trkpt>
<trkpt lat="32.591274261" lon="35.140483856">
  <ele>230.212158</ele>
  <time>2011-09-29T07:25:29Z</time>
  <speed>7.330000</speed>
</trkpt>
<trkpt lat="32.591262817" lon="35.140560150">
  <ele>230.094971</ele>
  <time>2011-09-29T07:25:30Z</time>
  <speed>7.230000</speed>
</trkpt>
<trkpt lat="32.591262817" lon="35.140632629">
  <ele>229.387939</ele>
  <time>2011-09-29T07:25:31Z</time>
  <speed>5.860000</speed>
</trkpt>
<trkpt lat="32.591285706" lon="35.140678406">
  <ele>228.610596</ele>
  <time>2011-09-29T07:25:32Z</time>
  <speed>4.980000</speed>
</trkpt>
<trkpt lat="32.591304779" lon="35.140720367">
  <ele>227.997314</ele>
  <time>2011-09-29T07:25:33Z</time>
  <speed>4.890000</speed>
</trkpt>
<trkpt lat="32.591304779" lon="35.140766144">
  <ele>227.598877</ele>
  <time>2011-09-29T07:25:34Z</time>
  <speed>4.600000</speed>
</trkpt>
<trkpt lat="32.591293335" lon="35.140819550">
  <ele>227.798096</ele>
  <time>2011-09-29T07:25:35Z</time>
  <speed>5.250000</speed>
</trkpt>
<trkpt lat="32.591281891" lon="35.140872955">
  <ele>227.649658</ele>
  <time>2011-09-29T07:25:36Z</time>
  <speed>5.700000</speed>
</trkpt>
<trkpt lat="32.591278076" lon="35.140933990">
  <ele>226.930908</ele>
  <time>2011-09-29T07:25:37Z</time>
  <speed>5.880000</speed>
</trkpt>
<trkpt lat="32.591274261" lon="35.140998840">
  <ele>226.333252</ele>
  <time>2011-09-29T07:25:38Z</time>
  <speed>6.360000</speed>
</trkpt>
<trkpt lat="32.591285706" lon="35.141067505">
  <ele>222.501221</ele>
  <time>2011-09-29T07:25:39Z</time>
  <speed>6.280000</speed>
</trkpt>
<trkpt lat="32.591312408" lon="35.141128540">
  <ele>221.509033</ele>
  <time>2011-09-29T07:25:40Z</time>
  <speed>6.620000</speed>
</trkpt>
<trkpt lat="32.591350555" lon="35.141189575">
  <ele>220.337158</ele>
  <time>2011-09-29T07:25:41Z</time>
  <speed>6.580000</speed>
</trkpt>
<trkpt lat="32.591384888" lon="35.141254425">
  <ele>219.458252</ele>
  <time>2011-09-29T07:25:42Z</time>
  <speed>6.460000</speed>
</trkpt>
<trkpt lat="32.591411591" lon="35.141315460">
  <ele>218.934814</ele>
  <time>2011-09-29T07:25:43Z</time>
  <speed>5.780000</speed>
</trkpt>
<trkpt lat="32.591434479" lon="35.141368866">
  <ele>218.579346</ele>
  <time>2011-09-29T07:25:44Z</time>
  <speed>4.920000</speed>
</trkpt>
<trkpt lat="32.591461182" lon="35.141410828">
  <ele>218.466064</ele>
  <time>2011-09-29T07:25:45Z</time>
  <speed>4.600000</speed>
</trkpt>
<trkpt lat="32.591499329" lon="35.141437531">
  <ele>218.333252</ele>
  <time>2011-09-29T07:25:46Z</time>
  <speed>5.140000</speed>
</trkpt>
<trkpt lat="32.591545105" lon="35.141445160">
  <ele>217.520752</ele>
  <time>2011-09-29T07:25:47Z</time>
  <speed>5.330000</speed>
</trkpt>
<trkpt lat="32.591594696" lon="35.141452789">
  <ele>216.927002</ele>
  <time>2011-09-29T07:25:48Z</time>
  <speed>5.260000</speed>
</trkpt>
<trkpt lat="32.591640472" lon="35.141479492">
  <ele>216.473877</ele>
  <time>2011-09-29T07:25:49Z</time>
  <speed>5.900000</speed>
</trkpt>
<trkpt lat="32.591682434" lon="35.141513824">
  <ele>215.259033</ele>
  <time>2011-09-29T07:25:50Z</time>
  <speed>5.570000</speed>
</trkpt>
<trkpt lat="32.591728210" lon="35.141536713">
  <ele>214.243408</ele>
  <time>2011-09-29T07:25:51Z</time>
  <speed>5.340000</speed>
</trkpt>
<trkpt lat="32.591766357" lon="35.141563416">
  <ele>213.575439</ele>
  <time>2011-09-29T07:25:52Z</time>
  <speed>4.730000</speed>
</trkpt>
<trkpt lat="32.591796875" lon="35.141613007">
  <ele>212.766846</ele>
  <time>2011-09-29T07:25:53Z</time>
  <speed>4.840000</speed>
</trkpt>
<trkpt lat="32.591823578" lon="35.141658783">
  <ele>211.591064</ele>
  <time>2011-09-29T07:25:54Z</time>
  <speed>5.460000</speed>
</trkpt>
<trkpt lat="32.591857910" lon="35.141696930">
  <ele>210.735596</ele>
  <time>2011-09-29T07:25:55Z</time>
  <speed>5.970000</speed>
</trkpt>
<trkpt lat="32.591896057" lon="35.141750336">
  <ele>209.587158</ele>
  <time>2011-09-29T07:25:56Z</time>
  <speed>6.270000</speed>
</trkpt>
<trkpt lat="32.591926575" lon="35.141815186">
  <ele>209.524658</ele>
  <time>2011-09-29T07:25:57Z</time>
  <speed>7.330000</speed>
</trkpt>
<trkpt lat="32.591938019" lon="35.141880035">
  <ele>208.641846</ele>
  <time>2011-09-29T07:25:58Z</time>
  <speed>6.180000</speed>
</trkpt>
<trkpt lat="32.591922760" lon="35.141948700">
  <ele>207.891846</ele>
  <time>2011-09-29T07:25:59Z</time>
  <speed>5.950000</speed>
</trkpt>
<trkpt lat="32.591899872" lon="35.142009735">
  <ele>207.544189</ele>
  <time>2011-09-29T07:26:00Z</time>
  <speed>6.090000</speed>
</trkpt>
<trkpt lat="32.591884613" lon="35.142074585">
  <ele>207.063721</ele>
  <time>2011-09-29T07:26:01Z</time>
  <speed>6.300000</speed>
</trkpt>
<trkpt lat="32.591888428" lon="35.142135620">
  <ele>207.102783</ele>
  <time>2011-09-29T07:26:02Z</time>
  <speed>5.010000</speed>
</trkpt>
<trkpt lat="32.591903687" lon="35.142185211">
  <ele>206.669189</ele>
  <time>2011-09-29T07:26:03Z</time>
  <speed>4.820000</speed>
</trkpt>
<trkpt lat="32.591922760" lon="35.142234802">
  <ele>206.184814</ele>
  <time>2011-09-29T07:26:04Z</time>
  <speed>5.280000</speed>
</trkpt>
<trkpt lat="32.591941833" lon="35.142295837">
  <ele>206.094971</ele>
  <time>2011-09-29T07:26:05Z</time>
  <speed>6.250000</speed>
</trkpt>
<trkpt lat="32.591960907" lon="35.142364502">
  <ele>206.200439</ele>
  <time>2011-09-29T07:26:06Z</time>
  <speed>6.620000</speed>
</trkpt>
<trkpt lat="32.591987610" lon="35.142425537">
  <ele>206.055908</ele>
  <time>2011-09-29T07:26:07Z</time>
  <speed>5.910000</speed>
</trkpt>
<trkpt lat="32.592018127" lon="35.142471313">
  <ele>205.141846</ele>
  <time>2011-09-29T07:26:08Z</time>
  <speed>5.440000</speed>
</trkpt>
<trkpt lat="32.592052460" lon="35.142517090">
  <ele>204.958252</ele>
  <time>2011-09-29T07:26:09Z</time>
  <speed>5.760000</speed>
</trkpt>
<trkpt lat="32.592086792" lon="35.142570496">
  <ele>204.266846</ele>
  <time>2011-09-29T07:26:10Z</time>
  <speed>5.830000</speed>
</trkpt>
<trkpt lat="32.592113495" lon="35.142620087">
  <ele>203.606689</ele>
  <time>2011-09-29T07:26:11Z</time>
  <speed>5.570000</speed>
</trkpt>
<trkpt lat="32.592117310" lon="35.142665863">
  <ele>202.833252</ele>
  <time>2011-09-29T07:26:12Z</time>
  <speed>4.960000</speed>
</trkpt>
<trkpt lat="32.592105865" lon="35.142719269">
  <ele>202.118408</ele>
  <time>2011-09-29T07:26:13Z</time>
  <speed>5.390000</speed>
</trkpt>
<trkpt lat="32.592102051" lon="35.142780304">
  <ele>201.493408</ele>
  <time>2011-09-29T07:26:14Z</time>
  <speed>5.600000</speed>
</trkpt>
<trkpt lat="32.592105865" lon="35.142829895">
  <ele>199.368408</ele>
  <time>2011-09-29T07:26:15Z</time>
  <speed>4.430000</speed>
</trkpt>
<trkpt lat="32.592128754" lon="35.142864227">
  <ele>199.016846</ele>
  <time>2011-09-29T07:26:16Z</time>
  <speed>3.700000</speed>
</trkpt>
<trkpt lat="32.592170715" lon="35.142875671">
  <ele>199.243408</ele>
  <time>2011-09-29T07:26:17Z</time>
  <speed>4.540000</speed>
</trkpt>
<trkpt lat="32.592224121" lon="35.142871857">
  <ele>199.153564</ele>
  <time>2011-09-29T07:26:18Z</time>
  <speed>5.340000</speed>
</trkpt>
<trkpt lat="32.592277527" lon="35.142868042">
  <ele>199.380127</ele>
  <time>2011-09-29T07:26:19Z</time>
  <speed>5.430000</speed>
</trkpt>
<trkpt lat="32.592330933" lon="35.142852783">
  <ele>200.466064</ele>
  <time>2011-09-29T07:26:20Z</time>
  <speed>4.930000</speed>
</trkpt>
<trkpt lat="32.592372894" lon="35.142833710">
  <ele>200.524658</ele>
  <time>2011-09-29T07:26:21Z</time>
  <speed>4.840000</speed>
</trkpt>
<trkpt lat="32.592418671" lon="35.142826080">
  <ele>201.036377</ele>
  <time>2011-09-29T07:26:22Z</time>
  <speed>5.030000</speed>
</trkpt>
<trkpt lat="32.592460632" lon="35.142822266">
  <ele>201.137939</ele>
  <time>2011-09-29T07:26:23Z</time>
  <speed>4.810000</speed>
</trkpt>
<trkpt lat="32.592502594" lon="35.142814636">
  <ele>199.700439</ele>
  <time>2011-09-29T07:26:24Z</time>
  <speed>4.970000</speed>
</trkpt>
<trkpt lat="32.592544556" lon="35.142787933">
  <ele>199.126221</ele>
  <time>2011-09-29T07:26:25Z</time>
  <speed>4.760000</speed>
</trkpt>
<trkpt lat="32.592578888" lon="35.142749786">
  <ele>199.298096</ele>
  <time>2011-09-29T07:26:26Z</time>
  <speed>4.940000</speed>
</trkpt>
<trkpt lat="32.592613220" lon="35.142715454">
  <ele>199.180908</ele>
  <time>2011-09-29T07:26:27Z</time>
  <speed>4.390000</speed>
</trkpt>
<trkpt lat="32.592647552" lon="35.142704010">
  <ele>198.665283</ele>
  <time>2011-09-29T07:26:28Z</time>
  <speed>4.000000</speed>
</trkpt>
<trkpt lat="32.592678070" lon="35.142734528">
  <ele>198.403564</ele>
  <time>2011-09-29T07:26:29Z</time>
  <speed>4.730000</speed>
</trkpt>
<trkpt lat="32.592685699" lon="35.142776489">
  <ele>197.438721</ele>
  <time>2011-09-29T07:26:30Z</time>
  <speed>4.510000</speed>
</trkpt>
<trkpt lat="32.592674255" lon="35.142829895">
  <ele>197.055908</ele>
  <time>2011-09-29T07:26:31Z</time>
  <speed>4.950000</speed>
</trkpt>
<trkpt lat="32.592678070" lon="35.142887115">
  <ele>195.251221</ele>
  <time>2011-09-29T07:26:32Z</time>
  <speed>5.290000</speed>
</trkpt>
<trkpt lat="32.592697144" lon="35.142940521">
  <ele>194.161377</ele>
  <time>2011-09-29T07:26:33Z</time>
  <speed>5.260000</speed>
</trkpt>
<trkpt lat="32.592712402" lon="35.142993927">
  <ele>193.844971</ele>
  <time>2011-09-29T07:26:34Z</time>
  <speed>5.670000</speed>
</trkpt>
<trkpt lat="32.592731476" lon="35.143054962">
  <ele>193.719971</ele>
  <time>2011-09-29T07:26:35Z</time>
  <speed>5.620000</speed>
</trkpt>
<trkpt lat="32.592754364" lon="35.143100739">
  <ele>193.591064</ele>
  <time>2011-09-29T07:26:36Z</time>
  <speed>4.740000</speed>
</trkpt>
<trkpt lat="32.592773438" lon="35.143138885">
  <ele>193.247314</ele>
  <time>2011-09-29T07:26:37Z</time>
  <speed>3.640000</speed>
</trkpt>
<trkpt lat="32.592800140" lon="35.143165588">
  <ele>192.727783</ele>
  <time>2011-09-29T07:26:38Z</time>
  <speed>3.810000</speed>
</trkpt>
<trkpt lat="32.592834473" lon="35.143192291">
  <ele>192.305908</ele>
  <time>2011-09-29T07:26:39Z</time>
  <speed>4.910000</speed>
</trkpt>
<trkpt lat="32.592872620" lon="35.143218994">
  <ele>192.536377</ele>
  <time>2011-09-29T07:26:40Z</time>
  <speed>4.910000</speed>
</trkpt>
<trkpt lat="32.592922211" lon="35.143241882">
  <ele>191.844971</ele>
  <time>2011-09-29T07:26:41Z</time>
  <speed>6.030000</speed>
</trkpt>
<trkpt lat="32.592971802" lon="35.143264771">
  <ele>191.083252</ele>
  <time>2011-09-29T07:26:42Z</time>
  <speed>6.270000</speed>
</trkpt>
<trkpt lat="32.593021393" lon="35.143302917">
  <ele>190.262939</ele>
  <time>2011-09-29T07:26:43Z</time>
  <speed>5.890000</speed>
</trkpt>
<trkpt lat="32.593070984" lon="35.143333435">
  <ele>189.860596</ele>
  <time>2011-09-29T07:26:44Z</time>
  <speed>5.750000</speed>
</trkpt>
<trkpt lat="32.593112946" lon="35.143363953">
  <ele>189.235596</ele>
  <time>2011-09-29T07:26:45Z</time>
  <speed>5.280000</speed>
</trkpt>
<trkpt lat="32.593154907" lon="35.143390656">
  <ele>188.427002</ele>
  <time>2011-09-29T07:26:46Z</time>
  <speed>5.500000</speed>
</trkpt>
<trkpt lat="32.593189240" lon="35.143428802">
  <ele>187.579346</ele>
  <time>2011-09-29T07:26:47Z</time>
  <speed>5.480000</speed>
</trkpt>
<trkpt lat="32.593223572" lon="35.143474579">
  <ele>187.387939</ele>
  <time>2011-09-29T07:26:48Z</time>
  <speed>5.220000</speed>
</trkpt>
<trkpt lat="32.593261719" lon="35.143508911">
  <ele>186.735596</ele>
  <time>2011-09-29T07:26:49Z</time>
  <speed>5.400000</speed>
</trkpt>
<trkpt lat="32.593311310" lon="35.143531799">
  <ele>186.235596</ele>
  <time>2011-09-29T07:26:50Z</time>
  <speed>5.800000</speed>
</trkpt>
<trkpt lat="32.593360901" lon="35.143547058">
  <ele>186.555908</ele>
  <time>2011-09-29T07:26:51Z</time>
  <speed>5.380000</speed>
</trkpt>
<trkpt lat="32.593410492" lon="35.143558502">
  <ele>186.567627</ele>
  <time>2011-09-29T07:26:52Z</time>
  <speed>5.150000</speed>
</trkpt>
<trkpt lat="32.593452454" lon="35.143573761">
  <ele>185.641846</ele>
  <time>2011-09-29T07:26:53Z</time>
  <speed>5.130000</speed>
</trkpt>
<trkpt lat="32.593490601" lon="35.143608093">
  <ele>184.657471</ele>
  <time>2011-09-29T07:26:54Z</time>
  <speed>5.650000</speed>
</trkpt>
<trkpt lat="32.593524933" lon="35.143657684">
  <ele>183.884033</ele>
  <time>2011-09-29T07:26:55Z</time>
  <speed>5.570000</speed>
</trkpt>
<trkpt lat="32.593555450" lon="35.143703461">
  <ele>183.950439</ele>
  <time>2011-09-29T07:26:56Z</time>
  <speed>4.700000</speed>
</trkpt>
<trkpt lat="32.593593597" lon="35.143730164">
  <ele>183.610596</ele>
  <time>2011-09-29T07:26:57Z</time>
  <speed>5.590000</speed>
</trkpt>
<trkpt lat="32.593650818" lon="35.143737793">
  <ele>183.005127</ele>
  <time>2011-09-29T07:26:58Z</time>
  <speed>5.560000</speed>
</trkpt>
<trkpt lat="32.593696594" lon="35.143760681">
  <ele>182.884033</ele>
  <time>2011-09-29T07:26:59Z</time>
  <speed>5.570000</speed>
</trkpt>
<trkpt lat="32.593734741" lon="35.143798828">
  <ele>181.657471</ele>
  <time>2011-09-29T07:27:00Z</time>
  <speed>5.540000</speed>
</trkpt>
<trkpt lat="32.593761444" lon="35.143848419">
  <ele>181.528564</ele>
  <time>2011-09-29T07:27:01Z</time>
  <speed>5.720000</speed>
</trkpt>
<trkpt lat="32.593788147" lon="35.143901825">
  <ele>181.067627</ele>
  <time>2011-09-29T07:27:02Z</time>
  <speed>5.830000</speed>
</trkpt>
<trkpt lat="32.593818665" lon="35.143955231">
  <ele>180.481689</ele>
  <time>2011-09-29T07:27:03Z</time>
  <speed>5.760000</speed>
</trkpt>
<trkpt lat="32.593856812" lon="35.144004822">
  <ele>179.938721</ele>
  <time>2011-09-29T07:27:04Z</time>
  <speed>6.420000</speed>
</trkpt>
<trkpt lat="32.593894958" lon="35.144054413">
  <ele>179.450439</ele>
  <time>2011-09-29T07:27:05Z</time>
  <speed>5.750000</speed>
</trkpt>
<trkpt lat="32.593925476" lon="35.144104004">
  <ele>178.790283</ele>
  <time>2011-09-29T07:27:06Z</time>
  <speed>5.810000</speed>
</trkpt>
<trkpt lat="32.593959808" lon="35.144157410">
  <ele>178.239502</ele>
  <time>2011-09-29T07:27:07Z</time>
  <speed>5.790000</speed>
</trkpt>
<trkpt lat="32.593997955" lon="35.144203186">
  <ele>178.083252</ele>
  <time>2011-09-29T07:27:08Z</time>
  <speed>5.960000</speed>
</trkpt>
<trkpt lat="32.594039917" lon="35.144237518">
  <ele>177.200439</ele>
  <time>2011-09-29T07:27:09Z</time>
  <speed>5.630000</speed>
</trkpt>
<trkpt lat="32.594085693" lon="35.144264221">
  <ele>176.137939</ele>
  <time>2011-09-29T07:27:10Z</time>
  <speed>5.640000</speed>
</trkpt>
<trkpt lat="32.594116211" lon="35.144309998">
  <ele>176.341064</ele>
  <time>2011-09-29T07:27:11Z</time>
  <speed>5.190000</speed>
</trkpt>
<trkpt lat="32.594142914" lon="35.144348145">
  <ele>176.579346</ele>
  <time>2011-09-29T07:27:12Z</time>
  <speed>4.850000</speed>
</trkpt>
<trkpt lat="32.594165802" lon="35.144386292">
  <ele>176.555908</ele>
  <time>2011-09-29T07:27:13Z</time>
  <speed>4.620000</speed>
</trkpt>
<trkpt lat="32.594184875" lon="35.144428253">
  <ele>176.872314</ele>
  <time>2011-09-29T07:27:14Z</time>
  <speed>4.210000</speed>
</trkpt>
<trkpt lat="32.594207764" lon="35.144466400">
  <ele>176.153564</ele>
  <time>2011-09-29T07:27:15Z</time>
  <speed>4.740000</speed>
</trkpt>
<trkpt lat="32.594242096" lon="35.144496918">
  <ele>175.024658</ele>
  <time>2011-09-29T07:27:16Z</time>
  <speed>4.990000</speed>
</trkpt>
<trkpt lat="32.594280243" lon="35.144531250">
  <ele>175.278564</ele>
  <time>2011-09-29T07:27:17Z</time>
  <speed>4.730000</speed>
</trkpt>
<trkpt lat="32.594314575" lon="35.144561768">
  <ele>174.716064</ele>
  <time>2011-09-29T07:27:18Z</time>
  <speed>5.120000</speed>
</trkpt>
<trkpt lat="32.594348907" lon="35.144580841">
  <ele>173.969971</ele>
  <time>2011-09-29T07:27:19Z</time>
  <speed>3.930000</speed>
</trkpt>
<trkpt lat="32.594375610" lon="35.144596100">
  <ele>173.239502</ele>
  <time>2011-09-29T07:27:20Z</time>
  <speed>2.800000</speed>
</trkpt>
<trkpt lat="32.594398499" lon="35.144615173">
  <ele>173.055908</ele>
  <time>2011-09-29T07:27:21Z</time>
  <speed>3.410000</speed>
</trkpt>
<trkpt lat="32.594417572" lon="35.144645691">
  <ele>172.704346</ele>
  <time>2011-09-29T07:27:22Z</time>
  <speed>3.830000</speed>
</trkpt>
<trkpt lat="32.594444275" lon="35.144683838">
  <ele>172.399658</ele>
  <time>2011-09-29T07:27:23Z</time>
  <speed>4.730000</speed>
</trkpt>
<trkpt lat="32.594482422" lon="35.144718170">
  <ele>171.493408</ele>
  <time>2011-09-29T07:27:24Z</time>
  <speed>5.310000</speed>
</trkpt>
<trkpt lat="32.594532013" lon="35.144741058">
  <ele>170.321533</ele>
  <time>2011-09-29T07:27:25Z</time>
  <speed>5.760000</speed>
</trkpt>
<trkpt lat="32.594581604" lon="35.144767761">
  <ele>169.302002</ele>
  <time>2011-09-29T07:27:26Z</time>
  <speed>6.110000</speed>
</trkpt>
<trkpt lat="32.594623566" lon="35.144809723">
  <ele>168.520752</ele>
  <time>2011-09-29T07:27:27Z</time>
  <speed>6.160000</speed>
</trkpt>
<trkpt lat="32.594661713" lon="35.144855499">
  <ele>167.231689</ele>
  <time>2011-09-29T07:27:28Z</time>
  <speed>5.470000</speed>
</trkpt>
<trkpt lat="32.594707489" lon="35.144886017">
  <ele>166.567627</ele>
  <time>2011-09-29T07:27:29Z</time>
  <speed>5.980000</speed>
</trkpt>
<trkpt lat="32.594760895" lon="35.144897461">
  <ele>164.821533</ele>
  <time>2011-09-29T07:27:30Z</time>
  <speed>6.000000</speed>
</trkpt>
<trkpt lat="32.594818115" lon="35.144908905">
  <ele>163.450439</ele>
  <time>2011-09-29T07:27:31Z</time>
  <speed>6.920000</speed>
</trkpt>
<trkpt lat="32.594886780" lon="35.144931793">
  <ele>162.708252</ele>
  <time>2011-09-29T07:27:32Z</time>
  <speed>7.000000</speed>
</trkpt>
<trkpt lat="32.594944000" lon="35.144954681">
  <ele>162.630127</ele>
  <time>2011-09-29T07:27:33Z</time>
  <speed>6.500000</speed>
</trkpt>
<trkpt lat="32.594997406" lon="35.144958496">
  <ele>162.415283</ele>
  <time>2011-09-29T07:27:34Z</time>
  <speed>5.610000</speed>
</trkpt>
<trkpt lat="32.595046997" lon="35.144950867">
  <ele>161.434814</ele>
  <time>2011-09-29T07:27:35Z</time>
  <speed>5.480000</speed>
</trkpt>
<trkpt lat="32.595104218" lon="35.144939423">
  <ele>160.798096</ele>
  <time>2011-09-29T07:27:36Z</time>
  <speed>5.950000</speed>
</trkpt>
<trkpt lat="32.595157623" lon="35.144916534">
  <ele>161.661377</ele>
  <time>2011-09-29T07:27:37Z</time>
  <speed>5.820000</speed>
</trkpt>
<trkpt lat="32.595211029" lon="35.144897461">
  <ele>162.962158</ele>
  <time>2011-09-29T07:27:38Z</time>
  <speed>6.120000</speed>
</trkpt>
<trkpt lat="32.595268250" lon="35.144893646">
  <ele>162.630127</ele>
  <time>2011-09-29T07:27:39Z</time>
  <speed>5.060000</speed>
</trkpt>
<trkpt lat="32.595310211" lon="35.144912720">
  <ele>162.469971</ele>
  <time>2011-09-29T07:27:40Z</time>
  <speed>4.690000</speed>
</trkpt>
<trkpt lat="32.595340729" lon="35.144939423">
  <ele>162.157471</ele>
  <time>2011-09-29T07:27:41Z</time>
  <speed>4.290000</speed>
</trkpt>
<trkpt lat="32.595378876" lon="35.144954681">
  <ele>161.688721</ele>
  <time>2011-09-29T07:27:42Z</time>
  <speed>3.390000</speed>
</trkpt>
<trkpt lat="32.595413208" lon="35.144958496">
  <ele>162.208252</ele>
  <time>2011-09-29T07:27:43Z</time>
  <speed>2.870000</speed>
</trkpt>
<trkpt lat="32.595447540" lon="35.144966125">
  <ele>162.188721</ele>
  <time>2011-09-29T07:27:44Z</time>
  <speed>2.900000</speed>
</trkpt>
<trkpt lat="32.595478058" lon="35.144969940">
  <ele>162.298096</ele>
  <time>2011-09-29T07:27:45Z</time>
  <speed>2.860000</speed>
</trkpt>
<trkpt lat="32.595504761" lon="35.144969940">
  <ele>161.411377</ele>
  <time>2011-09-29T07:27:46Z</time>
  <speed>2.950000</speed>
</trkpt>
<trkpt lat="32.595558167" lon="35.144958496">
  <ele>161.102783</ele>
  <time>2011-09-29T07:27:48Z</time>
  <speed>2.800000</speed>
</trkpt>
<trkpt lat="32.595588684" lon="35.144958496">
  <ele>160.516846</ele>
  <time>2011-09-29T07:27:49Z</time>
  <speed>3.610000</speed>
</trkpt>
<trkpt lat="32.595623016" lon="35.144954681">
  <ele>160.462158</ele>
  <time>2011-09-29T07:27:50Z</time>
  <speed>3.730000</speed>
</trkpt>
<trkpt lat="32.595653534" lon="35.144958496">
  <ele>160.993408</ele>
  <time>2011-09-29T07:27:51Z</time>
  <speed>3.790000</speed>
</trkpt>
<trkpt lat="32.595691681" lon="35.144950867">
  <ele>160.161377</ele>
  <time>2011-09-29T07:27:52Z</time>
  <speed>4.090000</speed>
</trkpt>
<trkpt lat="32.595726013" lon="35.144939423">
  <ele>160.317627</ele>
  <time>2011-09-29T07:27:53Z</time>
  <speed>4.110000</speed>
</trkpt>
<trkpt lat="32.595760345" lon="35.144924164">
  <ele>160.200439</ele>
  <time>2011-09-29T07:27:54Z</time>
  <speed>4.270000</speed>
</trkpt>
<trkpt lat="32.595794678" lon="35.144908905">
  <ele>160.134033</ele>
  <time>2011-09-29T07:27:55Z</time>
  <speed>4.090000</speed>
</trkpt>
<trkpt lat="32.595832825" lon="35.144897461">
  <ele>160.626221</ele>
  <time>2011-09-29T07:27:56Z</time>
  <speed>4.510000</speed>
</trkpt>
<trkpt lat="32.595878601" lon="35.144886017">
  <ele>160.630127</ele>
  <time>2011-09-29T07:27:57Z</time>
  <speed>4.860000</speed>
</trkpt>
<trkpt lat="32.595916748" lon="35.144874573">
  <ele>159.528564</ele>
  <time>2011-09-29T07:27:58Z</time>
  <speed>4.090000</speed>
</trkpt>
<trkpt lat="32.595947266" lon="35.144863129">
  <ele>159.098877</ele>
  <time>2011-09-29T07:27:59Z</time>
  <speed>3.850000</speed>
</trkpt>
<trkpt lat="32.595993042" lon="35.144844055">
  <ele>158.044189</ele>
  <time>2011-09-29T07:28:01Z</time>
  <speed>1.850000</speed>
</trkpt>
<trkpt lat="32.596019745" lon="35.144824982">
  <ele>158.321533</ele>
  <time>2011-09-29T07:34:21Z</time>
  <speed>1.160000</speed>
</trkpt>
<trkpt lat="32.596042633" lon="35.144802094">
  <ele>158.552002</ele>
  <time>2011-09-29T07:34:24Z</time>
  <speed>1.390000</speed>
</trkpt>
<trkpt lat="32.596065521" lon="35.144786835">
  <ele>158.317627</ele>
  <time>2011-09-29T07:34:26Z</time>
  <speed>2.010000</speed>
</trkpt>
<trkpt lat="32.596096039" lon="35.144760132">
  <ele>158.770752</ele>
  <time>2011-09-29T07:34:28Z</time>
  <speed>1.910000</speed>
</trkpt>
<trkpt lat="32.596118927" lon="35.144741058">
  <ele>158.649658</ele>
  <time>2011-09-29T07:34:30Z</time>
  <speed>1.950000</speed>
</trkpt>
<trkpt lat="32.596141815" lon="35.144718170">
  <ele>158.641846</ele>
  <time>2011-09-29T07:34:32Z</time>
  <speed>2.060000</speed>
</trkpt>
<trkpt lat="32.596176147" lon="35.144687653">
  <ele>158.723877</ele>
  <time>2011-09-29T07:34:34Z</time>
  <speed>2.450000</speed>
</trkpt>
<trkpt lat="32.596214294" lon="35.144657135">
  <ele>158.677002</ele>
  <time>2011-09-29T07:34:36Z</time>
  <speed>2.520000</speed>
</trkpt>
<trkpt lat="32.596256256" lon="35.144630432">
  <ele>158.278564</ele>
  <time>2011-09-29T07:34:38Z</time>
  <speed>2.540000</speed>
</trkpt>
<trkpt lat="32.596294403" lon="35.144599915">
  <ele>158.255127</ele>
  <time>2011-09-29T07:34:40Z</time>
  <speed>2.510000</speed>
</trkpt>
<trkpt lat="32.596336365" lon="35.144573212">
  <ele>157.966064</ele>
  <time>2011-09-29T07:34:42Z</time>
  <speed>2.620000</speed>
</trkpt>
<trkpt lat="32.596374512" lon="35.144531250">
  <ele>158.462158</ele>
  <time>2011-09-29T07:34:44Z</time>
  <speed>2.320000</speed>
</trkpt>
<trkpt lat="32.596408844" lon="35.144489288">
  <ele>158.395752</ele>
  <time>2011-09-29T07:34:46Z</time>
  <speed>2.550000</speed>
</trkpt>
<trkpt lat="32.596443176" lon="35.144454956">
  <ele>158.591064</ele>
  <time>2011-09-29T07:34:48Z</time>
  <speed>2.750000</speed>
</trkpt>
<trkpt lat="32.596473694" lon="35.144412994">
  <ele>159.094971</ele>
  <time>2011-09-29T07:34:50Z</time>
  <speed>2.720000</speed>
</trkpt>
<trkpt lat="32.596492767" lon="35.144390106">
  <ele>159.036377</ele>
  <time>2011-09-29T07:34:51Z</time>
  <speed>2.820000</speed>
</trkpt>
<trkpt lat="32.596515656" lon="35.144371033">
  <ele>159.118408</ele>
  <time>2011-09-29T07:34:52Z</time>
  <speed>3.240000</speed>
</trkpt>
<trkpt lat="32.596542358" lon="35.144351959">
  <ele>158.290283</ele>
  <time>2011-09-29T07:34:53Z</time>
  <speed>3.300000</speed>
</trkpt>
<trkpt lat="32.596565247" lon="35.144329071">
  <ele>158.110596</ele>
  <time>2011-09-29T07:34:54Z</time>
  <speed>3.310000</speed>
</trkpt>
<trkpt lat="32.596588135" lon="35.144306183">
  <ele>157.973877</ele>
  <time>2011-09-29T07:34:55Z</time>
  <speed>3.340000</speed>
</trkpt>
<trkpt lat="32.596607208" lon="35.144287109">
  <ele>158.165283</ele>
  <time>2011-09-29T07:34:56Z</time>
  <speed>3.270000</speed>
</trkpt>
<trkpt lat="32.596641541" lon="35.144241333">
  <ele>157.813721</ele>
  <time>2011-09-29T07:34:58Z</time>
  <speed>2.990000</speed>
</trkpt>
<trkpt lat="32.596672058" lon="35.144199371">
  <ele>157.809814</ele>
  <time>2011-09-29T07:35:00Z</time>
  <speed>2.480000</speed>
</trkpt>
<trkpt lat="32.596710205" lon="35.144168854">
  <ele>157.298096</ele>
  <time>2011-09-29T07:35:02Z</time>
  <speed>2.540000</speed>
</trkpt>
<trkpt lat="32.596744537" lon="35.144130707">
  <ele>157.575439</ele>
  <time>2011-09-29T07:35:04Z</time>
  <speed>2.080000</speed>
</trkpt>
<trkpt lat="32.596771240" lon="35.144104004">
  <ele>157.427002</ele>
  <time>2011-09-29T07:35:06Z</time>
  <speed>2.370000</speed>
</trkpt>
<trkpt lat="32.596805573" lon="35.144065857">
  <ele>157.747314</ele>
  <time>2011-09-29T07:35:08Z</time>
  <speed>2.720000</speed>
</trkpt>
<trkpt lat="32.596851349" lon="35.144031525">
  <ele>157.274658</ele>
  <time>2011-09-29T07:35:10Z</time>
  <speed>3.350000</speed>
</trkpt>
<trkpt lat="32.596870422" lon="35.144012451">
  <ele>157.204346</ele>
  <time>2011-09-29T07:35:11Z</time>
  <speed>3.140000</speed>
</trkpt>
<trkpt lat="32.596893311" lon="35.143993378">
  <ele>156.923096</ele>
  <time>2011-09-29T07:35:12Z</time>
  <speed>3.250000</speed>
</trkpt>
<trkpt lat="32.596908569" lon="35.143962860">
  <ele>156.919189</ele>
  <time>2011-09-29T07:35:13Z</time>
  <speed>2.820000</speed>
</trkpt>
<trkpt lat="32.596935272" lon="35.143924713">
  <ele>155.688721</ele>
  <time>2011-09-29T07:35:15Z</time>
  <speed>2.330000</speed>
</trkpt>
<trkpt lat="32.596954346" lon="35.143882751">
  <ele>155.540283</ele>
  <time>2011-09-29T07:35:17Z</time>
  <speed>2.010000</speed>
</trkpt>
<trkpt lat="32.596981049" lon="35.143856049">
  <ele>155.997314</ele>
  <time>2011-09-29T07:35:19Z</time>
  <speed>1.590000</speed>
</trkpt>
<trkpt lat="32.597011566" lon="35.143833160">
  <ele>156.555908</ele>
  <time>2011-09-29T07:35:21Z</time>
  <speed>1.260000</speed>
</trkpt>
<trkpt lat="32.597045898" lon="35.143844604">
  <ele>156.954346</ele>
  <time>2011-09-29T07:35:23Z</time>
  <speed>2.750000</speed>
</trkpt>
<trkpt lat="32.597072601" lon="35.143856049">
  <ele>156.899658</ele>
  <time>2011-09-29T07:35:24Z</time>
  <speed>3.310000</speed>
</trkpt>
<trkpt lat="32.597106934" lon="35.143867493">
  <ele>156.657471</ele>
  <time>2011-09-29T07:35:25Z</time>
  <speed>3.920000</speed>
</trkpt>
<trkpt lat="32.597145081" lon="35.143875122">
  <ele>156.665283</ele>
  <time>2011-09-29T07:35:26Z</time>
  <speed>4.740000</speed>
</trkpt>
<trkpt lat="32.597187042" lon="35.143886566">
  <ele>156.575439</ele>
  <time>2011-09-29T07:35:27Z</time>
  <speed>4.550000</speed>
</trkpt>
<trkpt lat="32.597232819" lon="35.143886566">
  <ele>156.247314</ele>
  <time>2011-09-29T07:35:28Z</time>
  <speed>4.630000</speed>
</trkpt>
<trkpt lat="32.597278595" lon="35.143890381">
  <ele>156.020752</ele>
  <time>2011-09-29T07:35:29Z</time>
  <speed>4.630000</speed>
</trkpt>
<trkpt lat="32.597320557" lon="35.143890381">
  <ele>155.989502</ele>
  <time>2011-09-29T07:35:30Z</time>
  <speed>4.470000</speed>
</trkpt>
<trkpt lat="32.597362518" lon="35.143886566">
  <ele>155.837158</ele>
  <time>2011-09-29T07:35:31Z</time>
  <speed>4.100000</speed>
</trkpt>
<trkpt lat="32.597400665" lon="35.143886566">
  <ele>155.950439</ele>
  <time>2011-09-29T07:35:32Z</time>
  <speed>4.240000</speed>
</trkpt>
<trkpt lat="32.597438812" lon="35.143882751">
  <ele>155.891846</ele>
  <time>2011-09-29T07:35:33Z</time>
  <speed>4.190000</speed>
</trkpt>
<trkpt lat="32.597476959" lon="35.143882751">
  <ele>156.020752</ele>
  <time>2011-09-29T07:35:34Z</time>
  <speed>3.930000</speed>
</trkpt>
<trkpt lat="32.597515106" lon="35.143886566">
  <ele>155.786377</ele>
  <time>2011-09-29T07:35:35Z</time>
  <speed>3.860000</speed>
</trkpt>
<trkpt lat="32.597549438" lon="35.143894196">
  <ele>155.427002</ele>
  <time>2011-09-29T07:35:36Z</time>
  <speed>3.590000</speed>
</trkpt>
<trkpt lat="32.597583771" lon="35.143898010">
  <ele>155.680908</ele>
  <time>2011-09-29T07:35:37Z</time>
  <speed>3.600000</speed>
</trkpt>
<trkpt lat="32.597618103" lon="35.143905640">
  <ele>155.403564</ele>
  <time>2011-09-29T07:35:38Z</time>
  <speed>3.470000</speed>
</trkpt>
<trkpt lat="32.597648621" lon="35.143913269">
  <ele>155.009033</ele>
  <time>2011-09-29T07:35:39Z</time>
  <speed>3.530000</speed>
</trkpt>
<trkpt lat="32.597682953" lon="35.143932343">
  <ele>154.352783</ele>
  <time>2011-09-29T07:35:40Z</time>
  <speed>3.780000</speed>
</trkpt>
<trkpt lat="32.597721100" lon="35.143943787">
  <ele>153.817627</ele>
  <time>2011-09-29T07:35:41Z</time>
  <speed>4.180000</speed>
</trkpt>
<trkpt lat="32.597755432" lon="35.143966675">
  <ele>153.774658</ele>
  <time>2011-09-29T07:35:42Z</time>
  <speed>4.890000</speed>
</trkpt>
<trkpt lat="32.597801208" lon="35.143989563">
  <ele>153.512939</ele>
  <time>2011-09-29T07:35:43Z</time>
  <speed>5.710000</speed>
</trkpt>
<trkpt lat="32.597846985" lon="35.144020081">
  <ele>153.423096</ele>
  <time>2011-09-29T07:35:44Z</time>
  <speed>6.040000</speed>
</trkpt>
<trkpt lat="32.597896576" lon="35.144054413">
  <ele>152.641846</ele>
  <time>2011-09-29T07:35:45Z</time>
  <speed>6.540000</speed>
</trkpt>
<trkpt lat="32.597949982" lon="35.144092560">
  <ele>152.485596</ele>
  <time>2011-09-29T07:35:46Z</time>
  <speed>6.770000</speed>
</trkpt>
<trkpt lat="32.598003387" lon="35.144130707">
  <ele>151.653564</ele>
  <time>2011-09-29T07:35:47Z</time>
  <speed>6.910000</speed>
</trkpt>
<trkpt lat="32.598056793" lon="35.144161224">
  <ele>151.255127</ele>
  <time>2011-09-29T07:35:48Z</time>
  <speed>7.060000</speed>
</trkpt>
<trkpt lat="32.598117828" lon="35.144187927">
  <ele>151.188721</ele>
  <time>2011-09-29T07:35:49Z</time>
  <speed>6.410000</speed>
</trkpt>
<trkpt lat="32.598163605" lon="35.144218445">
  <ele>150.528564</ele>
  <time>2011-09-29T07:35:50Z</time>
  <speed>5.940000</speed>
</trkpt>
<trkpt lat="32.598201752" lon="35.144264221">
  <ele>149.942627</ele>
  <time>2011-09-29T07:35:51Z</time>
  <speed>5.920000</speed>
</trkpt>
<trkpt lat="32.598232269" lon="35.144313812">
  <ele>149.497314</ele>
  <time>2011-09-29T07:35:52Z</time>
  <speed>5.520000</speed>
</trkpt>
<trkpt lat="32.598262787" lon="35.144359589">
  <ele>149.302002</ele>
  <time>2011-09-29T07:35:53Z</time>
  <speed>5.800000</speed>
</trkpt>
<trkpt lat="32.598304749" lon="35.144397736">
  <ele>148.520752</ele>
  <time>2011-09-29T07:35:54Z</time>
  <speed>6.350000</speed>
</trkpt>
<trkpt lat="32.598358154" lon="35.144432068">
  <ele>148.341064</ele>
  <time>2011-09-29T07:35:55Z</time>
  <speed>7.100000</speed>
</trkpt>
<trkpt lat="32.598430634" lon="35.144462585">
  <ele>148.223877</ele>
  <time>2011-09-29T07:35:56Z</time>
  <speed>7.730000</speed>
</trkpt>
<trkpt lat="32.598499298" lon="35.144489288">
  <ele>147.911377</ele>
  <time>2011-09-29T07:35:57Z</time>
  <speed>8.250000</speed>
</trkpt>
<trkpt lat="32.598571777" lon="35.144519806">
  <ele>146.962158</ele>
  <time>2011-09-29T07:35:58Z</time>
  <speed>8.290000</speed>
</trkpt>
<trkpt lat="32.598644257" lon="35.144546509">
  <ele>146.719971</ele>
  <time>2011-09-29T07:35:59Z</time>
  <speed>8.520000</speed>
</trkpt>
<trkpt lat="32.598724365" lon="35.144577026">
  <ele>146.329346</ele>
  <time>2011-09-29T07:36:00Z</time>
  <speed>9.090000</speed>
</trkpt>
<trkpt lat="32.598804474" lon="35.144611359">
  <ele>146.333252</ele>
  <time>2011-09-29T07:36:01Z</time>
  <speed>9.470000</speed>
</trkpt>
<trkpt lat="32.598888397" lon="35.144645691">
  <ele>145.130127</ele>
  <time>2011-09-29T07:36:02Z</time>
  <speed>10.280000</speed>
</trkpt>
<trkpt lat="32.598976135" lon="35.144680023">
  <ele>144.059814</ele>
  <time>2011-09-29T07:36:03Z</time>
  <speed>10.210000</speed>
</trkpt>
<trkpt lat="32.599063873" lon="35.144714355">
  <ele>143.145752</ele>
  <time>2011-09-29T07:36:04Z</time>
  <speed>10.170000</speed>
</trkpt>
<trkpt lat="32.599147797" lon="35.144752502">
  <ele>142.188721</ele>
  <time>2011-09-29T07:36:05Z</time>
  <speed>10.150000</speed>
</trkpt>
<trkpt lat="32.599235535" lon="35.144794464">
  <ele>141.403564</ele>
  <time>2011-09-29T07:36:06Z</time>
  <speed>10.020000</speed>
</trkpt>
<trkpt lat="32.599319458" lon="35.144832611">
  <ele>141.309814</ele>
  <time>2011-09-29T07:36:07Z</time>
  <speed>9.930000</speed>
</trkpt>
<trkpt lat="32.599395752" lon="35.144870758">
  <ele>140.356689</ele>
  <time>2011-09-29T07:36:08Z</time>
  <speed>9.760000</speed>
</trkpt>
<trkpt lat="32.599472046" lon="35.144916534">
  <ele>139.618408</ele>
  <time>2011-09-29T07:36:09Z</time>
  <speed>9.610000</speed>
</trkpt>
<trkpt lat="32.599552155" lon="35.144958496">
  <ele>139.091064</ele>
  <time>2011-09-29T07:36:10Z</time>
  <speed>9.570000</speed>
</trkpt>
<trkpt lat="32.599632263" lon="35.145004272">
  <ele>138.048096</ele>
  <time>2011-09-29T07:36:11Z</time>
  <speed>9.480000</speed>
</trkpt>
<trkpt lat="32.599716187" lon="35.145046234">
  <ele>136.583252</ele>
  <time>2011-09-29T07:36:12Z</time>
  <speed>10.360000</speed>
</trkpt>
<trkpt lat="32.599807739" lon="35.145092010">
  <ele>136.126221</ele>
  <time>2011-09-29T07:36:13Z</time>
  <speed>10.920000</speed>
</trkpt>
<trkpt lat="32.599903107" lon="35.145122528">
  <ele>135.352783</ele>
  <time>2011-09-29T07:36:14Z</time>
  <speed>10.890000</speed>
</trkpt>
<trkpt lat="32.600002289" lon="35.145141602">
  <ele>134.962158</ele>
  <time>2011-09-29T07:36:15Z</time>
  <speed>11.380000</speed>
</trkpt>
<trkpt lat="32.600105286" lon="35.145153046">
  <ele>133.962158</ele>
  <time>2011-09-29T07:36:16Z</time>
  <speed>11.050000</speed>
</trkpt>
<trkpt lat="32.600208282" lon="35.145164490">
  <ele>133.219971</ele>
  <time>2011-09-29T07:36:17Z</time>
  <speed>11.190000</speed>
</trkpt>
<trkpt lat="32.600311279" lon="35.145175934">
  <ele>132.923096</ele>
  <time>2011-09-29T07:36:18Z</time>
  <speed>11.210000</speed>
</trkpt>
<trkpt lat="32.600410461" lon="35.145187378">
  <ele>132.040283</ele>
  <time>2011-09-29T07:36:19Z</time>
  <speed>11.120000</speed>
</trkpt>
<trkpt lat="32.600513458" lon="35.145172119">
  <ele>130.872314</ele>
  <time>2011-09-29T07:36:20Z</time>
  <speed>12.300000</speed>
</trkpt>
<trkpt lat="32.600616455" lon="35.145156860">
  <ele>130.708252</ele>
  <time>2011-09-29T07:36:21Z</time>
  <speed>11.230000</speed>
</trkpt>
<trkpt lat="32.600719452" lon="35.145114899">
  <ele>129.372314</ele>
  <time>2011-09-29T07:36:22Z</time>
  <speed>11.550001</speed>
</trkpt>
<trkpt lat="32.600799561" lon="35.145065308">
  <ele>127.494751</ele>
  <time>2011-09-29T07:36:23Z</time>
  <speed>11.180000</speed>
</trkpt>
<trkpt lat="32.600891113" lon="35.145019531">
  <ele>127.065063</ele>
  <time>2011-09-29T07:36:24Z</time>
  <speed>10.940000</speed>
</trkpt>
<trkpt lat="32.600978851" lon="35.144973755">
  <ele>126.307251</ele>
  <time>2011-09-29T07:36:25Z</time>
  <speed>10.490000</speed>
</trkpt>
<trkpt lat="32.601062775" lon="35.144927979">
  <ele>125.908813</ele>
  <time>2011-09-29T07:36:26Z</time>
  <speed>10.510000</speed>
</trkpt>
<trkpt lat="32.601150513" lon="35.144878387">
  <ele>125.090454</ele>
  <time>2011-09-29T07:36:27Z</time>
  <speed>10.380000</speed>
</trkpt>
<trkpt lat="32.601245880" lon="35.144817352">
  <ele>124.457642</ele>
  <time>2011-09-29T07:36:28Z</time>
  <speed>10.620000</speed>
</trkpt>
<trkpt lat="32.601329803" lon="35.144767761">
  <ele>123.871704</ele>
  <time>2011-09-29T07:36:29Z</time>
  <speed>10.580000</speed>
</trkpt>
<trkpt lat="32.601413727" lon="35.144710541">
  <ele>123.147095</ele>
  <time>2011-09-29T07:36:30Z</time>
  <speed>10.050000</speed>
</trkpt>
<trkpt lat="32.601486206" lon="35.144664764">
  <ele>123.151001</ele>
  <time>2011-09-29T07:36:31Z</time>
  <speed>9.490000</speed>
</trkpt>
<trkpt lat="32.601562500" lon="35.144611359">
  <ele>122.926392</ele>
  <time>2011-09-29T07:36:32Z</time>
  <speed>9.660000</speed>
</trkpt>
<trkpt lat="32.601638794" lon="35.144550323">
  <ele>122.742798</ele>
  <time>2011-09-29T07:36:33Z</time>
  <speed>9.740000</speed>
</trkpt>
<trkpt lat="32.601711273" lon="35.144493103">
  <ele>121.957642</ele>
  <time>2011-09-29T07:36:34Z</time>
  <speed>9.530000</speed>
</trkpt>
<trkpt lat="32.601764679" lon="35.144432068">
  <ele>121.758423</ele>
  <time>2011-09-29T07:36:35Z</time>
  <speed>8.620000</speed>
</trkpt>
<trkpt lat="32.601829529" lon="35.144363403">
  <ele>121.787720</ele>
  <time>2011-09-29T07:36:36Z</time>
  <speed>8.970000</speed>
</trkpt>
<trkpt lat="32.601886749" lon="35.144302368">
  <ele>121.473267</ele>
  <time>2011-09-29T07:36:37Z</time>
  <speed>9.180000</speed>
</trkpt>
<trkpt lat="32.601951599" lon="35.144237518">
  <ele>121.223267</ele>
  <time>2011-09-29T07:36:38Z</time>
  <speed>9.060000</speed>
</trkpt>
<trkpt lat="32.602016449" lon="35.144165039">
  <ele>120.869751</ele>
  <time>2011-09-29T07:36:39Z</time>
  <speed>9.730000</speed>
</trkpt>
<trkpt lat="32.602085114" lon="35.144092560">
  <ele>120.365845</ele>
  <time>2011-09-29T07:36:40Z</time>
  <speed>9.810001</speed>
</trkpt>
<trkpt lat="32.602149963" lon="35.144027710">
  <ele>120.324829</ele>
  <time>2011-09-29T07:36:41Z</time>
  <speed>9.890000</speed>
</trkpt>
<trkpt lat="32.602210999" lon="35.143959045">
  <ele>120.225220</ele>
  <time>2011-09-29T07:36:42Z</time>
  <speed>9.030000</speed>
</trkpt>
<trkpt lat="32.602279663" lon="35.143894196">
  <ele>120.164673</ele>
  <time>2011-09-29T07:36:43Z</time>
  <speed>9.710000</speed>
</trkpt>
<trkpt lat="32.602352142" lon="35.143844604">
  <ele>119.785767</ele>
  <time>2011-09-29T07:36:44Z</time>
  <speed>9.440000</speed>
</trkpt>
<trkpt lat="32.602428436" lon="35.143798828">
  <ele>119.858032</ele>
  <time>2011-09-29T07:36:45Z</time>
  <speed>8.850000</speed>
</trkpt>
<trkpt lat="32.602500916" lon="35.143760681">
  <ele>119.303345</ele>
  <time>2011-09-29T07:36:46Z</time>
  <speed>8.850000</speed>
</trkpt>
<trkpt lat="32.602581024" lon="35.143722534">
  <ele>118.961548</ele>
  <time>2011-09-29T07:36:47Z</time>
  <speed>8.530000</speed>
</trkpt>
<trkpt lat="32.602664948" lon="35.143695831">
  <ele>118.359985</ele>
  <time>2011-09-29T07:36:48Z</time>
  <speed>8.690000</speed>
</trkpt>
<trkpt lat="32.602741241" lon="35.143684387">
  <ele>117.932251</ele>
  <time>2011-09-29T07:36:49Z</time>
  <speed>8.770000</speed>
</trkpt>
<trkpt lat="32.602821350" lon="35.143676758">
  <ele>117.272095</ele>
  <time>2011-09-29T07:36:50Z</time>
  <speed>9.380000</speed>
</trkpt>
<trkpt lat="32.602905273" lon="35.143672943">
  <ele>116.395142</ele>
  <time>2011-09-29T07:36:51Z</time>
  <speed>8.630000</speed>
</trkpt>
<trkpt lat="32.602981567" lon="35.143680573">
  <ele>115.615845</ele>
  <time>2011-09-29T07:36:52Z</time>
  <speed>8.290000</speed>
</trkpt>
<trkpt lat="32.603057861" lon="35.143692017">
  <ele>114.856079</ele>
  <time>2011-09-29T07:36:53Z</time>
  <speed>8.350000</speed>
</trkpt>
<trkpt lat="32.603130341" lon="35.143707275">
  <ele>114.483032</ele>
  <time>2011-09-29T07:36:54Z</time>
  <speed>7.990000</speed>
</trkpt>
<trkpt lat="32.603202820" lon="35.143718719">
  <ele>113.867798</ele>
  <time>2011-09-29T07:36:55Z</time>
  <speed>7.970000</speed>
</trkpt>
<trkpt lat="32.603271484" lon="35.143737793">
  <ele>113.750610</ele>
  <time>2011-09-29T07:36:56Z</time>
  <speed>7.950000</speed>
</trkpt>
<trkpt lat="32.603343964" lon="35.143753052">
  <ele>112.727173</ele>
  <time>2011-09-29T07:36:57Z</time>
  <speed>7.900000</speed>
</trkpt>
<trkpt lat="32.603412628" lon="35.143783569">
  <ele>112.656860</ele>
  <time>2011-09-29T07:36:58Z</time>
  <speed>7.780000</speed>
</trkpt>
<trkpt lat="32.603485107" lon="35.143806458">
  <ele>112.223267</ele>
  <time>2011-09-29T07:36:59Z</time>
  <speed>7.720000</speed>
</trkpt>
<trkpt lat="32.603549957" lon="35.143836975">
  <ele>111.904907</ele>
  <time>2011-09-29T07:37:00Z</time>
  <speed>7.610000</speed>
</trkpt>
<trkpt lat="32.603614807" lon="35.143871307">
  <ele>111.217407</ele>
  <time>2011-09-29T07:37:01Z</time>
  <speed>7.660000</speed>
</trkpt>
<trkpt lat="32.603675842" lon="35.143909454">
  <ele>110.701782</ele>
  <time>2011-09-29T07:37:02Z</time>
  <speed>7.550000</speed>
</trkpt>
<trkpt lat="32.603736877" lon="35.143943787">
  <ele>109.938110</ele>
  <time>2011-09-29T07:37:03Z</time>
  <speed>7.370000</speed>
</trkpt>
<trkpt lat="32.603790283" lon="35.143993378">
  <ele>109.815063</ele>
  <time>2011-09-29T07:37:04Z</time>
  <speed>7.450000</speed>
</trkpt>
<trkpt lat="32.603847504" lon="35.144042969">
  <ele>109.248657</ele>
  <time>2011-09-29T07:37:05Z</time>
  <speed>7.500000</speed>
</trkpt>
<trkpt lat="32.603897095" lon="35.144100189">
  <ele>109.561157</ele>
  <time>2011-09-29T07:37:06Z</time>
  <speed>7.480000</speed>
</trkpt>
<trkpt lat="32.603946686" lon="35.144153595">
  <ele>109.344360</ele>
  <time>2011-09-29T07:37:07Z</time>
  <speed>7.640000</speed>
</trkpt>
<trkpt lat="32.604000092" lon="35.144207001">
  <ele>108.988892</ele>
  <time>2011-09-29T07:37:08Z</time>
  <speed>7.590000</speed>
</trkpt>
<trkpt lat="32.604053497" lon="35.144260406">
  <ele>108.697876</ele>
  <time>2011-09-29T07:37:09Z</time>
  <speed>7.720000</speed>
</trkpt>
<trkpt lat="32.604099274" lon="35.144321442">
  <ele>108.541626</ele>
  <time>2011-09-29T07:37:10Z</time>
  <speed>7.890000</speed>
</trkpt>
<trkpt lat="32.604141235" lon="35.144390106">
  <ele>108.217407</ele>
  <time>2011-09-29T07:37:11Z</time>
  <speed>7.620000</speed>
</trkpt>
<trkpt lat="32.604175568" lon="35.144462585">
  <ele>108.326782</ele>
  <time>2011-09-29T07:37:12Z</time>
  <speed>7.520000</speed>
</trkpt>
<trkpt lat="32.604209900" lon="35.144538879">
  <ele>108.959595</ele>
  <time>2011-09-29T07:37:13Z</time>
  <speed>7.460000</speed>
</trkpt>
<trkpt lat="32.604244232" lon="35.144603729">
  <ele>109.147095</ele>
  <time>2011-09-29T07:37:14Z</time>
  <speed>7.340000</speed>
</trkpt>
<trkpt lat="32.604278564" lon="35.144680023">
  <ele>110.283813</ele>
  <time>2011-09-29T07:37:15Z</time>
  <speed>7.270000</speed>
</trkpt>
<trkpt lat="32.604312897" lon="35.144744873">
  <ele>111.137329</ele>
  <time>2011-09-29T07:37:16Z</time>
  <speed>6.820000</speed>
</trkpt>
<trkpt lat="32.604351044" lon="35.144805908">
  <ele>111.602173</ele>
  <time>2011-09-29T07:37:17Z</time>
  <speed>6.780000</speed>
</trkpt>
<trkpt lat="32.604381561" lon="35.144859314">
  <ele>110.895142</ele>
  <time>2011-09-29T07:37:18Z</time>
  <speed>6.660000</speed>
</trkpt>
<trkpt lat="32.604415894" lon="35.144916534">
  <ele>110.729126</ele>
  <time>2011-09-29T07:37:19Z</time>
  <speed>6.370000</speed>
</trkpt>
<trkpt lat="32.604450226" lon="35.144969940">
  <ele>110.754517</ele>
  <time>2011-09-29T07:37:20Z</time>
  <speed>6.060000</speed>
</trkpt>
<trkpt lat="32.604484558" lon="35.145023346">
  <ele>110.981079</ele>
  <time>2011-09-29T07:37:21Z</time>
  <speed>5.910000</speed>
</trkpt>
<trkpt lat="32.604511261" lon="35.145076752">
  <ele>110.963501</ele>
  <time>2011-09-29T07:37:22Z</time>
  <speed>5.690000</speed>
</trkpt>
<trkpt lat="32.604545593" lon="35.145122528">
  <ele>110.967407</ele>
  <time>2011-09-29T07:37:23Z</time>
  <speed>5.620000</speed>
</trkpt>
<trkpt lat="32.604579926" lon="35.145164490">
  <ele>111.391235</ele>
  <time>2011-09-29T07:37:24Z</time>
  <speed>5.200000</speed>
</trkpt>
<trkpt lat="32.604614258" lon="35.145198822">
  <ele>111.561157</ele>
  <time>2011-09-29T07:37:25Z</time>
  <speed>5.110000</speed>
</trkpt>
<trkpt lat="32.604648590" lon="35.145236969">
  <ele>111.875610</ele>
  <time>2011-09-29T07:37:26Z</time>
  <speed>5.090000</speed>
</trkpt>
<trkpt lat="32.604682922" lon="35.145271301">
  <ele>112.084595</ele>
  <time>2011-09-29T07:37:27Z</time>
  <speed>4.980000</speed>
</trkpt>
<trkpt lat="32.604721069" lon="35.145305634">
  <ele>112.746704</ele>
  <time>2011-09-29T07:37:28Z</time>
  <speed>5.090000</speed>
</trkpt>
<trkpt lat="32.604751587" lon="35.145343781">
  <ele>112.826782</ele>
  <time>2011-09-29T07:37:29Z</time>
  <speed>5.070000</speed>
</trkpt>
<trkpt lat="32.604789734" lon="35.145378113">
  <ele>113.188110</ele>
  <time>2011-09-29T07:37:30Z</time>
  <speed>5.140000</speed>
</trkpt>
<trkpt lat="32.604824066" lon="35.145416260">
  <ele>113.774048</ele>
  <time>2011-09-29T07:37:31Z</time>
  <speed>4.980000</speed>
</trkpt>
<trkpt lat="32.604854584" lon="35.145462036">
  <ele>114.373657</ele>
  <time>2011-09-29T07:37:32Z</time>
  <speed>5.000000</speed>
</trkpt>
<trkpt lat="32.604885101" lon="35.145500183">
  <ele>114.449829</ele>
  <time>2011-09-29T07:37:33Z</time>
  <speed>4.870000</speed>
</trkpt>
<trkpt lat="32.604911804" lon="35.145545959">
  <ele>114.295532</ele>
  <time>2011-09-29T07:37:34Z</time>
  <speed>4.880000</speed>
</trkpt>
<trkpt lat="32.604938507" lon="35.145591736">
  <ele>115.065063</ele>
  <time>2011-09-29T07:37:35Z</time>
  <speed>4.770000</speed>
</trkpt>
<trkpt lat="32.604953766" lon="35.145629883">
  <ele>115.047485</ele>
  <time>2011-09-29T07:37:36Z</time>
  <speed>4.300000</speed>
</trkpt>
<trkpt lat="32.604972839" lon="35.145675659">
  <ele>115.440063</ele>
  <time>2011-09-29T07:37:37Z</time>
  <speed>4.420000</speed>
</trkpt>
<trkpt lat="32.604991913" lon="35.145713806">
  <ele>116.070923</ele>
  <time>2011-09-29T07:37:38Z</time>
  <speed>3.810000</speed>
</trkpt>
<trkpt lat="32.605007172" lon="35.145751953">
  <ele>117.070923</ele>
  <time>2011-09-29T07:37:39Z</time>
  <speed>3.560000</speed>
</trkpt>
<trkpt lat="32.605010986" lon="35.145786285">
  <ele>117.535767</ele>
  <time>2011-09-29T07:37:40Z</time>
  <speed>3.100000</speed>
</trkpt>
<trkpt lat="32.605010986" lon="35.145820618">
  <ele>117.717407</ele>
  <time>2011-09-29T07:37:41Z</time>
  <speed>2.850000</speed>
</trkpt>
<trkpt lat="32.605003357" lon="35.145874023">
  <ele>118.086548</ele>
  <time>2011-09-29T07:37:43Z</time>
  <speed>2.620000</speed>
</trkpt>
<trkpt lat="32.605010986" lon="35.145935059">
  <ele>119.227173</ele>
  <time>2011-09-29T07:37:45Z</time>
  <speed>2.500000</speed>
</trkpt>
<trkpt lat="32.605022430" lon="35.145992279">
  <ele>119.656860</ele>
  <time>2011-09-29T07:37:47Z</time>
  <speed>2.470000</speed>
</trkpt>
<trkpt lat="32.605037689" lon="35.146038055">
  <ele>120.408813</ele>
  <time>2011-09-29T07:37:49Z</time>
  <speed>2.310000</speed>
</trkpt>
<trkpt lat="32.605060577" lon="35.146087646">
  <ele>121.063110</ele>
  <time>2011-09-29T07:37:51Z</time>
  <speed>2.360000</speed>
</trkpt>
<trkpt lat="32.605064392" lon="35.146133423">
  <ele>120.852173</ele>
  <time>2011-09-29T07:37:53Z</time>
  <speed>1.950000</speed>
</trkpt>
<trkpt lat="32.605072021" lon="35.146175385">
  <ele>120.953735</ele>
  <time>2011-09-29T07:37:55Z</time>
  <speed>1.570000</speed>
</trkpt>
<trkpt lat="32.605087280" lon="35.146202087">
  <ele>121.084595</ele>
  <time>2011-09-29T07:38:07Z</time>
  <speed>0.620000</speed>
</trkpt>
<trkpt lat="32.605113983" lon="35.146209717">
  <ele>120.434204</ele>
  <time>2011-09-29T07:38:11Z</time>
  <speed>0.050000</speed>
</trkpt>
<trkpt lat="32.605106354" lon="35.146198273">
  <ele>117.512329</ele>
  <time>2011-09-29T07:38:30Z</time>
</trkpt>
<trkpt lat="32.605079651" lon="35.146217346">
  <ele>116.891235</ele>
  <time>2011-09-29T07:38:35Z</time>
</trkpt>
<trkpt lat="32.605083466" lon="35.146255493">
  <ele>117.502563</ele>
  <time>2011-09-29T07:38:50Z</time>
  <speed>0.980000</speed>
</trkpt>
<trkpt lat="32.605091095" lon="35.146308899">
  <ele>118.158813</ele>
  <time>2011-09-29T07:38:53Z</time>
  <speed>2.280000</speed>
</trkpt>
<trkpt lat="32.605102539" lon="35.146362305">
  <ele>117.826782</ele>
  <time>2011-09-29T07:38:55Z</time>
  <speed>2.970000</speed>
</trkpt>
<trkpt lat="32.605110168" lon="35.146392822">
  <ele>117.416626</ele>
  <time>2011-09-29T07:38:56Z</time>
  <speed>2.950000</speed>
</trkpt>
<trkpt lat="32.605121613" lon="35.146427155">
  <ele>117.240845</ele>
  <time>2011-09-29T07:38:57Z</time>
  <speed>3.350000</speed>
</trkpt>
<trkpt lat="32.605136871" lon="35.146465302">
  <ele>117.147095</ele>
  <time>2011-09-29T07:38:58Z</time>
  <speed>3.470000</speed>
</trkpt>
<trkpt lat="32.605144501" lon="35.146499634">
  <ele>116.813110</ele>
  <time>2011-09-29T07:38:59Z</time>
  <speed>3.410000</speed>
</trkpt>
<trkpt lat="32.605155945" lon="35.146537781">
  <ele>116.291626</ele>
  <time>2011-09-29T07:39:00Z</time>
  <speed>3.460000</speed>
</trkpt>
<trkpt lat="32.605167389" lon="35.146572113">
  <ele>115.877563</ele>
  <time>2011-09-29T07:39:01Z</time>
  <speed>3.340000</speed>
</trkpt>
<trkpt lat="32.605175018" lon="35.146614075">
  <ele>116.324829</ele>
  <time>2011-09-29T07:39:02Z</time>
  <speed>3.460000</speed>
</trkpt>
<trkpt lat="32.605186462" lon="35.146648407">
  <ele>116.721313</ele>
  <time>2011-09-29T07:39:03Z</time>
  <speed>3.490000</speed>
</trkpt>
<trkpt lat="32.605197906" lon="35.146678925">
  <ele>117.061157</ele>
  <time>2011-09-29T07:39:04Z</time>
  <speed>3.410000</speed>
</trkpt>
<trkpt lat="32.605209351" lon="35.146717072">
  <ele>116.656860</ele>
  <time>2011-09-29T07:39:05Z</time>
  <speed>3.510000</speed>
</trkpt>
<trkpt lat="32.605220795" lon="35.146755219">
  <ele>116.664673</ele>
  <time>2011-09-29T07:39:06Z</time>
  <speed>3.510000</speed>
</trkpt>
<trkpt lat="32.605228424" lon="35.146789551">
  <ele>116.168579</ele>
  <time>2011-09-29T07:39:07Z</time>
  <speed>3.790000</speed>
</trkpt>
<trkpt lat="32.605236053" lon="35.146823883">
  <ele>115.092407</ele>
  <time>2011-09-29T07:39:08Z</time>
  <speed>3.690000</speed>
</trkpt>
<trkpt lat="32.605247498" lon="35.146862030">
  <ele>114.531860</ele>
  <time>2011-09-29T07:39:09Z</time>
  <speed>3.730000</speed>
</trkpt>
<trkpt lat="32.605255127" lon="35.146903992">
  <ele>114.617798</ele>
  <time>2011-09-29T07:39:10Z</time>
  <speed>3.920000</speed>
</trkpt>
<trkpt lat="32.605262756" lon="35.146945953">
  <ele>114.065063</ele>
  <time>2011-09-29T07:39:11Z</time>
  <speed>3.770000</speed>
</trkpt>
<trkpt lat="32.605281830" lon="35.146984100">
  <ele>113.567017</ele>
  <time>2011-09-29T07:39:12Z</time>
  <speed>3.120000</speed>
</trkpt>
<trkpt lat="32.605297089" lon="35.147026062">
  <ele>113.344360</ele>
  <time>2011-09-29T07:39:13Z</time>
  <speed>3.260000</speed>
</trkpt>
<trkpt lat="32.605312347" lon="35.147064209">
  <ele>113.090454</ele>
  <time>2011-09-29T07:39:14Z</time>
  <speed>3.180000</speed>
</trkpt>
<trkpt lat="32.605331421" lon="35.147098541">
  <ele>112.934204</ele>
  <time>2011-09-29T07:39:15Z</time>
  <speed>3.510000</speed>
</trkpt>
<trkpt lat="32.605361938" lon="35.147117615">
  <ele>112.041626</ele>
  <time>2011-09-29T07:39:16Z</time>
  <speed>3.350000</speed>
</trkpt>
<trkpt lat="32.605400085" lon="35.147125244">
  <ele>112.067017</ele>
  <time>2011-09-29T07:39:17Z</time>
  <speed>4.430000</speed>
</trkpt>
<trkpt lat="32.605442047" lon="35.147121429">
  <ele>111.647095</ele>
  <time>2011-09-29T07:39:18Z</time>
  <speed>4.530000</speed>
</trkpt>
<trkpt lat="32.605480194" lon="35.147106171">
  <ele>110.838501</ele>
  <time>2011-09-29T07:39:19Z</time>
  <speed>4.110000</speed>
</trkpt>
<trkpt lat="32.605510712" lon="35.147071838">
  <ele>110.717407</ele>
  <time>2011-09-29T07:39:20Z</time>
  <speed>4.400000</speed>
</trkpt>
<trkpt lat="32.605560303" lon="35.147029877">
  <ele>112.074829</ele>
  <time>2011-09-29T07:39:21Z</time>
  <speed>3.960000</speed>
</trkpt>
<trkpt lat="32.605587006" lon="35.146984100">
  <ele>112.924438</ele>
  <time>2011-09-29T07:39:22Z</time>
  <speed>3.510000</speed>
</trkpt>
<trkpt lat="32.605590820" lon="35.146938324">
  <ele>113.067017</ele>
  <time>2011-09-29T07:39:23Z</time>
  <speed>3.530000</speed>
</trkpt>
<trkpt lat="32.605609894" lon="35.146911621">
  <ele>113.225220</ele>
  <time>2011-09-29T07:39:24Z</time>
  <speed>3.400000</speed>
</trkpt>
<trkpt lat="32.605628967" lon="35.146881104">
  <ele>113.379517</ele>
  <time>2011-09-29T07:39:25Z</time>
  <speed>3.580000</speed>
</trkpt>
<trkpt lat="32.605644226" lon="35.146846771">
  <ele>113.381470</ele>
  <time>2011-09-29T07:39:26Z</time>
  <speed>3.550000</speed>
</trkpt>
<trkpt lat="32.605663300" lon="35.146808624">
  <ele>114.008423</ele>
  <time>2011-09-29T07:39:27Z</time>
  <speed>3.860000</speed>
</trkpt>
<trkpt lat="32.605682373" lon="35.146778107">
  <ele>113.422485</ele>
  <time>2011-09-29T07:39:28Z</time>
  <speed>3.490000</speed>
</trkpt>
<trkpt lat="32.605697632" lon="35.146743774">
  <ele>113.932251</ele>
  <time>2011-09-29T07:39:29Z</time>
  <speed>3.000000</speed>
</trkpt>
<trkpt lat="32.605712891" lon="35.146713257">
  <ele>114.143188</ele>
  <time>2011-09-29T07:39:30Z</time>
  <speed>2.990000</speed>
</trkpt>
<trkpt lat="32.605724335" lon="35.146678925">
  <ele>113.963501</ele>
  <time>2011-09-29T07:39:31Z</time>
  <speed>3.590000</speed>
</trkpt>
<trkpt lat="32.605735779" lon="35.146636963">
  <ele>113.961548</ele>
  <time>2011-09-29T07:39:32Z</time>
  <speed>3.380000</speed>
</trkpt>
<trkpt lat="32.605751038" lon="35.146598816">
  <ele>113.479126</ele>
  <time>2011-09-29T07:39:33Z</time>
  <speed>3.760000</speed>
</trkpt>
<trkpt lat="32.605770111" lon="35.146572113">
  <ele>112.672485</ele>
  <time>2011-09-29T07:39:34Z</time>
  <speed>3.460000</speed>
</trkpt>
<trkpt lat="32.605792999" lon="35.146537781">
  <ele>112.268188</ele>
  <time>2011-09-29T07:39:35Z</time>
  <speed>3.830000</speed>
</trkpt>
<trkpt lat="32.605815887" lon="35.146499634">
  <ele>112.039673</ele>
  <time>2011-09-29T07:39:36Z</time>
  <speed>4.110000</speed>
</trkpt>
<trkpt lat="32.605842590" lon="35.146457672">
  <ele>111.787720</ele>
  <time>2011-09-29T07:39:37Z</time>
  <speed>4.340000</speed>
</trkpt>
<trkpt lat="32.605861664" lon="35.146415710">
  <ele>110.901001</ele>
  <time>2011-09-29T07:39:38Z</time>
  <speed>4.680000</speed>
</trkpt>
<trkpt lat="32.605888367" lon="35.146369934">
  <ele>110.586548</ele>
  <time>2011-09-29T07:39:39Z</time>
  <speed>4.660000</speed>
</trkpt>
<trkpt lat="32.605907440" lon="35.146327972">
  <ele>110.221313</ele>
  <time>2011-09-29T07:39:40Z</time>
  <speed>4.810000</speed>
</trkpt>
<trkpt lat="32.605934143" lon="35.146282196">
  <ele>109.826782</ele>
  <time>2011-09-29T07:39:41Z</time>
  <speed>4.970000</speed>
</trkpt>
<trkpt lat="32.605960846" lon="35.146232605">
  <ele>109.910767</ele>
  <time>2011-09-29T07:39:42Z</time>
  <speed>5.110000</speed>
</trkpt>
<trkpt lat="32.605987549" lon="35.146179199">
  <ele>109.840454</ele>
  <time>2011-09-29T07:39:43Z</time>
  <speed>5.310000</speed>
</trkpt>
<trkpt lat="32.606010437" lon="35.146129608">
  <ele>110.295532</ele>
  <time>2011-09-29T07:39:44Z</time>
  <speed>5.360000</speed>
</trkpt>
<trkpt lat="32.606033325" lon="35.146076202">
  <ele>110.643188</ele>
  <time>2011-09-29T07:39:45Z</time>
  <speed>5.400000</speed>
</trkpt>
<trkpt lat="32.606048584" lon="35.146015167">
  <ele>111.633423</ele>
  <time>2011-09-29T07:39:46Z</time>
  <speed>5.590000</speed>
</trkpt>
<trkpt lat="32.606071472" lon="35.145954132">
  <ele>112.545532</ele>
  <time>2011-09-29T07:39:47Z</time>
  <speed>5.730000</speed>
</trkpt>
<trkpt lat="32.606086731" lon="35.145893097">
  <ele>113.348267</ele>
  <time>2011-09-29T07:39:48Z</time>
  <speed>5.610000</speed>
</trkpt>
<trkpt lat="32.606105804" lon="35.145835876">
  <ele>114.217407</ele>
  <time>2011-09-29T07:39:49Z</time>
  <speed>5.470000</speed>
</trkpt>
<trkpt lat="32.606121063" lon="35.145782471">
  <ele>114.291626</ele>
  <time>2011-09-29T07:39:50Z</time>
  <speed>5.250000</speed>
</trkpt>
<trkpt lat="32.606140137" lon="35.145732880">
  <ele>114.254517</ele>
  <time>2011-09-29T07:39:51Z</time>
  <speed>4.210000</speed>
</trkpt>
<trkpt lat="32.606151581" lon="35.145698547">
  <ele>114.492798</ele>
  <time>2011-09-29T07:39:52Z</time>
  <speed>3.430000</speed>
</trkpt>
<trkpt lat="32.606159210" lon="35.145664215">
  <ele>114.715454</ele>
  <time>2011-09-29T07:39:53Z</time>
  <speed>3.000000</speed>
</trkpt>
<trkpt lat="32.606163025" lon="35.145626068">
  <ele>115.445923</ele>
  <time>2011-09-29T07:39:54Z</time>
  <speed>3.080000</speed>
</trkpt>
<trkpt lat="32.606163025" lon="35.145591736">
  <ele>116.137329</ele>
  <time>2011-09-29T07:39:55Z</time>
  <speed>2.800000</speed>
</trkpt>
<trkpt lat="32.606170654" lon="35.145557404">
  <ele>116.193970</ele>
  <time>2011-09-29T07:39:56Z</time>
  <speed>3.080000</speed>
</trkpt>
<trkpt lat="32.606178284" lon="35.145523071">
  <ele>116.272095</ele>
  <time>2011-09-29T07:39:57Z</time>
  <speed>3.410000</speed>
</trkpt>
<trkpt lat="32.606189728" lon="35.145484924">
  <ele>116.236938</ele>
  <time>2011-09-29T07:39:58Z</time>
  <speed>3.550000</speed>
</trkpt>
<trkpt lat="32.606204987" lon="35.145458221">
  <ele>116.822876</ele>
  <time>2011-09-29T07:39:59Z</time>
  <speed>3.470000</speed>
</trkpt>
<trkpt lat="32.606220245" lon="35.145431519">
  <ele>116.664673</ele>
  <time>2011-09-29T07:40:00Z</time>
  <speed>3.430000</speed>
</trkpt>
<trkpt lat="32.606235504" lon="35.145397186">
  <ele>116.947876</ele>
  <time>2011-09-29T07:40:01Z</time>
  <speed>3.600000</speed>
</trkpt>
<trkpt lat="32.606246948" lon="35.145362854">
  <ele>117.297485</ele>
  <time>2011-09-29T07:40:02Z</time>
  <speed>3.710000</speed>
</trkpt>
<trkpt lat="32.606254578" lon="35.145320892">
  <ele>117.076782</ele>
  <time>2011-09-29T07:40:03Z</time>
  <speed>3.650000</speed>
</trkpt>
<trkpt lat="32.606269836" lon="35.145294189">
  <ele>116.719360</ele>
  <time>2011-09-29T07:40:04Z</time>
  <speed>3.560000</speed>
</trkpt>
<trkpt lat="32.606273651" lon="35.145248413">
  <ele>117.055298</ele>
  <time>2011-09-29T07:40:05Z</time>
  <speed>3.580000</speed>
</trkpt>
<trkpt lat="32.606281281" lon="35.145210266">
  <ele>117.276001</ele>
  <time>2011-09-29T07:40:06Z</time>
  <speed>3.460000</speed>
</trkpt>
<trkpt lat="32.606281281" lon="35.145172119">
  <ele>117.164673</ele>
  <time>2011-09-29T07:40:07Z</time>
  <speed>3.360000</speed>
</trkpt>
<trkpt lat="32.606285095" lon="35.145133972">
  <ele>118.152954</ele>
  <time>2011-09-29T07:40:08Z</time>
  <speed>3.120000</speed>
</trkpt>
<trkpt lat="32.606292725" lon="35.145099640">
  <ele>118.092407</ele>
  <time>2011-09-29T07:40:09Z</time>
  <speed>3.250000</speed>
</trkpt>
<trkpt lat="32.606300354" lon="35.145061493">
  <ele>117.996704</ele>
  <time>2011-09-29T07:40:10Z</time>
  <speed>3.230000</speed>
</trkpt>
<trkpt lat="32.606315613" lon="35.145030975">
  <ele>118.447876</ele>
  <time>2011-09-29T07:40:11Z</time>
  <speed>3.250000</speed>
</trkpt>
<trkpt lat="32.606323242" lon="35.144996643">
  <ele>118.830688</ele>
  <time>2011-09-29T07:40:12Z</time>
  <speed>3.150000</speed>
</trkpt>
<trkpt lat="32.606338501" lon="35.144939423">
  <ele>119.086548</ele>
  <time>2011-09-29T07:40:14Z</time>
  <speed>2.960000</speed>
</trkpt>
<trkpt lat="32.606361389" lon="35.144882202">
  <ele>118.707642</ele>
  <time>2011-09-29T07:40:16Z</time>
  <speed>2.810000</speed>
</trkpt>
<trkpt lat="32.606376648" lon="35.144821167">
  <ele>118.709595</ele>
  <time>2011-09-29T07:40:18Z</time>
  <speed>3.110000</speed>
</trkpt>
<trkpt lat="32.606391907" lon="35.144756317">
  <ele>119.276001</ele>
  <time>2011-09-29T07:40:20Z</time>
  <speed>2.890000</speed>
</trkpt>
<trkpt lat="32.606395721" lon="35.144721985">
  <ele>120.109985</ele>
  <time>2011-09-29T07:40:21Z</time>
  <speed>2.740000</speed>
</trkpt>
<trkpt lat="32.606414795" lon="35.144668579">
  <ele>120.166626</ele>
  <time>2011-09-29T07:40:23Z</time>
  <speed>2.720000</speed>
</trkpt>
<trkpt lat="32.606430054" lon="35.144615173">
  <ele>120.274048</ele>
  <time>2011-09-29T07:40:25Z</time>
  <speed>2.530000</speed>
</trkpt>
<trkpt lat="32.606449127" lon="35.144561768">
  <ele>120.274048</ele>
  <time>2011-09-29T07:40:27Z</time>
  <speed>2.600000</speed>
</trkpt>
<trkpt lat="32.606468201" lon="35.144512177">
  <ele>119.719360</ele>
  <time>2011-09-29T07:40:29Z</time>
  <speed>2.610000</speed>
</trkpt>
<trkpt lat="32.606475830" lon="35.144477844">
  <ele>119.639282</ele>
  <time>2011-09-29T07:40:30Z</time>
  <speed>2.780000</speed>
</trkpt>
<trkpt lat="32.606483459" lon="35.144443512">
  <ele>119.840454</ele>
  <time>2011-09-29T07:40:31Z</time>
  <speed>2.680000</speed>
</trkpt>
<trkpt lat="32.606494904" lon="35.144409180">
  <ele>119.977173</ele>
  <time>2011-09-29T07:40:32Z</time>
  <speed>2.640000</speed>
</trkpt>
<trkpt lat="32.606510162" lon="35.144363403">
  <ele>119.723267</ele>
  <time>2011-09-29T07:40:34Z</time>
  <speed>2.490000</speed>
</trkpt>
<trkpt lat="32.606525421" lon="35.144306183">
  <ele>120.721313</ele>
  <time>2011-09-29T07:40:36Z</time>
  <speed>2.550000</speed>
</trkpt>
<trkpt lat="32.606536865" lon="35.144260406">
  <ele>121.006470</ele>
  <time>2011-09-29T07:40:38Z</time>
  <speed>2.560000</speed>
</trkpt>
<trkpt lat="32.606548309" lon="35.144207001">
  <ele>122.041626</ele>
  <time>2011-09-29T07:40:40Z</time>
  <speed>2.400000</speed>
</trkpt>
<trkpt lat="32.606571198" lon="35.144161224">
  <ele>122.641235</ele>
  <time>2011-09-29T07:40:42Z</time>
  <speed>2.390000</speed>
</trkpt>
<trkpt lat="32.606586456" lon="35.144115448">
  <ele>123.238892</ele>
  <time>2011-09-29T07:40:44Z</time>
  <speed>2.020000</speed>
</trkpt>
<trkpt lat="32.606594086" lon="35.144073486">
  <ele>124.051392</ele>
  <time>2011-09-29T07:40:46Z</time>
  <speed>2.170000</speed>
</trkpt>
<trkpt lat="32.606597900" lon="35.144016266">
  <ele>124.731079</ele>
  <time>2011-09-29T07:40:48Z</time>
  <speed>2.390000</speed>
</trkpt>
<trkpt lat="32.606597900" lon="35.143966675">
  <ele>124.754517</ele>
  <time>2011-09-29T07:40:50Z</time>
  <speed>2.420000</speed>
</trkpt>
<trkpt lat="32.606605530" lon="35.143917084">
  <ele>124.432251</ele>
  <time>2011-09-29T07:40:52Z</time>
  <speed>2.520000</speed>
</trkpt>
<trkpt lat="32.606613159" lon="35.143863678">
  <ele>125.490845</ele>
  <time>2011-09-29T07:40:54Z</time>
  <speed>2.180000</speed>
</trkpt>
<trkpt lat="32.606624603" lon="35.143810272">
  <ele>125.590454</ele>
  <time>2011-09-29T07:40:56Z</time>
  <speed>2.640000</speed>
</trkpt>
<trkpt lat="32.606632233" lon="35.143749237">
  <ele>125.633423</ele>
  <time>2011-09-29T07:40:58Z</time>
  <speed>2.900000</speed>
</trkpt>
<trkpt lat="32.606632233" lon="35.143718719">
  <ele>125.854126</ele>
  <time>2011-09-29T07:40:59Z</time>
  <speed>2.740000</speed>
</trkpt>
<trkpt lat="32.606632233" lon="35.143684387">
  <ele>126.137329</ele>
  <time>2011-09-29T07:41:00Z</time>
  <speed>2.760000</speed>
</trkpt>
<trkpt lat="32.606632233" lon="35.143630981">
  <ele>126.303345</ele>
  <time>2011-09-29T07:41:02Z</time>
  <speed>2.850000</speed>
</trkpt>
<trkpt lat="32.606636047" lon="35.143573761">
  <ele>126.000610</ele>
  <time>2011-09-29T07:41:04Z</time>
  <speed>2.890000</speed>
</trkpt>
<trkpt lat="32.606643677" lon="35.143508911">
  <ele>125.651001</ele>
  <time>2011-09-29T07:41:06Z</time>
  <speed>3.010000</speed>
</trkpt>
<trkpt lat="32.606647491" lon="35.143474579">
  <ele>125.100220</ele>
  <time>2011-09-29T07:41:07Z</time>
  <speed>2.980000</speed>
</trkpt>
<trkpt lat="32.606651306" lon="35.143440247">
  <ele>125.240845</ele>
  <time>2011-09-29T07:41:08Z</time>
  <speed>3.060000</speed>
</trkpt>
<trkpt lat="32.606655121" lon="35.143405914">
  <ele>125.471313</ele>
  <time>2011-09-29T07:41:09Z</time>
  <speed>2.960000</speed>
</trkpt>
<trkpt lat="32.606662750" lon="35.143375397">
  <ele>125.459595</ele>
  <time>2011-09-29T07:41:10Z</time>
  <speed>2.990000</speed>
</trkpt>
<trkpt lat="32.606666565" lon="35.143341064">
  <ele>125.412720</ele>
  <time>2011-09-29T07:41:11Z</time>
  <speed>3.050000</speed>
</trkpt>
<trkpt lat="32.606681824" lon="35.143276215">
  <ele>125.022095</ele>
  <time>2011-09-29T07:41:13Z</time>
  <speed>3.230000</speed>
</trkpt>
<trkpt lat="32.606681824" lon="35.143241882">
  <ele>125.229126</ele>
  <time>2011-09-29T07:41:14Z</time>
  <speed>3.310000</speed>
</trkpt>
<trkpt lat="32.606689453" lon="35.143203735">
  <ele>125.166626</ele>
  <time>2011-09-29T07:41:15Z</time>
  <speed>3.410000</speed>
</trkpt>
<trkpt lat="32.606693268" lon="35.143138885">
  <ele>125.084595</ele>
  <time>2011-09-29T07:41:17Z</time>
  <speed>3.440000</speed>
</trkpt>
<trkpt lat="32.606693268" lon="35.143104553">
  <ele>124.859985</ele>
  <time>2011-09-29T07:41:18Z</time>
  <speed>3.360000</speed>
</trkpt>
<trkpt lat="32.606693268" lon="35.143074036">
  <ele>125.004517</ele>
  <time>2011-09-29T07:41:19Z</time>
  <speed>3.420000</speed>
</trkpt>
<trkpt lat="32.606697083" lon="35.143039703">
  <ele>124.863892</ele>
  <time>2011-09-29T07:41:20Z</time>
  <speed>3.540000</speed>
</trkpt>
<trkpt lat="32.606697083" lon="35.143001556">
  <ele>124.768188</ele>
  <time>2011-09-29T07:41:21Z</time>
  <speed>3.460000</speed>
</trkpt>
<trkpt lat="32.606700897" lon="35.142963409">
  <ele>124.684204</ele>
  <time>2011-09-29T07:41:22Z</time>
  <speed>3.740000</speed>
</trkpt>
<trkpt lat="32.606700897" lon="35.142929077">
  <ele>125.006470</ele>
  <time>2011-09-29T07:41:23Z</time>
  <speed>3.680000</speed>
</trkpt>
<trkpt lat="32.606704712" lon="35.142887115">
  <ele>124.822876</ele>
  <time>2011-09-29T07:41:24Z</time>
  <speed>3.730000</speed>
</trkpt>
<trkpt lat="32.606712341" lon="35.142848969">
  <ele>124.901001</ele>
  <time>2011-09-29T07:41:25Z</time>
  <speed>3.820000</speed>
</trkpt>
<trkpt lat="32.606716156" lon="35.142803192">
  <ele>124.828735</ele>
  <time>2011-09-29T07:41:26Z</time>
  <speed>3.820000</speed>
</trkpt>
<trkpt lat="32.606723785" lon="35.142765045">
  <ele>124.252563</ele>
  <time>2011-09-29T07:41:27Z</time>
  <speed>3.960000</speed>
</trkpt>
<trkpt lat="32.606727600" lon="35.142726898">
  <ele>123.668579</ele>
  <time>2011-09-29T07:41:28Z</time>
  <speed>3.900000</speed>
</trkpt>
<trkpt lat="32.606735229" lon="35.142681122">
  <ele>124.117798</ele>
  <time>2011-09-29T07:41:29Z</time>
  <speed>4.010000</speed>
</trkpt>
<trkpt lat="32.606742859" lon="35.142639160">
  <ele>124.049438</ele>
  <time>2011-09-29T07:41:30Z</time>
  <speed>3.790000</speed>
</trkpt>
<trkpt lat="32.606746674" lon="35.142601013">
  <ele>123.986938</ele>
  <time>2011-09-29T07:41:31Z</time>
  <speed>3.760000</speed>
</trkpt>
<trkpt lat="32.606750488" lon="35.142566681">
  <ele>123.795532</ele>
  <time>2011-09-29T07:41:32Z</time>
  <speed>3.640000</speed>
</trkpt>
<trkpt lat="32.606758118" lon="35.142528534">
  <ele>123.580688</ele>
  <time>2011-09-29T07:41:33Z</time>
  <speed>3.630000</speed>
</trkpt>
<trkpt lat="32.606761932" lon="35.142486572">
  <ele>123.623657</ele>
  <time>2011-09-29T07:41:34Z</time>
  <speed>3.730000</speed>
</trkpt>
<trkpt lat="32.606765747" lon="35.142444611">
  <ele>123.311157</ele>
  <time>2011-09-29T07:41:35Z</time>
  <speed>3.850000</speed>
</trkpt>
<trkpt lat="32.606773376" lon="35.142402649">
  <ele>123.281860</ele>
  <time>2011-09-29T07:41:36Z</time>
  <speed>4.010000</speed>
</trkpt>
<trkpt lat="32.606781006" lon="35.142360687">
  <ele>123.445923</ele>
  <time>2011-09-29T07:41:37Z</time>
  <speed>3.960000</speed>
</trkpt>
<trkpt lat="32.606784821" lon="35.142322540">
  <ele>123.438110</ele>
  <time>2011-09-29T07:41:38Z</time>
  <speed>3.810000</speed>
</trkpt>
<trkpt lat="32.606788635" lon="35.142284393">
  <ele>123.229126</ele>
  <time>2011-09-29T07:41:39Z</time>
  <speed>3.700000</speed>
</trkpt>
<trkpt lat="32.606792450" lon="35.142246246">
  <ele>122.479126</ele>
  <time>2011-09-29T07:41:40Z</time>
  <speed>3.760000</speed>
</trkpt>
<trkpt lat="32.606796265" lon="35.142204285">
  <ele>122.213501</ele>
  <time>2011-09-29T07:41:41Z</time>
  <speed>3.900000</speed>
</trkpt>
<trkpt lat="32.606800079" lon="35.142162323">
  <ele>122.133423</ele>
  <time>2011-09-29T07:41:42Z</time>
  <speed>3.730000</speed>
</trkpt>
<trkpt lat="32.606800079" lon="35.142120361">
  <ele>121.912720</ele>
  <time>2011-09-29T07:41:43Z</time>
  <speed>3.810000</speed>
</trkpt>
<trkpt lat="32.606807709" lon="35.142078400">
  <ele>121.760376</ele>
  <time>2011-09-29T07:41:44Z</time>
  <speed>3.910000</speed>
</trkpt>
<trkpt lat="32.606815338" lon="35.142044067">
  <ele>121.209595</ele>
  <time>2011-09-29T07:41:45Z</time>
  <speed>3.950000</speed>
</trkpt>
<trkpt lat="32.606819153" lon="35.142002106">
  <ele>120.957642</ele>
  <time>2011-09-29T07:41:46Z</time>
  <speed>4.040000</speed>
</trkpt>
<trkpt lat="32.606826782" lon="35.141960144">
  <ele>120.442017</ele>
  <time>2011-09-29T07:41:47Z</time>
  <speed>4.280000</speed>
</trkpt>
<trkpt lat="32.606834412" lon="35.141914368">
  <ele>120.291626</ele>
  <time>2011-09-29T07:41:48Z</time>
  <speed>4.260000</speed>
</trkpt>
<trkpt lat="32.606842041" lon="35.141864777">
  <ele>120.652954</ele>
  <time>2011-09-29T07:41:49Z</time>
  <speed>4.630000</speed>
</trkpt>
<trkpt lat="32.606849670" lon="35.141819000">
  <ele>119.772095</ele>
  <time>2011-09-29T07:41:50Z</time>
  <speed>4.940000</speed>
</trkpt>
<trkpt lat="32.606853485" lon="35.141765594">
  <ele>119.609985</ele>
  <time>2011-09-29T07:41:51Z</time>
  <speed>5.420000</speed>
</trkpt>
<trkpt lat="32.606864929" lon="35.141704559">
  <ele>119.342407</ele>
  <time>2011-09-29T07:41:52Z</time>
  <speed>5.570000</speed>
</trkpt>
<trkpt lat="32.606872559" lon="35.141639709">
  <ele>118.428345</ele>
  <time>2011-09-29T07:41:53Z</time>
  <speed>6.400000</speed>
</trkpt>
<trkpt lat="32.606884003" lon="35.141567230">
  <ele>118.531860</ele>
  <time>2011-09-29T07:41:54Z</time>
  <speed>6.700000</speed>
</trkpt>
<trkpt lat="32.606895447" lon="35.141490936">
  <ele>118.904907</ele>
  <time>2011-09-29T07:41:55Z</time>
  <speed>7.060000</speed>
</trkpt>
<trkpt lat="32.606910706" lon="35.141414642">
  <ele>119.242798</ele>
  <time>2011-09-29T07:41:56Z</time>
  <speed>6.920000</speed>
</trkpt>
<trkpt lat="32.606918335" lon="35.141338348">
  <ele>119.777954</ele>
  <time>2011-09-29T07:41:57Z</time>
  <speed>6.730000</speed>
</trkpt>
<trkpt lat="32.606933594" lon="35.141265869">
  <ele>119.912720</ele>
  <time>2011-09-29T07:41:58Z</time>
  <speed>6.270000</speed>
</trkpt>
<trkpt lat="32.606952667" lon="35.141204834">
  <ele>120.443970</ele>
  <time>2011-09-29T07:41:59Z</time>
  <speed>5.900000</speed>
</trkpt>
<trkpt lat="32.606967926" lon="35.141155243">
  <ele>120.334595</ele>
  <time>2011-09-29T07:42:00Z</time>
  <speed>5.110000</speed>
</trkpt>
<trkpt lat="32.606987000" lon="35.141109467">
  <ele>120.358032</ele>
  <time>2011-09-29T07:42:01Z</time>
  <speed>4.630000</speed>
</trkpt>
<trkpt lat="32.607009888" lon="35.141067505">
  <ele>121.027954</ele>
  <time>2011-09-29T07:42:02Z</time>
  <speed>4.220000</speed>
</trkpt>
<trkpt lat="32.607032776" lon="35.141033173">
  <ele>120.668579</ele>
  <time>2011-09-29T07:42:03Z</time>
  <speed>3.710000</speed>
</trkpt>
<trkpt lat="32.607055664" lon="35.141010284">
  <ele>121.406860</ele>
  <time>2011-09-29T07:42:04Z</time>
  <speed>3.690000</speed>
</trkpt>
<trkpt lat="32.607074738" lon="35.140979767">
  <ele>121.565063</ele>
  <time>2011-09-29T07:42:05Z</time>
  <speed>3.400000</speed>
</trkpt>
<trkpt lat="32.607086182" lon="35.140949249">
  <ele>121.363892</ele>
  <time>2011-09-29T07:42:06Z</time>
  <speed>3.170000</speed>
</trkpt>
<trkpt lat="32.607120514" lon="35.140899658">
  <ele>121.934204</ele>
  <time>2011-09-29T07:42:08Z</time>
  <speed>2.540000</speed>
</trkpt>
<trkpt lat="32.607151031" lon="35.140857697">
  <ele>121.928345</ele>
  <time>2011-09-29T07:42:10Z</time>
  <speed>2.790000</speed>
</trkpt>
<trkpt lat="32.607173920" lon="35.140808105">
  <ele>121.633423</ele>
  <time>2011-09-29T07:42:12Z</time>
  <speed>2.420000</speed>
</trkpt>
<trkpt lat="32.607204437" lon="35.140777588">
  <ele>122.770142</ele>
  <time>2011-09-29T07:42:14Z</time>
  <speed>2.350000</speed>
</trkpt>
<trkpt lat="32.607246399" lon="35.140747070">
  <ele>123.035767</ele>
  <time>2011-09-29T07:42:16Z</time>
  <speed>2.430000</speed>
</trkpt>
<trkpt lat="32.607273102" lon="35.140705109">
  <ele>122.945923</ele>
  <time>2011-09-29T07:42:18Z</time>
  <speed>2.340000</speed>
</trkpt>
<trkpt lat="32.607299805" lon="35.140666962">
  <ele>122.852173</ele>
  <time>2011-09-29T07:42:20Z</time>
  <speed>2.550000</speed>
</trkpt>
<trkpt lat="32.607334137" lon="35.140628815">
  <ele>122.789673</ele>
  <time>2011-09-29T07:42:22Z</time>
  <speed>2.530000</speed>
</trkpt>
<trkpt lat="32.607357025" lon="35.140583038">
  <ele>122.949829</ele>
  <time>2011-09-29T07:42:24Z</time>
  <speed>2.560000</speed>
</trkpt>
<trkpt lat="32.607383728" lon="35.140544891">
  <ele>123.018188</ele>
  <time>2011-09-29T07:42:26Z</time>
  <speed>2.400000</speed>
</trkpt>
<trkpt lat="32.607414246" lon="35.140502930">
  <ele>123.420532</ele>
  <time>2011-09-29T07:42:28Z</time>
  <speed>2.270000</speed>
</trkpt>
<trkpt lat="32.607444763" lon="35.140460968">
  <ele>123.899048</ele>
  <time>2011-09-29T07:42:30Z</time>
  <speed>2.260000</speed>
</trkpt>
<trkpt lat="32.607471466" lon="35.140426636">
  <ele>124.395142</ele>
  <time>2011-09-29T07:42:32Z</time>
  <speed>1.900000</speed>
</trkpt>
<trkpt lat="32.607498169" lon="35.140388489">
  <ele>123.143188</ele>
  <time>2011-09-29T07:42:34Z</time>
  <speed>1.990000</speed>
</trkpt>
<trkpt lat="32.607517242" lon="35.140346527">
  <ele>124.000610</ele>
  <time>2011-09-29T07:42:36Z</time>
  <speed>2.250000</speed>
</trkpt>
<trkpt lat="32.607536316" lon="35.140312195">
  <ele>125.586548</ele>
  <time>2011-09-29T07:42:38Z</time>
  <speed>2.490000</speed>
</trkpt>
<trkpt lat="32.607566833" lon="35.140270233">
  <ele>126.408813</ele>
  <time>2011-09-29T07:42:40Z</time>
  <speed>2.120000</speed>
</trkpt>
<trkpt lat="32.607585907" lon="35.140235901">
  <ele>126.932251</ele>
  <time>2011-09-29T07:42:42Z</time>
  <speed>2.280000</speed>
</trkpt>
<trkpt lat="32.607604980" lon="35.140193939">
  <ele>127.752563</ele>
  <time>2011-09-29T07:42:44Z</time>
  <speed>1.830000</speed>
</trkpt>
<trkpt lat="32.607624054" lon="35.140155792">
  <ele>128.649658</ele>
  <time>2011-09-29T07:42:46Z</time>
  <speed>1.880000</speed>
</trkpt>
<trkpt lat="32.607643127" lon="35.140117645">
  <ele>128.825439</ele>
  <time>2011-09-29T07:42:48Z</time>
  <speed>2.030000</speed>
</trkpt>
<trkpt lat="32.607666016" lon="35.140087128">
  <ele>129.841064</ele>
  <time>2011-09-29T07:42:50Z</time>
  <speed>2.040000</speed>
</trkpt>
<trkpt lat="32.607685089" lon="35.140052795">
  <ele>130.860596</ele>
  <time>2011-09-29T07:42:52Z</time>
  <speed>2.120000</speed>
</trkpt>
<trkpt lat="32.607700348" lon="35.140010834">
  <ele>131.227783</ele>
  <time>2011-09-29T07:42:54Z</time>
  <speed>1.990000</speed>
</trkpt>
<trkpt lat="32.607719421" lon="35.139965057">
  <ele>133.153564</ele>
  <time>2011-09-29T07:42:56Z</time>
  <speed>2.270000</speed>
</trkpt>
<trkpt lat="32.607742310" lon="35.139926910">
  <ele>133.622314</ele>
  <time>2011-09-29T07:42:58Z</time>
  <speed>2.080000</speed>
</trkpt>
<trkpt lat="32.607772827" lon="35.139900208">
  <ele>133.403564</ele>
  <time>2011-09-29T07:43:00Z</time>
  <speed>2.110000</speed>
</trkpt>
<trkpt lat="32.607799530" lon="35.139865875">
  <ele>133.384033</ele>
  <time>2011-09-29T07:43:02Z</time>
  <speed>2.010000</speed>
</trkpt>
<trkpt lat="32.607826233" lon="35.139835358">
  <ele>133.364502</ele>
  <time>2011-09-29T07:43:04Z</time>
  <speed>2.110000</speed>
</trkpt>
<trkpt lat="32.607849121" lon="35.139801025">
  <ele>133.149658</ele>
  <time>2011-09-29T07:43:06Z</time>
  <speed>2.050000</speed>
</trkpt>
<trkpt lat="32.607856750" lon="35.139751434">
  <ele>133.876221</ele>
  <time>2011-09-29T07:43:08Z</time>
  <speed>2.180000</speed>
</trkpt>
<trkpt lat="32.607875824" lon="35.139713287">
  <ele>134.157471</ele>
  <time>2011-09-29T07:43:10Z</time>
  <speed>2.060000</speed>
</trkpt>
<trkpt lat="32.607894897" lon="35.139675140">
  <ele>134.950439</ele>
  <time>2011-09-29T07:43:12Z</time>
  <speed>1.970000</speed>
</trkpt>
<trkpt lat="32.607917786" lon="35.139644623">
  <ele>135.200439</ele>
  <time>2011-09-29T07:43:14Z</time>
  <speed>2.070000</speed>
</trkpt>
<trkpt lat="32.607948303" lon="35.139617920">
  <ele>135.583252</ele>
  <time>2011-09-29T07:43:16Z</time>
  <speed>2.070000</speed>
</trkpt>
<trkpt lat="32.607975006" lon="35.139595032">
  <ele>135.380127</ele>
  <time>2011-09-29T07:43:18Z</time>
  <speed>2.090000</speed>
</trkpt>
<trkpt lat="32.607994080" lon="35.139556885">
  <ele>135.637939</ele>
  <time>2011-09-29T07:43:20Z</time>
  <speed>2.040000</speed>
</trkpt>
<trkpt lat="32.608005524" lon="35.139514923">
  <ele>136.012939</ele>
  <time>2011-09-29T07:43:22Z</time>
  <speed>2.180000</speed>
</trkpt>
<trkpt lat="32.608024597" lon="35.139476776">
  <ele>136.594971</ele>
  <time>2011-09-29T07:43:24Z</time>
  <speed>2.040000</speed>
</trkpt>
<trkpt lat="32.608036041" lon="35.139434814">
  <ele>136.606689</ele>
  <time>2011-09-29T07:43:26Z</time>
  <speed>1.920000</speed>
</trkpt>
<trkpt lat="32.608047485" lon="35.139389038">
  <ele>136.302002</ele>
  <time>2011-09-29T07:43:28Z</time>
  <speed>1.800000</speed>
</trkpt>
<trkpt lat="32.608058929" lon="35.139339447">
  <ele>137.196533</ele>
  <time>2011-09-29T07:43:30Z</time>
  <speed>1.950000</speed>
</trkpt>
<trkpt lat="32.608078003" lon="35.139301300">
  <ele>137.415283</ele>
  <time>2011-09-29T07:43:32Z</time>
  <speed>2.110000</speed>
</trkpt>
<trkpt lat="32.608093262" lon="35.139263153">
  <ele>137.516846</ele>
  <time>2011-09-29T07:43:34Z</time>
  <speed>1.610000</speed>
</trkpt>
<trkpt lat="32.608100891" lon="35.139221191">
  <ele>137.235596</ele>
  <time>2011-09-29T07:43:36Z</time>
  <speed>1.810000</speed>
</trkpt>
<trkpt lat="32.608108521" lon="35.139175415">
  <ele>138.184814</ele>
  <time>2011-09-29T07:43:38Z</time>
  <speed>1.910000</speed>
</trkpt>
<trkpt lat="32.608116150" lon="35.139122009">
  <ele>138.137939</ele>
  <time>2011-09-29T07:43:40Z</time>
  <speed>2.040000</speed>
</trkpt>
<trkpt lat="32.608123779" lon="35.139076233">
  <ele>137.833252</ele>
  <time>2011-09-29T07:43:42Z</time>
  <speed>1.810000</speed>
</trkpt>
<trkpt lat="32.608119965" lon="35.139034271">
  <ele>137.493408</ele>
  <time>2011-09-29T07:43:44Z</time>
  <speed>1.840000</speed>
</trkpt>
<trkpt lat="32.608127594" lon="35.138988495">
  <ele>137.727783</ele>
  <time>2011-09-29T07:43:46Z</time>
  <speed>1.950000</speed>
</trkpt>
<trkpt lat="32.608135223" lon="35.138950348">
  <ele>137.313721</ele>
  <time>2011-09-29T07:43:48Z</time>
  <speed>2.030000</speed>
</trkpt>
<trkpt lat="32.608131409" lon="35.138912201">
  <ele>138.368408</ele>
  <time>2011-09-29T07:43:49Z</time>
  <speed>2.210000</speed>
</trkpt>
<trkpt lat="32.608131409" lon="35.138866425">
  <ele>138.719971</ele>
  <time>2011-09-29T07:43:51Z</time>
  <speed>2.120000</speed>
</trkpt>
<trkpt lat="32.608135223" lon="35.138824463">
  <ele>138.419189</ele>
  <time>2011-09-29T07:43:53Z</time>
  <speed>1.860000</speed>
</trkpt>
<trkpt lat="32.608119965" lon="35.138782501">
  <ele>138.622314</ele>
  <time>2011-09-29T07:43:55Z</time>
  <speed>2.050000</speed>
</trkpt>
<trkpt lat="32.608116150" lon="35.138740540">
  <ele>138.473877</ele>
  <time>2011-09-29T07:43:57Z</time>
  <speed>2.050000</speed>
</trkpt>
<trkpt lat="32.608112335" lon="35.138690948">
  <ele>139.309814</ele>
  <time>2011-09-29T07:43:59Z</time>
  <speed>2.350000</speed>
</trkpt>
<trkpt lat="32.608104706" lon="35.138637543">
  <ele>139.555908</ele>
  <time>2011-09-29T07:44:01Z</time>
  <speed>2.290000</speed>
</trkpt>
<trkpt lat="32.608116150" lon="35.138591766">
  <ele>139.227783</ele>
  <time>2011-09-29T07:44:03Z</time>
  <speed>2.090000</speed>
</trkpt>
<trkpt lat="32.608112335" lon="35.138542175">
  <ele>139.524658</ele>
  <time>2011-09-29T07:44:05Z</time>
  <speed>2.180000</speed>
</trkpt>
<trkpt lat="32.608104706" lon="35.138488770">
  <ele>141.641846</ele>
  <time>2011-09-29T07:44:07Z</time>
  <speed>2.100000</speed>
</trkpt>
<trkpt lat="32.608097076" lon="35.138431549">
  <ele>143.415283</ele>
  <time>2011-09-29T07:44:09Z</time>
  <speed>2.140000</speed>
</trkpt>
<trkpt lat="32.608100891" lon="35.138378143">
  <ele>144.766846</ele>
  <time>2011-09-29T07:44:11Z</time>
  <speed>1.830000</speed>
</trkpt>
<trkpt lat="32.608108521" lon="35.138328552">
  <ele>145.969971</ele>
  <time>2011-09-29T07:44:13Z</time>
  <speed>2.130000</speed>
</trkpt>
<trkpt lat="32.608119965" lon="35.138290405">
  <ele>146.575439</ele>
  <time>2011-09-29T07:44:15Z</time>
  <speed>2.000000</speed>
</trkpt>
<trkpt lat="32.608131409" lon="35.138248444">
  <ele>148.005127</ele>
  <time>2011-09-29T07:44:17Z</time>
  <speed>1.770000</speed>
</trkpt>
<trkpt lat="32.608139038" lon="35.138217926">
  <ele>149.040283</ele>
  <time>2011-09-29T07:44:19Z</time>
  <speed>1.670000</speed>
</trkpt>
<trkpt lat="32.608154297" lon="35.138183594">
  <ele>149.512939</ele>
  <time>2011-09-29T07:44:21Z</time>
  <speed>1.800000</speed>
</trkpt>
<trkpt lat="32.608169556" lon="35.138156891">
  <ele>149.653564</ele>
  <time>2011-09-29T07:44:23Z</time>
  <speed>1.750000</speed>
</trkpt>
<trkpt lat="32.608184814" lon="35.138118744">
  <ele>150.274658</ele>
  <time>2011-09-29T07:44:25Z</time>
  <speed>1.800000</speed>
</trkpt>
<trkpt lat="32.608219147" lon="35.138099670">
  <ele>149.817627</ele>
  <time>2011-09-29T07:44:27Z</time>
  <speed>2.230000</speed>
</trkpt>
<trkpt lat="32.608245850" lon="35.138069153">
  <ele>150.645752</ele>
  <time>2011-09-29T07:44:29Z</time>
  <speed>2.110000</speed>
</trkpt>
<trkpt lat="32.608280182" lon="35.138042450">
  <ele>151.009033</ele>
  <time>2011-09-29T07:44:31Z</time>
  <speed>1.990000</speed>
</trkpt>
<trkpt lat="32.608306885" lon="35.138015747">
  <ele>151.227783</ele>
  <time>2011-09-29T07:44:33Z</time>
  <speed>2.110000</speed>
</trkpt>
<trkpt lat="32.608329773" lon="35.137977600">
  <ele>151.309814</ele>
  <time>2011-09-29T07:44:35Z</time>
  <speed>1.910000</speed>
</trkpt>
<trkpt lat="32.608360291" lon="35.137947083">
  <ele>151.946533</ele>
  <time>2011-09-29T07:44:37Z</time>
  <speed>1.920000</speed>
</trkpt>
<trkpt lat="32.608386993" lon="35.137931824">
  <ele>152.313721</ele>
  <time>2011-09-29T07:44:39Z</time>
  <speed>1.820000</speed>
</trkpt>
<trkpt lat="32.608421326" lon="35.137924194">
  <ele>152.516846</ele>
  <time>2011-09-29T07:44:41Z</time>
  <speed>2.030000</speed>
</trkpt>
<trkpt lat="32.608455658" lon="35.137908936">
  <ele>152.528564</ele>
  <time>2011-09-29T07:44:43Z</time>
  <speed>2.040000</speed>
</trkpt>
<trkpt lat="32.608493805" lon="35.137889862">
  <ele>152.688721</ele>
  <time>2011-09-29T07:44:45Z</time>
  <speed>2.150000</speed>
</trkpt>
<trkpt lat="32.608528137" lon="35.137882233">
  <ele>152.450439</ele>
  <time>2011-09-29T07:44:47Z</time>
  <speed>2.560000</speed>
</trkpt>
<trkpt lat="32.608573914" lon="35.137870789">
  <ele>152.063721</ele>
  <time>2011-09-29T07:44:49Z</time>
  <speed>2.290000</speed>
</trkpt>
<trkpt lat="32.608608246" lon="35.137851715">
  <ele>152.048096</ele>
  <time>2011-09-29T07:44:51Z</time>
  <speed>2.020000</speed>
</trkpt>
<trkpt lat="32.608654022" lon="35.137825012">
  <ele>153.052002</ele>
  <time>2011-09-29T07:44:53Z</time>
  <speed>2.170000</speed>
</trkpt>
<trkpt lat="32.608695984" lon="35.137813568">
  <ele>152.837158</ele>
  <time>2011-09-29T07:44:55Z</time>
  <speed>2.290000</speed>
</trkpt>
<trkpt lat="32.608730316" lon="35.137790680">
  <ele>153.555908</ele>
  <time>2011-09-29T07:44:57Z</time>
  <speed>2.540000</speed>
</trkpt>
<trkpt lat="32.608787537" lon="35.137794495">
  <ele>152.200439</ele>
  <time>2011-09-29T07:44:59Z</time>
  <speed>2.480000</speed>
</trkpt>
<trkpt lat="32.608837128" lon="35.137802124">
  <ele>150.692627</ele>
  <time>2011-09-29T07:45:01Z</time>
  <speed>2.470000</speed>
</trkpt>
<trkpt lat="32.608882904" lon="35.137786865">
  <ele>151.446533</ele>
  <time>2011-09-29T07:45:03Z</time>
  <speed>2.450000</speed>
</trkpt>
<trkpt lat="32.608924866" lon="35.137767792">
  <ele>151.516846</ele>
  <time>2011-09-29T07:45:05Z</time>
  <speed>2.360000</speed>
</trkpt>
<trkpt lat="32.608963013" lon="35.137744904">
  <ele>151.927002</ele>
  <time>2011-09-29T07:45:07Z</time>
  <speed>2.070000</speed>
</trkpt>
<trkpt lat="32.608959198" lon="35.137706757">
  <ele>152.790283</ele>
  <time>2011-09-29T07:45:10Z</time>
  <speed>0.680000</speed>
</trkpt>
<trkpt lat="32.608947754" lon="35.137680054">
  <ele>152.040283</ele>
  <time>2011-09-29T07:45:18Z</time>
  <speed>0.070000</speed>
</trkpt>
<trkpt lat="32.608932495" lon="35.137668610">
  <ele>150.341064</ele>
  <time>2011-09-29T07:45:20Z</time>
  <speed>0.090000</speed>
</trkpt>
</trkseg>
</trk>
</gpx>
